<?xml version="1.0" encoding="UTF-8" standalone="no" ?>
<gpx xmlns="http://www.topografix.com/GPX/1/1" xmlns:xsi="http://www.w3.org/2001/XMLSchema-instance" xsi:schemaLocation="http://www.topografix.com/GPX/1/1 http://www.topografix.com/GPX/1/1/gpx.xsd" version="1.1" creator="VisuGPX - https://www.visugpx.com">
  <metadata>
    <name>TET_E-07-CAN_20241226</name>
    <desc><![CDATA[

]]></desc>
  </metadata>
  <trk>
    <name><![CDATA[TET_E-07-CAN_20241226]]></name>
    <extensions>
      <line xmlns="http://www.topografix.com/GPX/gpx_style/0/2">
        <color>FFFF00</color>
        <width>4</width>
      </line>
    </extensions>
    <trkseg>
      <trkpt lat="43.28612" lon="-3.21508">
        <ele>667</ele>
        <time>2023-07-12T22:12:30.000+02:00</time>
      </trkpt>
      <trkpt lat="43.28623" lon="-3.21517">
        <ele>667</ele>
        <time>2023-07-12T22:12:32.000+02:00</time>
      </trkpt>
      <trkpt lat="43.28635" lon="-3.21529">
        <ele>668</ele>
        <time>2023-07-12T22:12:34.000+02:00</time>
      </trkpt>
      <trkpt lat="43.28651" lon="-3.21541">
        <ele>668.5</ele>
        <time>2023-07-12T22:12:37.000+02:00</time>
      </trkpt>
      <trkpt lat="43.28686" lon="-3.21572">
        <ele>668.8</ele>
        <time>2023-07-12T22:12:43.000+02:00</time>
      </trkpt>
      <trkpt lat="43.28705" lon="-3.21581">
        <ele>665.8</ele>
        <time>2023-07-12T22:12:46.000+02:00</time>
      </trkpt>
      <trkpt lat="43.28741" lon="-3.21604">
        <ele>662.8</ele>
        <time>2023-07-12T22:12:53.000+02:00</time>
      </trkpt>
      <trkpt lat="43.28759" lon="-3.21625">
        <ele>663.3</ele>
        <time>2023-07-12T22:12:56.000+02:00</time>
      </trkpt>
      <trkpt lat="43.28776" lon="-3.21646">
        <ele>664.5</ele>
        <time>2023-07-12T22:13:00.000+02:00</time>
      </trkpt>
      <trkpt lat="43.28797" lon="-3.21661">
        <ele>661.3</ele>
        <time>2023-07-12T22:13:03.000+02:00</time>
      </trkpt>
      <trkpt lat="43.28806" lon="-3.21668">
        <ele>660.8</ele>
        <time>2023-07-12T22:13:05.000+02:00</time>
      </trkpt>
      <trkpt lat="43.28819" lon="-3.21684">
        <ele>659.8</ele>
        <time>2023-07-12T22:13:07.000+02:00</time>
      </trkpt>
      <trkpt lat="43.28836" lon="-3.217">
        <ele>658</ele>
        <time>2023-07-12T22:13:11.000+02:00</time>
      </trkpt>
      <trkpt lat="43.28846" lon="-3.21709">
        <ele>658.5</ele>
        <time>2023-07-12T22:13:13.000+02:00</time>
      </trkpt>
      <trkpt lat="43.28882" lon="-3.2173">
        <ele>657.5</ele>
        <time>2023-07-12T22:13:18.000+02:00</time>
      </trkpt>
      <trkpt lat="43.28888" lon="-3.21737">
        <ele>658</ele>
        <time>2023-07-12T22:13:20.000+02:00</time>
      </trkpt>
      <trkpt lat="43.28902" lon="-3.21761">
        <ele>658.3</ele>
        <time>2023-07-12T22:13:23.000+02:00</time>
      </trkpt>
      <trkpt lat="43.2891" lon="-3.21768">
        <ele>656.5</ele>
        <time>2023-07-12T22:13:25.000+02:00</time>
      </trkpt>
      <trkpt lat="43.28932" lon="-3.21781">
        <ele>652.3</ele>
        <time>2023-07-12T22:13:28.000+02:00</time>
      </trkpt>
      <trkpt lat="43.28958" lon="-3.21791">
        <ele>648.5</ele>
        <time>2023-07-12T22:13:32.000+02:00</time>
      </trkpt>
      <trkpt lat="43.28972" lon="-3.21798">
        <ele>646.8</ele>
        <time>2023-07-12T22:13:35.000+02:00</time>
      </trkpt>
      <trkpt lat="43.28987" lon="-3.218">
        <ele>645</ele>
        <time>2023-07-12T22:13:37.000+02:00</time>
      </trkpt>
      <trkpt lat="43.28993" lon="-3.21803">
        <ele>644.5</ele>
        <time>2023-07-12T22:13:38.000+02:00</time>
      </trkpt>
      <trkpt lat="43.28997" lon="-3.21808">
        <ele>644.5</ele>
        <time>2023-07-12T22:13:39.000+02:00</time>
      </trkpt>
      <trkpt lat="43.29021" lon="-3.21815">
        <ele>643</ele>
        <time>2023-07-12T22:13:42.000+02:00</time>
      </trkpt>
      <trkpt lat="43.29028" lon="-3.21819">
        <ele>642.8</ele>
        <time>2023-07-12T22:13:43.000+02:00</time>
      </trkpt>
      <trkpt lat="43.29039" lon="-3.21819">
        <ele>642</ele>
        <time>2023-07-12T22:13:45.000+02:00</time>
      </trkpt>
      <trkpt lat="43.29057" lon="-3.21824">
        <ele>641</ele>
        <time>2023-07-12T22:13:48.000+02:00</time>
      </trkpt>
      <trkpt lat="43.29079" lon="-3.21832">
        <ele>640</ele>
        <time>2023-07-12T22:13:52.000+02:00</time>
      </trkpt>
      <trkpt lat="43.29093" lon="-3.21833">
        <ele>640.3</ele>
        <time>2023-07-12T22:13:54.000+02:00</time>
      </trkpt>
      <trkpt lat="43.29111" lon="-3.21825">
        <ele>639.8</ele>
        <time>2023-07-12T22:13:57.000+02:00</time>
      </trkpt>
      <trkpt lat="43.29119" lon="-3.21826">
        <ele>640.3</ele>
        <time>2023-07-12T22:13:58.000+02:00</time>
      </trkpt>
      <trkpt lat="43.29157" lon="-3.21854">
        <ele>638</ele>
        <time>2023-07-12T22:14:04.000+02:00</time>
      </trkpt>
      <trkpt lat="43.29184" lon="-3.21864">
        <ele>635.5</ele>
        <time>2023-07-12T22:14:09.000+02:00</time>
      </trkpt>
      <trkpt lat="43.292" lon="-3.21872">
        <ele>633.8</ele>
        <time>2023-07-12T22:14:11.000+02:00</time>
      </trkpt>
      <trkpt lat="43.29215" lon="-3.21875">
        <ele>633</ele>
        <time>2023-07-12T22:14:14.000+02:00</time>
      </trkpt>
      <trkpt lat="43.29223" lon="-3.21878">
        <ele>632.5</ele>
        <time>2023-07-12T22:14:15.000+02:00</time>
      </trkpt>
      <trkpt lat="43.29239" lon="-3.21889">
        <ele>631</ele>
        <time>2023-07-12T22:14:17.000+02:00</time>
      </trkpt>
      <trkpt lat="43.2925" lon="-3.21899">
        <ele>630</ele>
        <time>2023-07-12T22:14:20.000+02:00</time>
      </trkpt>
      <trkpt lat="43.29266" lon="-3.21916">
        <ele>626.3</ele>
        <time>2023-07-12T22:14:23.000+02:00</time>
      </trkpt>
      <trkpt lat="43.29285" lon="-3.21949">
        <ele>621</ele>
        <time>2023-07-12T22:14:27.000+02:00</time>
      </trkpt>
      <trkpt lat="43.29328" lon="-3.22006">
        <ele>617.5</ele>
        <time>2023-07-12T22:14:36.000+02:00</time>
      </trkpt>
      <trkpt lat="43.2934" lon="-3.22032">
        <ele>615</ele>
        <time>2023-07-12T22:14:40.000+02:00</time>
      </trkpt>
      <trkpt lat="43.29347" lon="-3.22052">
        <ele>613.3</ele>
        <time>2023-07-12T22:14:42.000+02:00</time>
      </trkpt>
      <trkpt lat="43.29348" lon="-3.22062">
        <ele>613</ele>
        <time>2023-07-12T22:14:43.000+02:00</time>
      </trkpt>
      <trkpt lat="43.2935" lon="-3.221">
        <ele>611.5</ele>
        <time>2023-07-12T22:14:48.000+02:00</time>
      </trkpt>
      <trkpt lat="43.29358" lon="-3.22142">
        <ele>609.3</ele>
        <time>2023-07-12T22:14:53.000+02:00</time>
      </trkpt>
      <trkpt lat="43.29368" lon="-3.22177">
        <ele>608</ele>
        <time>2023-07-12T22:14:57.000+02:00</time>
      </trkpt>
      <trkpt lat="43.29383" lon="-3.22219">
        <ele>605.3</ele>
        <time>2023-07-12T22:15:02.000+02:00</time>
      </trkpt>
      <trkpt lat="43.29401" lon="-3.22277">
        <ele>601.5</ele>
        <time>2023-07-12T22:15:09.000+02:00</time>
      </trkpt>
      <trkpt lat="43.2942" lon="-3.22357">
        <ele>594.3</ele>
        <time>2023-07-12T22:15:18.000+02:00</time>
      </trkpt>
      <trkpt lat="43.29427" lon="-3.2239">
        <ele>592.8</ele>
        <time>2023-07-12T22:15:22.000+02:00</time>
      </trkpt>
      <trkpt lat="43.29429" lon="-3.22403">
        <ele>592</ele>
        <time>2023-07-12T22:15:24.000+02:00</time>
      </trkpt>
      <trkpt lat="43.29426" lon="-3.22421">
        <ele>589.5</ele>
        <time>2023-07-12T22:15:26.000+02:00</time>
      </trkpt>
      <trkpt lat="43.29419" lon="-3.22443">
        <ele>586</ele>
        <time>2023-07-12T22:15:28.000+02:00</time>
      </trkpt>
      <trkpt lat="43.29417" lon="-3.22457">
        <ele>584.5</ele>
        <time>2023-07-12T22:15:30.000+02:00</time>
      </trkpt>
      <trkpt lat="43.29417" lon="-3.22461">
        <ele>584</ele>
        <time>2023-07-12T22:15:31.000+02:00</time>
      </trkpt>
      <trkpt lat="43.2942" lon="-3.22469">
        <ele>584</ele>
        <time>2023-07-12T22:15:32.000+02:00</time>
      </trkpt>
      <trkpt lat="43.29424" lon="-3.22472">
        <ele>584.3</ele>
        <time>2023-07-12T22:15:33.000+02:00</time>
      </trkpt>
      <trkpt lat="43.29443" lon="-3.22475">
        <ele>586.5</ele>
        <time>2023-07-12T22:15:36.000+02:00</time>
      </trkpt>
      <trkpt lat="43.29467" lon="-3.22481">
        <ele>588.8</ele>
        <time>2023-07-12T22:15:40.000+02:00</time>
      </trkpt>
      <trkpt lat="43.29505" lon="-3.22501">
        <ele>589.5</ele>
        <time>2023-07-12T22:15:46.000+02:00</time>
      </trkpt>
      <trkpt lat="43.29534" lon="-3.22507">
        <ele>592.5</ele>
        <time>2023-07-12T22:15:50.000+02:00</time>
      </trkpt>
      <trkpt lat="43.29545" lon="-3.22506">
        <ele>594.5</ele>
        <time>2023-07-12T22:15:52.000+02:00</time>
      </trkpt>
      <trkpt lat="43.29559" lon="-3.22499">
        <ele>598.3</ele>
        <time>2023-07-12T22:15:54.000+02:00</time>
      </trkpt>
      <trkpt lat="43.29564" lon="-3.22498">
        <ele>599</ele>
        <time>2023-07-12T22:15:55.000+02:00</time>
      </trkpt>
      <trkpt lat="43.29573" lon="-3.22502">
        <ele>600</ele>
        <time>2023-07-12T22:15:57.000+02:00</time>
      </trkpt>
      <trkpt lat="43.29579" lon="-3.22509">
        <ele>599.5</ele>
        <time>2023-07-12T22:15:58.000+02:00</time>
      </trkpt>
      <trkpt lat="43.29592" lon="-3.22533">
        <ele>596.5</ele>
        <time>2023-07-12T22:16:01.000+02:00</time>
      </trkpt>
      <trkpt lat="43.29605" lon="-3.22542">
        <ele>597</ele>
        <time>2023-07-12T22:16:03.000+02:00</time>
      </trkpt>
      <trkpt lat="43.29628" lon="-3.2255">
        <ele>599.5</ele>
        <time>2023-07-12T22:16:07.000+02:00</time>
      </trkpt>
      <trkpt lat="43.29644" lon="-3.22551">
        <ele>602</ele>
        <time>2023-07-12T22:16:09.000+02:00</time>
      </trkpt>
      <trkpt lat="43.29657" lon="-3.22551">
        <ele>604.3</ele>
        <time>2023-07-12T22:16:11.000+02:00</time>
      </trkpt>
      <trkpt lat="43.29668" lon="-3.22557">
        <ele>605.3</ele>
        <time>2023-07-12T22:16:13.000+02:00</time>
      </trkpt>
      <trkpt lat="43.29677" lon="-3.22565">
        <ele>605</ele>
        <time>2023-07-12T22:16:15.000+02:00</time>
      </trkpt>
      <trkpt lat="43.29684" lon="-3.22578">
        <ele>604</ele>
        <time>2023-07-12T22:16:17.000+02:00</time>
      </trkpt>
      <trkpt lat="43.29698" lon="-3.22593">
        <ele>603.3</ele>
        <time>2023-07-12T22:16:19.000+02:00</time>
      </trkpt>
      <trkpt lat="43.29705" lon="-3.22597">
        <ele>603.3</ele>
        <time>2023-07-12T22:16:21.000+02:00</time>
      </trkpt>
      <trkpt lat="43.29715" lon="-3.226">
        <ele>604</ele>
        <time>2023-07-12T22:16:22.000+02:00</time>
      </trkpt>
      <trkpt lat="43.29722" lon="-3.22595">
        <ele>605.8</ele>
        <time>2023-07-12T22:16:23.000+02:00</time>
      </trkpt>
      <trkpt lat="43.29732" lon="-3.22581">
        <ele>609.8</ele>
        <time>2023-07-12T22:16:25.000+02:00</time>
      </trkpt>
      <trkpt lat="43.29745" lon="-3.22574">
        <ele>612.8</ele>
        <time>2023-07-12T22:16:28.000+02:00</time>
      </trkpt>
      <trkpt lat="43.29756" lon="-3.22575">
        <ele>614.5</ele>
        <time>2023-07-12T22:16:29.000+02:00</time>
      </trkpt>
      <trkpt lat="43.29765" lon="-3.22577">
        <ele>616</ele>
        <time>2023-07-12T22:16:31.000+02:00</time>
      </trkpt>
      <trkpt lat="43.29782" lon="-3.22591">
        <ele>617.3</ele>
        <time>2023-07-12T22:16:34.000+02:00</time>
      </trkpt>
      <trkpt lat="43.29794" lon="-3.22601">
        <ele>617.3</ele>
        <time>2023-07-12T22:16:36.000+02:00</time>
      </trkpt>
      <trkpt lat="43.29822" lon="-3.22633">
        <ele>614.5</ele>
        <time>2023-07-12T22:16:41.000+02:00</time>
      </trkpt>
      <trkpt lat="43.29849" lon="-3.22653">
        <ele>611</ele>
        <time>2023-07-12T22:16:46.000+02:00</time>
      </trkpt>
      <trkpt lat="43.29861" lon="-3.22659">
        <ele>609</ele>
        <time>2023-07-12T22:16:48.000+02:00</time>
      </trkpt>
      <trkpt lat="43.29873" lon="-3.2266">
        <ele>608.3</ele>
        <time>2023-07-12T22:16:50.000+02:00</time>
      </trkpt>
      <trkpt lat="43.29883" lon="-3.22656">
        <ele>609</ele>
        <time>2023-07-12T22:16:52.000+02:00</time>
      </trkpt>
      <trkpt lat="43.2989" lon="-3.22648">
        <ele>611.3</ele>
        <time>2023-07-12T22:16:53.000+02:00</time>
      </trkpt>
      <trkpt lat="43.29894" lon="-3.22644">
        <ele>612.5</ele>
        <time>2023-07-12T22:16:54.000+02:00</time>
      </trkpt>
      <trkpt lat="43.2992" lon="-3.22606">
        <ele>622.8</ele>
        <time>2023-07-12T22:16:59.000+02:00</time>
      </trkpt>
      <trkpt lat="43.29934" lon="-3.22592">
        <ele>624.3</ele>
        <time>2023-07-12T22:17:02.000+02:00</time>
      </trkpt>
      <trkpt lat="43.29974" lon="-3.22566">
        <ele>622.3</ele>
        <time>2023-07-12T22:17:09.000+02:00</time>
      </trkpt>
      <trkpt lat="43.29987" lon="-3.22556">
        <ele>621.8</ele>
        <time>2023-07-12T22:17:11.000+02:00</time>
      </trkpt>
      <trkpt lat="43.30006" lon="-3.22554">
        <ele>620.3</ele>
        <time>2023-07-12T22:17:14.000+02:00</time>
      </trkpt>
      <trkpt lat="43.30027" lon="-3.22546">
        <ele>623.5</ele>
        <time>2023-07-12T22:17:17.000+02:00</time>
      </trkpt>
      <trkpt lat="43.30049" lon="-3.22545">
        <ele>625.5</ele>
        <time>2023-07-12T22:17:21.000+02:00</time>
      </trkpt>
      <trkpt lat="43.30059" lon="-3.22539">
        <ele>627.3</ele>
        <time>2023-07-12T22:17:22.000+02:00</time>
      </trkpt>
      <trkpt lat="43.30065" lon="-3.22546">
        <ele>626.8</ele>
        <time>2023-07-12T22:17:24.000+02:00</time>
      </trkpt>
      <trkpt lat="43.30074" lon="-3.2255">
        <ele>626.8</ele>
        <time>2023-07-12T22:17:25.000+02:00</time>
      </trkpt>
      <trkpt lat="43.30081" lon="-3.22552">
        <ele>627.3</ele>
        <time>2023-07-12T22:17:26.000+02:00</time>
      </trkpt>
      <trkpt lat="43.30116" lon="-3.22541">
        <ele>633</ele>
        <time>2023-07-12T22:17:32.000+02:00</time>
      </trkpt>
      <trkpt lat="43.30124" lon="-3.22541">
        <ele>634.3</ele>
        <time>2023-07-12T22:17:33.000+02:00</time>
      </trkpt>
      <trkpt lat="43.30183" lon="-3.22557">
        <ele>638.5</ele>
        <time>2023-07-12T22:17:42.000+02:00</time>
      </trkpt>
      <trkpt lat="43.30229" lon="-3.22573">
        <ele>640</ele>
        <time>2023-07-12T22:17:49.000+02:00</time>
      </trkpt>
      <trkpt lat="43.30241" lon="-3.22573">
        <ele>641.5</ele>
        <time>2023-07-12T22:17:51.000+02:00</time>
      </trkpt>
      <trkpt lat="43.3025" lon="-3.2257">
        <ele>643</ele>
        <time>2023-07-12T22:17:53.000+02:00</time>
      </trkpt>
      <trkpt lat="43.3029" lon="-3.22552">
        <ele>648.8</ele>
        <time>2023-07-12T22:17:59.000+02:00</time>
      </trkpt>
      <trkpt lat="43.30317" lon="-3.22544">
        <ele>651.3</ele>
        <time>2023-07-12T22:18:03.000+02:00</time>
      </trkpt>
      <trkpt lat="43.30373" lon="-3.22542">
        <ele>655.8</ele>
        <time>2023-07-12T22:18:12.000+02:00</time>
      </trkpt>
      <trkpt lat="43.30405" lon="-3.22552">
        <ele>657.8</ele>
        <time>2023-07-12T22:18:17.000+02:00</time>
      </trkpt>
      <trkpt lat="43.30431" lon="-3.22566">
        <ele>658.8</ele>
        <time>2023-07-12T22:18:21.000+02:00</time>
      </trkpt>
      <trkpt lat="43.30448" lon="-3.22561">
        <ele>661.3</ele>
        <time>2023-07-12T22:18:24.000+02:00</time>
      </trkpt>
      <trkpt lat="43.30526" lon="-3.22566">
        <ele>667.5</ele>
        <time>2023-07-12T22:18:36.000+02:00</time>
      </trkpt>
      <trkpt lat="43.30557" lon="-3.22574">
        <ele>667.8</ele>
        <time>2023-07-12T22:18:40.000+02:00</time>
      </trkpt>
      <trkpt lat="43.30577" lon="-3.22574">
        <ele>668.8</ele>
        <time>2023-07-12T22:18:43.000+02:00</time>
      </trkpt>
      <trkpt lat="43.30617" lon="-3.22565">
        <ele>672.5</ele>
        <time>2023-07-12T22:18:50.000+02:00</time>
      </trkpt>
      <trkpt lat="43.30657" lon="-3.22553">
        <ele>675.8</ele>
        <time>2023-07-12T22:18:56.000+02:00</time>
      </trkpt>
      <trkpt lat="43.30702" lon="-3.22566">
        <ele>679.3</ele>
        <time>2023-07-12T22:19:03.000+02:00</time>
      </trkpt>
      <trkpt lat="43.3072" lon="-3.22564">
        <ele>680.8</ele>
        <time>2023-07-12T22:19:06.000+02:00</time>
      </trkpt>
      <trkpt lat="43.30739" lon="-3.22554">
        <ele>682.5</ele>
        <time>2023-07-12T22:19:09.000+02:00</time>
      </trkpt>
      <trkpt lat="43.30745" lon="-3.22548">
        <ele>683</ele>
        <time>2023-07-12T22:19:10.000+02:00</time>
      </trkpt>
      <trkpt lat="43.30779" lon="-3.22566">
        <ele>687.8</ele>
        <time>2023-07-12T22:19:16.000+02:00</time>
      </trkpt>
      <trkpt lat="43.30813" lon="-3.22578">
        <ele>692.5</ele>
        <time>2023-07-12T22:19:21.000+02:00</time>
      </trkpt>
      <trkpt lat="43.3083" lon="-3.22579">
        <ele>694.8</ele>
        <time>2023-07-12T22:19:24.000+02:00</time>
      </trkpt>
      <trkpt lat="43.30836" lon="-3.22572">
        <ele>696</ele>
        <time>2023-07-12T22:19:25.000+02:00</time>
      </trkpt>
      <trkpt lat="43.30854" lon="-3.22509">
        <ele>702.5</ele>
        <time>2023-07-12T22:19:32.000+02:00</time>
      </trkpt>
      <trkpt lat="43.30898" lon="-3.22388">
        <ele>709.5</ele>
        <time>2023-07-12T22:19:47.000+02:00</time>
      </trkpt>
      <trkpt lat="43.30921" lon="-3.22317">
        <ele>711</ele>
        <time>2023-07-12T22:19:56.000+02:00</time>
      </trkpt>
      <trkpt lat="43.30926" lon="-3.22311">
        <ele>710</ele>
        <time>2023-07-12T22:19:57.000+02:00</time>
      </trkpt>
      <trkpt lat="43.30936" lon="-3.22305">
        <ele>708.8</ele>
        <time>2023-07-12T22:19:59.000+02:00</time>
      </trkpt>
      <trkpt lat="43.30947" lon="-3.22306">
        <ele>708.3</ele>
        <time>2023-07-12T22:20:00.000+02:00</time>
      </trkpt>
      <trkpt lat="43.3096" lon="-3.22311">
        <ele>708</ele>
        <time>2023-07-12T22:20:02.000+02:00</time>
      </trkpt>
      <trkpt lat="43.30965" lon="-3.22319">
        <ele>708.8</ele>
        <time>2023-07-12T22:20:04.000+02:00</time>
      </trkpt>
      <trkpt lat="43.30965" lon="-3.22321">
        <ele>708.8</ele>
        <time>2023-07-12T22:20:04.000+02:00</time>
      </trkpt>
      <trkpt lat="43.30965" lon="-3.22336">
        <ele>710.5</ele>
        <time>2023-07-12T22:20:05.000+02:00</time>
      </trkpt>
      <trkpt lat="43.30986" lon="-3.22312">
        <ele>704.3</ele>
        <time>2023-07-12T22:20:10.000+02:00</time>
      </trkpt>
      <trkpt lat="43.31446" lon="-3.21802">
        <ele>569.5</ele>
        <time>2023-07-12T22:21:40.000+02:00</time>
      </trkpt>
      <trkpt lat="43.31453" lon="-3.21809">
        <ele>568.8</ele>
        <time>2023-07-12T22:21:41.000+02:00</time>
      </trkpt>
      <trkpt lat="43.31462" lon="-3.21829">
        <ele>568.3</ele>
        <time>2023-07-12T22:21:44.000+02:00</time>
      </trkpt>
      <trkpt lat="43.3147" lon="-3.21832">
        <ele>566.3</ele>
        <time>2023-07-12T22:21:45.000+02:00</time>
      </trkpt>
      <trkpt lat="43.31479" lon="-3.21822">
        <ele>562.8</ele>
        <time>2023-07-12T22:21:47.000+02:00</time>
      </trkpt>
      <trkpt lat="43.31512" lon="-3.21793">
        <ele>554.8</ele>
        <time>2023-07-12T22:21:53.000+02:00</time>
      </trkpt>
      <trkpt lat="43.31543" lon="-3.21785">
        <ele>550.8</ele>
        <time>2023-07-12T22:21:58.000+02:00</time>
      </trkpt>
      <trkpt lat="43.31567" lon="-3.21776">
        <ele>548.3</ele>
        <time>2023-07-12T22:22:01.000+02:00</time>
      </trkpt>
      <trkpt lat="43.31579" lon="-3.21766">
        <ele>547.8</ele>
        <time>2023-07-12T22:22:04.000+02:00</time>
      </trkpt>
      <trkpt lat="43.31588" lon="-3.21757">
        <ele>548.3</ele>
        <time>2023-07-12T22:22:05.000+02:00</time>
      </trkpt>
      <trkpt lat="43.31595" lon="-3.21754">
        <ele>548.8</ele>
        <time>2023-07-12T22:22:06.000+02:00</time>
      </trkpt>
      <trkpt lat="43.31653" lon="-3.21756">
        <ele>549.8</ele>
        <time>2023-07-12T22:22:15.000+02:00</time>
      </trkpt>
      <trkpt lat="43.31677" lon="-3.21752">
        <ele>550.8</ele>
        <time>2023-07-12T22:22:19.000+02:00</time>
      </trkpt>
      <trkpt lat="43.31692" lon="-3.21751">
        <ele>551</ele>
        <time>2023-07-12T22:22:21.000+02:00</time>
      </trkpt>
      <trkpt lat="43.31709" lon="-3.21754">
        <ele>550.8</ele>
        <time>2023-07-12T22:22:24.000+02:00</time>
      </trkpt>
      <trkpt lat="43.31732" lon="-3.21764">
        <ele>549.3</ele>
        <time>2023-07-12T22:22:28.000+02:00</time>
      </trkpt>
      <trkpt lat="43.31743" lon="-3.21765">
        <ele>549</ele>
        <time>2023-07-12T22:22:29.000+02:00</time>
      </trkpt>
      <trkpt lat="43.31753" lon="-3.21763">
        <ele>549.3</ele>
        <time>2023-07-12T22:22:31.000+02:00</time>
      </trkpt>
      <trkpt lat="43.31785" lon="-3.2174">
        <ele>550</ele>
        <time>2023-07-12T22:22:36.000+02:00</time>
      </trkpt>
      <trkpt lat="43.31807" lon="-3.2173">
        <ele>549.3</ele>
        <time>2023-07-12T22:22:40.000+02:00</time>
      </trkpt>
      <trkpt lat="43.31865" lon="-3.21718">
        <ele>550.5</ele>
        <time>2023-07-12T22:22:49.000+02:00</time>
      </trkpt>
      <trkpt lat="43.31887" lon="-3.21719">
        <ele>551</ele>
        <time>2023-07-12T22:22:52.000+02:00</time>
      </trkpt>
      <trkpt lat="43.31905" lon="-3.21714">
        <ele>551.5</ele>
        <time>2023-07-12T22:22:55.000+02:00</time>
      </trkpt>
      <trkpt lat="43.31964" lon="-3.21681">
        <ele>552.5</ele>
        <time>2023-07-12T22:23:05.000+02:00</time>
      </trkpt>
      <trkpt lat="43.31982" lon="-3.21676">
        <ele>553</ele>
        <time>2023-07-12T22:23:08.000+02:00</time>
      </trkpt>
      <trkpt lat="43.32008" lon="-3.21672">
        <ele>553</ele>
        <time>2023-07-12T22:23:11.000+02:00</time>
      </trkpt>
      <trkpt lat="43.32024" lon="-3.21673">
        <ele>552.5</ele>
        <time>2023-07-12T22:23:14.000+02:00</time>
      </trkpt>
      <trkpt lat="43.32045" lon="-3.21679">
        <ele>551</ele>
        <time>2023-07-12T22:23:17.000+02:00</time>
      </trkpt>
      <trkpt lat="43.32111" lon="-3.21673">
        <ele>547.5</ele>
        <time>2023-07-12T22:23:27.000+02:00</time>
      </trkpt>
      <trkpt lat="43.32133" lon="-3.21667">
        <ele>546</ele>
        <time>2023-07-12T22:23:31.000+02:00</time>
      </trkpt>
      <trkpt lat="43.32148" lon="-3.21663">
        <ele>544.8</ele>
        <time>2023-07-12T22:23:33.000+02:00</time>
      </trkpt>
      <trkpt lat="43.32173" lon="-3.21642">
        <ele>543.5</ele>
        <time>2023-07-12T22:23:38.000+02:00</time>
      </trkpt>
      <trkpt lat="43.32207" lon="-3.21601">
        <ele>542.3</ele>
        <time>2023-07-12T22:23:44.000+02:00</time>
      </trkpt>
      <trkpt lat="43.32224" lon="-3.21585">
        <ele>542.3</ele>
        <time>2023-07-12T22:23:48.000+02:00</time>
      </trkpt>
      <trkpt lat="43.32234" lon="-3.21584">
        <ele>541.3</ele>
        <time>2023-07-12T22:23:49.000+02:00</time>
      </trkpt>
      <trkpt lat="43.32255" lon="-3.21594">
        <ele>538.5</ele>
        <time>2023-07-12T22:23:52.000+02:00</time>
      </trkpt>
      <trkpt lat="43.32289" lon="-3.2162">
        <ele>534.8</ele>
        <time>2023-07-12T22:23:59.000+02:00</time>
      </trkpt>
      <trkpt lat="43.32348" lon="-3.21638">
        <ele>530</ele>
        <time>2023-07-12T22:24:08.000+02:00</time>
      </trkpt>
      <trkpt lat="43.32411" lon="-3.21661">
        <ele>523.3</ele>
        <time>2023-07-12T22:24:18.000+02:00</time>
      </trkpt>
      <trkpt lat="43.32455" lon="-3.21672">
        <ele>521.3</ele>
        <time>2023-07-12T22:24:24.000+02:00</time>
      </trkpt>
      <trkpt lat="43.32484" lon="-3.21677">
        <ele>520.3</ele>
        <time>2023-07-12T22:24:29.000+02:00</time>
      </trkpt>
      <trkpt lat="43.32497" lon="-3.21676">
        <ele>520.3</ele>
        <time>2023-07-12T22:24:31.000+02:00</time>
      </trkpt>
      <trkpt lat="43.32531" lon="-3.21665">
        <ele>515.8</ele>
        <time>2023-07-12T22:24:36.000+02:00</time>
      </trkpt>
      <trkpt lat="43.32546" lon="-3.21665">
        <ele>513.5</ele>
        <time>2023-07-12T22:24:39.000+02:00</time>
      </trkpt>
      <trkpt lat="43.32556" lon="-3.21671">
        <ele>512</ele>
        <time>2023-07-12T22:24:40.000+02:00</time>
      </trkpt>
      <trkpt lat="43.32571" lon="-3.21697">
        <ele>509.3</ele>
        <time>2023-07-12T22:24:44.000+02:00</time>
      </trkpt>
      <trkpt lat="43.32582" lon="-3.21716">
        <ele>507.5</ele>
        <time>2023-07-12T22:24:47.000+02:00</time>
      </trkpt>
      <trkpt lat="43.32585" lon="-3.2173">
        <ele>506.5</ele>
        <time>2023-07-12T22:24:48.000+02:00</time>
      </trkpt>
      <trkpt lat="43.32586" lon="-3.21747">
        <ele>506.3</ele>
        <time>2023-07-12T22:24:50.000+02:00</time>
      </trkpt>
      <trkpt lat="43.32583" lon="-3.21764">
        <ele>504.8</ele>
        <time>2023-07-12T22:24:52.000+02:00</time>
      </trkpt>
      <trkpt lat="43.32582" lon="-3.21775">
        <ele>503</ele>
        <time>2023-07-12T22:24:53.000+02:00</time>
      </trkpt>
      <trkpt lat="43.32586" lon="-3.21781">
        <ele>501.3</ele>
        <time>2023-07-12T22:24:54.000+02:00</time>
      </trkpt>
      <trkpt lat="43.3259" lon="-3.21781">
        <ele>500.5</ele>
        <time>2023-07-12T22:24:55.000+02:00</time>
      </trkpt>
      <trkpt lat="43.32595" lon="-3.21781">
        <ele>499.5</ele>
        <time>2023-07-12T22:24:56.000+02:00</time>
      </trkpt>
      <trkpt lat="43.32603" lon="-3.21773">
        <ele>498.8</ele>
        <time>2023-07-12T22:24:57.000+02:00</time>
      </trkpt>
      <trkpt lat="43.32617" lon="-3.21755">
        <ele>497.8</ele>
        <time>2023-07-12T22:25:00.000+02:00</time>
      </trkpt>
      <trkpt lat="43.32626" lon="-3.21723">
        <ele>496</ele>
        <time>2023-07-12T22:25:04.000+02:00</time>
      </trkpt>
      <trkpt lat="43.32632" lon="-3.21692">
        <ele>494</ele>
        <time>2023-07-12T22:25:07.000+02:00</time>
      </trkpt>
      <trkpt lat="43.32636" lon="-3.21663">
        <ele>492.3</ele>
        <time>2023-07-12T22:25:11.000+02:00</time>
      </trkpt>
      <trkpt lat="43.32634" lon="-3.21632">
        <ele>488</ele>
        <time>2023-07-12T22:25:14.000+02:00</time>
      </trkpt>
      <trkpt lat="43.3263" lon="-3.21615">
        <ele>486.5</ele>
        <time>2023-07-12T22:25:16.000+02:00</time>
      </trkpt>
      <trkpt lat="43.32626" lon="-3.21597">
        <ele>484.5</ele>
        <time>2023-07-12T22:25:18.000+02:00</time>
      </trkpt>
      <trkpt lat="43.32617" lon="-3.21582">
        <ele>483.5</ele>
        <time>2023-07-12T22:25:20.000+02:00</time>
      </trkpt>
      <trkpt lat="43.32614" lon="-3.21573">
        <ele>482.5</ele>
        <time>2023-07-12T22:25:21.000+02:00</time>
      </trkpt>
      <trkpt lat="43.32615" lon="-3.21566">
        <ele>481</ele>
        <time>2023-07-12T22:25:22.000+02:00</time>
      </trkpt>
      <trkpt lat="43.32625" lon="-3.21567">
        <ele>479.5</ele>
        <time>2023-07-12T22:25:24.000+02:00</time>
      </trkpt>
      <trkpt lat="43.3264" lon="-3.21579">
        <ele>479</ele>
        <time>2023-07-12T22:25:26.000+02:00</time>
      </trkpt>
      <trkpt lat="43.32685" lon="-3.21631">
        <ele>474.3</ele>
        <time>2023-07-12T22:25:35.000+02:00</time>
      </trkpt>
      <trkpt lat="43.32729" lon="-3.21702">
        <ele>465.5</ele>
        <time>2023-07-12T22:25:46.000+02:00</time>
      </trkpt>
      <trkpt lat="43.32756" lon="-3.21753">
        <ele>459.8</ele>
        <time>2023-07-12T22:25:53.000+02:00</time>
      </trkpt>
      <trkpt lat="43.32777" lon="-3.21806">
        <ele>450.3</ele>
        <time>2023-07-12T22:25:59.000+02:00</time>
      </trkpt>
      <trkpt lat="43.32789" lon="-3.21847">
        <ele>443.8</ele>
        <time>2023-07-12T22:26:04.000+02:00</time>
      </trkpt>
      <trkpt lat="43.32802" lon="-3.2189">
        <ele>437.5</ele>
        <time>2023-07-12T22:26:10.000+02:00</time>
      </trkpt>
      <trkpt lat="43.32816" lon="-3.21928">
        <ele>434.5</ele>
        <time>2023-07-12T22:26:14.000+02:00</time>
      </trkpt>
      <trkpt lat="43.32825" lon="-3.21946">
        <ele>433.8</ele>
        <time>2023-07-12T22:26:17.000+02:00</time>
      </trkpt>
      <trkpt lat="43.32835" lon="-3.2196">
        <ele>433.8</ele>
        <time>2023-07-12T22:26:19.000+02:00</time>
      </trkpt>
      <trkpt lat="43.32844" lon="-3.21967">
        <ele>432</ele>
        <time>2023-07-12T22:26:21.000+02:00</time>
      </trkpt>
      <trkpt lat="43.32853" lon="-3.21975">
        <ele>430.5</ele>
        <time>2023-07-12T22:26:22.000+02:00</time>
      </trkpt>
      <trkpt lat="43.32865" lon="-3.21983">
        <ele>428.5</ele>
        <time>2023-07-12T22:26:24.000+02:00</time>
      </trkpt>
      <trkpt lat="43.32885" lon="-3.22002">
        <ele>425.8</ele>
        <time>2023-07-12T22:26:28.000+02:00</time>
      </trkpt>
      <trkpt lat="43.32897" lon="-3.22024">
        <ele>424.3</ele>
        <time>2023-07-12T22:26:31.000+02:00</time>
      </trkpt>
      <trkpt lat="43.32896" lon="-3.22073">
        <ele>425</ele>
        <time>2023-07-12T22:26:36.000+02:00</time>
      </trkpt>
      <trkpt lat="43.32901" lon="-3.22088">
        <ele>424.8</ele>
        <time>2023-07-12T22:26:38.000+02:00</time>
      </trkpt>
      <trkpt lat="43.32908" lon="-3.22093">
        <ele>424.8</ele>
        <time>2023-07-12T22:26:40.000+02:00</time>
      </trkpt>
      <trkpt lat="43.32926" lon="-3.22094">
        <ele>422.5</ele>
        <time>2023-07-12T22:26:42.000+02:00</time>
      </trkpt>
      <trkpt lat="43.32945" lon="-3.2211">
        <ele>416.5</ele>
        <time>2023-07-12T22:26:46.000+02:00</time>
      </trkpt>
      <trkpt lat="43.32951" lon="-3.22123">
        <ele>414.5</ele>
        <time>2023-07-12T22:26:47.000+02:00</time>
      </trkpt>
      <trkpt lat="43.32953" lon="-3.22137">
        <ele>413.5</ele>
        <time>2023-07-12T22:26:49.000+02:00</time>
      </trkpt>
      <trkpt lat="43.32955" lon="-3.22153">
        <ele>412.5</ele>
        <time>2023-07-12T22:26:51.000+02:00</time>
      </trkpt>
      <trkpt lat="43.32951" lon="-3.22171">
        <ele>412</ele>
        <time>2023-07-12T22:26:53.000+02:00</time>
      </trkpt>
      <trkpt lat="43.32944" lon="-3.22187">
        <ele>409.3</ele>
        <time>2023-07-12T22:26:55.000+02:00</time>
      </trkpt>
      <trkpt lat="43.32942" lon="-3.22199">
        <ele>406.8</ele>
        <time>2023-07-12T22:26:56.000+02:00</time>
      </trkpt>
      <trkpt lat="43.32945" lon="-3.2221">
        <ele>403.3</ele>
        <time>2023-07-12T22:26:58.000+02:00</time>
      </trkpt>
      <trkpt lat="43.32953" lon="-3.22217">
        <ele>400.8</ele>
        <time>2023-07-12T22:26:59.000+02:00</time>
      </trkpt>
      <trkpt lat="43.32976" lon="-3.22223">
        <ele>397.3</ele>
        <time>2023-07-12T22:27:03.000+02:00</time>
      </trkpt>
      <trkpt lat="43.3301" lon="-3.22227">
        <ele>393.8</ele>
        <time>2023-07-12T22:27:08.000+02:00</time>
      </trkpt>
      <trkpt lat="43.33043" lon="-3.2222">
        <ele>391</ele>
        <time>2023-07-12T22:27:13.000+02:00</time>
      </trkpt>
      <trkpt lat="43.33066" lon="-3.22206">
        <ele>389.5</ele>
        <time>2023-07-12T22:27:17.000+02:00</time>
      </trkpt>
      <trkpt lat="43.33077" lon="-3.22202">
        <ele>388.5</ele>
        <time>2023-07-12T22:27:18.000+02:00</time>
      </trkpt>
      <trkpt lat="43.33085" lon="-3.22202">
        <ele>387.3</ele>
        <time>2023-07-12T22:27:20.000+02:00</time>
      </trkpt>
      <trkpt lat="43.33091" lon="-3.22206">
        <ele>386</ele>
        <time>2023-07-12T22:27:21.000+02:00</time>
      </trkpt>
      <trkpt lat="43.33095" lon="-3.22214">
        <ele>385</ele>
        <time>2023-07-12T22:27:22.000+02:00</time>
      </trkpt>
      <trkpt lat="43.33096" lon="-3.22222">
        <ele>384.8</ele>
        <time>2023-07-12T22:27:23.000+02:00</time>
      </trkpt>
      <trkpt lat="43.33094" lon="-3.22234">
        <ele>384.8</ele>
        <time>2023-07-12T22:27:24.000+02:00</time>
      </trkpt>
      <trkpt lat="43.33097" lon="-3.22243">
        <ele>384.5</ele>
        <time>2023-07-12T22:27:25.000+02:00</time>
      </trkpt>
      <trkpt lat="43.33106" lon="-3.22252">
        <ele>382.8</ele>
        <time>2023-07-12T22:27:27.000+02:00</time>
      </trkpt>
      <trkpt lat="43.33137" lon="-3.22263">
        <ele>378.3</ele>
        <time>2023-07-12T22:27:32.000+02:00</time>
      </trkpt>
      <trkpt lat="43.33152" lon="-3.22265">
        <ele>376.5</ele>
        <time>2023-07-12T22:27:34.000+02:00</time>
      </trkpt>
      <trkpt lat="43.33161" lon="-3.22261">
        <ele>376</ele>
        <time>2023-07-12T22:27:35.000+02:00</time>
      </trkpt>
      <trkpt lat="43.33168" lon="-3.22252">
        <ele>375.5</ele>
        <time>2023-07-12T22:27:37.000+02:00</time>
      </trkpt>
      <trkpt lat="43.33171" lon="-3.22245">
        <ele>374.5</ele>
        <time>2023-07-12T22:27:38.000+02:00</time>
      </trkpt>
      <trkpt lat="43.3317" lon="-3.22235">
        <ele>373.8</ele>
        <time>2023-07-12T22:27:39.000+02:00</time>
      </trkpt>
      <trkpt lat="43.3315" lon="-3.22156">
        <ele>370</ele>
        <time>2023-07-12T22:27:48.000+02:00</time>
      </trkpt>
      <trkpt lat="43.33141" lon="-3.2211">
        <ele>364.8</ele>
        <time>2023-07-12T22:27:54.000+02:00</time>
      </trkpt>
      <trkpt lat="43.33132" lon="-3.22083">
        <ele>362.5</ele>
        <time>2023-07-12T22:27:57.000+02:00</time>
      </trkpt>
      <trkpt lat="43.33121" lon="-3.22064">
        <ele>363.8</ele>
        <time>2023-07-12T22:28:00.000+02:00</time>
      </trkpt>
      <trkpt lat="43.33111" lon="-3.22053">
        <ele>365.3</ele>
        <time>2023-07-12T22:28:01.000+02:00</time>
      </trkpt>
      <trkpt lat="43.33107" lon="-3.22043">
        <ele>365.3</ele>
        <time>2023-07-12T22:28:03.000+02:00</time>
      </trkpt>
      <trkpt lat="43.33105" lon="-3.22024">
        <ele>363.3</ele>
        <time>2023-07-12T22:28:05.000+02:00</time>
      </trkpt>
      <trkpt lat="43.33112" lon="-3.21981">
        <ele>356.3</ele>
        <time>2023-07-12T22:28:10.000+02:00</time>
      </trkpt>
      <trkpt lat="43.33112" lon="-3.21975">
        <ele>355.8</ele>
        <time>2023-07-12T22:28:11.000+02:00</time>
      </trkpt>
      <trkpt lat="43.33111" lon="-3.21948">
        <ele>354</ele>
        <time>2023-07-12T22:28:14.000+02:00</time>
      </trkpt>
      <trkpt lat="43.33107" lon="-3.21924">
        <ele>353.3</ele>
        <time>2023-07-12T22:28:17.000+02:00</time>
      </trkpt>
      <trkpt lat="43.33108" lon="-3.2191">
        <ele>352.5</ele>
        <time>2023-07-12T22:28:19.000+02:00</time>
      </trkpt>
      <trkpt lat="43.33118" lon="-3.21887">
        <ele>350</ele>
        <time>2023-07-12T22:28:22.000+02:00</time>
      </trkpt>
      <trkpt lat="43.3314" lon="-3.21848">
        <ele>344.5</ele>
        <time>2023-07-12T22:28:27.000+02:00</time>
      </trkpt>
      <trkpt lat="43.33162" lon="-3.21786">
        <ele>342.3</ele>
        <time>2023-07-12T22:28:35.000+02:00</time>
      </trkpt>
      <trkpt lat="43.33161" lon="-3.21762">
        <ele>344.5</ele>
        <time>2023-07-12T22:28:37.000+02:00</time>
      </trkpt>
      <trkpt lat="43.33162" lon="-3.21749">
        <ele>345.3</ele>
        <time>2023-07-12T22:28:39.000+02:00</time>
      </trkpt>
      <trkpt lat="43.33165" lon="-3.21737">
        <ele>343.8</ele>
        <time>2023-07-12T22:28:40.000+02:00</time>
      </trkpt>
      <trkpt lat="43.3317" lon="-3.21728">
        <ele>342.3</ele>
        <time>2023-07-12T22:28:42.000+02:00</time>
      </trkpt>
      <trkpt lat="43.33208" lon="-3.21712">
        <ele>335</ele>
        <time>2023-07-12T22:28:48.000+02:00</time>
      </trkpt>
      <trkpt lat="43.33217" lon="-3.21713">
        <ele>333.5</ele>
        <time>2023-07-12T22:28:49.000+02:00</time>
      </trkpt>
      <trkpt lat="43.33226" lon="-3.21718">
        <ele>332</ele>
        <time>2023-07-12T22:28:51.000+02:00</time>
      </trkpt>
      <trkpt lat="43.33232" lon="-3.21735">
        <ele>331.3</ele>
        <time>2023-07-12T22:28:53.000+02:00</time>
      </trkpt>
      <trkpt lat="43.33233" lon="-3.21748">
        <ele>331</ele>
        <time>2023-07-12T22:28:54.000+02:00</time>
      </trkpt>
      <trkpt lat="43.33229" lon="-3.21766">
        <ele>330</ele>
        <time>2023-07-12T22:28:56.000+02:00</time>
      </trkpt>
      <trkpt lat="43.3323" lon="-3.21782">
        <ele>327.8</ele>
        <time>2023-07-12T22:28:58.000+02:00</time>
      </trkpt>
      <trkpt lat="43.33236" lon="-3.21798">
        <ele>324.8</ele>
        <time>2023-07-12T22:29:00.000+02:00</time>
      </trkpt>
      <trkpt lat="43.33247" lon="-3.21807">
        <ele>321.3</ele>
        <time>2023-07-12T22:29:02.000+02:00</time>
      </trkpt>
      <trkpt lat="43.33259" lon="-3.21807">
        <ele>319</ele>
        <time>2023-07-12T22:29:04.000+02:00</time>
      </trkpt>
      <trkpt lat="43.33267" lon="-3.21803">
        <ele>318.3</ele>
        <time>2023-07-12T22:29:05.000+02:00</time>
      </trkpt>
      <trkpt lat="43.33291" lon="-3.21797">
        <ele>315.3</ele>
        <time>2023-07-12T22:29:09.000+02:00</time>
      </trkpt>
      <trkpt lat="43.3331" lon="-3.21785">
        <ele>313.8</ele>
        <time>2023-07-12T22:29:12.000+02:00</time>
      </trkpt>
      <trkpt lat="43.33336" lon="-3.2176">
        <ele>313</ele>
        <time>2023-07-12T22:29:17.000+02:00</time>
      </trkpt>
      <trkpt lat="43.33351" lon="-3.21741">
        <ele>311.3</ele>
        <time>2023-07-12T22:29:20.000+02:00</time>
      </trkpt>
      <trkpt lat="43.33357" lon="-3.21735">
        <ele>310</ele>
        <time>2023-07-12T22:29:21.000+02:00</time>
      </trkpt>
      <trkpt lat="43.33365" lon="-3.21735">
        <ele>308</ele>
        <time>2023-07-12T22:29:22.000+02:00</time>
      </trkpt>
      <trkpt lat="43.33382" lon="-3.21747">
        <ele>303.5</ele>
        <time>2023-07-12T22:29:25.000+02:00</time>
      </trkpt>
      <trkpt lat="43.33389" lon="-3.21756">
        <ele>300.8</ele>
        <time>2023-07-12T22:29:27.000+02:00</time>
      </trkpt>
      <trkpt lat="43.33396" lon="-3.21759">
        <ele>298.8</ele>
        <time>2023-07-12T22:29:28.000+02:00</time>
      </trkpt>
      <trkpt lat="43.33406" lon="-3.21759">
        <ele>296.3</ele>
        <time>2023-07-12T22:29:29.000+02:00</time>
      </trkpt>
      <trkpt lat="43.3342" lon="-3.2175">
        <ele>295</ele>
        <time>2023-07-12T22:29:32.000+02:00</time>
      </trkpt>
      <trkpt lat="43.33428" lon="-3.2174">
        <ele>295</ele>
        <time>2023-07-12T22:29:33.000+02:00</time>
      </trkpt>
      <trkpt lat="43.33432" lon="-3.2173">
        <ele>294.8</ele>
        <time>2023-07-12T22:29:35.000+02:00</time>
      </trkpt>
      <trkpt lat="43.33432" lon="-3.21716">
        <ele>294.8</ele>
        <time>2023-07-12T22:29:36.000+02:00</time>
      </trkpt>
      <trkpt lat="43.33439" lon="-3.21735">
        <ele>294.8</ele>
        <time>2023-07-12T22:29:39.000+02:00</time>
      </trkpt>
      <trkpt lat="43.33441" lon="-3.21757">
        <ele>293.8</ele>
        <time>2023-07-12T22:29:41.000+02:00</time>
      </trkpt>
      <trkpt lat="43.33439" lon="-3.21777">
        <ele>291</ele>
        <time>2023-07-12T22:29:43.000+02:00</time>
      </trkpt>
      <trkpt lat="43.33427" lon="-3.218">
        <ele>288.3</ele>
        <time>2023-07-12T22:29:46.000+02:00</time>
      </trkpt>
      <trkpt lat="43.33418" lon="-3.21834">
        <ele>284.8</ele>
        <time>2023-07-12T22:29:50.000+02:00</time>
      </trkpt>
      <trkpt lat="43.33417" lon="-3.21845">
        <ele>284.3</ele>
        <time>2023-07-12T22:29:52.000+02:00</time>
      </trkpt>
      <trkpt lat="43.3342" lon="-3.21853">
        <ele>283.5</ele>
        <time>2023-07-12T22:29:53.000+02:00</time>
      </trkpt>
      <trkpt lat="43.33467" lon="-3.21856">
        <ele>277.5</ele>
        <time>2023-07-12T22:30:00.000+02:00</time>
      </trkpt>
      <trkpt lat="43.33472" lon="-3.21864">
        <ele>275.5</ele>
        <time>2023-07-12T22:30:01.000+02:00</time>
      </trkpt>
      <trkpt lat="43.33469" lon="-3.21877">
        <ele>274</ele>
        <time>2023-07-12T22:30:03.000+02:00</time>
      </trkpt>
      <trkpt lat="43.33461" lon="-3.21886">
        <ele>274.3</ele>
        <time>2023-07-12T22:30:04.000+02:00</time>
      </trkpt>
      <trkpt lat="43.33451" lon="-3.21893">
        <ele>275.3</ele>
        <time>2023-07-12T22:30:06.000+02:00</time>
      </trkpt>
      <trkpt lat="43.33442" lon="-3.21892">
        <ele>277</ele>
        <time>2023-07-12T22:30:07.000+02:00</time>
      </trkpt>
      <trkpt lat="43.33432" lon="-3.21895">
        <ele>278.8</ele>
        <time>2023-07-12T22:30:09.000+02:00</time>
      </trkpt>
      <trkpt lat="43.33429" lon="-3.21902">
        <ele>279</ele>
        <time>2023-07-12T22:30:10.000+02:00</time>
      </trkpt>
      <trkpt lat="43.33437" lon="-3.21937">
        <ele>277.3</ele>
        <time>2023-07-12T22:30:14.000+02:00</time>
      </trkpt>
      <trkpt lat="43.33435" lon="-3.21963">
        <ele>279.3</ele>
        <time>2023-07-12T22:30:17.000+02:00</time>
      </trkpt>
      <trkpt lat="43.33459" lon="-3.21988">
        <ele>273.5</ele>
        <time>2023-07-12T22:30:21.000+02:00</time>
      </trkpt>
      <trkpt lat="43.33467" lon="-3.2201">
        <ele>272</ele>
        <time>2023-07-12T22:30:24.000+02:00</time>
      </trkpt>
      <trkpt lat="43.33467" lon="-3.22014">
        <ele>272.3</ele>
        <time>2023-07-12T22:30:24.000+02:00</time>
      </trkpt>
      <trkpt lat="43.33467" lon="-3.22036">
        <ele>274.5</ele>
        <time>2023-07-12T22:30:27.000+02:00</time>
      </trkpt>
      <trkpt lat="43.33459" lon="-3.22071">
        <ele>281</ele>
        <time>2023-07-12T22:30:31.000+02:00</time>
      </trkpt>
      <trkpt lat="43.33457" lon="-3.22098">
        <ele>285.3</ele>
        <time>2023-07-12T22:30:34.000+02:00</time>
      </trkpt>
      <trkpt lat="43.33466" lon="-3.22116">
        <ele>285.5</ele>
        <time>2023-07-12T22:30:36.000+02:00</time>
      </trkpt>
      <trkpt lat="43.33497" lon="-3.22163">
        <ele>284.8</ele>
        <time>2023-07-12T22:30:43.000+02:00</time>
      </trkpt>
      <trkpt lat="43.33512" lon="-3.22208">
        <ele>288.3</ele>
        <time>2023-07-12T22:30:49.000+02:00</time>
      </trkpt>
      <trkpt lat="43.33522" lon="-3.22226">
        <ele>289</ele>
        <time>2023-07-12T22:30:52.000+02:00</time>
      </trkpt>
      <trkpt lat="43.33524" lon="-3.22244">
        <ele>290.3</ele>
        <time>2023-07-12T22:30:54.000+02:00</time>
      </trkpt>
      <trkpt lat="43.33521" lon="-3.22264">
        <ele>291</ele>
        <time>2023-07-12T22:30:56.000+02:00</time>
      </trkpt>
      <trkpt lat="43.33487" lon="-3.22358">
        <ele>301.5</ele>
        <time>2023-07-12T22:31:07.000+02:00</time>
      </trkpt>
      <trkpt lat="43.33485" lon="-3.22481">
        <ele>302.5</ele>
        <time>2023-07-12T22:31:21.000+02:00</time>
      </trkpt>
      <trkpt lat="43.33487" lon="-3.22541">
        <ele>296.5</ele>
        <time>2023-07-12T22:31:28.000+02:00</time>
      </trkpt>
      <trkpt lat="43.33473" lon="-3.2257">
        <ele>294.3</ele>
        <time>2023-07-12T22:31:32.000+02:00</time>
      </trkpt>
      <trkpt lat="43.33422" lon="-3.22618">
        <ele>286</ele>
        <time>2023-07-12T22:31:41.000+02:00</time>
      </trkpt>
      <trkpt lat="43.33413" lon="-3.22627">
        <ele>283.3</ele>
        <time>2023-07-12T22:31:43.000+02:00</time>
      </trkpt>
      <trkpt lat="43.33399" lon="-3.22631">
        <ele>279.8</ele>
        <time>2023-07-12T22:31:45.000+02:00</time>
      </trkpt>
      <trkpt lat="43.33384" lon="-3.22624">
        <ele>279.5</ele>
        <time>2023-07-12T22:31:47.000+02:00</time>
      </trkpt>
      <trkpt lat="43.33369" lon="-3.22614">
        <ele>280.5</ele>
        <time>2023-07-12T22:31:50.000+02:00</time>
      </trkpt>
      <trkpt lat="43.33343" lon="-3.22612">
        <ele>277</ele>
        <time>2023-07-12T22:31:54.000+02:00</time>
      </trkpt>
      <trkpt lat="43.33301" lon="-3.22614">
        <ele>276.3</ele>
        <time>2023-07-12T22:32:00.000+02:00</time>
      </trkpt>
      <trkpt lat="43.33221" lon="-3.22659">
        <ele>261.8</ele>
        <time>2023-07-12T22:32:14.000+02:00</time>
      </trkpt>
      <trkpt lat="43.33204" lon="-3.2266">
        <ele>260.8</ele>
        <time>2023-07-12T22:32:16.000+02:00</time>
      </trkpt>
      <trkpt lat="43.33167" lon="-3.2264">
        <ele>265.5</ele>
        <time>2023-07-12T22:32:22.000+02:00</time>
      </trkpt>
      <trkpt lat="43.33157" lon="-3.2264">
        <ele>266.3</ele>
        <time>2023-07-12T22:32:24.000+02:00</time>
      </trkpt>
      <trkpt lat="43.33146" lon="-3.22659">
        <ele>262.8</ele>
        <time>2023-07-12T22:32:26.000+02:00</time>
      </trkpt>
      <trkpt lat="43.33102" lon="-3.22635">
        <ele>272.5</ele>
        <time>2023-07-12T22:32:34.000+02:00</time>
      </trkpt>
      <trkpt lat="43.33075" lon="-3.22635">
        <ele>275</ele>
        <time>2023-07-12T22:32:38.000+02:00</time>
      </trkpt>
      <trkpt lat="43.33037" lon="-3.22652">
        <ele>275.5</ele>
        <time>2023-07-12T22:32:44.000+02:00</time>
      </trkpt>
      <trkpt lat="43.33029" lon="-3.22664">
        <ele>274.5</ele>
        <time>2023-07-12T22:32:46.000+02:00</time>
      </trkpt>
      <trkpt lat="43.32957" lon="-3.22705">
        <ele>259.3</ele>
        <time>2023-07-12T22:32:58.000+02:00</time>
      </trkpt>
      <trkpt lat="43.32939" lon="-3.22705">
        <ele>255.3</ele>
        <time>2023-07-12T22:33:00.000+02:00</time>
      </trkpt>
      <trkpt lat="43.32917" lon="-3.22683">
        <ele>256.3</ele>
        <time>2023-07-12T22:33:04.000+02:00</time>
      </trkpt>
      <trkpt lat="43.32892" lon="-3.22678">
        <ele>251</ele>
        <time>2023-07-12T22:33:08.000+02:00</time>
      </trkpt>
      <trkpt lat="43.32879" lon="-3.22654">
        <ele>254.8</ele>
        <time>2023-07-12T22:33:12.000+02:00</time>
      </trkpt>
      <trkpt lat="43.32872" lon="-3.22653">
        <ele>253.5</ele>
        <time>2023-07-12T22:33:13.000+02:00</time>
      </trkpt>
      <trkpt lat="43.32868" lon="-3.22661">
        <ele>249.8</ele>
        <time>2023-07-12T22:33:14.000+02:00</time>
      </trkpt>
      <trkpt lat="43.32875" lon="-3.22678">
        <ele>246.5</ele>
        <time>2023-07-12T22:33:16.000+02:00</time>
      </trkpt>
      <trkpt lat="43.32892" lon="-3.22702">
        <ele>244</ele>
        <time>2023-07-12T22:33:20.000+02:00</time>
      </trkpt>
      <trkpt lat="43.3294" lon="-3.22739">
        <ele>246.8</ele>
        <time>2023-07-12T22:33:28.000+02:00</time>
      </trkpt>
      <trkpt lat="43.32973" lon="-3.22761">
        <ele>248.8</ele>
        <time>2023-07-12T22:33:34.000+02:00</time>
      </trkpt>
      <trkpt lat="43.32979" lon="-3.22771">
        <ele>246.8</ele>
        <time>2023-07-12T22:33:35.000+02:00</time>
      </trkpt>
      <trkpt lat="43.32991" lon="-3.22797">
        <ele>240.3</ele>
        <time>2023-07-12T22:33:39.000+02:00</time>
      </trkpt>
      <trkpt lat="43.33013" lon="-3.22816">
        <ele>234.5</ele>
        <time>2023-07-12T22:33:43.000+02:00</time>
      </trkpt>
      <trkpt lat="43.3302" lon="-3.22822">
        <ele>233</ele>
        <time>2023-07-12T22:33:44.000+02:00</time>
      </trkpt>
      <trkpt lat="43.33046" lon="-3.22838">
        <ele>227</ele>
        <time>2023-07-12T22:33:48.000+02:00</time>
      </trkpt>
      <trkpt lat="43.33069" lon="-3.2284">
        <ele>225.8</ele>
        <time>2023-07-12T22:33:52.000+02:00</time>
      </trkpt>
      <trkpt lat="43.33078" lon="-3.22838">
        <ele>226.8</ele>
        <time>2023-07-12T22:33:53.000+02:00</time>
      </trkpt>
      <trkpt lat="43.33088" lon="-3.22828">
        <ele>230.3</ele>
        <time>2023-07-12T22:33:55.000+02:00</time>
      </trkpt>
      <trkpt lat="43.33099" lon="-3.22802">
        <ele>237.5</ele>
        <time>2023-07-12T22:33:58.000+02:00</time>
      </trkpt>
      <trkpt lat="43.33111" lon="-3.22792">
        <ele>239.3</ele>
        <time>2023-07-12T22:34:00.000+02:00</time>
      </trkpt>
      <trkpt lat="43.33119" lon="-3.22794">
        <ele>237.3</ele>
        <time>2023-07-12T22:34:02.000+02:00</time>
      </trkpt>
      <trkpt lat="43.33132" lon="-3.22812">
        <ele>229.8</ele>
        <time>2023-07-12T22:34:04.000+02:00</time>
      </trkpt>
      <trkpt lat="43.33138" lon="-3.22824">
        <ele>225</ele>
        <time>2023-07-12T22:34:06.000+02:00</time>
      </trkpt>
      <trkpt lat="43.33148" lon="-3.2283">
        <ele>222.3</ele>
        <time>2023-07-12T22:34:08.000+02:00</time>
      </trkpt>
      <trkpt lat="43.33154" lon="-3.22838">
        <ele>219</ele>
        <time>2023-07-12T22:34:09.000+02:00</time>
      </trkpt>
      <trkpt lat="43.33168" lon="-3.22849">
        <ele>213.5</ele>
        <time>2023-07-12T22:34:12.000+02:00</time>
      </trkpt>
      <trkpt lat="43.33181" lon="-3.22864">
        <ele>206.8</ele>
        <time>2023-07-12T22:34:14.000+02:00</time>
      </trkpt>
      <trkpt lat="43.33192" lon="-3.2287">
        <ele>203.3</ele>
        <time>2023-07-12T22:34:16.000+02:00</time>
      </trkpt>
      <trkpt lat="43.33218" lon="-3.22871">
        <ele>199.5</ele>
        <time>2023-07-12T22:34:20.000+02:00</time>
      </trkpt>
      <trkpt lat="43.33234" lon="-3.22872">
        <ele>197</ele>
        <time>2023-07-12T22:34:22.000+02:00</time>
      </trkpt>
      <trkpt lat="43.33255" lon="-3.2286">
        <ele>196.8</ele>
        <time>2023-07-12T22:34:26.000+02:00</time>
      </trkpt>
      <trkpt lat="43.33271" lon="-3.22851">
        <ele>198.3</ele>
        <time>2023-07-12T22:34:28.000+02:00</time>
      </trkpt>
      <trkpt lat="43.33291" lon="-3.22845">
        <ele>198.8</ele>
        <time>2023-07-12T22:34:32.000+02:00</time>
      </trkpt>
      <trkpt lat="43.33329" lon="-3.22866">
        <ele>191.5</ele>
        <time>2023-07-12T22:34:38.000+02:00</time>
      </trkpt>
      <trkpt lat="43.33336" lon="-3.22878">
        <ele>188.3</ele>
        <time>2023-07-12T22:34:40.000+02:00</time>
      </trkpt>
      <trkpt lat="43.33354" lon="-3.22889">
        <ele>185.8</ele>
        <time>2023-07-12T22:34:43.000+02:00</time>
      </trkpt>
      <trkpt lat="43.33382" lon="-3.22895">
        <ele>184.8</ele>
        <time>2023-07-12T22:34:47.000+02:00</time>
      </trkpt>
      <trkpt lat="43.33408" lon="-3.22906">
        <ele>181.8</ele>
        <time>2023-07-12T22:34:51.000+02:00</time>
      </trkpt>
      <trkpt lat="43.3344" lon="-3.22916">
        <ele>179.3</ele>
        <time>2023-07-12T22:34:56.000+02:00</time>
      </trkpt>
      <trkpt lat="43.33477" lon="-3.22912">
        <ele>182.5</ele>
        <time>2023-07-12T22:35:02.000+02:00</time>
      </trkpt>
      <trkpt lat="43.335" lon="-3.22918">
        <ele>181.5</ele>
        <time>2023-07-12T22:35:05.000+02:00</time>
      </trkpt>
      <trkpt lat="43.33504" lon="-3.2293">
        <ele>178.3</ele>
        <time>2023-07-12T22:35:07.000+02:00</time>
      </trkpt>
      <trkpt lat="43.33506" lon="-3.22934">
        <ele>177</ele>
        <time>2023-07-12T22:35:08.000+02:00</time>
      </trkpt>
      <trkpt lat="43.33509" lon="-3.22953">
        <ele>171.3</ele>
        <time>2023-07-12T22:35:10.000+02:00</time>
      </trkpt>
      <trkpt lat="43.33514" lon="-3.22965">
        <ele>167.5</ele>
        <time>2023-07-12T22:35:12.000+02:00</time>
      </trkpt>
      <trkpt lat="43.33523" lon="-3.22969">
        <ele>166.5</ele>
        <time>2023-07-12T22:35:13.000+02:00</time>
      </trkpt>
      <trkpt lat="43.3356" lon="-3.22973">
        <ele>165.3</ele>
        <time>2023-07-12T22:35:19.000+02:00</time>
      </trkpt>
      <trkpt lat="43.33579" lon="-3.22977">
        <ele>163.8</ele>
        <time>2023-07-12T22:35:22.000+02:00</time>
      </trkpt>
      <trkpt lat="43.33611" lon="-3.22992">
        <ele>155.3</ele>
        <time>2023-07-12T22:35:27.000+02:00</time>
      </trkpt>
      <trkpt lat="43.33631" lon="-3.23001">
        <ele>151</ele>
        <time>2023-07-12T22:35:30.000+02:00</time>
      </trkpt>
      <trkpt lat="43.337" lon="-3.23013">
        <ele>144.8</ele>
        <time>2023-07-12T22:35:41.000+02:00</time>
      </trkpt>
      <trkpt lat="43.33743" lon="-3.23005">
        <ele>140.3</ele>
        <time>2023-07-12T22:35:48.000+02:00</time>
      </trkpt>
      <trkpt lat="43.33748" lon="-3.23004">
        <ele>139.8</ele>
        <time>2023-07-12T22:35:49.000+02:00</time>
      </trkpt>
      <trkpt lat="43.33768" lon="-3.2301">
        <ele>139</ele>
        <time>2023-07-12T22:35:53.000+02:00</time>
      </trkpt>
      <trkpt lat="43.33784" lon="-3.23017">
        <ele>138</ele>
        <time>2023-07-12T22:35:55.000+02:00</time>
      </trkpt>
      <trkpt lat="43.33805" lon="-3.23015">
        <ele>138.3</ele>
        <time>2023-07-12T22:35:58.000+02:00</time>
      </trkpt>
      <trkpt lat="43.33831" lon="-3.2302">
        <ele>137</ele>
        <time>2023-07-12T22:36:02.000+02:00</time>
      </trkpt>
      <trkpt lat="43.33845" lon="-3.23027">
        <ele>137.3</ele>
        <time>2023-07-12T22:36:05.000+02:00</time>
      </trkpt>
      <trkpt lat="43.33877" lon="-3.23051">
        <ele>135</ele>
        <time>2023-07-12T22:36:10.000+02:00</time>
      </trkpt>
      <trkpt lat="43.33903" lon="-3.23079">
        <ele>128.3</ele>
        <time>2023-07-12T22:36:15.000+02:00</time>
      </trkpt>
      <trkpt lat="43.3392" lon="-3.23109">
        <ele>124.5</ele>
        <time>2023-07-12T22:36:19.000+02:00</time>
      </trkpt>
      <trkpt lat="43.33974" lon="-3.23236">
        <ele>124.5</ele>
        <time>2023-07-12T22:36:36.000+02:00</time>
      </trkpt>
      <trkpt lat="43.33976" lon="-3.23248">
        <ele>123</ele>
        <time>2023-07-12T22:36:37.000+02:00</time>
      </trkpt>
      <trkpt lat="43.33974" lon="-3.23272">
        <ele>120.3</ele>
        <time>2023-07-12T22:36:40.000+02:00</time>
      </trkpt>
      <trkpt lat="43.33973" lon="-3.23295">
        <ele>118.3</ele>
        <time>2023-07-12T22:36:42.000+02:00</time>
      </trkpt>
      <trkpt lat="43.33976" lon="-3.2332">
        <ele>116.3</ele>
        <time>2023-07-12T22:36:45.000+02:00</time>
      </trkpt>
      <trkpt lat="43.33979" lon="-3.23336">
        <ele>114.5</ele>
        <time>2023-07-12T22:36:47.000+02:00</time>
      </trkpt>
      <trkpt lat="43.33995" lon="-3.23375">
        <ele>108.5</ele>
        <time>2023-07-12T22:36:52.000+02:00</time>
      </trkpt>
      <trkpt lat="43.34023" lon="-3.23424">
        <ele>110.8</ele>
        <time>2023-07-12T22:36:59.000+02:00</time>
      </trkpt>
      <trkpt lat="43.34037" lon="-3.23441">
        <ele>114.5</ele>
        <time>2023-07-12T22:37:02.000+02:00</time>
      </trkpt>
      <trkpt lat="43.34051" lon="-3.23458">
        <ele>116.5</ele>
        <time>2023-07-12T22:37:05.000+02:00</time>
      </trkpt>
      <trkpt lat="43.34064" lon="-3.23478">
        <ele>115.5</ele>
        <time>2023-07-12T22:37:08.000+02:00</time>
      </trkpt>
      <trkpt lat="43.34075" lon="-3.23512">
        <ele>109.8</ele>
        <time>2023-07-12T22:37:12.000+02:00</time>
      </trkpt>
      <trkpt lat="43.34094" lon="-3.23566">
        <ele>107.3</ele>
        <time>2023-07-12T22:37:18.000+02:00</time>
      </trkpt>
      <trkpt lat="43.34107" lon="-3.23611">
        <ele>106.3</ele>
        <time>2023-07-12T22:37:24.000+02:00</time>
      </trkpt>
      <trkpt lat="43.34118" lon="-3.23646">
        <ele>105.3</ele>
        <time>2023-07-12T22:37:28.000+02:00</time>
      </trkpt>
      <trkpt lat="43.34127" lon="-3.23671">
        <ele>103.3</ele>
        <time>2023-07-12T22:37:31.000+02:00</time>
      </trkpt>
      <trkpt lat="43.3414" lon="-3.23695">
        <ele>102</ele>
        <time>2023-07-12T22:37:35.000+02:00</time>
      </trkpt>
      <trkpt lat="43.34178" lon="-3.23734">
        <ele>99</ele>
        <time>2023-07-12T22:37:42.000+02:00</time>
      </trkpt>
      <trkpt lat="43.34192" lon="-3.23753">
        <ele>96.5</ele>
        <time>2023-07-12T22:37:45.000+02:00</time>
      </trkpt>
      <trkpt lat="43.3421" lon="-3.23787">
        <ele>93.8</ele>
        <time>2023-07-12T22:37:49.000+02:00</time>
      </trkpt>
      <trkpt lat="43.34225" lon="-3.23807">
        <ele>90.8</ele>
        <time>2023-07-12T22:37:53.000+02:00</time>
      </trkpt>
      <trkpt lat="43.34236" lon="-3.23815">
        <ele>89.5</ele>
        <time>2023-07-12T22:37:54.000+02:00</time>
      </trkpt>
      <trkpt lat="43.34248" lon="-3.23815">
        <ele>89.5</ele>
        <time>2023-07-12T22:37:56.000+02:00</time>
      </trkpt>
      <trkpt lat="43.34264" lon="-3.23811">
        <ele>91.5</ele>
        <time>2023-07-12T22:37:59.000+02:00</time>
      </trkpt>
      <trkpt lat="43.34273" lon="-3.23813">
        <ele>91.8</ele>
        <time>2023-07-12T22:38:00.000+02:00</time>
      </trkpt>
      <trkpt lat="43.34295" lon="-3.23821">
        <ele>90</ele>
        <time>2023-07-12T22:38:04.000+02:00</time>
      </trkpt>
      <trkpt lat="43.34345" lon="-3.23822">
        <ele>89.8</ele>
        <time>2023-07-12T22:38:11.000+02:00</time>
      </trkpt>
      <trkpt lat="43.34379" lon="-3.23816">
        <ele>88.8</ele>
        <time>2023-07-12T22:38:17.000+02:00</time>
      </trkpt>
      <trkpt lat="43.3441" lon="-3.23807">
        <ele>88.8</ele>
        <time>2023-07-12T22:38:21.000+02:00</time>
      </trkpt>
      <trkpt lat="43.34457" lon="-3.23791">
        <ele>86.3</ele>
        <time>2023-07-12T22:38:29.000+02:00</time>
      </trkpt>
      <trkpt lat="43.3448" lon="-3.23781">
        <ele>83.3</ele>
        <time>2023-07-12T22:38:33.000+02:00</time>
      </trkpt>
      <trkpt lat="43.34514" lon="-3.23758">
        <ele>80.3</ele>
        <time>2023-07-12T22:38:38.000+02:00</time>
      </trkpt>
      <trkpt lat="43.34509" lon="-3.23775">
        <ele>79</ele>
        <time>2023-07-12T22:38:40.000+02:00</time>
      </trkpt>
      <trkpt lat="43.34509" lon="-3.23796">
        <ele>77.3</ele>
        <time>2023-07-12T22:38:43.000+02:00</time>
      </trkpt>
      <trkpt lat="43.3451" lon="-3.23807">
        <ele>76.3</ele>
        <time>2023-07-12T22:38:44.000+02:00</time>
      </trkpt>
      <trkpt lat="43.34513" lon="-3.23818">
        <ele>75.3</ele>
        <time>2023-07-12T22:38:45.000+02:00</time>
      </trkpt>
      <trkpt lat="43.34516" lon="-3.2383">
        <ele>74.3</ele>
        <time>2023-07-12T22:38:47.000+02:00</time>
      </trkpt>
      <trkpt lat="43.34525" lon="-3.2387">
        <ele>73</ele>
        <time>2023-07-12T22:38:51.000+02:00</time>
      </trkpt>
      <trkpt lat="43.34527" lon="-3.23878">
        <ele>72.8</ele>
        <time>2023-07-12T22:38:52.000+02:00</time>
      </trkpt>
      <trkpt lat="43.34537" lon="-3.23874">
        <ele>73</ele>
        <time>2023-07-12T22:38:54.000+02:00</time>
      </trkpt>
      <trkpt lat="43.34626" lon="-3.23841">
        <ele>73.8</ele>
        <time>2023-07-12T22:39:08.000+02:00</time>
      </trkpt>
      <trkpt lat="43.34718" lon="-3.23805">
        <ele>71.3</ele>
        <time>2023-07-12T22:39:22.000+02:00</time>
      </trkpt>
      <trkpt lat="43.34724" lon="-3.23803">
        <ele>70.8</ele>
        <time>2023-07-12T22:39:23.000+02:00</time>
      </trkpt>
      <trkpt lat="43.34825" lon="-3.23767">
        <ele>67.8</ele>
        <time>2023-07-12T22:39:39.000+02:00</time>
      </trkpt>
      <trkpt lat="43.34835" lon="-3.2377">
        <ele>67.5</ele>
        <time>2023-07-12T22:39:41.000+02:00</time>
      </trkpt>
      <trkpt lat="43.34837" lon="-3.23763">
        <ele>67.5</ele>
        <time>2023-07-12T22:39:42.000+02:00</time>
      </trkpt>
      <trkpt lat="43.34839" lon="-3.2376">
        <ele>67.5</ele>
        <time>2023-07-12T22:39:42.000+02:00</time>
      </trkpt>
      <trkpt lat="43.34842" lon="-3.23757">
        <ele>67.3</ele>
        <time>2023-07-12T22:39:43.000+02:00</time>
      </trkpt>
      <trkpt lat="43.34845" lon="-3.23756">
        <ele>67.3</ele>
        <time>2023-07-12T22:39:44.000+02:00</time>
      </trkpt>
      <trkpt lat="43.34848" lon="-3.23756">
        <ele>67</ele>
        <time>2023-07-12T22:39:45.000+02:00</time>
      </trkpt>
      <trkpt lat="43.34852" lon="-3.23756">
        <ele>66.8</ele>
        <time>2023-07-12T22:39:45.000+02:00</time>
      </trkpt>
      <trkpt lat="43.34855" lon="-3.23758">
        <ele>66.8</ele>
        <time>2023-07-12T22:39:46.000+02:00</time>
      </trkpt>
      <trkpt lat="43.34856" lon="-3.23751">
        <ele>66.5</ele>
        <time>2023-07-12T22:39:47.000+02:00</time>
      </trkpt>
      <trkpt lat="43.34908" lon="-3.23715">
        <ele>63</ele>
        <time>2023-07-12T22:39:55.000+02:00</time>
      </trkpt>
      <trkpt lat="43.34983" lon="-3.2366">
        <ele>59.3</ele>
        <time>2023-07-12T22:40:09.000+02:00</time>
      </trkpt>
      <trkpt lat="43.35022" lon="-3.23632">
        <ele>58.8</ele>
        <time>2023-07-12T22:40:15.000+02:00</time>
      </trkpt>
      <trkpt lat="43.35048" lon="-3.23609">
        <ele>57.8</ele>
        <time>2023-07-12T22:40:20.000+02:00</time>
      </trkpt>
      <trkpt lat="43.35054" lon="-3.23603">
        <ele>57.3</ele>
        <time>2023-07-12T22:40:21.000+02:00</time>
      </trkpt>
      <trkpt lat="43.35119" lon="-3.23532">
        <ele>52.8</ele>
        <time>2023-07-12T22:40:34.000+02:00</time>
      </trkpt>
      <trkpt lat="43.35146" lon="-3.23506">
        <ele>50.3</ele>
        <time>2023-07-12T22:40:39.000+02:00</time>
      </trkpt>
      <trkpt lat="43.35166" lon="-3.23487">
        <ele>49</ele>
        <time>2023-07-12T22:40:42.000+02:00</time>
      </trkpt>
      <trkpt lat="43.35177" lon="-3.2348">
        <ele>49.5</ele>
        <time>2023-07-12T22:40:44.000+02:00</time>
      </trkpt>
      <trkpt lat="43.35239" lon="-3.23445">
        <ele>49.8</ele>
        <time>2023-07-12T22:40:55.000+02:00</time>
      </trkpt>
      <trkpt lat="43.3526" lon="-3.23434">
        <ele>48.8</ele>
        <time>2023-07-12T22:40:58.000+02:00</time>
      </trkpt>
      <trkpt lat="43.35272" lon="-3.2343">
        <ele>47.8</ele>
        <time>2023-07-12T22:41:00.000+02:00</time>
      </trkpt>
      <trkpt lat="43.35278" lon="-3.23428">
        <ele>47.5</ele>
        <time>2023-07-12T22:41:01.000+02:00</time>
      </trkpt>
      <trkpt lat="43.35297" lon="-3.23423">
        <ele>46.5</ele>
        <time>2023-07-12T22:41:04.000+02:00</time>
      </trkpt>
      <trkpt lat="43.35309" lon="-3.23422">
        <ele>46</ele>
        <time>2023-07-12T22:41:06.000+02:00</time>
      </trkpt>
      <trkpt lat="43.35335" lon="-3.23418">
        <ele>45</ele>
        <time>2023-07-12T22:41:10.000+02:00</time>
      </trkpt>
      <trkpt lat="43.35348" lon="-3.23412">
        <ele>44.3</ele>
        <time>2023-07-12T22:41:12.000+02:00</time>
      </trkpt>
      <trkpt lat="43.35355" lon="-3.23409">
        <ele>44</ele>
        <time>2023-07-12T22:41:13.000+02:00</time>
      </trkpt>
      <trkpt lat="43.35365" lon="-3.23403">
        <ele>43.3</ele>
        <time>2023-07-12T22:41:15.000+02:00</time>
      </trkpt>
      <trkpt lat="43.35388" lon="-3.23389">
        <ele>42</ele>
        <time>2023-07-12T22:41:18.000+02:00</time>
      </trkpt>
      <trkpt lat="43.3541" lon="-3.23383">
        <ele>41</ele>
        <time>2023-07-12T22:41:22.000+02:00</time>
      </trkpt>
      <trkpt lat="43.35427" lon="-3.23382">
        <ele>41</ele>
        <time>2023-07-12T22:41:24.000+02:00</time>
      </trkpt>
      <trkpt lat="43.35449" lon="-3.23383">
        <ele>41</ele>
        <time>2023-07-12T22:41:28.000+02:00</time>
      </trkpt>
      <trkpt lat="43.3547" lon="-3.23379">
        <ele>40.8</ele>
        <time>2023-07-12T22:41:31.000+02:00</time>
      </trkpt>
      <trkpt lat="43.35489" lon="-3.23371">
        <ele>40.3</ele>
        <time>2023-07-12T22:41:34.000+02:00</time>
      </trkpt>
      <trkpt lat="43.35501" lon="-3.23362">
        <ele>39.5</ele>
        <time>2023-07-12T22:41:36.000+02:00</time>
      </trkpt>
      <trkpt lat="43.35512" lon="-3.23353">
        <ele>38.5</ele>
        <time>2023-07-12T22:41:38.000+02:00</time>
      </trkpt>
      <trkpt lat="43.35527" lon="-3.23346">
        <ele>37.5</ele>
        <time>2023-07-12T22:41:40.000+02:00</time>
      </trkpt>
      <trkpt lat="43.35551" lon="-3.23343">
        <ele>36.5</ele>
        <time>2023-07-12T22:41:44.000+02:00</time>
      </trkpt>
      <trkpt lat="43.35569" lon="-3.23339">
        <ele>35.5</ele>
        <time>2023-07-12T22:41:47.000+02:00</time>
      </trkpt>
      <trkpt lat="43.35583" lon="-3.23334">
        <ele>35</ele>
        <time>2023-07-12T22:41:49.000+02:00</time>
      </trkpt>
      <trkpt lat="43.35619" lon="-3.23317">
        <ele>33.5</ele>
        <time>2023-07-12T22:41:55.000+02:00</time>
      </trkpt>
      <trkpt lat="43.35631" lon="-3.23316">
        <ele>33</ele>
        <time>2023-07-12T22:41:57.000+02:00</time>
      </trkpt>
      <trkpt lat="43.35655" lon="-3.23248">
        <ele>31.5</ele>
        <time>2023-07-12T22:42:05.000+02:00</time>
      </trkpt>
      <trkpt lat="43.35658" lon="-3.23239">
        <ele>31.8</ele>
        <time>2023-07-12T22:42:06.000+02:00</time>
      </trkpt>
      <trkpt lat="43.3566" lon="-3.23235">
        <ele>32</ele>
        <time>2023-07-12T22:42:07.000+02:00</time>
      </trkpt>
      <trkpt lat="43.35665" lon="-3.23229">
        <ele>32.3</ele>
        <time>2023-07-12T22:42:08.000+02:00</time>
      </trkpt>
      <trkpt lat="43.35687" lon="-3.2321">
        <ele>32.5</ele>
        <time>2023-07-12T22:42:12.000+02:00</time>
      </trkpt>
      <trkpt lat="43.35705" lon="-3.23194">
        <ele>32.3</ele>
        <time>2023-07-12T22:42:15.000+02:00</time>
      </trkpt>
      <trkpt lat="43.35714" lon="-3.23187">
        <ele>32</ele>
        <time>2023-07-12T22:42:17.000+02:00</time>
      </trkpt>
      <trkpt lat="43.35733" lon="-3.23175">
        <ele>31</ele>
        <time>2023-07-12T22:42:20.000+02:00</time>
      </trkpt>
      <trkpt lat="43.35787" lon="-3.23139">
        <ele>27.5</ele>
        <time>2023-07-12T22:42:29.000+02:00</time>
      </trkpt>
      <trkpt lat="43.35805" lon="-3.23129">
        <ele>26</ele>
        <time>2023-07-12T22:42:32.000+02:00</time>
      </trkpt>
      <trkpt lat="43.35813" lon="-3.23124">
        <ele>25.5</ele>
        <time>2023-07-12T22:42:33.000+02:00</time>
      </trkpt>
      <trkpt lat="43.35821" lon="-3.23142">
        <ele>24.8</ele>
        <time>2023-07-12T22:42:36.000+02:00</time>
      </trkpt>
      <trkpt lat="43.3583" lon="-3.23162">
        <ele>24</ele>
        <time>2023-07-12T22:42:38.000+02:00</time>
      </trkpt>
      <trkpt lat="43.35834" lon="-3.23168">
        <ele>24</ele>
        <time>2023-07-12T22:42:39.000+02:00</time>
      </trkpt>
      <trkpt lat="43.35839" lon="-3.23171">
        <ele>24.3</ele>
        <time>2023-07-12T22:42:40.000+02:00</time>
      </trkpt>
      <trkpt lat="43.35851" lon="-3.23175">
        <ele>24.5</ele>
        <time>2023-07-12T22:42:42.000+02:00</time>
      </trkpt>
      <trkpt lat="43.35863" lon="-3.23177">
        <ele>25</ele>
        <time>2023-07-12T22:42:44.000+02:00</time>
      </trkpt>
      <trkpt lat="43.35877" lon="-3.23181">
        <ele>25.8</ele>
        <time>2023-07-12T22:42:46.000+02:00</time>
      </trkpt>
      <trkpt lat="43.3589" lon="-3.2319">
        <ele>26.5</ele>
        <time>2023-07-12T22:42:48.000+02:00</time>
      </trkpt>
      <trkpt lat="43.35896" lon="-3.2319">
        <ele>26.8</ele>
        <time>2023-07-12T22:42:49.000+02:00</time>
      </trkpt>
      <trkpt lat="43.35899" lon="-3.2319">
        <ele>26.8</ele>
        <time>2023-07-12T22:42:50.000+02:00</time>
      </trkpt>
      <trkpt lat="43.35905" lon="-3.23187">
        <ele>26.8</ele>
        <time>2023-07-12T22:42:51.000+02:00</time>
      </trkpt>
      <trkpt lat="43.35912" lon="-3.23182">
        <ele>26.8</ele>
        <time>2023-07-12T22:42:52.000+02:00</time>
      </trkpt>
      <trkpt lat="43.35925" lon="-3.23175">
        <ele>27</ele>
        <time>2023-07-12T22:42:54.000+02:00</time>
      </trkpt>
      <trkpt lat="43.35941" lon="-3.23169">
        <ele>27.8</ele>
        <time>2023-07-12T22:42:56.000+02:00</time>
      </trkpt>
      <trkpt lat="43.35964" lon="-3.23164">
        <ele>29</ele>
        <time>2023-07-12T22:43:00.000+02:00</time>
      </trkpt>
      <trkpt lat="43.36049" lon="-3.23162">
        <ele>32.3</ele>
        <time>2023-07-12T22:43:13.000+02:00</time>
      </trkpt>
      <trkpt lat="43.36072" lon="-3.23163">
        <ele>32.5</ele>
        <time>2023-07-12T22:43:16.000+02:00</time>
      </trkpt>
      <trkpt lat="43.3609" lon="-3.23166">
        <ele>33.3</ele>
        <time>2023-07-12T22:43:19.000+02:00</time>
      </trkpt>
      <trkpt lat="43.36109" lon="-3.23164">
        <ele>34.5</ele>
        <time>2023-07-12T22:43:22.000+02:00</time>
      </trkpt>
      <trkpt lat="43.36121" lon="-3.2316">
        <ele>35</ele>
        <time>2023-07-12T22:43:24.000+02:00</time>
      </trkpt>
      <trkpt lat="43.36134" lon="-3.23155">
        <ele>35.3</ele>
        <time>2023-07-12T22:43:26.000+02:00</time>
      </trkpt>
      <trkpt lat="43.36154" lon="-3.23144">
        <ele>35.8</ele>
        <time>2023-07-12T22:43:29.000+02:00</time>
      </trkpt>
      <trkpt lat="43.36164" lon="-3.23131">
        <ele>34.8</ele>
        <time>2023-07-12T22:43:32.000+02:00</time>
      </trkpt>
      <trkpt lat="43.36169" lon="-3.2312">
        <ele>33.8</ele>
        <time>2023-07-12T22:43:33.000+02:00</time>
      </trkpt>
      <trkpt lat="43.36175" lon="-3.23099">
        <ele>31.3</ele>
        <time>2023-07-12T22:43:35.000+02:00</time>
      </trkpt>
      <trkpt lat="43.36178" lon="-3.23074">
        <ele>29</ele>
        <time>2023-07-12T22:43:38.000+02:00</time>
      </trkpt>
      <trkpt lat="43.36183" lon="-3.23048">
        <ele>27.3</ele>
        <time>2023-07-12T22:43:41.000+02:00</time>
      </trkpt>
      <trkpt lat="43.36189" lon="-3.23025">
        <ele>25.8</ele>
        <time>2023-07-12T22:43:44.000+02:00</time>
      </trkpt>
      <trkpt lat="43.3619" lon="-3.23023">
        <ele>25.5</ele>
        <time>2023-07-12T22:43:45.000+02:00</time>
      </trkpt>
      <trkpt lat="43.36196" lon="-3.23015">
        <ele>25</ele>
        <time>2023-07-12T22:43:47.000+02:00</time>
      </trkpt>
      <trkpt lat="43.36203" lon="-3.23011">
        <ele>24.5</ele>
        <time>2023-07-12T22:43:48.000+02:00</time>
      </trkpt>
      <trkpt lat="43.36213" lon="-3.23011">
        <ele>24.3</ele>
        <time>2023-07-12T22:43:49.000+02:00</time>
      </trkpt>
      <trkpt lat="43.3625" lon="-3.23023">
        <ele>24</ele>
        <time>2023-07-12T22:43:55.000+02:00</time>
      </trkpt>
      <trkpt lat="43.3626" lon="-3.23029">
        <ele>24</ele>
        <time>2023-07-12T22:43:57.000+02:00</time>
      </trkpt>
      <trkpt lat="43.36268" lon="-3.23038">
        <ele>24.5</ele>
        <time>2023-07-12T22:43:58.000+02:00</time>
      </trkpt>
      <trkpt lat="43.36287" lon="-3.23054">
        <ele>25.3</ele>
        <time>2023-07-12T22:44:02.000+02:00</time>
      </trkpt>
      <trkpt lat="43.36298" lon="-3.23058">
        <ele>25.3</ele>
        <time>2023-07-12T22:44:03.000+02:00</time>
      </trkpt>
      <trkpt lat="43.36305" lon="-3.23059">
        <ele>25.3</ele>
        <time>2023-07-12T22:44:04.000+02:00</time>
      </trkpt>
      <trkpt lat="43.36304" lon="-3.23101">
        <ele>28.8</ele>
        <time>2023-07-12T22:44:09.000+02:00</time>
      </trkpt>
      <trkpt lat="43.36288" lon="-3.23166">
        <ele>34.3</ele>
        <time>2023-07-12T22:44:17.000+02:00</time>
      </trkpt>
      <trkpt lat="43.363" lon="-3.23193">
        <ele>37.2</ele>
        <time>2023-07-12T22:44:20.000+02:00</time>
      </trkpt>
      <trkpt lat="43.36313" lon="-3.2322">
        <ele>39.2</ele>
        <time>2023-07-12T22:44:24.000+02:00</time>
      </trkpt>
      <trkpt lat="43.36338" lon="-3.23343">
        <ele>46.5</ele>
        <time>2023-07-12T22:44:38.000+02:00</time>
      </trkpt>
      <trkpt lat="43.36363" lon="-3.23465">
        <ele>42.1</ele>
        <time>2023-07-12T22:44:52.000+02:00</time>
      </trkpt>
      <trkpt lat="43.36367" lon="-3.23483">
        <ele>40.7</ele>
        <time>2023-07-12T22:44:54.000+02:00</time>
      </trkpt>
      <trkpt lat="43.3645" lon="-3.23538">
        <ele>31.3</ele>
        <time>2023-07-12T22:45:08.000+02:00</time>
      </trkpt>
      <trkpt lat="43.36476" lon="-3.23556">
        <ele>30</ele>
        <time>2023-07-12T22:45:13.000+02:00</time>
      </trkpt>
      <trkpt lat="43.36475" lon="-3.23559">
        <ele>30.3</ele>
        <time>2023-07-12T22:45:13.000+02:00</time>
      </trkpt>
      <trkpt lat="43.36484" lon="-3.23575">
        <ele>30.3</ele>
        <time>2023-07-12T22:45:15.000+02:00</time>
      </trkpt>
      <trkpt lat="43.36517" lon="-3.2361">
        <ele>33.8</ele>
        <time>2023-07-12T22:45:22.000+02:00</time>
      </trkpt>
      <trkpt lat="43.36546" lon="-3.23634">
        <ele>35.8</ele>
        <time>2023-07-12T22:45:27.000+02:00</time>
      </trkpt>
      <trkpt lat="43.36556" lon="-3.23657">
        <ele>37.5</ele>
        <time>2023-07-12T22:45:30.000+02:00</time>
      </trkpt>
      <trkpt lat="43.36592" lon="-3.2369">
        <ele>41.3</ele>
        <time>2023-07-12T22:45:36.000+02:00</time>
      </trkpt>
      <trkpt lat="43.36602" lon="-3.23713">
        <ele>45.3</ele>
        <time>2023-07-12T22:45:39.000+02:00</time>
      </trkpt>
      <trkpt lat="43.36612" lon="-3.23739">
        <ele>49</ele>
        <time>2023-07-12T22:45:43.000+02:00</time>
      </trkpt>
      <trkpt lat="43.36635" lon="-3.23798">
        <ele>53</ele>
        <time>2023-07-12T22:45:50.000+02:00</time>
      </trkpt>
      <trkpt lat="43.36645" lon="-3.23849">
        <ele>55.5</ele>
        <time>2023-07-12T22:45:56.000+02:00</time>
      </trkpt>
      <trkpt lat="43.36648" lon="-3.23867">
        <ele>56.5</ele>
        <time>2023-07-12T22:45:58.000+02:00</time>
      </trkpt>
      <trkpt lat="43.36654" lon="-3.2391">
        <ele>58.3</ele>
        <time>2023-07-12T22:46:03.000+02:00</time>
      </trkpt>
      <trkpt lat="43.36663" lon="-3.23967">
        <ele>55.5</ele>
        <time>2023-07-12T22:46:09.000+02:00</time>
      </trkpt>
      <trkpt lat="43.36693" lon="-3.24047">
        <ele>53</ele>
        <time>2023-07-12T22:46:19.000+02:00</time>
      </trkpt>
      <trkpt lat="43.36732" lon="-3.24111">
        <ele>51</ele>
        <time>2023-07-12T22:46:29.000+02:00</time>
      </trkpt>
      <trkpt lat="43.36758" lon="-3.24164">
        <ele>53.8</ele>
        <time>2023-07-12T22:46:36.000+02:00</time>
      </trkpt>
      <trkpt lat="43.36771" lon="-3.24139">
        <ele>53.8</ele>
        <time>2023-07-12T22:46:39.000+02:00</time>
      </trkpt>
      <trkpt lat="43.36775" lon="-3.24121">
        <ele>53.5</ele>
        <time>2023-07-12T22:46:41.000+02:00</time>
      </trkpt>
      <trkpt lat="43.36781" lon="-3.24077">
        <ele>53.3</ele>
        <time>2023-07-12T22:46:46.000+02:00</time>
      </trkpt>
      <trkpt lat="43.36782" lon="-3.24041">
        <ele>56</ele>
        <time>2023-07-12T22:46:50.000+02:00</time>
      </trkpt>
      <trkpt lat="43.36776" lon="-3.24006">
        <ele>56.5</ele>
        <time>2023-07-12T22:46:54.000+02:00</time>
      </trkpt>
      <trkpt lat="43.36769" lon="-3.23978">
        <ele>56.5</ele>
        <time>2023-07-12T22:46:58.000+02:00</time>
      </trkpt>
      <trkpt lat="43.36765" lon="-3.23949">
        <ele>57</ele>
        <time>2023-07-12T22:47:01.000+02:00</time>
      </trkpt>
      <trkpt lat="43.36752" lon="-3.23903">
        <ele>56</ele>
        <time>2023-07-12T22:47:06.000+02:00</time>
      </trkpt>
      <trkpt lat="43.36745" lon="-3.23882">
        <ele>56</ele>
        <time>2023-07-12T22:47:09.000+02:00</time>
      </trkpt>
      <trkpt lat="43.36752" lon="-3.23847">
        <ele>58.8</ele>
        <time>2023-07-12T22:47:13.000+02:00</time>
      </trkpt>
      <trkpt lat="43.36769" lon="-3.23841">
        <ele>64.5</ele>
        <time>2023-07-12T22:47:16.000+02:00</time>
      </trkpt>
      <trkpt lat="43.36789" lon="-3.23843">
        <ele>70.5</ele>
        <time>2023-07-12T22:47:19.000+02:00</time>
      </trkpt>
      <trkpt lat="43.36832" lon="-3.23872">
        <ele>82.5</ele>
        <time>2023-07-12T22:47:26.000+02:00</time>
      </trkpt>
      <trkpt lat="43.36854" lon="-3.23892">
        <ele>86.8</ele>
        <time>2023-07-12T22:47:30.000+02:00</time>
      </trkpt>
      <trkpt lat="43.36891" lon="-3.23896">
        <ele>94.8</ele>
        <time>2023-07-12T22:47:36.000+02:00</time>
      </trkpt>
      <trkpt lat="43.36916" lon="-3.23878">
        <ele>101</ele>
        <time>2023-07-12T22:47:40.000+02:00</time>
      </trkpt>
      <trkpt lat="43.36932" lon="-3.23856">
        <ele>105.8</ele>
        <time>2023-07-12T22:47:44.000+02:00</time>
      </trkpt>
      <trkpt lat="43.36937" lon="-3.2385">
        <ele>107.3</ele>
        <time>2023-07-12T22:47:45.000+02:00</time>
      </trkpt>
      <trkpt lat="43.36965" lon="-3.23837">
        <ele>114.5</ele>
        <time>2023-07-12T22:47:50.000+02:00</time>
      </trkpt>
      <trkpt lat="43.36999" lon="-3.23839">
        <ele>122.8</ele>
        <time>2023-07-12T22:47:55.000+02:00</time>
      </trkpt>
      <trkpt lat="43.37028" lon="-3.23836">
        <ele>130.8</ele>
        <time>2023-07-12T22:48:00.000+02:00</time>
      </trkpt>
      <trkpt lat="43.37045" lon="-3.2382">
        <ele>136.5</ele>
        <time>2023-07-12T22:48:03.000+02:00</time>
      </trkpt>
      <trkpt lat="43.37045" lon="-3.23807">
        <ele>137.5</ele>
        <time>2023-07-12T22:48:04.000+02:00</time>
      </trkpt>
      <trkpt lat="43.37033" lon="-3.23788">
        <ele>135.5</ele>
        <time>2023-07-12T22:48:07.000+02:00</time>
      </trkpt>
      <trkpt lat="43.37028" lon="-3.23769">
        <ele>135.5</ele>
        <time>2023-07-12T22:48:09.000+02:00</time>
      </trkpt>
      <trkpt lat="43.37024" lon="-3.23744">
        <ele>135.8</ele>
        <time>2023-07-12T22:48:12.000+02:00</time>
      </trkpt>
      <trkpt lat="43.3703" lon="-3.23718">
        <ele>138</ele>
        <time>2023-07-12T22:48:15.000+02:00</time>
      </trkpt>
      <trkpt lat="43.3704" lon="-3.23678">
        <ele>142.5</ele>
        <time>2023-07-12T22:48:20.000+02:00</time>
      </trkpt>
      <trkpt lat="43.37092" lon="-3.23574">
        <ele>159.8</ele>
        <time>2023-07-12T22:48:34.000+02:00</time>
      </trkpt>
      <trkpt lat="43.37119" lon="-3.23558">
        <ele>165.8</ele>
        <time>2023-07-12T22:48:38.000+02:00</time>
      </trkpt>
      <trkpt lat="43.37145" lon="-3.23541">
        <ele>171.3</ele>
        <time>2023-07-12T22:48:43.000+02:00</time>
      </trkpt>
      <trkpt lat="43.37168" lon="-3.23514">
        <ele>176.3</ele>
        <time>2023-07-12T22:48:47.000+02:00</time>
      </trkpt>
      <trkpt lat="43.37189" lon="-3.23466">
        <ele>176</ele>
        <time>2023-07-12T22:48:54.000+02:00</time>
      </trkpt>
      <trkpt lat="43.3721" lon="-3.23454">
        <ele>178.3</ele>
        <time>2023-07-12T22:48:57.000+02:00</time>
      </trkpt>
      <trkpt lat="43.37251" lon="-3.23398">
        <ele>180.5</ele>
        <time>2023-07-12T22:49:06.000+02:00</time>
      </trkpt>
      <trkpt lat="43.3728" lon="-3.23383">
        <ele>184.5</ele>
        <time>2023-07-12T22:49:11.000+02:00</time>
      </trkpt>
      <trkpt lat="43.37308" lon="-3.23399">
        <ele>191</ele>
        <time>2023-07-12T22:49:15.000+02:00</time>
      </trkpt>
      <trkpt lat="43.37335" lon="-3.23411">
        <ele>196.8</ele>
        <time>2023-07-12T22:49:19.000+02:00</time>
      </trkpt>
      <trkpt lat="43.37361" lon="-3.23383">
        <ele>201</ele>
        <time>2023-07-12T22:49:25.000+02:00</time>
      </trkpt>
      <trkpt lat="43.37384" lon="-3.23361">
        <ele>204</ele>
        <time>2023-07-12T22:49:29.000+02:00</time>
      </trkpt>
      <trkpt lat="43.374" lon="-3.23352">
        <ele>206.5</ele>
        <time>2023-07-12T22:49:31.000+02:00</time>
      </trkpt>
      <trkpt lat="43.37423" lon="-3.23364">
        <ele>212.3</ele>
        <time>2023-07-12T22:49:35.000+02:00</time>
      </trkpt>
      <trkpt lat="43.37468" lon="-3.23439">
        <ele>228</ele>
        <time>2023-07-12T22:49:46.000+02:00</time>
      </trkpt>
      <trkpt lat="43.37473" lon="-3.23497">
        <ele>237</ele>
        <time>2023-07-12T22:49:53.000+02:00</time>
      </trkpt>
      <trkpt lat="43.37497" lon="-3.23554">
        <ele>249</ele>
        <time>2023-07-12T22:50:00.000+02:00</time>
      </trkpt>
      <trkpt lat="43.3753" lon="-3.2357">
        <ele>252.8</ele>
        <time>2023-07-12T22:50:05.000+02:00</time>
      </trkpt>
      <trkpt lat="43.37558" lon="-3.23558">
        <ele>251.3</ele>
        <time>2023-07-12T22:50:10.000+02:00</time>
      </trkpt>
      <trkpt lat="43.37586" lon="-3.2355">
        <ele>250</ele>
        <time>2023-07-12T22:50:14.000+02:00</time>
      </trkpt>
      <trkpt lat="43.37596" lon="-3.23611">
        <ele>255.5</ele>
        <time>2023-07-12T22:50:21.000+02:00</time>
      </trkpt>
      <trkpt lat="43.37592" lon="-3.23678">
        <ele>269.5</ele>
        <time>2023-07-12T22:50:28.000+02:00</time>
      </trkpt>
      <trkpt lat="43.37572" lon="-3.23721">
        <ele>280</ele>
        <time>2023-07-12T22:50:34.000+02:00</time>
      </trkpt>
      <trkpt lat="43.37551" lon="-3.23759">
        <ele>285</ele>
        <time>2023-07-12T22:50:39.000+02:00</time>
      </trkpt>
      <trkpt lat="43.37572" lon="-3.23849">
        <ele>291</ele>
        <time>2023-07-12T22:50:50.000+02:00</time>
      </trkpt>
      <trkpt lat="43.37627" lon="-3.23951">
        <ele>303.3</ele>
        <time>2023-07-12T22:51:04.000+02:00</time>
      </trkpt>
      <trkpt lat="43.37644" lon="-3.23998">
        <ele>307.5</ele>
        <time>2023-07-12T22:51:10.000+02:00</time>
      </trkpt>
      <trkpt lat="43.3766" lon="-3.24028">
        <ele>311</ele>
        <time>2023-07-12T22:51:14.000+02:00</time>
      </trkpt>
      <trkpt lat="43.37683" lon="-3.24109">
        <ele>312.3</ele>
        <time>2023-07-12T22:51:24.000+02:00</time>
      </trkpt>
      <trkpt lat="43.37723" lon="-3.24246">
        <ele>314.8</ele>
        <time>2023-07-12T22:51:40.000+02:00</time>
      </trkpt>
      <trkpt lat="43.37735" lon="-3.24341">
        <ele>317.8</ele>
        <time>2023-07-12T22:51:51.000+02:00</time>
      </trkpt>
      <trkpt lat="43.37745" lon="-3.24372">
        <ele>320.8</ele>
        <time>2023-07-12T22:51:55.000+02:00</time>
      </trkpt>
      <trkpt lat="43.37748" lon="-3.24382">
        <ele>321.5</ele>
        <time>2023-07-12T22:51:56.000+02:00</time>
      </trkpt>
      <trkpt lat="43.37751" lon="-3.24442">
        <ele>324.8</ele>
        <time>2023-07-12T22:52:02.000+02:00</time>
      </trkpt>
      <trkpt lat="43.37764" lon="-3.24489">
        <ele>326.3</ele>
        <time>2023-07-12T22:52:08.000+02:00</time>
      </trkpt>
      <trkpt lat="43.37765" lon="-3.24557">
        <ele>331</ele>
        <time>2023-07-12T22:52:16.000+02:00</time>
      </trkpt>
      <trkpt lat="43.37789" lon="-3.24613">
        <ele>332</ele>
        <time>2023-07-12T22:52:23.000+02:00</time>
      </trkpt>
      <trkpt lat="43.37953" lon="-3.24896">
        <ele>352</ele>
        <time>2023-07-12T22:53:03.000+02:00</time>
      </trkpt>
      <trkpt lat="43.38141" lon="-3.25351">
        <ele>391</ele>
        <time>2023-07-12T22:54:01.000+02:00</time>
      </trkpt>
      <trkpt lat="43.38181" lon="-3.25452">
        <ele>407</ele>
        <time>2023-07-12T22:54:14.000+02:00</time>
      </trkpt>
      <trkpt lat="43.38254" lon="-3.25656">
        <ele>431.5</ele>
        <time>2023-07-12T22:54:39.000+02:00</time>
      </trkpt>
      <trkpt lat="43.38258" lon="-3.25678">
        <ele>433</ele>
        <time>2023-07-12T22:54:42.000+02:00</time>
      </trkpt>
      <trkpt lat="43.38257" lon="-3.25695">
        <ele>434.8</ele>
        <time>2023-07-12T22:54:44.000+02:00</time>
      </trkpt>
      <trkpt lat="43.38254" lon="-3.25723">
        <ele>437.8</ele>
        <time>2023-07-12T22:54:47.000+02:00</time>
      </trkpt>
      <trkpt lat="43.38248" lon="-3.25796">
        <ele>440.3</ele>
        <time>2023-07-12T22:54:55.000+02:00</time>
      </trkpt>
      <trkpt lat="43.38246" lon="-3.25825">
        <ele>441.5</ele>
        <time>2023-07-12T22:54:58.000+02:00</time>
      </trkpt>
      <trkpt lat="43.38223" lon="-3.26052">
        <ele>448.8</ele>
        <time>2023-07-12T22:55:24.000+02:00</time>
      </trkpt>
      <trkpt lat="43.38193" lon="-3.26195">
        <ele>455.5</ele>
        <time>2023-07-12T22:55:40.000+02:00</time>
      </trkpt>
      <trkpt lat="43.38183" lon="-3.2626">
        <ele>460.3</ele>
        <time>2023-07-12T22:55:48.000+02:00</time>
      </trkpt>
      <trkpt lat="43.38183" lon="-3.26327">
        <ele>463.3</ele>
        <time>2023-07-12T22:55:55.000+02:00</time>
      </trkpt>
      <trkpt lat="43.38176" lon="-3.26426">
        <ele>465.8</ele>
        <time>2023-07-12T22:56:06.000+02:00</time>
      </trkpt>
      <trkpt lat="43.38178" lon="-3.26482">
        <ele>470.3</ele>
        <time>2023-07-12T22:56:12.000+02:00</time>
      </trkpt>
      <trkpt lat="43.38177" lon="-3.26537">
        <ele>476</ele>
        <time>2023-07-12T22:56:18.000+02:00</time>
      </trkpt>
      <trkpt lat="43.3817" lon="-3.26587">
        <ele>483</ele>
        <time>2023-07-12T22:56:24.000+02:00</time>
      </trkpt>
      <trkpt lat="43.38161" lon="-3.26645">
        <ele>490.5</ele>
        <time>2023-07-12T22:56:31.000+02:00</time>
      </trkpt>
      <trkpt lat="43.3815" lon="-3.2676">
        <ele>506</ele>
        <time>2023-07-12T22:56:43.000+02:00</time>
      </trkpt>
      <trkpt lat="43.38146" lon="-3.26807">
        <ele>515.8</ele>
        <time>2023-07-12T22:56:49.000+02:00</time>
      </trkpt>
      <trkpt lat="43.3814" lon="-3.26829">
        <ele>520.5</ele>
        <time>2023-07-12T22:56:51.000+02:00</time>
      </trkpt>
      <trkpt lat="43.38138" lon="-3.26838">
        <ele>522.8</ele>
        <time>2023-07-12T22:56:52.000+02:00</time>
      </trkpt>
      <trkpt lat="43.38135" lon="-3.26846">
        <ele>524.8</ele>
        <time>2023-07-12T22:56:53.000+02:00</time>
      </trkpt>
      <trkpt lat="43.38129" lon="-3.26852">
        <ele>526.5</ele>
        <time>2023-07-12T22:56:54.000+02:00</time>
      </trkpt>
      <trkpt lat="43.38109" lon="-3.26854">
        <ele>526.5</ele>
        <time>2023-07-12T22:56:58.000+02:00</time>
      </trkpt>
      <trkpt lat="43.38092" lon="-3.26854">
        <ele>526.3</ele>
        <time>2023-07-12T22:57:00.000+02:00</time>
      </trkpt>
      <trkpt lat="43.38083" lon="-3.26855">
        <ele>526.5</ele>
        <time>2023-07-12T22:57:01.000+02:00</time>
      </trkpt>
      <trkpt lat="43.38078" lon="-3.26861">
        <ele>527.8</ele>
        <time>2023-07-12T22:57:02.000+02:00</time>
      </trkpt>
      <trkpt lat="43.3806" lon="-3.26872">
        <ele>530</ele>
        <time>2023-07-12T22:57:06.000+02:00</time>
      </trkpt>
      <trkpt lat="43.3804" lon="-3.2688">
        <ele>531</ele>
        <time>2023-07-12T22:57:09.000+02:00</time>
      </trkpt>
      <trkpt lat="43.38029" lon="-3.26884">
        <ele>531</ele>
        <time>2023-07-12T22:57:10.000+02:00</time>
      </trkpt>
      <trkpt lat="43.38015" lon="-3.26885">
        <ele>529.8</ele>
        <time>2023-07-12T22:57:13.000+02:00</time>
      </trkpt>
      <trkpt lat="43.37995" lon="-3.2688">
        <ele>525.8</ele>
        <time>2023-07-12T22:57:16.000+02:00</time>
      </trkpt>
      <trkpt lat="43.37977" lon="-3.26872">
        <ele>519.8</ele>
        <time>2023-07-12T22:57:19.000+02:00</time>
      </trkpt>
      <trkpt lat="43.37955" lon="-3.26865">
        <ele>513.5</ele>
        <time>2023-07-12T22:57:22.000+02:00</time>
      </trkpt>
      <trkpt lat="43.37949" lon="-3.26866">
        <ele>513</ele>
        <time>2023-07-12T22:57:23.000+02:00</time>
      </trkpt>
      <trkpt lat="43.37945" lon="-3.2687">
        <ele>513</ele>
        <time>2023-07-12T22:57:24.000+02:00</time>
      </trkpt>
      <trkpt lat="43.3794" lon="-3.26876">
        <ele>513.8</ele>
        <time>2023-07-12T22:57:25.000+02:00</time>
      </trkpt>
      <trkpt lat="43.37936" lon="-3.26885">
        <ele>515</ele>
        <time>2023-07-12T22:57:26.000+02:00</time>
      </trkpt>
      <trkpt lat="43.37936" lon="-3.26904">
        <ele>518.8</ele>
        <time>2023-07-12T22:57:28.000+02:00</time>
      </trkpt>
      <trkpt lat="43.37939" lon="-3.2693">
        <ele>523</ele>
        <time>2023-07-12T22:57:31.000+02:00</time>
      </trkpt>
      <trkpt lat="43.37943" lon="-3.26956">
        <ele>525.8</ele>
        <time>2023-07-12T22:57:34.000+02:00</time>
      </trkpt>
      <trkpt lat="43.37944" lon="-3.26977">
        <ele>527.5</ele>
        <time>2023-07-12T22:57:36.000+02:00</time>
      </trkpt>
      <trkpt lat="43.37945" lon="-3.27008">
        <ele>529.5</ele>
        <time>2023-07-12T22:57:40.000+02:00</time>
      </trkpt>
      <trkpt lat="43.37961" lon="-3.27125">
        <ele>537.3</ele>
        <time>2023-07-12T22:57:53.000+02:00</time>
      </trkpt>
      <trkpt lat="43.37964" lon="-3.27167">
        <ele>537.5</ele>
        <time>2023-07-12T22:57:57.000+02:00</time>
      </trkpt>
      <trkpt lat="43.37969" lon="-3.27196">
        <ele>538.5</ele>
        <time>2023-07-12T22:58:01.000+02:00</time>
      </trkpt>
      <trkpt lat="43.37971" lon="-3.27216">
        <ele>539</ele>
        <time>2023-07-12T22:58:03.000+02:00</time>
      </trkpt>
      <trkpt lat="43.37975" lon="-3.27289">
        <ele>537.8</ele>
        <time>2023-07-12T22:58:11.000+02:00</time>
      </trkpt>
      <trkpt lat="43.37979" lon="-3.27326">
        <ele>537</ele>
        <time>2023-07-12T22:58:15.000+02:00</time>
      </trkpt>
      <trkpt lat="43.37983" lon="-3.27353">
        <ele>537.3</ele>
        <time>2023-07-12T22:58:18.000+02:00</time>
      </trkpt>
      <trkpt lat="43.38016" lon="-3.27511">
        <ele>538.5</ele>
        <time>2023-07-12T22:58:37.000+02:00</time>
      </trkpt>
      <trkpt lat="43.38034" lon="-3.27559">
        <ele>542</ele>
        <time>2023-07-12T22:58:43.000+02:00</time>
      </trkpt>
      <trkpt lat="43.38042" lon="-3.27585">
        <ele>543.3</ele>
        <time>2023-07-12T22:58:46.000+02:00</time>
      </trkpt>
      <trkpt lat="43.38056" lon="-3.27616">
        <ele>546.3</ele>
        <time>2023-07-12T22:58:50.000+02:00</time>
      </trkpt>
      <trkpt lat="43.38054" lon="-3.27657">
        <ele>543.8</ele>
        <time>2023-07-12T22:58:54.000+02:00</time>
      </trkpt>
      <trkpt lat="43.38055" lon="-3.2767">
        <ele>543.8</ele>
        <time>2023-07-12T22:58:56.000+02:00</time>
      </trkpt>
      <trkpt lat="43.38058" lon="-3.27674">
        <ele>544.5</ele>
        <time>2023-07-12T22:58:57.000+02:00</time>
      </trkpt>
      <trkpt lat="43.38041" lon="-3.27778">
        <ele>537.8</ele>
        <time>2023-07-12T22:59:09.000+02:00</time>
      </trkpt>
      <trkpt lat="43.38028" lon="-3.2785">
        <ele>535.3</ele>
        <time>2023-07-12T22:59:18.000+02:00</time>
      </trkpt>
      <trkpt lat="43.38026" lon="-3.27873">
        <ele>535</ele>
        <time>2023-07-12T22:59:20.000+02:00</time>
      </trkpt>
      <trkpt lat="43.38024" lon="-3.27891">
        <ele>534.8</ele>
        <time>2023-07-12T22:59:22.000+02:00</time>
      </trkpt>
      <trkpt lat="43.38018" lon="-3.27902">
        <ele>534.8</ele>
        <time>2023-07-12T22:59:24.000+02:00</time>
      </trkpt>
      <trkpt lat="43.3801" lon="-3.2791">
        <ele>534.8</ele>
        <time>2023-07-12T22:59:25.000+02:00</time>
      </trkpt>
      <trkpt lat="43.37996" lon="-3.27912">
        <ele>534</ele>
        <time>2023-07-12T22:59:27.000+02:00</time>
      </trkpt>
      <trkpt lat="43.37954" lon="-3.27916">
        <ele>528.3</ele>
        <time>2023-07-12T22:59:34.000+02:00</time>
      </trkpt>
      <trkpt lat="43.37915" lon="-3.27932">
        <ele>523.8</ele>
        <time>2023-07-12T22:59:40.000+02:00</time>
      </trkpt>
      <trkpt lat="43.37897" lon="-3.27939">
        <ele>521.3</ele>
        <time>2023-07-12T22:59:43.000+02:00</time>
      </trkpt>
      <trkpt lat="43.37853" lon="-3.27967">
        <ele>517.3</ele>
        <time>2023-07-12T22:59:50.000+02:00</time>
      </trkpt>
      <trkpt lat="43.37817" lon="-3.27982">
        <ele>515</ele>
        <time>2023-07-12T22:59:56.000+02:00</time>
      </trkpt>
      <trkpt lat="43.37752" lon="-3.28016">
        <ele>513</ele>
        <time>2023-07-12T23:00:07.000+02:00</time>
      </trkpt>
      <trkpt lat="43.37738" lon="-3.2803">
        <ele>512.8</ele>
        <time>2023-07-12T23:00:09.000+02:00</time>
      </trkpt>
      <trkpt lat="43.37728" lon="-3.28046">
        <ele>513</ele>
        <time>2023-07-12T23:00:12.000+02:00</time>
      </trkpt>
      <trkpt lat="43.37717" lon="-3.28063">
        <ele>513</ele>
        <time>2023-07-12T23:00:14.000+02:00</time>
      </trkpt>
      <trkpt lat="43.37705" lon="-3.28095">
        <ele>511.8</ele>
        <time>2023-07-12T23:00:18.000+02:00</time>
      </trkpt>
      <trkpt lat="43.377" lon="-3.28146">
        <ele>506</ele>
        <time>2023-07-12T23:00:24.000+02:00</time>
      </trkpt>
      <trkpt lat="43.37703" lon="-3.28178">
        <ele>503.5</ele>
        <time>2023-07-12T23:00:27.000+02:00</time>
      </trkpt>
      <trkpt lat="43.37729" lon="-3.28302">
        <ele>497</ele>
        <time>2023-07-12T23:00:42.000+02:00</time>
      </trkpt>
      <trkpt lat="43.37744" lon="-3.28412">
        <ele>488.3</ele>
        <time>2023-07-12T23:00:54.000+02:00</time>
      </trkpt>
      <trkpt lat="43.37745" lon="-3.28426">
        <ele>487.3</ele>
        <time>2023-07-12T23:00:56.000+02:00</time>
      </trkpt>
      <trkpt lat="43.37756" lon="-3.2846">
        <ele>486.3</ele>
        <time>2023-07-12T23:01:00.000+02:00</time>
      </trkpt>
      <trkpt lat="43.37768" lon="-3.28495">
        <ele>485</ele>
        <time>2023-07-12T23:01:04.000+02:00</time>
      </trkpt>
      <trkpt lat="43.37776" lon="-3.28511">
        <ele>484</ele>
        <time>2023-07-12T23:01:06.000+02:00</time>
      </trkpt>
      <trkpt lat="43.37795" lon="-3.28542">
        <ele>483.5</ele>
        <time>2023-07-12T23:01:11.000+02:00</time>
      </trkpt>
      <trkpt lat="43.37805" lon="-3.28562">
        <ele>482.8</ele>
        <time>2023-07-12T23:01:13.000+02:00</time>
      </trkpt>
      <trkpt lat="43.37811" lon="-3.28585">
        <ele>480.8</ele>
        <time>2023-07-12T23:01:16.000+02:00</time>
      </trkpt>
      <trkpt lat="43.37819" lon="-3.28623">
        <ele>479.5</ele>
        <time>2023-07-12T23:01:21.000+02:00</time>
      </trkpt>
      <trkpt lat="43.3782" lon="-3.28653">
        <ele>477.3</ele>
        <time>2023-07-12T23:01:24.000+02:00</time>
      </trkpt>
      <trkpt lat="43.3782" lon="-3.28683">
        <ele>475.5</ele>
        <time>2023-07-12T23:01:27.000+02:00</time>
      </trkpt>
      <trkpt lat="43.37816" lon="-3.28715">
        <ele>473</ele>
        <time>2023-07-12T23:01:31.000+02:00</time>
      </trkpt>
      <trkpt lat="43.37805" lon="-3.28759">
        <ele>467</ele>
        <time>2023-07-12T23:01:36.000+02:00</time>
      </trkpt>
      <trkpt lat="43.378" lon="-3.28786">
        <ele>465</ele>
        <time>2023-07-12T23:01:39.000+02:00</time>
      </trkpt>
      <trkpt lat="43.37788" lon="-3.28812">
        <ele>460.8</ele>
        <time>2023-07-12T23:01:43.000+02:00</time>
      </trkpt>
      <trkpt lat="43.37781" lon="-3.28856">
        <ele>459</ele>
        <time>2023-07-12T23:01:48.000+02:00</time>
      </trkpt>
      <trkpt lat="43.37774" lon="-3.28872">
        <ele>456.8</ele>
        <time>2023-07-12T23:01:50.000+02:00</time>
      </trkpt>
      <trkpt lat="43.37765" lon="-3.28902">
        <ele>455</ele>
        <time>2023-07-12T23:01:53.000+02:00</time>
      </trkpt>
      <trkpt lat="43.37763" lon="-3.28944">
        <ele>452.3</ele>
        <time>2023-07-12T23:01:58.000+02:00</time>
      </trkpt>
      <trkpt lat="43.37771" lon="-3.29036">
        <ele>448</ele>
        <time>2023-07-12T23:02:08.000+02:00</time>
      </trkpt>
      <trkpt lat="43.37776" lon="-3.29053">
        <ele>448.8</ele>
        <time>2023-07-12T23:02:10.000+02:00</time>
      </trkpt>
      <trkpt lat="43.37775" lon="-3.29062">
        <ele>448</ele>
        <time>2023-07-12T23:02:11.000+02:00</time>
      </trkpt>
      <trkpt lat="43.37773" lon="-3.29069">
        <ele>447</ele>
        <time>2023-07-12T23:02:12.000+02:00</time>
      </trkpt>
      <trkpt lat="43.37767" lon="-3.29068">
        <ele>445.3</ele>
        <time>2023-07-12T23:02:13.000+02:00</time>
      </trkpt>
      <trkpt lat="43.3776" lon="-3.29057">
        <ele>443.8</ele>
        <time>2023-07-12T23:02:15.000+02:00</time>
      </trkpt>
      <trkpt lat="43.37744" lon="-3.29027">
        <ele>440.5</ele>
        <time>2023-07-12T23:02:19.000+02:00</time>
      </trkpt>
      <trkpt lat="43.37716" lon="-3.28978">
        <ele>434.8</ele>
        <time>2023-07-12T23:02:26.000+02:00</time>
      </trkpt>
      <trkpt lat="43.37705" lon="-3.28947">
        <ele>432.5</ele>
        <time>2023-07-12T23:02:30.000+02:00</time>
      </trkpt>
      <trkpt lat="43.37697" lon="-3.28927">
        <ele>431</ele>
        <time>2023-07-12T23:02:32.000+02:00</time>
      </trkpt>
      <trkpt lat="43.37694" lon="-3.28913">
        <ele>429.8</ele>
        <time>2023-07-12T23:02:34.000+02:00</time>
      </trkpt>
      <trkpt lat="43.37689" lon="-3.28904">
        <ele>426.8</ele>
        <time>2023-07-12T23:02:35.000+02:00</time>
      </trkpt>
      <trkpt lat="43.37683" lon="-3.28903">
        <ele>424.3</ele>
        <time>2023-07-12T23:02:36.000+02:00</time>
      </trkpt>
      <trkpt lat="43.37679" lon="-3.28913">
        <ele>424</ele>
        <time>2023-07-12T23:02:37.000+02:00</time>
      </trkpt>
      <trkpt lat="43.37678" lon="-3.28923">
        <ele>424</ele>
        <time>2023-07-12T23:02:38.000+02:00</time>
      </trkpt>
      <trkpt lat="43.37677" lon="-3.28959">
        <ele>423</ele>
        <time>2023-07-12T23:02:42.000+02:00</time>
      </trkpt>
      <trkpt lat="43.37682" lon="-3.29003">
        <ele>424</ele>
        <time>2023-07-12T23:02:47.000+02:00</time>
      </trkpt>
      <trkpt lat="43.37692" lon="-3.29035">
        <ele>426.8</ele>
        <time>2023-07-12T23:02:51.000+02:00</time>
      </trkpt>
      <trkpt lat="43.37719" lon="-3.2909">
        <ele>432.8</ele>
        <time>2023-07-12T23:02:58.000+02:00</time>
      </trkpt>
      <trkpt lat="43.37729" lon="-3.29123">
        <ele>435.8</ele>
        <time>2023-07-12T23:03:02.000+02:00</time>
      </trkpt>
      <trkpt lat="43.37726" lon="-3.29145">
        <ele>435.5</ele>
        <time>2023-07-12T23:03:05.000+02:00</time>
      </trkpt>
      <trkpt lat="43.37712" lon="-3.29205">
        <ele>430.8</ele>
        <time>2023-07-12T23:03:12.000+02:00</time>
      </trkpt>
      <trkpt lat="43.377" lon="-3.29264">
        <ele>427.3</ele>
        <time>2023-07-12T23:03:19.000+02:00</time>
      </trkpt>
      <trkpt lat="43.37694" lon="-3.29276">
        <ele>426.5</ele>
        <time>2023-07-12T23:03:20.000+02:00</time>
      </trkpt>
      <trkpt lat="43.37685" lon="-3.29284">
        <ele>425.3</ele>
        <time>2023-07-12T23:03:22.000+02:00</time>
      </trkpt>
      <trkpt lat="43.37673" lon="-3.29287">
        <ele>423.3</ele>
        <time>2023-07-12T23:03:24.000+02:00</time>
      </trkpt>
      <trkpt lat="43.37661" lon="-3.29288">
        <ele>421.3</ele>
        <time>2023-07-12T23:03:26.000+02:00</time>
      </trkpt>
      <trkpt lat="43.37645" lon="-3.29285">
        <ele>418.5</ele>
        <time>2023-07-12T23:03:28.000+02:00</time>
      </trkpt>
      <trkpt lat="43.37634" lon="-3.29288">
        <ele>417</ele>
        <time>2023-07-12T23:03:30.000+02:00</time>
      </trkpt>
      <trkpt lat="43.37624" lon="-3.29296">
        <ele>415.8</ele>
        <time>2023-07-12T23:03:32.000+02:00</time>
      </trkpt>
      <trkpt lat="43.37612" lon="-3.29319">
        <ele>416</ele>
        <time>2023-07-12T23:03:35.000+02:00</time>
      </trkpt>
      <trkpt lat="43.37604" lon="-3.29352">
        <ele>417.3</ele>
        <time>2023-07-12T23:03:39.000+02:00</time>
      </trkpt>
      <trkpt lat="43.37598" lon="-3.2937">
        <ele>416.8</ele>
        <time>2023-07-12T23:03:41.000+02:00</time>
      </trkpt>
      <trkpt lat="43.3758" lon="-3.29385">
        <ele>413.3</ele>
        <time>2023-07-12T23:03:44.000+02:00</time>
      </trkpt>
      <trkpt lat="43.37567" lon="-3.29408">
        <ele>409.5</ele>
        <time>2023-07-12T23:03:47.000+02:00</time>
      </trkpt>
      <trkpt lat="43.37559" lon="-3.29432">
        <ele>408.3</ele>
        <time>2023-07-12T23:03:50.000+02:00</time>
      </trkpt>
      <trkpt lat="43.37541" lon="-3.29462">
        <ele>404.8</ele>
        <time>2023-07-12T23:03:54.000+02:00</time>
      </trkpt>
      <trkpt lat="43.37529" lon="-3.29492">
        <ele>402.8</ele>
        <time>2023-07-12T23:03:58.000+02:00</time>
      </trkpt>
      <trkpt lat="43.37515" lon="-3.29543">
        <ele>400.5</ele>
        <time>2023-07-12T23:04:04.000+02:00</time>
      </trkpt>
      <trkpt lat="43.37501" lon="-3.2962">
        <ele>398</ele>
        <time>2023-07-12T23:04:13.000+02:00</time>
      </trkpt>
      <trkpt lat="43.37493" lon="-3.29645">
        <ele>395.3</ele>
        <time>2023-07-12T23:04:16.000+02:00</time>
      </trkpt>
      <trkpt lat="43.3748" lon="-3.29676">
        <ele>391</ele>
        <time>2023-07-12T23:04:20.000+02:00</time>
      </trkpt>
      <trkpt lat="43.37459" lon="-3.29714">
        <ele>385.5</ele>
        <time>2023-07-12T23:04:25.000+02:00</time>
      </trkpt>
      <trkpt lat="43.37445" lon="-3.29744">
        <ele>382.5</ele>
        <time>2023-07-12T23:04:29.000+02:00</time>
      </trkpt>
      <trkpt lat="43.37431" lon="-3.29777">
        <ele>380.5</ele>
        <time>2023-07-12T23:04:34.000+02:00</time>
      </trkpt>
      <trkpt lat="43.37413" lon="-3.29814">
        <ele>378.8</ele>
        <time>2023-07-12T23:04:39.000+02:00</time>
      </trkpt>
      <trkpt lat="43.3739" lon="-3.29839">
        <ele>374</ele>
        <time>2023-07-12T23:04:43.000+02:00</time>
      </trkpt>
      <trkpt lat="43.37374" lon="-3.29861">
        <ele>369.5</ele>
        <time>2023-07-12T23:04:46.000+02:00</time>
      </trkpt>
      <trkpt lat="43.37362" lon="-3.29889">
        <ele>367</ele>
        <time>2023-07-12T23:04:50.000+02:00</time>
      </trkpt>
      <trkpt lat="43.37354" lon="-3.2991">
        <ele>365.5</ele>
        <time>2023-07-12T23:04:53.000+02:00</time>
      </trkpt>
      <trkpt lat="43.37345" lon="-3.29931">
        <ele>362</ele>
        <time>2023-07-12T23:04:55.000+02:00</time>
      </trkpt>
      <trkpt lat="43.37339" lon="-3.29941">
        <ele>359.5</ele>
        <time>2023-07-12T23:04:57.000+02:00</time>
      </trkpt>
      <trkpt lat="43.3733" lon="-3.29947">
        <ele>357.8</ele>
        <time>2023-07-12T23:04:58.000+02:00</time>
      </trkpt>
      <trkpt lat="43.3732" lon="-3.29947">
        <ele>358.3</ele>
        <time>2023-07-12T23:05:00.000+02:00</time>
      </trkpt>
      <trkpt lat="43.37304" lon="-3.29939">
        <ele>359.5</ele>
        <time>2023-07-12T23:05:03.000+02:00</time>
      </trkpt>
      <trkpt lat="43.37278" lon="-3.29922">
        <ele>361.8</ele>
        <time>2023-07-12T23:05:07.000+02:00</time>
      </trkpt>
      <trkpt lat="43.37263" lon="-3.29914">
        <ele>362.3</ele>
        <time>2023-07-12T23:05:09.000+02:00</time>
      </trkpt>
      <trkpt lat="43.3725" lon="-3.29901">
        <ele>361</ele>
        <time>2023-07-12T23:05:12.000+02:00</time>
      </trkpt>
      <trkpt lat="43.37216" lon="-3.29856">
        <ele>364.8</ele>
        <time>2023-07-12T23:05:19.000+02:00</time>
      </trkpt>
      <trkpt lat="43.37178" lon="-3.29809">
        <ele>365.5</ele>
        <time>2023-07-12T23:05:27.000+02:00</time>
      </trkpt>
      <trkpt lat="43.37152" lon="-3.2978">
        <ele>359.5</ele>
        <time>2023-07-12T23:05:32.000+02:00</time>
      </trkpt>
      <trkpt lat="43.3713" lon="-3.29768">
        <ele>357.3</ele>
        <time>2023-07-12T23:05:36.000+02:00</time>
      </trkpt>
      <trkpt lat="43.3712" lon="-3.29769">
        <ele>358.5</ele>
        <time>2023-07-12T23:05:37.000+02:00</time>
      </trkpt>
      <trkpt lat="43.37111" lon="-3.29777">
        <ele>361.8</ele>
        <time>2023-07-12T23:05:39.000+02:00</time>
      </trkpt>
      <trkpt lat="43.37101" lon="-3.29788">
        <ele>366</ele>
        <time>2023-07-12T23:05:41.000+02:00</time>
      </trkpt>
      <trkpt lat="43.3709" lon="-3.29793">
        <ele>368.5</ele>
        <time>2023-07-12T23:05:43.000+02:00</time>
      </trkpt>
      <trkpt lat="43.37076" lon="-3.2979">
        <ele>366.3</ele>
        <time>2023-07-12T23:05:45.000+02:00</time>
      </trkpt>
      <trkpt lat="43.37014" lon="-3.29786">
        <ele>350.3</ele>
        <time>2023-07-12T23:05:54.000+02:00</time>
      </trkpt>
      <trkpt lat="43.37002" lon="-3.2979">
        <ele>348.3</ele>
        <time>2023-07-12T23:05:56.000+02:00</time>
      </trkpt>
      <trkpt lat="43.36991" lon="-3.29799">
        <ele>347.8</ele>
        <time>2023-07-12T23:05:58.000+02:00</time>
      </trkpt>
      <trkpt lat="43.36972" lon="-3.29822">
        <ele>347.3</ele>
        <time>2023-07-12T23:06:02.000+02:00</time>
      </trkpt>
      <trkpt lat="43.36963" lon="-3.29828">
        <ele>345.5</ele>
        <time>2023-07-12T23:06:03.000+02:00</time>
      </trkpt>
      <trkpt lat="43.36946" lon="-3.29832">
        <ele>340.5</ele>
        <time>2023-07-12T23:06:06.000+02:00</time>
      </trkpt>
      <trkpt lat="43.36933" lon="-3.29846">
        <ele>337.8</ele>
        <time>2023-07-12T23:06:09.000+02:00</time>
      </trkpt>
      <trkpt lat="43.36873" lon="-3.29972">
        <ele>329.3</ele>
        <time>2023-07-12T23:06:25.000+02:00</time>
      </trkpt>
      <trkpt lat="43.36838" lon="-3.30052">
        <ele>319.3</ele>
        <time>2023-07-12T23:06:36.000+02:00</time>
      </trkpt>
      <trkpt lat="43.36823" lon="-3.30074">
        <ele>316.8</ele>
        <time>2023-07-12T23:06:39.000+02:00</time>
      </trkpt>
      <trkpt lat="43.36798" lon="-3.30102">
        <ele>313.5</ele>
        <time>2023-07-12T23:06:44.000+02:00</time>
      </trkpt>
      <trkpt lat="43.36787" lon="-3.30106">
        <ele>312</ele>
        <time>2023-07-12T23:06:46.000+02:00</time>
      </trkpt>
      <trkpt lat="43.36778" lon="-3.30099">
        <ele>311</ele>
        <time>2023-07-12T23:06:47.000+02:00</time>
      </trkpt>
      <trkpt lat="43.36763" lon="-3.30071">
        <ele>309.8</ele>
        <time>2023-07-12T23:06:51.000+02:00</time>
      </trkpt>
      <trkpt lat="43.36722" lon="-3.29984">
        <ele>307</ele>
        <time>2023-07-12T23:07:03.000+02:00</time>
      </trkpt>
      <trkpt lat="43.36691" lon="-3.29932">
        <ele>307.3</ele>
        <time>2023-07-12T23:07:10.000+02:00</time>
      </trkpt>
      <trkpt lat="43.36671" lon="-3.29882">
        <ele>309.8</ele>
        <time>2023-07-12T23:07:16.000+02:00</time>
      </trkpt>
      <trkpt lat="43.3664" lon="-3.2982">
        <ele>313</ele>
        <time>2023-07-12T23:07:25.000+02:00</time>
      </trkpt>
      <trkpt lat="43.36618" lon="-3.29731">
        <ele>318.5</ele>
        <time>2023-07-12T23:07:35.000+02:00</time>
      </trkpt>
      <trkpt lat="43.36602" lon="-3.29672">
        <ele>322.3</ele>
        <time>2023-07-12T23:07:42.000+02:00</time>
      </trkpt>
      <trkpt lat="43.36584" lon="-3.29621">
        <ele>326</ele>
        <time>2023-07-12T23:07:49.000+02:00</time>
      </trkpt>
      <trkpt lat="43.36565" lon="-3.29571">
        <ele>324.3</ele>
        <time>2023-07-12T23:07:55.000+02:00</time>
      </trkpt>
      <trkpt lat="43.36555" lon="-3.29548">
        <ele>323.5</ele>
        <time>2023-07-12T23:07:58.000+02:00</time>
      </trkpt>
      <trkpt lat="43.36536" lon="-3.29529">
        <ele>324.5</ele>
        <time>2023-07-12T23:08:01.000+02:00</time>
      </trkpt>
      <trkpt lat="43.36507" lon="-3.29477">
        <ele>325.5</ele>
        <time>2023-07-12T23:08:09.000+02:00</time>
      </trkpt>
      <trkpt lat="43.3647" lon="-3.29429">
        <ele>321.8</ele>
        <time>2023-07-12T23:08:16.000+02:00</time>
      </trkpt>
      <trkpt lat="43.3646" lon="-3.2942">
        <ele>321.8</ele>
        <time>2023-07-12T23:08:18.000+02:00</time>
      </trkpt>
      <trkpt lat="43.36417" lon="-3.29395">
        <ele>325</ele>
        <time>2023-07-12T23:08:25.000+02:00</time>
      </trkpt>
      <trkpt lat="43.36392" lon="-3.29373">
        <ele>324.8</ele>
        <time>2023-07-12T23:08:30.000+02:00</time>
      </trkpt>
      <trkpt lat="43.36368" lon="-3.29349">
        <ele>326.5</ele>
        <time>2023-07-12T23:08:34.000+02:00</time>
      </trkpt>
      <trkpt lat="43.36342" lon="-3.29313">
        <ele>332.5</ele>
        <time>2023-07-12T23:08:40.000+02:00</time>
      </trkpt>
      <trkpt lat="43.3631" lon="-3.29273">
        <ele>339.3</ele>
        <time>2023-07-12T23:08:47.000+02:00</time>
      </trkpt>
      <trkpt lat="43.3629" lon="-3.29237">
        <ele>344.5</ele>
        <time>2023-07-12T23:08:52.000+02:00</time>
      </trkpt>
      <trkpt lat="43.36283" lon="-3.29229">
        <ele>345.5</ele>
        <time>2023-07-12T23:08:53.000+02:00</time>
      </trkpt>
      <trkpt lat="43.36275" lon="-3.29224">
        <ele>346.5</ele>
        <time>2023-07-12T23:08:54.000+02:00</time>
      </trkpt>
      <trkpt lat="43.36262" lon="-3.29217">
        <ele>347.8</ele>
        <time>2023-07-12T23:08:57.000+02:00</time>
      </trkpt>
      <trkpt lat="43.36242" lon="-3.29217">
        <ele>348.3</ele>
        <time>2023-07-12T23:09:00.000+02:00</time>
      </trkpt>
      <trkpt lat="43.36216" lon="-3.2922">
        <ele>348.8</ele>
        <time>2023-07-12T23:09:04.000+02:00</time>
      </trkpt>
      <trkpt lat="43.36194" lon="-3.2922">
        <ele>349.3</ele>
        <time>2023-07-12T23:09:07.000+02:00</time>
      </trkpt>
      <trkpt lat="43.36179" lon="-3.29216">
        <ele>350.5</ele>
        <time>2023-07-12T23:09:09.000+02:00</time>
      </trkpt>
      <trkpt lat="43.36162" lon="-3.29208">
        <ele>352.5</ele>
        <time>2023-07-12T23:09:12.000+02:00</time>
      </trkpt>
      <trkpt lat="43.36139" lon="-3.29194">
        <ele>355</ele>
        <time>2023-07-12T23:09:16.000+02:00</time>
      </trkpt>
      <trkpt lat="43.36127" lon="-3.29185">
        <ele>356.5</ele>
        <time>2023-07-12T23:09:18.000+02:00</time>
      </trkpt>
      <trkpt lat="43.36114" lon="-3.29178">
        <ele>357.5</ele>
        <time>2023-07-12T23:09:20.000+02:00</time>
      </trkpt>
      <trkpt lat="43.36101" lon="-3.29177">
        <ele>357.5</ele>
        <time>2023-07-12T23:09:22.000+02:00</time>
      </trkpt>
      <trkpt lat="43.36089" lon="-3.29186">
        <ele>356</ele>
        <time>2023-07-12T23:09:24.000+02:00</time>
      </trkpt>
      <trkpt lat="43.36057" lon="-3.29222">
        <ele>353.3</ele>
        <time>2023-07-12T23:09:31.000+02:00</time>
      </trkpt>
      <trkpt lat="43.36048" lon="-3.29238">
        <ele>352</ele>
        <time>2023-07-12T23:09:33.000+02:00</time>
      </trkpt>
      <trkpt lat="43.36026" lon="-3.29279">
        <ele>350.3</ele>
        <time>2023-07-12T23:09:38.000+02:00</time>
      </trkpt>
      <trkpt lat="43.36008" lon="-3.29306">
        <ele>350</ele>
        <time>2023-07-12T23:09:42.000+02:00</time>
      </trkpt>
      <trkpt lat="43.36" lon="-3.29315">
        <ele>350.3</ele>
        <time>2023-07-12T23:09:44.000+02:00</time>
      </trkpt>
      <trkpt lat="43.35989" lon="-3.29326">
        <ele>348</ele>
        <time>2023-07-12T23:09:46.000+02:00</time>
      </trkpt>
      <trkpt lat="43.35981" lon="-3.29325">
        <ele>347</ele>
        <time>2023-07-12T23:09:47.000+02:00</time>
      </trkpt>
      <trkpt lat="43.35974" lon="-3.29321">
        <ele>346.5</ele>
        <time>2023-07-12T23:09:49.000+02:00</time>
      </trkpt>
      <trkpt lat="43.35967" lon="-3.29313">
        <ele>346.3</ele>
        <time>2023-07-12T23:09:50.000+02:00</time>
      </trkpt>
      <trkpt lat="43.35974" lon="-3.29321">
        <ele>346.5</ele>
        <time>2023-07-12T23:09:51.000+02:00</time>
      </trkpt>
      <trkpt lat="43.35981" lon="-3.29325">
        <ele>347</ele>
        <time>2023-07-12T23:09:52.000+02:00</time>
      </trkpt>
      <trkpt lat="43.35989" lon="-3.29326">
        <ele>348</ele>
        <time>2023-07-12T23:09:54.000+02:00</time>
      </trkpt>
      <trkpt lat="43.36" lon="-3.29315">
        <ele>350.3</ele>
        <time>2023-07-12T23:09:56.000+02:00</time>
      </trkpt>
      <trkpt lat="43.36008" lon="-3.29306">
        <ele>350</ele>
        <time>2023-07-12T23:09:57.000+02:00</time>
      </trkpt>
      <trkpt lat="43.36026" lon="-3.29279">
        <ele>350.3</ele>
        <time>2023-07-12T23:10:01.000+02:00</time>
      </trkpt>
      <trkpt lat="43.36048" lon="-3.29238">
        <ele>352</ele>
        <time>2023-07-12T23:10:07.000+02:00</time>
      </trkpt>
      <trkpt lat="43.36057" lon="-3.29222">
        <ele>353.3</ele>
        <time>2023-07-12T23:10:09.000+02:00</time>
      </trkpt>
      <trkpt lat="43.36089" lon="-3.29186">
        <ele>356</ele>
        <time>2023-07-12T23:10:16.000+02:00</time>
      </trkpt>
      <trkpt lat="43.36101" lon="-3.29177">
        <ele>357.5</ele>
        <time>2023-07-12T23:10:18.000+02:00</time>
      </trkpt>
      <trkpt lat="43.36114" lon="-3.29178">
        <ele>357.5</ele>
        <time>2023-07-12T23:10:20.000+02:00</time>
      </trkpt>
      <trkpt lat="43.36127" lon="-3.29185">
        <ele>356.5</ele>
        <time>2023-07-12T23:10:22.000+02:00</time>
      </trkpt>
      <trkpt lat="43.36139" lon="-3.29194">
        <ele>355</ele>
        <time>2023-07-12T23:10:24.000+02:00</time>
      </trkpt>
      <trkpt lat="43.36162" lon="-3.29208">
        <ele>352.5</ele>
        <time>2023-07-12T23:10:28.000+02:00</time>
      </trkpt>
      <trkpt lat="43.36179" lon="-3.29216">
        <ele>350.5</ele>
        <time>2023-07-12T23:10:31.000+02:00</time>
      </trkpt>
      <trkpt lat="43.36194" lon="-3.2922">
        <ele>349.3</ele>
        <time>2023-07-12T23:10:33.000+02:00</time>
      </trkpt>
      <trkpt lat="43.36216" lon="-3.2922">
        <ele>348.8</ele>
        <time>2023-07-12T23:10:36.000+02:00</time>
      </trkpt>
      <trkpt lat="43.36242" lon="-3.29217">
        <ele>348.3</ele>
        <time>2023-07-12T23:10:40.000+02:00</time>
      </trkpt>
      <trkpt lat="43.36262" lon="-3.29217">
        <ele>347.8</ele>
        <time>2023-07-12T23:10:43.000+02:00</time>
      </trkpt>
      <trkpt lat="43.36275" lon="-3.29224">
        <ele>346.5</ele>
        <time>2023-07-12T23:10:45.000+02:00</time>
      </trkpt>
      <trkpt lat="43.36283" lon="-3.29229">
        <ele>345.5</ele>
        <time>2023-07-12T23:10:47.000+02:00</time>
      </trkpt>
      <trkpt lat="43.3629" lon="-3.29237">
        <ele>344.5</ele>
        <time>2023-07-12T23:10:48.000+02:00</time>
      </trkpt>
      <trkpt lat="43.3631" lon="-3.29273">
        <ele>339.3</ele>
        <time>2023-07-12T23:10:53.000+02:00</time>
      </trkpt>
      <trkpt lat="43.36342" lon="-3.29313">
        <ele>332.5</ele>
        <time>2023-07-12T23:11:00.000+02:00</time>
      </trkpt>
      <trkpt lat="43.36368" lon="-3.29349">
        <ele>326.5</ele>
        <time>2023-07-12T23:11:05.000+02:00</time>
      </trkpt>
      <trkpt lat="43.36392" lon="-3.29373">
        <ele>324.8</ele>
        <time>2023-07-12T23:11:10.000+02:00</time>
      </trkpt>
      <trkpt lat="43.36417" lon="-3.29395">
        <ele>325</ele>
        <time>2023-07-12T23:11:15.000+02:00</time>
      </trkpt>
      <trkpt lat="43.3646" lon="-3.2942">
        <ele>321.8</ele>
        <time>2023-07-12T23:11:22.000+02:00</time>
      </trkpt>
      <trkpt lat="43.3647" lon="-3.29429">
        <ele>321.8</ele>
        <time>2023-07-12T23:11:23.000+02:00</time>
      </trkpt>
      <trkpt lat="43.36507" lon="-3.29477">
        <ele>325.5</ele>
        <time>2023-07-12T23:11:31.000+02:00</time>
      </trkpt>
      <trkpt lat="43.36536" lon="-3.29529">
        <ele>324.5</ele>
        <time>2023-07-12T23:11:39.000+02:00</time>
      </trkpt>
      <trkpt lat="43.36555" lon="-3.29548">
        <ele>323.5</ele>
        <time>2023-07-12T23:11:42.000+02:00</time>
      </trkpt>
      <trkpt lat="43.36565" lon="-3.29571">
        <ele>324.3</ele>
        <time>2023-07-12T23:11:45.000+02:00</time>
      </trkpt>
      <trkpt lat="43.36584" lon="-3.29621">
        <ele>326</ele>
        <time>2023-07-12T23:11:51.000+02:00</time>
      </trkpt>
      <trkpt lat="43.36602" lon="-3.29672">
        <ele>322.3</ele>
        <time>2023-07-12T23:11:58.000+02:00</time>
      </trkpt>
      <trkpt lat="43.36618" lon="-3.29731">
        <ele>318.5</ele>
        <time>2023-07-12T23:12:05.000+02:00</time>
      </trkpt>
      <trkpt lat="43.3664" lon="-3.2982">
        <ele>313</ele>
        <time>2023-07-12T23:12:15.000+02:00</time>
      </trkpt>
      <trkpt lat="43.36671" lon="-3.29882">
        <ele>309.8</ele>
        <time>2023-07-12T23:12:23.000+02:00</time>
      </trkpt>
      <trkpt lat="43.36691" lon="-3.29932">
        <ele>307.3</ele>
        <time>2023-07-12T23:12:30.000+02:00</time>
      </trkpt>
      <trkpt lat="43.36722" lon="-3.29984">
        <ele>307</ele>
        <time>2023-07-12T23:12:37.000+02:00</time>
      </trkpt>
      <trkpt lat="43.36691" lon="-3.29932">
        <ele>307.3</ele>
        <time>2023-07-12T23:12:45.000+02:00</time>
      </trkpt>
      <trkpt lat="43.36671" lon="-3.29882">
        <ele>309.8</ele>
        <time>2023-07-12T23:12:51.000+02:00</time>
      </trkpt>
      <trkpt lat="43.3664" lon="-3.2982">
        <ele>313</ele>
        <time>2023-07-12T23:12:59.000+02:00</time>
      </trkpt>
      <trkpt lat="43.36618" lon="-3.29731">
        <ele>318.5</ele>
        <time>2023-07-12T23:13:10.000+02:00</time>
      </trkpt>
      <trkpt lat="43.36602" lon="-3.29672">
        <ele>322.3</ele>
        <time>2023-07-12T23:13:17.000+02:00</time>
      </trkpt>
      <trkpt lat="43.36584" lon="-3.29621">
        <ele>326</ele>
        <time>2023-07-12T23:13:23.000+02:00</time>
      </trkpt>
      <trkpt lat="43.36565" lon="-3.29571">
        <ele>324.3</ele>
        <time>2023-07-12T23:13:29.000+02:00</time>
      </trkpt>
      <trkpt lat="43.36555" lon="-3.29548">
        <ele>323.5</ele>
        <time>2023-07-12T23:13:32.000+02:00</time>
      </trkpt>
      <trkpt lat="43.36536" lon="-3.29529">
        <ele>324.5</ele>
        <time>2023-07-12T23:13:36.000+02:00</time>
      </trkpt>
      <trkpt lat="43.36507" lon="-3.29477">
        <ele>325.5</ele>
        <time>2023-07-12T23:13:43.000+02:00</time>
      </trkpt>
      <trkpt lat="43.3647" lon="-3.29429">
        <ele>321.8</ele>
        <time>2023-07-12T23:13:51.000+02:00</time>
      </trkpt>
      <trkpt lat="43.3646" lon="-3.2942">
        <ele>321.8</ele>
        <time>2023-07-12T23:13:53.000+02:00</time>
      </trkpt>
      <trkpt lat="43.36417" lon="-3.29395">
        <ele>325</ele>
        <time>2023-07-12T23:14:00.000+02:00</time>
      </trkpt>
      <trkpt lat="43.36392" lon="-3.29373">
        <ele>324.8</ele>
        <time>2023-07-12T23:14:05.000+02:00</time>
      </trkpt>
      <trkpt lat="43.36368" lon="-3.29349">
        <ele>326.5</ele>
        <time>2023-07-12T23:14:09.000+02:00</time>
      </trkpt>
      <trkpt lat="43.36342" lon="-3.29313">
        <ele>332.5</ele>
        <time>2023-07-12T23:14:15.000+02:00</time>
      </trkpt>
      <trkpt lat="43.3631" lon="-3.29273">
        <ele>339.3</ele>
        <time>2023-07-12T23:14:21.000+02:00</time>
      </trkpt>
      <trkpt lat="43.3629" lon="-3.29237">
        <ele>344.5</ele>
        <time>2023-07-12T23:14:26.000+02:00</time>
      </trkpt>
      <trkpt lat="43.36283" lon="-3.29229">
        <ele>345.5</ele>
        <time>2023-07-12T23:14:28.000+02:00</time>
      </trkpt>
      <trkpt lat="43.36275" lon="-3.29224">
        <ele>346.5</ele>
        <time>2023-07-12T23:14:29.000+02:00</time>
      </trkpt>
      <trkpt lat="43.36262" lon="-3.29217">
        <ele>347.8</ele>
        <time>2023-07-12T23:14:31.000+02:00</time>
      </trkpt>
      <trkpt lat="43.36242" lon="-3.29217">
        <ele>348.3</ele>
        <time>2023-07-12T23:14:34.000+02:00</time>
      </trkpt>
      <trkpt lat="43.36216" lon="-3.2922">
        <ele>348.8</ele>
        <time>2023-07-12T23:14:38.000+02:00</time>
      </trkpt>
      <trkpt lat="43.36194" lon="-3.2922">
        <ele>349.3</ele>
        <time>2023-07-12T23:14:42.000+02:00</time>
      </trkpt>
      <trkpt lat="43.36179" lon="-3.29216">
        <ele>350.5</ele>
        <time>2023-07-12T23:14:44.000+02:00</time>
      </trkpt>
      <trkpt lat="43.36162" lon="-3.29208">
        <ele>352.5</ele>
        <time>2023-07-12T23:14:47.000+02:00</time>
      </trkpt>
      <trkpt lat="43.36139" lon="-3.29194">
        <ele>355</ele>
        <time>2023-07-12T23:14:51.000+02:00</time>
      </trkpt>
      <trkpt lat="43.36127" lon="-3.29185">
        <ele>356.5</ele>
        <time>2023-07-12T23:14:53.000+02:00</time>
      </trkpt>
      <trkpt lat="43.36114" lon="-3.29178">
        <ele>357.5</ele>
        <time>2023-07-12T23:14:55.000+02:00</time>
      </trkpt>
      <trkpt lat="43.36101" lon="-3.29177">
        <ele>357.5</ele>
        <time>2023-07-12T23:14:57.000+02:00</time>
      </trkpt>
      <trkpt lat="43.36089" lon="-3.29186">
        <ele>356</ele>
        <time>2023-07-12T23:14:59.000+02:00</time>
      </trkpt>
      <trkpt lat="43.36057" lon="-3.29222">
        <ele>353.3</ele>
        <time>2023-07-12T23:15:05.000+02:00</time>
      </trkpt>
      <trkpt lat="43.36048" lon="-3.29238">
        <ele>352</ele>
        <time>2023-07-12T23:15:07.000+02:00</time>
      </trkpt>
      <trkpt lat="43.36026" lon="-3.29279">
        <ele>350.3</ele>
        <time>2023-07-12T23:15:13.000+02:00</time>
      </trkpt>
      <trkpt lat="43.36008" lon="-3.29306">
        <ele>350</ele>
        <time>2023-07-12T23:15:17.000+02:00</time>
      </trkpt>
      <trkpt lat="43.36" lon="-3.29315">
        <ele>350.3</ele>
        <time>2023-07-12T23:15:19.000+02:00</time>
      </trkpt>
      <trkpt lat="43.35989" lon="-3.29326">
        <ele>348</ele>
        <time>2023-07-12T23:15:21.000+02:00</time>
      </trkpt>
      <trkpt lat="43.35981" lon="-3.29325">
        <ele>347</ele>
        <time>2023-07-12T23:15:22.000+02:00</time>
      </trkpt>
      <trkpt lat="43.35974" lon="-3.29321">
        <ele>346.5</ele>
        <time>2023-07-12T23:15:23.000+02:00</time>
      </trkpt>
      <trkpt lat="43.35967" lon="-3.29313">
        <ele>346.3</ele>
        <time>2023-07-12T23:15:25.000+02:00</time>
      </trkpt>
      <trkpt lat="43.3596" lon="-3.29297">
        <ele>346.8</ele>
        <time>2023-07-12T23:15:27.000+02:00</time>
      </trkpt>
      <trkpt lat="43.35949" lon="-3.29259">
        <ele>349.3</ele>
        <time>2023-07-12T23:15:31.000+02:00</time>
      </trkpt>
      <trkpt lat="43.35934" lon="-3.29194">
        <ele>352</ele>
        <time>2023-07-12T23:15:39.000+02:00</time>
      </trkpt>
      <trkpt lat="43.3593" lon="-3.29173">
        <ele>352.8</ele>
        <time>2023-07-12T23:15:41.000+02:00</time>
      </trkpt>
      <trkpt lat="43.35906" lon="-3.29102">
        <ele>351</ele>
        <time>2023-07-12T23:15:50.000+02:00</time>
      </trkpt>
      <trkpt lat="43.35898" lon="-3.29066">
        <ele>351</ele>
        <time>2023-07-12T23:15:54.000+02:00</time>
      </trkpt>
      <trkpt lat="43.35878" lon="-3.29014">
        <ele>350.8</ele>
        <time>2023-07-12T23:16:01.000+02:00</time>
      </trkpt>
      <trkpt lat="43.35826" lon="-3.28889">
        <ele>345</ele>
        <time>2023-07-12T23:16:17.000+02:00</time>
      </trkpt>
      <trkpt lat="43.35825" lon="-3.28866">
        <ele>346.3</ele>
        <time>2023-07-12T23:16:19.000+02:00</time>
      </trkpt>
      <trkpt lat="43.35822" lon="-3.28844">
        <ele>347</ele>
        <time>2023-07-12T23:16:22.000+02:00</time>
      </trkpt>
      <trkpt lat="43.35811" lon="-3.28801">
        <ele>347</ele>
        <time>2023-07-12T23:16:27.000+02:00</time>
      </trkpt>
      <trkpt lat="43.35805" lon="-3.28771">
        <ele>348.3</ele>
        <time>2023-07-12T23:16:30.000+02:00</time>
      </trkpt>
      <trkpt lat="43.35803" lon="-3.2874">
        <ele>352</ele>
        <time>2023-07-12T23:16:34.000+02:00</time>
      </trkpt>
      <trkpt lat="43.35803" lon="-3.28727">
        <ele>354.8</ele>
        <time>2023-07-12T23:16:35.000+02:00</time>
      </trkpt>
      <trkpt lat="43.35804" lon="-3.28716">
        <ele>357.8</ele>
        <time>2023-07-12T23:16:36.000+02:00</time>
      </trkpt>
      <trkpt lat="43.35802" lon="-3.28704">
        <ele>359.8</ele>
        <time>2023-07-12T23:16:38.000+02:00</time>
      </trkpt>
      <trkpt lat="43.35799" lon="-3.28688">
        <ele>362</ele>
        <time>2023-07-12T23:16:39.000+02:00</time>
      </trkpt>
      <trkpt lat="43.35793" lon="-3.28674">
        <ele>363.3</ele>
        <time>2023-07-12T23:16:41.000+02:00</time>
      </trkpt>
      <trkpt lat="43.35789" lon="-3.28666">
        <ele>363.5</ele>
        <time>2023-07-12T23:16:42.000+02:00</time>
      </trkpt>
      <trkpt lat="43.35779" lon="-3.28654">
        <ele>363.3</ele>
        <time>2023-07-12T23:16:44.000+02:00</time>
      </trkpt>
      <trkpt lat="43.35749" lon="-3.28614">
        <ele>365.5</ele>
        <time>2023-07-12T23:16:51.000+02:00</time>
      </trkpt>
      <trkpt lat="43.35719" lon="-3.28564">
        <ele>365.8</ele>
        <time>2023-07-12T23:16:58.000+02:00</time>
      </trkpt>
      <trkpt lat="43.35703" lon="-3.28504">
        <ele>368.3</ele>
        <time>2023-07-12T23:17:05.000+02:00</time>
      </trkpt>
      <trkpt lat="43.35697" lon="-3.2848">
        <ele>369.5</ele>
        <time>2023-07-12T23:17:08.000+02:00</time>
      </trkpt>
      <trkpt lat="43.35695" lon="-3.28464">
        <ele>371</ele>
        <time>2023-07-12T23:17:10.000+02:00</time>
      </trkpt>
      <trkpt lat="43.35691" lon="-3.28423">
        <ele>375.5</ele>
        <time>2023-07-12T23:17:14.000+02:00</time>
      </trkpt>
      <trkpt lat="43.3569" lon="-3.28412">
        <ele>376.5</ele>
        <time>2023-07-12T23:17:15.000+02:00</time>
      </trkpt>
      <trkpt lat="43.35691" lon="-3.28405">
        <ele>376.8</ele>
        <time>2023-07-12T23:17:16.000+02:00</time>
      </trkpt>
      <trkpt lat="43.35686" lon="-3.28402">
        <ele>377</ele>
        <time>2023-07-12T23:17:17.000+02:00</time>
      </trkpt>
      <trkpt lat="43.35673" lon="-3.2839">
        <ele>377.8</ele>
        <time>2023-07-12T23:17:19.000+02:00</time>
      </trkpt>
      <trkpt lat="43.35625" lon="-3.28343">
        <ele>374</ele>
        <time>2023-07-12T23:17:28.000+02:00</time>
      </trkpt>
      <trkpt lat="43.35606" lon="-3.28322">
        <ele>371.8</ele>
        <time>2023-07-12T23:17:32.000+02:00</time>
      </trkpt>
      <trkpt lat="43.35598" lon="-3.28311">
        <ele>370.5</ele>
        <time>2023-07-12T23:17:34.000+02:00</time>
      </trkpt>
      <trkpt lat="43.35593" lon="-3.28301">
        <ele>370</ele>
        <time>2023-07-12T23:17:35.000+02:00</time>
      </trkpt>
      <trkpt lat="43.35586" lon="-3.28279">
        <ele>369.5</ele>
        <time>2023-07-12T23:17:38.000+02:00</time>
      </trkpt>
      <trkpt lat="43.35578" lon="-3.28256">
        <ele>368.5</ele>
        <time>2023-07-12T23:17:41.000+02:00</time>
      </trkpt>
      <trkpt lat="43.35573" lon="-3.28239">
        <ele>369</ele>
        <time>2023-07-12T23:17:43.000+02:00</time>
      </trkpt>
      <trkpt lat="43.35566" lon="-3.28224">
        <ele>369.5</ele>
        <time>2023-07-12T23:17:45.000+02:00</time>
      </trkpt>
      <trkpt lat="43.35557" lon="-3.28214">
        <ele>369.3</ele>
        <time>2023-07-12T23:17:47.000+02:00</time>
      </trkpt>
      <trkpt lat="43.35548" lon="-3.28209">
        <ele>368.5</ele>
        <time>2023-07-12T23:17:48.000+02:00</time>
      </trkpt>
      <trkpt lat="43.35534" lon="-3.28204">
        <ele>367</ele>
        <time>2023-07-12T23:17:50.000+02:00</time>
      </trkpt>
      <trkpt lat="43.35522" lon="-3.28203">
        <ele>365.3</ele>
        <time>2023-07-12T23:17:52.000+02:00</time>
      </trkpt>
      <trkpt lat="43.35508" lon="-3.28203">
        <ele>363.3</ele>
        <time>2023-07-12T23:17:54.000+02:00</time>
      </trkpt>
      <trkpt lat="43.35494" lon="-3.28204">
        <ele>360.5</ele>
        <time>2023-07-12T23:17:56.000+02:00</time>
      </trkpt>
      <trkpt lat="43.35461" lon="-3.28209">
        <ele>353</ele>
        <time>2023-07-12T23:18:01.000+02:00</time>
      </trkpt>
      <trkpt lat="43.35447" lon="-3.28208">
        <ele>350.5</ele>
        <time>2023-07-12T23:18:04.000+02:00</time>
      </trkpt>
      <trkpt lat="43.35438" lon="-3.28206">
        <ele>349.3</ele>
        <time>2023-07-12T23:18:05.000+02:00</time>
      </trkpt>
      <trkpt lat="43.3543" lon="-3.282">
        <ele>348.8</ele>
        <time>2023-07-12T23:18:06.000+02:00</time>
      </trkpt>
      <trkpt lat="43.35407" lon="-3.28182">
        <ele>349.3</ele>
        <time>2023-07-12T23:18:10.000+02:00</time>
      </trkpt>
      <trkpt lat="43.35401" lon="-3.28176">
        <ele>350</ele>
        <time>2023-07-12T23:18:12.000+02:00</time>
      </trkpt>
      <trkpt lat="43.35394" lon="-3.28172">
        <ele>350.3</ele>
        <time>2023-07-12T23:18:13.000+02:00</time>
      </trkpt>
      <trkpt lat="43.35386" lon="-3.28169">
        <ele>350</ele>
        <time>2023-07-12T23:18:14.000+02:00</time>
      </trkpt>
      <trkpt lat="43.35375" lon="-3.28169">
        <ele>348.8</ele>
        <time>2023-07-12T23:18:16.000+02:00</time>
      </trkpt>
      <trkpt lat="43.35316" lon="-3.2817">
        <ele>344</ele>
        <time>2023-07-12T23:18:25.000+02:00</time>
      </trkpt>
      <trkpt lat="43.35291" lon="-3.28172">
        <ele>343.3</ele>
        <time>2023-07-12T23:18:29.000+02:00</time>
      </trkpt>
      <trkpt lat="43.35255" lon="-3.28188">
        <ele>338.5</ele>
        <time>2023-07-12T23:18:34.000+02:00</time>
      </trkpt>
      <trkpt lat="43.35243" lon="-3.28191">
        <ele>337.5</ele>
        <time>2023-07-12T23:18:36.000+02:00</time>
      </trkpt>
      <trkpt lat="43.35217" lon="-3.28196">
        <ele>336.3</ele>
        <time>2023-07-12T23:18:40.000+02:00</time>
      </trkpt>
      <trkpt lat="43.35204" lon="-3.282">
        <ele>335.5</ele>
        <time>2023-07-12T23:18:42.000+02:00</time>
      </trkpt>
      <trkpt lat="43.35192" lon="-3.28208">
        <ele>334</ele>
        <time>2023-07-12T23:18:44.000+02:00</time>
      </trkpt>
      <trkpt lat="43.35183" lon="-3.28213">
        <ele>333</ele>
        <time>2023-07-12T23:18:46.000+02:00</time>
      </trkpt>
      <trkpt lat="43.35174" lon="-3.28213">
        <ele>333.3</ele>
        <time>2023-07-12T23:18:47.000+02:00</time>
      </trkpt>
      <trkpt lat="43.35165" lon="-3.28212">
        <ele>333.5</ele>
        <time>2023-07-12T23:18:49.000+02:00</time>
      </trkpt>
      <trkpt lat="43.35153" lon="-3.28211">
        <ele>332.8</ele>
        <time>2023-07-12T23:18:50.000+02:00</time>
      </trkpt>
      <trkpt lat="43.35139" lon="-3.28205">
        <ele>332.3</ele>
        <time>2023-07-12T23:18:53.000+02:00</time>
      </trkpt>
      <trkpt lat="43.3513" lon="-3.282">
        <ele>332.5</ele>
        <time>2023-07-12T23:18:54.000+02:00</time>
      </trkpt>
      <trkpt lat="43.3511" lon="-3.28182">
        <ele>332.8</ele>
        <time>2023-07-12T23:18:58.000+02:00</time>
      </trkpt>
      <trkpt lat="43.35088" lon="-3.28165">
        <ele>332.5</ele>
        <time>2023-07-12T23:19:01.000+02:00</time>
      </trkpt>
      <trkpt lat="43.35081" lon="-3.28161">
        <ele>332.8</ele>
        <time>2023-07-12T23:19:03.000+02:00</time>
      </trkpt>
      <trkpt lat="43.35073" lon="-3.28158">
        <ele>333.5</ele>
        <time>2023-07-12T23:19:04.000+02:00</time>
      </trkpt>
      <trkpt lat="43.35063" lon="-3.28158">
        <ele>333.5</ele>
        <time>2023-07-12T23:19:05.000+02:00</time>
      </trkpt>
      <trkpt lat="43.35051" lon="-3.28164">
        <ele>332.8</ele>
        <time>2023-07-12T23:19:07.000+02:00</time>
      </trkpt>
      <trkpt lat="43.35037" lon="-3.28177">
        <ele>331.3</ele>
        <time>2023-07-12T23:19:10.000+02:00</time>
      </trkpt>
      <trkpt lat="43.3499" lon="-3.28226">
        <ele>327</ele>
        <time>2023-07-12T23:19:19.000+02:00</time>
      </trkpt>
      <trkpt lat="43.34976" lon="-3.28242">
        <ele>326.3</ele>
        <time>2023-07-12T23:19:22.000+02:00</time>
      </trkpt>
      <trkpt lat="43.34967" lon="-3.28258">
        <ele>324.8</ele>
        <time>2023-07-12T23:19:24.000+02:00</time>
      </trkpt>
      <trkpt lat="43.34941" lon="-3.2831">
        <ele>319.3</ele>
        <time>2023-07-12T23:19:31.000+02:00</time>
      </trkpt>
      <trkpt lat="43.34926" lon="-3.28341">
        <ele>316</ele>
        <time>2023-07-12T23:19:35.000+02:00</time>
      </trkpt>
      <trkpt lat="43.3492" lon="-3.28353">
        <ele>314.8</ele>
        <time>2023-07-12T23:19:37.000+02:00</time>
      </trkpt>
      <trkpt lat="43.34913" lon="-3.28361">
        <ele>313.8</ele>
        <time>2023-07-12T23:19:38.000+02:00</time>
      </trkpt>
      <trkpt lat="43.34904" lon="-3.28367">
        <ele>312.8</ele>
        <time>2023-07-12T23:19:40.000+02:00</time>
      </trkpt>
      <trkpt lat="43.34896" lon="-3.28369">
        <ele>312.5</ele>
        <time>2023-07-12T23:19:41.000+02:00</time>
      </trkpt>
      <trkpt lat="43.34888" lon="-3.28367">
        <ele>312.8</ele>
        <time>2023-07-12T23:19:42.000+02:00</time>
      </trkpt>
      <trkpt lat="43.34881" lon="-3.28365">
        <ele>312.8</ele>
        <time>2023-07-12T23:19:43.000+02:00</time>
      </trkpt>
      <trkpt lat="43.3486" lon="-3.28357">
        <ele>313.5</ele>
        <time>2023-07-12T23:19:47.000+02:00</time>
      </trkpt>
      <trkpt lat="43.34852" lon="-3.28356">
        <ele>313.5</ele>
        <time>2023-07-12T23:19:48.000+02:00</time>
      </trkpt>
      <trkpt lat="43.34844" lon="-3.28356">
        <ele>313.3</ele>
        <time>2023-07-12T23:19:49.000+02:00</time>
      </trkpt>
      <trkpt lat="43.34838" lon="-3.28359">
        <ele>312.8</ele>
        <time>2023-07-12T23:19:50.000+02:00</time>
      </trkpt>
      <trkpt lat="43.34823" lon="-3.28371">
        <ele>313</ele>
        <time>2023-07-12T23:19:53.000+02:00</time>
      </trkpt>
      <trkpt lat="43.34781" lon="-3.2841">
        <ele>315.3</ele>
        <time>2023-07-12T23:20:00.000+02:00</time>
      </trkpt>
      <trkpt lat="43.34768" lon="-3.28425">
        <ele>315.5</ele>
        <time>2023-07-12T23:20:03.000+02:00</time>
      </trkpt>
      <trkpt lat="43.34757" lon="-3.28439">
        <ele>315</ele>
        <time>2023-07-12T23:20:05.000+02:00</time>
      </trkpt>
      <trkpt lat="43.34743" lon="-3.28468">
        <ele>314</ele>
        <time>2023-07-12T23:20:09.000+02:00</time>
      </trkpt>
      <trkpt lat="43.34723" lon="-3.28508">
        <ele>310</ele>
        <time>2023-07-12T23:20:14.000+02:00</time>
      </trkpt>
      <trkpt lat="43.34709" lon="-3.28525">
        <ele>306</ele>
        <time>2023-07-12T23:20:17.000+02:00</time>
      </trkpt>
      <trkpt lat="43.34692" lon="-3.28542">
        <ele>302.3</ele>
        <time>2023-07-12T23:20:21.000+02:00</time>
      </trkpt>
      <trkpt lat="43.34681" lon="-3.28553">
        <ele>299.8</ele>
        <time>2023-07-12T23:20:23.000+02:00</time>
      </trkpt>
      <trkpt lat="43.34671" lon="-3.28563">
        <ele>297.5</ele>
        <time>2023-07-12T23:20:25.000+02:00</time>
      </trkpt>
      <trkpt lat="43.34656" lon="-3.28571">
        <ele>295.5</ele>
        <time>2023-07-12T23:20:27.000+02:00</time>
      </trkpt>
      <trkpt lat="43.3464" lon="-3.28581">
        <ele>292.8</ele>
        <time>2023-07-12T23:20:30.000+02:00</time>
      </trkpt>
      <trkpt lat="43.34632" lon="-3.28588">
        <ele>291.3</ele>
        <time>2023-07-12T23:20:31.000+02:00</time>
      </trkpt>
      <trkpt lat="43.34625" lon="-3.28596">
        <ele>289.5</ele>
        <time>2023-07-12T23:20:33.000+02:00</time>
      </trkpt>
      <trkpt lat="43.34621" lon="-3.28612">
        <ele>286.5</ele>
        <time>2023-07-12T23:20:34.000+02:00</time>
      </trkpt>
      <trkpt lat="43.34621" lon="-3.2862">
        <ele>284.5</ele>
        <time>2023-07-12T23:20:35.000+02:00</time>
      </trkpt>
      <trkpt lat="43.34621" lon="-3.28624">
        <ele>283.8</ele>
        <time>2023-07-12T23:20:36.000+02:00</time>
      </trkpt>
      <trkpt lat="43.34627" lon="-3.28638">
        <ele>280.5</ele>
        <time>2023-07-12T23:20:38.000+02:00</time>
      </trkpt>
      <trkpt lat="43.34638" lon="-3.2865">
        <ele>277.3</ele>
        <time>2023-07-12T23:20:40.000+02:00</time>
      </trkpt>
      <trkpt lat="43.34644" lon="-3.28653">
        <ele>276.3</ele>
        <time>2023-07-12T23:20:41.000+02:00</time>
      </trkpt>
      <trkpt lat="43.34653" lon="-3.28653">
        <ele>275.8</ele>
        <time>2023-07-12T23:20:42.000+02:00</time>
      </trkpt>
      <trkpt lat="43.3466" lon="-3.28648">
        <ele>276.5</ele>
        <time>2023-07-12T23:20:43.000+02:00</time>
      </trkpt>
      <trkpt lat="43.34693" lon="-3.28617">
        <ele>281.3</ele>
        <time>2023-07-12T23:20:49.000+02:00</time>
      </trkpt>
      <trkpt lat="43.34704" lon="-3.28611">
        <ele>281.8</ele>
        <time>2023-07-12T23:20:51.000+02:00</time>
      </trkpt>
      <trkpt lat="43.34712" lon="-3.28609">
        <ele>281.5</ele>
        <time>2023-07-12T23:20:52.000+02:00</time>
      </trkpt>
      <trkpt lat="43.3472" lon="-3.28608">
        <ele>281.3</ele>
        <time>2023-07-12T23:20:54.000+02:00</time>
      </trkpt>
      <trkpt lat="43.34731" lon="-3.28611">
        <ele>279.8</ele>
        <time>2023-07-12T23:20:55.000+02:00</time>
      </trkpt>
      <trkpt lat="43.34741" lon="-3.28616">
        <ele>278</ele>
        <time>2023-07-12T23:20:57.000+02:00</time>
      </trkpt>
      <trkpt lat="43.34749" lon="-3.28618">
        <ele>277</ele>
        <time>2023-07-12T23:20:58.000+02:00</time>
      </trkpt>
      <trkpt lat="43.34758" lon="-3.28616">
        <ele>276</ele>
        <time>2023-07-12T23:21:00.000+02:00</time>
      </trkpt>
      <trkpt lat="43.34766" lon="-3.28609">
        <ele>275.8</ele>
        <time>2023-07-12T23:21:01.000+02:00</time>
      </trkpt>
      <trkpt lat="43.34784" lon="-3.28587">
        <ele>276.5</ele>
        <time>2023-07-12T23:21:05.000+02:00</time>
      </trkpt>
      <trkpt lat="43.34815" lon="-3.28545">
        <ele>282.8</ele>
        <time>2023-07-12T23:21:11.000+02:00</time>
      </trkpt>
      <trkpt lat="43.34826" lon="-3.28529">
        <ele>285.5</ele>
        <time>2023-07-12T23:21:14.000+02:00</time>
      </trkpt>
      <trkpt lat="43.34839" lon="-3.28514">
        <ele>287</ele>
        <time>2023-07-12T23:21:16.000+02:00</time>
      </trkpt>
      <trkpt lat="43.34849" lon="-3.28504">
        <ele>288.3</ele>
        <time>2023-07-12T23:21:18.000+02:00</time>
      </trkpt>
      <trkpt lat="43.34862" lon="-3.28498">
        <ele>288</ele>
        <time>2023-07-12T23:21:20.000+02:00</time>
      </trkpt>
      <trkpt lat="43.34904" lon="-3.28494">
        <ele>282.8</ele>
        <time>2023-07-12T23:21:27.000+02:00</time>
      </trkpt>
      <trkpt lat="43.34927" lon="-3.28493">
        <ele>280.3</ele>
        <time>2023-07-12T23:21:30.000+02:00</time>
      </trkpt>
      <trkpt lat="43.34936" lon="-3.28495">
        <ele>278.5</ele>
        <time>2023-07-12T23:21:32.000+02:00</time>
      </trkpt>
      <trkpt lat="43.34946" lon="-3.28501">
        <ele>276.3</ele>
        <time>2023-07-12T23:21:33.000+02:00</time>
      </trkpt>
      <trkpt lat="43.3497" lon="-3.28513">
        <ele>271</ele>
        <time>2023-07-12T23:21:37.000+02:00</time>
      </trkpt>
      <trkpt lat="43.3498" lon="-3.28517">
        <ele>269.5</ele>
        <time>2023-07-12T23:21:39.000+02:00</time>
      </trkpt>
      <trkpt lat="43.34986" lon="-3.28518">
        <ele>269</ele>
        <time>2023-07-12T23:21:40.000+02:00</time>
      </trkpt>
      <trkpt lat="43.34994" lon="-3.28515">
        <ele>269</ele>
        <time>2023-07-12T23:21:41.000+02:00</time>
      </trkpt>
      <trkpt lat="43.35" lon="-3.28511">
        <ele>269.5</ele>
        <time>2023-07-12T23:21:42.000+02:00</time>
      </trkpt>
      <trkpt lat="43.35018" lon="-3.28473">
        <ele>275.5</ele>
        <time>2023-07-12T23:21:47.000+02:00</time>
      </trkpt>
      <trkpt lat="43.35038" lon="-3.28444">
        <ele>280</ele>
        <time>2023-07-12T23:21:52.000+02:00</time>
      </trkpt>
      <trkpt lat="43.35053" lon="-3.28436">
        <ele>280.5</ele>
        <time>2023-07-12T23:21:54.000+02:00</time>
      </trkpt>
      <trkpt lat="43.35062" lon="-3.28437">
        <ele>279</ele>
        <time>2023-07-12T23:21:55.000+02:00</time>
      </trkpt>
      <trkpt lat="43.35076" lon="-3.28442">
        <ele>276.3</ele>
        <time>2023-07-12T23:21:58.000+02:00</time>
      </trkpt>
      <trkpt lat="43.35097" lon="-3.28455">
        <ele>271.5</ele>
        <time>2023-07-12T23:22:01.000+02:00</time>
      </trkpt>
      <trkpt lat="43.35109" lon="-3.28462">
        <ele>269.5</ele>
        <time>2023-07-12T23:22:03.000+02:00</time>
      </trkpt>
      <trkpt lat="43.35123" lon="-3.28467">
        <ele>268</ele>
        <time>2023-07-12T23:22:05.000+02:00</time>
      </trkpt>
      <trkpt lat="43.3514" lon="-3.28474">
        <ele>265.5</ele>
        <time>2023-07-12T23:22:08.000+02:00</time>
      </trkpt>
      <trkpt lat="43.35188" lon="-3.28489">
        <ele>259.3</ele>
        <time>2023-07-12T23:22:16.000+02:00</time>
      </trkpt>
      <trkpt lat="43.35195" lon="-3.28493">
        <ele>257.8</ele>
        <time>2023-07-12T23:22:17.000+02:00</time>
      </trkpt>
      <trkpt lat="43.35201" lon="-3.28501">
        <ele>255</ele>
        <time>2023-07-12T23:22:18.000+02:00</time>
      </trkpt>
      <trkpt lat="43.35205" lon="-3.28513">
        <ele>253.3</ele>
        <time>2023-07-12T23:22:19.000+02:00</time>
      </trkpt>
      <trkpt lat="43.35206" lon="-3.28525">
        <ele>251.5</ele>
        <time>2023-07-12T23:22:21.000+02:00</time>
      </trkpt>
      <trkpt lat="43.35204" lon="-3.28534">
        <ele>250</ele>
        <time>2023-07-12T23:22:22.000+02:00</time>
      </trkpt>
      <trkpt lat="43.35195" lon="-3.28561">
        <ele>244.8</ele>
        <time>2023-07-12T23:22:25.000+02:00</time>
      </trkpt>
      <trkpt lat="43.35193" lon="-3.28575">
        <ele>242</ele>
        <time>2023-07-12T23:22:27.000+02:00</time>
      </trkpt>
      <trkpt lat="43.35193" lon="-3.28588">
        <ele>240.3</ele>
        <time>2023-07-12T23:22:28.000+02:00</time>
      </trkpt>
      <trkpt lat="43.35195" lon="-3.286">
        <ele>239.3</ele>
        <time>2023-07-12T23:22:30.000+02:00</time>
      </trkpt>
      <trkpt lat="43.35205" lon="-3.28635">
        <ele>237.8</ele>
        <time>2023-07-12T23:22:34.000+02:00</time>
      </trkpt>
      <trkpt lat="43.35222" lon="-3.28683">
        <ele>236.5</ele>
        <time>2023-07-12T23:22:40.000+02:00</time>
      </trkpt>
      <trkpt lat="43.35235" lon="-3.28711">
        <ele>235.8</ele>
        <time>2023-07-12T23:22:43.000+02:00</time>
      </trkpt>
      <trkpt lat="43.35278" lon="-3.28799">
        <ele>231.5</ele>
        <time>2023-07-12T23:22:55.000+02:00</time>
      </trkpt>
      <trkpt lat="43.35306" lon="-3.28836">
        <ele>233</ele>
        <time>2023-07-12T23:23:01.000+02:00</time>
      </trkpt>
      <trkpt lat="43.35317" lon="-3.28849">
        <ele>235</ele>
        <time>2023-07-12T23:23:03.000+02:00</time>
      </trkpt>
      <trkpt lat="43.35328" lon="-3.28864">
        <ele>236.8</ele>
        <time>2023-07-12T23:23:06.000+02:00</time>
      </trkpt>
      <trkpt lat="43.35337" lon="-3.28876">
        <ele>238</ele>
        <time>2023-07-12T23:23:08.000+02:00</time>
      </trkpt>
      <trkpt lat="43.35345" lon="-3.28891">
        <ele>239.5</ele>
        <time>2023-07-12T23:23:10.000+02:00</time>
      </trkpt>
      <trkpt lat="43.3535" lon="-3.28904">
        <ele>240</ele>
        <time>2023-07-12T23:23:11.000+02:00</time>
      </trkpt>
      <trkpt lat="43.35352" lon="-3.28914">
        <ele>239.5</ele>
        <time>2023-07-12T23:23:12.000+02:00</time>
      </trkpt>
      <trkpt lat="43.3535" lon="-3.28925">
        <ele>238.8</ele>
        <time>2023-07-12T23:23:14.000+02:00</time>
      </trkpt>
      <trkpt lat="43.35346" lon="-3.28934">
        <ele>237.3</ele>
        <time>2023-07-12T23:23:15.000+02:00</time>
      </trkpt>
      <trkpt lat="43.35314" lon="-3.28999">
        <ele>226.5</ele>
        <time>2023-07-12T23:23:24.000+02:00</time>
      </trkpt>
      <trkpt lat="43.35309" lon="-3.29011">
        <ele>222.5</ele>
        <time>2023-07-12T23:23:25.000+02:00</time>
      </trkpt>
      <trkpt lat="43.35308" lon="-3.29021">
        <ele>220</ele>
        <time>2023-07-12T23:23:26.000+02:00</time>
      </trkpt>
      <trkpt lat="43.3531" lon="-3.29037">
        <ele>217.5</ele>
        <time>2023-07-12T23:23:28.000+02:00</time>
      </trkpt>
      <trkpt lat="43.35318" lon="-3.29078">
        <ele>211.8</ele>
        <time>2023-07-12T23:23:33.000+02:00</time>
      </trkpt>
      <trkpt lat="43.35334" lon="-3.29147">
        <ele>204.3</ele>
        <time>2023-07-12T23:23:41.000+02:00</time>
      </trkpt>
      <trkpt lat="43.35339" lon="-3.29165">
        <ele>202</ele>
        <time>2023-07-12T23:23:43.000+02:00</time>
      </trkpt>
      <trkpt lat="43.35344" lon="-3.29184">
        <ele>200.8</ele>
        <time>2023-07-12T23:23:45.000+02:00</time>
      </trkpt>
      <trkpt lat="43.35354" lon="-3.292">
        <ele>200.5</ele>
        <time>2023-07-12T23:23:47.000+02:00</time>
      </trkpt>
      <trkpt lat="43.35371" lon="-3.2922">
        <ele>200.8</ele>
        <time>2023-07-12T23:23:51.000+02:00</time>
      </trkpt>
      <trkpt lat="43.3539" lon="-3.29244">
        <ele>200.3</ele>
        <time>2023-07-12T23:23:55.000+02:00</time>
      </trkpt>
      <trkpt lat="43.35403" lon="-3.29265">
        <ele>199.3</ele>
        <time>2023-07-12T23:23:58.000+02:00</time>
      </trkpt>
      <trkpt lat="43.35407" lon="-3.29278">
        <ele>198.3</ele>
        <time>2023-07-12T23:24:00.000+02:00</time>
      </trkpt>
      <trkpt lat="43.35411" lon="-3.29295">
        <ele>196.8</ele>
        <time>2023-07-12T23:24:01.000+02:00</time>
      </trkpt>
      <trkpt lat="43.35411" lon="-3.29324">
        <ele>193.8</ele>
        <time>2023-07-12T23:24:05.000+02:00</time>
      </trkpt>
      <trkpt lat="43.35412" lon="-3.2936">
        <ele>190</ele>
        <time>2023-07-12T23:24:09.000+02:00</time>
      </trkpt>
      <trkpt lat="43.35415" lon="-3.29374">
        <ele>189.3</ele>
        <time>2023-07-12T23:24:10.000+02:00</time>
      </trkpt>
      <trkpt lat="43.3542" lon="-3.29384">
        <ele>188.8</ele>
        <time>2023-07-12T23:24:12.000+02:00</time>
      </trkpt>
      <trkpt lat="43.35428" lon="-3.29391">
        <ele>188.5</ele>
        <time>2023-07-12T23:24:13.000+02:00</time>
      </trkpt>
      <trkpt lat="43.35434" lon="-3.29394">
        <ele>188.3</ele>
        <time>2023-07-12T23:24:14.000+02:00</time>
      </trkpt>
      <trkpt lat="43.35442" lon="-3.29396">
        <ele>188.5</ele>
        <time>2023-07-12T23:24:15.000+02:00</time>
      </trkpt>
      <trkpt lat="43.35471" lon="-3.29395">
        <ele>189.5</ele>
        <time>2023-07-12T23:24:20.000+02:00</time>
      </trkpt>
      <trkpt lat="43.35477" lon="-3.29397">
        <ele>189.5</ele>
        <time>2023-07-12T23:24:21.000+02:00</time>
      </trkpt>
      <trkpt lat="43.35483" lon="-3.29402">
        <ele>189</ele>
        <time>2023-07-12T23:24:22.000+02:00</time>
      </trkpt>
      <trkpt lat="43.35489" lon="-3.2941">
        <ele>188.5</ele>
        <time>2023-07-12T23:24:23.000+02:00</time>
      </trkpt>
      <trkpt lat="43.35494" lon="-3.2942">
        <ele>187.5</ele>
        <time>2023-07-12T23:24:24.000+02:00</time>
      </trkpt>
      <trkpt lat="43.35495" lon="-3.29433">
        <ele>186.8</ele>
        <time>2023-07-12T23:24:26.000+02:00</time>
      </trkpt>
      <trkpt lat="43.35493" lon="-3.29442">
        <ele>186</ele>
        <time>2023-07-12T23:24:27.000+02:00</time>
      </trkpt>
      <trkpt lat="43.3549" lon="-3.29455">
        <ele>185</ele>
        <time>2023-07-12T23:24:28.000+02:00</time>
      </trkpt>
      <trkpt lat="43.35484" lon="-3.2947">
        <ele>183.5</ele>
        <time>2023-07-12T23:24:30.000+02:00</time>
      </trkpt>
      <trkpt lat="43.35485" lon="-3.29484">
        <ele>182.5</ele>
        <time>2023-07-12T23:24:32.000+02:00</time>
      </trkpt>
      <trkpt lat="43.35491" lon="-3.295">
        <ele>182</ele>
        <time>2023-07-12T23:24:34.000+02:00</time>
      </trkpt>
      <trkpt lat="43.35496" lon="-3.29509">
        <ele>181</ele>
        <time>2023-07-12T23:24:35.000+02:00</time>
      </trkpt>
      <trkpt lat="43.35502" lon="-3.29517">
        <ele>180.5</ele>
        <time>2023-07-12T23:24:36.000+02:00</time>
      </trkpt>
      <trkpt lat="43.35513" lon="-3.29535">
        <ele>180.3</ele>
        <time>2023-07-12T23:24:39.000+02:00</time>
      </trkpt>
      <trkpt lat="43.35545" lon="-3.2961">
        <ele>177.3</ele>
        <time>2023-07-12T23:24:49.000+02:00</time>
      </trkpt>
      <trkpt lat="43.3555" lon="-3.2962">
        <ele>177.3</ele>
        <time>2023-07-12T23:24:50.000+02:00</time>
      </trkpt>
      <trkpt lat="43.35566" lon="-3.29657">
        <ele>176.5</ele>
        <time>2023-07-12T23:24:55.000+02:00</time>
      </trkpt>
      <trkpt lat="43.3557" lon="-3.29669">
        <ele>175.8</ele>
        <time>2023-07-12T23:24:56.000+02:00</time>
      </trkpt>
      <trkpt lat="43.35572" lon="-3.29682">
        <ele>175.8</ele>
        <time>2023-07-12T23:24:58.000+02:00</time>
      </trkpt>
      <trkpt lat="43.3557" lon="-3.29695">
        <ele>175</ele>
        <time>2023-07-12T23:24:59.000+02:00</time>
      </trkpt>
      <trkpt lat="43.35566" lon="-3.29703">
        <ele>174.3</ele>
        <time>2023-07-12T23:25:00.000+02:00</time>
      </trkpt>
      <trkpt lat="43.35554" lon="-3.2972">
        <ele>172.5</ele>
        <time>2023-07-12T23:25:03.000+02:00</time>
      </trkpt>
      <trkpt lat="43.35541" lon="-3.2973">
        <ele>170.8</ele>
        <time>2023-07-12T23:25:05.000+02:00</time>
      </trkpt>
      <trkpt lat="43.35532" lon="-3.29734">
        <ele>169.5</ele>
        <time>2023-07-12T23:25:07.000+02:00</time>
      </trkpt>
      <trkpt lat="43.35522" lon="-3.29736">
        <ele>168.3</ele>
        <time>2023-07-12T23:25:08.000+02:00</time>
      </trkpt>
      <trkpt lat="43.35514" lon="-3.2974">
        <ele>167.5</ele>
        <time>2023-07-12T23:25:10.000+02:00</time>
      </trkpt>
      <trkpt lat="43.35508" lon="-3.29745">
        <ele>166.8</ele>
        <time>2023-07-12T23:25:11.000+02:00</time>
      </trkpt>
      <trkpt lat="43.35502" lon="-3.29757">
        <ele>165.5</ele>
        <time>2023-07-12T23:25:12.000+02:00</time>
      </trkpt>
      <trkpt lat="43.35497" lon="-3.29773">
        <ele>162.8</ele>
        <time>2023-07-12T23:25:14.000+02:00</time>
      </trkpt>
      <trkpt lat="43.35497" lon="-3.29791">
        <ele>160.8</ele>
        <time>2023-07-12T23:25:16.000+02:00</time>
      </trkpt>
      <trkpt lat="43.35499" lon="-3.29807">
        <ele>159.5</ele>
        <time>2023-07-12T23:25:18.000+02:00</time>
      </trkpt>
      <trkpt lat="43.35513" lon="-3.29856">
        <ele>158</ele>
        <time>2023-07-12T23:25:24.000+02:00</time>
      </trkpt>
      <trkpt lat="43.35534" lon="-3.29926">
        <ele>159.3</ele>
        <time>2023-07-12T23:25:32.000+02:00</time>
      </trkpt>
      <trkpt lat="43.35541" lon="-3.29956">
        <ele>158.8</ele>
        <time>2023-07-12T23:25:36.000+02:00</time>
      </trkpt>
      <trkpt lat="43.3554" lon="-3.29967">
        <ele>158</ele>
        <time>2023-07-12T23:25:37.000+02:00</time>
      </trkpt>
      <trkpt lat="43.35539" lon="-3.29977">
        <ele>156.8</ele>
        <time>2023-07-12T23:25:38.000+02:00</time>
      </trkpt>
      <trkpt lat="43.35536" lon="-3.29985">
        <ele>155</ele>
        <time>2023-07-12T23:25:39.000+02:00</time>
      </trkpt>
      <trkpt lat="43.35528" lon="-3.29993">
        <ele>152.3</ele>
        <time>2023-07-12T23:25:41.000+02:00</time>
      </trkpt>
      <trkpt lat="43.35522" lon="-3.29996">
        <ele>150.3</ele>
        <time>2023-07-12T23:25:42.000+02:00</time>
      </trkpt>
      <trkpt lat="43.35516" lon="-3.29997">
        <ele>148</ele>
        <time>2023-07-12T23:25:44.000+02:00</time>
      </trkpt>
      <trkpt lat="43.35509" lon="-3.29995">
        <ele>146</ele>
        <time>2023-07-12T23:25:45.000+02:00</time>
      </trkpt>
      <trkpt lat="43.355" lon="-3.2999">
        <ele>144</ele>
        <time>2023-07-12T23:25:46.000+02:00</time>
      </trkpt>
      <trkpt lat="43.3548" lon="-3.29967">
        <ele>143.3</ele>
        <time>2023-07-12T23:25:50.000+02:00</time>
      </trkpt>
      <trkpt lat="43.35447" lon="-3.29929">
        <ele>142.5</ele>
        <time>2023-07-12T23:25:57.000+02:00</time>
      </trkpt>
      <trkpt lat="43.35438" lon="-3.29919">
        <ele>142</ele>
        <time>2023-07-12T23:25:58.000+02:00</time>
      </trkpt>
      <trkpt lat="43.35431" lon="-3.29915">
        <ele>141</ele>
        <time>2023-07-12T23:26:00.000+02:00</time>
      </trkpt>
      <trkpt lat="43.35425" lon="-3.29915">
        <ele>140.3</ele>
        <time>2023-07-12T23:26:01.000+02:00</time>
      </trkpt>
      <trkpt lat="43.35418" lon="-3.29918">
        <ele>139</ele>
        <time>2023-07-12T23:26:02.000+02:00</time>
      </trkpt>
      <trkpt lat="43.35411" lon="-3.29925">
        <ele>136.8</ele>
        <time>2023-07-12T23:26:04.000+02:00</time>
      </trkpt>
      <trkpt lat="43.35404" lon="-3.29934">
        <ele>134.3</ele>
        <time>2023-07-12T23:26:05.000+02:00</time>
      </trkpt>
      <trkpt lat="43.354" lon="-3.2995">
        <ele>132</ele>
        <time>2023-07-12T23:26:07.000+02:00</time>
      </trkpt>
      <trkpt lat="43.35399" lon="-3.29963">
        <ele>131</ele>
        <time>2023-07-12T23:26:09.000+02:00</time>
      </trkpt>
      <trkpt lat="43.35403" lon="-3.29976">
        <ele>131</ele>
        <time>2023-07-12T23:26:10.000+02:00</time>
      </trkpt>
      <trkpt lat="43.35416" lon="-3.29996">
        <ele>133</ele>
        <time>2023-07-12T23:26:13.000+02:00</time>
      </trkpt>
      <trkpt lat="43.35441" lon="-3.30028">
        <ele>131.8</ele>
        <time>2023-07-12T23:26:18.000+02:00</time>
      </trkpt>
      <trkpt lat="43.35465" lon="-3.30061">
        <ele>129.8</ele>
        <time>2023-07-12T23:26:24.000+02:00</time>
      </trkpt>
      <trkpt lat="43.35472" lon="-3.3007">
        <ele>129.5</ele>
        <time>2023-07-12T23:26:25.000+02:00</time>
      </trkpt>
      <trkpt lat="43.35481" lon="-3.30078">
        <ele>129.5</ele>
        <time>2023-07-12T23:26:27.000+02:00</time>
      </trkpt>
      <trkpt lat="43.35488" lon="-3.30081">
        <ele>129.8</ele>
        <time>2023-07-12T23:26:28.000+02:00</time>
      </trkpt>
      <trkpt lat="43.35504" lon="-3.30086">
        <ele>132.3</ele>
        <time>2023-07-12T23:26:30.000+02:00</time>
      </trkpt>
      <trkpt lat="43.35512" lon="-3.3009">
        <ele>135.3</ele>
        <time>2023-07-12T23:26:32.000+02:00</time>
      </trkpt>
      <trkpt lat="43.35517" lon="-3.30093">
        <ele>137.3</ele>
        <time>2023-07-12T23:26:32.000+02:00</time>
      </trkpt>
      <trkpt lat="43.35523" lon="-3.30099">
        <ele>139.3</ele>
        <time>2023-07-12T23:26:34.000+02:00</time>
      </trkpt>
      <trkpt lat="43.35535" lon="-3.3012">
        <ele>142.3</ele>
        <time>2023-07-12T23:26:37.000+02:00</time>
      </trkpt>
      <trkpt lat="43.35536" lon="-3.30132">
        <ele>142</ele>
        <time>2023-07-12T23:26:38.000+02:00</time>
      </trkpt>
      <trkpt lat="43.35536" lon="-3.30143">
        <ele>141.3</ele>
        <time>2023-07-12T23:26:39.000+02:00</time>
      </trkpt>
      <trkpt lat="43.35533" lon="-3.30156">
        <ele>138.8</ele>
        <time>2023-07-12T23:26:41.000+02:00</time>
      </trkpt>
      <trkpt lat="43.35525" lon="-3.30169">
        <ele>133.3</ele>
        <time>2023-07-12T23:26:43.000+02:00</time>
      </trkpt>
      <trkpt lat="43.35518" lon="-3.30174">
        <ele>129.5</ele>
        <time>2023-07-12T23:26:44.000+02:00</time>
      </trkpt>
      <trkpt lat="43.35509" lon="-3.30175">
        <ele>125.3</ele>
        <time>2023-07-12T23:26:45.000+02:00</time>
      </trkpt>
      <trkpt lat="43.35501" lon="-3.30172">
        <ele>121.5</ele>
        <time>2023-07-12T23:26:46.000+02:00</time>
      </trkpt>
      <trkpt lat="43.35493" lon="-3.30167">
        <ele>120.5</ele>
        <time>2023-07-12T23:26:48.000+02:00</time>
      </trkpt>
      <trkpt lat="43.3548" lon="-3.30159">
        <ele>119.3</ele>
        <time>2023-07-12T23:26:50.000+02:00</time>
      </trkpt>
      <trkpt lat="43.35468" lon="-3.3015">
        <ele>118.5</ele>
        <time>2023-07-12T23:26:52.000+02:00</time>
      </trkpt>
      <trkpt lat="43.3546" lon="-3.30145">
        <ele>117.5</ele>
        <time>2023-07-12T23:26:53.000+02:00</time>
      </trkpt>
      <trkpt lat="43.35442" lon="-3.30143">
        <ele>115</ele>
        <time>2023-07-12T23:26:56.000+02:00</time>
      </trkpt>
      <trkpt lat="43.3543" lon="-3.30138">
        <ele>113.8</ele>
        <time>2023-07-12T23:26:58.000+02:00</time>
      </trkpt>
      <trkpt lat="43.35418" lon="-3.30131">
        <ele>113</ele>
        <time>2023-07-12T23:27:00.000+02:00</time>
      </trkpt>
      <trkpt lat="43.35407" lon="-3.30121">
        <ele>113</ele>
        <time>2023-07-12T23:27:02.000+02:00</time>
      </trkpt>
      <trkpt lat="43.35394" lon="-3.30106">
        <ele>113.3</ele>
        <time>2023-07-12T23:27:05.000+02:00</time>
      </trkpt>
      <trkpt lat="43.35367" lon="-3.30072">
        <ele>113</ele>
        <time>2023-07-12T23:27:10.000+02:00</time>
      </trkpt>
      <trkpt lat="43.35348" lon="-3.3005">
        <ele>111.5</ele>
        <time>2023-07-12T23:27:14.000+02:00</time>
      </trkpt>
      <trkpt lat="43.3534" lon="-3.30044">
        <ele>110.3</ele>
        <time>2023-07-12T23:27:15.000+02:00</time>
      </trkpt>
      <trkpt lat="43.35332" lon="-3.30042">
        <ele>108.5</ele>
        <time>2023-07-12T23:27:17.000+02:00</time>
      </trkpt>
      <trkpt lat="43.35324" lon="-3.30042">
        <ele>107.3</ele>
        <time>2023-07-12T23:27:18.000+02:00</time>
      </trkpt>
      <trkpt lat="43.35318" lon="-3.30045">
        <ele>106</ele>
        <time>2023-07-12T23:27:19.000+02:00</time>
      </trkpt>
      <trkpt lat="43.35312" lon="-3.30052">
        <ele>104.5</ele>
        <time>2023-07-12T23:27:20.000+02:00</time>
      </trkpt>
      <trkpt lat="43.35308" lon="-3.30061">
        <ele>103.3</ele>
        <time>2023-07-12T23:27:21.000+02:00</time>
      </trkpt>
      <trkpt lat="43.35306" lon="-3.30073">
        <ele>102.3</ele>
        <time>2023-07-12T23:27:23.000+02:00</time>
      </trkpt>
      <trkpt lat="43.35311" lon="-3.30088">
        <ele>102</ele>
        <time>2023-07-12T23:27:24.000+02:00</time>
      </trkpt>
      <trkpt lat="43.35317" lon="-3.30095">
        <ele>102.3</ele>
        <time>2023-07-12T23:27:26.000+02:00</time>
      </trkpt>
      <trkpt lat="43.35324" lon="-3.30101">
        <ele>102.8</ele>
        <time>2023-07-12T23:27:27.000+02:00</time>
      </trkpt>
      <trkpt lat="43.35336" lon="-3.3011">
        <ele>103.3</ele>
        <time>2023-07-12T23:27:29.000+02:00</time>
      </trkpt>
      <trkpt lat="43.35345" lon="-3.30122">
        <ele>103.5</ele>
        <time>2023-07-12T23:27:31.000+02:00</time>
      </trkpt>
      <trkpt lat="43.35369" lon="-3.30155">
        <ele>102.8</ele>
        <time>2023-07-12T23:27:36.000+02:00</time>
      </trkpt>
      <trkpt lat="43.35376" lon="-3.30171">
        <ele>101.3</ele>
        <time>2023-07-12T23:27:38.000+02:00</time>
      </trkpt>
      <trkpt lat="43.35381" lon="-3.30185">
        <ele>99.8</ele>
        <time>2023-07-12T23:27:40.000+02:00</time>
      </trkpt>
      <trkpt lat="43.35394" lon="-3.30227">
        <ele>95</ele>
        <time>2023-07-12T23:27:45.000+02:00</time>
      </trkpt>
      <trkpt lat="43.35416" lon="-3.3027">
        <ele>90.8</ele>
        <time>2023-07-12T23:27:51.000+02:00</time>
      </trkpt>
      <trkpt lat="43.35432" lon="-3.30299">
        <ele>87.3</ele>
        <time>2023-07-12T23:27:55.000+02:00</time>
      </trkpt>
      <trkpt lat="43.35451" lon="-3.30327">
        <ele>83.8</ele>
        <time>2023-07-12T23:27:59.000+02:00</time>
      </trkpt>
      <trkpt lat="43.35465" lon="-3.30346">
        <ele>82.5</ele>
        <time>2023-07-12T23:28:02.000+02:00</time>
      </trkpt>
      <trkpt lat="43.35477" lon="-3.30363">
        <ele>81.3</ele>
        <time>2023-07-12T23:28:05.000+02:00</time>
      </trkpt>
      <trkpt lat="43.35485" lon="-3.3038">
        <ele>79.3</ele>
        <time>2023-07-12T23:28:07.000+02:00</time>
      </trkpt>
      <trkpt lat="43.35498" lon="-3.30423">
        <ele>73.3</ele>
        <time>2023-07-12T23:28:12.000+02:00</time>
      </trkpt>
      <trkpt lat="43.35504" lon="-3.30432">
        <ele>74</ele>
        <time>2023-07-12T23:28:13.000+02:00</time>
      </trkpt>
      <trkpt lat="43.35538" lon="-3.30466">
        <ele>81.5</ele>
        <time>2023-07-12T23:28:20.000+02:00</time>
      </trkpt>
      <trkpt lat="43.35548" lon="-3.30476">
        <ele>82.8</ele>
        <time>2023-07-12T23:28:22.000+02:00</time>
      </trkpt>
      <trkpt lat="43.35557" lon="-3.30486">
        <ele>83.5</ele>
        <time>2023-07-12T23:28:23.000+02:00</time>
      </trkpt>
      <trkpt lat="43.35562" lon="-3.305">
        <ele>82.3</ele>
        <time>2023-07-12T23:28:25.000+02:00</time>
      </trkpt>
      <trkpt lat="43.35568" lon="-3.30524">
        <ele>79</ele>
        <time>2023-07-12T23:28:28.000+02:00</time>
      </trkpt>
      <trkpt lat="43.35581" lon="-3.30578">
        <ele>69</ele>
        <time>2023-07-12T23:28:34.000+02:00</time>
      </trkpt>
      <trkpt lat="43.35589" lon="-3.30601">
        <ele>68.5</ele>
        <time>2023-07-12T23:28:37.000+02:00</time>
      </trkpt>
      <trkpt lat="43.35598" lon="-3.30614">
        <ele>69.8</ele>
        <time>2023-07-12T23:28:39.000+02:00</time>
      </trkpt>
      <trkpt lat="43.35623" lon="-3.30644">
        <ele>70.8</ele>
        <time>2023-07-12T23:28:44.000+02:00</time>
      </trkpt>
      <trkpt lat="43.35634" lon="-3.30656">
        <ele>70.3</ele>
        <time>2023-07-12T23:28:46.000+02:00</time>
      </trkpt>
      <trkpt lat="43.35679" lon="-3.30693">
        <ele>68.3</ele>
        <time>2023-07-12T23:28:54.000+02:00</time>
      </trkpt>
      <trkpt lat="43.35689" lon="-3.30704">
        <ele>67.3</ele>
        <time>2023-07-12T23:28:56.000+02:00</time>
      </trkpt>
      <trkpt lat="43.35701" lon="-3.30718">
        <ele>65.8</ele>
        <time>2023-07-12T23:28:59.000+02:00</time>
      </trkpt>
      <trkpt lat="43.35743" lon="-3.30775">
        <ele>57.8</ele>
        <time>2023-07-12T23:29:08.000+02:00</time>
      </trkpt>
      <trkpt lat="43.35761" lon="-3.30797">
        <ele>56.8</ele>
        <time>2023-07-12T23:29:11.000+02:00</time>
      </trkpt>
      <trkpt lat="43.3577" lon="-3.30809">
        <ele>56.3</ele>
        <time>2023-07-12T23:29:13.000+02:00</time>
      </trkpt>
      <trkpt lat="43.35775" lon="-3.30823">
        <ele>54</ele>
        <time>2023-07-12T23:29:15.000+02:00</time>
      </trkpt>
      <trkpt lat="43.35774" lon="-3.30838">
        <ele>51</ele>
        <time>2023-07-12T23:29:17.000+02:00</time>
      </trkpt>
      <trkpt lat="43.35766" lon="-3.30872">
        <ele>46.3</ele>
        <time>2023-07-12T23:29:21.000+02:00</time>
      </trkpt>
      <trkpt lat="43.35759" lon="-3.30894">
        <ele>43.8</ele>
        <time>2023-07-12T23:29:23.000+02:00</time>
      </trkpt>
      <trkpt lat="43.35752" lon="-3.30913">
        <ele>42</ele>
        <time>2023-07-12T23:29:26.000+02:00</time>
      </trkpt>
      <trkpt lat="43.35734" lon="-3.30968">
        <ele>44.5</ele>
        <time>2023-07-12T23:29:32.000+02:00</time>
      </trkpt>
      <trkpt lat="43.35722" lon="-3.31001">
        <ele>48</ele>
        <time>2023-07-12T23:29:37.000+02:00</time>
      </trkpt>
      <trkpt lat="43.3572" lon="-3.31016">
        <ele>49.3</ele>
        <time>2023-07-12T23:29:38.000+02:00</time>
      </trkpt>
      <trkpt lat="43.3572" lon="-3.31027">
        <ele>49.8</ele>
        <time>2023-07-12T23:29:40.000+02:00</time>
      </trkpt>
      <trkpt lat="43.35721" lon="-3.31036">
        <ele>49.8</ele>
        <time>2023-07-12T23:29:41.000+02:00</time>
      </trkpt>
      <trkpt lat="43.35724" lon="-3.31041">
        <ele>49.5</ele>
        <time>2023-07-12T23:29:42.000+02:00</time>
      </trkpt>
      <trkpt lat="43.35755" lon="-3.31084">
        <ele>43.5</ele>
        <time>2023-07-12T23:29:49.000+02:00</time>
      </trkpt>
      <trkpt lat="43.35758" lon="-3.31088">
        <ele>43</ele>
        <time>2023-07-12T23:29:50.000+02:00</time>
      </trkpt>
      <trkpt lat="43.35779" lon="-3.31135">
        <ele>40.8</ele>
        <time>2023-07-12T23:29:56.000+02:00</time>
      </trkpt>
      <trkpt lat="43.35787" lon="-3.31155">
        <ele>39.8</ele>
        <time>2023-07-12T23:29:58.000+02:00</time>
      </trkpt>
      <trkpt lat="43.35791" lon="-3.31166">
        <ele>39.5</ele>
        <time>2023-07-12T23:30:00.000+02:00</time>
      </trkpt>
      <trkpt lat="43.35792" lon="-3.31175">
        <ele>39</ele>
        <time>2023-07-12T23:30:01.000+02:00</time>
      </trkpt>
      <trkpt lat="43.35793" lon="-3.31241">
        <ele>37</ele>
        <time>2023-07-12T23:30:08.000+02:00</time>
      </trkpt>
      <trkpt lat="43.35792" lon="-3.31267">
        <ele>36.3</ele>
        <time>2023-07-12T23:30:11.000+02:00</time>
      </trkpt>
      <trkpt lat="43.3579" lon="-3.31276">
        <ele>36</ele>
        <time>2023-07-12T23:30:12.000+02:00</time>
      </trkpt>
      <trkpt lat="43.35785" lon="-3.31289">
        <ele>35.8</ele>
        <time>2023-07-12T23:30:14.000+02:00</time>
      </trkpt>
      <trkpt lat="43.35771" lon="-3.31307">
        <ele>35.5</ele>
        <time>2023-07-12T23:30:16.000+02:00</time>
      </trkpt>
      <trkpt lat="43.35749" lon="-3.31329">
        <ele>35.3</ele>
        <time>2023-07-12T23:30:21.000+02:00</time>
      </trkpt>
      <trkpt lat="43.35738" lon="-3.31338">
        <ele>35.5</ele>
        <time>2023-07-12T23:30:23.000+02:00</time>
      </trkpt>
      <trkpt lat="43.35728" lon="-3.31343">
        <ele>35.8</ele>
        <time>2023-07-12T23:30:24.000+02:00</time>
      </trkpt>
      <trkpt lat="43.35691" lon="-3.31358">
        <ele>37.8</ele>
        <time>2023-07-12T23:30:30.000+02:00</time>
      </trkpt>
      <trkpt lat="43.35637" lon="-3.31377">
        <ele>41.8</ele>
        <time>2023-07-12T23:30:39.000+02:00</time>
      </trkpt>
      <trkpt lat="43.35624" lon="-3.31383">
        <ele>42.8</ele>
        <time>2023-07-12T23:30:41.000+02:00</time>
      </trkpt>
      <trkpt lat="43.35571" lon="-3.3142">
        <ele>47.8</ele>
        <time>2023-07-12T23:30:50.000+02:00</time>
      </trkpt>
      <trkpt lat="43.35542" lon="-3.31441">
        <ele>53</ele>
        <time>2023-07-12T23:30:55.000+02:00</time>
      </trkpt>
      <trkpt lat="43.35536" lon="-3.31449">
        <ele>54.3</ele>
        <time>2023-07-12T23:30:56.000+02:00</time>
      </trkpt>
      <trkpt lat="43.35531" lon="-3.31461">
        <ele>55.5</ele>
        <time>2023-07-12T23:30:58.000+02:00</time>
      </trkpt>
      <trkpt lat="43.3553" lon="-3.31472">
        <ele>56.3</ele>
        <time>2023-07-12T23:30:59.000+02:00</time>
      </trkpt>
      <trkpt lat="43.35531" lon="-3.31483">
        <ele>56.8</ele>
        <time>2023-07-12T23:31:00.000+02:00</time>
      </trkpt>
      <trkpt lat="43.3554" lon="-3.31503">
        <ele>56.3</ele>
        <time>2023-07-12T23:31:03.000+02:00</time>
      </trkpt>
      <trkpt lat="43.35548" lon="-3.31527">
        <ele>55</ele>
        <time>2023-07-12T23:31:06.000+02:00</time>
      </trkpt>
      <trkpt lat="43.35553" lon="-3.31544">
        <ele>54.5</ele>
        <time>2023-07-12T23:31:08.000+02:00</time>
      </trkpt>
      <trkpt lat="43.35555" lon="-3.31553">
        <ele>54.3</ele>
        <time>2023-07-12T23:31:09.000+02:00</time>
      </trkpt>
      <trkpt lat="43.35556" lon="-3.31563">
        <ele>54.3</ele>
        <time>2023-07-12T23:31:10.000+02:00</time>
      </trkpt>
      <trkpt lat="43.35554" lon="-3.31576">
        <ele>54.5</ele>
        <time>2023-07-12T23:31:11.000+02:00</time>
      </trkpt>
      <trkpt lat="43.35551" lon="-3.31586">
        <ele>54.8</ele>
        <time>2023-07-12T23:31:13.000+02:00</time>
      </trkpt>
      <trkpt lat="43.35546" lon="-3.31593">
        <ele>54.3</ele>
        <time>2023-07-12T23:31:14.000+02:00</time>
      </trkpt>
      <trkpt lat="43.3554" lon="-3.31599">
        <ele>54</ele>
        <time>2023-07-12T23:31:15.000+02:00</time>
      </trkpt>
      <trkpt lat="43.35528" lon="-3.31606">
        <ele>53.8</ele>
        <time>2023-07-12T23:31:17.000+02:00</time>
      </trkpt>
      <trkpt lat="43.35508" lon="-3.31621">
        <ele>52.5</ele>
        <time>2023-07-12T23:31:20.000+02:00</time>
      </trkpt>
      <trkpt lat="43.35466" lon="-3.31661">
        <ele>52.5</ele>
        <time>2023-07-12T23:31:28.000+02:00</time>
      </trkpt>
      <trkpt lat="43.35419" lon="-3.31705">
        <ele>55.5</ele>
        <time>2023-07-12T23:31:37.000+02:00</time>
      </trkpt>
      <trkpt lat="43.35407" lon="-3.31719">
        <ele>56.5</ele>
        <time>2023-07-12T23:31:39.000+02:00</time>
      </trkpt>
      <trkpt lat="43.35398" lon="-3.31736">
        <ele>56.3</ele>
        <time>2023-07-12T23:31:42.000+02:00</time>
      </trkpt>
      <trkpt lat="43.35383" lon="-3.31771">
        <ele>55</ele>
        <time>2023-07-12T23:31:46.000+02:00</time>
      </trkpt>
      <trkpt lat="43.35336" lon="-3.31887">
        <ele>47.3</ele>
        <time>2023-07-12T23:32:01.000+02:00</time>
      </trkpt>
      <trkpt lat="43.35328" lon="-3.31907">
        <ele>45.8</ele>
        <time>2023-07-12T23:32:03.000+02:00</time>
      </trkpt>
      <trkpt lat="43.35318" lon="-3.31928">
        <ele>45</ele>
        <time>2023-07-12T23:32:06.000+02:00</time>
      </trkpt>
      <trkpt lat="43.35312" lon="-3.31943">
        <ele>44.5</ele>
        <time>2023-07-12T23:32:08.000+02:00</time>
      </trkpt>
      <trkpt lat="43.35307" lon="-3.3196">
        <ele>43.5</ele>
        <time>2023-07-12T23:32:10.000+02:00</time>
      </trkpt>
      <trkpt lat="43.35303" lon="-3.31978">
        <ele>42.3</ele>
        <time>2023-07-12T23:32:12.000+02:00</time>
      </trkpt>
      <trkpt lat="43.35301" lon="-3.31995">
        <ele>40.8</ele>
        <time>2023-07-12T23:32:14.000+02:00</time>
      </trkpt>
      <trkpt lat="43.35302" lon="-3.32005">
        <ele>40.3</ele>
        <time>2023-07-12T23:32:15.000+02:00</time>
      </trkpt>
      <trkpt lat="43.35303" lon="-3.32014">
        <ele>39.8</ele>
        <time>2023-07-12T23:32:16.000+02:00</time>
      </trkpt>
      <trkpt lat="43.3531" lon="-3.32049">
        <ele>38.3</ele>
        <time>2023-07-12T23:32:20.000+02:00</time>
      </trkpt>
      <trkpt lat="43.3537" lon="-3.32274">
        <ele>23</ele>
        <time>2023-07-12T23:32:47.000+02:00</time>
      </trkpt>
      <trkpt lat="43.35386" lon="-3.32335">
        <ele>21.8</ele>
        <time>2023-07-12T23:32:54.000+02:00</time>
      </trkpt>
      <trkpt lat="43.35398" lon="-3.32377">
        <ele>20.5</ele>
        <time>2023-07-12T23:32:59.000+02:00</time>
      </trkpt>
      <trkpt lat="43.3541" lon="-3.32423">
        <ele>18.5</ele>
        <time>2023-07-12T23:33:05.000+02:00</time>
      </trkpt>
      <trkpt lat="43.35432" lon="-3.32507">
        <ele>13.5</ele>
        <time>2023-07-12T23:33:14.000+02:00</time>
      </trkpt>
      <trkpt lat="43.3544" lon="-3.32524">
        <ele>13.3</ele>
        <time>2023-07-12T23:33:17.000+02:00</time>
      </trkpt>
      <trkpt lat="43.35448" lon="-3.32539">
        <ele>13</ele>
        <time>2023-07-12T23:33:19.000+02:00</time>
      </trkpt>
      <trkpt lat="43.35456" lon="-3.32548">
        <ele>12.8</ele>
        <time>2023-07-12T23:33:20.000+02:00</time>
      </trkpt>
      <trkpt lat="43.35462" lon="-3.32553">
        <ele>12.8</ele>
        <time>2023-07-12T23:33:21.000+02:00</time>
      </trkpt>
      <trkpt lat="43.35465" lon="-3.32558">
        <ele>12.5</ele>
        <time>2023-07-12T23:33:22.000+02:00</time>
      </trkpt>
      <trkpt lat="43.35467" lon="-3.32565">
        <ele>12.5</ele>
        <time>2023-07-12T23:33:23.000+02:00</time>
      </trkpt>
      <trkpt lat="43.35468" lon="-3.32572">
        <ele>12.5</ele>
        <time>2023-07-12T23:33:24.000+02:00</time>
      </trkpt>
      <trkpt lat="43.35467" lon="-3.32578">
        <ele>12.3</ele>
        <time>2023-07-12T23:33:25.000+02:00</time>
      </trkpt>
      <trkpt lat="43.35466" lon="-3.32583">
        <ele>12.3</ele>
        <time>2023-07-12T23:33:26.000+02:00</time>
      </trkpt>
      <trkpt lat="43.35464" lon="-3.32587">
        <ele>12.3</ele>
        <time>2023-07-12T23:33:27.000+02:00</time>
      </trkpt>
      <trkpt lat="43.3546" lon="-3.32593">
        <ele>12.3</ele>
        <time>2023-07-12T23:33:28.000+02:00</time>
      </trkpt>
      <trkpt lat="43.35455" lon="-3.32596">
        <ele>12.5</ele>
        <time>2023-07-12T23:33:29.000+02:00</time>
      </trkpt>
      <trkpt lat="43.3545" lon="-3.32597">
        <ele>12.5</ele>
        <time>2023-07-12T23:33:30.000+02:00</time>
      </trkpt>
      <trkpt lat="43.35444" lon="-3.32596">
        <ele>12.5</ele>
        <time>2023-07-12T23:33:31.000+02:00</time>
      </trkpt>
      <trkpt lat="43.35439" lon="-3.32593">
        <ele>12.5</ele>
        <time>2023-07-12T23:33:32.000+02:00</time>
      </trkpt>
      <trkpt lat="43.35435" lon="-3.32588">
        <ele>12.8</ele>
        <time>2023-07-12T23:33:33.000+02:00</time>
      </trkpt>
      <trkpt lat="43.35427" lon="-3.32587">
        <ele>12.8</ele>
        <time>2023-07-12T23:33:34.000+02:00</time>
      </trkpt>
      <trkpt lat="43.35435" lon="-3.32588">
        <ele>12.8</ele>
        <time>2023-07-12T23:33:35.000+02:00</time>
      </trkpt>
      <trkpt lat="43.35433" lon="-3.32582">
        <ele>12.8</ele>
        <time>2023-07-12T23:33:36.000+02:00</time>
      </trkpt>
      <trkpt lat="43.35431" lon="-3.32576">
        <ele>12.8</ele>
        <time>2023-07-12T23:33:37.000+02:00</time>
      </trkpt>
      <trkpt lat="43.35431" lon="-3.32569">
        <ele>12.8</ele>
        <time>2023-07-12T23:33:38.000+02:00</time>
      </trkpt>
      <trkpt lat="43.35432" lon="-3.32563">
        <ele>13</ele>
        <time>2023-07-12T23:33:39.000+02:00</time>
      </trkpt>
      <trkpt lat="43.35435" lon="-3.32556">
        <ele>13</ele>
        <time>2023-07-12T23:33:40.000+02:00</time>
      </trkpt>
      <trkpt lat="43.35439" lon="-3.32551">
        <ele>13</ele>
        <time>2023-07-12T23:33:41.000+02:00</time>
      </trkpt>
      <trkpt lat="43.35444" lon="-3.32547">
        <ele>13</ele>
        <time>2023-07-12T23:33:42.000+02:00</time>
      </trkpt>
      <trkpt lat="43.3545" lon="-3.32546">
        <ele>13</ele>
        <time>2023-07-12T23:33:43.000+02:00</time>
      </trkpt>
      <trkpt lat="43.35456" lon="-3.32548">
        <ele>12.8</ele>
        <time>2023-07-12T23:33:44.000+02:00</time>
      </trkpt>
      <trkpt lat="43.35462" lon="-3.32553">
        <ele>12.8</ele>
        <time>2023-07-12T23:33:45.000+02:00</time>
      </trkpt>
      <trkpt lat="43.35474" lon="-3.32556">
        <ele>12.5</ele>
        <time>2023-07-12T23:33:47.000+02:00</time>
      </trkpt>
      <trkpt lat="43.35487" lon="-3.32556">
        <ele>12.3</ele>
        <time>2023-07-12T23:33:49.000+02:00</time>
      </trkpt>
      <trkpt lat="43.35507" lon="-3.32553">
        <ele>12.3</ele>
        <time>2023-07-12T23:33:52.000+02:00</time>
      </trkpt>
      <trkpt lat="43.35512" lon="-3.32551">
        <ele>12.3</ele>
        <time>2023-07-12T23:33:53.000+02:00</time>
      </trkpt>
      <trkpt lat="43.35517" lon="-3.3255">
        <ele>12.3</ele>
        <time>2023-07-12T23:33:54.000+02:00</time>
      </trkpt>
      <trkpt lat="43.3557" lon="-3.32533">
        <ele>12.3</ele>
        <time>2023-07-12T23:34:02.000+02:00</time>
      </trkpt>
      <trkpt lat="43.35725" lon="-3.32483">
        <ele>11</ele>
        <time>2023-07-12T23:34:27.000+02:00</time>
      </trkpt>
      <trkpt lat="43.35874" lon="-3.32436">
        <ele>17.8</ele>
        <time>2023-07-12T23:34:50.000+02:00</time>
      </trkpt>
      <trkpt lat="43.35931" lon="-3.32416">
        <ele>19.3</ele>
        <time>2023-07-12T23:34:59.000+02:00</time>
      </trkpt>
      <trkpt lat="43.35933" lon="-3.32416">
        <ele>19.5</ele>
        <time>2023-07-12T23:34:59.000+02:00</time>
      </trkpt>
      <trkpt lat="43.35946" lon="-3.32408">
        <ele>18.8</ele>
        <time>2023-07-12T23:35:01.000+02:00</time>
      </trkpt>
      <trkpt lat="43.35969" lon="-3.32386">
        <ele>17.5</ele>
        <time>2023-07-12T23:35:06.000+02:00</time>
      </trkpt>
      <trkpt lat="43.35979" lon="-3.32373">
        <ele>17.3</ele>
        <time>2023-07-12T23:35:08.000+02:00</time>
      </trkpt>
      <trkpt lat="43.36" lon="-3.32343">
        <ele>17.5</ele>
        <time>2023-07-12T23:35:12.000+02:00</time>
      </trkpt>
      <trkpt lat="43.36013" lon="-3.32327">
        <ele>17</ele>
        <time>2023-07-12T23:35:15.000+02:00</time>
      </trkpt>
      <trkpt lat="43.36034" lon="-3.32306">
        <ele>15.8</ele>
        <time>2023-07-12T23:35:19.000+02:00</time>
      </trkpt>
      <trkpt lat="43.36045" lon="-3.32298">
        <ele>15</ele>
        <time>2023-07-12T23:35:21.000+02:00</time>
      </trkpt>
      <trkpt lat="43.3609" lon="-3.32269">
        <ele>12.3</ele>
        <time>2023-07-12T23:35:29.000+02:00</time>
      </trkpt>
      <trkpt lat="43.36096" lon="-3.32278">
        <ele>11.8</ele>
        <time>2023-07-12T23:35:30.000+02:00</time>
      </trkpt>
      <trkpt lat="43.36133" lon="-3.32325">
        <ele>9.3</ele>
        <time>2023-07-12T23:35:38.000+02:00</time>
      </trkpt>
      <trkpt lat="43.36146" lon="-3.32343">
        <ele>8.8</ele>
        <time>2023-07-12T23:35:40.000+02:00</time>
      </trkpt>
      <trkpt lat="43.36157" lon="-3.32364">
        <ele>8.5</ele>
        <time>2023-07-12T23:35:43.000+02:00</time>
      </trkpt>
      <trkpt lat="43.36163" lon="-3.32376">
        <ele>8.5</ele>
        <time>2023-07-12T23:35:45.000+02:00</time>
      </trkpt>
      <trkpt lat="43.36169" lon="-3.32386">
        <ele>8.5</ele>
        <time>2023-07-12T23:35:46.000+02:00</time>
      </trkpt>
      <trkpt lat="43.36189" lon="-3.32416">
        <ele>8.5</ele>
        <time>2023-07-12T23:35:51.000+02:00</time>
      </trkpt>
      <trkpt lat="43.36204" lon="-3.32435">
        <ele>8.3</ele>
        <time>2023-07-12T23:35:54.000+02:00</time>
      </trkpt>
      <trkpt lat="43.36212" lon="-3.32446">
        <ele>8</ele>
        <time>2023-07-12T23:35:56.000+02:00</time>
      </trkpt>
      <trkpt lat="43.3622" lon="-3.32459">
        <ele>7.8</ele>
        <time>2023-07-12T23:35:58.000+02:00</time>
      </trkpt>
      <trkpt lat="43.36224" lon="-3.32465">
        <ele>7.8</ele>
        <time>2023-07-12T23:35:59.000+02:00</time>
      </trkpt>
      <trkpt lat="43.36237" lon="-3.32497">
        <ele>7.8</ele>
        <time>2023-07-12T23:36:03.000+02:00</time>
      </trkpt>
      <trkpt lat="43.36247" lon="-3.3253">
        <ele>7.8</ele>
        <time>2023-07-12T23:36:06.000+02:00</time>
      </trkpt>
      <trkpt lat="43.36249" lon="-3.32548">
        <ele>7.8</ele>
        <time>2023-07-12T23:36:09.000+02:00</time>
      </trkpt>
      <trkpt lat="43.36249" lon="-3.32555">
        <ele>7.8</ele>
        <time>2023-07-12T23:36:10.000+02:00</time>
      </trkpt>
      <trkpt lat="43.36252" lon="-3.32608">
        <ele>7.8</ele>
        <time>2023-07-12T23:36:16.000+02:00</time>
      </trkpt>
      <trkpt lat="43.36254" lon="-3.32626">
        <ele>7.8</ele>
        <time>2023-07-12T23:36:18.000+02:00</time>
      </trkpt>
      <trkpt lat="43.36259" lon="-3.32649">
        <ele>7.8</ele>
        <time>2023-07-12T23:36:21.000+02:00</time>
      </trkpt>
      <trkpt lat="43.36265" lon="-3.32673">
        <ele>8</ele>
        <time>2023-07-12T23:36:24.000+02:00</time>
      </trkpt>
      <trkpt lat="43.3627" lon="-3.32693">
        <ele>8.3</ele>
        <time>2023-07-12T23:36:26.000+02:00</time>
      </trkpt>
      <trkpt lat="43.36278" lon="-3.32763">
        <ele>10.3</ele>
        <time>2023-07-12T23:36:34.000+02:00</time>
      </trkpt>
      <trkpt lat="43.36281" lon="-3.32804">
        <ele>12.5</ele>
        <time>2023-07-12T23:36:39.000+02:00</time>
      </trkpt>
      <trkpt lat="43.36283" lon="-3.3284">
        <ele>15.5</ele>
        <time>2023-07-12T23:36:43.000+02:00</time>
      </trkpt>
      <trkpt lat="43.36286" lon="-3.3285">
        <ele>17.5</ele>
        <time>2023-07-12T23:36:44.000+02:00</time>
      </trkpt>
      <trkpt lat="43.3629" lon="-3.32859">
        <ele>19</ele>
        <time>2023-07-12T23:36:45.000+02:00</time>
      </trkpt>
      <trkpt lat="43.36313" lon="-3.32886">
        <ele>23.3</ele>
        <time>2023-07-12T23:36:49.000+02:00</time>
      </trkpt>
      <trkpt lat="43.36323" lon="-3.32901">
        <ele>24.8</ele>
        <time>2023-07-12T23:36:52.000+02:00</time>
      </trkpt>
      <trkpt lat="43.36331" lon="-3.32916">
        <ele>26</ele>
        <time>2023-07-12T23:36:54.000+02:00</time>
      </trkpt>
      <trkpt lat="43.36361" lon="-3.32981">
        <ele>39.8</ele>
        <time>2023-07-12T23:37:02.000+02:00</time>
      </trkpt>
      <trkpt lat="43.36369" lon="-3.32989">
        <ele>42.3</ele>
        <time>2023-07-12T23:37:04.000+02:00</time>
      </trkpt>
      <trkpt lat="43.36374" lon="-3.32993">
        <ele>44</ele>
        <time>2023-07-12T23:37:05.000+02:00</time>
      </trkpt>
      <trkpt lat="43.36384" lon="-3.32996">
        <ele>47.3</ele>
        <time>2023-07-12T23:37:06.000+02:00</time>
      </trkpt>
      <trkpt lat="43.36425" lon="-3.3299">
        <ele>58.8</ele>
        <time>2023-07-12T23:37:13.000+02:00</time>
      </trkpt>
      <trkpt lat="43.36439" lon="-3.3299">
        <ele>63</ele>
        <time>2023-07-12T23:37:15.000+02:00</time>
      </trkpt>
      <trkpt lat="43.3645" lon="-3.32987">
        <ele>65.8</ele>
        <time>2023-07-12T23:37:16.000+02:00</time>
      </trkpt>
      <trkpt lat="43.36458" lon="-3.32986">
        <ele>68</ele>
        <time>2023-07-12T23:37:18.000+02:00</time>
      </trkpt>
      <trkpt lat="43.36467" lon="-3.32987">
        <ele>70.8</ele>
        <time>2023-07-12T23:37:19.000+02:00</time>
      </trkpt>
      <trkpt lat="43.36478" lon="-3.32996">
        <ele>74.3</ele>
        <time>2023-07-12T23:37:21.000+02:00</time>
      </trkpt>
      <trkpt lat="43.36491" lon="-3.33004">
        <ele>78.3</ele>
        <time>2023-07-12T23:37:23.000+02:00</time>
      </trkpt>
      <trkpt lat="43.36499" lon="-3.33003">
        <ele>80.8</ele>
        <time>2023-07-12T23:37:24.000+02:00</time>
      </trkpt>
      <trkpt lat="43.36503" lon="-3.33">
        <ele>81.5</ele>
        <time>2023-07-12T23:37:25.000+02:00</time>
      </trkpt>
      <trkpt lat="43.36505" lon="-3.32996">
        <ele>81.5</ele>
        <time>2023-07-12T23:37:26.000+02:00</time>
      </trkpt>
      <trkpt lat="43.36506" lon="-3.32984">
        <ele>81</ele>
        <time>2023-07-12T23:37:27.000+02:00</time>
      </trkpt>
      <trkpt lat="43.36504" lon="-3.32954">
        <ele>78.8</ele>
        <time>2023-07-12T23:37:30.000+02:00</time>
      </trkpt>
      <trkpt lat="43.36505" lon="-3.3293">
        <ele>77.3</ele>
        <time>2023-07-12T23:37:33.000+02:00</time>
      </trkpt>
      <trkpt lat="43.36509" lon="-3.32917">
        <ele>77.3</ele>
        <time>2023-07-12T23:37:35.000+02:00</time>
      </trkpt>
      <trkpt lat="43.36517" lon="-3.32904">
        <ele>75.3</ele>
        <time>2023-07-12T23:37:37.000+02:00</time>
      </trkpt>
      <trkpt lat="43.36529" lon="-3.32895">
        <ele>75</ele>
        <time>2023-07-12T23:37:39.000+02:00</time>
      </trkpt>
      <trkpt lat="43.36537" lon="-3.32892">
        <ele>75.8</ele>
        <time>2023-07-12T23:37:40.000+02:00</time>
      </trkpt>
      <trkpt lat="43.36554" lon="-3.329">
        <ele>80.3</ele>
        <time>2023-07-12T23:37:43.000+02:00</time>
      </trkpt>
      <trkpt lat="43.36564" lon="-3.32914">
        <ele>84.5</ele>
        <time>2023-07-12T23:37:45.000+02:00</time>
      </trkpt>
      <trkpt lat="43.36574" lon="-3.32935">
        <ele>88</ele>
        <time>2023-07-12T23:37:48.000+02:00</time>
      </trkpt>
      <trkpt lat="43.3658" lon="-3.32952">
        <ele>90.5</ele>
        <time>2023-07-12T23:37:50.000+02:00</time>
      </trkpt>
      <trkpt lat="43.36602" lon="-3.33001">
        <ele>99.3</ele>
        <time>2023-07-12T23:37:56.000+02:00</time>
      </trkpt>
      <trkpt lat="43.36612" lon="-3.3302">
        <ele>101.3</ele>
        <time>2023-07-12T23:37:59.000+02:00</time>
      </trkpt>
      <trkpt lat="43.36622" lon="-3.33033">
        <ele>103.5</ele>
        <time>2023-07-12T23:38:01.000+02:00</time>
      </trkpt>
      <trkpt lat="43.36633" lon="-3.33044">
        <ele>106</ele>
        <time>2023-07-12T23:38:03.000+02:00</time>
      </trkpt>
      <trkpt lat="43.36644" lon="-3.33051">
        <ele>108.5</ele>
        <time>2023-07-12T23:38:05.000+02:00</time>
      </trkpt>
      <trkpt lat="43.36661" lon="-3.33056">
        <ele>112.5</ele>
        <time>2023-07-12T23:38:07.000+02:00</time>
      </trkpt>
      <trkpt lat="43.3668" lon="-3.33063">
        <ele>117.8</ele>
        <time>2023-07-12T23:38:10.000+02:00</time>
      </trkpt>
      <trkpt lat="43.36708" lon="-3.33084">
        <ele>127</ele>
        <time>2023-07-12T23:38:15.000+02:00</time>
      </trkpt>
      <trkpt lat="43.36719" lon="-3.33093">
        <ele>130</ele>
        <time>2023-07-12T23:38:17.000+02:00</time>
      </trkpt>
      <trkpt lat="43.36748" lon="-3.33154">
        <ele>137</ele>
        <time>2023-07-12T23:38:25.000+02:00</time>
      </trkpt>
      <trkpt lat="43.36761" lon="-3.33182">
        <ele>139.8</ele>
        <time>2023-07-12T23:38:29.000+02:00</time>
      </trkpt>
      <trkpt lat="43.36785" lon="-3.33226">
        <ele>144.3</ele>
        <time>2023-07-12T23:38:35.000+02:00</time>
      </trkpt>
      <trkpt lat="43.36791" lon="-3.33237">
        <ele>145</ele>
        <time>2023-07-12T23:38:37.000+02:00</time>
      </trkpt>
      <trkpt lat="43.36794" lon="-3.33249">
        <ele>145.3</ele>
        <time>2023-07-12T23:38:38.000+02:00</time>
      </trkpt>
      <trkpt lat="43.36794" lon="-3.33249">
        <ele>145.3</ele>
        <time>2023-07-12T23:38:38.000+02:00</time>
      </trkpt>
      <trkpt lat="43.36789" lon="-3.33253">
        <ele>144.8</ele>
        <time>2023-07-12T23:38:39.000+02:00</time>
      </trkpt>
      <trkpt lat="43.36779" lon="-3.3326">
        <ele>144</ele>
        <time>2023-07-12T23:38:41.000+02:00</time>
      </trkpt>
      <trkpt lat="43.36764" lon="-3.33264">
        <ele>142.5</ele>
        <time>2023-07-12T23:38:43.000+02:00</time>
      </trkpt>
      <trkpt lat="43.36718" lon="-3.33271">
        <ele>137.8</ele>
        <time>2023-07-12T23:38:50.000+02:00</time>
      </trkpt>
      <trkpt lat="43.3671" lon="-3.33278">
        <ele>137.3</ele>
        <time>2023-07-12T23:38:51.000+02:00</time>
      </trkpt>
      <trkpt lat="43.36703" lon="-3.3329">
        <ele>137.3</ele>
        <time>2023-07-12T23:38:53.000+02:00</time>
      </trkpt>
      <trkpt lat="43.36704" lon="-3.33306">
        <ele>138.5</ele>
        <time>2023-07-12T23:38:55.000+02:00</time>
      </trkpt>
      <trkpt lat="43.36705" lon="-3.33319">
        <ele>139.8</ele>
        <time>2023-07-12T23:38:56.000+02:00</time>
      </trkpt>
      <trkpt lat="43.3671" lon="-3.3334">
        <ele>142.3</ele>
        <time>2023-07-12T23:38:59.000+02:00</time>
      </trkpt>
      <trkpt lat="43.36717" lon="-3.33353">
        <ele>144.8</ele>
        <time>2023-07-12T23:39:01.000+02:00</time>
      </trkpt>
      <trkpt lat="43.36729" lon="-3.33369">
        <ele>149</ele>
        <time>2023-07-12T23:39:03.000+02:00</time>
      </trkpt>
      <trkpt lat="43.36737" lon="-3.33389">
        <ele>153.3</ele>
        <time>2023-07-12T23:39:06.000+02:00</time>
      </trkpt>
      <trkpt lat="43.36738" lon="-3.33413">
        <ele>156.3</ele>
        <time>2023-07-12T23:39:08.000+02:00</time>
      </trkpt>
      <trkpt lat="43.36736" lon="-3.33428">
        <ele>156</ele>
        <time>2023-07-12T23:39:10.000+02:00</time>
      </trkpt>
      <trkpt lat="43.36734" lon="-3.33439">
        <ele>155.3</ele>
        <time>2023-07-12T23:39:11.000+02:00</time>
      </trkpt>
      <trkpt lat="43.36729" lon="-3.33449">
        <ele>153.8</ele>
        <time>2023-07-12T23:39:13.000+02:00</time>
      </trkpt>
      <trkpt lat="43.36716" lon="-3.33474">
        <ele>150</ele>
        <time>2023-07-12T23:39:16.000+02:00</time>
      </trkpt>
      <trkpt lat="43.36706" lon="-3.33501">
        <ele>147.8</ele>
        <time>2023-07-12T23:39:20.000+02:00</time>
      </trkpt>
      <trkpt lat="43.36703" lon="-3.33515">
        <ele>147.8</ele>
        <time>2023-07-12T23:39:21.000+02:00</time>
      </trkpt>
      <trkpt lat="43.36703" lon="-3.33529">
        <ele>148.8</ele>
        <time>2023-07-12T23:39:23.000+02:00</time>
      </trkpt>
      <trkpt lat="43.36695" lon="-3.33573">
        <ele>152</ele>
        <time>2023-07-12T23:39:28.000+02:00</time>
      </trkpt>
      <trkpt lat="43.3669" lon="-3.33576">
        <ele>152.8</ele>
        <time>2023-07-12T23:39:29.000+02:00</time>
      </trkpt>
      <trkpt lat="43.36675" lon="-3.3357">
        <ele>152.3</ele>
        <time>2023-07-12T23:39:31.000+02:00</time>
      </trkpt>
      <trkpt lat="43.36668" lon="-3.33572">
        <ele>153</ele>
        <time>2023-07-12T23:39:32.000+02:00</time>
      </trkpt>
      <trkpt lat="43.36666" lon="-3.33579">
        <ele>154.8</ele>
        <time>2023-07-12T23:39:33.000+02:00</time>
      </trkpt>
      <trkpt lat="43.36668" lon="-3.33591">
        <ele>157.8</ele>
        <time>2023-07-12T23:39:34.000+02:00</time>
      </trkpt>
      <trkpt lat="43.36679" lon="-3.33612">
        <ele>161.8</ele>
        <time>2023-07-12T23:39:37.000+02:00</time>
      </trkpt>
      <trkpt lat="43.367" lon="-3.33671">
        <ele>169.8</ele>
        <time>2023-07-12T23:39:44.000+02:00</time>
      </trkpt>
      <trkpt lat="43.36705" lon="-3.33702">
        <ele>171.3</ele>
        <time>2023-07-12T23:39:48.000+02:00</time>
      </trkpt>
      <trkpt lat="43.36708" lon="-3.33722">
        <ele>172.3</ele>
        <time>2023-07-12T23:39:50.000+02:00</time>
      </trkpt>
      <trkpt lat="43.36708" lon="-3.33739">
        <ele>174</ele>
        <time>2023-07-12T23:39:52.000+02:00</time>
      </trkpt>
      <trkpt lat="43.36705" lon="-3.33772">
        <ele>175.3</ele>
        <time>2023-07-12T23:39:56.000+02:00</time>
      </trkpt>
      <trkpt lat="43.36694" lon="-3.33808">
        <ele>176.3</ele>
        <time>2023-07-12T23:40:00.000+02:00</time>
      </trkpt>
      <trkpt lat="43.3668" lon="-3.33828">
        <ele>177</ele>
        <time>2023-07-12T23:40:03.000+02:00</time>
      </trkpt>
      <trkpt lat="43.36635" lon="-3.33865">
        <ele>179.3</ele>
        <time>2023-07-12T23:40:11.000+02:00</time>
      </trkpt>
      <trkpt lat="43.36627" lon="-3.33879">
        <ele>179.3</ele>
        <time>2023-07-12T23:40:13.000+02:00</time>
      </trkpt>
      <trkpt lat="43.36623" lon="-3.33893">
        <ele>178.5</ele>
        <time>2023-07-12T23:40:15.000+02:00</time>
      </trkpt>
      <trkpt lat="43.3662" lon="-3.33911">
        <ele>177.3</ele>
        <time>2023-07-12T23:40:17.000+02:00</time>
      </trkpt>
      <trkpt lat="43.3662" lon="-3.33928">
        <ele>176.8</ele>
        <time>2023-07-12T23:40:19.000+02:00</time>
      </trkpt>
      <trkpt lat="43.36617" lon="-3.33936">
        <ele>176.5</ele>
        <time>2023-07-12T23:40:20.000+02:00</time>
      </trkpt>
      <trkpt lat="43.36604" lon="-3.33954">
        <ele>177</ele>
        <time>2023-07-12T23:40:23.000+02:00</time>
      </trkpt>
      <trkpt lat="43.36597" lon="-3.33965">
        <ele>177</ele>
        <time>2023-07-12T23:40:24.000+02:00</time>
      </trkpt>
      <trkpt lat="43.36593" lon="-3.33978">
        <ele>176.8</ele>
        <time>2023-07-12T23:40:26.000+02:00</time>
      </trkpt>
      <trkpt lat="43.36586" lon="-3.33991">
        <ele>176.3</ele>
        <time>2023-07-12T23:40:28.000+02:00</time>
      </trkpt>
      <trkpt lat="43.36555" lon="-3.34026">
        <ele>176.5</ele>
        <time>2023-07-12T23:40:34.000+02:00</time>
      </trkpt>
      <trkpt lat="43.36546" lon="-3.34026">
        <ele>177</ele>
        <time>2023-07-12T23:40:35.000+02:00</time>
      </trkpt>
      <trkpt lat="43.36535" lon="-3.3403">
        <ele>177.3</ele>
        <time>2023-07-12T23:40:37.000+02:00</time>
      </trkpt>
      <trkpt lat="43.36524" lon="-3.34048">
        <ele>177.5</ele>
        <time>2023-07-12T23:40:39.000+02:00</time>
      </trkpt>
      <trkpt lat="43.36505" lon="-3.34068">
        <ele>178</ele>
        <time>2023-07-12T23:40:43.000+02:00</time>
      </trkpt>
      <trkpt lat="43.36456" lon="-3.34096">
        <ele>178.5</ele>
        <time>2023-07-12T23:40:51.000+02:00</time>
      </trkpt>
      <trkpt lat="43.36438" lon="-3.34109">
        <ele>179.3</ele>
        <time>2023-07-12T23:40:54.000+02:00</time>
      </trkpt>
      <trkpt lat="43.36424" lon="-3.34128">
        <ele>180.5</ele>
        <time>2023-07-12T23:40:57.000+02:00</time>
      </trkpt>
      <trkpt lat="43.36418" lon="-3.34145">
        <ele>181.5</ele>
        <time>2023-07-12T23:40:59.000+02:00</time>
      </trkpt>
      <trkpt lat="43.36419" lon="-3.34169">
        <ele>183</ele>
        <time>2023-07-12T23:41:02.000+02:00</time>
      </trkpt>
      <trkpt lat="43.36425" lon="-3.34237">
        <ele>187.8</ele>
        <time>2023-07-12T23:41:10.000+02:00</time>
      </trkpt>
      <trkpt lat="43.36424" lon="-3.34255">
        <ele>189</ele>
        <time>2023-07-12T23:41:12.000+02:00</time>
      </trkpt>
      <trkpt lat="43.3642" lon="-3.34262">
        <ele>189.8</ele>
        <time>2023-07-12T23:41:13.000+02:00</time>
      </trkpt>
      <trkpt lat="43.36403" lon="-3.34268">
        <ele>190.3</ele>
        <time>2023-07-12T23:41:15.000+02:00</time>
      </trkpt>
      <trkpt lat="43.36381" lon="-3.34278">
        <ele>191.8</ele>
        <time>2023-07-12T23:41:19.000+02:00</time>
      </trkpt>
      <trkpt lat="43.36356" lon="-3.34292">
        <ele>194</ele>
        <time>2023-07-12T23:41:23.000+02:00</time>
      </trkpt>
      <trkpt lat="43.36337" lon="-3.34299">
        <ele>195.8</ele>
        <time>2023-07-12T23:41:26.000+02:00</time>
      </trkpt>
      <trkpt lat="43.36312" lon="-3.34312">
        <ele>196.5</ele>
        <time>2023-07-12T23:41:30.000+02:00</time>
      </trkpt>
      <trkpt lat="43.36298" lon="-3.34327">
        <ele>197.8</ele>
        <time>2023-07-12T23:41:33.000+02:00</time>
      </trkpt>
      <trkpt lat="43.36281" lon="-3.3434">
        <ele>198</ele>
        <time>2023-07-12T23:41:36.000+02:00</time>
      </trkpt>
      <trkpt lat="43.36252" lon="-3.34366">
        <ele>201.3</ele>
        <time>2023-07-12T23:41:41.000+02:00</time>
      </trkpt>
      <trkpt lat="43.36242" lon="-3.3438">
        <ele>205.3</ele>
        <time>2023-07-12T23:41:43.000+02:00</time>
      </trkpt>
      <trkpt lat="43.36235" lon="-3.34394">
        <ele>208.8</ele>
        <time>2023-07-12T23:41:45.000+02:00</time>
      </trkpt>
      <trkpt lat="43.36229" lon="-3.3441">
        <ele>212.5</ele>
        <time>2023-07-12T23:41:47.000+02:00</time>
      </trkpt>
      <trkpt lat="43.36216" lon="-3.34441">
        <ele>221.8</ele>
        <time>2023-07-12T23:41:51.000+02:00</time>
      </trkpt>
      <trkpt lat="43.36215" lon="-3.34457">
        <ele>226</ele>
        <time>2023-07-12T23:41:53.000+02:00</time>
      </trkpt>
      <trkpt lat="43.36218" lon="-3.3447">
        <ele>229</ele>
        <time>2023-07-12T23:41:55.000+02:00</time>
      </trkpt>
      <trkpt lat="43.36226" lon="-3.34483">
        <ele>231.3</ele>
        <time>2023-07-12T23:41:58.000+02:00</time>
      </trkpt>
      <trkpt lat="43.36244" lon="-3.34499">
        <ele>233.3</ele>
        <time>2023-07-12T23:42:02.000+02:00</time>
      </trkpt>
      <trkpt lat="43.36267" lon="-3.34523">
        <ele>234</ele>
        <time>2023-07-12T23:42:08.000+02:00</time>
      </trkpt>
      <trkpt lat="43.36289" lon="-3.34549">
        <ele>234</ele>
        <time>2023-07-12T23:42:14.000+02:00</time>
      </trkpt>
      <trkpt lat="43.36312" lon="-3.34573">
        <ele>232.8</ele>
        <time>2023-07-12T23:42:20.000+02:00</time>
      </trkpt>
      <trkpt lat="43.36333" lon="-3.34606">
        <ele>232.5</ele>
        <time>2023-07-12T23:42:26.000+02:00</time>
      </trkpt>
      <trkpt lat="43.36372" lon="-3.34816">
        <ele>270</ele>
        <time>2023-07-12T23:42:59.000+02:00</time>
      </trkpt>
      <trkpt lat="43.36387" lon="-3.34837">
        <ele>271.5</ele>
        <time>2023-07-12T23:43:03.000+02:00</time>
      </trkpt>
      <trkpt lat="43.36405" lon="-3.34851">
        <ele>270</ele>
        <time>2023-07-12T23:43:07.000+02:00</time>
      </trkpt>
      <trkpt lat="43.3642" lon="-3.34873">
        <ele>271.5</ele>
        <time>2023-07-12T23:43:12.000+02:00</time>
      </trkpt>
      <trkpt lat="43.36449" lon="-3.34898">
        <ele>270.8</ele>
        <time>2023-07-12T23:43:19.000+02:00</time>
      </trkpt>
      <trkpt lat="43.36454" lon="-3.34916">
        <ele>273.8</ele>
        <time>2023-07-12T23:43:21.000+02:00</time>
      </trkpt>
      <trkpt lat="43.36452" lon="-3.34948">
        <ele>281.5</ele>
        <time>2023-07-12T23:43:26.000+02:00</time>
      </trkpt>
      <trkpt lat="43.36463" lon="-3.34993">
        <ele>288.3</ele>
        <time>2023-07-12T23:43:33.000+02:00</time>
      </trkpt>
      <trkpt lat="43.36511" lon="-3.35105">
        <ele>295.8</ele>
        <time>2023-07-12T23:43:53.000+02:00</time>
      </trkpt>
      <trkpt lat="43.36527" lon="-3.35115">
        <ele>293.5</ele>
        <time>2023-07-12T23:43:56.000+02:00</time>
      </trkpt>
      <trkpt lat="43.36563" lon="-3.35124">
        <ele>286</ele>
        <time>2023-07-12T23:44:03.000+02:00</time>
      </trkpt>
      <trkpt lat="43.3657" lon="-3.35136">
        <ele>286.5</ele>
        <time>2023-07-12T23:44:06.000+02:00</time>
      </trkpt>
      <trkpt lat="43.36588" lon="-3.35182">
        <ele>289</ele>
        <time>2023-07-12T23:44:17.000+02:00</time>
      </trkpt>
      <trkpt lat="43.36592" lon="-3.35194">
        <ele>289.8</ele>
        <time>2023-07-12T23:44:20.000+02:00</time>
      </trkpt>
      <trkpt lat="43.36595" lon="-3.35217">
        <ele>291.8</ele>
        <time>2023-07-12T23:44:25.000+02:00</time>
      </trkpt>
      <trkpt lat="43.36594" lon="-3.3532">
        <ele>303</ele>
        <time>2023-07-12T23:44:48.000+02:00</time>
      </trkpt>
      <trkpt lat="43.3659" lon="-3.35335">
        <ele>305.5</ele>
        <time>2023-07-12T23:44:52.000+02:00</time>
      </trkpt>
      <trkpt lat="43.3655" lon="-3.35416">
        <ele>314.3</ele>
        <time>2023-07-12T23:45:13.000+02:00</time>
      </trkpt>
      <trkpt lat="43.36528" lon="-3.35452">
        <ele>316.5</ele>
        <time>2023-07-12T23:45:24.000+02:00</time>
      </trkpt>
      <trkpt lat="43.365" lon="-3.35506">
        <ele>318.8</ele>
        <time>2023-07-12T23:45:38.000+02:00</time>
      </trkpt>
      <trkpt lat="43.36483" lon="-3.35533">
        <ele>318.8</ele>
        <time>2023-07-12T23:45:46.000+02:00</time>
      </trkpt>
      <trkpt lat="43.36447" lon="-3.35556">
        <ele>325.3</ele>
        <time>2023-07-12T23:45:58.000+02:00</time>
      </trkpt>
      <trkpt lat="43.3643" lon="-3.35562">
        <ele>329</ele>
        <time>2023-07-12T23:46:04.000+02:00</time>
      </trkpt>
      <trkpt lat="43.36415" lon="-3.35562">
        <ele>333</ele>
        <time>2023-07-12T23:46:08.000+02:00</time>
      </trkpt>
      <trkpt lat="43.36368" lon="-3.35603">
        <ele>341.8</ele>
        <time>2023-07-12T23:46:25.000+02:00</time>
      </trkpt>
      <trkpt lat="43.36366" lon="-3.35618">
        <ele>342.3</ele>
        <time>2023-07-12T23:46:29.000+02:00</time>
      </trkpt>
      <trkpt lat="43.36352" lon="-3.35713">
        <ele>346.5</ele>
        <time>2023-07-12T23:46:53.000+02:00</time>
      </trkpt>
      <trkpt lat="43.36311" lon="-3.35764">
        <ele>352.8</ele>
        <time>2023-07-12T23:47:12.000+02:00</time>
      </trkpt>
      <trkpt lat="43.36302" lon="-3.3576">
        <ele>355</ele>
        <time>2023-07-12T23:47:15.000+02:00</time>
      </trkpt>
      <trkpt lat="43.36187" lon="-3.35691">
        <ele>381.5</ele>
        <time>2023-07-12T23:47:58.000+02:00</time>
      </trkpt>
      <trkpt lat="43.36148" lon="-3.35645">
        <ele>388</ele>
        <time>2023-07-12T23:48:16.000+02:00</time>
      </trkpt>
      <trkpt lat="43.36124" lon="-3.35623">
        <ele>391.3</ele>
        <time>2023-07-12T23:48:26.000+02:00</time>
      </trkpt>
      <trkpt lat="43.36116" lon="-3.35627">
        <ele>392.5</ele>
        <time>2023-07-12T23:48:29.000+02:00</time>
      </trkpt>
      <trkpt lat="43.3609" lon="-3.35887">
        <ele>393</ele>
        <time>2023-07-12T23:49:35.000+02:00</time>
      </trkpt>
      <trkpt lat="43.36083" lon="-3.35883">
        <ele>394.3</ele>
        <time>2023-07-12T23:49:37.000+02:00</time>
      </trkpt>
      <trkpt lat="43.36071" lon="-3.35879">
        <ele>394.3</ele>
        <time>2023-07-12T23:49:42.000+02:00</time>
      </trkpt>
      <trkpt lat="43.36052" lon="-3.35879">
        <ele>393.5</ele>
        <time>2023-07-12T23:49:48.000+02:00</time>
      </trkpt>
      <trkpt lat="43.36037" lon="-3.35885">
        <ele>393.3</ele>
        <time>2023-07-12T23:49:53.000+02:00</time>
      </trkpt>
      <trkpt lat="43.36023" lon="-3.359">
        <ele>393.8</ele>
        <time>2023-07-12T23:49:59.000+02:00</time>
      </trkpt>
      <trkpt lat="43.36008" lon="-3.35918">
        <ele>395.8</ele>
        <time>2023-07-12T23:50:07.000+02:00</time>
      </trkpt>
      <trkpt lat="43.35993" lon="-3.35944">
        <ele>398.3</ele>
        <time>2023-07-12T23:50:15.000+02:00</time>
      </trkpt>
      <trkpt lat="43.35976" lon="-3.35973">
        <ele>400.5</ele>
        <time>2023-07-12T23:50:24.000+02:00</time>
      </trkpt>
      <trkpt lat="43.35958" lon="-3.36006">
        <ele>405.3</ele>
        <time>2023-07-12T23:50:34.000+02:00</time>
      </trkpt>
      <trkpt lat="43.35947" lon="-3.36024">
        <ele>407.5</ele>
        <time>2023-07-12T23:50:40.000+02:00</time>
      </trkpt>
      <trkpt lat="43.35937" lon="-3.36048">
        <ele>411.8</ele>
        <time>2023-07-12T23:50:47.000+02:00</time>
      </trkpt>
      <trkpt lat="43.35928" lon="-3.36061">
        <ele>414.5</ele>
        <time>2023-07-12T23:50:52.000+02:00</time>
      </trkpt>
      <trkpt lat="43.35918" lon="-3.36073">
        <ele>417.5</ele>
        <time>2023-07-12T23:50:56.000+02:00</time>
      </trkpt>
      <trkpt lat="43.35913" lon="-3.36087">
        <ele>419.5</ele>
        <time>2023-07-12T23:51:00.000+02:00</time>
      </trkpt>
      <trkpt lat="43.3591" lon="-3.36101">
        <ele>421</ele>
        <time>2023-07-12T23:51:04.000+02:00</time>
      </trkpt>
      <trkpt lat="43.3591" lon="-3.36121">
        <ele>423.8</ele>
        <time>2023-07-12T23:51:09.000+02:00</time>
      </trkpt>
      <trkpt lat="43.35907" lon="-3.36138">
        <ele>426</ele>
        <time>2023-07-12T23:51:13.000+02:00</time>
      </trkpt>
      <trkpt lat="43.359" lon="-3.36149">
        <ele>427</ele>
        <time>2023-07-12T23:51:17.000+02:00</time>
      </trkpt>
      <trkpt lat="43.35891" lon="-3.36158">
        <ele>427.8</ele>
        <time>2023-07-12T23:51:21.000+02:00</time>
      </trkpt>
      <trkpt lat="43.3588" lon="-3.36171">
        <ele>429.5</ele>
        <time>2023-07-12T23:51:26.000+02:00</time>
      </trkpt>
      <trkpt lat="43.35868" lon="-3.36181">
        <ele>431.5</ele>
        <time>2023-07-12T23:51:31.000+02:00</time>
      </trkpt>
      <trkpt lat="43.35845" lon="-3.36203">
        <ele>436.5</ele>
        <time>2023-07-12T23:51:40.000+02:00</time>
      </trkpt>
      <trkpt lat="43.35831" lon="-3.36213">
        <ele>438.8</ele>
        <time>2023-07-12T23:51:45.000+02:00</time>
      </trkpt>
      <trkpt lat="43.35817" lon="-3.36226">
        <ele>439.3</ele>
        <time>2023-07-12T23:51:51.000+02:00</time>
      </trkpt>
      <trkpt lat="43.358" lon="-3.36243">
        <ele>440.5</ele>
        <time>2023-07-12T23:51:59.000+02:00</time>
      </trkpt>
      <trkpt lat="43.35768" lon="-3.36261">
        <ele>438.5</ele>
        <time>2023-07-12T23:52:10.000+02:00</time>
      </trkpt>
      <trkpt lat="43.35751" lon="-3.36269">
        <ele>437.5</ele>
        <time>2023-07-12T23:52:17.000+02:00</time>
      </trkpt>
      <trkpt lat="43.35733" lon="-3.36283">
        <ele>441</ele>
        <time>2023-07-12T23:52:24.000+02:00</time>
      </trkpt>
      <trkpt lat="43.35724" lon="-3.36288">
        <ele>442.3</ele>
        <time>2023-07-12T23:52:27.000+02:00</time>
      </trkpt>
      <trkpt lat="43.35713" lon="-3.36288">
        <ele>441.8</ele>
        <time>2023-07-12T23:52:31.000+02:00</time>
      </trkpt>
      <trkpt lat="43.35697" lon="-3.36285">
        <ele>440</ele>
        <time>2023-07-12T23:52:37.000+02:00</time>
      </trkpt>
      <trkpt lat="43.35683" lon="-3.36276">
        <ele>436.3</ele>
        <time>2023-07-12T23:52:42.000+02:00</time>
      </trkpt>
      <trkpt lat="43.35668" lon="-3.36262">
        <ele>429.8</ele>
        <time>2023-07-12T23:52:48.000+02:00</time>
      </trkpt>
      <trkpt lat="43.35655" lon="-3.36251">
        <ele>429.3</ele>
        <time>2023-07-12T23:52:53.000+02:00</time>
      </trkpt>
      <trkpt lat="43.35624" lon="-3.3623">
        <ele>432.3</ele>
        <time>2023-07-12T23:53:05.000+02:00</time>
      </trkpt>
      <trkpt lat="43.35608" lon="-3.36215">
        <ele>432.8</ele>
        <time>2023-07-12T23:53:12.000+02:00</time>
      </trkpt>
      <trkpt lat="43.3558" lon="-3.36192">
        <ele>434</ele>
        <time>2023-07-12T23:53:23.000+02:00</time>
      </trkpt>
      <trkpt lat="43.3554" lon="-3.36156">
        <ele>428.3</ele>
        <time>2023-07-12T23:54:05.000+02:00</time>
      </trkpt>
      <trkpt lat="43.35534" lon="-3.3615">
        <ele>427.5</ele>
        <time>2023-07-12T23:54:12.000+02:00</time>
      </trkpt>
      <trkpt lat="43.35526" lon="-3.36148">
        <ele>428</ele>
        <time>2023-07-12T23:54:19.000+02:00</time>
      </trkpt>
      <trkpt lat="43.35516" lon="-3.36153">
        <ele>430.5</ele>
        <time>2023-07-12T23:54:28.000+02:00</time>
      </trkpt>
      <trkpt lat="43.35511" lon="-3.36159">
        <ele>432.5</ele>
        <time>2023-07-12T23:54:34.000+02:00</time>
      </trkpt>
      <trkpt lat="43.35497" lon="-3.36189">
        <ele>443</ele>
        <time>2023-07-12T23:54:57.000+02:00</time>
      </trkpt>
      <trkpt lat="43.3549" lon="-3.36198">
        <ele>445</ele>
        <time>2023-07-12T23:55:05.000+02:00</time>
      </trkpt>
      <trkpt lat="43.35483" lon="-3.36202">
        <ele>445.3</ele>
        <time>2023-07-12T23:55:12.000+02:00</time>
      </trkpt>
      <trkpt lat="43.35469" lon="-3.36206">
        <ele>444.3</ele>
        <time>2023-07-12T23:55:25.000+02:00</time>
      </trkpt>
      <trkpt lat="43.35449" lon="-3.36207">
        <ele>441.3</ele>
        <time>2023-07-12T23:55:43.000+02:00</time>
      </trkpt>
      <trkpt lat="43.35434" lon="-3.3621">
        <ele>440</ele>
        <time>2023-07-12T23:55:56.000+02:00</time>
      </trkpt>
      <trkpt lat="43.35417" lon="-3.36212">
        <ele>437.8</ele>
        <time>2023-07-12T23:56:11.000+02:00</time>
      </trkpt>
      <trkpt lat="43.35406" lon="-3.3622">
        <ele>436</ele>
        <time>2023-07-12T23:56:22.000+02:00</time>
      </trkpt>
      <trkpt lat="43.35397" lon="-3.36234">
        <ele>436.3</ele>
        <time>2023-07-12T23:56:34.000+02:00</time>
      </trkpt>
      <trkpt lat="43.3539" lon="-3.36255">
        <ele>439.3</ele>
        <time>2023-07-12T23:56:49.000+02:00</time>
      </trkpt>
      <trkpt lat="43.35376" lon="-3.36275">
        <ele>439</ele>
        <time>2023-07-12T23:57:07.000+02:00</time>
      </trkpt>
      <trkpt lat="43.35366" lon="-3.36298">
        <ele>440.5</ele>
        <time>2023-07-12T23:57:24.000+02:00</time>
      </trkpt>
      <trkpt lat="43.35357" lon="-3.36308">
        <ele>439.3</ele>
        <time>2023-07-12T23:57:34.000+02:00</time>
      </trkpt>
      <trkpt lat="43.35351" lon="-3.36317">
        <ele>439</ele>
        <time>2023-07-12T23:57:42.000+02:00</time>
      </trkpt>
      <trkpt lat="43.35339" lon="-3.36344">
        <ele>441.3</ele>
        <time>2023-07-12T23:58:02.000+02:00</time>
      </trkpt>
      <trkpt lat="43.35332" lon="-3.36363">
        <ele>445.5</ele>
        <time>2023-07-12T23:58:16.000+02:00</time>
      </trkpt>
      <trkpt lat="43.35326" lon="-3.36381">
        <ele>451.8</ele>
        <time>2023-07-12T23:58:28.000+02:00</time>
      </trkpt>
      <trkpt lat="43.3532" lon="-3.36391">
        <ele>455.3</ele>
        <time>2023-07-12T23:58:37.000+02:00</time>
      </trkpt>
      <trkpt lat="43.35312" lon="-3.36395">
        <ele>456.8</ele>
        <time>2023-07-12T23:58:45.000+02:00</time>
      </trkpt>
      <trkpt lat="43.35298" lon="-3.36393">
        <ele>456.3</ele>
        <time>2023-07-12T23:58:57.000+02:00</time>
      </trkpt>
      <trkpt lat="43.35281" lon="-3.36388">
        <ele>454.8</ele>
        <time>2023-07-12T23:59:13.000+02:00</time>
      </trkpt>
      <trkpt lat="43.35267" lon="-3.36381">
        <ele>452.8</ele>
        <time>2023-07-12T23:59:26.000+02:00</time>
      </trkpt>
      <trkpt lat="43.35251" lon="-3.3637">
        <ele>449.3</ele>
        <time>2023-07-12T23:59:42.000+02:00</time>
      </trkpt>
      <trkpt lat="43.35217" lon="-3.3633">
        <ele>445.8</ele>
        <time>2023-07-13T00:00:21.000+02:00</time>
      </trkpt>
      <trkpt lat="43.352" lon="-3.36308">
        <ele>443.3</ele>
        <time>2023-07-13T00:00:42.000+02:00</time>
      </trkpt>
      <trkpt lat="43.35188" lon="-3.36296">
        <ele>442.3</ele>
        <time>2023-07-13T00:00:55.000+02:00</time>
      </trkpt>
      <trkpt lat="43.35177" lon="-3.36289">
        <ele>442.8</ele>
        <time>2023-07-13T00:01:06.000+02:00</time>
      </trkpt>
      <trkpt lat="43.35165" lon="-3.36292">
        <ele>446.5</ele>
        <time>2023-07-13T00:01:16.000+02:00</time>
      </trkpt>
      <trkpt lat="43.35115" lon="-3.36317">
        <ele>453</ele>
        <time>2023-07-13T00:02:03.000+02:00</time>
      </trkpt>
      <trkpt lat="43.35102" lon="-3.36325">
        <ele>455</ele>
        <time>2023-07-13T00:02:16.000+02:00</time>
      </trkpt>
      <trkpt lat="43.35089" lon="-3.3634">
        <ele>458.3</ele>
        <time>2023-07-13T00:02:31.000+02:00</time>
      </trkpt>
      <trkpt lat="43.35074" lon="-3.36355">
        <ele>459.8</ele>
        <time>2023-07-13T00:02:48.000+02:00</time>
      </trkpt>
      <trkpt lat="43.3506" lon="-3.36373">
        <ele>461.5</ele>
        <time>2023-07-13T00:03:04.000+02:00</time>
      </trkpt>
      <trkpt lat="43.35052" lon="-3.36389">
        <ele>463</ele>
        <time>2023-07-13T00:03:17.000+02:00</time>
      </trkpt>
      <trkpt lat="43.35052" lon="-3.36389">
        <ele>462.1</ele>
        <time>2023-07-13T00:03:17.000+02:00</time>
      </trkpt>
      <trkpt lat="43.35048" lon="-3.36513">
        <ele>470.6</ele>
        <time>2023-07-13T00:05:28.000+02:00</time>
      </trkpt>
      <trkpt lat="43.35044" lon="-3.36638">
        <ele>470.9</ele>
        <time>2023-07-13T00:07:39.000+02:00</time>
      </trkpt>
      <trkpt lat="43.35046" lon="-3.36765">
        <ele>473.9</ele>
        <time>2023-07-13T00:09:53.000+02:00</time>
      </trkpt>
      <trkpt lat="43.35047" lon="-3.36892">
        <ele>471.2</ele>
        <time>2023-07-13T00:12:07.000+02:00</time>
      </trkpt>
      <trkpt lat="43.35048" lon="-3.36965">
        <ele>465.6</ele>
        <time>2023-07-13T00:13:24.000+02:00</time>
      </trkpt>
      <trkpt lat="43.35053" lon="-3.36978">
        <ele>465.5</ele>
        <time>2023-07-13T00:13:40.000+02:00</time>
      </trkpt>
      <trkpt lat="43.35079" lon="-3.37015">
        <ele>465.3</ele>
        <time>2023-07-13T00:13:55.000+02:00</time>
      </trkpt>
      <trkpt lat="43.3509" lon="-3.37021">
        <ele>466.8</ele>
        <time>2023-07-13T00:14:01.000+02:00</time>
      </trkpt>
      <trkpt lat="43.35109" lon="-3.37034">
        <ele>469.8</ele>
        <time>2023-07-13T00:14:10.000+02:00</time>
      </trkpt>
      <trkpt lat="43.35119" lon="-3.37039">
        <ele>471.3</ele>
        <time>2023-07-13T00:14:14.000+02:00</time>
      </trkpt>
      <trkpt lat="43.35131" lon="-3.37044">
        <ele>473.5</ele>
        <time>2023-07-13T00:14:20.000+02:00</time>
      </trkpt>
      <trkpt lat="43.35143" lon="-3.37052">
        <ele>475</ele>
        <time>2023-07-13T00:14:25.000+02:00</time>
      </trkpt>
      <trkpt lat="43.35152" lon="-3.37063">
        <ele>475.3</ele>
        <time>2023-07-13T00:14:31.000+02:00</time>
      </trkpt>
      <trkpt lat="43.35168" lon="-3.37077">
        <ele>476.5</ele>
        <time>2023-07-13T00:14:38.000+02:00</time>
      </trkpt>
      <trkpt lat="43.3519" lon="-3.37095">
        <ele>482</ele>
        <time>2023-07-13T00:14:50.000+02:00</time>
      </trkpt>
      <trkpt lat="43.35196" lon="-3.37102">
        <ele>483.3</ele>
        <time>2023-07-13T00:14:53.000+02:00</time>
      </trkpt>
      <trkpt lat="43.35202" lon="-3.37113">
        <ele>484.3</ele>
        <time>2023-07-13T00:14:57.000+02:00</time>
      </trkpt>
      <trkpt lat="43.35208" lon="-3.3713">
        <ele>484.5</ele>
        <time>2023-07-13T00:15:03.000+02:00</time>
      </trkpt>
      <trkpt lat="43.35213" lon="-3.37143">
        <ele>484.8</ele>
        <time>2023-07-13T00:15:08.000+02:00</time>
      </trkpt>
      <trkpt lat="43.35221" lon="-3.37158">
        <ele>485.5</ele>
        <time>2023-07-13T00:15:14.000+02:00</time>
      </trkpt>
      <trkpt lat="43.3523" lon="-3.3717">
        <ele>486.8</ele>
        <time>2023-07-13T00:15:19.000+02:00</time>
      </trkpt>
      <trkpt lat="43.35239" lon="-3.37182">
        <ele>488</ele>
        <time>2023-07-13T00:15:24.000+02:00</time>
      </trkpt>
      <trkpt lat="43.35246" lon="-3.3719">
        <ele>489.3</ele>
        <time>2023-07-13T00:15:28.000+02:00</time>
      </trkpt>
      <trkpt lat="43.35258" lon="-3.37197">
        <ele>490.3</ele>
        <time>2023-07-13T00:15:34.000+02:00</time>
      </trkpt>
      <trkpt lat="43.35295" lon="-3.37213">
        <ele>491.8</ele>
        <time>2023-07-13T00:15:50.000+02:00</time>
      </trkpt>
      <trkpt lat="43.35321" lon="-3.37226">
        <ele>492.8</ele>
        <time>2023-07-13T00:16:02.000+02:00</time>
      </trkpt>
      <trkpt lat="43.3534" lon="-3.37235">
        <ele>492.8</ele>
        <time>2023-07-13T00:16:11.000+02:00</time>
      </trkpt>
      <trkpt lat="43.35358" lon="-3.3724">
        <ele>493.3</ele>
        <time>2023-07-13T00:16:19.000+02:00</time>
      </trkpt>
      <trkpt lat="43.35388" lon="-3.37244">
        <ele>494.8</ele>
        <time>2023-07-13T00:16:31.000+02:00</time>
      </trkpt>
      <trkpt lat="43.35401" lon="-3.37248">
        <ele>495</ele>
        <time>2023-07-13T00:16:37.000+02:00</time>
      </trkpt>
      <trkpt lat="43.3542" lon="-3.37253">
        <ele>496</ele>
        <time>2023-07-13T00:16:46.000+02:00</time>
      </trkpt>
      <trkpt lat="43.35443" lon="-3.37262">
        <ele>497.8</ele>
        <time>2023-07-13T00:16:56.000+02:00</time>
      </trkpt>
      <trkpt lat="43.35462" lon="-3.37272">
        <ele>498.8</ele>
        <time>2023-07-13T00:17:04.000+02:00</time>
      </trkpt>
      <trkpt lat="43.355" lon="-3.37298">
        <ele>499.3</ele>
        <time>2023-07-13T00:17:22.000+02:00</time>
      </trkpt>
      <trkpt lat="43.35521" lon="-3.37314">
        <ele>498</ele>
        <time>2023-07-13T00:17:33.000+02:00</time>
      </trkpt>
      <trkpt lat="43.35536" lon="-3.37331">
        <ele>496.8</ele>
        <time>2023-07-13T00:17:41.000+02:00</time>
      </trkpt>
      <trkpt lat="43.35566" lon="-3.3736">
        <ele>494.8</ele>
        <time>2023-07-13T00:17:57.000+02:00</time>
      </trkpt>
      <trkpt lat="43.3564" lon="-3.3743">
        <ele>489.3</ele>
        <time>2023-07-13T00:18:35.000+02:00</time>
      </trkpt>
      <trkpt lat="43.35693" lon="-3.37478">
        <ele>485.5</ele>
        <time>2023-07-13T00:19:03.000+02:00</time>
      </trkpt>
      <trkpt lat="43.35723" lon="-3.375">
        <ele>483.5</ele>
        <time>2023-07-13T00:19:17.000+02:00</time>
      </trkpt>
      <trkpt lat="43.35746" lon="-3.37519">
        <ele>482.3</ele>
        <time>2023-07-13T00:19:29.000+02:00</time>
      </trkpt>
      <trkpt lat="43.35761" lon="-3.37533">
        <ele>479.3</ele>
        <time>2023-07-13T00:19:36.000+02:00</time>
      </trkpt>
      <trkpt lat="43.35769" lon="-3.37544">
        <ele>477.5</ele>
        <time>2023-07-13T00:19:41.000+02:00</time>
      </trkpt>
      <trkpt lat="43.35773" lon="-3.37554">
        <ele>476.3</ele>
        <time>2023-07-13T00:19:45.000+02:00</time>
      </trkpt>
      <trkpt lat="43.35776" lon="-3.37571">
        <ele>475</ele>
        <time>2023-07-13T00:19:47.000+02:00</time>
      </trkpt>
      <trkpt lat="43.35775" lon="-3.37615">
        <ele>474.5</ele>
        <time>2023-07-13T00:19:52.000+02:00</time>
      </trkpt>
      <trkpt lat="43.35777" lon="-3.37645">
        <ele>474.5</ele>
        <time>2023-07-13T00:19:55.000+02:00</time>
      </trkpt>
      <trkpt lat="43.35782" lon="-3.37667">
        <ele>474.3</ele>
        <time>2023-07-13T00:19:58.000+02:00</time>
      </trkpt>
      <trkpt lat="43.35791" lon="-3.3769">
        <ele>473.5</ele>
        <time>2023-07-13T00:20:01.000+02:00</time>
      </trkpt>
      <trkpt lat="43.358" lon="-3.37711">
        <ele>472.8</ele>
        <time>2023-07-13T00:20:04.000+02:00</time>
      </trkpt>
      <trkpt lat="43.35828" lon="-3.37761">
        <ele>470.5</ele>
        <time>2023-07-13T00:20:11.000+02:00</time>
      </trkpt>
      <trkpt lat="43.35887" lon="-3.37866">
        <ele>463.3</ele>
        <time>2023-07-13T00:20:25.000+02:00</time>
      </trkpt>
      <trkpt lat="43.35929" lon="-3.37943">
        <ele>458.8</ele>
        <time>2023-07-13T00:20:36.000+02:00</time>
      </trkpt>
      <trkpt lat="43.35962" lon="-3.37983">
        <ele>456</ele>
        <time>2023-07-13T00:20:43.000+02:00</time>
      </trkpt>
      <trkpt lat="43.36" lon="-3.38039">
        <ele>455</ele>
        <time>2023-07-13T00:20:51.000+02:00</time>
      </trkpt>
      <trkpt lat="43.36018" lon="-3.38068">
        <ele>454.8</ele>
        <time>2023-07-13T00:20:55.000+02:00</time>
      </trkpt>
      <trkpt lat="43.36034" lon="-3.38104">
        <ele>455</ele>
        <time>2023-07-13T00:21:00.000+02:00</time>
      </trkpt>
      <trkpt lat="43.36064" lon="-3.38178">
        <ele>457</ele>
        <time>2023-07-13T00:21:10.000+02:00</time>
      </trkpt>
      <trkpt lat="43.36077" lon="-3.38194">
        <ele>458.3</ele>
        <time>2023-07-13T00:21:12.000+02:00</time>
      </trkpt>
      <trkpt lat="43.36091" lon="-3.38211">
        <ele>458.8</ele>
        <time>2023-07-13T00:21:15.000+02:00</time>
      </trkpt>
      <trkpt lat="43.36102" lon="-3.3823">
        <ele>459</ele>
        <time>2023-07-13T00:21:18.000+02:00</time>
      </trkpt>
      <trkpt lat="43.36107" lon="-3.38249">
        <ele>459.8</ele>
        <time>2023-07-13T00:21:20.000+02:00</time>
      </trkpt>
      <trkpt lat="43.36119" lon="-3.3831">
        <ele>460.5</ele>
        <time>2023-07-13T00:21:27.000+02:00</time>
      </trkpt>
      <trkpt lat="43.3613" lon="-3.38363">
        <ele>460.5</ele>
        <time>2023-07-13T00:21:33.000+02:00</time>
      </trkpt>
      <trkpt lat="43.36135" lon="-3.38418">
        <ele>460.3</ele>
        <time>2023-07-13T00:21:39.000+02:00</time>
      </trkpt>
      <trkpt lat="43.36142" lon="-3.3844">
        <ele>460.5</ele>
        <time>2023-07-13T00:21:42.000+02:00</time>
      </trkpt>
      <trkpt lat="43.36153" lon="-3.38465">
        <ele>461</ele>
        <time>2023-07-13T00:21:45.000+02:00</time>
      </trkpt>
      <trkpt lat="43.36171" lon="-3.38524">
        <ele>461.8</ele>
        <time>2023-07-13T00:21:52.000+02:00</time>
      </trkpt>
      <trkpt lat="43.36181" lon="-3.3857">
        <ele>461.3</ele>
        <time>2023-07-13T00:21:58.000+02:00</time>
      </trkpt>
      <trkpt lat="43.36188" lon="-3.38592">
        <ele>461.3</ele>
        <time>2023-07-13T00:22:00.000+02:00</time>
      </trkpt>
      <trkpt lat="43.36195" lon="-3.38608">
        <ele>461.5</ele>
        <time>2023-07-13T00:22:02.000+02:00</time>
      </trkpt>
      <trkpt lat="43.36203" lon="-3.38625">
        <ele>461.8</ele>
        <time>2023-07-13T00:22:05.000+02:00</time>
      </trkpt>
      <trkpt lat="43.36224" lon="-3.3865">
        <ele>462.3</ele>
        <time>2023-07-13T00:22:09.000+02:00</time>
      </trkpt>
      <trkpt lat="43.36242" lon="-3.38669">
        <ele>463</ele>
        <time>2023-07-13T00:22:12.000+02:00</time>
      </trkpt>
      <trkpt lat="43.36259" lon="-3.38689">
        <ele>462.8</ele>
        <time>2023-07-13T00:22:16.000+02:00</time>
      </trkpt>
      <trkpt lat="43.36262" lon="-3.38721">
        <ele>464.8</ele>
        <time>2023-07-13T00:22:19.000+02:00</time>
      </trkpt>
      <trkpt lat="43.36262" lon="-3.38735">
        <ele>465.8</ele>
        <time>2023-07-13T00:22:21.000+02:00</time>
      </trkpt>
      <trkpt lat="43.36263" lon="-3.38742">
        <ele>466.3</ele>
        <time>2023-07-13T00:22:22.000+02:00</time>
      </trkpt>
      <trkpt lat="43.36262" lon="-3.38758">
        <ele>467.3</ele>
        <time>2023-07-13T00:22:23.000+02:00</time>
      </trkpt>
      <trkpt lat="43.3626" lon="-3.38774">
        <ele>468</ele>
        <time>2023-07-13T00:22:25.000+02:00</time>
      </trkpt>
      <trkpt lat="43.36256" lon="-3.38784">
        <ele>469</ele>
        <time>2023-07-13T00:22:27.000+02:00</time>
      </trkpt>
      <trkpt lat="43.36252" lon="-3.38791">
        <ele>470</ele>
        <time>2023-07-13T00:22:28.000+02:00</time>
      </trkpt>
      <trkpt lat="43.36247" lon="-3.38796">
        <ele>470.5</ele>
        <time>2023-07-13T00:22:29.000+02:00</time>
      </trkpt>
      <trkpt lat="43.36236" lon="-3.38802">
        <ele>471.3</ele>
        <time>2023-07-13T00:22:31.000+02:00</time>
      </trkpt>
      <trkpt lat="43.36212" lon="-3.3881">
        <ele>472.8</ele>
        <time>2023-07-13T00:22:35.000+02:00</time>
      </trkpt>
      <trkpt lat="43.36199" lon="-3.38813">
        <ele>473.5</ele>
        <time>2023-07-13T00:22:37.000+02:00</time>
      </trkpt>
      <trkpt lat="43.3619" lon="-3.38812">
        <ele>473.8</ele>
        <time>2023-07-13T00:22:39.000+02:00</time>
      </trkpt>
      <trkpt lat="43.36176" lon="-3.38808">
        <ele>474</ele>
        <time>2023-07-13T00:22:41.000+02:00</time>
      </trkpt>
      <trkpt lat="43.3616" lon="-3.38798">
        <ele>473</ele>
        <time>2023-07-13T00:22:43.000+02:00</time>
      </trkpt>
      <trkpt lat="43.36148" lon="-3.38787">
        <ele>471.5</ele>
        <time>2023-07-13T00:22:45.000+02:00</time>
      </trkpt>
      <trkpt lat="43.3614" lon="-3.38777">
        <ele>470</ele>
        <time>2023-07-13T00:22:47.000+02:00</time>
      </trkpt>
      <trkpt lat="43.36135" lon="-3.38772">
        <ele>469.5</ele>
        <time>2023-07-13T00:22:48.000+02:00</time>
      </trkpt>
      <trkpt lat="43.36128" lon="-3.38771">
        <ele>469</ele>
        <time>2023-07-13T00:22:49.000+02:00</time>
      </trkpt>
      <trkpt lat="43.36121" lon="-3.38773">
        <ele>468.8</ele>
        <time>2023-07-13T00:22:50.000+02:00</time>
      </trkpt>
      <trkpt lat="43.36115" lon="-3.38779">
        <ele>469</ele>
        <time>2023-07-13T00:22:51.000+02:00</time>
      </trkpt>
      <trkpt lat="43.361" lon="-3.388">
        <ele>469.3</ele>
        <time>2023-07-13T00:22:55.000+02:00</time>
      </trkpt>
      <trkpt lat="43.36061" lon="-3.38853">
        <ele>468.8</ele>
        <time>2023-07-13T00:23:03.000+02:00</time>
      </trkpt>
      <trkpt lat="43.36034" lon="-3.38879">
        <ele>466.5</ele>
        <time>2023-07-13T00:23:08.000+02:00</time>
      </trkpt>
      <trkpt lat="43.36017" lon="-3.38902">
        <ele>464.5</ele>
        <time>2023-07-13T00:23:12.000+02:00</time>
      </trkpt>
      <trkpt lat="43.36009" lon="-3.38912">
        <ele>463.3</ele>
        <time>2023-07-13T00:23:13.000+02:00</time>
      </trkpt>
      <trkpt lat="43.36004" lon="-3.38915">
        <ele>462.5</ele>
        <time>2023-07-13T00:23:14.000+02:00</time>
      </trkpt>
      <trkpt lat="43.35999" lon="-3.38916">
        <ele>461.8</ele>
        <time>2023-07-13T00:23:15.000+02:00</time>
      </trkpt>
      <trkpt lat="43.35994" lon="-3.38914">
        <ele>461.8</ele>
        <time>2023-07-13T00:23:16.000+02:00</time>
      </trkpt>
      <trkpt lat="43.35989" lon="-3.38907">
        <ele>461.5</ele>
        <time>2023-07-13T00:23:17.000+02:00</time>
      </trkpt>
      <trkpt lat="43.35971" lon="-3.38874">
        <ele>461.8</ele>
        <time>2023-07-13T00:23:22.000+02:00</time>
      </trkpt>
      <trkpt lat="43.35962" lon="-3.3886">
        <ele>462</ele>
        <time>2023-07-13T00:23:24.000+02:00</time>
      </trkpt>
      <trkpt lat="43.35953" lon="-3.3885">
        <ele>462.3</ele>
        <time>2023-07-13T00:23:25.000+02:00</time>
      </trkpt>
      <trkpt lat="43.35944" lon="-3.38844">
        <ele>462.5</ele>
        <time>2023-07-13T00:23:27.000+02:00</time>
      </trkpt>
      <trkpt lat="43.35936" lon="-3.38842">
        <ele>462.5</ele>
        <time>2023-07-13T00:23:28.000+02:00</time>
      </trkpt>
      <trkpt lat="43.35928" lon="-3.38841">
        <ele>462.5</ele>
        <time>2023-07-13T00:23:29.000+02:00</time>
      </trkpt>
      <trkpt lat="43.35921" lon="-3.38844">
        <ele>462.3</ele>
        <time>2023-07-13T00:23:30.000+02:00</time>
      </trkpt>
      <trkpt lat="43.35916" lon="-3.3885">
        <ele>462</ele>
        <time>2023-07-13T00:23:31.000+02:00</time>
      </trkpt>
      <trkpt lat="43.3591" lon="-3.38857">
        <ele>462</ele>
        <time>2023-07-13T00:23:33.000+02:00</time>
      </trkpt>
      <trkpt lat="43.35907" lon="-3.38867">
        <ele>461.8</ele>
        <time>2023-07-13T00:23:34.000+02:00</time>
      </trkpt>
      <trkpt lat="43.35905" lon="-3.38877">
        <ele>461.5</ele>
        <time>2023-07-13T00:23:35.000+02:00</time>
      </trkpt>
      <trkpt lat="43.35902" lon="-3.38907">
        <ele>460.3</ele>
        <time>2023-07-13T00:23:38.000+02:00</time>
      </trkpt>
      <trkpt lat="43.35896" lon="-3.38951">
        <ele>456.5</ele>
        <time>2023-07-13T00:23:43.000+02:00</time>
      </trkpt>
      <trkpt lat="43.35892" lon="-3.38972">
        <ele>454.8</ele>
        <time>2023-07-13T00:23:46.000+02:00</time>
      </trkpt>
      <trkpt lat="43.35864" lon="-3.39092">
        <ele>441.5</ele>
        <time>2023-07-13T00:24:00.000+02:00</time>
      </trkpt>
      <trkpt lat="43.35851" lon="-3.39147">
        <ele>434.8</ele>
        <time>2023-07-13T00:24:06.000+02:00</time>
      </trkpt>
      <trkpt lat="43.35844" lon="-3.39174">
        <ele>431.5</ele>
        <time>2023-07-13T00:24:09.000+02:00</time>
      </trkpt>
      <trkpt lat="43.35838" lon="-3.39192">
        <ele>431.5</ele>
        <time>2023-07-13T00:24:11.000+02:00</time>
      </trkpt>
      <trkpt lat="43.35833" lon="-3.39203">
        <ele>431.5</ele>
        <time>2023-07-13T00:24:13.000+02:00</time>
      </trkpt>
      <trkpt lat="43.35826" lon="-3.39213">
        <ele>431</ele>
        <time>2023-07-13T00:24:14.000+02:00</time>
      </trkpt>
      <trkpt lat="43.35819" lon="-3.39218">
        <ele>430.3</ele>
        <time>2023-07-13T00:24:16.000+02:00</time>
      </trkpt>
      <trkpt lat="43.35812" lon="-3.39222">
        <ele>429.3</ele>
        <time>2023-07-13T00:24:17.000+02:00</time>
      </trkpt>
      <trkpt lat="43.35809" lon="-3.39224">
        <ele>428.8</ele>
        <time>2023-07-13T00:24:17.000+02:00</time>
      </trkpt>
      <trkpt lat="43.35801" lon="-3.3923">
        <ele>427.8</ele>
        <time>2023-07-13T00:24:19.000+02:00</time>
      </trkpt>
      <trkpt lat="43.35796" lon="-3.39236">
        <ele>427</ele>
        <time>2023-07-13T00:24:20.000+02:00</time>
      </trkpt>
      <trkpt lat="43.35787" lon="-3.39252">
        <ele>426.3</ele>
        <time>2023-07-13T00:24:22.000+02:00</time>
      </trkpt>
      <trkpt lat="43.35782" lon="-3.39258">
        <ele>426</ele>
        <time>2023-07-13T00:24:23.000+02:00</time>
      </trkpt>
      <trkpt lat="43.35777" lon="-3.39261">
        <ele>425.3</ele>
        <time>2023-07-13T00:24:24.000+02:00</time>
      </trkpt>
      <trkpt lat="43.35771" lon="-3.39262">
        <ele>424.3</ele>
        <time>2023-07-13T00:24:25.000+02:00</time>
      </trkpt>
      <trkpt lat="43.35763" lon="-3.39261">
        <ele>422.8</ele>
        <time>2023-07-13T00:24:26.000+02:00</time>
      </trkpt>
      <trkpt lat="43.35748" lon="-3.39256">
        <ele>419.3</ele>
        <time>2023-07-13T00:24:28.000+02:00</time>
      </trkpt>
      <trkpt lat="43.35727" lon="-3.39251">
        <ele>414.3</ele>
        <time>2023-07-13T00:24:32.000+02:00</time>
      </trkpt>
      <trkpt lat="43.35718" lon="-3.39251">
        <ele>412.5</ele>
        <time>2023-07-13T00:24:33.000+02:00</time>
      </trkpt>
      <trkpt lat="43.35708" lon="-3.39254">
        <ele>410.8</ele>
        <time>2023-07-13T00:24:35.000+02:00</time>
      </trkpt>
      <trkpt lat="43.35698" lon="-3.39258">
        <ele>409</ele>
        <time>2023-07-13T00:24:36.000+02:00</time>
      </trkpt>
      <trkpt lat="43.35676" lon="-3.39272">
        <ele>405.3</ele>
        <time>2023-07-13T00:24:40.000+02:00</time>
      </trkpt>
      <trkpt lat="43.35666" lon="-3.39281">
        <ele>403.5</ele>
        <time>2023-07-13T00:24:42.000+02:00</time>
      </trkpt>
      <trkpt lat="43.3566" lon="-3.39289">
        <ele>403</ele>
        <time>2023-07-13T00:24:43.000+02:00</time>
      </trkpt>
      <trkpt lat="43.35652" lon="-3.39309">
        <ele>402.3</ele>
        <time>2023-07-13T00:24:46.000+02:00</time>
      </trkpt>
      <trkpt lat="43.35649" lon="-3.39311">
        <ele>401.8</ele>
        <time>2023-07-13T00:24:47.000+02:00</time>
      </trkpt>
      <trkpt lat="43.35646" lon="-3.39312">
        <ele>401</ele>
        <time>2023-07-13T00:24:48.000+02:00</time>
      </trkpt>
      <trkpt lat="43.35643" lon="-3.39311">
        <ele>400.3</ele>
        <time>2023-07-13T00:24:48.000+02:00</time>
      </trkpt>
      <trkpt lat="43.35639" lon="-3.39307">
        <ele>399.5</ele>
        <time>2023-07-13T00:24:49.000+02:00</time>
      </trkpt>
      <trkpt lat="43.35637" lon="-3.39301">
        <ele>398.8</ele>
        <time>2023-07-13T00:24:50.000+02:00</time>
      </trkpt>
      <trkpt lat="43.35635" lon="-3.39291">
        <ele>398.3</ele>
        <time>2023-07-13T00:24:51.000+02:00</time>
      </trkpt>
      <trkpt lat="43.35635" lon="-3.39281">
        <ele>398</ele>
        <time>2023-07-13T00:24:52.000+02:00</time>
      </trkpt>
      <trkpt lat="43.35633" lon="-3.39269">
        <ele>397.5</ele>
        <time>2023-07-13T00:24:53.000+02:00</time>
      </trkpt>
      <trkpt lat="43.35627" lon="-3.39245">
        <ele>396.8</ele>
        <time>2023-07-13T00:24:56.000+02:00</time>
      </trkpt>
      <trkpt lat="43.35621" lon="-3.39231">
        <ele>397.8</ele>
        <time>2023-07-13T00:24:58.000+02:00</time>
      </trkpt>
      <trkpt lat="43.35616" lon="-3.39226">
        <ele>398</ele>
        <time>2023-07-13T00:24:59.000+02:00</time>
      </trkpt>
      <trkpt lat="43.35611" lon="-3.39225">
        <ele>397.5</ele>
        <time>2023-07-13T00:25:00.000+02:00</time>
      </trkpt>
      <trkpt lat="43.35605" lon="-3.39229">
        <ele>396</ele>
        <time>2023-07-13T00:25:01.000+02:00</time>
      </trkpt>
      <trkpt lat="43.356" lon="-3.39237">
        <ele>394.3</ele>
        <time>2023-07-13T00:25:02.000+02:00</time>
      </trkpt>
      <trkpt lat="43.35595" lon="-3.39249">
        <ele>391.8</ele>
        <time>2023-07-13T00:25:03.000+02:00</time>
      </trkpt>
      <trkpt lat="43.35592" lon="-3.39258">
        <ele>391</ele>
        <time>2023-07-13T00:25:04.000+02:00</time>
      </trkpt>
      <trkpt lat="43.35589" lon="-3.39262">
        <ele>390.5</ele>
        <time>2023-07-13T00:25:05.000+02:00</time>
      </trkpt>
      <trkpt lat="43.35588" lon="-3.39264">
        <ele>390</ele>
        <time>2023-07-13T00:25:06.000+02:00</time>
      </trkpt>
      <trkpt lat="43.35583" lon="-3.39267">
        <ele>389.3</ele>
        <time>2023-07-13T00:25:07.000+02:00</time>
      </trkpt>
      <trkpt lat="43.35577" lon="-3.39269">
        <ele>388.3</ele>
        <time>2023-07-13T00:25:08.000+02:00</time>
      </trkpt>
      <trkpt lat="43.35567" lon="-3.3927">
        <ele>386.8</ele>
        <time>2023-07-13T00:25:10.000+02:00</time>
      </trkpt>
      <trkpt lat="43.35542" lon="-3.39266">
        <ele>383</ele>
        <time>2023-07-13T00:25:13.000+02:00</time>
      </trkpt>
      <trkpt lat="43.35528" lon="-3.39265">
        <ele>380.8</ele>
        <time>2023-07-13T00:25:16.000+02:00</time>
      </trkpt>
      <trkpt lat="43.35513" lon="-3.39265">
        <ele>378.5</ele>
        <time>2023-07-13T00:25:18.000+02:00</time>
      </trkpt>
      <trkpt lat="43.3549" lon="-3.39267">
        <ele>375</ele>
        <time>2023-07-13T00:25:21.000+02:00</time>
      </trkpt>
      <trkpt lat="43.35464" lon="-3.39266">
        <ele>371.3</ele>
        <time>2023-07-13T00:25:25.000+02:00</time>
      </trkpt>
      <trkpt lat="43.35451" lon="-3.39264">
        <ele>369.8</ele>
        <time>2023-07-13T00:25:27.000+02:00</time>
      </trkpt>
      <trkpt lat="43.35442" lon="-3.39258">
        <ele>369.3</ele>
        <time>2023-07-13T00:25:29.000+02:00</time>
      </trkpt>
      <trkpt lat="43.35425" lon="-3.39244">
        <ele>369</ele>
        <time>2023-07-13T00:25:32.000+02:00</time>
      </trkpt>
      <trkpt lat="43.35411" lon="-3.39229">
        <ele>369.8</ele>
        <time>2023-07-13T00:25:35.000+02:00</time>
      </trkpt>
      <trkpt lat="43.35396" lon="-3.39217">
        <ele>370.3</ele>
        <time>2023-07-13T00:25:37.000+02:00</time>
      </trkpt>
      <trkpt lat="43.35388" lon="-3.39215">
        <ele>369.8</ele>
        <time>2023-07-13T00:25:38.000+02:00</time>
      </trkpt>
      <trkpt lat="43.35381" lon="-3.39215">
        <ele>369</ele>
        <time>2023-07-13T00:25:40.000+02:00</time>
      </trkpt>
      <trkpt lat="43.35372" lon="-3.39217">
        <ele>368</ele>
        <time>2023-07-13T00:25:41.000+02:00</time>
      </trkpt>
      <trkpt lat="43.35364" lon="-3.39221">
        <ele>366.8</ele>
        <time>2023-07-13T00:25:42.000+02:00</time>
      </trkpt>
      <trkpt lat="43.35358" lon="-3.39226">
        <ele>365.5</ele>
        <time>2023-07-13T00:25:43.000+02:00</time>
      </trkpt>
      <trkpt lat="43.35353" lon="-3.39234">
        <ele>364</ele>
        <time>2023-07-13T00:25:45.000+02:00</time>
      </trkpt>
      <trkpt lat="43.35349" lon="-3.39243">
        <ele>362.8</ele>
        <time>2023-07-13T00:25:46.000+02:00</time>
      </trkpt>
      <trkpt lat="43.35349" lon="-3.39252">
        <ele>361.8</ele>
        <time>2023-07-13T00:25:47.000+02:00</time>
      </trkpt>
      <trkpt lat="43.3535" lon="-3.39264">
        <ele>359.8</ele>
        <time>2023-07-13T00:25:48.000+02:00</time>
      </trkpt>
      <trkpt lat="43.3535" lon="-3.39271">
        <ele>358.5</ele>
        <time>2023-07-13T00:25:49.000+02:00</time>
      </trkpt>
      <trkpt lat="43.35349" lon="-3.39281">
        <ele>356.8</ele>
        <time>2023-07-13T00:25:50.000+02:00</time>
      </trkpt>
      <trkpt lat="43.35345" lon="-3.39295">
        <ele>354.3</ele>
        <time>2023-07-13T00:25:52.000+02:00</time>
      </trkpt>
      <trkpt lat="43.35338" lon="-3.39304">
        <ele>352.3</ele>
        <time>2023-07-13T00:25:53.000+02:00</time>
      </trkpt>
      <trkpt lat="43.3533" lon="-3.39312">
        <ele>350.3</ele>
        <time>2023-07-13T00:25:55.000+02:00</time>
      </trkpt>
      <trkpt lat="43.35323" lon="-3.39316">
        <ele>349</ele>
        <time>2023-07-13T00:25:56.000+02:00</time>
      </trkpt>
      <trkpt lat="43.35314" lon="-3.39318">
        <ele>347.8</ele>
        <time>2023-07-13T00:25:57.000+02:00</time>
      </trkpt>
      <trkpt lat="43.35286" lon="-3.39324">
        <ele>344</ele>
        <time>2023-07-13T00:26:01.000+02:00</time>
      </trkpt>
      <trkpt lat="43.35278" lon="-3.39327">
        <ele>342.5</ele>
        <time>2023-07-13T00:26:03.000+02:00</time>
      </trkpt>
      <trkpt lat="43.35275" lon="-3.39332">
        <ele>341</ele>
        <time>2023-07-13T00:26:03.000+02:00</time>
      </trkpt>
      <trkpt lat="43.35272" lon="-3.39338">
        <ele>339</ele>
        <time>2023-07-13T00:26:04.000+02:00</time>
      </trkpt>
      <trkpt lat="43.35271" lon="-3.39345">
        <ele>337</ele>
        <time>2023-07-13T00:26:05.000+02:00</time>
      </trkpt>
      <trkpt lat="43.35279" lon="-3.39375">
        <ele>329.8</ele>
        <time>2023-07-13T00:26:09.000+02:00</time>
      </trkpt>
      <trkpt lat="43.35289" lon="-3.39412">
        <ele>321.5</ele>
        <time>2023-07-13T00:26:13.000+02:00</time>
      </trkpt>
      <trkpt lat="43.35292" lon="-3.39421">
        <ele>319.8</ele>
        <time>2023-07-13T00:26:14.000+02:00</time>
      </trkpt>
      <trkpt lat="43.35284" lon="-3.39418">
        <ele>319.5</ele>
        <time>2023-07-13T00:26:15.000+02:00</time>
      </trkpt>
      <trkpt lat="43.35277" lon="-3.39412">
        <ele>320</ele>
        <time>2023-07-13T00:26:17.000+02:00</time>
      </trkpt>
      <trkpt lat="43.35269" lon="-3.39408">
        <ele>320</ele>
        <time>2023-07-13T00:26:18.000+02:00</time>
      </trkpt>
      <trkpt lat="43.35248" lon="-3.39411">
        <ele>316.3</ele>
        <time>2023-07-13T00:26:21.000+02:00</time>
      </trkpt>
      <trkpt lat="43.35227" lon="-3.39426">
        <ele>310.5</ele>
        <time>2023-07-13T00:26:25.000+02:00</time>
      </trkpt>
      <trkpt lat="43.35207" lon="-3.39433">
        <ele>306.8</ele>
        <time>2023-07-13T00:26:28.000+02:00</time>
      </trkpt>
      <trkpt lat="43.35193" lon="-3.39441">
        <ele>303</ele>
        <time>2023-07-13T00:26:30.000+02:00</time>
      </trkpt>
      <trkpt lat="43.35182" lon="-3.39446">
        <ele>300.8</ele>
        <time>2023-07-13T00:26:32.000+02:00</time>
      </trkpt>
      <trkpt lat="43.35167" lon="-3.39445">
        <ele>299.8</ele>
        <time>2023-07-13T00:26:34.000+02:00</time>
      </trkpt>
      <trkpt lat="43.35154" lon="-3.39451">
        <ele>300.5</ele>
        <time>2023-07-13T00:26:36.000+02:00</time>
      </trkpt>
      <trkpt lat="43.3513" lon="-3.39487">
        <ele>293.5</ele>
        <time>2023-07-13T00:26:42.000+02:00</time>
      </trkpt>
      <trkpt lat="43.35104" lon="-3.39536">
        <ele>281.8</ele>
        <time>2023-07-13T00:26:49.000+02:00</time>
      </trkpt>
      <trkpt lat="43.35092" lon="-3.39554">
        <ele>277.3</ele>
        <time>2023-07-13T00:26:51.000+02:00</time>
      </trkpt>
      <trkpt lat="43.35082" lon="-3.39583">
        <ele>268.3</ele>
        <time>2023-07-13T00:26:55.000+02:00</time>
      </trkpt>
      <trkpt lat="43.3505" lon="-3.39629">
        <ele>257</ele>
        <time>2023-07-13T00:27:02.000+02:00</time>
      </trkpt>
      <trkpt lat="43.35038" lon="-3.39639">
        <ele>255.5</ele>
        <time>2023-07-13T00:27:04.000+02:00</time>
      </trkpt>
      <trkpt lat="43.34979" lon="-3.39662">
        <ele>253.8</ele>
        <time>2023-07-13T00:27:13.000+02:00</time>
      </trkpt>
      <trkpt lat="43.3497" lon="-3.3967">
        <ele>251.5</ele>
        <time>2023-07-13T00:27:15.000+02:00</time>
      </trkpt>
      <trkpt lat="43.34961" lon="-3.39686">
        <ele>246.8</ele>
        <time>2023-07-13T00:27:17.000+02:00</time>
      </trkpt>
      <trkpt lat="43.3495" lon="-3.39702">
        <ele>243</ele>
        <time>2023-07-13T00:27:20.000+02:00</time>
      </trkpt>
      <trkpt lat="43.34934" lon="-3.39718">
        <ele>240.5</ele>
        <time>2023-07-13T00:27:23.000+02:00</time>
      </trkpt>
      <trkpt lat="43.34907" lon="-3.39729">
        <ele>240</ele>
        <time>2023-07-13T00:27:27.000+02:00</time>
      </trkpt>
      <trkpt lat="43.34887" lon="-3.39744">
        <ele>238</ele>
        <time>2023-07-13T00:27:31.000+02:00</time>
      </trkpt>
      <trkpt lat="43.34878" lon="-3.39768">
        <ele>233.3</ele>
        <time>2023-07-13T00:27:34.000+02:00</time>
      </trkpt>
      <trkpt lat="43.34864" lon="-3.39785">
        <ele>230</ele>
        <time>2023-07-13T00:27:36.000+02:00</time>
      </trkpt>
      <trkpt lat="43.3485" lon="-3.39787">
        <ele>230.5</ele>
        <time>2023-07-13T00:27:39.000+02:00</time>
      </trkpt>
      <trkpt lat="43.34835" lon="-3.39782">
        <ele>232.5</ele>
        <time>2023-07-13T00:27:41.000+02:00</time>
      </trkpt>
      <trkpt lat="43.34824" lon="-3.39786">
        <ele>230.5</ele>
        <time>2023-07-13T00:27:43.000+02:00</time>
      </trkpt>
      <trkpt lat="43.34814" lon="-3.39783">
        <ele>229.5</ele>
        <time>2023-07-13T00:27:44.000+02:00</time>
      </trkpt>
      <trkpt lat="43.34791" lon="-3.39763">
        <ele>229</ele>
        <time>2023-07-13T00:27:48.000+02:00</time>
      </trkpt>
      <trkpt lat="43.34779" lon="-3.39758">
        <ele>227.8</ele>
        <time>2023-07-13T00:27:50.000+02:00</time>
      </trkpt>
      <trkpt lat="43.34752" lon="-3.39742">
        <ele>225</ele>
        <time>2023-07-13T00:27:55.000+02:00</time>
      </trkpt>
      <trkpt lat="43.34737" lon="-3.3974">
        <ele>222.5</ele>
        <time>2023-07-13T00:27:57.000+02:00</time>
      </trkpt>
      <trkpt lat="43.34729" lon="-3.39734">
        <ele>221.5</ele>
        <time>2023-07-13T00:27:59.000+02:00</time>
      </trkpt>
      <trkpt lat="43.34713" lon="-3.39715">
        <ele>220.8</ele>
        <time>2023-07-13T00:28:02.000+02:00</time>
      </trkpt>
      <trkpt lat="43.34707" lon="-3.3971">
        <ele>220.3</ele>
        <time>2023-07-13T00:28:03.000+02:00</time>
      </trkpt>
      <trkpt lat="43.34696" lon="-3.39712">
        <ele>218</ele>
        <time>2023-07-13T00:28:05.000+02:00</time>
      </trkpt>
      <trkpt lat="43.34681" lon="-3.39725">
        <ele>214</ele>
        <time>2023-07-13T00:28:07.000+02:00</time>
      </trkpt>
      <trkpt lat="43.34669" lon="-3.39744">
        <ele>210</ele>
        <time>2023-07-13T00:28:10.000+02:00</time>
      </trkpt>
      <trkpt lat="43.34648" lon="-3.3976">
        <ele>205</ele>
        <time>2023-07-13T00:28:14.000+02:00</time>
      </trkpt>
      <trkpt lat="43.34644" lon="-3.39768">
        <ele>203</ele>
        <time>2023-07-13T00:28:15.000+02:00</time>
      </trkpt>
      <trkpt lat="43.34641" lon="-3.39786">
        <ele>200</ele>
        <time>2023-07-13T00:28:17.000+02:00</time>
      </trkpt>
      <trkpt lat="43.34636" lon="-3.39792">
        <ele>198</ele>
        <time>2023-07-13T00:28:18.000+02:00</time>
      </trkpt>
      <trkpt lat="43.34621" lon="-3.39794">
        <ele>194.8</ele>
        <time>2023-07-13T00:28:20.000+02:00</time>
      </trkpt>
      <trkpt lat="43.34588" lon="-3.39801">
        <ele>186.5</ele>
        <time>2023-07-13T00:28:26.000+02:00</time>
      </trkpt>
      <trkpt lat="43.34587" lon="-3.39811">
        <ele>184</ele>
        <time>2023-07-13T00:28:27.000+02:00</time>
      </trkpt>
      <trkpt lat="43.34606" lon="-3.39832">
        <ele>184</ele>
        <time>2023-07-13T00:28:30.000+02:00</time>
      </trkpt>
      <trkpt lat="43.34617" lon="-3.39846">
        <ele>184.3</ele>
        <time>2023-07-13T00:28:33.000+02:00</time>
      </trkpt>
      <trkpt lat="43.34625" lon="-3.39867">
        <ele>183.3</ele>
        <time>2023-07-13T00:28:35.000+02:00</time>
      </trkpt>
      <trkpt lat="43.34627" lon="-3.39884">
        <ele>181</ele>
        <time>2023-07-13T00:28:37.000+02:00</time>
      </trkpt>
      <trkpt lat="43.34623" lon="-3.39918">
        <ele>174.5</ele>
        <time>2023-07-13T00:28:41.000+02:00</time>
      </trkpt>
      <trkpt lat="43.34625" lon="-3.39938">
        <ele>172</ele>
        <time>2023-07-13T00:28:43.000+02:00</time>
      </trkpt>
      <trkpt lat="43.34621" lon="-3.39952">
        <ele>168.8</ele>
        <time>2023-07-13T00:28:45.000+02:00</time>
      </trkpt>
      <trkpt lat="43.34616" lon="-3.39958">
        <ele>166.3</ele>
        <time>2023-07-13T00:28:46.000+02:00</time>
      </trkpt>
      <trkpt lat="43.34609" lon="-3.39955">
        <ele>165.3</ele>
        <time>2023-07-13T00:28:47.000+02:00</time>
      </trkpt>
      <trkpt lat="43.346" lon="-3.39937">
        <ele>165.3</ele>
        <time>2023-07-13T00:28:50.000+02:00</time>
      </trkpt>
      <trkpt lat="43.34593" lon="-3.39932">
        <ele>164</ele>
        <time>2023-07-13T00:28:51.000+02:00</time>
      </trkpt>
      <trkpt lat="43.34587" lon="-3.39936">
        <ele>161.8</ele>
        <time>2023-07-13T00:28:52.000+02:00</time>
      </trkpt>
      <trkpt lat="43.34584" lon="-3.39946">
        <ele>159.8</ele>
        <time>2023-07-13T00:28:53.000+02:00</time>
      </trkpt>
      <trkpt lat="43.34582" lon="-3.40005">
        <ele>152.3</ele>
        <time>2023-07-13T00:29:00.000+02:00</time>
      </trkpt>
      <trkpt lat="43.34576" lon="-3.40019">
        <ele>148</ele>
        <time>2023-07-13T00:29:01.000+02:00</time>
      </trkpt>
      <trkpt lat="43.3452" lon="-3.40069">
        <ele>134.5</ele>
        <time>2023-07-13T00:29:12.000+02:00</time>
      </trkpt>
      <trkpt lat="43.34503" lon="-3.40098">
        <ele>129.8</ele>
        <time>2023-07-13T00:29:16.000+02:00</time>
      </trkpt>
      <trkpt lat="43.34474" lon="-3.40119">
        <ele>122.5</ele>
        <time>2023-07-13T00:29:21.000+02:00</time>
      </trkpt>
      <trkpt lat="43.34437" lon="-3.40142">
        <ele>117.3</ele>
        <time>2023-07-13T00:29:27.000+02:00</time>
      </trkpt>
      <trkpt lat="43.34423" lon="-3.40141">
        <ele>116.5</ele>
        <time>2023-07-13T00:29:29.000+02:00</time>
      </trkpt>
      <trkpt lat="43.34398" lon="-3.40129">
        <ele>112</ele>
        <time>2023-07-13T00:29:33.000+02:00</time>
      </trkpt>
      <trkpt lat="43.34387" lon="-3.40116">
        <ele>110</ele>
        <time>2023-07-13T00:29:35.000+02:00</time>
      </trkpt>
      <trkpt lat="43.34377" lon="-3.40095">
        <ele>108.5</ele>
        <time>2023-07-13T00:29:38.000+02:00</time>
      </trkpt>
      <trkpt lat="43.34371" lon="-3.40067">
        <ele>108.3</ele>
        <time>2023-07-13T00:29:41.000+02:00</time>
      </trkpt>
      <trkpt lat="43.34374" lon="-3.40028">
        <ele>110.3</ele>
        <time>2023-07-13T00:29:46.000+02:00</time>
      </trkpt>
      <trkpt lat="43.34371" lon="-3.40009">
        <ele>110.3</ele>
        <time>2023-07-13T00:29:48.000+02:00</time>
      </trkpt>
      <trkpt lat="43.34365" lon="-3.40001">
        <ele>109.5</ele>
        <time>2023-07-13T00:29:49.000+02:00</time>
      </trkpt>
      <trkpt lat="43.34358" lon="-3.40008">
        <ele>108</ele>
        <time>2023-07-13T00:29:51.000+02:00</time>
      </trkpt>
      <trkpt lat="43.34359" lon="-3.40011">
        <ele>108</ele>
        <time>2023-07-13T00:29:52.000+02:00</time>
      </trkpt>
      <trkpt lat="43.34362" lon="-3.40034">
        <ele>107.5</ele>
        <time>2023-07-13T00:29:55.000+02:00</time>
      </trkpt>
      <trkpt lat="43.34358" lon="-3.40047">
        <ele>106.3</ele>
        <time>2023-07-13T00:29:56.000+02:00</time>
      </trkpt>
      <trkpt lat="43.34349" lon="-3.40067">
        <ele>103.8</ele>
        <time>2023-07-13T00:29:59.000+02:00</time>
      </trkpt>
      <trkpt lat="43.34332" lon="-3.4013">
        <ele>97</ele>
        <time>2023-07-13T00:30:06.000+02:00</time>
      </trkpt>
      <trkpt lat="43.34333" lon="-3.4014">
        <ele>97</ele>
        <time>2023-07-13T00:30:07.000+02:00</time>
      </trkpt>
      <trkpt lat="43.34361" lon="-3.40206">
        <ele>92.8</ele>
        <time>2023-07-13T00:30:16.000+02:00</time>
      </trkpt>
      <trkpt lat="43.34369" lon="-3.40246">
        <ele>84.5</ele>
        <time>2023-07-13T00:30:20.000+02:00</time>
      </trkpt>
      <trkpt lat="43.34379" lon="-3.40281">
        <ele>75.5</ele>
        <time>2023-07-13T00:30:25.000+02:00</time>
      </trkpt>
      <trkpt lat="43.3439" lon="-3.403">
        <ele>71.3</ele>
        <time>2023-07-13T00:30:27.000+02:00</time>
      </trkpt>
      <trkpt lat="43.34413" lon="-3.40325">
        <ele>67</ele>
        <time>2023-07-13T00:30:32.000+02:00</time>
      </trkpt>
      <trkpt lat="43.34407" lon="-3.40336">
        <ele>62.8</ele>
        <time>2023-07-13T00:30:33.000+02:00</time>
      </trkpt>
      <trkpt lat="43.34392" lon="-3.40345">
        <ele>58.8</ele>
        <time>2023-07-13T00:30:36.000+02:00</time>
      </trkpt>
      <trkpt lat="43.34375" lon="-3.40347">
        <ele>55.3</ele>
        <time>2023-07-13T00:30:38.000+02:00</time>
      </trkpt>
      <trkpt lat="43.34369" lon="-3.40355">
        <ele>53</ele>
        <time>2023-07-13T00:30:40.000+02:00</time>
      </trkpt>
      <trkpt lat="43.34374" lon="-3.40378">
        <ele>51.3</ele>
        <time>2023-07-13T00:30:42.000+02:00</time>
      </trkpt>
      <trkpt lat="43.34371" lon="-3.40387">
        <ele>49.5</ele>
        <time>2023-07-13T00:30:43.000+02:00</time>
      </trkpt>
      <trkpt lat="43.34367" lon="-3.40389">
        <ele>48.5</ele>
        <time>2023-07-13T00:30:44.000+02:00</time>
      </trkpt>
      <trkpt lat="43.3436" lon="-3.40391">
        <ele>46.8</ele>
        <time>2023-07-13T00:30:45.000+02:00</time>
      </trkpt>
      <trkpt lat="43.34352" lon="-3.40393">
        <ele>45</ele>
        <time>2023-07-13T00:30:46.000+02:00</time>
      </trkpt>
      <trkpt lat="43.34338" lon="-3.40384">
        <ele>43.3</ele>
        <time>2023-07-13T00:30:49.000+02:00</time>
      </trkpt>
      <trkpt lat="43.34329" lon="-3.40395">
        <ele>40.5</ele>
        <time>2023-07-13T00:30:51.000+02:00</time>
      </trkpt>
      <trkpt lat="43.34318" lon="-3.40404">
        <ele>39</ele>
        <time>2023-07-13T00:30:52.000+02:00</time>
      </trkpt>
      <trkpt lat="43.34309" lon="-3.40422">
        <ele>37.5</ele>
        <time>2023-07-13T00:30:55.000+02:00</time>
      </trkpt>
      <trkpt lat="43.34298" lon="-3.40453">
        <ele>37.8</ele>
        <time>2023-07-13T00:30:59.000+02:00</time>
      </trkpt>
      <trkpt lat="43.34285" lon="-3.40477">
        <ele>36.8</ele>
        <time>2023-07-13T00:31:02.000+02:00</time>
      </trkpt>
      <trkpt lat="43.34273" lon="-3.40504">
        <ele>35</ele>
        <time>2023-07-13T00:31:06.000+02:00</time>
      </trkpt>
      <trkpt lat="43.34269" lon="-3.40521">
        <ele>33.5</ele>
        <time>2023-07-13T00:31:08.000+02:00</time>
      </trkpt>
      <trkpt lat="43.34264" lon="-3.40556">
        <ele>31.3</ele>
        <time>2023-07-13T00:31:12.000+02:00</time>
      </trkpt>
      <trkpt lat="43.34265" lon="-3.40619">
        <ele>30.5</ele>
        <time>2023-07-13T00:31:19.000+02:00</time>
      </trkpt>
      <trkpt lat="43.34265" lon="-3.40631">
        <ele>30.8</ele>
        <time>2023-07-13T00:31:20.000+02:00</time>
      </trkpt>
      <trkpt lat="43.34266" lon="-3.40649">
        <ele>31.3</ele>
        <time>2023-07-13T00:31:22.000+02:00</time>
      </trkpt>
      <trkpt lat="43.34262" lon="-3.40669">
        <ele>31</ele>
        <time>2023-07-13T00:31:24.000+02:00</time>
      </trkpt>
      <trkpt lat="43.34247" lon="-3.40738">
        <ele>28</ele>
        <time>2023-07-13T00:31:32.000+02:00</time>
      </trkpt>
      <trkpt lat="43.34242" lon="-3.40781">
        <ele>27.3</ele>
        <time>2023-07-13T00:31:37.000+02:00</time>
      </trkpt>
      <trkpt lat="43.3421" lon="-3.40861">
        <ele>24.3</ele>
        <time>2023-07-13T00:31:47.000+02:00</time>
      </trkpt>
      <trkpt lat="43.34193" lon="-3.40875">
        <ele>23.5</ele>
        <time>2023-07-13T00:31:50.000+02:00</time>
      </trkpt>
      <trkpt lat="43.34179" lon="-3.40892">
        <ele>21.8</ele>
        <time>2023-07-13T00:31:53.000+02:00</time>
      </trkpt>
      <trkpt lat="43.34176" lon="-3.40904">
        <ele>20.5</ele>
        <time>2023-07-13T00:31:54.000+02:00</time>
      </trkpt>
      <trkpt lat="43.34173" lon="-3.40908">
        <ele>20</ele>
        <time>2023-07-13T00:31:55.000+02:00</time>
      </trkpt>
      <trkpt lat="43.3417" lon="-3.40911">
        <ele>19.8</ele>
        <time>2023-07-13T00:31:56.000+02:00</time>
      </trkpt>
      <trkpt lat="43.34164" lon="-3.40947">
        <ele>19</ele>
        <time>2023-07-13T00:32:00.000+02:00</time>
      </trkpt>
      <trkpt lat="43.34161" lon="-3.40974">
        <ele>19</ele>
        <time>2023-07-13T00:32:03.000+02:00</time>
      </trkpt>
      <trkpt lat="43.34162" lon="-3.41001">
        <ele>18.8</ele>
        <time>2023-07-13T00:32:06.000+02:00</time>
      </trkpt>
      <trkpt lat="43.34165" lon="-3.41016">
        <ele>18.3</ele>
        <time>2023-07-13T00:32:08.000+02:00</time>
      </trkpt>
      <trkpt lat="43.34172" lon="-3.41043">
        <ele>17.5</ele>
        <time>2023-07-13T00:32:11.000+02:00</time>
      </trkpt>
      <trkpt lat="43.34233" lon="-3.41212">
        <ele>15.8</ele>
        <time>2023-07-13T00:32:32.000+02:00</time>
      </trkpt>
      <trkpt lat="43.34243" lon="-3.41255">
        <ele>15</ele>
        <time>2023-07-13T00:32:37.000+02:00</time>
      </trkpt>
      <trkpt lat="43.34253" lon="-3.41307">
        <ele>15.5</ele>
        <time>2023-07-13T00:32:43.000+02:00</time>
      </trkpt>
      <trkpt lat="43.34256" lon="-3.41324">
        <ele>16</ele>
        <time>2023-07-13T00:32:45.000+02:00</time>
      </trkpt>
      <trkpt lat="43.34271" lon="-3.41389">
        <ele>16</ele>
        <time>2023-07-13T00:32:52.000+02:00</time>
      </trkpt>
      <trkpt lat="43.34276" lon="-3.41414">
        <ele>15.5</ele>
        <time>2023-07-13T00:32:55.000+02:00</time>
      </trkpt>
      <trkpt lat="43.34284" lon="-3.41442">
        <ele>15</ele>
        <time>2023-07-13T00:32:58.000+02:00</time>
      </trkpt>
      <trkpt lat="43.34309" lon="-3.41515">
        <ele>13.8</ele>
        <time>2023-07-13T00:33:07.000+02:00</time>
      </trkpt>
      <trkpt lat="43.34327" lon="-3.41562">
        <ele>14.5</ele>
        <time>2023-07-13T00:33:13.000+02:00</time>
      </trkpt>
      <trkpt lat="43.34344" lon="-3.4159">
        <ele>15</ele>
        <time>2023-07-13T00:33:17.000+02:00</time>
      </trkpt>
      <trkpt lat="43.34363" lon="-3.41628">
        <ele>15.3</ele>
        <time>2023-07-13T00:33:23.000+02:00</time>
      </trkpt>
      <trkpt lat="43.34374" lon="-3.41646">
        <ele>15.3</ele>
        <time>2023-07-13T00:33:25.000+02:00</time>
      </trkpt>
      <trkpt lat="43.34369" lon="-3.41649">
        <ele>15.3</ele>
        <time>2023-07-13T00:33:26.000+02:00</time>
      </trkpt>
      <trkpt lat="43.34364" lon="-3.41653">
        <ele>15.3</ele>
        <time>2023-07-13T00:33:27.000+02:00</time>
      </trkpt>
      <trkpt lat="43.34343" lon="-3.41668">
        <ele>16.5</ele>
        <time>2023-07-13T00:33:30.000+02:00</time>
      </trkpt>
      <trkpt lat="43.34328" lon="-3.41681">
        <ele>16.3</ele>
        <time>2023-07-13T00:33:33.000+02:00</time>
      </trkpt>
      <trkpt lat="43.3433" lon="-3.41683">
        <ele>16.3</ele>
        <time>2023-07-13T00:33:33.000+02:00</time>
      </trkpt>
      <trkpt lat="43.34366" lon="-3.41749">
        <ele>13.3</ele>
        <time>2023-07-13T00:33:43.000+02:00</time>
      </trkpt>
      <trkpt lat="43.34378" lon="-3.4177">
        <ele>12.5</ele>
        <time>2023-07-13T00:33:46.000+02:00</time>
      </trkpt>
      <trkpt lat="43.34394" lon="-3.41797">
        <ele>11.3</ele>
        <time>2023-07-13T00:33:49.000+02:00</time>
      </trkpt>
      <trkpt lat="43.34416" lon="-3.41831">
        <ele>10</ele>
        <time>2023-07-13T00:33:55.000+02:00</time>
      </trkpt>
      <trkpt lat="43.3444" lon="-3.4186">
        <ele>9</ele>
        <time>2023-07-13T00:33:59.000+02:00</time>
      </trkpt>
      <trkpt lat="43.34482" lon="-3.41911">
        <ele>8.8</ele>
        <time>2023-07-13T00:34:08.000+02:00</time>
      </trkpt>
      <trkpt lat="43.34489" lon="-3.4192">
        <ele>8.8</ele>
        <time>2023-07-13T00:34:09.000+02:00</time>
      </trkpt>
      <trkpt lat="43.34496" lon="-3.41931">
        <ele>9.3</ele>
        <time>2023-07-13T00:34:11.000+02:00</time>
      </trkpt>
      <trkpt lat="43.34502" lon="-3.41946">
        <ele>10</ele>
        <time>2023-07-13T00:34:13.000+02:00</time>
      </trkpt>
      <trkpt lat="43.34555" lon="-3.42114">
        <ele>10.8</ele>
        <time>2023-07-13T00:34:33.000+02:00</time>
      </trkpt>
      <trkpt lat="43.34559" lon="-3.42125">
        <ele>10.3</ele>
        <time>2023-07-13T00:34:35.000+02:00</time>
      </trkpt>
      <trkpt lat="43.34566" lon="-3.42151">
        <ele>9.5</ele>
        <time>2023-07-13T00:34:38.000+02:00</time>
      </trkpt>
      <trkpt lat="43.3457" lon="-3.42166">
        <ele>9</ele>
        <time>2023-07-13T00:34:40.000+02:00</time>
      </trkpt>
      <trkpt lat="43.34574" lon="-3.42179">
        <ele>9.3</ele>
        <time>2023-07-13T00:34:41.000+02:00</time>
      </trkpt>
      <trkpt lat="43.34567" lon="-3.42181">
        <ele>9.5</ele>
        <time>2023-07-13T00:34:42.000+02:00</time>
      </trkpt>
      <trkpt lat="43.34561" lon="-3.42183">
        <ele>9.5</ele>
        <time>2023-07-13T00:34:43.000+02:00</time>
      </trkpt>
      <trkpt lat="43.34545" lon="-3.42199">
        <ele>10</ele>
        <time>2023-07-13T00:34:46.000+02:00</time>
      </trkpt>
      <trkpt lat="43.34541" lon="-3.42203">
        <ele>10</ele>
        <time>2023-07-13T00:34:47.000+02:00</time>
      </trkpt>
      <trkpt lat="43.34477" lon="-3.42266">
        <ele>10.8</ele>
        <time>2023-07-13T00:34:59.000+02:00</time>
      </trkpt>
      <trkpt lat="43.34458" lon="-3.42298">
        <ele>10.8</ele>
        <time>2023-07-13T00:35:04.000+02:00</time>
      </trkpt>
      <trkpt lat="43.3445" lon="-3.42317">
        <ele>10.8</ele>
        <time>2023-07-13T00:35:06.000+02:00</time>
      </trkpt>
      <trkpt lat="43.34448" lon="-3.42332">
        <ele>10.8</ele>
        <time>2023-07-13T00:35:08.000+02:00</time>
      </trkpt>
      <trkpt lat="43.34444" lon="-3.42367">
        <ele>14.3</ele>
        <time>2023-07-13T00:35:12.000+02:00</time>
      </trkpt>
      <trkpt lat="43.34441" lon="-3.42383">
        <ele>15.8</ele>
        <time>2023-07-13T00:35:14.000+02:00</time>
      </trkpt>
      <trkpt lat="43.34434" lon="-3.42398">
        <ele>17.3</ele>
        <time>2023-07-13T00:35:16.000+02:00</time>
      </trkpt>
      <trkpt lat="43.34427" lon="-3.42407">
        <ele>18</ele>
        <time>2023-07-13T00:35:17.000+02:00</time>
      </trkpt>
      <trkpt lat="43.34408" lon="-3.42434">
        <ele>21.5</ele>
        <time>2023-07-13T00:35:21.000+02:00</time>
      </trkpt>
      <trkpt lat="43.34401" lon="-3.42449">
        <ele>23.5</ele>
        <time>2023-07-13T00:35:23.000+02:00</time>
      </trkpt>
      <trkpt lat="43.34395" lon="-3.42471">
        <ele>26.8</ele>
        <time>2023-07-13T00:35:26.000+02:00</time>
      </trkpt>
      <trkpt lat="43.34386" lon="-3.42495">
        <ele>29.3</ele>
        <time>2023-07-13T00:35:29.000+02:00</time>
      </trkpt>
      <trkpt lat="43.34376" lon="-3.42553">
        <ele>41</ele>
        <time>2023-07-13T00:35:35.000+02:00</time>
      </trkpt>
      <trkpt lat="43.34367" lon="-3.42578">
        <ele>43.8</ele>
        <time>2023-07-13T00:35:39.000+02:00</time>
      </trkpt>
      <trkpt lat="43.34357" lon="-3.426">
        <ele>45</ele>
        <time>2023-07-13T00:35:41.000+02:00</time>
      </trkpt>
      <trkpt lat="43.34334" lon="-3.42641">
        <ele>44.5</ele>
        <time>2023-07-13T00:35:47.000+02:00</time>
      </trkpt>
      <trkpt lat="43.34318" lon="-3.42662">
        <ele>42.5</ele>
        <time>2023-07-13T00:35:50.000+02:00</time>
      </trkpt>
      <trkpt lat="43.34298" lon="-3.4269">
        <ele>43</ele>
        <time>2023-07-13T00:35:55.000+02:00</time>
      </trkpt>
      <trkpt lat="43.34263" lon="-3.4273">
        <ele>39</ele>
        <time>2023-07-13T00:36:02.000+02:00</time>
      </trkpt>
      <trkpt lat="43.34232" lon="-3.42758">
        <ele>38.5</ele>
        <time>2023-07-13T00:36:07.000+02:00</time>
      </trkpt>
      <trkpt lat="43.34187" lon="-3.42804">
        <ele>48.8</ele>
        <time>2023-07-13T00:36:16.000+02:00</time>
      </trkpt>
      <trkpt lat="43.34172" lon="-3.42816">
        <ele>48.8</ele>
        <time>2023-07-13T00:36:19.000+02:00</time>
      </trkpt>
      <trkpt lat="43.34154" lon="-3.42832">
        <ele>49.8</ele>
        <time>2023-07-13T00:36:22.000+02:00</time>
      </trkpt>
      <trkpt lat="43.3412" lon="-3.42855">
        <ele>48.5</ele>
        <time>2023-07-13T00:36:28.000+02:00</time>
      </trkpt>
      <trkpt lat="43.34083" lon="-3.42883">
        <ele>44.8</ele>
        <time>2023-07-13T00:36:34.000+02:00</time>
      </trkpt>
      <trkpt lat="43.34065" lon="-3.429">
        <ele>46.8</ele>
        <time>2023-07-13T00:36:38.000+02:00</time>
      </trkpt>
      <trkpt lat="43.34047" lon="-3.42921">
        <ele>49.5</ele>
        <time>2023-07-13T00:36:41.000+02:00</time>
      </trkpt>
      <trkpt lat="43.33994" lon="-3.4297">
        <ele>53</ele>
        <time>2023-07-13T00:36:51.000+02:00</time>
      </trkpt>
      <trkpt lat="43.33971" lon="-3.42993">
        <ele>53.5</ele>
        <time>2023-07-13T00:36:55.000+02:00</time>
      </trkpt>
      <trkpt lat="43.3396" lon="-3.43005">
        <ele>54</ele>
        <time>2023-07-13T00:36:57.000+02:00</time>
      </trkpt>
      <trkpt lat="43.33949" lon="-3.43025">
        <ele>58.8</ele>
        <time>2023-07-13T00:37:00.000+02:00</time>
      </trkpt>
      <trkpt lat="43.33938" lon="-3.43044">
        <ele>62.5</ele>
        <time>2023-07-13T00:37:03.000+02:00</time>
      </trkpt>
      <trkpt lat="43.3393" lon="-3.43053">
        <ele>63.5</ele>
        <time>2023-07-13T00:37:05.000+02:00</time>
      </trkpt>
      <trkpt lat="43.33897" lon="-3.43075">
        <ele>63.5</ele>
        <time>2023-07-13T00:37:10.000+02:00</time>
      </trkpt>
      <trkpt lat="43.33889" lon="-3.43083">
        <ele>64.5</ele>
        <time>2023-07-13T00:37:12.000+02:00</time>
      </trkpt>
      <trkpt lat="43.33843" lon="-3.43145">
        <ele>71</ele>
        <time>2023-07-13T00:37:21.000+02:00</time>
      </trkpt>
      <trkpt lat="43.33818" lon="-3.43181">
        <ele>75</ele>
        <time>2023-07-13T00:37:27.000+02:00</time>
      </trkpt>
      <trkpt lat="43.33806" lon="-3.43197">
        <ele>77</ele>
        <time>2023-07-13T00:37:30.000+02:00</time>
      </trkpt>
      <trkpt lat="43.3379" lon="-3.43208">
        <ele>77.5</ele>
        <time>2023-07-13T00:37:32.000+02:00</time>
      </trkpt>
      <trkpt lat="43.33779" lon="-3.43212">
        <ele>77</ele>
        <time>2023-07-13T00:37:34.000+02:00</time>
      </trkpt>
      <trkpt lat="43.33766" lon="-3.43211">
        <ele>75</ele>
        <time>2023-07-13T00:37:36.000+02:00</time>
      </trkpt>
      <trkpt lat="43.33755" lon="-3.43212">
        <ele>73.5</ele>
        <time>2023-07-13T00:37:38.000+02:00</time>
      </trkpt>
      <trkpt lat="43.33746" lon="-3.43215">
        <ele>72.3</ele>
        <time>2023-07-13T00:37:39.000+02:00</time>
      </trkpt>
      <trkpt lat="43.33743" lon="-3.43219">
        <ele>72.3</ele>
        <time>2023-07-13T00:37:40.000+02:00</time>
      </trkpt>
      <trkpt lat="43.33743" lon="-3.43227">
        <ele>74.3</ele>
        <time>2023-07-13T00:37:41.000+02:00</time>
      </trkpt>
      <trkpt lat="43.33746" lon="-3.43231">
        <ele>76.5</ele>
        <time>2023-07-13T00:37:42.000+02:00</time>
      </trkpt>
      <trkpt lat="43.33751" lon="-3.43235">
        <ele>79.5</ele>
        <time>2023-07-13T00:37:43.000+02:00</time>
      </trkpt>
      <trkpt lat="43.33825" lon="-3.43222">
        <ele>86</ele>
        <time>2023-07-13T00:37:54.000+02:00</time>
      </trkpt>
      <trkpt lat="43.33853" lon="-3.43206">
        <ele>88.8</ele>
        <time>2023-07-13T00:37:59.000+02:00</time>
      </trkpt>
      <trkpt lat="43.3388" lon="-3.43184">
        <ele>91.5</ele>
        <time>2023-07-13T00:38:04.000+02:00</time>
      </trkpt>
      <trkpt lat="43.33898" lon="-3.43166">
        <ele>93</ele>
        <time>2023-07-13T00:38:07.000+02:00</time>
      </trkpt>
      <trkpt lat="43.33914" lon="-3.43154">
        <ele>93.8</ele>
        <time>2023-07-13T00:38:10.000+02:00</time>
      </trkpt>
      <trkpt lat="43.33965" lon="-3.43129">
        <ele>100.3</ele>
        <time>2023-07-13T00:38:18.000+02:00</time>
      </trkpt>
      <trkpt lat="43.33981" lon="-3.43113">
        <ele>101.3</ele>
        <time>2023-07-13T00:38:21.000+02:00</time>
      </trkpt>
      <trkpt lat="43.34024" lon="-3.43063">
        <ele>100.8</ele>
        <time>2023-07-13T00:38:30.000+02:00</time>
      </trkpt>
      <trkpt lat="43.34029" lon="-3.43065">
        <ele>103.3</ele>
        <time>2023-07-13T00:38:31.000+02:00</time>
      </trkpt>
      <trkpt lat="43.34032" lon="-3.43069">
        <ele>105.8</ele>
        <time>2023-07-13T00:38:31.000+02:00</time>
      </trkpt>
      <trkpt lat="43.34033" lon="-3.43076">
        <ele>109.3</ele>
        <time>2023-07-13T00:38:32.000+02:00</time>
      </trkpt>
      <trkpt lat="43.34029" lon="-3.43082">
        <ele>110.8</ele>
        <time>2023-07-13T00:38:33.000+02:00</time>
      </trkpt>
      <trkpt lat="43.34014" lon="-3.43096">
        <ele>108.5</ele>
        <time>2023-07-13T00:38:36.000+02:00</time>
      </trkpt>
      <trkpt lat="43.33996" lon="-3.43119">
        <ele>107.3</ele>
        <time>2023-07-13T00:38:40.000+02:00</time>
      </trkpt>
      <trkpt lat="43.33978" lon="-3.43145">
        <ele>108.5</ele>
        <time>2023-07-13T00:38:44.000+02:00</time>
      </trkpt>
      <trkpt lat="43.33868" lon="-3.43303">
        <ele>114.3</ele>
        <time>2023-07-13T00:39:08.000+02:00</time>
      </trkpt>
      <trkpt lat="43.33849" lon="-3.43327">
        <ele>115</ele>
        <time>2023-07-13T00:39:12.000+02:00</time>
      </trkpt>
      <trkpt lat="43.33836" lon="-3.43334">
        <ele>113.5</ele>
        <time>2023-07-13T00:39:14.000+02:00</time>
      </trkpt>
      <trkpt lat="43.33823" lon="-3.43339">
        <ele>114</ele>
        <time>2023-07-13T00:39:16.000+02:00</time>
      </trkpt>
      <trkpt lat="43.33812" lon="-3.43348">
        <ele>116</ele>
        <time>2023-07-13T00:39:18.000+02:00</time>
      </trkpt>
      <trkpt lat="43.33791" lon="-3.43373">
        <ele>121</ele>
        <time>2023-07-13T00:39:22.000+02:00</time>
      </trkpt>
      <trkpt lat="43.33783" lon="-3.43387">
        <ele>123.5</ele>
        <time>2023-07-13T00:39:24.000+02:00</time>
      </trkpt>
      <trkpt lat="43.33774" lon="-3.43392">
        <ele>124.3</ele>
        <time>2023-07-13T00:39:26.000+02:00</time>
      </trkpt>
      <trkpt lat="43.33742" lon="-3.43401">
        <ele>123.5</ele>
        <time>2023-07-13T00:39:31.000+02:00</time>
      </trkpt>
      <trkpt lat="43.33724" lon="-3.43408">
        <ele>123.3</ele>
        <time>2023-07-13T00:39:33.000+02:00</time>
      </trkpt>
      <trkpt lat="43.33715" lon="-3.43414">
        <ele>124</ele>
        <time>2023-07-13T00:39:35.000+02:00</time>
      </trkpt>
      <trkpt lat="43.33703" lon="-3.43425">
        <ele>125.3</ele>
        <time>2023-07-13T00:39:37.000+02:00</time>
      </trkpt>
      <trkpt lat="43.33689" lon="-3.43444">
        <ele>128</ele>
        <time>2023-07-13T00:39:40.000+02:00</time>
      </trkpt>
      <trkpt lat="43.33677" lon="-3.43465">
        <ele>130.8</ele>
        <time>2023-07-13T00:39:43.000+02:00</time>
      </trkpt>
      <trkpt lat="43.33662" lon="-3.4349">
        <ele>132.5</ele>
        <time>2023-07-13T00:39:47.000+02:00</time>
      </trkpt>
      <trkpt lat="43.33655" lon="-3.4351">
        <ele>134</ele>
        <time>2023-07-13T00:39:49.000+02:00</time>
      </trkpt>
      <trkpt lat="43.33641" lon="-3.4355">
        <ele>136</ele>
        <time>2023-07-13T00:39:54.000+02:00</time>
      </trkpt>
      <trkpt lat="43.33623" lon="-3.43612">
        <ele>138.3</ele>
        <time>2023-07-13T00:40:02.000+02:00</time>
      </trkpt>
      <trkpt lat="43.33614" lon="-3.4365">
        <ele>139.8</ele>
        <time>2023-07-13T00:40:06.000+02:00</time>
      </trkpt>
      <trkpt lat="43.33613" lon="-3.43683">
        <ele>141</ele>
        <time>2023-07-13T00:40:10.000+02:00</time>
      </trkpt>
      <trkpt lat="43.33615" lon="-3.43727">
        <ele>141</ele>
        <time>2023-07-13T00:40:15.000+02:00</time>
      </trkpt>
      <trkpt lat="43.33617" lon="-3.43745">
        <ele>141.3</ele>
        <time>2023-07-13T00:40:17.000+02:00</time>
      </trkpt>
      <trkpt lat="43.33622" lon="-3.4376">
        <ele>142.3</ele>
        <time>2023-07-13T00:40:19.000+02:00</time>
      </trkpt>
      <trkpt lat="43.33629" lon="-3.4377">
        <ele>143.8</ele>
        <time>2023-07-13T00:40:20.000+02:00</time>
      </trkpt>
      <trkpt lat="43.33641" lon="-3.43776">
        <ele>145.8</ele>
        <time>2023-07-13T00:40:22.000+02:00</time>
      </trkpt>
      <trkpt lat="43.33651" lon="-3.43779">
        <ele>147.5</ele>
        <time>2023-07-13T00:40:24.000+02:00</time>
      </trkpt>
      <trkpt lat="43.33659" lon="-3.43777">
        <ele>148.8</ele>
        <time>2023-07-13T00:40:25.000+02:00</time>
      </trkpt>
      <trkpt lat="43.33668" lon="-3.43773">
        <ele>150.3</ele>
        <time>2023-07-13T00:40:26.000+02:00</time>
      </trkpt>
      <trkpt lat="43.33694" lon="-3.43737">
        <ele>153</ele>
        <time>2023-07-13T00:40:32.000+02:00</time>
      </trkpt>
      <trkpt lat="43.33735" lon="-3.43664">
        <ele>161</ele>
        <time>2023-07-13T00:40:42.000+02:00</time>
      </trkpt>
      <trkpt lat="43.33747" lon="-3.43647">
        <ele>162</ele>
        <time>2023-07-13T00:40:45.000+02:00</time>
      </trkpt>
      <trkpt lat="43.3376" lon="-3.43636">
        <ele>162.8</ele>
        <time>2023-07-13T00:40:47.000+02:00</time>
      </trkpt>
      <trkpt lat="43.33768" lon="-3.43633">
        <ele>163.5</ele>
        <time>2023-07-13T00:40:48.000+02:00</time>
      </trkpt>
      <trkpt lat="43.33779" lon="-3.43631">
        <ele>164</ele>
        <time>2023-07-13T00:40:50.000+02:00</time>
      </trkpt>
      <trkpt lat="43.33792" lon="-3.43632">
        <ele>165</ele>
        <time>2023-07-13T00:40:52.000+02:00</time>
      </trkpt>
      <trkpt lat="43.33811" lon="-3.43641">
        <ele>167</ele>
        <time>2023-07-13T00:40:55.000+02:00</time>
      </trkpt>
      <trkpt lat="43.33823" lon="-3.43657">
        <ele>168.5</ele>
        <time>2023-07-13T00:40:58.000+02:00</time>
      </trkpt>
      <trkpt lat="43.33832" lon="-3.43677">
        <ele>170.3</ele>
        <time>2023-07-13T00:41:00.000+02:00</time>
      </trkpt>
      <trkpt lat="43.33835" lon="-3.43691">
        <ele>171</ele>
        <time>2023-07-13T00:41:02.000+02:00</time>
      </trkpt>
      <trkpt lat="43.3384" lon="-3.43727">
        <ele>172.8</ele>
        <time>2023-07-13T00:41:06.000+02:00</time>
      </trkpt>
      <trkpt lat="43.33841" lon="-3.43746">
        <ele>173.5</ele>
        <time>2023-07-13T00:41:08.000+02:00</time>
      </trkpt>
      <trkpt lat="43.3384" lon="-3.43766">
        <ele>174.5</ele>
        <time>2023-07-13T00:41:10.000+02:00</time>
      </trkpt>
      <trkpt lat="43.33811" lon="-3.43884">
        <ele>179.3</ele>
        <time>2023-07-13T00:41:24.000+02:00</time>
      </trkpt>
      <trkpt lat="43.33805" lon="-3.4394">
        <ele>181</ele>
        <time>2023-07-13T00:41:31.000+02:00</time>
      </trkpt>
      <trkpt lat="43.33795" lon="-3.43996">
        <ele>182.8</ele>
        <time>2023-07-13T00:41:37.000+02:00</time>
      </trkpt>
      <trkpt lat="43.33787" lon="-3.44032">
        <ele>183.5</ele>
        <time>2023-07-13T00:41:41.000+02:00</time>
      </trkpt>
      <trkpt lat="43.33782" lon="-3.44044">
        <ele>184</ele>
        <time>2023-07-13T00:41:43.000+02:00</time>
      </trkpt>
      <trkpt lat="43.33764" lon="-3.44077">
        <ele>186.3</ele>
        <time>2023-07-13T00:41:47.000+02:00</time>
      </trkpt>
      <trkpt lat="43.33755" lon="-3.44091">
        <ele>187</ele>
        <time>2023-07-13T00:41:49.000+02:00</time>
      </trkpt>
      <trkpt lat="43.33704" lon="-3.44147">
        <ele>183</ele>
        <time>2023-07-13T00:41:59.000+02:00</time>
      </trkpt>
      <trkpt lat="43.3364" lon="-3.44211">
        <ele>180.8</ele>
        <time>2023-07-13T00:42:11.000+02:00</time>
      </trkpt>
      <trkpt lat="43.33602" lon="-3.44245">
        <ele>181.3</ele>
        <time>2023-07-13T00:42:18.000+02:00</time>
      </trkpt>
      <trkpt lat="43.3357" lon="-3.44266">
        <ele>181.3</ele>
        <time>2023-07-13T00:42:24.000+02:00</time>
      </trkpt>
      <trkpt lat="43.3355" lon="-3.44275">
        <ele>181.5</ele>
        <time>2023-07-13T00:42:27.000+02:00</time>
      </trkpt>
      <trkpt lat="43.33514" lon="-3.4429">
        <ele>182.8</ele>
        <time>2023-07-13T00:42:33.000+02:00</time>
      </trkpt>
      <trkpt lat="43.33473" lon="-3.44308">
        <ele>184.3</ele>
        <time>2023-07-13T00:42:39.000+02:00</time>
      </trkpt>
      <trkpt lat="43.334" lon="-3.44358">
        <ele>188.5</ele>
        <time>2023-07-13T00:42:52.000+02:00</time>
      </trkpt>
      <trkpt lat="43.33376" lon="-3.44369">
        <ele>189.3</ele>
        <time>2023-07-13T00:42:56.000+02:00</time>
      </trkpt>
      <trkpt lat="43.33357" lon="-3.44374">
        <ele>190.3</ele>
        <time>2023-07-13T00:42:58.000+02:00</time>
      </trkpt>
      <trkpt lat="43.33344" lon="-3.44374">
        <ele>190.8</ele>
        <time>2023-07-13T00:43:00.000+02:00</time>
      </trkpt>
      <trkpt lat="43.33317" lon="-3.44368">
        <ele>191.8</ele>
        <time>2023-07-13T00:43:05.000+02:00</time>
      </trkpt>
      <trkpt lat="43.33284" lon="-3.4436">
        <ele>192.5</ele>
        <time>2023-07-13T00:43:10.000+02:00</time>
      </trkpt>
      <trkpt lat="43.33274" lon="-3.44361">
        <ele>193</ele>
        <time>2023-07-13T00:43:11.000+02:00</time>
      </trkpt>
      <trkpt lat="43.33265" lon="-3.44368">
        <ele>194</ele>
        <time>2023-07-13T00:43:13.000+02:00</time>
      </trkpt>
      <trkpt lat="43.33256" lon="-3.44376">
        <ele>195.3</ele>
        <time>2023-07-13T00:43:15.000+02:00</time>
      </trkpt>
      <trkpt lat="43.33248" lon="-3.44393">
        <ele>197.3</ele>
        <time>2023-07-13T00:43:17.000+02:00</time>
      </trkpt>
      <trkpt lat="43.33247" lon="-3.44404">
        <ele>198.3</ele>
        <time>2023-07-13T00:43:18.000+02:00</time>
      </trkpt>
      <trkpt lat="43.33245" lon="-3.44482">
        <ele>205.5</ele>
        <time>2023-07-13T00:43:27.000+02:00</time>
      </trkpt>
      <trkpt lat="43.33239" lon="-3.44533">
        <ele>206.8</ele>
        <time>2023-07-13T00:43:32.000+02:00</time>
      </trkpt>
      <trkpt lat="43.33233" lon="-3.44552">
        <ele>207.3</ele>
        <time>2023-07-13T00:43:35.000+02:00</time>
      </trkpt>
      <trkpt lat="43.3322" lon="-3.44583">
        <ele>208.5</ele>
        <time>2023-07-13T00:43:39.000+02:00</time>
      </trkpt>
      <trkpt lat="43.33207" lon="-3.44608">
        <ele>209.8</ele>
        <time>2023-07-13T00:43:42.000+02:00</time>
      </trkpt>
      <trkpt lat="43.3317" lon="-3.44662">
        <ele>213.5</ele>
        <time>2023-07-13T00:43:50.000+02:00</time>
      </trkpt>
      <trkpt lat="43.33125" lon="-3.44718">
        <ele>217.8</ele>
        <time>2023-07-13T00:44:00.000+02:00</time>
      </trkpt>
      <trkpt lat="43.32967" lon="-3.44894">
        <ele>228.3</ele>
        <time>2023-07-13T00:44:31.000+02:00</time>
      </trkpt>
      <trkpt lat="43.32893" lon="-3.44978">
        <ele>237.3</ele>
        <time>2023-07-13T00:44:45.000+02:00</time>
      </trkpt>
      <trkpt lat="43.32886" lon="-3.44987">
        <ele>238.5</ele>
        <time>2023-07-13T00:44:47.000+02:00</time>
      </trkpt>
      <trkpt lat="43.3286" lon="-3.45017">
        <ele>241.3</ele>
        <time>2023-07-13T00:44:52.000+02:00</time>
      </trkpt>
      <trkpt lat="43.32759" lon="-3.45136">
        <ele>254.8</ele>
        <time>2023-07-13T00:45:12.000+02:00</time>
      </trkpt>
      <trkpt lat="43.32738" lon="-3.45161">
        <ele>256.8</ele>
        <time>2023-07-13T00:45:17.000+02:00</time>
      </trkpt>
      <trkpt lat="43.32723" lon="-3.45182">
        <ele>255.8</ele>
        <time>2023-07-13T00:45:20.000+02:00</time>
      </trkpt>
      <trkpt lat="43.32708" lon="-3.45205">
        <ele>255</ele>
        <time>2023-07-13T00:45:23.000+02:00</time>
      </trkpt>
      <trkpt lat="43.32691" lon="-3.45237">
        <ele>254.8</ele>
        <time>2023-07-13T00:45:28.000+02:00</time>
      </trkpt>
      <trkpt lat="43.32677" lon="-3.4526">
        <ele>255.8</ele>
        <time>2023-07-13T00:45:31.000+02:00</time>
      </trkpt>
      <trkpt lat="43.32656" lon="-3.45286">
        <ele>256.8</ele>
        <time>2023-07-13T00:45:35.000+02:00</time>
      </trkpt>
      <trkpt lat="43.32651" lon="-3.45288">
        <ele>256.3</ele>
        <time>2023-07-13T00:45:36.000+02:00</time>
      </trkpt>
      <trkpt lat="43.32643" lon="-3.45291">
        <ele>256</ele>
        <time>2023-07-13T00:45:37.000+02:00</time>
      </trkpt>
      <trkpt lat="43.32632" lon="-3.45298">
        <ele>255.8</ele>
        <time>2023-07-13T00:45:39.000+02:00</time>
      </trkpt>
      <trkpt lat="43.32617" lon="-3.45308">
        <ele>256.3</ele>
        <time>2023-07-13T00:45:42.000+02:00</time>
      </trkpt>
      <trkpt lat="43.32601" lon="-3.45322">
        <ele>258.3</ele>
        <time>2023-07-13T00:45:45.000+02:00</time>
      </trkpt>
      <trkpt lat="43.3258" lon="-3.4535">
        <ele>261.8</ele>
        <time>2023-07-13T00:45:49.000+02:00</time>
      </trkpt>
      <trkpt lat="43.32574" lon="-3.45361">
        <ele>262</ele>
        <time>2023-07-13T00:45:51.000+02:00</time>
      </trkpt>
      <trkpt lat="43.32537" lon="-3.4542">
        <ele>266.5</ele>
        <time>2023-07-13T00:45:59.000+02:00</time>
      </trkpt>
      <trkpt lat="43.32509" lon="-3.45484">
        <ele>272.8</ele>
        <time>2023-07-13T00:46:08.000+02:00</time>
      </trkpt>
      <trkpt lat="43.32482" lon="-3.45551">
        <ele>276.5</ele>
        <time>2023-07-13T00:46:16.000+02:00</time>
      </trkpt>
      <trkpt lat="43.32458" lon="-3.45629">
        <ele>280.8</ele>
        <time>2023-07-13T00:46:26.000+02:00</time>
      </trkpt>
      <trkpt lat="43.32447" lon="-3.45669">
        <ele>284.5</ele>
        <time>2023-07-13T00:46:30.000+02:00</time>
      </trkpt>
      <trkpt lat="43.32388" lon="-3.45792">
        <ele>295.8</ele>
        <time>2023-07-13T00:46:47.000+02:00</time>
      </trkpt>
      <trkpt lat="43.32373" lon="-3.45841">
        <ele>299</ele>
        <time>2023-07-13T00:46:53.000+02:00</time>
      </trkpt>
      <trkpt lat="43.32315" lon="-3.46066">
        <ele>323.3</ele>
        <time>2023-07-13T00:47:19.000+02:00</time>
      </trkpt>
      <trkpt lat="43.32312" lon="-3.46078">
        <ele>324.8</ele>
        <time>2023-07-13T00:47:21.000+02:00</time>
      </trkpt>
      <trkpt lat="43.32309" lon="-3.46084">
        <ele>325.5</ele>
        <time>2023-07-13T00:47:22.000+02:00</time>
      </trkpt>
      <trkpt lat="43.32303" lon="-3.46091">
        <ele>326</ele>
        <time>2023-07-13T00:47:23.000+02:00</time>
      </trkpt>
      <trkpt lat="43.32298" lon="-3.46097">
        <ele>326.5</ele>
        <time>2023-07-13T00:47:25.000+02:00</time>
      </trkpt>
      <trkpt lat="43.32289" lon="-3.461">
        <ele>326.5</ele>
        <time>2023-07-13T00:47:26.000+02:00</time>
      </trkpt>
      <trkpt lat="43.3228" lon="-3.46101">
        <ele>326.3</ele>
        <time>2023-07-13T00:47:27.000+02:00</time>
      </trkpt>
      <trkpt lat="43.32112" lon="-3.46113">
        <ele>330</ele>
        <time>2023-07-13T00:47:53.000+02:00</time>
      </trkpt>
      <trkpt lat="43.32104" lon="-3.46118">
        <ele>330.8</ele>
        <time>2023-07-13T00:47:54.000+02:00</time>
      </trkpt>
      <trkpt lat="43.32097" lon="-3.46125">
        <ele>331.8</ele>
        <time>2023-07-13T00:47:56.000+02:00</time>
      </trkpt>
      <trkpt lat="43.32091" lon="-3.46133">
        <ele>333</ele>
        <time>2023-07-13T00:47:57.000+02:00</time>
      </trkpt>
      <trkpt lat="43.32082" lon="-3.46152">
        <ele>336</ele>
        <time>2023-07-13T00:48:00.000+02:00</time>
      </trkpt>
      <trkpt lat="43.32068" lon="-3.46187">
        <ele>338.5</ele>
        <time>2023-07-13T00:48:04.000+02:00</time>
      </trkpt>
      <trkpt lat="43.32054" lon="-3.46215">
        <ele>340.3</ele>
        <time>2023-07-13T00:48:08.000+02:00</time>
      </trkpt>
      <trkpt lat="43.32047" lon="-3.46232">
        <ele>342</ele>
        <time>2023-07-13T00:48:10.000+02:00</time>
      </trkpt>
      <trkpt lat="43.32039" lon="-3.46247">
        <ele>343.8</ele>
        <time>2023-07-13T00:48:12.000+02:00</time>
      </trkpt>
      <trkpt lat="43.3203" lon="-3.4626">
        <ele>343.8</ele>
        <time>2023-07-13T00:48:14.000+02:00</time>
      </trkpt>
      <trkpt lat="43.32007" lon="-3.46288">
        <ele>343.8</ele>
        <time>2023-07-13T00:48:19.000+02:00</time>
      </trkpt>
      <trkpt lat="43.31981" lon="-3.46312">
        <ele>344.5</ele>
        <time>2023-07-13T00:48:23.000+02:00</time>
      </trkpt>
      <trkpt lat="43.31968" lon="-3.46323">
        <ele>345.5</ele>
        <time>2023-07-13T00:48:26.000+02:00</time>
      </trkpt>
      <trkpt lat="43.31957" lon="-3.46338">
        <ele>347</ele>
        <time>2023-07-13T00:48:28.000+02:00</time>
      </trkpt>
      <trkpt lat="43.31948" lon="-3.46348">
        <ele>347.5</ele>
        <time>2023-07-13T00:48:30.000+02:00</time>
      </trkpt>
      <trkpt lat="43.31934" lon="-3.46363">
        <ele>348.8</ele>
        <time>2023-07-13T00:48:33.000+02:00</time>
      </trkpt>
      <trkpt lat="43.31922" lon="-3.46372">
        <ele>350</ele>
        <time>2023-07-13T00:48:35.000+02:00</time>
      </trkpt>
      <trkpt lat="43.31912" lon="-3.46381">
        <ele>350.8</ele>
        <time>2023-07-13T00:48:36.000+02:00</time>
      </trkpt>
      <trkpt lat="43.31903" lon="-3.46387">
        <ele>351.5</ele>
        <time>2023-07-13T00:48:38.000+02:00</time>
      </trkpt>
      <trkpt lat="43.31801" lon="-3.46452">
        <ele>364.3</ele>
        <time>2023-07-13T00:48:55.000+02:00</time>
      </trkpt>
      <trkpt lat="43.31766" lon="-3.46472">
        <ele>367.3</ele>
        <time>2023-07-13T00:49:01.000+02:00</time>
      </trkpt>
      <trkpt lat="43.31758" lon="-3.46477">
        <ele>368</ele>
        <time>2023-07-13T00:49:02.000+02:00</time>
      </trkpt>
      <trkpt lat="43.31731" lon="-3.46484">
        <ele>367</ele>
        <time>2023-07-13T00:49:06.000+02:00</time>
      </trkpt>
      <trkpt lat="43.31714" lon="-3.46489">
        <ele>365.5</ele>
        <time>2023-07-13T00:49:09.000+02:00</time>
      </trkpt>
      <trkpt lat="43.31703" lon="-3.46498">
        <ele>365</ele>
        <time>2023-07-13T00:49:11.000+02:00</time>
      </trkpt>
      <trkpt lat="43.31696" lon="-3.46504">
        <ele>365</ele>
        <time>2023-07-13T00:49:12.000+02:00</time>
      </trkpt>
      <trkpt lat="43.31691" lon="-3.46513">
        <ele>365.3</ele>
        <time>2023-07-13T00:49:14.000+02:00</time>
      </trkpt>
      <trkpt lat="43.31688" lon="-3.46523">
        <ele>366</ele>
        <time>2023-07-13T00:49:15.000+02:00</time>
      </trkpt>
      <trkpt lat="43.31685" lon="-3.46535">
        <ele>366.8</ele>
        <time>2023-07-13T00:49:16.000+02:00</time>
      </trkpt>
      <trkpt lat="43.31685" lon="-3.46549">
        <ele>368.3</ele>
        <time>2023-07-13T00:49:18.000+02:00</time>
      </trkpt>
      <trkpt lat="43.31686" lon="-3.46562">
        <ele>369.8</ele>
        <time>2023-07-13T00:49:19.000+02:00</time>
      </trkpt>
      <trkpt lat="43.31699" lon="-3.46644">
        <ele>376.8</ele>
        <time>2023-07-13T00:49:29.000+02:00</time>
      </trkpt>
      <trkpt lat="43.31714" lon="-3.46717">
        <ele>383.5</ele>
        <time>2023-07-13T00:49:37.000+02:00</time>
      </trkpt>
      <trkpt lat="43.31717" lon="-3.46731">
        <ele>384.8</ele>
        <time>2023-07-13T00:49:39.000+02:00</time>
      </trkpt>
      <trkpt lat="43.31723" lon="-3.46744">
        <ele>386.3</ele>
        <time>2023-07-13T00:49:40.000+02:00</time>
      </trkpt>
      <trkpt lat="43.31734" lon="-3.46767">
        <ele>390</ele>
        <time>2023-07-13T00:49:43.000+02:00</time>
      </trkpt>
      <trkpt lat="43.31832" lon="-3.46926">
        <ele>407.3</ele>
        <time>2023-07-13T00:50:07.000+02:00</time>
      </trkpt>
      <trkpt lat="43.31841" lon="-3.46942">
        <ele>410.3</ele>
        <time>2023-07-13T00:50:09.000+02:00</time>
      </trkpt>
      <trkpt lat="43.31843" lon="-3.46949">
        <ele>411.5</ele>
        <time>2023-07-13T00:50:10.000+02:00</time>
      </trkpt>
      <trkpt lat="43.31844" lon="-3.46959">
        <ele>413.3</ele>
        <time>2023-07-13T00:50:11.000+02:00</time>
      </trkpt>
      <trkpt lat="43.31843" lon="-3.46971">
        <ele>414.8</ele>
        <time>2023-07-13T00:50:12.000+02:00</time>
      </trkpt>
      <trkpt lat="43.31809" lon="-3.47072">
        <ele>418.5</ele>
        <time>2023-07-13T00:50:24.000+02:00</time>
      </trkpt>
      <trkpt lat="43.3178" lon="-3.47154">
        <ele>418.5</ele>
        <time>2023-07-13T00:50:35.000+02:00</time>
      </trkpt>
      <trkpt lat="43.31765" lon="-3.47172">
        <ele>420</ele>
        <time>2023-07-13T00:50:38.000+02:00</time>
      </trkpt>
      <trkpt lat="43.31752" lon="-3.47186">
        <ele>421.8</ele>
        <time>2023-07-13T00:50:40.000+02:00</time>
      </trkpt>
      <trkpt lat="43.3172" lon="-3.47236">
        <ele>425</ele>
        <time>2023-07-13T00:50:48.000+02:00</time>
      </trkpt>
      <trkpt lat="43.31709" lon="-3.47256">
        <ele>425.5</ele>
        <time>2023-07-13T00:50:50.000+02:00</time>
      </trkpt>
      <trkpt lat="43.31704" lon="-3.47267">
        <ele>426</ele>
        <time>2023-07-13T00:50:52.000+02:00</time>
      </trkpt>
      <trkpt lat="43.31699" lon="-3.47274">
        <ele>426.3</ele>
        <time>2023-07-13T00:50:53.000+02:00</time>
      </trkpt>
      <trkpt lat="43.31695" lon="-3.47279">
        <ele>426.8</ele>
        <time>2023-07-13T00:50:54.000+02:00</time>
      </trkpt>
      <trkpt lat="43.31686" lon="-3.47289">
        <ele>427.5</ele>
        <time>2023-07-13T00:50:55.000+02:00</time>
      </trkpt>
      <trkpt lat="43.31677" lon="-3.47293">
        <ele>428.3</ele>
        <time>2023-07-13T00:50:57.000+02:00</time>
      </trkpt>
      <trkpt lat="43.31653" lon="-3.47299">
        <ele>430</ele>
        <time>2023-07-13T00:51:01.000+02:00</time>
      </trkpt>
      <trkpt lat="43.31644" lon="-3.47303">
        <ele>430.5</ele>
        <time>2023-07-13T00:51:02.000+02:00</time>
      </trkpt>
      <trkpt lat="43.31634" lon="-3.47309">
        <ele>430.8</ele>
        <time>2023-07-13T00:51:04.000+02:00</time>
      </trkpt>
      <trkpt lat="43.31625" lon="-3.47316">
        <ele>430.5</ele>
        <time>2023-07-13T00:51:05.000+02:00</time>
      </trkpt>
      <trkpt lat="43.31619" lon="-3.47319">
        <ele>430.5</ele>
        <time>2023-07-13T00:51:06.000+02:00</time>
      </trkpt>
      <trkpt lat="43.31615" lon="-3.4732">
        <ele>430.8</ele>
        <time>2023-07-13T00:51:07.000+02:00</time>
      </trkpt>
      <trkpt lat="43.31595" lon="-3.4732">
        <ele>432</ele>
        <time>2023-07-13T00:51:10.000+02:00</time>
      </trkpt>
      <trkpt lat="43.31569" lon="-3.4733">
        <ele>433.3</ele>
        <time>2023-07-13T00:51:14.000+02:00</time>
      </trkpt>
      <trkpt lat="43.31558" lon="-3.47335">
        <ele>434</ele>
        <time>2023-07-13T00:51:16.000+02:00</time>
      </trkpt>
      <trkpt lat="43.31549" lon="-3.47346">
        <ele>433.5</ele>
        <time>2023-07-13T00:51:18.000+02:00</time>
      </trkpt>
      <trkpt lat="43.31536" lon="-3.4736">
        <ele>433</ele>
        <time>2023-07-13T00:51:20.000+02:00</time>
      </trkpt>
      <trkpt lat="43.31506" lon="-3.47378">
        <ele>434.5</ele>
        <time>2023-07-13T00:51:25.000+02:00</time>
      </trkpt>
      <trkpt lat="43.31486" lon="-3.47396">
        <ele>434</ele>
        <time>2023-07-13T00:51:29.000+02:00</time>
      </trkpt>
      <trkpt lat="43.3147" lon="-3.47406">
        <ele>434.3</ele>
        <time>2023-07-13T00:51:32.000+02:00</time>
      </trkpt>
      <trkpt lat="43.31459" lon="-3.4741">
        <ele>435</ele>
        <time>2023-07-13T00:51:33.000+02:00</time>
      </trkpt>
      <trkpt lat="43.31448" lon="-3.47412">
        <ele>436</ele>
        <time>2023-07-13T00:51:35.000+02:00</time>
      </trkpt>
      <trkpt lat="43.3144" lon="-3.47412">
        <ele>436.8</ele>
        <time>2023-07-13T00:51:36.000+02:00</time>
      </trkpt>
      <trkpt lat="43.31426" lon="-3.4741">
        <ele>438.3</ele>
        <time>2023-07-13T00:51:38.000+02:00</time>
      </trkpt>
      <trkpt lat="43.31392" lon="-3.47402">
        <ele>440.8</ele>
        <time>2023-07-13T00:51:44.000+02:00</time>
      </trkpt>
      <trkpt lat="43.31383" lon="-3.47398">
        <ele>441</ele>
        <time>2023-07-13T00:51:45.000+02:00</time>
      </trkpt>
      <trkpt lat="43.31364" lon="-3.47388">
        <ele>440.8</ele>
        <time>2023-07-13T00:51:48.000+02:00</time>
      </trkpt>
      <trkpt lat="43.31337" lon="-3.4738">
        <ele>439.8</ele>
        <time>2023-07-13T00:51:52.000+02:00</time>
      </trkpt>
      <trkpt lat="43.31308" lon="-3.47385">
        <ele>440.5</ele>
        <time>2023-07-13T00:51:57.000+02:00</time>
      </trkpt>
      <trkpt lat="43.31294" lon="-3.47384">
        <ele>440.3</ele>
        <time>2023-07-13T00:51:59.000+02:00</time>
      </trkpt>
      <trkpt lat="43.31277" lon="-3.47379">
        <ele>438.8</ele>
        <time>2023-07-13T00:52:02.000+02:00</time>
      </trkpt>
      <trkpt lat="43.3127" lon="-3.47379">
        <ele>438.8</ele>
        <time>2023-07-13T00:52:03.000+02:00</time>
      </trkpt>
      <trkpt lat="43.31265" lon="-3.4738">
        <ele>439</ele>
        <time>2023-07-13T00:52:04.000+02:00</time>
      </trkpt>
      <trkpt lat="43.3126" lon="-3.47382">
        <ele>439.5</ele>
        <time>2023-07-13T00:52:05.000+02:00</time>
      </trkpt>
      <trkpt lat="43.31255" lon="-3.47387">
        <ele>440.8</ele>
        <time>2023-07-13T00:52:06.000+02:00</time>
      </trkpt>
      <trkpt lat="43.31249" lon="-3.47391">
        <ele>441.8</ele>
        <time>2023-07-13T00:52:07.000+02:00</time>
      </trkpt>
      <trkpt lat="43.31236" lon="-3.47393">
        <ele>441.8</ele>
        <time>2023-07-13T00:52:09.000+02:00</time>
      </trkpt>
      <trkpt lat="43.31227" lon="-3.47396">
        <ele>442.3</ele>
        <time>2023-07-13T00:52:11.000+02:00</time>
      </trkpt>
      <trkpt lat="43.31206" lon="-3.47408">
        <ele>445</ele>
        <time>2023-07-13T00:52:14.000+02:00</time>
      </trkpt>
      <trkpt lat="43.31198" lon="-3.47416">
        <ele>447.3</ele>
        <time>2023-07-13T00:52:16.000+02:00</time>
      </trkpt>
      <trkpt lat="43.31195" lon="-3.47421">
        <ele>449</ele>
        <time>2023-07-13T00:52:17.000+02:00</time>
      </trkpt>
      <trkpt lat="43.31187" lon="-3.47442">
        <ele>455.8</ele>
        <time>2023-07-13T00:52:20.000+02:00</time>
      </trkpt>
      <trkpt lat="43.31182" lon="-3.47451">
        <ele>458.5</ele>
        <time>2023-07-13T00:52:21.000+02:00</time>
      </trkpt>
      <trkpt lat="43.31178" lon="-3.47469">
        <ele>464</ele>
        <time>2023-07-13T00:52:23.000+02:00</time>
      </trkpt>
      <trkpt lat="43.31178" lon="-3.47482">
        <ele>468</ele>
        <time>2023-07-13T00:52:25.000+02:00</time>
      </trkpt>
      <trkpt lat="43.31176" lon="-3.47499">
        <ele>473.3</ele>
        <time>2023-07-13T00:52:27.000+02:00</time>
      </trkpt>
      <trkpt lat="43.31173" lon="-3.4751">
        <ele>476</ele>
        <time>2023-07-13T00:52:28.000+02:00</time>
      </trkpt>
      <trkpt lat="43.31159" lon="-3.47535">
        <ele>481.3</ele>
        <time>2023-07-13T00:52:32.000+02:00</time>
      </trkpt>
      <trkpt lat="43.31142" lon="-3.47559">
        <ele>484.8</ele>
        <time>2023-07-13T00:52:35.000+02:00</time>
      </trkpt>
      <trkpt lat="43.31138" lon="-3.4757">
        <ele>487.3</ele>
        <time>2023-07-13T00:52:37.000+02:00</time>
      </trkpt>
      <trkpt lat="43.31134" lon="-3.4758">
        <ele>489.5</ele>
        <time>2023-07-13T00:52:38.000+02:00</time>
      </trkpt>
      <trkpt lat="43.31128" lon="-3.47587">
        <ele>490.8</ele>
        <time>2023-07-13T00:52:39.000+02:00</time>
      </trkpt>
      <trkpt lat="43.31111" lon="-3.47596">
        <ele>490.5</ele>
        <time>2023-07-13T00:52:42.000+02:00</time>
      </trkpt>
      <trkpt lat="43.31088" lon="-3.47615">
        <ele>492.5</ele>
        <time>2023-07-13T00:52:46.000+02:00</time>
      </trkpt>
      <trkpt lat="43.31072" lon="-3.47625">
        <ele>492.3</ele>
        <time>2023-07-13T00:52:49.000+02:00</time>
      </trkpt>
      <trkpt lat="43.31068" lon="-3.47629">
        <ele>493.3</ele>
        <time>2023-07-13T00:52:50.000+02:00</time>
      </trkpt>
      <trkpt lat="43.31067" lon="-3.47639">
        <ele>496.8</ele>
        <time>2023-07-13T00:52:51.000+02:00</time>
      </trkpt>
      <trkpt lat="43.31073" lon="-3.47649">
        <ele>501.5</ele>
        <time>2023-07-13T00:52:52.000+02:00</time>
      </trkpt>
      <trkpt lat="43.31084" lon="-3.47656">
        <ele>506</ele>
        <time>2023-07-13T00:52:54.000+02:00</time>
      </trkpt>
      <trkpt lat="43.31106" lon="-3.47666">
        <ele>514.8</ele>
        <time>2023-07-13T00:52:57.000+02:00</time>
      </trkpt>
      <trkpt lat="43.31115" lon="-3.47667">
        <ele>517.5</ele>
        <time>2023-07-13T00:52:59.000+02:00</time>
      </trkpt>
      <trkpt lat="43.31127" lon="-3.47664">
        <ele>518.8</ele>
        <time>2023-07-13T00:53:01.000+02:00</time>
      </trkpt>
      <trkpt lat="43.31137" lon="-3.47663">
        <ele>520.8</ele>
        <time>2023-07-13T00:53:02.000+02:00</time>
      </trkpt>
      <trkpt lat="43.31156" lon="-3.47665">
        <ele>526</ele>
        <time>2023-07-13T00:53:05.000+02:00</time>
      </trkpt>
      <trkpt lat="43.31174" lon="-3.47663">
        <ele>528.5</ele>
        <time>2023-07-13T00:53:08.000+02:00</time>
      </trkpt>
      <trkpt lat="43.31206" lon="-3.47644">
        <ele>526.5</ele>
        <time>2023-07-13T00:53:13.000+02:00</time>
      </trkpt>
      <trkpt lat="43.31223" lon="-3.47637">
        <ele>526.3</ele>
        <time>2023-07-13T00:53:16.000+02:00</time>
      </trkpt>
      <trkpt lat="43.31233" lon="-3.47637">
        <ele>527.8</ele>
        <time>2023-07-13T00:53:18.000+02:00</time>
      </trkpt>
      <trkpt lat="43.31247" lon="-3.47639">
        <ele>530.8</ele>
        <time>2023-07-13T00:53:20.000+02:00</time>
      </trkpt>
      <trkpt lat="43.31254" lon="-3.47642">
        <ele>531.5</ele>
        <time>2023-07-13T00:53:21.000+02:00</time>
      </trkpt>
      <trkpt lat="43.31261" lon="-3.47648">
        <ele>531.5</ele>
        <time>2023-07-13T00:53:22.000+02:00</time>
      </trkpt>
      <trkpt lat="43.31281" lon="-3.47667">
        <ele>532.3</ele>
        <time>2023-07-13T00:53:26.000+02:00</time>
      </trkpt>
      <trkpt lat="43.31284" lon="-3.47671">
        <ele>532</ele>
        <time>2023-07-13T00:53:26.000+02:00</time>
      </trkpt>
      <trkpt lat="43.31287" lon="-3.47679">
        <ele>532</ele>
        <time>2023-07-13T00:53:27.000+02:00</time>
      </trkpt>
      <trkpt lat="43.31293" lon="-3.47701">
        <ele>533.8</ele>
        <time>2023-07-13T00:53:30.000+02:00</time>
      </trkpt>
      <trkpt lat="43.31308" lon="-3.47733">
        <ele>535.5</ele>
        <time>2023-07-13T00:53:34.000+02:00</time>
      </trkpt>
      <trkpt lat="43.31324" lon="-3.47771">
        <ele>541.3</ele>
        <time>2023-07-13T00:53:39.000+02:00</time>
      </trkpt>
      <trkpt lat="43.31335" lon="-3.47782">
        <ele>542.8</ele>
        <time>2023-07-13T00:53:41.000+02:00</time>
      </trkpt>
      <trkpt lat="43.31355" lon="-3.47796">
        <ele>543.5</ele>
        <time>2023-07-13T00:53:45.000+02:00</time>
      </trkpt>
      <trkpt lat="43.31389" lon="-3.47829">
        <ele>550.3</ele>
        <time>2023-07-13T00:53:51.000+02:00</time>
      </trkpt>
      <trkpt lat="43.314" lon="-3.47842">
        <ele>551.8</ele>
        <time>2023-07-13T00:53:53.000+02:00</time>
      </trkpt>
      <trkpt lat="43.31406" lon="-3.47853">
        <ele>552.5</ele>
        <time>2023-07-13T00:53:55.000+02:00</time>
      </trkpt>
      <trkpt lat="43.31407" lon="-3.47863">
        <ele>553.5</ele>
        <time>2023-07-13T00:53:56.000+02:00</time>
      </trkpt>
      <trkpt lat="43.31404" lon="-3.47876">
        <ele>555.3</ele>
        <time>2023-07-13T00:53:57.000+02:00</time>
      </trkpt>
      <trkpt lat="43.31403" lon="-3.4789">
        <ele>557.3</ele>
        <time>2023-07-13T00:53:59.000+02:00</time>
      </trkpt>
      <trkpt lat="43.31404" lon="-3.479">
        <ele>558.3</ele>
        <time>2023-07-13T00:54:00.000+02:00</time>
      </trkpt>
      <trkpt lat="43.31415" lon="-3.47928">
        <ele>559</ele>
        <time>2023-07-13T00:54:03.000+02:00</time>
      </trkpt>
      <trkpt lat="43.31414" lon="-3.47951">
        <ele>559</ele>
        <time>2023-07-13T00:54:06.000+02:00</time>
      </trkpt>
      <trkpt lat="43.31404" lon="-3.47985">
        <ele>560.8</ele>
        <time>2023-07-13T00:54:10.000+02:00</time>
      </trkpt>
      <trkpt lat="43.31402" lon="-3.48">
        <ele>561.5</ele>
        <time>2023-07-13T00:54:12.000+02:00</time>
      </trkpt>
      <trkpt lat="43.314" lon="-3.48018">
        <ele>561.8</ele>
        <time>2023-07-13T00:54:14.000+02:00</time>
      </trkpt>
      <trkpt lat="43.31395" lon="-3.48047">
        <ele>562.5</ele>
        <time>2023-07-13T00:54:17.000+02:00</time>
      </trkpt>
      <trkpt lat="43.31396" lon="-3.48076">
        <ele>562</ele>
        <time>2023-07-13T00:54:20.000+02:00</time>
      </trkpt>
      <trkpt lat="43.31398" lon="-3.48092">
        <ele>561.5</ele>
        <time>2023-07-13T00:54:22.000+02:00</time>
      </trkpt>
      <trkpt lat="43.314" lon="-3.48102">
        <ele>560.5</ele>
        <time>2023-07-13T00:54:23.000+02:00</time>
      </trkpt>
      <trkpt lat="43.31407" lon="-3.48111">
        <ele>558.8</ele>
        <time>2023-07-13T00:54:25.000+02:00</time>
      </trkpt>
      <trkpt lat="43.31417" lon="-3.48122">
        <ele>556.3</ele>
        <time>2023-07-13T00:54:27.000+02:00</time>
      </trkpt>
      <trkpt lat="43.31424" lon="-3.48131">
        <ele>552.8</ele>
        <time>2023-07-13T00:54:28.000+02:00</time>
      </trkpt>
      <trkpt lat="43.31432" lon="-3.48144">
        <ele>549.5</ele>
        <time>2023-07-13T00:54:30.000+02:00</time>
      </trkpt>
      <trkpt lat="43.31459" lon="-3.48187">
        <ele>536.5</ele>
        <time>2023-07-13T00:54:36.000+02:00</time>
      </trkpt>
      <trkpt lat="43.31479" lon="-3.48236">
        <ele>528.5</ele>
        <time>2023-07-13T00:54:43.000+02:00</time>
      </trkpt>
      <trkpt lat="43.31487" lon="-3.48255">
        <ele>526.3</ele>
        <time>2023-07-13T00:54:45.000+02:00</time>
      </trkpt>
      <trkpt lat="43.31492" lon="-3.48268">
        <ele>525.3</ele>
        <time>2023-07-13T00:54:47.000+02:00</time>
      </trkpt>
      <trkpt lat="43.31495" lon="-3.48284">
        <ele>525.3</ele>
        <time>2023-07-13T00:54:49.000+02:00</time>
      </trkpt>
      <trkpt lat="43.31502" lon="-3.48305">
        <ele>524.8</ele>
        <time>2023-07-13T00:54:51.000+02:00</time>
      </trkpt>
      <trkpt lat="43.31514" lon="-3.48328">
        <ele>522.3</ele>
        <time>2023-07-13T00:54:54.000+02:00</time>
      </trkpt>
      <trkpt lat="43.31524" lon="-3.48345">
        <ele>520.3</ele>
        <time>2023-07-13T00:54:57.000+02:00</time>
      </trkpt>
      <trkpt lat="43.3157" lon="-3.48411">
        <ele>514</ele>
        <time>2023-07-13T00:55:07.000+02:00</time>
      </trkpt>
      <trkpt lat="43.31593" lon="-3.48441">
        <ele>510.5</ele>
        <time>2023-07-13T00:55:12.000+02:00</time>
      </trkpt>
      <trkpt lat="43.31608" lon="-3.48457">
        <ele>505.3</ele>
        <time>2023-07-13T00:55:15.000+02:00</time>
      </trkpt>
      <trkpt lat="43.31626" lon="-3.48472">
        <ele>498</ele>
        <time>2023-07-13T00:55:18.000+02:00</time>
      </trkpt>
      <trkpt lat="43.31639" lon="-3.48484">
        <ele>492.8</ele>
        <time>2023-07-13T00:55:20.000+02:00</time>
      </trkpt>
      <trkpt lat="43.31644" lon="-3.48493">
        <ele>490.5</ele>
        <time>2023-07-13T00:55:22.000+02:00</time>
      </trkpt>
      <trkpt lat="43.31653" lon="-3.48531">
        <ele>487.5</ele>
        <time>2023-07-13T00:55:26.000+02:00</time>
      </trkpt>
      <trkpt lat="43.31656" lon="-3.48553">
        <ele>486.5</ele>
        <time>2023-07-13T00:55:28.000+02:00</time>
      </trkpt>
      <trkpt lat="43.31662" lon="-3.48583">
        <ele>484.3</ele>
        <time>2023-07-13T00:55:32.000+02:00</time>
      </trkpt>
      <trkpt lat="43.31663" lon="-3.48623">
        <ele>481.8</ele>
        <time>2023-07-13T00:55:36.000+02:00</time>
      </trkpt>
      <trkpt lat="43.31662" lon="-3.48636">
        <ele>481.3</ele>
        <time>2023-07-13T00:55:38.000+02:00</time>
      </trkpt>
      <trkpt lat="43.31658" lon="-3.48646">
        <ele>482.5</ele>
        <time>2023-07-13T00:55:39.000+02:00</time>
      </trkpt>
      <trkpt lat="43.31652" lon="-3.48654">
        <ele>484.5</ele>
        <time>2023-07-13T00:55:40.000+02:00</time>
      </trkpt>
      <trkpt lat="43.31644" lon="-3.48662">
        <ele>487</ele>
        <time>2023-07-13T00:55:42.000+02:00</time>
      </trkpt>
      <trkpt lat="43.31632" lon="-3.48671">
        <ele>489.8</ele>
        <time>2023-07-13T00:55:44.000+02:00</time>
      </trkpt>
      <trkpt lat="43.31618" lon="-3.48689">
        <ele>490.8</ele>
        <time>2023-07-13T00:55:47.000+02:00</time>
      </trkpt>
      <trkpt lat="43.31588" lon="-3.48736">
        <ele>491.3</ele>
        <time>2023-07-13T00:55:54.000+02:00</time>
      </trkpt>
      <trkpt lat="43.31562" lon="-3.48765">
        <ele>494.5</ele>
        <time>2023-07-13T00:55:59.000+02:00</time>
      </trkpt>
      <trkpt lat="43.31552" lon="-3.48779">
        <ele>495.5</ele>
        <time>2023-07-13T00:56:01.000+02:00</time>
      </trkpt>
      <trkpt lat="43.31539" lon="-3.48822">
        <ele>492.8</ele>
        <time>2023-07-13T00:56:06.000+02:00</time>
      </trkpt>
      <trkpt lat="43.31526" lon="-3.4887">
        <ele>490.8</ele>
        <time>2023-07-13T00:56:12.000+02:00</time>
      </trkpt>
      <trkpt lat="43.31516" lon="-3.48889">
        <ele>491.5</ele>
        <time>2023-07-13T00:56:15.000+02:00</time>
      </trkpt>
      <trkpt lat="43.31506" lon="-3.48905">
        <ele>493.3</ele>
        <time>2023-07-13T00:56:17.000+02:00</time>
      </trkpt>
      <trkpt lat="43.31497" lon="-3.48915">
        <ele>495.3</ele>
        <time>2023-07-13T00:56:19.000+02:00</time>
      </trkpt>
      <trkpt lat="43.31469" lon="-3.48942">
        <ele>502</ele>
        <time>2023-07-13T00:56:24.000+02:00</time>
      </trkpt>
      <trkpt lat="43.3146" lon="-3.48954">
        <ele>503.3</ele>
        <time>2023-07-13T00:56:26.000+02:00</time>
      </trkpt>
      <trkpt lat="43.31453" lon="-3.48969">
        <ele>503.3</ele>
        <time>2023-07-13T00:56:28.000+02:00</time>
      </trkpt>
      <trkpt lat="43.31446" lon="-3.48986">
        <ele>502.5</ele>
        <time>2023-07-13T00:56:30.000+02:00</time>
      </trkpt>
      <trkpt lat="43.31441" lon="-3.49003">
        <ele>501</ele>
        <time>2023-07-13T00:56:32.000+02:00</time>
      </trkpt>
      <trkpt lat="43.31437" lon="-3.49021">
        <ele>499.5</ele>
        <time>2023-07-13T00:56:34.000+02:00</time>
      </trkpt>
      <trkpt lat="43.31436" lon="-3.49039">
        <ele>496.8</ele>
        <time>2023-07-13T00:56:36.000+02:00</time>
      </trkpt>
      <trkpt lat="43.31438" lon="-3.49062">
        <ele>492.5</ele>
        <time>2023-07-13T00:56:39.000+02:00</time>
      </trkpt>
      <trkpt lat="43.31437" lon="-3.49077">
        <ele>490.3</ele>
        <time>2023-07-13T00:56:40.000+02:00</time>
      </trkpt>
      <trkpt lat="43.31434" lon="-3.49099">
        <ele>488.5</ele>
        <time>2023-07-13T00:56:43.000+02:00</time>
      </trkpt>
      <trkpt lat="43.31433" lon="-3.49113">
        <ele>487</ele>
        <time>2023-07-13T00:56:44.000+02:00</time>
      </trkpt>
      <trkpt lat="43.31432" lon="-3.49121">
        <ele>486.3</ele>
        <time>2023-07-13T00:56:45.000+02:00</time>
      </trkpt>
      <trkpt lat="43.31429" lon="-3.49129">
        <ele>486.5</ele>
        <time>2023-07-13T00:56:46.000+02:00</time>
      </trkpt>
      <trkpt lat="43.31421" lon="-3.49142">
        <ele>487.3</ele>
        <time>2023-07-13T00:56:48.000+02:00</time>
      </trkpt>
      <trkpt lat="43.31418" lon="-3.49156">
        <ele>486.3</ele>
        <time>2023-07-13T00:56:50.000+02:00</time>
      </trkpt>
      <trkpt lat="43.31418" lon="-3.49165">
        <ele>484.8</ele>
        <time>2023-07-13T00:56:51.000+02:00</time>
      </trkpt>
      <trkpt lat="43.31441" lon="-3.49237">
        <ele>478.8</ele>
        <time>2023-07-13T00:57:00.000+02:00</time>
      </trkpt>
      <trkpt lat="43.31448" lon="-3.49248">
        <ele>477.5</ele>
        <time>2023-07-13T00:57:01.000+02:00</time>
      </trkpt>
      <trkpt lat="43.31455" lon="-3.49256">
        <ele>476.5</ele>
        <time>2023-07-13T00:57:03.000+02:00</time>
      </trkpt>
      <trkpt lat="43.31458" lon="-3.49266">
        <ele>476.5</ele>
        <time>2023-07-13T00:57:04.000+02:00</time>
      </trkpt>
      <trkpt lat="43.31458" lon="-3.49276">
        <ele>477.3</ele>
        <time>2023-07-13T00:57:05.000+02:00</time>
      </trkpt>
      <trkpt lat="43.31456" lon="-3.49284">
        <ele>478.3</ele>
        <time>2023-07-13T00:57:06.000+02:00</time>
      </trkpt>
      <trkpt lat="43.31455" lon="-3.49293">
        <ele>479</ele>
        <time>2023-07-13T00:57:07.000+02:00</time>
      </trkpt>
      <trkpt lat="43.31452" lon="-3.493">
        <ele>480.3</ele>
        <time>2023-07-13T00:57:08.000+02:00</time>
      </trkpt>
      <trkpt lat="43.31441" lon="-3.49312">
        <ele>482.8</ele>
        <time>2023-07-13T00:57:10.000+02:00</time>
      </trkpt>
      <trkpt lat="43.31437" lon="-3.49319">
        <ele>484</ele>
        <time>2023-07-13T00:57:11.000+02:00</time>
      </trkpt>
      <trkpt lat="43.31431" lon="-3.49331">
        <ele>485.5</ele>
        <time>2023-07-13T00:57:13.000+02:00</time>
      </trkpt>
      <trkpt lat="43.31426" lon="-3.49343">
        <ele>486</ele>
        <time>2023-07-13T00:57:14.000+02:00</time>
      </trkpt>
      <trkpt lat="43.3142" lon="-3.49361">
        <ele>486</ele>
        <time>2023-07-13T00:57:16.000+02:00</time>
      </trkpt>
      <trkpt lat="43.31415" lon="-3.49373">
        <ele>486.3</ele>
        <time>2023-07-13T00:57:18.000+02:00</time>
      </trkpt>
      <trkpt lat="43.3141" lon="-3.4938">
        <ele>487.3</ele>
        <time>2023-07-13T00:57:19.000+02:00</time>
      </trkpt>
      <trkpt lat="43.31396" lon="-3.49385">
        <ele>490</ele>
        <time>2023-07-13T00:57:21.000+02:00</time>
      </trkpt>
      <trkpt lat="43.31389" lon="-3.49388">
        <ele>491.5</ele>
        <time>2023-07-13T00:57:22.000+02:00</time>
      </trkpt>
      <trkpt lat="43.31385" lon="-3.49397">
        <ele>492</ele>
        <time>2023-07-13T00:57:23.000+02:00</time>
      </trkpt>
      <trkpt lat="43.31379" lon="-3.49405">
        <ele>492.8</ele>
        <time>2023-07-13T00:57:25.000+02:00</time>
      </trkpt>
      <trkpt lat="43.31371" lon="-3.49413">
        <ele>494</ele>
        <time>2023-07-13T00:57:26.000+02:00</time>
      </trkpt>
      <trkpt lat="43.31359" lon="-3.49418">
        <ele>496.3</ele>
        <time>2023-07-13T00:57:28.000+02:00</time>
      </trkpt>
      <trkpt lat="43.31346" lon="-3.49423">
        <ele>498.5</ele>
        <time>2023-07-13T00:57:30.000+02:00</time>
      </trkpt>
      <trkpt lat="43.3134" lon="-3.4943">
        <ele>498.8</ele>
        <time>2023-07-13T00:57:31.000+02:00</time>
      </trkpt>
      <trkpt lat="43.31336" lon="-3.49438">
        <ele>498.5</ele>
        <time>2023-07-13T00:57:33.000+02:00</time>
      </trkpt>
      <trkpt lat="43.31332" lon="-3.49443">
        <ele>498.8</ele>
        <time>2023-07-13T00:57:34.000+02:00</time>
      </trkpt>
      <trkpt lat="43.31326" lon="-3.49447">
        <ele>499.5</ele>
        <time>2023-07-13T00:57:35.000+02:00</time>
      </trkpt>
      <trkpt lat="43.31322" lon="-3.49456">
        <ele>499.5</ele>
        <time>2023-07-13T00:57:36.000+02:00</time>
      </trkpt>
      <trkpt lat="43.31315" lon="-3.49467">
        <ele>499.8</ele>
        <time>2023-07-13T00:57:38.000+02:00</time>
      </trkpt>
      <trkpt lat="43.31311" lon="-3.49472">
        <ele>500.3</ele>
        <time>2023-07-13T00:57:39.000+02:00</time>
      </trkpt>
      <trkpt lat="43.31305" lon="-3.49477">
        <ele>501</ele>
        <time>2023-07-13T00:57:40.000+02:00</time>
      </trkpt>
      <trkpt lat="43.313" lon="-3.4948">
        <ele>502</ele>
        <time>2023-07-13T00:57:41.000+02:00</time>
      </trkpt>
      <trkpt lat="43.31293" lon="-3.49481">
        <ele>503.5</ele>
        <time>2023-07-13T00:57:42.000+02:00</time>
      </trkpt>
      <trkpt lat="43.31263" lon="-3.49479">
        <ele>511</ele>
        <time>2023-07-13T00:57:46.000+02:00</time>
      </trkpt>
      <trkpt lat="43.31254" lon="-3.49481">
        <ele>513.3</ele>
        <time>2023-07-13T00:57:48.000+02:00</time>
      </trkpt>
      <trkpt lat="43.3125" lon="-3.4948">
        <ele>514.3</ele>
        <time>2023-07-13T00:57:49.000+02:00</time>
      </trkpt>
      <trkpt lat="43.31246" lon="-3.49476">
        <ele>514.3</ele>
        <time>2023-07-13T00:57:50.000+02:00</time>
      </trkpt>
      <trkpt lat="43.31244" lon="-3.4947">
        <ele>514.8</ele>
        <time>2023-07-13T00:57:51.000+02:00</time>
      </trkpt>
      <trkpt lat="43.31248" lon="-3.49442">
        <ele>518.5</ele>
        <time>2023-07-13T00:57:54.000+02:00</time>
      </trkpt>
      <trkpt lat="43.31248" lon="-3.49435">
        <ele>519.3</ele>
        <time>2023-07-13T00:57:55.000+02:00</time>
      </trkpt>
      <trkpt lat="43.31246" lon="-3.49429">
        <ele>519.5</ele>
        <time>2023-07-13T00:57:56.000+02:00</time>
      </trkpt>
      <trkpt lat="43.31241" lon="-3.4942">
        <ele>519.8</ele>
        <time>2023-07-13T00:57:57.000+02:00</time>
      </trkpt>
      <trkpt lat="43.31233" lon="-3.49399">
        <ele>520.5</ele>
        <time>2023-07-13T00:58:00.000+02:00</time>
      </trkpt>
      <trkpt lat="43.31228" lon="-3.49389">
        <ele>520.8</ele>
        <time>2023-07-13T00:58:01.000+02:00</time>
      </trkpt>
      <trkpt lat="43.31226" lon="-3.49381">
        <ele>521.3</ele>
        <time>2023-07-13T00:58:02.000+02:00</time>
      </trkpt>
      <trkpt lat="43.31226" lon="-3.49375">
        <ele>521.8</ele>
        <time>2023-07-13T00:58:03.000+02:00</time>
      </trkpt>
      <trkpt lat="43.31228" lon="-3.49359">
        <ele>524</ele>
        <time>2023-07-13T00:58:04.000+02:00</time>
      </trkpt>
      <trkpt lat="43.31227" lon="-3.49351">
        <ele>524.8</ele>
        <time>2023-07-13T00:58:05.000+02:00</time>
      </trkpt>
      <trkpt lat="43.31223" lon="-3.49344">
        <ele>525</ele>
        <time>2023-07-13T00:58:06.000+02:00</time>
      </trkpt>
      <trkpt lat="43.31221" lon="-3.49336">
        <ele>525.5</ele>
        <time>2023-07-13T00:58:07.000+02:00</time>
      </trkpt>
      <trkpt lat="43.31222" lon="-3.4933">
        <ele>526</ele>
        <time>2023-07-13T00:58:08.000+02:00</time>
      </trkpt>
      <trkpt lat="43.31233" lon="-3.49283">
        <ele>527.5</ele>
        <time>2023-07-13T00:58:13.000+02:00</time>
      </trkpt>
      <trkpt lat="43.31235" lon="-3.49255">
        <ele>527.5</ele>
        <time>2023-07-13T00:58:16.000+02:00</time>
      </trkpt>
      <trkpt lat="43.31232" lon="-3.49248">
        <ele>527.5</ele>
        <time>2023-07-13T00:58:17.000+02:00</time>
      </trkpt>
      <trkpt lat="43.31226" lon="-3.49236">
        <ele>527.8</ele>
        <time>2023-07-13T00:58:19.000+02:00</time>
      </trkpt>
      <trkpt lat="43.31218" lon="-3.49225">
        <ele>528.3</ele>
        <time>2023-07-13T00:58:21.000+02:00</time>
      </trkpt>
      <trkpt lat="43.31211" lon="-3.49218">
        <ele>528.8</ele>
        <time>2023-07-13T00:58:22.000+02:00</time>
      </trkpt>
      <trkpt lat="43.31203" lon="-3.49214">
        <ele>529</ele>
        <time>2023-07-13T00:58:23.000+02:00</time>
      </trkpt>
      <trkpt lat="43.31194" lon="-3.49214">
        <ele>529.3</ele>
        <time>2023-07-13T00:58:25.000+02:00</time>
      </trkpt>
      <trkpt lat="43.31186" lon="-3.49211">
        <ele>529.8</ele>
        <time>2023-07-13T00:58:26.000+02:00</time>
      </trkpt>
      <trkpt lat="43.3118" lon="-3.49206">
        <ele>530.3</ele>
        <time>2023-07-13T00:58:27.000+02:00</time>
      </trkpt>
      <trkpt lat="43.31175" lon="-3.49196">
        <ele>531.5</ele>
        <time>2023-07-13T00:58:28.000+02:00</time>
      </trkpt>
      <trkpt lat="43.31173" lon="-3.49187">
        <ele>532.3</ele>
        <time>2023-07-13T00:58:29.000+02:00</time>
      </trkpt>
      <trkpt lat="43.31173" lon="-3.49165">
        <ele>534.8</ele>
        <time>2023-07-13T00:58:32.000+02:00</time>
      </trkpt>
      <trkpt lat="43.31171" lon="-3.49157">
        <ele>536.8</ele>
        <time>2023-07-13T00:58:33.000+02:00</time>
      </trkpt>
      <trkpt lat="43.31164" lon="-3.4915">
        <ele>538.5</ele>
        <time>2023-07-13T00:58:34.000+02:00</time>
      </trkpt>
      <trkpt lat="43.31129" lon="-3.49126">
        <ele>541.5</ele>
        <time>2023-07-13T00:58:40.000+02:00</time>
      </trkpt>
      <trkpt lat="43.31113" lon="-3.4912">
        <ele>541.5</ele>
        <time>2023-07-13T00:58:43.000+02:00</time>
      </trkpt>
      <trkpt lat="43.31097" lon="-3.49117">
        <ele>541</ele>
        <time>2023-07-13T00:58:45.000+02:00</time>
      </trkpt>
      <trkpt lat="43.31086" lon="-3.49118">
        <ele>539.8</ele>
        <time>2023-07-13T00:58:47.000+02:00</time>
      </trkpt>
      <trkpt lat="43.31059" lon="-3.49128">
        <ele>542</ele>
        <time>2023-07-13T00:58:51.000+02:00</time>
      </trkpt>
      <trkpt lat="43.31052" lon="-3.49131">
        <ele>542.5</ele>
        <time>2023-07-13T00:58:52.000+02:00</time>
      </trkpt>
      <trkpt lat="43.31046" lon="-3.49136">
        <ele>543</ele>
        <time>2023-07-13T00:58:53.000+02:00</time>
      </trkpt>
      <trkpt lat="43.31041" lon="-3.49142">
        <ele>542.8</ele>
        <time>2023-07-13T00:58:54.000+02:00</time>
      </trkpt>
      <trkpt lat="43.31038" lon="-3.49151">
        <ele>541.8</ele>
        <time>2023-07-13T00:58:55.000+02:00</time>
      </trkpt>
      <trkpt lat="43.31035" lon="-3.49164">
        <ele>540.3</ele>
        <time>2023-07-13T00:58:57.000+02:00</time>
      </trkpt>
      <trkpt lat="43.31028" lon="-3.49174">
        <ele>540.3</ele>
        <time>2023-07-13T00:58:58.000+02:00</time>
      </trkpt>
      <trkpt lat="43.31022" lon="-3.49179">
        <ele>541</ele>
        <time>2023-07-13T00:58:59.000+02:00</time>
      </trkpt>
      <trkpt lat="43.31014" lon="-3.49181">
        <ele>542.3</ele>
        <time>2023-07-13T00:59:01.000+02:00</time>
      </trkpt>
      <trkpt lat="43.31007" lon="-3.49183">
        <ele>544</ele>
        <time>2023-07-13T00:59:02.000+02:00</time>
      </trkpt>
      <trkpt lat="43.30992" lon="-3.49193">
        <ele>546.8</ele>
        <time>2023-07-13T00:59:04.000+02:00</time>
      </trkpt>
      <trkpt lat="43.30987" lon="-3.49201">
        <ele>547.3</ele>
        <time>2023-07-13T00:59:05.000+02:00</time>
      </trkpt>
      <trkpt lat="43.3098" lon="-3.49215">
        <ele>547.5</ele>
        <time>2023-07-13T00:59:07.000+02:00</time>
      </trkpt>
      <trkpt lat="43.30972" lon="-3.49236">
        <ele>547.5</ele>
        <time>2023-07-13T00:59:10.000+02:00</time>
      </trkpt>
      <trkpt lat="43.30964" lon="-3.49251">
        <ele>548.8</ele>
        <time>2023-07-13T00:59:12.000+02:00</time>
      </trkpt>
      <trkpt lat="43.30948" lon="-3.49291">
        <ele>550.5</ele>
        <time>2023-07-13T00:59:17.000+02:00</time>
      </trkpt>
      <trkpt lat="43.30944" lon="-3.49303">
        <ele>550.5</ele>
        <time>2023-07-13T00:59:18.000+02:00</time>
      </trkpt>
      <trkpt lat="43.30941" lon="-3.49323">
        <ele>549.3</ele>
        <time>2023-07-13T00:59:21.000+02:00</time>
      </trkpt>
      <trkpt lat="43.30937" lon="-3.49343">
        <ele>548.3</ele>
        <time>2023-07-13T00:59:23.000+02:00</time>
      </trkpt>
      <trkpt lat="43.30933" lon="-3.49365">
        <ele>546.5</ele>
        <time>2023-07-13T00:59:26.000+02:00</time>
      </trkpt>
      <trkpt lat="43.30925" lon="-3.49404">
        <ele>543.3</ele>
        <time>2023-07-13T00:59:30.000+02:00</time>
      </trkpt>
      <trkpt lat="43.30912" lon="-3.49459">
        <ele>546.5</ele>
        <time>2023-07-13T00:59:37.000+02:00</time>
      </trkpt>
      <trkpt lat="43.30909" lon="-3.49484">
        <ele>548.8</ele>
        <time>2023-07-13T00:59:39.000+02:00</time>
      </trkpt>
      <trkpt lat="43.30899" lon="-3.4952">
        <ele>555.5</ele>
        <time>2023-07-13T00:59:44.000+02:00</time>
      </trkpt>
      <trkpt lat="43.30895" lon="-3.49553">
        <ele>559.3</ele>
        <time>2023-07-13T00:59:47.000+02:00</time>
      </trkpt>
      <trkpt lat="43.30896" lon="-3.49566">
        <ele>559</ele>
        <time>2023-07-13T00:59:49.000+02:00</time>
      </trkpt>
      <trkpt lat="43.30901" lon="-3.49613">
        <ele>559</ele>
        <time>2023-07-13T00:59:54.000+02:00</time>
      </trkpt>
      <trkpt lat="43.309" lon="-3.49629">
        <ele>561.8</ele>
        <time>2023-07-13T00:59:56.000+02:00</time>
      </trkpt>
      <trkpt lat="43.30894" lon="-3.49654">
        <ele>567.3</ele>
        <time>2023-07-13T00:59:59.000+02:00</time>
      </trkpt>
      <trkpt lat="43.30889" lon="-3.49669">
        <ele>571</ele>
        <time>2023-07-13T01:00:01.000+02:00</time>
      </trkpt>
      <trkpt lat="43.30879" lon="-3.49701">
        <ele>576</ele>
        <time>2023-07-13T01:00:05.000+02:00</time>
      </trkpt>
      <trkpt lat="43.30872" lon="-3.49732">
        <ele>579.3</ele>
        <time>2023-07-13T01:00:08.000+02:00</time>
      </trkpt>
      <trkpt lat="43.30863" lon="-3.49758">
        <ele>582.3</ele>
        <time>2023-07-13T01:00:11.000+02:00</time>
      </trkpt>
      <trkpt lat="43.30856" lon="-3.49773">
        <ele>584.3</ele>
        <time>2023-07-13T01:00:13.000+02:00</time>
      </trkpt>
      <trkpt lat="43.30844" lon="-3.49784">
        <ele>587.8</ele>
        <time>2023-07-13T01:00:16.000+02:00</time>
      </trkpt>
      <trkpt lat="43.30838" lon="-3.49792">
        <ele>589</ele>
        <time>2023-07-13T01:00:17.000+02:00</time>
      </trkpt>
      <trkpt lat="43.30829" lon="-3.49803">
        <ele>590.8</ele>
        <time>2023-07-13T01:00:19.000+02:00</time>
      </trkpt>
      <trkpt lat="43.30814" lon="-3.49812">
        <ele>593</ele>
        <time>2023-07-13T01:00:21.000+02:00</time>
      </trkpt>
      <trkpt lat="43.30806" lon="-3.49823">
        <ele>593.5</ele>
        <time>2023-07-13T01:00:23.000+02:00</time>
      </trkpt>
      <trkpt lat="43.30804" lon="-3.49838">
        <ele>592.8</ele>
        <time>2023-07-13T01:00:25.000+02:00</time>
      </trkpt>
      <trkpt lat="43.30805" lon="-3.49848">
        <ele>592.5</ele>
        <time>2023-07-13T01:00:26.000+02:00</time>
      </trkpt>
      <trkpt lat="43.30804" lon="-3.49861">
        <ele>592.3</ele>
        <time>2023-07-13T01:00:27.000+02:00</time>
      </trkpt>
      <trkpt lat="43.30799" lon="-3.49884">
        <ele>592.5</ele>
        <time>2023-07-13T01:00:30.000+02:00</time>
      </trkpt>
      <trkpt lat="43.30797" lon="-3.49901">
        <ele>592.3</ele>
        <time>2023-07-13T01:00:32.000+02:00</time>
      </trkpt>
      <trkpt lat="43.3078" lon="-3.4993">
        <ele>592.3</ele>
        <time>2023-07-13T01:00:36.000+02:00</time>
      </trkpt>
      <trkpt lat="43.30774" lon="-3.49942">
        <ele>591.8</ele>
        <time>2023-07-13T01:00:37.000+02:00</time>
      </trkpt>
      <trkpt lat="43.30773" lon="-3.49952">
        <ele>591</ele>
        <time>2023-07-13T01:00:39.000+02:00</time>
      </trkpt>
      <trkpt lat="43.30773" lon="-3.49971">
        <ele>589.3</ele>
        <time>2023-07-13T01:00:41.000+02:00</time>
      </trkpt>
      <trkpt lat="43.3077" lon="-3.49996">
        <ele>587.3</ele>
        <time>2023-07-13T01:00:43.000+02:00</time>
      </trkpt>
      <trkpt lat="43.30756" lon="-3.5004">
        <ele>581.8</ele>
        <time>2023-07-13T01:00:49.000+02:00</time>
      </trkpt>
      <trkpt lat="43.30748" lon="-3.50062">
        <ele>579</ele>
        <time>2023-07-13T01:00:52.000+02:00</time>
      </trkpt>
      <trkpt lat="43.30736" lon="-3.50087">
        <ele>577.3</ele>
        <time>2023-07-13T01:00:55.000+02:00</time>
      </trkpt>
      <trkpt lat="43.30728" lon="-3.5011">
        <ele>575.5</ele>
        <time>2023-07-13T01:00:58.000+02:00</time>
      </trkpt>
      <trkpt lat="43.30719" lon="-3.50141">
        <ele>572.3</ele>
        <time>2023-07-13T01:01:01.000+02:00</time>
      </trkpt>
      <trkpt lat="43.30711" lon="-3.50165">
        <ele>569.5</ele>
        <time>2023-07-13T01:01:04.000+02:00</time>
      </trkpt>
      <trkpt lat="43.30704" lon="-3.50185">
        <ele>567.8</ele>
        <time>2023-07-13T01:01:07.000+02:00</time>
      </trkpt>
      <trkpt lat="43.30696" lon="-3.50232">
        <ele>561</ele>
        <time>2023-07-13T01:01:12.000+02:00</time>
      </trkpt>
      <trkpt lat="43.30692" lon="-3.50246">
        <ele>559.3</ele>
        <time>2023-07-13T01:01:14.000+02:00</time>
      </trkpt>
      <trkpt lat="43.30674" lon="-3.50276">
        <ele>559.5</ele>
        <time>2023-07-13T01:01:18.000+02:00</time>
      </trkpt>
      <trkpt lat="43.30659" lon="-3.50296">
        <ele>561.5</ele>
        <time>2023-07-13T01:01:21.000+02:00</time>
      </trkpt>
      <trkpt lat="43.3065" lon="-3.50309">
        <ele>563.3</ele>
        <time>2023-07-13T01:01:23.000+02:00</time>
      </trkpt>
      <trkpt lat="43.30647" lon="-3.50321">
        <ele>563.5</ele>
        <time>2023-07-13T01:01:25.000+02:00</time>
      </trkpt>
      <trkpt lat="43.30646" lon="-3.50334">
        <ele>563</ele>
        <time>2023-07-13T01:01:26.000+02:00</time>
      </trkpt>
      <trkpt lat="43.30646" lon="-3.50344">
        <ele>562.3</ele>
        <time>2023-07-13T01:01:27.000+02:00</time>
      </trkpt>
      <trkpt lat="43.30648" lon="-3.50352">
        <ele>561</ele>
        <time>2023-07-13T01:01:28.000+02:00</time>
      </trkpt>
      <trkpt lat="43.30652" lon="-3.50361">
        <ele>558.8</ele>
        <time>2023-07-13T01:01:29.000+02:00</time>
      </trkpt>
      <trkpt lat="43.30657" lon="-3.50369">
        <ele>556.8</ele>
        <time>2023-07-13T01:01:31.000+02:00</time>
      </trkpt>
      <trkpt lat="43.30673" lon="-3.50383">
        <ele>552</ele>
        <time>2023-07-13T01:01:33.000+02:00</time>
      </trkpt>
      <trkpt lat="43.30677" lon="-3.50392">
        <ele>550.5</ele>
        <time>2023-07-13T01:01:35.000+02:00</time>
      </trkpt>
      <trkpt lat="43.30676" lon="-3.50397">
        <ele>550.3</ele>
        <time>2023-07-13T01:01:36.000+02:00</time>
      </trkpt>
      <trkpt lat="43.30673" lon="-3.50405">
        <ele>550</ele>
        <time>2023-07-13T01:01:37.000+02:00</time>
      </trkpt>
      <trkpt lat="43.30664" lon="-3.5042">
        <ele>550.5</ele>
        <time>2023-07-13T01:01:39.000+02:00</time>
      </trkpt>
      <trkpt lat="43.30653" lon="-3.50426">
        <ele>553.5</ele>
        <time>2023-07-13T01:01:41.000+02:00</time>
      </trkpt>
      <trkpt lat="43.30638" lon="-3.50428">
        <ele>557.8</ele>
        <time>2023-07-13T01:01:44.000+02:00</time>
      </trkpt>
      <trkpt lat="43.30628" lon="-3.5043">
        <ele>560.3</ele>
        <time>2023-07-13T01:01:45.000+02:00</time>
      </trkpt>
      <trkpt lat="43.30621" lon="-3.50433">
        <ele>562.3</ele>
        <time>2023-07-13T01:01:46.000+02:00</time>
      </trkpt>
      <trkpt lat="43.30616" lon="-3.50437">
        <ele>563.3</ele>
        <time>2023-07-13T01:01:47.000+02:00</time>
      </trkpt>
      <trkpt lat="43.30611" lon="-3.50448">
        <ele>564.5</ele>
        <time>2023-07-13T01:01:49.000+02:00</time>
      </trkpt>
      <trkpt lat="43.30604" lon="-3.50464">
        <ele>566</ele>
        <time>2023-07-13T01:01:51.000+02:00</time>
      </trkpt>
      <trkpt lat="43.306" lon="-3.50482">
        <ele>566.8</ele>
        <time>2023-07-13T01:01:53.000+02:00</time>
      </trkpt>
      <trkpt lat="43.30594" lon="-3.50512">
        <ele>567.8</ele>
        <time>2023-07-13T01:01:56.000+02:00</time>
      </trkpt>
      <trkpt lat="43.3059" lon="-3.50546">
        <ele>568.5</ele>
        <time>2023-07-13T01:02:00.000+02:00</time>
      </trkpt>
      <trkpt lat="43.30583" lon="-3.50588">
        <ele>570.3</ele>
        <time>2023-07-13T01:02:05.000+02:00</time>
      </trkpt>
      <trkpt lat="43.30584" lon="-3.50641">
        <ele>571</ele>
        <time>2023-07-13T01:02:11.000+02:00</time>
      </trkpt>
      <trkpt lat="43.3059" lon="-3.50717">
        <ele>571.8</ele>
        <time>2023-07-13T01:02:19.000+02:00</time>
      </trkpt>
      <trkpt lat="43.30595" lon="-3.50744">
        <ele>571.5</ele>
        <time>2023-07-13T01:02:22.000+02:00</time>
      </trkpt>
      <trkpt lat="43.30595" lon="-3.50759">
        <ele>571.5</ele>
        <time>2023-07-13T01:02:24.000+02:00</time>
      </trkpt>
      <trkpt lat="43.30593" lon="-3.50771">
        <ele>572</ele>
        <time>2023-07-13T01:02:25.000+02:00</time>
      </trkpt>
      <trkpt lat="43.30589" lon="-3.50781">
        <ele>573.5</ele>
        <time>2023-07-13T01:02:27.000+02:00</time>
      </trkpt>
      <trkpt lat="43.30583" lon="-3.50798">
        <ele>575.3</ele>
        <time>2023-07-13T01:02:29.000+02:00</time>
      </trkpt>
      <trkpt lat="43.30581" lon="-3.50825">
        <ele>576</ele>
        <time>2023-07-13T01:02:32.000+02:00</time>
      </trkpt>
      <trkpt lat="43.30585" lon="-3.50873">
        <ele>574.8</ele>
        <time>2023-07-13T01:02:37.000+02:00</time>
      </trkpt>
      <trkpt lat="43.30586" lon="-3.50899">
        <ele>574.5</ele>
        <time>2023-07-13T01:02:40.000+02:00</time>
      </trkpt>
      <trkpt lat="43.30592" lon="-3.50932">
        <ele>573.3</ele>
        <time>2023-07-13T01:02:44.000+02:00</time>
      </trkpt>
      <trkpt lat="43.30604" lon="-3.50989">
        <ele>572.8</ele>
        <time>2023-07-13T01:02:50.000+02:00</time>
      </trkpt>
      <trkpt lat="43.30611" lon="-3.51021">
        <ele>573.8</ele>
        <time>2023-07-13T01:02:54.000+02:00</time>
      </trkpt>
      <trkpt lat="43.30619" lon="-3.51034">
        <ele>572.5</ele>
        <time>2023-07-13T01:02:56.000+02:00</time>
      </trkpt>
      <trkpt lat="43.30629" lon="-3.51041">
        <ele>570</ele>
        <time>2023-07-13T01:02:58.000+02:00</time>
      </trkpt>
      <trkpt lat="43.30649" lon="-3.51051">
        <ele>564.5</ele>
        <time>2023-07-13T01:03:01.000+02:00</time>
      </trkpt>
      <trkpt lat="43.30655" lon="-3.51057">
        <ele>563.3</ele>
        <time>2023-07-13T01:03:02.000+02:00</time>
      </trkpt>
      <trkpt lat="43.30667" lon="-3.51077">
        <ele>562.8</ele>
        <time>2023-07-13T01:03:05.000+02:00</time>
      </trkpt>
      <trkpt lat="43.3067" lon="-3.5109">
        <ele>562.3</ele>
        <time>2023-07-13T01:03:06.000+02:00</time>
      </trkpt>
      <trkpt lat="43.30674" lon="-3.51101">
        <ele>560.3</ele>
        <time>2023-07-13T01:03:08.000+02:00</time>
      </trkpt>
      <trkpt lat="43.30681" lon="-3.51112">
        <ele>557.8</ele>
        <time>2023-07-13T01:03:09.000+02:00</time>
      </trkpt>
      <trkpt lat="43.30693" lon="-3.51119">
        <ele>553.5</ele>
        <time>2023-07-13T01:03:11.000+02:00</time>
      </trkpt>
      <trkpt lat="43.30697" lon="-3.51126">
        <ele>552.3</ele>
        <time>2023-07-13T01:03:12.000+02:00</time>
      </trkpt>
      <trkpt lat="43.30698" lon="-3.51138">
        <ele>552</ele>
        <time>2023-07-13T01:03:14.000+02:00</time>
      </trkpt>
      <trkpt lat="43.30696" lon="-3.51149">
        <ele>552.5</ele>
        <time>2023-07-13T01:03:15.000+02:00</time>
      </trkpt>
      <trkpt lat="43.30693" lon="-3.5116">
        <ele>553.3</ele>
        <time>2023-07-13T01:03:16.000+02:00</time>
      </trkpt>
      <trkpt lat="43.30669" lon="-3.51205">
        <ele>552</ele>
        <time>2023-07-13T01:03:22.000+02:00</time>
      </trkpt>
      <trkpt lat="43.3065" lon="-3.51242">
        <ele>549.3</ele>
        <time>2023-07-13T01:03:27.000+02:00</time>
      </trkpt>
      <trkpt lat="43.30636" lon="-3.51264">
        <ele>545.8</ele>
        <time>2023-07-13T01:03:31.000+02:00</time>
      </trkpt>
      <trkpt lat="43.30629" lon="-3.51281">
        <ele>541.5</ele>
        <time>2023-07-13T01:03:33.000+02:00</time>
      </trkpt>
      <trkpt lat="43.30621" lon="-3.51294">
        <ele>538.8</ele>
        <time>2023-07-13T01:03:35.000+02:00</time>
      </trkpt>
      <trkpt lat="43.30609" lon="-3.51306">
        <ele>536.5</ele>
        <time>2023-07-13T01:03:37.000+02:00</time>
      </trkpt>
      <trkpt lat="43.30609" lon="-3.51311">
        <ele>535</ele>
        <time>2023-07-13T01:03:38.000+02:00</time>
      </trkpt>
      <trkpt lat="43.30613" lon="-3.51313">
        <ele>533.8</ele>
        <time>2023-07-13T01:03:38.000+02:00</time>
      </trkpt>
      <trkpt lat="43.30644" lon="-3.51303">
        <ele>532</ele>
        <time>2023-07-13T01:03:43.000+02:00</time>
      </trkpt>
      <trkpt lat="43.30656" lon="-3.51302">
        <ele>530.8</ele>
        <time>2023-07-13T01:03:45.000+02:00</time>
      </trkpt>
      <trkpt lat="43.3068" lon="-3.51302">
        <ele>528</ele>
        <time>2023-07-13T01:03:49.000+02:00</time>
      </trkpt>
      <trkpt lat="43.30693" lon="-3.513">
        <ele>527.8</ele>
        <time>2023-07-13T01:03:51.000+02:00</time>
      </trkpt>
      <trkpt lat="43.30697" lon="-3.513">
        <ele>527.5</ele>
        <time>2023-07-13T01:03:52.000+02:00</time>
      </trkpt>
      <trkpt lat="43.30699" lon="-3.51305">
        <ele>526</ele>
        <time>2023-07-13T01:03:53.000+02:00</time>
      </trkpt>
      <trkpt lat="43.30697" lon="-3.5131">
        <ele>525</ele>
        <time>2023-07-13T01:03:54.000+02:00</time>
      </trkpt>
      <trkpt lat="43.30692" lon="-3.51315">
        <ele>524</ele>
        <time>2023-07-13T01:03:55.000+02:00</time>
      </trkpt>
      <trkpt lat="43.30686" lon="-3.51319">
        <ele>523</ele>
        <time>2023-07-13T01:03:57.000+02:00</time>
      </trkpt>
      <trkpt lat="43.30673" lon="-3.51324">
        <ele>522.3</ele>
        <time>2023-07-13T01:03:59.000+02:00</time>
      </trkpt>
      <trkpt lat="43.30655" lon="-3.51335">
        <ele>521</ele>
        <time>2023-07-13T01:04:02.000+02:00</time>
      </trkpt>
      <trkpt lat="43.30634" lon="-3.51352">
        <ele>518.5</ele>
        <time>2023-07-13T01:04:05.000+02:00</time>
      </trkpt>
      <trkpt lat="43.30625" lon="-3.5136">
        <ele>517.5</ele>
        <time>2023-07-13T01:04:07.000+02:00</time>
      </trkpt>
      <trkpt lat="43.30615" lon="-3.51373">
        <ele>515.3</ele>
        <time>2023-07-13T01:04:09.000+02:00</time>
      </trkpt>
      <trkpt lat="43.30608" lon="-3.51382">
        <ele>513.8</ele>
        <time>2023-07-13T01:04:11.000+02:00</time>
      </trkpt>
      <trkpt lat="43.306" lon="-3.51389">
        <ele>513</ele>
        <time>2023-07-13T01:04:12.000+02:00</time>
      </trkpt>
      <trkpt lat="43.30592" lon="-3.51401">
        <ele>510.8</ele>
        <time>2023-07-13T01:04:14.000+02:00</time>
      </trkpt>
      <trkpt lat="43.30586" lon="-3.51414">
        <ele>508.3</ele>
        <time>2023-07-13T01:04:16.000+02:00</time>
      </trkpt>
      <trkpt lat="43.30582" lon="-3.51434">
        <ele>507.5</ele>
        <time>2023-07-13T01:04:18.000+02:00</time>
      </trkpt>
      <trkpt lat="43.30581" lon="-3.51451">
        <ele>506.8</ele>
        <time>2023-07-13T01:04:20.000+02:00</time>
      </trkpt>
      <trkpt lat="43.30586" lon="-3.51465">
        <ele>504.3</ele>
        <time>2023-07-13T01:04:21.000+02:00</time>
      </trkpt>
      <trkpt lat="43.30593" lon="-3.51483">
        <ele>500.8</ele>
        <time>2023-07-13T01:04:24.000+02:00</time>
      </trkpt>
      <trkpt lat="43.30604" lon="-3.51506">
        <ele>496.3</ele>
        <time>2023-07-13T01:04:27.000+02:00</time>
      </trkpt>
      <trkpt lat="43.3063" lon="-3.51547">
        <ele>493.3</ele>
        <time>2023-07-13T01:04:33.000+02:00</time>
      </trkpt>
      <trkpt lat="43.30646" lon="-3.51571">
        <ele>489.5</ele>
        <time>2023-07-13T01:04:37.000+02:00</time>
      </trkpt>
      <trkpt lat="43.30677" lon="-3.51588">
        <ele>480.3</ele>
        <time>2023-07-13T01:04:42.000+02:00</time>
      </trkpt>
      <trkpt lat="43.30687" lon="-3.51591">
        <ele>478.5</ele>
        <time>2023-07-13T01:04:43.000+02:00</time>
      </trkpt>
      <trkpt lat="43.30696" lon="-3.51593">
        <ele>476.3</ele>
        <time>2023-07-13T01:04:44.000+02:00</time>
      </trkpt>
      <trkpt lat="43.30713" lon="-3.51585">
        <ele>471</ele>
        <time>2023-07-13T01:04:47.000+02:00</time>
      </trkpt>
      <trkpt lat="43.30717" lon="-3.51588">
        <ele>470</ele>
        <time>2023-07-13T01:04:48.000+02:00</time>
      </trkpt>
      <trkpt lat="43.30727" lon="-3.51612">
        <ele>467.3</ele>
        <time>2023-07-13T01:04:51.000+02:00</time>
      </trkpt>
      <trkpt lat="43.30735" lon="-3.5164">
        <ele>463</ele>
        <time>2023-07-13T01:04:54.000+02:00</time>
      </trkpt>
      <trkpt lat="43.30737" lon="-3.51655">
        <ele>461</ele>
        <time>2023-07-13T01:04:56.000+02:00</time>
      </trkpt>
      <trkpt lat="43.30742" lon="-3.5167">
        <ele>458</ele>
        <time>2023-07-13T01:04:58.000+02:00</time>
      </trkpt>
      <trkpt lat="43.30754" lon="-3.51702">
        <ele>450.8</ele>
        <time>2023-07-13T01:05:02.000+02:00</time>
      </trkpt>
      <trkpt lat="43.30758" lon="-3.51713">
        <ele>449</ele>
        <time>2023-07-13T01:05:03.000+02:00</time>
      </trkpt>
      <trkpt lat="43.3076" lon="-3.51726">
        <ele>448</ele>
        <time>2023-07-13T01:05:05.000+02:00</time>
      </trkpt>
      <trkpt lat="43.30759" lon="-3.51741">
        <ele>447.8</ele>
        <time>2023-07-13T01:05:06.000+02:00</time>
      </trkpt>
      <trkpt lat="43.30756" lon="-3.51777">
        <ele>449.8</ele>
        <time>2023-07-13T01:05:10.000+02:00</time>
      </trkpt>
      <trkpt lat="43.30752" lon="-3.51797">
        <ele>451.8</ele>
        <time>2023-07-13T01:05:13.000+02:00</time>
      </trkpt>
      <trkpt lat="43.30748" lon="-3.51813">
        <ele>454.5</ele>
        <time>2023-07-13T01:05:15.000+02:00</time>
      </trkpt>
      <trkpt lat="43.3074" lon="-3.51833">
        <ele>458.8</ele>
        <time>2023-07-13T01:05:17.000+02:00</time>
      </trkpt>
      <trkpt lat="43.30731" lon="-3.5185">
        <ele>463.3</ele>
        <time>2023-07-13T01:05:19.000+02:00</time>
      </trkpt>
      <trkpt lat="43.30711" lon="-3.51881">
        <ele>470.8</ele>
        <time>2023-07-13T01:05:24.000+02:00</time>
      </trkpt>
      <trkpt lat="43.30691" lon="-3.51898">
        <ele>477.5</ele>
        <time>2023-07-13T01:05:28.000+02:00</time>
      </trkpt>
      <trkpt lat="43.30667" lon="-3.51922">
        <ele>483.5</ele>
        <time>2023-07-13T01:05:32.000+02:00</time>
      </trkpt>
      <trkpt lat="43.30661" lon="-3.51932">
        <ele>485.8</ele>
        <time>2023-07-13T01:05:34.000+02:00</time>
      </trkpt>
      <trkpt lat="43.30642" lon="-3.51968">
        <ele>492.8</ele>
        <time>2023-07-13T01:05:39.000+02:00</time>
      </trkpt>
      <trkpt lat="43.30634" lon="-3.5198">
        <ele>495.5</ele>
        <time>2023-07-13T01:05:40.000+02:00</time>
      </trkpt>
      <trkpt lat="43.3063" lon="-3.51993">
        <ele>497</ele>
        <time>2023-07-13T01:05:42.000+02:00</time>
      </trkpt>
      <trkpt lat="43.3063" lon="-3.52001">
        <ele>496.8</ele>
        <time>2023-07-13T01:05:43.000+02:00</time>
      </trkpt>
      <trkpt lat="43.30632" lon="-3.52006">
        <ele>496.5</ele>
        <time>2023-07-13T01:05:44.000+02:00</time>
      </trkpt>
      <trkpt lat="43.30637" lon="-3.52014">
        <ele>494.5</ele>
        <time>2023-07-13T01:05:46.000+02:00</time>
      </trkpt>
      <trkpt lat="43.30654" lon="-3.52029">
        <ele>487.8</ele>
        <time>2023-07-13T01:05:49.000+02:00</time>
      </trkpt>
      <trkpt lat="43.30664" lon="-3.52032">
        <ele>483.8</ele>
        <time>2023-07-13T01:05:50.000+02:00</time>
      </trkpt>
      <trkpt lat="43.30672" lon="-3.52034">
        <ele>480.8</ele>
        <time>2023-07-13T01:05:51.000+02:00</time>
      </trkpt>
      <trkpt lat="43.30675" lon="-3.52042">
        <ele>479.8</ele>
        <time>2023-07-13T01:05:53.000+02:00</time>
      </trkpt>
      <trkpt lat="43.30678" lon="-3.52053">
        <ele>479.5</ele>
        <time>2023-07-13T01:05:54.000+02:00</time>
      </trkpt>
      <trkpt lat="43.30684" lon="-3.52071">
        <ele>477.8</ele>
        <time>2023-07-13T01:05:56.000+02:00</time>
      </trkpt>
      <trkpt lat="43.30698" lon="-3.52102">
        <ele>471.8</ele>
        <time>2023-07-13T01:06:00.000+02:00</time>
      </trkpt>
      <trkpt lat="43.30708" lon="-3.52119">
        <ele>467.5</ele>
        <time>2023-07-13T01:06:02.000+02:00</time>
      </trkpt>
      <trkpt lat="43.30713" lon="-3.52133">
        <ele>464.8</ele>
        <time>2023-07-13T01:06:04.000+02:00</time>
      </trkpt>
      <trkpt lat="43.30718" lon="-3.52155">
        <ele>462</ele>
        <time>2023-07-13T01:06:07.000+02:00</time>
      </trkpt>
      <trkpt lat="43.30725" lon="-3.52192">
        <ele>456.8</ele>
        <time>2023-07-13T01:06:11.000+02:00</time>
      </trkpt>
      <trkpt lat="43.30728" lon="-3.52211">
        <ele>454.3</ele>
        <time>2023-07-13T01:06:13.000+02:00</time>
      </trkpt>
      <trkpt lat="43.30727" lon="-3.5223">
        <ele>453</ele>
        <time>2023-07-13T01:06:15.000+02:00</time>
      </trkpt>
      <trkpt lat="43.30731" lon="-3.52248">
        <ele>450.3</ele>
        <time>2023-07-13T01:06:17.000+02:00</time>
      </trkpt>
      <trkpt lat="43.30735" lon="-3.52263">
        <ele>447.3</ele>
        <time>2023-07-13T01:06:19.000+02:00</time>
      </trkpt>
      <trkpt lat="43.3074" lon="-3.52274">
        <ele>444</ele>
        <time>2023-07-13T01:06:21.000+02:00</time>
      </trkpt>
      <trkpt lat="43.30741" lon="-3.52291">
        <ele>442.8</ele>
        <time>2023-07-13T01:06:23.000+02:00</time>
      </trkpt>
      <trkpt lat="43.3074" lon="-3.52312">
        <ele>441.8</ele>
        <time>2023-07-13T01:06:25.000+02:00</time>
      </trkpt>
      <trkpt lat="43.30733" lon="-3.52357">
        <ele>439.3</ele>
        <time>2023-07-13T01:06:30.000+02:00</time>
      </trkpt>
      <trkpt lat="43.30729" lon="-3.52391">
        <ele>434.5</ele>
        <time>2023-07-13T01:06:34.000+02:00</time>
      </trkpt>
      <trkpt lat="43.30718" lon="-3.52413">
        <ele>433</ele>
        <time>2023-07-13T01:06:37.000+02:00</time>
      </trkpt>
      <trkpt lat="43.30717" lon="-3.52422">
        <ele>431.3</ele>
        <time>2023-07-13T01:06:38.000+02:00</time>
      </trkpt>
      <trkpt lat="43.30731" lon="-3.52432">
        <ele>425.8</ele>
        <time>2023-07-13T01:06:40.000+02:00</time>
      </trkpt>
      <trkpt lat="43.30743" lon="-3.52439">
        <ele>422</ele>
        <time>2023-07-13T01:06:42.000+02:00</time>
      </trkpt>
      <trkpt lat="43.30752" lon="-3.52446">
        <ele>418.5</ele>
        <time>2023-07-13T01:06:44.000+02:00</time>
      </trkpt>
      <trkpt lat="43.3076" lon="-3.52459">
        <ele>412.8</ele>
        <time>2023-07-13T01:06:46.000+02:00</time>
      </trkpt>
      <trkpt lat="43.30768" lon="-3.52473">
        <ele>407.5</ele>
        <time>2023-07-13T01:06:48.000+02:00</time>
      </trkpt>
      <trkpt lat="43.30772" lon="-3.52488">
        <ele>403.5</ele>
        <time>2023-07-13T01:06:49.000+02:00</time>
      </trkpt>
      <trkpt lat="43.30776" lon="-3.52508">
        <ele>400</ele>
        <time>2023-07-13T01:06:52.000+02:00</time>
      </trkpt>
      <trkpt lat="43.30781" lon="-3.52515">
        <ele>398</ele>
        <time>2023-07-13T01:06:53.000+02:00</time>
      </trkpt>
      <trkpt lat="43.30786" lon="-3.52511">
        <ele>396.3</ele>
        <time>2023-07-13T01:06:54.000+02:00</time>
      </trkpt>
      <trkpt lat="43.30791" lon="-3.52503">
        <ele>394.8</ele>
        <time>2023-07-13T01:06:55.000+02:00</time>
      </trkpt>
      <trkpt lat="43.30798" lon="-3.52494">
        <ele>393</ele>
        <time>2023-07-13T01:06:56.000+02:00</time>
      </trkpt>
      <trkpt lat="43.30808" lon="-3.52477">
        <ele>392.3</ele>
        <time>2023-07-13T01:06:59.000+02:00</time>
      </trkpt>
      <trkpt lat="43.30825" lon="-3.52441">
        <ele>390.5</ele>
        <time>2023-07-13T01:07:04.000+02:00</time>
      </trkpt>
      <trkpt lat="43.30831" lon="-3.52426">
        <ele>389.8</ele>
        <time>2023-07-13T01:07:06.000+02:00</time>
      </trkpt>
      <trkpt lat="43.30839" lon="-3.524">
        <ele>388.8</ele>
        <time>2023-07-13T01:07:09.000+02:00</time>
      </trkpt>
      <trkpt lat="43.30842" lon="-3.52379">
        <ele>388.8</ele>
        <time>2023-07-13T01:07:11.000+02:00</time>
      </trkpt>
      <trkpt lat="43.3084" lon="-3.52361">
        <ele>391</ele>
        <time>2023-07-13T01:07:13.000+02:00</time>
      </trkpt>
      <trkpt lat="43.30837" lon="-3.52348">
        <ele>393</ele>
        <time>2023-07-13T01:07:14.000+02:00</time>
      </trkpt>
      <trkpt lat="43.30839" lon="-3.52336">
        <ele>393.3</ele>
        <time>2023-07-13T01:07:16.000+02:00</time>
      </trkpt>
      <trkpt lat="43.30841" lon="-3.52333">
        <ele>392.5</ele>
        <time>2023-07-13T01:07:16.000+02:00</time>
      </trkpt>
      <trkpt lat="43.30845" lon="-3.52331">
        <ele>390.8</ele>
        <time>2023-07-13T01:07:17.000+02:00</time>
      </trkpt>
      <trkpt lat="43.30849" lon="-3.52332">
        <ele>388.8</ele>
        <time>2023-07-13T01:07:18.000+02:00</time>
      </trkpt>
      <trkpt lat="43.30854" lon="-3.5234">
        <ele>386.3</ele>
        <time>2023-07-13T01:07:19.000+02:00</time>
      </trkpt>
      <trkpt lat="43.30859" lon="-3.5237">
        <ele>381.8</ele>
        <time>2023-07-13T01:07:22.000+02:00</time>
      </trkpt>
      <trkpt lat="43.3086" lon="-3.5238">
        <ele>380.8</ele>
        <time>2023-07-13T01:07:23.000+02:00</time>
      </trkpt>
      <trkpt lat="43.30853" lon="-3.52411">
        <ele>381.5</ele>
        <time>2023-07-13T01:07:27.000+02:00</time>
      </trkpt>
      <trkpt lat="43.30851" lon="-3.5242">
        <ele>381.8</ele>
        <time>2023-07-13T01:07:28.000+02:00</time>
      </trkpt>
      <trkpt lat="43.30849" lon="-3.52436">
        <ele>380.5</ele>
        <time>2023-07-13T01:07:30.000+02:00</time>
      </trkpt>
      <trkpt lat="43.30845" lon="-3.52494">
        <ele>375.5</ele>
        <time>2023-07-13T01:07:36.000+02:00</time>
      </trkpt>
      <trkpt lat="43.30855" lon="-3.52542">
        <ele>369.8</ele>
        <time>2023-07-13T01:07:42.000+02:00</time>
      </trkpt>
      <trkpt lat="43.30858" lon="-3.52554">
        <ele>368</ele>
        <time>2023-07-13T01:07:43.000+02:00</time>
      </trkpt>
      <trkpt lat="43.30859" lon="-3.52568">
        <ele>367</ele>
        <time>2023-07-13T01:07:45.000+02:00</time>
      </trkpt>
      <trkpt lat="43.30859" lon="-3.52576">
        <ele>367</ele>
        <time>2023-07-13T01:07:46.000+02:00</time>
      </trkpt>
      <trkpt lat="43.30861" lon="-3.52586">
        <ele>365.8</ele>
        <time>2023-07-13T01:07:47.000+02:00</time>
      </trkpt>
      <trkpt lat="43.3087" lon="-3.52599">
        <ele>360.8</ele>
        <time>2023-07-13T01:07:49.000+02:00</time>
      </trkpt>
      <trkpt lat="43.30878" lon="-3.52606">
        <ele>357.5</ele>
        <time>2023-07-13T01:07:50.000+02:00</time>
      </trkpt>
      <trkpt lat="43.30882" lon="-3.52612">
        <ele>355.5</ele>
        <time>2023-07-13T01:07:51.000+02:00</time>
      </trkpt>
      <trkpt lat="43.30886" lon="-3.52621">
        <ele>353.5</ele>
        <time>2023-07-13T01:07:52.000+02:00</time>
      </trkpt>
      <trkpt lat="43.3089" lon="-3.52636">
        <ele>351.8</ele>
        <time>2023-07-13T01:07:54.000+02:00</time>
      </trkpt>
      <trkpt lat="43.3089" lon="-3.52645">
        <ele>351.8</ele>
        <time>2023-07-13T01:07:55.000+02:00</time>
      </trkpt>
      <trkpt lat="43.30889" lon="-3.52657">
        <ele>351.8</ele>
        <time>2023-07-13T01:07:56.000+02:00</time>
      </trkpt>
      <trkpt lat="43.3089" lon="-3.52664">
        <ele>351.5</ele>
        <time>2023-07-13T01:07:57.000+02:00</time>
      </trkpt>
      <trkpt lat="43.30893" lon="-3.5267">
        <ele>350.5</ele>
        <time>2023-07-13T01:07:58.000+02:00</time>
      </trkpt>
      <trkpt lat="43.30901" lon="-3.52677">
        <ele>348</ele>
        <time>2023-07-13T01:07:59.000+02:00</time>
      </trkpt>
      <trkpt lat="43.30903" lon="-3.52682">
        <ele>347</ele>
        <time>2023-07-13T01:08:00.000+02:00</time>
      </trkpt>
      <trkpt lat="43.30908" lon="-3.52695">
        <ele>346.3</ele>
        <time>2023-07-13T01:08:02.000+02:00</time>
      </trkpt>
      <trkpt lat="43.30921" lon="-3.52714">
        <ele>342.8</ele>
        <time>2023-07-13T01:08:05.000+02:00</time>
      </trkpt>
      <trkpt lat="43.30928" lon="-3.52723">
        <ele>340.8</ele>
        <time>2023-07-13T01:08:06.000+02:00</time>
      </trkpt>
      <trkpt lat="43.30932" lon="-3.52733">
        <ele>339.8</ele>
        <time>2023-07-13T01:08:07.000+02:00</time>
      </trkpt>
      <trkpt lat="43.30934" lon="-3.52742">
        <ele>339.5</ele>
        <time>2023-07-13T01:08:09.000+02:00</time>
      </trkpt>
      <trkpt lat="43.30932" lon="-3.52755">
        <ele>342</ele>
        <time>2023-07-13T01:08:10.000+02:00</time>
      </trkpt>
      <trkpt lat="43.30929" lon="-3.52763">
        <ele>345.3</ele>
        <time>2023-07-13T01:08:11.000+02:00</time>
      </trkpt>
      <trkpt lat="43.30927" lon="-3.52769">
        <ele>347.3</ele>
        <time>2023-07-13T01:08:12.000+02:00</time>
      </trkpt>
      <trkpt lat="43.30928" lon="-3.52774">
        <ele>348.3</ele>
        <time>2023-07-13T01:08:13.000+02:00</time>
      </trkpt>
      <trkpt lat="43.30931" lon="-3.52778">
        <ele>348</ele>
        <time>2023-07-13T01:08:14.000+02:00</time>
      </trkpt>
      <trkpt lat="43.3096" lon="-3.52792">
        <ele>341</ele>
        <time>2023-07-13T01:08:19.000+02:00</time>
      </trkpt>
      <trkpt lat="43.30967" lon="-3.52799">
        <ele>339.5</ele>
        <time>2023-07-13T01:08:20.000+02:00</time>
      </trkpt>
      <trkpt lat="43.30971" lon="-3.52803">
        <ele>339.3</ele>
        <time>2023-07-13T01:08:21.000+02:00</time>
      </trkpt>
      <trkpt lat="43.30977" lon="-3.52817">
        <ele>340</ele>
        <time>2023-07-13T01:08:22.000+02:00</time>
      </trkpt>
      <trkpt lat="43.3098" lon="-3.52821">
        <ele>339.3</ele>
        <time>2023-07-13T01:08:23.000+02:00</time>
      </trkpt>
      <trkpt lat="43.30984" lon="-3.52824">
        <ele>338.8</ele>
        <time>2023-07-13T01:08:24.000+02:00</time>
      </trkpt>
      <trkpt lat="43.30991" lon="-3.52827">
        <ele>336.3</ele>
        <time>2023-07-13T01:08:25.000+02:00</time>
      </trkpt>
      <trkpt lat="43.30997" lon="-3.52831">
        <ele>334.8</ele>
        <time>2023-07-13T01:08:26.000+02:00</time>
      </trkpt>
      <trkpt lat="43.31002" lon="-3.52838">
        <ele>333.5</ele>
        <time>2023-07-13T01:08:27.000+02:00</time>
      </trkpt>
      <trkpt lat="43.31011" lon="-3.52859">
        <ele>330</ele>
        <time>2023-07-13T01:08:30.000+02:00</time>
      </trkpt>
      <trkpt lat="43.31028" lon="-3.52882">
        <ele>323</ele>
        <time>2023-07-13T01:08:33.000+02:00</time>
      </trkpt>
      <trkpt lat="43.31034" lon="-3.52896">
        <ele>320.8</ele>
        <time>2023-07-13T01:08:35.000+02:00</time>
      </trkpt>
      <trkpt lat="43.31045" lon="-3.52925">
        <ele>317.3</ele>
        <time>2023-07-13T01:08:39.000+02:00</time>
      </trkpt>
      <trkpt lat="43.3105" lon="-3.52951">
        <ele>316</ele>
        <time>2023-07-13T01:08:42.000+02:00</time>
      </trkpt>
      <trkpt lat="43.31057" lon="-3.52967">
        <ele>313.5</ele>
        <time>2023-07-13T01:08:44.000+02:00</time>
      </trkpt>
      <trkpt lat="43.3106" lon="-3.52982">
        <ele>313</ele>
        <time>2023-07-13T01:08:46.000+02:00</time>
      </trkpt>
      <trkpt lat="43.31064" lon="-3.53013">
        <ele>313.8</ele>
        <time>2023-07-13T01:08:49.000+02:00</time>
      </trkpt>
      <trkpt lat="43.31069" lon="-3.53026">
        <ele>313</ele>
        <time>2023-07-13T01:08:51.000+02:00</time>
      </trkpt>
      <trkpt lat="43.31074" lon="-3.53036">
        <ele>311.5</ele>
        <time>2023-07-13T01:08:52.000+02:00</time>
      </trkpt>
      <trkpt lat="43.31085" lon="-3.53061">
        <ele>309.8</ele>
        <time>2023-07-13T01:08:55.000+02:00</time>
      </trkpt>
      <trkpt lat="43.31103" lon="-3.53084">
        <ele>309.3</ele>
        <time>2023-07-13T01:08:59.000+02:00</time>
      </trkpt>
      <trkpt lat="43.31108" lon="-3.53095">
        <ele>310</ele>
        <time>2023-07-13T01:09:01.000+02:00</time>
      </trkpt>
      <trkpt lat="43.31122" lon="-3.53102">
        <ele>308.3</ele>
        <time>2023-07-13T01:09:03.000+02:00</time>
      </trkpt>
      <trkpt lat="43.3113" lon="-3.53102">
        <ele>306.5</ele>
        <time>2023-07-13T01:09:04.000+02:00</time>
      </trkpt>
      <trkpt lat="43.31134" lon="-3.53095">
        <ele>305</ele>
        <time>2023-07-13T01:09:05.000+02:00</time>
      </trkpt>
      <trkpt lat="43.31139" lon="-3.53075">
        <ele>301.5</ele>
        <time>2023-07-13T01:09:07.000+02:00</time>
      </trkpt>
      <trkpt lat="43.31154" lon="-3.53061">
        <ele>296.5</ele>
        <time>2023-07-13T01:09:10.000+02:00</time>
      </trkpt>
      <trkpt lat="43.31175" lon="-3.53043">
        <ele>290</ele>
        <time>2023-07-13T01:09:14.000+02:00</time>
      </trkpt>
      <trkpt lat="43.31189" lon="-3.53034">
        <ele>287</ele>
        <time>2023-07-13T01:09:16.000+02:00</time>
      </trkpt>
      <trkpt lat="43.31197" lon="-3.53033">
        <ele>286</ele>
        <time>2023-07-13T01:09:18.000+02:00</time>
      </trkpt>
      <trkpt lat="43.31215" lon="-3.53034">
        <ele>284.8</ele>
        <time>2023-07-13T01:09:20.000+02:00</time>
      </trkpt>
      <trkpt lat="43.31225" lon="-3.53039">
        <ele>285</ele>
        <time>2023-07-13T01:09:22.000+02:00</time>
      </trkpt>
      <trkpt lat="43.31234" lon="-3.53048">
        <ele>286.3</ele>
        <time>2023-07-13T01:09:24.000+02:00</time>
      </trkpt>
      <trkpt lat="43.31245" lon="-3.53073">
        <ele>290.8</ele>
        <time>2023-07-13T01:09:27.000+02:00</time>
      </trkpt>
      <trkpt lat="43.31252" lon="-3.53077">
        <ele>291.5</ele>
        <time>2023-07-13T01:09:28.000+02:00</time>
      </trkpt>
      <trkpt lat="43.31258" lon="-3.53078">
        <ele>291</ele>
        <time>2023-07-13T01:09:29.000+02:00</time>
      </trkpt>
      <trkpt lat="43.31265" lon="-3.5307">
        <ele>289</ele>
        <time>2023-07-13T01:09:30.000+02:00</time>
      </trkpt>
      <trkpt lat="43.3128" lon="-3.53043">
        <ele>282.3</ele>
        <time>2023-07-13T01:09:34.000+02:00</time>
      </trkpt>
      <trkpt lat="43.31297" lon="-3.53024">
        <ele>277.5</ele>
        <time>2023-07-13T01:09:37.000+02:00</time>
      </trkpt>
      <trkpt lat="43.31305" lon="-3.53004">
        <ele>273.5</ele>
        <time>2023-07-13T01:09:40.000+02:00</time>
      </trkpt>
      <trkpt lat="43.31308" lon="-3.53">
        <ele>272.5</ele>
        <time>2023-07-13T01:09:41.000+02:00</time>
      </trkpt>
      <trkpt lat="43.31311" lon="-3.52998">
        <ele>272</ele>
        <time>2023-07-13T01:09:41.000+02:00</time>
      </trkpt>
      <trkpt lat="43.31318" lon="-3.53001">
        <ele>272.5</ele>
        <time>2023-07-13T01:09:42.000+02:00</time>
      </trkpt>
      <trkpt lat="43.31333" lon="-3.53008">
        <ele>273.3</ele>
        <time>2023-07-13T01:09:45.000+02:00</time>
      </trkpt>
      <trkpt lat="43.31339" lon="-3.53005">
        <ele>272.8</ele>
        <time>2023-07-13T01:09:46.000+02:00</time>
      </trkpt>
      <trkpt lat="43.31345" lon="-3.53">
        <ele>271.8</ele>
        <time>2023-07-13T01:09:47.000+02:00</time>
      </trkpt>
      <trkpt lat="43.31349" lon="-3.5299">
        <ele>269.3</ele>
        <time>2023-07-13T01:09:48.000+02:00</time>
      </trkpt>
      <trkpt lat="43.31353" lon="-3.52976">
        <ele>265.8</ele>
        <time>2023-07-13T01:09:50.000+02:00</time>
      </trkpt>
      <trkpt lat="43.31356" lon="-3.52962">
        <ele>262.5</ele>
        <time>2023-07-13T01:09:51.000+02:00</time>
      </trkpt>
      <trkpt lat="43.31364" lon="-3.52934">
        <ele>255.5</ele>
        <time>2023-07-13T01:09:55.000+02:00</time>
      </trkpt>
      <trkpt lat="43.31371" lon="-3.52919">
        <ele>251.5</ele>
        <time>2023-07-13T01:09:57.000+02:00</time>
      </trkpt>
      <trkpt lat="43.31379" lon="-3.52911">
        <ele>250</ele>
        <time>2023-07-13T01:09:58.000+02:00</time>
      </trkpt>
      <trkpt lat="43.31386" lon="-3.52908">
        <ele>249.3</ele>
        <time>2023-07-13T01:09:59.000+02:00</time>
      </trkpt>
      <trkpt lat="43.31411" lon="-3.52912">
        <ele>249.3</ele>
        <time>2023-07-13T01:10:03.000+02:00</time>
      </trkpt>
      <trkpt lat="43.31432" lon="-3.5291">
        <ele>245.8</ele>
        <time>2023-07-13T01:10:06.000+02:00</time>
      </trkpt>
      <trkpt lat="43.31443" lon="-3.52914">
        <ele>244.3</ele>
        <time>2023-07-13T01:10:08.000+02:00</time>
      </trkpt>
      <trkpt lat="43.31452" lon="-3.52921">
        <ele>243.8</ele>
        <time>2023-07-13T01:10:10.000+02:00</time>
      </trkpt>
      <trkpt lat="43.31457" lon="-3.52929">
        <ele>244.8</ele>
        <time>2023-07-13T01:10:11.000+02:00</time>
      </trkpt>
      <trkpt lat="43.31465" lon="-3.52936">
        <ele>245.3</ele>
        <time>2023-07-13T01:10:12.000+02:00</time>
      </trkpt>
      <trkpt lat="43.31473" lon="-3.52944">
        <ele>245.5</ele>
        <time>2023-07-13T01:10:14.000+02:00</time>
      </trkpt>
      <trkpt lat="43.31482" lon="-3.52949">
        <ele>245.3</ele>
        <time>2023-07-13T01:10:15.000+02:00</time>
      </trkpt>
      <trkpt lat="43.3149" lon="-3.52952">
        <ele>244.5</ele>
        <time>2023-07-13T01:10:17.000+02:00</time>
      </trkpt>
      <trkpt lat="43.31498" lon="-3.52951">
        <ele>242.8</ele>
        <time>2023-07-13T01:10:18.000+02:00</time>
      </trkpt>
      <trkpt lat="43.31515" lon="-3.52946">
        <ele>239.5</ele>
        <time>2023-07-13T01:10:20.000+02:00</time>
      </trkpt>
      <trkpt lat="43.31525" lon="-3.52944">
        <ele>238.3</ele>
        <time>2023-07-13T01:10:22.000+02:00</time>
      </trkpt>
      <trkpt lat="43.31534" lon="-3.52946">
        <ele>237.8</ele>
        <time>2023-07-13T01:10:23.000+02:00</time>
      </trkpt>
      <trkpt lat="43.31547" lon="-3.52948">
        <ele>237</ele>
        <time>2023-07-13T01:10:25.000+02:00</time>
      </trkpt>
      <trkpt lat="43.31556" lon="-3.52951">
        <ele>236.8</ele>
        <time>2023-07-13T01:10:27.000+02:00</time>
      </trkpt>
      <trkpt lat="43.31579" lon="-3.52964">
        <ele>237</ele>
        <time>2023-07-13T01:10:30.000+02:00</time>
      </trkpt>
      <trkpt lat="43.31587" lon="-3.52967">
        <ele>237.3</ele>
        <time>2023-07-13T01:10:32.000+02:00</time>
      </trkpt>
      <trkpt lat="43.31595" lon="-3.52967">
        <ele>237.8</ele>
        <time>2023-07-13T01:10:33.000+02:00</time>
      </trkpt>
      <trkpt lat="43.31604" lon="-3.52964">
        <ele>238</ele>
        <time>2023-07-13T01:10:34.000+02:00</time>
      </trkpt>
      <trkpt lat="43.31612" lon="-3.52956">
        <ele>237.3</ele>
        <time>2023-07-13T01:10:36.000+02:00</time>
      </trkpt>
      <trkpt lat="43.31619" lon="-3.52948">
        <ele>236.5</ele>
        <time>2023-07-13T01:10:37.000+02:00</time>
      </trkpt>
      <trkpt lat="43.31621" lon="-3.52936">
        <ele>234.8</ele>
        <time>2023-07-13T01:10:39.000+02:00</time>
      </trkpt>
      <trkpt lat="43.31622" lon="-3.52922">
        <ele>232.5</ele>
        <time>2023-07-13T01:10:40.000+02:00</time>
      </trkpt>
      <trkpt lat="43.31621" lon="-3.52913">
        <ele>231</ele>
        <time>2023-07-13T01:10:41.000+02:00</time>
      </trkpt>
      <trkpt lat="43.31617" lon="-3.52898">
        <ele>228.3</ele>
        <time>2023-07-13T01:10:43.000+02:00</time>
      </trkpt>
      <trkpt lat="43.31616" lon="-3.52886">
        <ele>226.5</ele>
        <time>2023-07-13T01:10:44.000+02:00</time>
      </trkpt>
      <trkpt lat="43.3162" lon="-3.52874">
        <ele>225.3</ele>
        <time>2023-07-13T01:10:46.000+02:00</time>
      </trkpt>
      <trkpt lat="43.31626" lon="-3.52863">
        <ele>224.5</ele>
        <time>2023-07-13T01:10:47.000+02:00</time>
      </trkpt>
      <trkpt lat="43.3163" lon="-3.52848">
        <ele>223.3</ele>
        <time>2023-07-13T01:10:49.000+02:00</time>
      </trkpt>
      <trkpt lat="43.3163" lon="-3.52836">
        <ele>221.8</ele>
        <time>2023-07-13T01:10:50.000+02:00</time>
      </trkpt>
      <trkpt lat="43.31627" lon="-3.52824">
        <ele>220</ele>
        <time>2023-07-13T01:10:52.000+02:00</time>
      </trkpt>
      <trkpt lat="43.31622" lon="-3.52814">
        <ele>217.8</ele>
        <time>2023-07-13T01:10:53.000+02:00</time>
      </trkpt>
      <trkpt lat="43.31619" lon="-3.52805">
        <ele>216</ele>
        <time>2023-07-13T01:10:54.000+02:00</time>
      </trkpt>
      <trkpt lat="43.31616" lon="-3.52796">
        <ele>214.5</ele>
        <time>2023-07-13T01:10:55.000+02:00</time>
      </trkpt>
      <trkpt lat="43.31614" lon="-3.52785">
        <ele>212.8</ele>
        <time>2023-07-13T01:10:57.000+02:00</time>
      </trkpt>
      <trkpt lat="43.31611" lon="-3.52762">
        <ele>209.5</ele>
        <time>2023-07-13T01:10:59.000+02:00</time>
      </trkpt>
      <trkpt lat="43.31609" lon="-3.5275">
        <ele>207.5</ele>
        <time>2023-07-13T01:11:01.000+02:00</time>
      </trkpt>
      <trkpt lat="43.31604" lon="-3.52737">
        <ele>206</ele>
        <time>2023-07-13T01:11:02.000+02:00</time>
      </trkpt>
      <trkpt lat="43.31598" lon="-3.52727">
        <ele>204.5</ele>
        <time>2023-07-13T01:11:04.000+02:00</time>
      </trkpt>
      <trkpt lat="43.31586" lon="-3.5271">
        <ele>201.5</ele>
        <time>2023-07-13T01:11:06.000+02:00</time>
      </trkpt>
      <trkpt lat="43.3158" lon="-3.52692">
        <ele>200.8</ele>
        <time>2023-07-13T01:11:08.000+02:00</time>
      </trkpt>
      <trkpt lat="43.31578" lon="-3.52679">
        <ele>200.5</ele>
        <time>2023-07-13T01:11:10.000+02:00</time>
      </trkpt>
      <trkpt lat="43.31578" lon="-3.52665">
        <ele>200.3</ele>
        <time>2023-07-13T01:11:12.000+02:00</time>
      </trkpt>
      <trkpt lat="43.31576" lon="-3.52655">
        <ele>200.3</ele>
        <time>2023-07-13T01:11:13.000+02:00</time>
      </trkpt>
      <trkpt lat="43.31572" lon="-3.52645">
        <ele>199.8</ele>
        <time>2023-07-13T01:11:14.000+02:00</time>
      </trkpt>
      <trkpt lat="43.31566" lon="-3.52639">
        <ele>199</ele>
        <time>2023-07-13T01:11:15.000+02:00</time>
      </trkpt>
      <trkpt lat="43.31558" lon="-3.52632">
        <ele>197.8</ele>
        <time>2023-07-13T01:11:16.000+02:00</time>
      </trkpt>
      <trkpt lat="43.3155" lon="-3.52619">
        <ele>196.5</ele>
        <time>2023-07-13T01:11:18.000+02:00</time>
      </trkpt>
      <trkpt lat="43.31521" lon="-3.52586">
        <ele>190</ele>
        <time>2023-07-13T01:11:24.000+02:00</time>
      </trkpt>
      <trkpt lat="43.31513" lon="-3.52574">
        <ele>187</ele>
        <time>2023-07-13T01:11:26.000+02:00</time>
      </trkpt>
      <trkpt lat="43.31506" lon="-3.52561">
        <ele>184.5</ele>
        <time>2023-07-13T01:11:28.000+02:00</time>
      </trkpt>
      <trkpt lat="43.31504" lon="-3.52543">
        <ele>182</ele>
        <time>2023-07-13T01:11:30.000+02:00</time>
      </trkpt>
      <trkpt lat="43.31501" lon="-3.5251">
        <ele>178</ele>
        <time>2023-07-13T01:11:33.000+02:00</time>
      </trkpt>
      <trkpt lat="43.315" lon="-3.52493">
        <ele>175.5</ele>
        <time>2023-07-13T01:11:35.000+02:00</time>
      </trkpt>
      <trkpt lat="43.31501" lon="-3.52485">
        <ele>174</ele>
        <time>2023-07-13T01:11:36.000+02:00</time>
      </trkpt>
      <trkpt lat="43.31503" lon="-3.52477">
        <ele>172.8</ele>
        <time>2023-07-13T01:11:37.000+02:00</time>
      </trkpt>
      <trkpt lat="43.31507" lon="-3.52468">
        <ele>171</ele>
        <time>2023-07-13T01:11:38.000+02:00</time>
      </trkpt>
      <trkpt lat="43.31507" lon="-3.52466">
        <ele>170.5</ele>
        <time>2023-07-13T01:11:39.000+02:00</time>
      </trkpt>
      <trkpt lat="43.31507" lon="-3.52463">
        <ele>170</ele>
        <time>2023-07-13T01:11:40.000+02:00</time>
      </trkpt>
      <trkpt lat="43.31504" lon="-3.5246">
        <ele>169.3</ele>
        <time>2023-07-13T01:11:40.000+02:00</time>
      </trkpt>
      <trkpt lat="43.3149" lon="-3.5245">
        <ele>169.5</ele>
        <time>2023-07-13T01:11:43.000+02:00</time>
      </trkpt>
      <trkpt lat="43.31485" lon="-3.52446">
        <ele>169.8</ele>
        <time>2023-07-13T01:11:44.000+02:00</time>
      </trkpt>
      <trkpt lat="43.31477" lon="-3.52435">
        <ele>169.8</ele>
        <time>2023-07-13T01:11:45.000+02:00</time>
      </trkpt>
      <trkpt lat="43.3147" lon="-3.52423">
        <ele>169</ele>
        <time>2023-07-13T01:11:47.000+02:00</time>
      </trkpt>
      <trkpt lat="43.31469" lon="-3.52418">
        <ele>168.5</ele>
        <time>2023-07-13T01:11:48.000+02:00</time>
      </trkpt>
      <trkpt lat="43.3147" lon="-3.52407">
        <ele>167.5</ele>
        <time>2023-07-13T01:11:49.000+02:00</time>
      </trkpt>
      <trkpt lat="43.31471" lon="-3.52402">
        <ele>166.8</ele>
        <time>2023-07-13T01:11:50.000+02:00</time>
      </trkpt>
      <trkpt lat="43.31474" lon="-3.52397">
        <ele>165.5</ele>
        <time>2023-07-13T01:11:51.000+02:00</time>
      </trkpt>
      <trkpt lat="43.31478" lon="-3.52394">
        <ele>164.5</ele>
        <time>2023-07-13T01:11:52.000+02:00</time>
      </trkpt>
      <trkpt lat="43.31496" lon="-3.52378">
        <ele>158.3</ele>
        <time>2023-07-13T01:11:55.000+02:00</time>
      </trkpt>
      <trkpt lat="43.31523" lon="-3.52344">
        <ele>149</ele>
        <time>2023-07-13T01:12:01.000+02:00</time>
      </trkpt>
      <trkpt lat="43.31526" lon="-3.52342">
        <ele>148</ele>
        <time>2023-07-13T01:12:01.000+02:00</time>
      </trkpt>
      <trkpt lat="43.31532" lon="-3.5234">
        <ele>146.5</ele>
        <time>2023-07-13T01:12:02.000+02:00</time>
      </trkpt>
      <trkpt lat="43.31544" lon="-3.52338">
        <ele>143.3</ele>
        <time>2023-07-13T01:12:04.000+02:00</time>
      </trkpt>
      <trkpt lat="43.31549" lon="-3.52337">
        <ele>142</ele>
        <time>2023-07-13T01:12:05.000+02:00</time>
      </trkpt>
      <trkpt lat="43.31554" lon="-3.52338">
        <ele>141</ele>
        <time>2023-07-13T01:12:06.000+02:00</time>
      </trkpt>
      <trkpt lat="43.31564" lon="-3.52343">
        <ele>139.8</ele>
        <time>2023-07-13T01:12:07.000+02:00</time>
      </trkpt>
      <trkpt lat="43.31575" lon="-3.52354">
        <ele>140.5</ele>
        <time>2023-07-13T01:12:09.000+02:00</time>
      </trkpt>
      <trkpt lat="43.31584" lon="-3.52362">
        <ele>141</ele>
        <time>2023-07-13T01:12:11.000+02:00</time>
      </trkpt>
      <trkpt lat="43.31587" lon="-3.52363">
        <ele>140.5</ele>
        <time>2023-07-13T01:12:12.000+02:00</time>
      </trkpt>
      <trkpt lat="43.31596" lon="-3.52364">
        <ele>138.8</ele>
        <time>2023-07-13T01:12:13.000+02:00</time>
      </trkpt>
      <trkpt lat="43.31611" lon="-3.52364">
        <ele>134.5</ele>
        <time>2023-07-13T01:12:15.000+02:00</time>
      </trkpt>
      <trkpt lat="43.31618" lon="-3.52365">
        <ele>133.5</ele>
        <time>2023-07-13T01:12:16.000+02:00</time>
      </trkpt>
      <trkpt lat="43.31648" lon="-3.52377">
        <ele>130</ele>
        <time>2023-07-13T01:12:21.000+02:00</time>
      </trkpt>
      <trkpt lat="43.31667" lon="-3.52387">
        <ele>129</ele>
        <time>2023-07-13T01:12:24.000+02:00</time>
      </trkpt>
      <trkpt lat="43.31683" lon="-3.52393">
        <ele>127.3</ele>
        <time>2023-07-13T01:12:27.000+02:00</time>
      </trkpt>
      <trkpt lat="43.31703" lon="-3.52398">
        <ele>123.5</ele>
        <time>2023-07-13T01:12:30.000+02:00</time>
      </trkpt>
      <trkpt lat="43.31742" lon="-3.52403">
        <ele>114.8</ele>
        <time>2023-07-13T01:12:36.000+02:00</time>
      </trkpt>
      <trkpt lat="43.31747" lon="-3.52405">
        <ele>114</ele>
        <time>2023-07-13T01:12:37.000+02:00</time>
      </trkpt>
      <trkpt lat="43.31776" lon="-3.52419">
        <ele>119.3</ele>
        <time>2023-07-13T01:12:41.000+02:00</time>
      </trkpt>
      <trkpt lat="43.31781" lon="-3.5242">
        <ele>119.5</ele>
        <time>2023-07-13T01:12:42.000+02:00</time>
      </trkpt>
      <trkpt lat="43.31785" lon="-3.5242">
        <ele>119.8</ele>
        <time>2023-07-13T01:12:43.000+02:00</time>
      </trkpt>
      <trkpt lat="43.3179" lon="-3.52418">
        <ele>119.3</ele>
        <time>2023-07-13T01:12:44.000+02:00</time>
      </trkpt>
      <trkpt lat="43.31798" lon="-3.52413">
        <ele>118.3</ele>
        <time>2023-07-13T01:12:46.000+02:00</time>
      </trkpt>
      <trkpt lat="43.31804" lon="-3.52407">
        <ele>117.3</ele>
        <time>2023-07-13T01:12:47.000+02:00</time>
      </trkpt>
      <trkpt lat="43.3181" lon="-3.52401">
        <ele>116</ele>
        <time>2023-07-13T01:12:48.000+02:00</time>
      </trkpt>
      <trkpt lat="43.31818" lon="-3.52389">
        <ele>113.5</ele>
        <time>2023-07-13T01:12:50.000+02:00</time>
      </trkpt>
      <trkpt lat="43.3182" lon="-3.5238">
        <ele>111.8</ele>
        <time>2023-07-13T01:12:51.000+02:00</time>
      </trkpt>
      <trkpt lat="43.31821" lon="-3.52363">
        <ele>108</ele>
        <time>2023-07-13T01:12:53.000+02:00</time>
      </trkpt>
      <trkpt lat="43.31822" lon="-3.52346">
        <ele>104</ele>
        <time>2023-07-13T01:12:55.000+02:00</time>
      </trkpt>
      <trkpt lat="43.31824" lon="-3.52334">
        <ele>101.5</ele>
        <time>2023-07-13T01:12:56.000+02:00</time>
      </trkpt>
      <trkpt lat="43.3184" lon="-3.52275">
        <ele>99.8</ele>
        <time>2023-07-13T01:13:03.000+02:00</time>
      </trkpt>
      <trkpt lat="43.31845" lon="-3.52258">
        <ele>100</ele>
        <time>2023-07-13T01:13:05.000+02:00</time>
      </trkpt>
      <trkpt lat="43.31847" lon="-3.52249">
        <ele>99.8</ele>
        <time>2023-07-13T01:13:06.000+02:00</time>
      </trkpt>
      <trkpt lat="43.31847" lon="-3.5224">
        <ele>99.3</ele>
        <time>2023-07-13T01:13:07.000+02:00</time>
      </trkpt>
      <trkpt lat="43.31845" lon="-3.52228">
        <ele>98</ele>
        <time>2023-07-13T01:13:09.000+02:00</time>
      </trkpt>
      <trkpt lat="43.31835" lon="-3.52207">
        <ele>94.5</ele>
        <time>2023-07-13T01:13:11.000+02:00</time>
      </trkpt>
      <trkpt lat="43.31832" lon="-3.52198">
        <ele>93.3</ele>
        <time>2023-07-13T01:13:12.000+02:00</time>
      </trkpt>
      <trkpt lat="43.31831" lon="-3.52194">
        <ele>93</ele>
        <time>2023-07-13T01:13:13.000+02:00</time>
      </trkpt>
      <trkpt lat="43.31828" lon="-3.52147">
        <ele>89.8</ele>
        <time>2023-07-13T01:13:18.000+02:00</time>
      </trkpt>
      <trkpt lat="43.31827" lon="-3.52137">
        <ele>88.5</ele>
        <time>2023-07-13T01:13:19.000+02:00</time>
      </trkpt>
      <trkpt lat="43.31822" lon="-3.52113">
        <ele>85.3</ele>
        <time>2023-07-13T01:13:22.000+02:00</time>
      </trkpt>
      <trkpt lat="43.31817" lon="-3.52094">
        <ele>82.8</ele>
        <time>2023-07-13T01:13:24.000+02:00</time>
      </trkpt>
      <trkpt lat="43.31817" lon="-3.5209">
        <ele>82.3</ele>
        <time>2023-07-13T01:13:25.000+02:00</time>
      </trkpt>
      <trkpt lat="43.31817" lon="-3.52086">
        <ele>82</ele>
        <time>2023-07-13T01:13:26.000+02:00</time>
      </trkpt>
      <trkpt lat="43.31818" lon="-3.52081">
        <ele>81.8</ele>
        <time>2023-07-13T01:13:27.000+02:00</time>
      </trkpt>
      <trkpt lat="43.31821" lon="-3.52072">
        <ele>80.8</ele>
        <time>2023-07-13T01:13:28.000+02:00</time>
      </trkpt>
      <trkpt lat="43.31825" lon="-3.52063">
        <ele>80</ele>
        <time>2023-07-13T01:13:29.000+02:00</time>
      </trkpt>
      <trkpt lat="43.31833" lon="-3.52052">
        <ele>78.8</ele>
        <time>2023-07-13T01:13:31.000+02:00</time>
      </trkpt>
      <trkpt lat="43.3184" lon="-3.52045">
        <ele>77.3</ele>
        <time>2023-07-13T01:13:32.000+02:00</time>
      </trkpt>
      <trkpt lat="43.3185" lon="-3.52038">
        <ele>75</ele>
        <time>2023-07-13T01:13:34.000+02:00</time>
      </trkpt>
      <trkpt lat="43.31855" lon="-3.52034">
        <ele>74</ele>
        <time>2023-07-13T01:13:35.000+02:00</time>
      </trkpt>
      <trkpt lat="43.31864" lon="-3.52031">
        <ele>73</ele>
        <time>2023-07-13T01:13:36.000+02:00</time>
      </trkpt>
      <trkpt lat="43.3189" lon="-3.52027">
        <ele>70.3</ele>
        <time>2023-07-13T01:13:40.000+02:00</time>
      </trkpt>
      <trkpt lat="43.31898" lon="-3.52028">
        <ele>70.3</ele>
        <time>2023-07-13T01:13:41.000+02:00</time>
      </trkpt>
      <trkpt lat="43.31907" lon="-3.52034">
        <ele>70.8</ele>
        <time>2023-07-13T01:13:43.000+02:00</time>
      </trkpt>
      <trkpt lat="43.31922" lon="-3.52049">
        <ele>72.8</ele>
        <time>2023-07-13T01:13:46.000+02:00</time>
      </trkpt>
      <trkpt lat="43.31926" lon="-3.52052">
        <ele>73</ele>
        <time>2023-07-13T01:13:46.000+02:00</time>
      </trkpt>
      <trkpt lat="43.31931" lon="-3.52055">
        <ele>72.8</ele>
        <time>2023-07-13T01:13:47.000+02:00</time>
      </trkpt>
      <trkpt lat="43.31961" lon="-3.52058">
        <ele>69</ele>
        <time>2023-07-13T01:13:52.000+02:00</time>
      </trkpt>
      <trkpt lat="43.31979" lon="-3.52062">
        <ele>67.3</ele>
        <time>2023-07-13T01:13:55.000+02:00</time>
      </trkpt>
      <trkpt lat="43.32002" lon="-3.52071">
        <ele>65.5</ele>
        <time>2023-07-13T01:13:58.000+02:00</time>
      </trkpt>
      <trkpt lat="43.32028" lon="-3.52072">
        <ele>62.8</ele>
        <time>2023-07-13T01:14:02.000+02:00</time>
      </trkpt>
      <trkpt lat="43.32035" lon="-3.52075">
        <ele>62.3</ele>
        <time>2023-07-13T01:14:03.000+02:00</time>
      </trkpt>
      <trkpt lat="43.3205" lon="-3.52086">
        <ele>61.8</ele>
        <time>2023-07-13T01:14:06.000+02:00</time>
      </trkpt>
      <trkpt lat="43.32068" lon="-3.52091">
        <ele>60</ele>
        <time>2023-07-13T01:14:09.000+02:00</time>
      </trkpt>
      <trkpt lat="43.32075" lon="-3.52094">
        <ele>59.8</ele>
        <time>2023-07-13T01:14:10.000+02:00</time>
      </trkpt>
      <trkpt lat="43.32105" lon="-3.52121">
        <ele>60</ele>
        <time>2023-07-13T01:14:15.000+02:00</time>
      </trkpt>
      <trkpt lat="43.32113" lon="-3.52127">
        <ele>59.8</ele>
        <time>2023-07-13T01:14:17.000+02:00</time>
      </trkpt>
      <trkpt lat="43.32139" lon="-3.52147">
        <ele>57.8</ele>
        <time>2023-07-13T01:14:21.000+02:00</time>
      </trkpt>
      <trkpt lat="43.32146" lon="-3.52154">
        <ele>57</ele>
        <time>2023-07-13T01:14:23.000+02:00</time>
      </trkpt>
      <trkpt lat="43.32154" lon="-3.52158">
        <ele>55.8</ele>
        <time>2023-07-13T01:14:24.000+02:00</time>
      </trkpt>
      <trkpt lat="43.32167" lon="-3.52159">
        <ele>53.8</ele>
        <time>2023-07-13T01:14:26.000+02:00</time>
      </trkpt>
      <trkpt lat="43.3217" lon="-3.52169">
        <ele>54</ele>
        <time>2023-07-13T01:14:27.000+02:00</time>
      </trkpt>
      <trkpt lat="43.32183" lon="-3.52196">
        <ele>55.3</ele>
        <time>2023-07-13T01:14:31.000+02:00</time>
      </trkpt>
      <trkpt lat="43.32199" lon="-3.52235">
        <ele>56.5</ele>
        <time>2023-07-13T01:14:36.000+02:00</time>
      </trkpt>
      <trkpt lat="43.32202" lon="-3.52241">
        <ele>56.8</ele>
        <time>2023-07-13T01:14:37.000+02:00</time>
      </trkpt>
      <trkpt lat="43.3221" lon="-3.52252">
        <ele>57</ele>
        <time>2023-07-13T01:14:39.000+02:00</time>
      </trkpt>
      <trkpt lat="43.32237" lon="-3.5228">
        <ele>58.8</ele>
        <time>2023-07-13T01:14:44.000+02:00</time>
      </trkpt>
      <trkpt lat="43.32253" lon="-3.52292">
        <ele>60.3</ele>
        <time>2023-07-13T01:14:47.000+02:00</time>
      </trkpt>
      <trkpt lat="43.32262" lon="-3.52296">
        <ele>61.8</ele>
        <time>2023-07-13T01:14:49.000+02:00</time>
      </trkpt>
      <trkpt lat="43.32266" lon="-3.52296">
        <ele>62.3</ele>
        <time>2023-07-13T01:14:50.000+02:00</time>
      </trkpt>
      <trkpt lat="43.32286" lon="-3.52294">
        <ele>64.5</ele>
        <time>2023-07-13T01:14:53.000+02:00</time>
      </trkpt>
      <trkpt lat="43.32303" lon="-3.5229">
        <ele>66</ele>
        <time>2023-07-13T01:14:56.000+02:00</time>
      </trkpt>
      <trkpt lat="43.32309" lon="-3.52287">
        <ele>66.5</ele>
        <time>2023-07-13T01:14:57.000+02:00</time>
      </trkpt>
      <trkpt lat="43.32326" lon="-3.52278">
        <ele>67.8</ele>
        <time>2023-07-13T01:15:00.000+02:00</time>
      </trkpt>
      <trkpt lat="43.32335" lon="-3.52273">
        <ele>68.3</ele>
        <time>2023-07-13T01:15:01.000+02:00</time>
      </trkpt>
      <trkpt lat="43.32355" lon="-3.52247">
        <ele>68.3</ele>
        <time>2023-07-13T01:15:05.000+02:00</time>
      </trkpt>
      <trkpt lat="43.32357" lon="-3.52245">
        <ele>68.5</ele>
        <time>2023-07-13T01:15:06.000+02:00</time>
      </trkpt>
      <trkpt lat="43.32369" lon="-3.52239">
        <ele>69.3</ele>
        <time>2023-07-13T01:15:07.000+02:00</time>
      </trkpt>
      <trkpt lat="43.32371" lon="-3.52237">
        <ele>69.5</ele>
        <time>2023-07-13T01:15:08.000+02:00</time>
      </trkpt>
      <trkpt lat="43.32385" lon="-3.52214">
        <ele>69.3</ele>
        <time>2023-07-13T01:15:11.000+02:00</time>
      </trkpt>
      <trkpt lat="43.32399" lon="-3.52194">
        <ele>69.3</ele>
        <time>2023-07-13T01:15:14.000+02:00</time>
      </trkpt>
      <trkpt lat="43.32404" lon="-3.52183">
        <ele>69</ele>
        <time>2023-07-13T01:15:16.000+02:00</time>
      </trkpt>
      <trkpt lat="43.32407" lon="-3.52173">
        <ele>68.5</ele>
        <time>2023-07-13T01:15:17.000+02:00</time>
      </trkpt>
      <trkpt lat="43.32408" lon="-3.52166">
        <ele>68</ele>
        <time>2023-07-13T01:15:18.000+02:00</time>
      </trkpt>
      <trkpt lat="43.32409" lon="-3.52156">
        <ele>67.3</ele>
        <time>2023-07-13T01:15:19.000+02:00</time>
      </trkpt>
      <trkpt lat="43.32408" lon="-3.52107">
        <ele>63.8</ele>
        <time>2023-07-13T01:15:24.000+02:00</time>
      </trkpt>
      <trkpt lat="43.32408" lon="-3.52094">
        <ele>63</ele>
        <time>2023-07-13T01:15:26.000+02:00</time>
      </trkpt>
      <trkpt lat="43.32409" lon="-3.52085">
        <ele>62.5</ele>
        <time>2023-07-13T01:15:27.000+02:00</time>
      </trkpt>
      <trkpt lat="43.32416" lon="-3.52062">
        <ele>61.8</ele>
        <time>2023-07-13T01:15:30.000+02:00</time>
      </trkpt>
      <trkpt lat="43.32418" lon="-3.52052">
        <ele>61.8</ele>
        <time>2023-07-13T01:15:31.000+02:00</time>
      </trkpt>
      <trkpt lat="43.3242" lon="-3.52018">
        <ele>61</ele>
        <time>2023-07-13T01:15:34.000+02:00</time>
      </trkpt>
      <trkpt lat="43.32421" lon="-3.52001">
        <ele>60.5</ele>
        <time>2023-07-13T01:15:36.000+02:00</time>
      </trkpt>
      <trkpt lat="43.32426" lon="-3.51973">
        <ele>63</ele>
        <time>2023-07-13T01:15:40.000+02:00</time>
      </trkpt>
      <trkpt lat="43.32426" lon="-3.51962">
        <ele>63.5</ele>
        <time>2023-07-13T01:15:41.000+02:00</time>
      </trkpt>
      <trkpt lat="43.32425" lon="-3.51953">
        <ele>63.5</ele>
        <time>2023-07-13T01:15:42.000+02:00</time>
      </trkpt>
      <trkpt lat="43.32417" lon="-3.51919">
        <ele>62</ele>
        <time>2023-07-13T01:15:46.000+02:00</time>
      </trkpt>
      <trkpt lat="43.32408" lon="-3.51889">
        <ele>64</ele>
        <time>2023-07-13T01:15:49.000+02:00</time>
      </trkpt>
      <trkpt lat="43.32404" lon="-3.51869">
        <ele>65.5</ele>
        <time>2023-07-13T01:15:52.000+02:00</time>
      </trkpt>
      <trkpt lat="43.32403" lon="-3.51844">
        <ele>67.5</ele>
        <time>2023-07-13T01:15:54.000+02:00</time>
      </trkpt>
      <trkpt lat="43.32402" lon="-3.51806">
        <ele>67.5</ele>
        <time>2023-07-13T01:15:59.000+02:00</time>
      </trkpt>
      <trkpt lat="43.32402" lon="-3.51784">
        <ele>67</ele>
        <time>2023-07-13T01:16:01.000+02:00</time>
      </trkpt>
      <trkpt lat="43.32405" lon="-3.5173">
        <ele>65.3</ele>
        <time>2023-07-13T01:16:07.000+02:00</time>
      </trkpt>
      <trkpt lat="43.32407" lon="-3.51707">
        <ele>64</ele>
        <time>2023-07-13T01:16:10.000+02:00</time>
      </trkpt>
      <trkpt lat="43.32409" lon="-3.51692">
        <ele>63.3</ele>
        <time>2023-07-13T01:16:11.000+02:00</time>
      </trkpt>
      <trkpt lat="43.32413" lon="-3.51671">
        <ele>62.5</ele>
        <time>2023-07-13T01:16:14.000+02:00</time>
      </trkpt>
      <trkpt lat="43.32414" lon="-3.51666">
        <ele>62.5</ele>
        <time>2023-07-13T01:16:14.000+02:00</time>
      </trkpt>
      <trkpt lat="43.32418" lon="-3.51657">
        <ele>62.5</ele>
        <time>2023-07-13T01:16:16.000+02:00</time>
      </trkpt>
      <trkpt lat="43.3243" lon="-3.51638">
        <ele>66</ele>
        <time>2023-07-13T01:16:18.000+02:00</time>
      </trkpt>
      <trkpt lat="43.32441" lon="-3.51603">
        <ele>65.8</ele>
        <time>2023-07-13T01:16:23.000+02:00</time>
      </trkpt>
      <trkpt lat="43.32448" lon="-3.51587">
        <ele>65.8</ele>
        <time>2023-07-13T01:16:25.000+02:00</time>
      </trkpt>
      <trkpt lat="43.32455" lon="-3.51574">
        <ele>66.3</ele>
        <time>2023-07-13T01:16:26.000+02:00</time>
      </trkpt>
      <trkpt lat="43.32468" lon="-3.51554">
        <ele>67</ele>
        <time>2023-07-13T01:16:30.000+02:00</time>
      </trkpt>
      <trkpt lat="43.32476" lon="-3.51538">
        <ele>66.3</ele>
        <time>2023-07-13T01:16:32.000+02:00</time>
      </trkpt>
      <trkpt lat="43.32483" lon="-3.51527">
        <ele>65.5</ele>
        <time>2023-07-13T01:16:33.000+02:00</time>
      </trkpt>
      <trkpt lat="43.32501" lon="-3.51502">
        <ele>63</ele>
        <time>2023-07-13T01:16:37.000+02:00</time>
      </trkpt>
      <trkpt lat="43.32522" lon="-3.51486">
        <ele>67.8</ele>
        <time>2023-07-13T01:16:41.000+02:00</time>
      </trkpt>
      <trkpt lat="43.32535" lon="-3.51472">
        <ele>69</ele>
        <time>2023-07-13T01:16:43.000+02:00</time>
      </trkpt>
      <trkpt lat="43.32555" lon="-3.51444">
        <ele>66.5</ele>
        <time>2023-07-13T01:16:48.000+02:00</time>
      </trkpt>
      <trkpt lat="43.32563" lon="-3.51434">
        <ele>65</ele>
        <time>2023-07-13T01:16:49.000+02:00</time>
      </trkpt>
      <trkpt lat="43.32573" lon="-3.51424">
        <ele>63.3</ele>
        <time>2023-07-13T01:16:51.000+02:00</time>
      </trkpt>
      <trkpt lat="43.32601" lon="-3.51401">
        <ele>64.3</ele>
        <time>2023-07-13T01:16:56.000+02:00</time>
      </trkpt>
      <trkpt lat="43.32613" lon="-3.51394">
        <ele>65.8</ele>
        <time>2023-07-13T01:16:58.000+02:00</time>
      </trkpt>
      <trkpt lat="43.32628" lon="-3.51382">
        <ele>66</ele>
        <time>2023-07-13T01:17:01.000+02:00</time>
      </trkpt>
      <trkpt lat="43.32655" lon="-3.51365">
        <ele>65.3</ele>
        <time>2023-07-13T01:17:05.000+02:00</time>
      </trkpt>
      <trkpt lat="43.32661" lon="-3.51363">
        <ele>65.5</ele>
        <time>2023-07-13T01:17:06.000+02:00</time>
      </trkpt>
      <trkpt lat="43.32675" lon="-3.51362">
        <ele>66.5</ele>
        <time>2023-07-13T01:17:09.000+02:00</time>
      </trkpt>
      <trkpt lat="43.32682" lon="-3.5136">
        <ele>66.5</ele>
        <time>2023-07-13T01:17:10.000+02:00</time>
      </trkpt>
      <trkpt lat="43.32692" lon="-3.51356">
        <ele>65.8</ele>
        <time>2023-07-13T01:17:11.000+02:00</time>
      </trkpt>
      <trkpt lat="43.32714" lon="-3.51343">
        <ele>62.5</ele>
        <time>2023-07-13T01:17:15.000+02:00</time>
      </trkpt>
      <trkpt lat="43.3272" lon="-3.51341">
        <ele>62.3</ele>
        <time>2023-07-13T01:17:16.000+02:00</time>
      </trkpt>
      <trkpt lat="43.32756" lon="-3.51338">
        <ele>62.3</ele>
        <time>2023-07-13T01:17:21.000+02:00</time>
      </trkpt>
      <trkpt lat="43.32762" lon="-3.5134">
        <ele>62</ele>
        <time>2023-07-13T01:17:22.000+02:00</time>
      </trkpt>
      <trkpt lat="43.32777" lon="-3.51348">
        <ele>62</ele>
        <time>2023-07-13T01:17:25.000+02:00</time>
      </trkpt>
      <trkpt lat="43.32782" lon="-3.51348">
        <ele>61.3</ele>
        <time>2023-07-13T01:17:26.000+02:00</time>
      </trkpt>
      <trkpt lat="43.32786" lon="-3.51348">
        <ele>60.8</ele>
        <time>2023-07-13T01:17:27.000+02:00</time>
      </trkpt>
      <trkpt lat="43.32793" lon="-3.51344">
        <ele>58.5</ele>
        <time>2023-07-13T01:17:28.000+02:00</time>
      </trkpt>
      <trkpt lat="43.3281" lon="-3.5133">
        <ele>53.5</ele>
        <time>2023-07-13T01:17:31.000+02:00</time>
      </trkpt>
      <trkpt lat="43.32812" lon="-3.51345">
        <ele>55.5</ele>
        <time>2023-07-13T01:17:33.000+02:00</time>
      </trkpt>
      <trkpt lat="43.32815" lon="-3.51355">
        <ele>56.8</ele>
        <time>2023-07-13T01:17:34.000+02:00</time>
      </trkpt>
      <trkpt lat="43.32822" lon="-3.51381">
        <ele>58.8</ele>
        <time>2023-07-13T01:17:37.000+02:00</time>
      </trkpt>
      <trkpt lat="43.3284" lon="-3.51432">
        <ele>59.8</ele>
        <time>2023-07-13T01:17:43.000+02:00</time>
      </trkpt>
      <trkpt lat="43.32853" lon="-3.5147">
        <ele>60.8</ele>
        <time>2023-07-13T01:17:48.000+02:00</time>
      </trkpt>
      <trkpt lat="43.3288" lon="-3.51544">
        <ele>59.3</ele>
        <time>2023-07-13T01:17:57.000+02:00</time>
      </trkpt>
      <trkpt lat="43.32884" lon="-3.51558">
        <ele>58.5</ele>
        <time>2023-07-13T01:17:59.000+02:00</time>
      </trkpt>
      <trkpt lat="43.32887" lon="-3.51569">
        <ele>58</ele>
        <time>2023-07-13T01:18:00.000+02:00</time>
      </trkpt>
      <trkpt lat="43.32889" lon="-3.51587">
        <ele>57.5</ele>
        <time>2023-07-13T01:18:02.000+02:00</time>
      </trkpt>
      <trkpt lat="43.3289" lon="-3.51598">
        <ele>57.3</ele>
        <time>2023-07-13T01:18:04.000+02:00</time>
      </trkpt>
      <trkpt lat="43.32889" lon="-3.51629">
        <ele>57.5</ele>
        <time>2023-07-13T01:18:07.000+02:00</time>
      </trkpt>
      <trkpt lat="43.32889" lon="-3.51652">
        <ele>57.3</ele>
        <time>2023-07-13T01:18:10.000+02:00</time>
      </trkpt>
      <trkpt lat="43.32891" lon="-3.51704">
        <ele>56.3</ele>
        <time>2023-07-13T01:18:15.000+02:00</time>
      </trkpt>
      <trkpt lat="43.32889" lon="-3.51725">
        <ele>56.3</ele>
        <time>2023-07-13T01:18:18.000+02:00</time>
      </trkpt>
      <trkpt lat="43.32886" lon="-3.51731">
        <ele>56.5</ele>
        <time>2023-07-13T01:18:19.000+02:00</time>
      </trkpt>
      <trkpt lat="43.32865" lon="-3.51787">
        <ele>56.8</ele>
        <time>2023-07-13T01:18:26.000+02:00</time>
      </trkpt>
      <trkpt lat="43.32838" lon="-3.51866">
        <ele>54.5</ele>
        <time>2023-07-13T01:18:35.000+02:00</time>
      </trkpt>
      <trkpt lat="43.32823" lon="-3.51914">
        <ele>55.3</ele>
        <time>2023-07-13T01:18:41.000+02:00</time>
      </trkpt>
      <trkpt lat="43.32807" lon="-3.51972">
        <ele>57.3</ele>
        <time>2023-07-13T01:18:48.000+02:00</time>
      </trkpt>
      <trkpt lat="43.32801" lon="-3.51998">
        <ele>57.8</ele>
        <time>2023-07-13T01:18:51.000+02:00</time>
      </trkpt>
      <trkpt lat="43.32794" lon="-3.52036">
        <ele>59.3</ele>
        <time>2023-07-13T01:18:55.000+02:00</time>
      </trkpt>
      <trkpt lat="43.32792" lon="-3.52054">
        <ele>60</ele>
        <time>2023-07-13T01:18:57.000+02:00</time>
      </trkpt>
      <trkpt lat="43.32791" lon="-3.52075">
        <ele>60.5</ele>
        <time>2023-07-13T01:19:00.000+02:00</time>
      </trkpt>
      <trkpt lat="43.32787" lon="-3.52137">
        <ele>62</ele>
        <time>2023-07-13T01:19:07.000+02:00</time>
      </trkpt>
      <trkpt lat="43.32784" lon="-3.52163">
        <ele>63</ele>
        <time>2023-07-13T01:19:10.000+02:00</time>
      </trkpt>
      <trkpt lat="43.3278" lon="-3.52194">
        <ele>63.3</ele>
        <time>2023-07-13T01:19:13.000+02:00</time>
      </trkpt>
      <trkpt lat="43.32779" lon="-3.52216">
        <ele>63.3</ele>
        <time>2023-07-13T01:19:15.000+02:00</time>
      </trkpt>
      <trkpt lat="43.32776" lon="-3.52281">
        <ele>61.8</ele>
        <time>2023-07-13T01:19:23.000+02:00</time>
      </trkpt>
      <trkpt lat="43.32772" lon="-3.52343">
        <ele>59.5</ele>
        <time>2023-07-13T01:19:30.000+02:00</time>
      </trkpt>
      <trkpt lat="43.3277" lon="-3.52354">
        <ele>59.5</ele>
        <time>2023-07-13T01:19:31.000+02:00</time>
      </trkpt>
      <trkpt lat="43.32757" lon="-3.52427">
        <ele>59</ele>
        <time>2023-07-13T01:19:39.000+02:00</time>
      </trkpt>
      <trkpt lat="43.32754" lon="-3.52447">
        <ele>58.3</ele>
        <time>2023-07-13T01:19:42.000+02:00</time>
      </trkpt>
      <trkpt lat="43.32751" lon="-3.52473">
        <ele>57.3</ele>
        <time>2023-07-13T01:19:44.000+02:00</time>
      </trkpt>
      <trkpt lat="43.32748" lon="-3.52516">
        <ele>56.8</ele>
        <time>2023-07-13T01:19:49.000+02:00</time>
      </trkpt>
      <trkpt lat="43.32745" lon="-3.52563">
        <ele>58.3</ele>
        <time>2023-07-13T01:19:55.000+02:00</time>
      </trkpt>
      <trkpt lat="43.32744" lon="-3.52598">
        <ele>58.8</ele>
        <time>2023-07-13T01:19:58.000+02:00</time>
      </trkpt>
      <trkpt lat="43.32745" lon="-3.52625">
        <ele>58.3</ele>
        <time>2023-07-13T01:20:01.000+02:00</time>
      </trkpt>
      <trkpt lat="43.32746" lon="-3.52637">
        <ele>57.8</ele>
        <time>2023-07-13T01:20:03.000+02:00</time>
      </trkpt>
      <trkpt lat="43.32748" lon="-3.52651">
        <ele>56.8</ele>
        <time>2023-07-13T01:20:04.000+02:00</time>
      </trkpt>
      <trkpt lat="43.32761" lon="-3.52713">
        <ele>56.8</ele>
        <time>2023-07-13T01:20:12.000+02:00</time>
      </trkpt>
      <trkpt lat="43.32768" lon="-3.52752">
        <ele>57.3</ele>
        <time>2023-07-13T01:20:16.000+02:00</time>
      </trkpt>
      <trkpt lat="43.32774" lon="-3.52805">
        <ele>61.3</ele>
        <time>2023-07-13T01:20:22.000+02:00</time>
      </trkpt>
      <trkpt lat="43.32774" lon="-3.52813">
        <ele>61.8</ele>
        <time>2023-07-13T01:20:23.000+02:00</time>
      </trkpt>
      <trkpt lat="43.32772" lon="-3.5282">
        <ele>62.5</ele>
        <time>2023-07-13T01:20:24.000+02:00</time>
      </trkpt>
      <trkpt lat="43.32771" lon="-3.52827">
        <ele>63.3</ele>
        <time>2023-07-13T01:20:25.000+02:00</time>
      </trkpt>
      <trkpt lat="43.32762" lon="-3.52848">
        <ele>66.8</ele>
        <time>2023-07-13T01:20:28.000+02:00</time>
      </trkpt>
      <trkpt lat="43.32759" lon="-3.5286">
        <ele>68.5</ele>
        <time>2023-07-13T01:20:30.000+02:00</time>
      </trkpt>
      <trkpt lat="43.32759" lon="-3.52865">
        <ele>69</ele>
        <time>2023-07-13T01:20:30.000+02:00</time>
      </trkpt>
      <trkpt lat="43.3276" lon="-3.52869">
        <ele>69.3</ele>
        <time>2023-07-13T01:20:31.000+02:00</time>
      </trkpt>
      <trkpt lat="43.32763" lon="-3.52877">
        <ele>69.8</ele>
        <time>2023-07-13T01:20:32.000+02:00</time>
      </trkpt>
      <trkpt lat="43.32776" lon="-3.52901">
        <ele>69.3</ele>
        <time>2023-07-13T01:20:35.000+02:00</time>
      </trkpt>
      <trkpt lat="43.32784" lon="-3.5292">
        <ele>68.8</ele>
        <time>2023-07-13T01:20:37.000+02:00</time>
      </trkpt>
      <trkpt lat="43.32788" lon="-3.52933">
        <ele>68.8</ele>
        <time>2023-07-13T01:20:39.000+02:00</time>
      </trkpt>
      <trkpt lat="43.32793" lon="-3.52952">
        <ele>68.8</ele>
        <time>2023-07-13T01:20:41.000+02:00</time>
      </trkpt>
      <trkpt lat="43.32797" lon="-3.52965">
        <ele>68.3</ele>
        <time>2023-07-13T01:20:43.000+02:00</time>
      </trkpt>
      <trkpt lat="43.32802" lon="-3.52976">
        <ele>67.5</ele>
        <time>2023-07-13T01:20:44.000+02:00</time>
      </trkpt>
      <trkpt lat="43.32805" lon="-3.52982">
        <ele>67</ele>
        <time>2023-07-13T01:20:45.000+02:00</time>
      </trkpt>
      <trkpt lat="43.32822" lon="-3.53004">
        <ele>62.5</ele>
        <time>2023-07-13T01:20:49.000+02:00</time>
      </trkpt>
      <trkpt lat="43.32826" lon="-3.53011">
        <ele>61.5</ele>
        <time>2023-07-13T01:20:50.000+02:00</time>
      </trkpt>
      <trkpt lat="43.32839" lon="-3.53038">
        <ele>59.5</ele>
        <time>2023-07-13T01:20:54.000+02:00</time>
      </trkpt>
      <trkpt lat="43.32842" lon="-3.53047">
        <ele>59.5</ele>
        <time>2023-07-13T01:20:55.000+02:00</time>
      </trkpt>
      <trkpt lat="43.32846" lon="-3.5306">
        <ele>59.5</ele>
        <time>2023-07-13T01:20:57.000+02:00</time>
      </trkpt>
      <trkpt lat="43.32849" lon="-3.5309">
        <ele>59.8</ele>
        <time>2023-07-13T01:21:00.000+02:00</time>
      </trkpt>
      <trkpt lat="43.32857" lon="-3.5313">
        <ele>60.3</ele>
        <time>2023-07-13T01:21:05.000+02:00</time>
      </trkpt>
      <trkpt lat="43.3286" lon="-3.53162">
        <ele>61</ele>
        <time>2023-07-13T01:21:08.000+02:00</time>
      </trkpt>
      <trkpt lat="43.32862" lon="-3.53221">
        <ele>63</ele>
        <time>2023-07-13T01:21:15.000+02:00</time>
      </trkpt>
      <trkpt lat="43.32862" lon="-3.5324">
        <ele>63.8</ele>
        <time>2023-07-13T01:21:17.000+02:00</time>
      </trkpt>
      <trkpt lat="43.32862" lon="-3.53251">
        <ele>64</ele>
        <time>2023-07-13T01:21:18.000+02:00</time>
      </trkpt>
      <trkpt lat="43.32864" lon="-3.53259">
        <ele>64.8</ele>
        <time>2023-07-13T01:21:19.000+02:00</time>
      </trkpt>
      <trkpt lat="43.32865" lon="-3.53266">
        <ele>65.3</ele>
        <time>2023-07-13T01:21:20.000+02:00</time>
      </trkpt>
      <trkpt lat="43.32871" lon="-3.53289">
        <ele>66</ele>
        <time>2023-07-13T01:21:23.000+02:00</time>
      </trkpt>
      <trkpt lat="43.32885" lon="-3.53328">
        <ele>66</ele>
        <time>2023-07-13T01:21:27.000+02:00</time>
      </trkpt>
      <trkpt lat="43.32895" lon="-3.53356">
        <ele>64</ele>
        <time>2023-07-13T01:21:31.000+02:00</time>
      </trkpt>
      <trkpt lat="43.32901" lon="-3.53379">
        <ele>62.5</ele>
        <time>2023-07-13T01:21:34.000+02:00</time>
      </trkpt>
      <trkpt lat="43.32904" lon="-3.53394">
        <ele>61.5</ele>
        <time>2023-07-13T01:21:35.000+02:00</time>
      </trkpt>
      <trkpt lat="43.32907" lon="-3.53413">
        <ele>60.5</ele>
        <time>2023-07-13T01:21:38.000+02:00</time>
      </trkpt>
      <trkpt lat="43.32912" lon="-3.53461">
        <ele>60</ele>
        <time>2023-07-13T01:21:43.000+02:00</time>
      </trkpt>
      <trkpt lat="43.32915" lon="-3.53506">
        <ele>60</ele>
        <time>2023-07-13T01:21:48.000+02:00</time>
      </trkpt>
      <trkpt lat="43.32916" lon="-3.53515">
        <ele>59.8</ele>
        <time>2023-07-13T01:21:49.000+02:00</time>
      </trkpt>
      <trkpt lat="43.32918" lon="-3.53526">
        <ele>60</ele>
        <time>2023-07-13T01:21:50.000+02:00</time>
      </trkpt>
      <trkpt lat="43.32921" lon="-3.53537">
        <ele>60.5</ele>
        <time>2023-07-13T01:21:51.000+02:00</time>
      </trkpt>
      <trkpt lat="43.32937" lon="-3.53596">
        <ele>62</ele>
        <time>2023-07-13T01:21:58.000+02:00</time>
      </trkpt>
      <trkpt lat="43.32969" lon="-3.53716">
        <ele>65.8</ele>
        <time>2023-07-13T01:22:13.000+02:00</time>
      </trkpt>
      <trkpt lat="43.32977" lon="-3.53747">
        <ele>65.8</ele>
        <time>2023-07-13T01:22:16.000+02:00</time>
      </trkpt>
      <trkpt lat="43.32979" lon="-3.53759">
        <ele>65.8</ele>
        <time>2023-07-13T01:22:18.000+02:00</time>
      </trkpt>
      <trkpt lat="43.3298" lon="-3.53768">
        <ele>66</ele>
        <time>2023-07-13T01:22:19.000+02:00</time>
      </trkpt>
      <trkpt lat="43.3298" lon="-3.53781">
        <ele>67</ele>
        <time>2023-07-13T01:22:20.000+02:00</time>
      </trkpt>
      <trkpt lat="43.32975" lon="-3.538">
        <ele>70</ele>
        <time>2023-07-13T01:22:22.000+02:00</time>
      </trkpt>
      <trkpt lat="43.32974" lon="-3.5381">
        <ele>71.3</ele>
        <time>2023-07-13T01:22:24.000+02:00</time>
      </trkpt>
      <trkpt lat="43.32974" lon="-3.53816">
        <ele>71.5</ele>
        <time>2023-07-13T01:22:25.000+02:00</time>
      </trkpt>
      <trkpt lat="43.32975" lon="-3.53824">
        <ele>71.8</ele>
        <time>2023-07-13T01:22:26.000+02:00</time>
      </trkpt>
      <trkpt lat="43.32978" lon="-3.53832">
        <ele>71.3</ele>
        <time>2023-07-13T01:22:27.000+02:00</time>
      </trkpt>
      <trkpt lat="43.32984" lon="-3.53844">
        <ele>69.8</ele>
        <time>2023-07-13T01:22:29.000+02:00</time>
      </trkpt>
      <trkpt lat="43.3299" lon="-3.53859">
        <ele>68.8</ele>
        <time>2023-07-13T01:22:31.000+02:00</time>
      </trkpt>
      <trkpt lat="43.33003" lon="-3.53913">
        <ele>67.3</ele>
        <time>2023-07-13T01:22:37.000+02:00</time>
      </trkpt>
      <trkpt lat="43.3301" lon="-3.53929">
        <ele>67.8</ele>
        <time>2023-07-13T01:22:39.000+02:00</time>
      </trkpt>
      <trkpt lat="43.3303" lon="-3.53968">
        <ele>67.8</ele>
        <time>2023-07-13T01:22:44.000+02:00</time>
      </trkpt>
      <trkpt lat="43.33041" lon="-3.53995">
        <ele>67.8</ele>
        <time>2023-07-13T01:22:48.000+02:00</time>
      </trkpt>
      <trkpt lat="43.33079" lon="-3.54122">
        <ele>65.5</ele>
        <time>2023-07-13T01:23:03.000+02:00</time>
      </trkpt>
      <trkpt lat="43.33082" lon="-3.54134">
        <ele>64.8</ele>
        <time>2023-07-13T01:23:04.000+02:00</time>
      </trkpt>
      <trkpt lat="43.33087" lon="-3.54158">
        <ele>64.5</ele>
        <time>2023-07-13T01:23:07.000+02:00</time>
      </trkpt>
      <trkpt lat="43.33108" lon="-3.54309">
        <ele>78</ele>
        <time>2023-07-13T01:23:24.000+02:00</time>
      </trkpt>
      <trkpt lat="43.33111" lon="-3.54319">
        <ele>78.3</ele>
        <time>2023-07-13T01:23:25.000+02:00</time>
      </trkpt>
      <trkpt lat="43.33116" lon="-3.5433">
        <ele>77.5</ele>
        <time>2023-07-13T01:23:27.000+02:00</time>
      </trkpt>
      <trkpt lat="43.33124" lon="-3.5434">
        <ele>76</ele>
        <time>2023-07-13T01:23:29.000+02:00</time>
      </trkpt>
      <trkpt lat="43.33143" lon="-3.5436">
        <ele>71.8</ele>
        <time>2023-07-13T01:23:32.000+02:00</time>
      </trkpt>
      <trkpt lat="43.33193" lon="-3.54417">
        <ele>66.5</ele>
        <time>2023-07-13T01:23:42.000+02:00</time>
      </trkpt>
      <trkpt lat="43.33217" lon="-3.54441">
        <ele>67.8</ele>
        <time>2023-07-13T01:23:47.000+02:00</time>
      </trkpt>
      <trkpt lat="43.33226" lon="-3.54451">
        <ele>67.8</ele>
        <time>2023-07-13T01:23:48.000+02:00</time>
      </trkpt>
      <trkpt lat="43.33238" lon="-3.54469">
        <ele>68</ele>
        <time>2023-07-13T01:23:51.000+02:00</time>
      </trkpt>
      <trkpt lat="43.33279" lon="-3.54538">
        <ele>68.5</ele>
        <time>2023-07-13T01:24:01.000+02:00</time>
      </trkpt>
      <trkpt lat="43.33297" lon="-3.5457">
        <ele>67.5</ele>
        <time>2023-07-13T01:24:06.000+02:00</time>
      </trkpt>
      <trkpt lat="43.33304" lon="-3.54579">
        <ele>66.8</ele>
        <time>2023-07-13T01:24:07.000+02:00</time>
      </trkpt>
      <trkpt lat="43.33312" lon="-3.54587">
        <ele>66.3</ele>
        <time>2023-07-13T01:24:09.000+02:00</time>
      </trkpt>
      <trkpt lat="43.33333" lon="-3.54603">
        <ele>65.3</ele>
        <time>2023-07-13T01:24:12.000+02:00</time>
      </trkpt>
      <trkpt lat="43.3334" lon="-3.54611">
        <ele>66</ele>
        <time>2023-07-13T01:24:14.000+02:00</time>
      </trkpt>
      <trkpt lat="43.33347" lon="-3.54623">
        <ele>67</ele>
        <time>2023-07-13T01:24:15.000+02:00</time>
      </trkpt>
      <trkpt lat="43.33353" lon="-3.54636">
        <ele>67.8</ele>
        <time>2023-07-13T01:24:17.000+02:00</time>
      </trkpt>
      <trkpt lat="43.33364" lon="-3.54662">
        <ele>69</ele>
        <time>2023-07-13T01:24:20.000+02:00</time>
      </trkpt>
      <trkpt lat="43.33369" lon="-3.54676">
        <ele>69.5</ele>
        <time>2023-07-13T01:24:22.000+02:00</time>
      </trkpt>
      <trkpt lat="43.33379" lon="-3.54711">
        <ele>70.8</ele>
        <time>2023-07-13T01:24:26.000+02:00</time>
      </trkpt>
      <trkpt lat="43.33383" lon="-3.5472">
        <ele>70.8</ele>
        <time>2023-07-13T01:24:27.000+02:00</time>
      </trkpt>
      <trkpt lat="43.33388" lon="-3.54729">
        <ele>70.8</ele>
        <time>2023-07-13T01:24:29.000+02:00</time>
      </trkpt>
      <trkpt lat="43.33397" lon="-3.54738">
        <ele>70.8</ele>
        <time>2023-07-13T01:24:30.000+02:00</time>
      </trkpt>
      <trkpt lat="43.33394" lon="-3.5475">
        <ele>71</ele>
        <time>2023-07-13T01:24:32.000+02:00</time>
      </trkpt>
      <trkpt lat="43.33393" lon="-3.5476">
        <ele>71.3</ele>
        <time>2023-07-13T01:24:33.000+02:00</time>
      </trkpt>
      <trkpt lat="43.33385" lon="-3.54919">
        <ele>75.8</ele>
        <time>2023-07-13T01:24:51.000+02:00</time>
      </trkpt>
      <trkpt lat="43.33385" lon="-3.54953">
        <ele>76.8</ele>
        <time>2023-07-13T01:24:54.000+02:00</time>
      </trkpt>
      <trkpt lat="43.33387" lon="-3.5498">
        <ele>77</ele>
        <time>2023-07-13T01:24:57.000+02:00</time>
      </trkpt>
      <trkpt lat="43.33388" lon="-3.54995">
        <ele>77.3</ele>
        <time>2023-07-13T01:24:59.000+02:00</time>
      </trkpt>
      <trkpt lat="43.33403" lon="-3.55071">
        <ele>75</ele>
        <time>2023-07-13T01:25:08.000+02:00</time>
      </trkpt>
      <trkpt lat="43.3341" lon="-3.5511">
        <ele>75.5</ele>
        <time>2023-07-13T01:25:12.000+02:00</time>
      </trkpt>
      <trkpt lat="43.33421" lon="-3.55184">
        <ele>79.3</ele>
        <time>2023-07-13T01:25:21.000+02:00</time>
      </trkpt>
      <trkpt lat="43.33424" lon="-3.55197">
        <ele>80.8</ele>
        <time>2023-07-13T01:25:22.000+02:00</time>
      </trkpt>
      <trkpt lat="43.33428" lon="-3.55207">
        <ele>82</ele>
        <time>2023-07-13T01:25:24.000+02:00</time>
      </trkpt>
      <trkpt lat="43.33433" lon="-3.55217">
        <ele>83</ele>
        <time>2023-07-13T01:25:25.000+02:00</time>
      </trkpt>
      <trkpt lat="43.33445" lon="-3.55232">
        <ele>84.3</ele>
        <time>2023-07-13T01:25:27.000+02:00</time>
      </trkpt>
      <trkpt lat="43.33458" lon="-3.55247">
        <ele>85.3</ele>
        <time>2023-07-13T01:25:30.000+02:00</time>
      </trkpt>
      <trkpt lat="43.33464" lon="-3.55252">
        <ele>85.5</ele>
        <time>2023-07-13T01:25:31.000+02:00</time>
      </trkpt>
      <trkpt lat="43.3347" lon="-3.55257">
        <ele>85.8</ele>
        <time>2023-07-13T01:25:32.000+02:00</time>
      </trkpt>
      <trkpt lat="43.3348" lon="-3.55263">
        <ele>85.8</ele>
        <time>2023-07-13T01:25:34.000+02:00</time>
      </trkpt>
      <trkpt lat="43.33507" lon="-3.55276">
        <ele>87.8</ele>
        <time>2023-07-13T01:25:38.000+02:00</time>
      </trkpt>
      <trkpt lat="43.33512" lon="-3.5528">
        <ele>89.3</ele>
        <time>2023-07-13T01:25:39.000+02:00</time>
      </trkpt>
      <trkpt lat="43.33524" lon="-3.55289">
        <ele>92.5</ele>
        <time>2023-07-13T01:25:41.000+02:00</time>
      </trkpt>
      <trkpt lat="43.33537" lon="-3.55302">
        <ele>95.8</ele>
        <time>2023-07-13T01:25:44.000+02:00</time>
      </trkpt>
      <trkpt lat="43.33549" lon="-3.55316">
        <ele>98.5</ele>
        <time>2023-07-13T01:25:46.000+02:00</time>
      </trkpt>
      <trkpt lat="43.33557" lon="-3.5533">
        <ele>100</ele>
        <time>2023-07-13T01:25:48.000+02:00</time>
      </trkpt>
      <trkpt lat="43.33559" lon="-3.55335">
        <ele>100.5</ele>
        <time>2023-07-13T01:25:49.000+02:00</time>
      </trkpt>
      <trkpt lat="43.33562" lon="-3.55343">
        <ele>101.8</ele>
        <time>2023-07-13T01:25:50.000+02:00</time>
      </trkpt>
      <trkpt lat="43.33562" lon="-3.5535">
        <ele>102.8</ele>
        <time>2023-07-13T01:25:51.000+02:00</time>
      </trkpt>
      <trkpt lat="43.33562" lon="-3.55357">
        <ele>103.5</ele>
        <time>2023-07-13T01:25:52.000+02:00</time>
      </trkpt>
      <trkpt lat="43.3356" lon="-3.55388">
        <ele>106.5</ele>
        <time>2023-07-13T01:25:56.000+02:00</time>
      </trkpt>
      <trkpt lat="43.33554" lon="-3.55445">
        <ele>111.8</ele>
        <time>2023-07-13T01:26:02.000+02:00</time>
      </trkpt>
      <trkpt lat="43.33549" lon="-3.55475">
        <ele>114</ele>
        <time>2023-07-13T01:26:05.000+02:00</time>
      </trkpt>
      <trkpt lat="43.33542" lon="-3.55511">
        <ele>115.5</ele>
        <time>2023-07-13T01:26:09.000+02:00</time>
      </trkpt>
      <trkpt lat="43.33539" lon="-3.55524">
        <ele>116</ele>
        <time>2023-07-13T01:26:11.000+02:00</time>
      </trkpt>
      <trkpt lat="43.33534" lon="-3.55537">
        <ele>115.8</ele>
        <time>2023-07-13T01:26:13.000+02:00</time>
      </trkpt>
      <trkpt lat="43.33523" lon="-3.55563">
        <ele>114.5</ele>
        <time>2023-07-13T01:26:16.000+02:00</time>
      </trkpt>
      <trkpt lat="43.33508" lon="-3.55604">
        <ele>114.3</ele>
        <time>2023-07-13T01:26:21.000+02:00</time>
      </trkpt>
      <trkpt lat="43.33503" lon="-3.55613">
        <ele>114.3</ele>
        <time>2023-07-13T01:26:22.000+02:00</time>
      </trkpt>
      <trkpt lat="43.33495" lon="-3.55624">
        <ele>114.5</ele>
        <time>2023-07-13T01:26:24.000+02:00</time>
      </trkpt>
      <trkpt lat="43.33482" lon="-3.55634">
        <ele>115.8</ele>
        <time>2023-07-13T01:26:26.000+02:00</time>
      </trkpt>
      <trkpt lat="43.33474" lon="-3.5564">
        <ele>116</ele>
        <time>2023-07-13T01:26:28.000+02:00</time>
      </trkpt>
      <trkpt lat="43.33466" lon="-3.55643">
        <ele>116</ele>
        <time>2023-07-13T01:26:29.000+02:00</time>
      </trkpt>
      <trkpt lat="43.33445" lon="-3.55646">
        <ele>115.8</ele>
        <time>2023-07-13T01:26:32.000+02:00</time>
      </trkpt>
      <trkpt lat="43.3344" lon="-3.55648">
        <ele>115.5</ele>
        <time>2023-07-13T01:26:33.000+02:00</time>
      </trkpt>
      <trkpt lat="43.33437" lon="-3.5565">
        <ele>115.5</ele>
        <time>2023-07-13T01:26:33.000+02:00</time>
      </trkpt>
      <trkpt lat="43.33431" lon="-3.55655">
        <ele>115.8</ele>
        <time>2023-07-13T01:26:35.000+02:00</time>
      </trkpt>
      <trkpt lat="43.33422" lon="-3.55666">
        <ele>116</ele>
        <time>2023-07-13T01:26:36.000+02:00</time>
      </trkpt>
      <trkpt lat="43.33417" lon="-3.55674">
        <ele>116.8</ele>
        <time>2023-07-13T01:26:38.000+02:00</time>
      </trkpt>
      <trkpt lat="43.33415" lon="-3.55678">
        <ele>117</ele>
        <time>2023-07-13T01:26:39.000+02:00</time>
      </trkpt>
      <trkpt lat="43.33414" lon="-3.55684">
        <ele>117.8</ele>
        <time>2023-07-13T01:26:40.000+02:00</time>
      </trkpt>
      <trkpt lat="43.33413" lon="-3.55688">
        <ele>118</ele>
        <time>2023-07-13T01:26:40.000+02:00</time>
      </trkpt>
      <trkpt lat="43.33413" lon="-3.55696">
        <ele>119</ele>
        <time>2023-07-13T01:26:41.000+02:00</time>
      </trkpt>
      <trkpt lat="43.33413" lon="-3.55699">
        <ele>119.3</ele>
        <time>2023-07-13T01:26:42.000+02:00</time>
      </trkpt>
      <trkpt lat="43.33415" lon="-3.55706">
        <ele>120</ele>
        <time>2023-07-13T01:26:43.000+02:00</time>
      </trkpt>
      <trkpt lat="43.33419" lon="-3.55711">
        <ele>120.8</ele>
        <time>2023-07-13T01:26:44.000+02:00</time>
      </trkpt>
      <trkpt lat="43.33423" lon="-3.55715">
        <ele>121.5</ele>
        <time>2023-07-13T01:26:45.000+02:00</time>
      </trkpt>
      <trkpt lat="43.33429" lon="-3.55717">
        <ele>122.5</ele>
        <time>2023-07-13T01:26:46.000+02:00</time>
      </trkpt>
      <trkpt lat="43.33437" lon="-3.55715">
        <ele>123</ele>
        <time>2023-07-13T01:26:47.000+02:00</time>
      </trkpt>
      <trkpt lat="43.33442" lon="-3.55713">
        <ele>123</ele>
        <time>2023-07-13T01:26:48.000+02:00</time>
      </trkpt>
      <trkpt lat="43.33447" lon="-3.5571">
        <ele>123</ele>
        <time>2023-07-13T01:26:49.000+02:00</time>
      </trkpt>
      <trkpt lat="43.33471" lon="-3.55681">
        <ele>121.3</ele>
        <time>2023-07-13T01:26:54.000+02:00</time>
      </trkpt>
      <trkpt lat="43.33476" lon="-3.55678">
        <ele>121</ele>
        <time>2023-07-13T01:26:55.000+02:00</time>
      </trkpt>
      <trkpt lat="43.3348" lon="-3.55676">
        <ele>121</ele>
        <time>2023-07-13T01:26:56.000+02:00</time>
      </trkpt>
      <trkpt lat="43.33489" lon="-3.55676">
        <ele>121.5</ele>
        <time>2023-07-13T01:26:57.000+02:00</time>
      </trkpt>
      <trkpt lat="43.33501" lon="-3.55679">
        <ele>123</ele>
        <time>2023-07-13T01:26:59.000+02:00</time>
      </trkpt>
      <trkpt lat="43.33529" lon="-3.55691">
        <ele>131.5</ele>
        <time>2023-07-13T01:27:04.000+02:00</time>
      </trkpt>
      <trkpt lat="43.33533" lon="-3.55691">
        <ele>132.5</ele>
        <time>2023-07-13T01:27:05.000+02:00</time>
      </trkpt>
      <trkpt lat="43.33536" lon="-3.5569">
        <ele>133</ele>
        <time>2023-07-13T01:27:06.000+02:00</time>
      </trkpt>
      <trkpt lat="43.33541" lon="-3.55686">
        <ele>133.8</ele>
        <time>2023-07-13T01:27:07.000+02:00</time>
      </trkpt>
      <trkpt lat="43.33543" lon="-3.55683">
        <ele>134</ele>
        <time>2023-07-13T01:27:07.000+02:00</time>
      </trkpt>
      <trkpt lat="43.33546" lon="-3.55675">
        <ele>133.8</ele>
        <time>2023-07-13T01:27:08.000+02:00</time>
      </trkpt>
      <trkpt lat="43.33549" lon="-3.55662">
        <ele>133.3</ele>
        <time>2023-07-13T01:27:10.000+02:00</time>
      </trkpt>
      <trkpt lat="43.3355" lon="-3.55642">
        <ele>131.8</ele>
        <time>2023-07-13T01:27:12.000+02:00</time>
      </trkpt>
      <trkpt lat="43.33551" lon="-3.55638">
        <ele>131.5</ele>
        <time>2023-07-13T01:27:13.000+02:00</time>
      </trkpt>
      <trkpt lat="43.33554" lon="-3.55632">
        <ele>131.8</ele>
        <time>2023-07-13T01:27:14.000+02:00</time>
      </trkpt>
      <trkpt lat="43.33557" lon="-3.55628">
        <ele>132.3</ele>
        <time>2023-07-13T01:27:15.000+02:00</time>
      </trkpt>
      <trkpt lat="43.33561" lon="-3.55626">
        <ele>133.3</ele>
        <time>2023-07-13T01:27:15.000+02:00</time>
      </trkpt>
      <trkpt lat="43.33565" lon="-3.55627">
        <ele>134.5</ele>
        <time>2023-07-13T01:27:16.000+02:00</time>
      </trkpt>
      <trkpt lat="43.33567" lon="-3.55631">
        <ele>135.5</ele>
        <time>2023-07-13T01:27:17.000+02:00</time>
      </trkpt>
      <trkpt lat="43.33569" lon="-3.5564">
        <ele>136.8</ele>
        <time>2023-07-13T01:27:18.000+02:00</time>
      </trkpt>
      <trkpt lat="43.33571" lon="-3.55662">
        <ele>139</ele>
        <time>2023-07-13T01:27:20.000+02:00</time>
      </trkpt>
      <trkpt lat="43.33571" lon="-3.55696">
        <ele>142</ele>
        <time>2023-07-13T01:27:24.000+02:00</time>
      </trkpt>
      <trkpt lat="43.33571" lon="-3.55712">
        <ele>143</ele>
        <time>2023-07-13T01:27:26.000+02:00</time>
      </trkpt>
      <trkpt lat="43.3357" lon="-3.55721">
        <ele>143.3</ele>
        <time>2023-07-13T01:27:27.000+02:00</time>
      </trkpt>
      <trkpt lat="43.33567" lon="-3.55732">
        <ele>143.8</ele>
        <time>2023-07-13T01:27:28.000+02:00</time>
      </trkpt>
      <trkpt lat="43.33561" lon="-3.55748">
        <ele>144</ele>
        <time>2023-07-13T01:27:30.000+02:00</time>
      </trkpt>
      <trkpt lat="43.33558" lon="-3.55755">
        <ele>143.8</ele>
        <time>2023-07-13T01:27:31.000+02:00</time>
      </trkpt>
      <trkpt lat="43.33536" lon="-3.55796">
        <ele>142.5</ele>
        <time>2023-07-13T01:27:37.000+02:00</time>
      </trkpt>
      <trkpt lat="43.33533" lon="-3.55803">
        <ele>142.5</ele>
        <time>2023-07-13T01:27:38.000+02:00</time>
      </trkpt>
      <trkpt lat="43.33532" lon="-3.55807">
        <ele>142.5</ele>
        <time>2023-07-13T01:27:39.000+02:00</time>
      </trkpt>
      <trkpt lat="43.33531" lon="-3.55815">
        <ele>142.8</ele>
        <time>2023-07-13T01:27:40.000+02:00</time>
      </trkpt>
      <trkpt lat="43.33532" lon="-3.55823">
        <ele>143.5</ele>
        <time>2023-07-13T01:27:41.000+02:00</time>
      </trkpt>
      <trkpt lat="43.33533" lon="-3.55827">
        <ele>144</ele>
        <time>2023-07-13T01:27:41.000+02:00</time>
      </trkpt>
      <trkpt lat="43.33537" lon="-3.55831">
        <ele>145</ele>
        <time>2023-07-13T01:27:42.000+02:00</time>
      </trkpt>
      <trkpt lat="43.33542" lon="-3.55834">
        <ele>146</ele>
        <time>2023-07-13T01:27:43.000+02:00</time>
      </trkpt>
      <trkpt lat="43.33556" lon="-3.55838">
        <ele>148.8</ele>
        <time>2023-07-13T01:27:45.000+02:00</time>
      </trkpt>
      <trkpt lat="43.33559" lon="-3.5584">
        <ele>149.8</ele>
        <time>2023-07-13T01:27:46.000+02:00</time>
      </trkpt>
      <trkpt lat="43.33563" lon="-3.55843">
        <ele>150.5</ele>
        <time>2023-07-13T01:27:47.000+02:00</time>
      </trkpt>
      <trkpt lat="43.33567" lon="-3.55848">
        <ele>152</ele>
        <time>2023-07-13T01:27:48.000+02:00</time>
      </trkpt>
      <trkpt lat="43.33571" lon="-3.55856">
        <ele>153.5</ele>
        <time>2023-07-13T01:27:49.000+02:00</time>
      </trkpt>
      <trkpt lat="43.33573" lon="-3.55864">
        <ele>155.3</ele>
        <time>2023-07-13T01:27:50.000+02:00</time>
      </trkpt>
      <trkpt lat="43.33575" lon="-3.55873">
        <ele>156.5</ele>
        <time>2023-07-13T01:27:51.000+02:00</time>
      </trkpt>
      <trkpt lat="43.33575" lon="-3.5588">
        <ele>157.5</ele>
        <time>2023-07-13T01:27:52.000+02:00</time>
      </trkpt>
      <trkpt lat="43.33576" lon="-3.55896">
        <ele>159.5</ele>
        <time>2023-07-13T01:27:54.000+02:00</time>
      </trkpt>
      <trkpt lat="43.33574" lon="-3.55916">
        <ele>161.8</ele>
        <time>2023-07-13T01:27:56.000+02:00</time>
      </trkpt>
      <trkpt lat="43.33572" lon="-3.55926">
        <ele>162.8</ele>
        <time>2023-07-13T01:27:57.000+02:00</time>
      </trkpt>
      <trkpt lat="43.33563" lon="-3.55954">
        <ele>164.8</ele>
        <time>2023-07-13T01:28:00.000+02:00</time>
      </trkpt>
      <trkpt lat="43.33556" lon="-3.55979">
        <ele>166.8</ele>
        <time>2023-07-13T01:28:03.000+02:00</time>
      </trkpt>
      <trkpt lat="43.33545" lon="-3.56034">
        <ele>171</ele>
        <time>2023-07-13T01:28:10.000+02:00</time>
      </trkpt>
      <trkpt lat="43.33541" lon="-3.5606">
        <ele>173</ele>
        <time>2023-07-13T01:28:13.000+02:00</time>
      </trkpt>
      <trkpt lat="43.3354" lon="-3.56073">
        <ele>174.3</ele>
        <time>2023-07-13T01:28:14.000+02:00</time>
      </trkpt>
      <trkpt lat="43.33541" lon="-3.56079">
        <ele>175.3</ele>
        <time>2023-07-13T01:28:15.000+02:00</time>
      </trkpt>
      <trkpt lat="43.33543" lon="-3.56083">
        <ele>176.3</ele>
        <time>2023-07-13T01:28:16.000+02:00</time>
      </trkpt>
      <trkpt lat="43.33546" lon="-3.56085">
        <ele>177.3</ele>
        <time>2023-07-13T01:28:17.000+02:00</time>
      </trkpt>
      <trkpt lat="43.33551" lon="-3.56086">
        <ele>178.8</ele>
        <time>2023-07-13T01:28:18.000+02:00</time>
      </trkpt>
      <trkpt lat="43.33555" lon="-3.56083">
        <ele>179</ele>
        <time>2023-07-13T01:28:18.000+02:00</time>
      </trkpt>
      <trkpt lat="43.33558" lon="-3.56078">
        <ele>179.3</ele>
        <time>2023-07-13T01:28:19.000+02:00</time>
      </trkpt>
      <trkpt lat="43.33559" lon="-3.56075">
        <ele>179.3</ele>
        <time>2023-07-13T01:28:20.000+02:00</time>
      </trkpt>
      <trkpt lat="43.33572" lon="-3.56026">
        <ele>176.3</ele>
        <time>2023-07-13T01:28:26.000+02:00</time>
      </trkpt>
      <trkpt lat="43.33603" lon="-3.55925">
        <ele>176.8</ele>
        <time>2023-07-13T01:28:38.000+02:00</time>
      </trkpt>
      <trkpt lat="43.33608" lon="-3.55909">
        <ele>177.3</ele>
        <time>2023-07-13T01:28:40.000+02:00</time>
      </trkpt>
      <trkpt lat="43.3362" lon="-3.55863">
        <ele>177.8</ele>
        <time>2023-07-13T01:28:46.000+02:00</time>
      </trkpt>
      <trkpt lat="43.33631" lon="-3.55804">
        <ele>177.8</ele>
        <time>2023-07-13T01:28:52.000+02:00</time>
      </trkpt>
      <trkpt lat="43.33635" lon="-3.55783">
        <ele>178.5</ele>
        <time>2023-07-13T01:28:55.000+02:00</time>
      </trkpt>
      <trkpt lat="43.33655" lon="-3.55713">
        <ele>183</ele>
        <time>2023-07-13T01:29:03.000+02:00</time>
      </trkpt>
      <trkpt lat="43.33656" lon="-3.55705">
        <ele>183.3</ele>
        <time>2023-07-13T01:29:04.000+02:00</time>
      </trkpt>
      <trkpt lat="43.33657" lon="-3.55694">
        <ele>182.5</ele>
        <time>2023-07-13T01:29:05.000+02:00</time>
      </trkpt>
      <trkpt lat="43.33655" lon="-3.55649">
        <ele>177.3</ele>
        <time>2023-07-13T01:29:10.000+02:00</time>
      </trkpt>
      <trkpt lat="43.33656" lon="-3.55631">
        <ele>176</ele>
        <time>2023-07-13T01:29:12.000+02:00</time>
      </trkpt>
      <trkpt lat="43.33659" lon="-3.55611">
        <ele>175.8</ele>
        <time>2023-07-13T01:29:15.000+02:00</time>
      </trkpt>
      <trkpt lat="43.33666" lon="-3.55581">
        <ele>176.5</ele>
        <time>2023-07-13T01:29:18.000+02:00</time>
      </trkpt>
      <trkpt lat="43.33671" lon="-3.55566">
        <ele>177</ele>
        <time>2023-07-13T01:29:20.000+02:00</time>
      </trkpt>
      <trkpt lat="43.33676" lon="-3.55553">
        <ele>178</ele>
        <time>2023-07-13T01:29:22.000+02:00</time>
      </trkpt>
      <trkpt lat="43.33678" lon="-3.5555">
        <ele>178.5</ele>
        <time>2023-07-13T01:29:22.000+02:00</time>
      </trkpt>
      <trkpt lat="43.33682" lon="-3.55545">
        <ele>179.5</ele>
        <time>2023-07-13T01:29:23.000+02:00</time>
      </trkpt>
      <trkpt lat="43.33687" lon="-3.55541">
        <ele>181.3</ele>
        <time>2023-07-13T01:29:24.000+02:00</time>
      </trkpt>
      <trkpt lat="43.33695" lon="-3.55538">
        <ele>184</ele>
        <time>2023-07-13T01:29:25.000+02:00</time>
      </trkpt>
      <trkpt lat="43.33704" lon="-3.55538">
        <ele>187.3</ele>
        <time>2023-07-13T01:29:26.000+02:00</time>
      </trkpt>
      <trkpt lat="43.33709" lon="-3.5554">
        <ele>189.3</ele>
        <time>2023-07-13T01:29:27.000+02:00</time>
      </trkpt>
      <trkpt lat="43.33714" lon="-3.55543">
        <ele>191.3</ele>
        <time>2023-07-13T01:29:28.000+02:00</time>
      </trkpt>
      <trkpt lat="43.33721" lon="-3.5555">
        <ele>194</ele>
        <time>2023-07-13T01:29:29.000+02:00</time>
      </trkpt>
      <trkpt lat="43.33726" lon="-3.55558">
        <ele>196</ele>
        <time>2023-07-13T01:29:31.000+02:00</time>
      </trkpt>
      <trkpt lat="43.33728" lon="-3.55566">
        <ele>197</ele>
        <time>2023-07-13T01:29:32.000+02:00</time>
      </trkpt>
      <trkpt lat="43.33729" lon="-3.55572">
        <ele>197.5</ele>
        <time>2023-07-13T01:29:33.000+02:00</time>
      </trkpt>
      <trkpt lat="43.3373" lon="-3.55583">
        <ele>198</ele>
        <time>2023-07-13T01:29:34.000+02:00</time>
      </trkpt>
      <trkpt lat="43.33729" lon="-3.55595">
        <ele>199.3</ele>
        <time>2023-07-13T01:29:36.000+02:00</time>
      </trkpt>
      <trkpt lat="43.33726" lon="-3.55607">
        <ele>199.5</ele>
        <time>2023-07-13T01:29:37.000+02:00</time>
      </trkpt>
      <trkpt lat="43.33722" lon="-3.55615">
        <ele>199.3</ele>
        <time>2023-07-13T01:29:38.000+02:00</time>
      </trkpt>
      <trkpt lat="43.33708" lon="-3.55638">
        <ele>197</ele>
        <time>2023-07-13T01:29:42.000+02:00</time>
      </trkpt>
      <trkpt lat="43.33704" lon="-3.55646">
        <ele>196.5</ele>
        <time>2023-07-13T01:29:43.000+02:00</time>
      </trkpt>
      <trkpt lat="43.33699" lon="-3.55658">
        <ele>196</ele>
        <time>2023-07-13T01:29:44.000+02:00</time>
      </trkpt>
      <trkpt lat="43.33698" lon="-3.55664">
        <ele>196</ele>
        <time>2023-07-13T01:29:45.000+02:00</time>
      </trkpt>
      <trkpt lat="43.33695" lon="-3.55682">
        <ele>197</ele>
        <time>2023-07-13T01:29:47.000+02:00</time>
      </trkpt>
      <trkpt lat="43.33694" lon="-3.55693">
        <ele>198</ele>
        <time>2023-07-13T01:29:48.000+02:00</time>
      </trkpt>
      <trkpt lat="43.3369" lon="-3.55774">
        <ele>205</ele>
        <time>2023-07-13T01:29:57.000+02:00</time>
      </trkpt>
      <trkpt lat="43.33688" lon="-3.55795">
        <ele>206.3</ele>
        <time>2023-07-13T01:30:00.000+02:00</time>
      </trkpt>
      <trkpt lat="43.33687" lon="-3.55804">
        <ele>206.5</ele>
        <time>2023-07-13T01:30:01.000+02:00</time>
      </trkpt>
      <trkpt lat="43.33681" lon="-3.55823">
        <ele>206.3</ele>
        <time>2023-07-13T01:30:03.000+02:00</time>
      </trkpt>
      <trkpt lat="43.33678" lon="-3.55833">
        <ele>205.5</ele>
        <time>2023-07-13T01:30:04.000+02:00</time>
      </trkpt>
      <trkpt lat="43.33665" lon="-3.5586">
        <ele>203.5</ele>
        <time>2023-07-13T01:30:08.000+02:00</time>
      </trkpt>
      <trkpt lat="43.33662" lon="-3.55868">
        <ele>203</ele>
        <time>2023-07-13T01:30:09.000+02:00</time>
      </trkpt>
      <trkpt lat="43.3366" lon="-3.55877">
        <ele>203</ele>
        <time>2023-07-13T01:30:10.000+02:00</time>
      </trkpt>
      <trkpt lat="43.33658" lon="-3.55889">
        <ele>203.5</ele>
        <time>2023-07-13T01:30:11.000+02:00</time>
      </trkpt>
      <trkpt lat="43.3365" lon="-3.5596">
        <ele>209.5</ele>
        <time>2023-07-13T01:30:19.000+02:00</time>
      </trkpt>
      <trkpt lat="43.33648" lon="-3.55976">
        <ele>210.5</ele>
        <time>2023-07-13T01:30:21.000+02:00</time>
      </trkpt>
      <trkpt lat="43.33639" lon="-3.5603">
        <ele>210.5</ele>
        <time>2023-07-13T01:30:27.000+02:00</time>
      </trkpt>
      <trkpt lat="43.33638" lon="-3.56043">
        <ele>210.5</ele>
        <time>2023-07-13T01:30:29.000+02:00</time>
      </trkpt>
      <trkpt lat="43.33636" lon="-3.56066">
        <ele>211.3</ele>
        <time>2023-07-13T01:30:31.000+02:00</time>
      </trkpt>
      <trkpt lat="43.33637" lon="-3.56084">
        <ele>213</ele>
        <time>2023-07-13T01:30:33.000+02:00</time>
      </trkpt>
      <trkpt lat="43.3365" lon="-3.56197">
        <ele>223.8</ele>
        <time>2023-07-13T01:30:46.000+02:00</time>
      </trkpt>
      <trkpt lat="43.33657" lon="-3.56246">
        <ele>228.8</ele>
        <time>2023-07-13T01:30:51.000+02:00</time>
      </trkpt>
      <trkpt lat="43.33661" lon="-3.56272">
        <ele>232</ele>
        <time>2023-07-13T01:30:54.000+02:00</time>
      </trkpt>
      <trkpt lat="43.33663" lon="-3.56279">
        <ele>232.8</ele>
        <time>2023-07-13T01:30:55.000+02:00</time>
      </trkpt>
      <trkpt lat="43.33668" lon="-3.5629">
        <ele>234.5</ele>
        <time>2023-07-13T01:30:57.000+02:00</time>
      </trkpt>
      <trkpt lat="43.33673" lon="-3.563">
        <ele>237.5</ele>
        <time>2023-07-13T01:30:58.000+02:00</time>
      </trkpt>
      <trkpt lat="43.33701" lon="-3.56349">
        <ele>252.8</ele>
        <time>2023-07-13T01:31:05.000+02:00</time>
      </trkpt>
      <trkpt lat="43.33703" lon="-3.56354">
        <ele>254.3</ele>
        <time>2023-07-13T01:31:06.000+02:00</time>
      </trkpt>
      <trkpt lat="43.33704" lon="-3.56359">
        <ele>255</ele>
        <time>2023-07-13T01:31:07.000+02:00</time>
      </trkpt>
      <trkpt lat="43.33705" lon="-3.5637">
        <ele>256</ele>
        <time>2023-07-13T01:31:08.000+02:00</time>
      </trkpt>
      <trkpt lat="43.33704" lon="-3.56381">
        <ele>256.8</ele>
        <time>2023-07-13T01:31:10.000+02:00</time>
      </trkpt>
      <trkpt lat="43.33699" lon="-3.564">
        <ele>257</ele>
        <time>2023-07-13T01:31:12.000+02:00</time>
      </trkpt>
      <trkpt lat="43.33691" lon="-3.56423">
        <ele>256.8</ele>
        <time>2023-07-13T01:31:15.000+02:00</time>
      </trkpt>
      <trkpt lat="43.33683" lon="-3.56442">
        <ele>256.5</ele>
        <time>2023-07-13T01:31:17.000+02:00</time>
      </trkpt>
      <trkpt lat="43.33675" lon="-3.56456">
        <ele>256</ele>
        <time>2023-07-13T01:31:19.000+02:00</time>
      </trkpt>
      <trkpt lat="43.33665" lon="-3.56472">
        <ele>256.3</ele>
        <time>2023-07-13T01:31:21.000+02:00</time>
      </trkpt>
      <trkpt lat="43.33658" lon="-3.56478">
        <ele>258</ele>
        <time>2023-07-13T01:31:23.000+02:00</time>
      </trkpt>
      <trkpt lat="43.33653" lon="-3.56479">
        <ele>258.8</ele>
        <time>2023-07-13T01:31:23.000+02:00</time>
      </trkpt>
      <trkpt lat="43.33648" lon="-3.56479">
        <ele>259.8</ele>
        <time>2023-07-13T01:31:24.000+02:00</time>
      </trkpt>
      <trkpt lat="43.33644" lon="-3.56478">
        <ele>260</ele>
        <time>2023-07-13T01:31:25.000+02:00</time>
      </trkpt>
      <trkpt lat="43.33638" lon="-3.56474">
        <ele>260.3</ele>
        <time>2023-07-13T01:31:26.000+02:00</time>
      </trkpt>
      <trkpt lat="43.33622" lon="-3.56457">
        <ele>260.5</ele>
        <time>2023-07-13T01:31:29.000+02:00</time>
      </trkpt>
      <trkpt lat="43.33615" lon="-3.5645">
        <ele>260.5</ele>
        <time>2023-07-13T01:31:30.000+02:00</time>
      </trkpt>
      <trkpt lat="43.33613" lon="-3.56446">
        <ele>260.3</ele>
        <time>2023-07-13T01:31:31.000+02:00</time>
      </trkpt>
      <trkpt lat="43.3361" lon="-3.5644">
        <ele>260</ele>
        <time>2023-07-13T01:31:32.000+02:00</time>
      </trkpt>
      <trkpt lat="43.33607" lon="-3.56434">
        <ele>259.5</ele>
        <time>2023-07-13T01:31:33.000+02:00</time>
      </trkpt>
      <trkpt lat="43.33602" lon="-3.56402">
        <ele>255.5</ele>
        <time>2023-07-13T01:31:37.000+02:00</time>
      </trkpt>
      <trkpt lat="43.33597" lon="-3.56385">
        <ele>253</ele>
        <time>2023-07-13T01:31:39.000+02:00</time>
      </trkpt>
      <trkpt lat="43.33594" lon="-3.56377">
        <ele>252</ele>
        <time>2023-07-13T01:31:40.000+02:00</time>
      </trkpt>
      <trkpt lat="43.3359" lon="-3.56369">
        <ele>251</ele>
        <time>2023-07-13T01:31:41.000+02:00</time>
      </trkpt>
      <trkpt lat="43.33586" lon="-3.56363">
        <ele>250.3</ele>
        <time>2023-07-13T01:31:42.000+02:00</time>
      </trkpt>
      <trkpt lat="43.33581" lon="-3.56358">
        <ele>249.5</ele>
        <time>2023-07-13T01:31:43.000+02:00</time>
      </trkpt>
      <trkpt lat="43.33574" lon="-3.56352">
        <ele>248.5</ele>
        <time>2023-07-13T01:31:44.000+02:00</time>
      </trkpt>
      <trkpt lat="43.33568" lon="-3.56349">
        <ele>247.8</ele>
        <time>2023-07-13T01:31:45.000+02:00</time>
      </trkpt>
      <trkpt lat="43.3356" lon="-3.56348">
        <ele>247.3</ele>
        <time>2023-07-13T01:31:46.000+02:00</time>
      </trkpt>
      <trkpt lat="43.33551" lon="-3.5635">
        <ele>247.5</ele>
        <time>2023-07-13T01:31:48.000+02:00</time>
      </trkpt>
      <trkpt lat="43.33547" lon="-3.56352">
        <ele>248</ele>
        <time>2023-07-13T01:31:49.000+02:00</time>
      </trkpt>
      <trkpt lat="43.3353" lon="-3.56363">
        <ele>250.8</ele>
        <time>2023-07-13T01:31:51.000+02:00</time>
      </trkpt>
      <trkpt lat="43.33507" lon="-3.5638">
        <ele>255.8</ele>
        <time>2023-07-13T01:31:55.000+02:00</time>
      </trkpt>
      <trkpt lat="43.33499" lon="-3.56386">
        <ele>257.8</ele>
        <time>2023-07-13T01:31:57.000+02:00</time>
      </trkpt>
      <trkpt lat="43.3349" lon="-3.56395">
        <ele>260.3</ele>
        <time>2023-07-13T01:31:59.000+02:00</time>
      </trkpt>
      <trkpt lat="43.33466" lon="-3.5643">
        <ele>267.3</ele>
        <time>2023-07-13T01:32:04.000+02:00</time>
      </trkpt>
      <trkpt lat="43.33458" lon="-3.56437">
        <ele>268.3</ele>
        <time>2023-07-13T01:32:05.000+02:00</time>
      </trkpt>
      <trkpt lat="43.3345" lon="-3.5644">
        <ele>268.5</ele>
        <time>2023-07-13T01:32:06.000+02:00</time>
      </trkpt>
      <trkpt lat="43.33438" lon="-3.56442">
        <ele>268.8</ele>
        <time>2023-07-13T01:32:08.000+02:00</time>
      </trkpt>
      <trkpt lat="43.33432" lon="-3.56442">
        <ele>268.8</ele>
        <time>2023-07-13T01:32:09.000+02:00</time>
      </trkpt>
      <trkpt lat="43.33422" lon="-3.56438">
        <ele>268</ele>
        <time>2023-07-13T01:32:11.000+02:00</time>
      </trkpt>
      <trkpt lat="43.33417" lon="-3.56435">
        <ele>267.5</ele>
        <time>2023-07-13T01:32:12.000+02:00</time>
      </trkpt>
      <trkpt lat="43.334" lon="-3.56421">
        <ele>269.3</ele>
        <time>2023-07-13T01:32:15.000+02:00</time>
      </trkpt>
      <trkpt lat="43.33392" lon="-3.56416">
        <ele>270.5</ele>
        <time>2023-07-13T01:32:16.000+02:00</time>
      </trkpt>
      <trkpt lat="43.33388" lon="-3.56414">
        <ele>271</ele>
        <time>2023-07-13T01:32:17.000+02:00</time>
      </trkpt>
      <trkpt lat="43.33384" lon="-3.56413">
        <ele>271.8</ele>
        <time>2023-07-13T01:32:18.000+02:00</time>
      </trkpt>
      <trkpt lat="43.33366" lon="-3.56411">
        <ele>276.5</ele>
        <time>2023-07-13T01:32:21.000+02:00</time>
      </trkpt>
      <trkpt lat="43.33357" lon="-3.56407">
        <ele>278</ele>
        <time>2023-07-13T01:32:22.000+02:00</time>
      </trkpt>
      <trkpt lat="43.33349" lon="-3.56401">
        <ele>278.5</ele>
        <time>2023-07-13T01:32:24.000+02:00</time>
      </trkpt>
      <trkpt lat="43.33335" lon="-3.56386">
        <ele>278.3</ele>
        <time>2023-07-13T01:32:27.000+02:00</time>
      </trkpt>
      <trkpt lat="43.33328" lon="-3.56381">
        <ele>278.5</ele>
        <time>2023-07-13T01:32:28.000+02:00</time>
      </trkpt>
      <trkpt lat="43.33308" lon="-3.56375">
        <ele>281</ele>
        <time>2023-07-13T01:32:31.000+02:00</time>
      </trkpt>
      <trkpt lat="43.33299" lon="-3.56374">
        <ele>282.8</ele>
        <time>2023-07-13T01:32:32.000+02:00</time>
      </trkpt>
      <trkpt lat="43.33286" lon="-3.56374">
        <ele>285.3</ele>
        <time>2023-07-13T01:32:34.000+02:00</time>
      </trkpt>
      <trkpt lat="43.3328" lon="-3.56373">
        <ele>286.3</ele>
        <time>2023-07-13T01:32:35.000+02:00</time>
      </trkpt>
      <trkpt lat="43.33277" lon="-3.56371">
        <ele>286.3</ele>
        <time>2023-07-13T01:32:36.000+02:00</time>
      </trkpt>
      <trkpt lat="43.33272" lon="-3.56364">
        <ele>286</ele>
        <time>2023-07-13T01:32:37.000+02:00</time>
      </trkpt>
      <trkpt lat="43.33263" lon="-3.56346">
        <ele>283.8</ele>
        <time>2023-07-13T01:32:39.000+02:00</time>
      </trkpt>
      <trkpt lat="43.33259" lon="-3.5634">
        <ele>283.3</ele>
        <time>2023-07-13T01:32:40.000+02:00</time>
      </trkpt>
      <trkpt lat="43.33253" lon="-3.56332">
        <ele>283</ele>
        <time>2023-07-13T01:32:42.000+02:00</time>
      </trkpt>
      <trkpt lat="43.33248" lon="-3.56329">
        <ele>283.3</ele>
        <time>2023-07-13T01:32:43.000+02:00</time>
      </trkpt>
      <trkpt lat="43.33239" lon="-3.56325">
        <ele>284.3</ele>
        <time>2023-07-13T01:32:45.000+02:00</time>
      </trkpt>
      <trkpt lat="43.33235" lon="-3.56324">
        <ele>284.8</ele>
        <time>2023-07-13T01:32:45.000+02:00</time>
      </trkpt>
      <trkpt lat="43.33209" lon="-3.56324">
        <ele>289.5</ele>
        <time>2023-07-13T01:32:49.000+02:00</time>
      </trkpt>
      <trkpt lat="43.33201" lon="-3.56321">
        <ele>290.5</ele>
        <time>2023-07-13T01:32:51.000+02:00</time>
      </trkpt>
      <trkpt lat="43.33191" lon="-3.56314">
        <ele>291</ele>
        <time>2023-07-13T01:32:52.000+02:00</time>
      </trkpt>
      <trkpt lat="43.33186" lon="-3.56309">
        <ele>290.8</ele>
        <time>2023-07-13T01:32:53.000+02:00</time>
      </trkpt>
      <trkpt lat="43.33165" lon="-3.56283">
        <ele>290.3</ele>
        <time>2023-07-13T01:32:58.000+02:00</time>
      </trkpt>
      <trkpt lat="43.3316" lon="-3.56277">
        <ele>290.5</ele>
        <time>2023-07-13T01:32:59.000+02:00</time>
      </trkpt>
      <trkpt lat="43.33155" lon="-3.56274">
        <ele>291.3</ele>
        <time>2023-07-13T01:33:00.000+02:00</time>
      </trkpt>
      <trkpt lat="43.33152" lon="-3.56273">
        <ele>292</ele>
        <time>2023-07-13T01:33:01.000+02:00</time>
      </trkpt>
      <trkpt lat="43.33149" lon="-3.56274">
        <ele>293</ele>
        <time>2023-07-13T01:33:02.000+02:00</time>
      </trkpt>
      <trkpt lat="43.33144" lon="-3.56276">
        <ele>294.8</ele>
        <time>2023-07-13T01:33:03.000+02:00</time>
      </trkpt>
      <trkpt lat="43.3314" lon="-3.56282">
        <ele>296.8</ele>
        <time>2023-07-13T01:33:04.000+02:00</time>
      </trkpt>
      <trkpt lat="43.3314" lon="-3.5629">
        <ele>298.8</ele>
        <time>2023-07-13T01:33:05.000+02:00</time>
      </trkpt>
      <trkpt lat="43.33141" lon="-3.56299">
        <ele>300.3</ele>
        <time>2023-07-13T01:33:06.000+02:00</time>
      </trkpt>
      <trkpt lat="43.33143" lon="-3.56306">
        <ele>301</ele>
        <time>2023-07-13T01:33:07.000+02:00</time>
      </trkpt>
      <trkpt lat="43.33152" lon="-3.56335">
        <ele>303.8</ele>
        <time>2023-07-13T01:33:10.000+02:00</time>
      </trkpt>
      <trkpt lat="43.33158" lon="-3.56351">
        <ele>304</ele>
        <time>2023-07-13T01:33:12.000+02:00</time>
      </trkpt>
      <trkpt lat="43.33162" lon="-3.56359">
        <ele>304</ele>
        <time>2023-07-13T01:33:13.000+02:00</time>
      </trkpt>
      <trkpt lat="43.33165" lon="-3.56364">
        <ele>303.8</ele>
        <time>2023-07-13T01:33:14.000+02:00</time>
      </trkpt>
      <trkpt lat="43.33169" lon="-3.56368">
        <ele>303.5</ele>
        <time>2023-07-13T01:33:15.000+02:00</time>
      </trkpt>
      <trkpt lat="43.33177" lon="-3.56374">
        <ele>303.3</ele>
        <time>2023-07-13T01:33:16.000+02:00</time>
      </trkpt>
      <trkpt lat="43.33182" lon="-3.56376">
        <ele>302.8</ele>
        <time>2023-07-13T01:33:17.000+02:00</time>
      </trkpt>
      <trkpt lat="43.33203" lon="-3.56382">
        <ele>300.8</ele>
        <time>2023-07-13T01:33:20.000+02:00</time>
      </trkpt>
      <trkpt lat="43.3321" lon="-3.56385">
        <ele>300.5</ele>
        <time>2023-07-13T01:33:21.000+02:00</time>
      </trkpt>
      <trkpt lat="43.33222" lon="-3.56394">
        <ele>300.5</ele>
        <time>2023-07-13T01:33:24.000+02:00</time>
      </trkpt>
      <trkpt lat="43.33229" lon="-3.56401">
        <ele>301</ele>
        <time>2023-07-13T01:33:25.000+02:00</time>
      </trkpt>
      <trkpt lat="43.33235" lon="-3.5641">
        <ele>302.3</ele>
        <time>2023-07-13T01:33:26.000+02:00</time>
      </trkpt>
      <trkpt lat="43.33259" lon="-3.56463">
        <ele>307.3</ele>
        <time>2023-07-13T01:33:33.000+02:00</time>
      </trkpt>
      <trkpt lat="43.33266" lon="-3.56473">
        <ele>308</ele>
        <time>2023-07-13T01:33:35.000+02:00</time>
      </trkpt>
      <trkpt lat="43.33326" lon="-3.56548">
        <ele>316</ele>
        <time>2023-07-13T01:33:47.000+02:00</time>
      </trkpt>
      <trkpt lat="43.33329" lon="-3.56556">
        <ele>317.5</ele>
        <time>2023-07-13T01:33:48.000+02:00</time>
      </trkpt>
      <trkpt lat="43.33335" lon="-3.56575">
        <ele>320.8</ele>
        <time>2023-07-13T01:33:50.000+02:00</time>
      </trkpt>
      <trkpt lat="43.33337" lon="-3.56579">
        <ele>321.3</ele>
        <time>2023-07-13T01:33:51.000+02:00</time>
      </trkpt>
      <trkpt lat="43.3334" lon="-3.56584">
        <ele>321.5</ele>
        <time>2023-07-13T01:33:52.000+02:00</time>
      </trkpt>
      <trkpt lat="43.33347" lon="-3.56592">
        <ele>322.3</ele>
        <time>2023-07-13T01:33:53.000+02:00</time>
      </trkpt>
      <trkpt lat="43.33364" lon="-3.56605">
        <ele>322</ele>
        <time>2023-07-13T01:33:56.000+02:00</time>
      </trkpt>
      <trkpt lat="43.33372" lon="-3.56613">
        <ele>322.5</ele>
        <time>2023-07-13T01:33:58.000+02:00</time>
      </trkpt>
      <trkpt lat="43.33376" lon="-3.56617">
        <ele>323</ele>
        <time>2023-07-13T01:33:58.000+02:00</time>
      </trkpt>
      <trkpt lat="43.33379" lon="-3.56623">
        <ele>324.3</ele>
        <time>2023-07-13T01:33:59.000+02:00</time>
      </trkpt>
      <trkpt lat="43.33388" lon="-3.56646">
        <ele>329.3</ele>
        <time>2023-07-13T01:34:02.000+02:00</time>
      </trkpt>
      <trkpt lat="43.33393" lon="-3.56653">
        <ele>330.3</ele>
        <time>2023-07-13T01:34:03.000+02:00</time>
      </trkpt>
      <trkpt lat="43.33398" lon="-3.56658">
        <ele>331</ele>
        <time>2023-07-13T01:34:04.000+02:00</time>
      </trkpt>
      <trkpt lat="43.33412" lon="-3.56668">
        <ele>331.3</ele>
        <time>2023-07-13T01:34:06.000+02:00</time>
      </trkpt>
      <trkpt lat="43.33418" lon="-3.56675">
        <ele>332.3</ele>
        <time>2023-07-13T01:34:08.000+02:00</time>
      </trkpt>
      <trkpt lat="43.33423" lon="-3.56684">
        <ele>334</ele>
        <time>2023-07-13T01:34:09.000+02:00</time>
      </trkpt>
      <trkpt lat="43.33428" lon="-3.56708">
        <ele>340.3</ele>
        <time>2023-07-13T01:34:12.000+02:00</time>
      </trkpt>
      <trkpt lat="43.3343" lon="-3.56713">
        <ele>341.5</ele>
        <time>2023-07-13T01:34:13.000+02:00</time>
      </trkpt>
      <trkpt lat="43.33433" lon="-3.56718">
        <ele>342.3</ele>
        <time>2023-07-13T01:34:14.000+02:00</time>
      </trkpt>
      <trkpt lat="43.33439" lon="-3.56725">
        <ele>343.3</ele>
        <time>2023-07-13T01:34:15.000+02:00</time>
      </trkpt>
      <trkpt lat="43.33449" lon="-3.56734">
        <ele>344</ele>
        <time>2023-07-13T01:34:17.000+02:00</time>
      </trkpt>
      <trkpt lat="43.33459" lon="-3.56743">
        <ele>345</ele>
        <time>2023-07-13T01:34:19.000+02:00</time>
      </trkpt>
      <trkpt lat="43.33466" lon="-3.56752">
        <ele>346.5</ele>
        <time>2023-07-13T01:34:20.000+02:00</time>
      </trkpt>
      <trkpt lat="43.33483" lon="-3.56775">
        <ele>350.3</ele>
        <time>2023-07-13T01:34:24.000+02:00</time>
      </trkpt>
      <trkpt lat="43.33493" lon="-3.56786">
        <ele>351.5</ele>
        <time>2023-07-13T01:34:26.000+02:00</time>
      </trkpt>
      <trkpt lat="43.33502" lon="-3.56792">
        <ele>351.8</ele>
        <time>2023-07-13T01:34:27.000+02:00</time>
      </trkpt>
      <trkpt lat="43.33509" lon="-3.56795">
        <ele>351.5</ele>
        <time>2023-07-13T01:34:29.000+02:00</time>
      </trkpt>
      <trkpt lat="43.33519" lon="-3.56796">
        <ele>350.5</ele>
        <time>2023-07-13T01:34:30.000+02:00</time>
      </trkpt>
      <trkpt lat="43.33523" lon="-3.56794">
        <ele>349.3</ele>
        <time>2023-07-13T01:34:31.000+02:00</time>
      </trkpt>
      <trkpt lat="43.3353" lon="-3.56789">
        <ele>347</ele>
        <time>2023-07-13T01:34:32.000+02:00</time>
      </trkpt>
      <trkpt lat="43.3354" lon="-3.56775">
        <ele>342.5</ele>
        <time>2023-07-13T01:34:34.000+02:00</time>
      </trkpt>
      <trkpt lat="43.33545" lon="-3.5677">
        <ele>340.8</ele>
        <time>2023-07-13T01:34:35.000+02:00</time>
      </trkpt>
      <trkpt lat="43.33548" lon="-3.56769">
        <ele>340.3</ele>
        <time>2023-07-13T01:34:35.000+02:00</time>
      </trkpt>
      <trkpt lat="43.33554" lon="-3.56769">
        <ele>339.8</ele>
        <time>2023-07-13T01:34:36.000+02:00</time>
      </trkpt>
      <trkpt lat="43.33559" lon="-3.56772">
        <ele>339.8</ele>
        <time>2023-07-13T01:34:37.000+02:00</time>
      </trkpt>
      <trkpt lat="43.33561" lon="-3.56774">
        <ele>340</ele>
        <time>2023-07-13T01:34:38.000+02:00</time>
      </trkpt>
      <trkpt lat="43.33564" lon="-3.5678">
        <ele>340.8</ele>
        <time>2023-07-13T01:34:39.000+02:00</time>
      </trkpt>
      <trkpt lat="43.33568" lon="-3.56791">
        <ele>342.5</ele>
        <time>2023-07-13T01:34:41.000+02:00</time>
      </trkpt>
      <trkpt lat="43.33571" lon="-3.56817">
        <ele>346.5</ele>
        <time>2023-07-13T01:34:44.000+02:00</time>
      </trkpt>
      <trkpt lat="43.33572" lon="-3.5683">
        <ele>348.8</ele>
        <time>2023-07-13T01:34:45.000+02:00</time>
      </trkpt>
      <trkpt lat="43.33572" lon="-3.56886">
        <ele>361.3</ele>
        <time>2023-07-13T01:34:51.000+02:00</time>
      </trkpt>
      <trkpt lat="43.33574" lon="-3.56896">
        <ele>363</ele>
        <time>2023-07-13T01:34:52.000+02:00</time>
      </trkpt>
      <trkpt lat="43.33576" lon="-3.56904">
        <ele>364.3</ele>
        <time>2023-07-13T01:34:53.000+02:00</time>
      </trkpt>
      <trkpt lat="43.33591" lon="-3.56943">
        <ele>371.3</ele>
        <time>2023-07-13T01:34:58.000+02:00</time>
      </trkpt>
      <trkpt lat="43.33596" lon="-3.5695">
        <ele>372.5</ele>
        <time>2023-07-13T01:34:59.000+02:00</time>
      </trkpt>
      <trkpt lat="43.33601" lon="-3.56953">
        <ele>373</ele>
        <time>2023-07-13T01:35:00.000+02:00</time>
      </trkpt>
      <trkpt lat="43.33606" lon="-3.56955">
        <ele>373</ele>
        <time>2023-07-13T01:35:01.000+02:00</time>
      </trkpt>
      <trkpt lat="43.3361" lon="-3.56955">
        <ele>372.8</ele>
        <time>2023-07-13T01:35:02.000+02:00</time>
      </trkpt>
      <trkpt lat="43.3362" lon="-3.56952">
        <ele>371</ele>
        <time>2023-07-13T01:35:03.000+02:00</time>
      </trkpt>
      <trkpt lat="43.33646" lon="-3.56942">
        <ele>366.3</ele>
        <time>2023-07-13T01:35:07.000+02:00</time>
      </trkpt>
      <trkpt lat="43.33656" lon="-3.56939">
        <ele>364.8</ele>
        <time>2023-07-13T01:35:09.000+02:00</time>
      </trkpt>
      <trkpt lat="43.33669" lon="-3.56938">
        <ele>364</ele>
        <time>2023-07-13T01:35:11.000+02:00</time>
      </trkpt>
      <trkpt lat="43.33675" lon="-3.56939">
        <ele>365</ele>
        <time>2023-07-13T01:35:12.000+02:00</time>
      </trkpt>
      <trkpt lat="43.33689" lon="-3.56943">
        <ele>367.8</ele>
        <time>2023-07-13T01:35:14.000+02:00</time>
      </trkpt>
      <trkpt lat="43.33698" lon="-3.56944">
        <ele>369.3</ele>
        <time>2023-07-13T01:35:15.000+02:00</time>
      </trkpt>
      <trkpt lat="43.33703" lon="-3.56944">
        <ele>370</ele>
        <time>2023-07-13T01:35:16.000+02:00</time>
      </trkpt>
      <trkpt lat="43.3372" lon="-3.5694">
        <ele>371.5</ele>
        <time>2023-07-13T01:35:19.000+02:00</time>
      </trkpt>
      <trkpt lat="43.33731" lon="-3.56936">
        <ele>372</ele>
        <time>2023-07-13T01:35:21.000+02:00</time>
      </trkpt>
      <trkpt lat="43.33757" lon="-3.56925">
        <ele>373.8</ele>
        <time>2023-07-13T01:35:25.000+02:00</time>
      </trkpt>
      <trkpt lat="43.33762" lon="-3.56925">
        <ele>375</ele>
        <time>2023-07-13T01:35:26.000+02:00</time>
      </trkpt>
      <trkpt lat="43.33766" lon="-3.56929">
        <ele>377.3</ele>
        <time>2023-07-13T01:35:27.000+02:00</time>
      </trkpt>
      <trkpt lat="43.33768" lon="-3.56933">
        <ele>378.5</ele>
        <time>2023-07-13T01:35:28.000+02:00</time>
      </trkpt>
      <trkpt lat="43.33768" lon="-3.56937">
        <ele>379.8</ele>
        <time>2023-07-13T01:35:29.000+02:00</time>
      </trkpt>
      <trkpt lat="43.33767" lon="-3.56942">
        <ele>380.8</ele>
        <time>2023-07-13T01:35:30.000+02:00</time>
      </trkpt>
      <trkpt lat="43.33766" lon="-3.56944">
        <ele>381</ele>
        <time>2023-07-13T01:35:30.000+02:00</time>
      </trkpt>
      <trkpt lat="43.33759" lon="-3.56951">
        <ele>380.8</ele>
        <time>2023-07-13T01:35:31.000+02:00</time>
      </trkpt>
      <trkpt lat="43.33744" lon="-3.56961">
        <ele>379.5</ele>
        <time>2023-07-13T01:35:34.000+02:00</time>
      </trkpt>
      <trkpt lat="43.33732" lon="-3.56972">
        <ele>380.5</ele>
        <time>2023-07-13T01:35:36.000+02:00</time>
      </trkpt>
      <trkpt lat="43.33719" lon="-3.56987">
        <ele>382.5</ele>
        <time>2023-07-13T01:35:39.000+02:00</time>
      </trkpt>
      <trkpt lat="43.33697" lon="-3.57021">
        <ele>388</ele>
        <time>2023-07-13T01:35:44.000+02:00</time>
      </trkpt>
      <trkpt lat="43.33694" lon="-3.57024">
        <ele>388.5</ele>
        <time>2023-07-13T01:35:44.000+02:00</time>
      </trkpt>
      <trkpt lat="43.33689" lon="-3.57028">
        <ele>389</ele>
        <time>2023-07-13T01:35:45.000+02:00</time>
      </trkpt>
      <trkpt lat="43.33665" lon="-3.5704">
        <ele>389.5</ele>
        <time>2023-07-13T01:35:49.000+02:00</time>
      </trkpt>
      <trkpt lat="43.33658" lon="-3.57042">
        <ele>390.8</ele>
        <time>2023-07-13T01:35:50.000+02:00</time>
      </trkpt>
      <trkpt lat="43.33651" lon="-3.57043">
        <ele>391.3</ele>
        <time>2023-07-13T01:35:51.000+02:00</time>
      </trkpt>
      <trkpt lat="43.33641" lon="-3.5704">
        <ele>391.3</ele>
        <time>2023-07-13T01:35:53.000+02:00</time>
      </trkpt>
      <trkpt lat="43.33634" lon="-3.57039">
        <ele>391.5</ele>
        <time>2023-07-13T01:35:54.000+02:00</time>
      </trkpt>
      <trkpt lat="43.33628" lon="-3.5704">
        <ele>392.5</ele>
        <time>2023-07-13T01:35:55.000+02:00</time>
      </trkpt>
      <trkpt lat="43.33615" lon="-3.57046">
        <ele>395</ele>
        <time>2023-07-13T01:35:57.000+02:00</time>
      </trkpt>
      <trkpt lat="43.3361" lon="-3.57047">
        <ele>395.5</ele>
        <time>2023-07-13T01:35:58.000+02:00</time>
      </trkpt>
      <trkpt lat="43.33606" lon="-3.57047">
        <ele>396</ele>
        <time>2023-07-13T01:35:59.000+02:00</time>
      </trkpt>
      <trkpt lat="43.33597" lon="-3.57044">
        <ele>396</ele>
        <time>2023-07-13T01:36:01.000+02:00</time>
      </trkpt>
      <trkpt lat="43.33592" lon="-3.57042">
        <ele>395.8</ele>
        <time>2023-07-13T01:36:02.000+02:00</time>
      </trkpt>
      <trkpt lat="43.33582" lon="-3.57034">
        <ele>395</ele>
        <time>2023-07-13T01:36:04.000+02:00</time>
      </trkpt>
      <trkpt lat="43.33568" lon="-3.57021">
        <ele>394.5</ele>
        <time>2023-07-13T01:36:07.000+02:00</time>
      </trkpt>
      <trkpt lat="43.33561" lon="-3.57018">
        <ele>395</ele>
        <time>2023-07-13T01:36:08.000+02:00</time>
      </trkpt>
      <trkpt lat="43.33558" lon="-3.57018">
        <ele>395.8</ele>
        <time>2023-07-13T01:36:08.000+02:00</time>
      </trkpt>
      <trkpt lat="43.33551" lon="-3.57019">
        <ele>397.3</ele>
        <time>2023-07-13T01:36:09.000+02:00</time>
      </trkpt>
      <trkpt lat="43.33548" lon="-3.57022">
        <ele>398.3</ele>
        <time>2023-07-13T01:36:10.000+02:00</time>
      </trkpt>
      <trkpt lat="43.33539" lon="-3.57033">
        <ele>402</ele>
        <time>2023-07-13T01:36:12.000+02:00</time>
      </trkpt>
      <trkpt lat="43.33535" lon="-3.57038">
        <ele>403.5</ele>
        <time>2023-07-13T01:36:13.000+02:00</time>
      </trkpt>
      <trkpt lat="43.33533" lon="-3.57043">
        <ele>404.8</ele>
        <time>2023-07-13T01:36:14.000+02:00</time>
      </trkpt>
      <trkpt lat="43.33532" lon="-3.57048">
        <ele>405.8</ele>
        <time>2023-07-13T01:36:15.000+02:00</time>
      </trkpt>
      <trkpt lat="43.33534" lon="-3.57054">
        <ele>406.5</ele>
        <time>2023-07-13T01:36:16.000+02:00</time>
      </trkpt>
      <trkpt lat="43.33537" lon="-3.57059">
        <ele>407</ele>
        <time>2023-07-13T01:36:17.000+02:00</time>
      </trkpt>
      <trkpt lat="43.33541" lon="-3.57061">
        <ele>406.8</ele>
        <time>2023-07-13T01:36:18.000+02:00</time>
      </trkpt>
      <trkpt lat="43.33544" lon="-3.57061">
        <ele>406.5</ele>
        <time>2023-07-13T01:36:18.000+02:00</time>
      </trkpt>
      <trkpt lat="43.33547" lon="-3.5706">
        <ele>405.8</ele>
        <time>2023-07-13T01:36:19.000+02:00</time>
      </trkpt>
      <trkpt lat="43.33558" lon="-3.57052">
        <ele>402.8</ele>
        <time>2023-07-13T01:36:21.000+02:00</time>
      </trkpt>
      <trkpt lat="43.33563" lon="-3.57049">
        <ele>401</ele>
        <time>2023-07-13T01:36:22.000+02:00</time>
      </trkpt>
      <trkpt lat="43.33569" lon="-3.57049">
        <ele>400.3</ele>
        <time>2023-07-13T01:36:23.000+02:00</time>
      </trkpt>
      <trkpt lat="43.33576" lon="-3.57052">
        <ele>400</ele>
        <time>2023-07-13T01:36:24.000+02:00</time>
      </trkpt>
      <trkpt lat="43.33588" lon="-3.57061">
        <ele>400.5</ele>
        <time>2023-07-13T01:36:26.000+02:00</time>
      </trkpt>
      <trkpt lat="43.33593" lon="-3.57064">
        <ele>400.8</ele>
        <time>2023-07-13T01:36:27.000+02:00</time>
      </trkpt>
      <trkpt lat="43.33602" lon="-3.57067">
        <ele>401.3</ele>
        <time>2023-07-13T01:36:28.000+02:00</time>
      </trkpt>
      <trkpt lat="43.33622" lon="-3.57074">
        <ele>401.5</ele>
        <time>2023-07-13T01:36:31.000+02:00</time>
      </trkpt>
      <trkpt lat="43.33629" lon="-3.57077">
        <ele>402</ele>
        <time>2023-07-13T01:36:32.000+02:00</time>
      </trkpt>
      <trkpt lat="43.33634" lon="-3.57082">
        <ele>403</ele>
        <time>2023-07-13T01:36:33.000+02:00</time>
      </trkpt>
      <trkpt lat="43.33643" lon="-3.57092">
        <ele>403.3</ele>
        <time>2023-07-13T01:36:35.000+02:00</time>
      </trkpt>
      <trkpt lat="43.3365" lon="-3.57106">
        <ele>403.3</ele>
        <time>2023-07-13T01:36:37.000+02:00</time>
      </trkpt>
      <trkpt lat="43.33662" lon="-3.5713">
        <ele>403.3</ele>
        <time>2023-07-13T01:36:40.000+02:00</time>
      </trkpt>
      <trkpt lat="43.33668" lon="-3.57143">
        <ele>403.5</ele>
        <time>2023-07-13T01:36:42.000+02:00</time>
      </trkpt>
      <trkpt lat="43.33675" lon="-3.57157">
        <ele>404.5</ele>
        <time>2023-07-13T01:36:44.000+02:00</time>
      </trkpt>
      <trkpt lat="43.33683" lon="-3.5717">
        <ele>405</ele>
        <time>2023-07-13T01:36:46.000+02:00</time>
      </trkpt>
      <trkpt lat="43.33691" lon="-3.5718">
        <ele>404.3</ele>
        <time>2023-07-13T01:36:47.000+02:00</time>
      </trkpt>
      <trkpt lat="43.33701" lon="-3.57188">
        <ele>403.5</ele>
        <time>2023-07-13T01:36:49.000+02:00</time>
      </trkpt>
      <trkpt lat="43.33717" lon="-3.572">
        <ele>402.8</ele>
        <time>2023-07-13T01:36:52.000+02:00</time>
      </trkpt>
      <trkpt lat="43.33725" lon="-3.57204">
        <ele>402.5</ele>
        <time>2023-07-13T01:36:53.000+02:00</time>
      </trkpt>
      <trkpt lat="43.33745" lon="-3.57213">
        <ele>401.8</ele>
        <time>2023-07-13T01:36:56.000+02:00</time>
      </trkpt>
      <trkpt lat="43.33753" lon="-3.57218">
        <ele>402.3</ele>
        <time>2023-07-13T01:36:58.000+02:00</time>
      </trkpt>
      <trkpt lat="43.33762" lon="-3.57225">
        <ele>403.8</ele>
        <time>2023-07-13T01:36:59.000+02:00</time>
      </trkpt>
      <trkpt lat="43.33773" lon="-3.57237">
        <ele>405</ele>
        <time>2023-07-13T01:37:01.000+02:00</time>
      </trkpt>
      <trkpt lat="43.33782" lon="-3.5725">
        <ele>405.5</ele>
        <time>2023-07-13T01:37:03.000+02:00</time>
      </trkpt>
      <trkpt lat="43.33791" lon="-3.57263">
        <ele>405.3</ele>
        <time>2023-07-13T01:37:05.000+02:00</time>
      </trkpt>
      <trkpt lat="43.338" lon="-3.57282">
        <ele>404.3</ele>
        <time>2023-07-13T01:37:08.000+02:00</time>
      </trkpt>
      <trkpt lat="43.33816" lon="-3.57323">
        <ele>401.8</ele>
        <time>2023-07-13T01:37:13.000+02:00</time>
      </trkpt>
      <trkpt lat="43.33822" lon="-3.57335">
        <ele>401.5</ele>
        <time>2023-07-13T01:37:15.000+02:00</time>
      </trkpt>
      <trkpt lat="43.33834" lon="-3.57359">
        <ele>401.3</ele>
        <time>2023-07-13T01:37:18.000+02:00</time>
      </trkpt>
      <trkpt lat="43.33842" lon="-3.57372">
        <ele>400</ele>
        <time>2023-07-13T01:37:20.000+02:00</time>
      </trkpt>
      <trkpt lat="43.33851" lon="-3.57385">
        <ele>399.3</ele>
        <time>2023-07-13T01:37:22.000+02:00</time>
      </trkpt>
      <trkpt lat="43.33867" lon="-3.57403">
        <ele>398.5</ele>
        <time>2023-07-13T01:37:25.000+02:00</time>
      </trkpt>
      <trkpt lat="43.33875" lon="-3.57408">
        <ele>398.5</ele>
        <time>2023-07-13T01:37:26.000+02:00</time>
      </trkpt>
      <trkpt lat="43.33887" lon="-3.57415">
        <ele>399</ele>
        <time>2023-07-13T01:37:28.000+02:00</time>
      </trkpt>
      <trkpt lat="43.33896" lon="-3.57419">
        <ele>399.8</ele>
        <time>2023-07-13T01:37:30.000+02:00</time>
      </trkpt>
      <trkpt lat="43.33904" lon="-3.57421">
        <ele>400.8</ele>
        <time>2023-07-13T01:37:31.000+02:00</time>
      </trkpt>
      <trkpt lat="43.33912" lon="-3.57421">
        <ele>402.3</ele>
        <time>2023-07-13T01:37:32.000+02:00</time>
      </trkpt>
      <trkpt lat="43.33977" lon="-3.57419">
        <ele>412.3</ele>
        <time>2023-07-13T01:37:42.000+02:00</time>
      </trkpt>
      <trkpt lat="43.33985" lon="-3.5742">
        <ele>412.8</ele>
        <time>2023-07-13T01:37:43.000+02:00</time>
      </trkpt>
      <trkpt lat="43.33993" lon="-3.57423">
        <ele>412.8</ele>
        <time>2023-07-13T01:37:45.000+02:00</time>
      </trkpt>
      <trkpt lat="43.34" lon="-3.57428">
        <ele>412.5</ele>
        <time>2023-07-13T01:37:46.000+02:00</time>
      </trkpt>
      <trkpt lat="43.34017" lon="-3.57441">
        <ele>413.8</ele>
        <time>2023-07-13T01:37:49.000+02:00</time>
      </trkpt>
      <trkpt lat="43.34035" lon="-3.57458">
        <ele>415.5</ele>
        <time>2023-07-13T01:37:52.000+02:00</time>
      </trkpt>
      <trkpt lat="43.34048" lon="-3.57474">
        <ele>416.8</ele>
        <time>2023-07-13T01:37:55.000+02:00</time>
      </trkpt>
      <trkpt lat="43.34053" lon="-3.57482">
        <ele>417</ele>
        <time>2023-07-13T01:37:56.000+02:00</time>
      </trkpt>
      <trkpt lat="43.34055" lon="-3.57487">
        <ele>417</ele>
        <time>2023-07-13T01:37:57.000+02:00</time>
      </trkpt>
      <trkpt lat="43.3406" lon="-3.57505">
        <ele>416</ele>
        <time>2023-07-13T01:37:59.000+02:00</time>
      </trkpt>
      <trkpt lat="43.34071" lon="-3.57562">
        <ele>417</ele>
        <time>2023-07-13T01:38:05.000+02:00</time>
      </trkpt>
      <trkpt lat="43.34076" lon="-3.57592">
        <ele>418.5</ele>
        <time>2023-07-13T01:38:09.000+02:00</time>
      </trkpt>
      <trkpt lat="43.34078" lon="-3.57608">
        <ele>419.8</ele>
        <time>2023-07-13T01:38:11.000+02:00</time>
      </trkpt>
      <trkpt lat="43.34078" lon="-3.57647">
        <ele>421</ele>
        <time>2023-07-13T01:38:15.000+02:00</time>
      </trkpt>
      <trkpt lat="43.34075" lon="-3.577">
        <ele>421.3</ele>
        <time>2023-07-13T01:38:21.000+02:00</time>
      </trkpt>
      <trkpt lat="43.34074" lon="-3.57724">
        <ele>422</ele>
        <time>2023-07-13T01:38:23.000+02:00</time>
      </trkpt>
      <trkpt lat="43.34078" lon="-3.57794">
        <ele>425.8</ele>
        <time>2023-07-13T01:38:31.000+02:00</time>
      </trkpt>
      <trkpt lat="43.34078" lon="-3.57811">
        <ele>426</ele>
        <time>2023-07-13T01:38:33.000+02:00</time>
      </trkpt>
      <trkpt lat="43.34078" lon="-3.57826">
        <ele>426</ele>
        <time>2023-07-13T01:38:35.000+02:00</time>
      </trkpt>
      <trkpt lat="43.34075" lon="-3.57899">
        <ele>429</ele>
        <time>2023-07-13T01:38:43.000+02:00</time>
      </trkpt>
      <trkpt lat="43.34069" lon="-3.57947">
        <ele>430.5</ele>
        <time>2023-07-13T01:38:48.000+02:00</time>
      </trkpt>
      <trkpt lat="43.34058" lon="-3.57994">
        <ele>430.8</ele>
        <time>2023-07-13T01:38:54.000+02:00</time>
      </trkpt>
      <trkpt lat="43.34041" lon="-3.58067">
        <ele>432</ele>
        <time>2023-07-13T01:39:02.000+02:00</time>
      </trkpt>
      <trkpt lat="43.34038" lon="-3.5808">
        <ele>432.8</ele>
        <time>2023-07-13T01:39:04.000+02:00</time>
      </trkpt>
      <trkpt lat="43.34038" lon="-3.58084">
        <ele>432.8</ele>
        <time>2023-07-13T01:39:05.000+02:00</time>
      </trkpt>
      <trkpt lat="43.34037" lon="-3.58093">
        <ele>433</ele>
        <time>2023-07-13T01:39:06.000+02:00</time>
      </trkpt>
      <trkpt lat="43.34036" lon="-3.5812">
        <ele>433.8</ele>
        <time>2023-07-13T01:39:09.000+02:00</time>
      </trkpt>
      <trkpt lat="43.34036" lon="-3.58135">
        <ele>434.8</ele>
        <time>2023-07-13T01:39:11.000+02:00</time>
      </trkpt>
      <trkpt lat="43.3404" lon="-3.58197">
        <ele>438.5</ele>
        <time>2023-07-13T01:39:18.000+02:00</time>
      </trkpt>
      <trkpt lat="43.34042" lon="-3.58209">
        <ele>439.3</ele>
        <time>2023-07-13T01:39:19.000+02:00</time>
      </trkpt>
      <trkpt lat="43.34046" lon="-3.5822">
        <ele>440.5</ele>
        <time>2023-07-13T01:39:21.000+02:00</time>
      </trkpt>
      <trkpt lat="43.34032" lon="-3.58234">
        <ele>439.8</ele>
        <time>2023-07-13T01:39:23.000+02:00</time>
      </trkpt>
      <trkpt lat="43.34024" lon="-3.58245">
        <ele>440</ele>
        <time>2023-07-13T01:39:25.000+02:00</time>
      </trkpt>
      <trkpt lat="43.34012" lon="-3.5826">
        <ele>440.3</ele>
        <time>2023-07-13T01:39:27.000+02:00</time>
      </trkpt>
      <trkpt lat="43.33991" lon="-3.58293">
        <ele>438.8</ele>
        <time>2023-07-13T01:39:32.000+02:00</time>
      </trkpt>
      <trkpt lat="43.33976" lon="-3.58315">
        <ele>435</ele>
        <time>2023-07-13T01:39:36.000+02:00</time>
      </trkpt>
      <trkpt lat="43.33958" lon="-3.58355">
        <ele>431.5</ele>
        <time>2023-07-13T01:39:41.000+02:00</time>
      </trkpt>
      <trkpt lat="43.33952" lon="-3.58372">
        <ele>431</ele>
        <time>2023-07-13T01:39:43.000+02:00</time>
      </trkpt>
      <trkpt lat="43.3394" lon="-3.58402">
        <ele>429.5</ele>
        <time>2023-07-13T01:39:47.000+02:00</time>
      </trkpt>
      <trkpt lat="43.33887" lon="-3.58513">
        <ele>424.3</ele>
        <time>2023-07-13T01:40:01.000+02:00</time>
      </trkpt>
      <trkpt lat="43.33858" lon="-3.58571">
        <ele>424.5</ele>
        <time>2023-07-13T01:40:09.000+02:00</time>
      </trkpt>
      <trkpt lat="43.33845" lon="-3.58591">
        <ele>424.3</ele>
        <time>2023-07-13T01:40:12.000+02:00</time>
      </trkpt>
      <trkpt lat="43.33838" lon="-3.58597">
        <ele>423.5</ele>
        <time>2023-07-13T01:40:14.000+02:00</time>
      </trkpt>
      <trkpt lat="43.33814" lon="-3.58613">
        <ele>419.5</ele>
        <time>2023-07-13T01:40:18.000+02:00</time>
      </trkpt>
      <trkpt lat="43.33796" lon="-3.58623">
        <ele>416</ele>
        <time>2023-07-13T01:40:20.000+02:00</time>
      </trkpt>
      <trkpt lat="43.33773" lon="-3.58643">
        <ele>413.3</ele>
        <time>2023-07-13T01:40:25.000+02:00</time>
      </trkpt>
      <trkpt lat="43.33767" lon="-3.5865">
        <ele>413</ele>
        <time>2023-07-13T01:40:26.000+02:00</time>
      </trkpt>
      <trkpt lat="43.33758" lon="-3.58658">
        <ele>412.3</ele>
        <time>2023-07-13T01:40:28.000+02:00</time>
      </trkpt>
      <trkpt lat="43.3374" lon="-3.58684">
        <ele>408.8</ele>
        <time>2023-07-13T01:40:32.000+02:00</time>
      </trkpt>
      <trkpt lat="43.33725" lon="-3.58714">
        <ele>404.8</ele>
        <time>2023-07-13T01:40:36.000+02:00</time>
      </trkpt>
      <trkpt lat="43.33714" lon="-3.58739">
        <ele>403</ele>
        <time>2023-07-13T01:40:39.000+02:00</time>
      </trkpt>
      <trkpt lat="43.33708" lon="-3.58763">
        <ele>401.8</ele>
        <time>2023-07-13T01:40:42.000+02:00</time>
      </trkpt>
      <trkpt lat="43.33697" lon="-3.5882">
        <ele>398.5</ele>
        <time>2023-07-13T01:40:48.000+02:00</time>
      </trkpt>
      <trkpt lat="43.33695" lon="-3.58845">
        <ele>397.3</ele>
        <time>2023-07-13T01:40:51.000+02:00</time>
      </trkpt>
      <trkpt lat="43.33697" lon="-3.58874">
        <ele>396.3</ele>
        <time>2023-07-13T01:40:54.000+02:00</time>
      </trkpt>
      <trkpt lat="43.33702" lon="-3.58902">
        <ele>396.8</ele>
        <time>2023-07-13T01:40:57.000+02:00</time>
      </trkpt>
      <trkpt lat="43.33722" lon="-3.58987">
        <ele>398</ele>
        <time>2023-07-13T01:41:07.000+02:00</time>
      </trkpt>
      <trkpt lat="43.33725" lon="-3.59004">
        <ele>397.5</ele>
        <time>2023-07-13T01:41:09.000+02:00</time>
      </trkpt>
      <trkpt lat="43.33725" lon="-3.5903">
        <ele>396.5</ele>
        <time>2023-07-13T01:41:12.000+02:00</time>
      </trkpt>
      <trkpt lat="43.33723" lon="-3.5908">
        <ele>393.3</ele>
        <time>2023-07-13T01:41:18.000+02:00</time>
      </trkpt>
      <trkpt lat="43.33723" lon="-3.59102">
        <ele>394.3</ele>
        <time>2023-07-13T01:41:20.000+02:00</time>
      </trkpt>
      <trkpt lat="43.33719" lon="-3.5912">
        <ele>394</ele>
        <time>2023-07-13T01:41:22.000+02:00</time>
      </trkpt>
      <trkpt lat="43.33714" lon="-3.59132">
        <ele>392.8</ele>
        <time>2023-07-13T01:41:24.000+02:00</time>
      </trkpt>
      <trkpt lat="43.33673" lon="-3.59183">
        <ele>382.3</ele>
        <time>2023-07-13T01:41:32.000+02:00</time>
      </trkpt>
      <trkpt lat="43.3363" lon="-3.5925">
        <ele>378.5</ele>
        <time>2023-07-13T01:41:42.000+02:00</time>
      </trkpt>
      <trkpt lat="43.33592" lon="-3.59301">
        <ele>380</ele>
        <time>2023-07-13T01:41:50.000+02:00</time>
      </trkpt>
      <trkpt lat="43.33579" lon="-3.59329">
        <ele>384.3</ele>
        <time>2023-07-13T01:41:54.000+02:00</time>
      </trkpt>
      <trkpt lat="43.3357" lon="-3.59339">
        <ele>384.5</ele>
        <time>2023-07-13T01:41:56.000+02:00</time>
      </trkpt>
      <trkpt lat="43.3356" lon="-3.59344">
        <ele>382.8</ele>
        <time>2023-07-13T01:41:57.000+02:00</time>
      </trkpt>
      <trkpt lat="43.3354" lon="-3.59344">
        <ele>376.5</ele>
        <time>2023-07-13T01:42:00.000+02:00</time>
      </trkpt>
      <trkpt lat="43.33528" lon="-3.59336">
        <ele>371</ele>
        <time>2023-07-13T01:42:02.000+02:00</time>
      </trkpt>
      <trkpt lat="43.33515" lon="-3.59332">
        <ele>366</ele>
        <time>2023-07-13T01:42:04.000+02:00</time>
      </trkpt>
      <trkpt lat="43.33504" lon="-3.59335">
        <ele>363.5</ele>
        <time>2023-07-13T01:42:06.000+02:00</time>
      </trkpt>
      <trkpt lat="43.33495" lon="-3.59341">
        <ele>362.3</ele>
        <time>2023-07-13T01:42:08.000+02:00</time>
      </trkpt>
      <trkpt lat="43.33485" lon="-3.59353">
        <ele>362</ele>
        <time>2023-07-13T01:42:10.000+02:00</time>
      </trkpt>
      <trkpt lat="43.33469" lon="-3.59382">
        <ele>363.8</ele>
        <time>2023-07-13T01:42:14.000+02:00</time>
      </trkpt>
      <trkpt lat="43.33448" lon="-3.59411">
        <ele>363</ele>
        <time>2023-07-13T01:42:18.000+02:00</time>
      </trkpt>
      <trkpt lat="43.33424" lon="-3.59422">
        <ele>356.3</ele>
        <time>2023-07-13T01:42:22.000+02:00</time>
      </trkpt>
      <trkpt lat="43.33413" lon="-3.59433">
        <ele>353.5</ele>
        <time>2023-07-13T01:42:24.000+02:00</time>
      </trkpt>
      <trkpt lat="43.334" lon="-3.59455">
        <ele>351.3</ele>
        <time>2023-07-13T01:42:27.000+02:00</time>
      </trkpt>
      <trkpt lat="43.33389" lon="-3.59491">
        <ele>351.3</ele>
        <time>2023-07-13T01:42:32.000+02:00</time>
      </trkpt>
      <trkpt lat="43.33379" lon="-3.59531">
        <ele>349.8</ele>
        <time>2023-07-13T01:42:36.000+02:00</time>
      </trkpt>
      <trkpt lat="43.33369" lon="-3.5958">
        <ele>347.8</ele>
        <time>2023-07-13T01:42:42.000+02:00</time>
      </trkpt>
      <trkpt lat="43.33358" lon="-3.59632">
        <ele>344.5</ele>
        <time>2023-07-13T01:42:48.000+02:00</time>
      </trkpt>
      <trkpt lat="43.33356" lon="-3.59662">
        <ele>345</ele>
        <time>2023-07-13T01:42:52.000+02:00</time>
      </trkpt>
      <trkpt lat="43.33356" lon="-3.597">
        <ele>346.3</ele>
        <time>2023-07-13T01:42:56.000+02:00</time>
      </trkpt>
      <trkpt lat="43.33355" lon="-3.59714">
        <ele>346.5</ele>
        <time>2023-07-13T01:42:57.000+02:00</time>
      </trkpt>
      <trkpt lat="43.33346" lon="-3.59733">
        <ele>343</ele>
        <time>2023-07-13T01:43:00.000+02:00</time>
      </trkpt>
      <trkpt lat="43.33339" lon="-3.5974">
        <ele>339.5</ele>
        <time>2023-07-13T01:43:01.000+02:00</time>
      </trkpt>
      <trkpt lat="43.33335" lon="-3.59749">
        <ele>337.8</ele>
        <time>2023-07-13T01:43:02.000+02:00</time>
      </trkpt>
      <trkpt lat="43.33329" lon="-3.59766">
        <ele>335</ele>
        <time>2023-07-13T01:43:04.000+02:00</time>
      </trkpt>
      <trkpt lat="43.33329" lon="-3.59796">
        <ele>334.5</ele>
        <time>2023-07-13T01:43:08.000+02:00</time>
      </trkpt>
      <trkpt lat="43.3333" lon="-3.59849">
        <ele>335.8</ele>
        <time>2023-07-13T01:43:14.000+02:00</time>
      </trkpt>
      <trkpt lat="43.33328" lon="-3.59865">
        <ele>336.5</ele>
        <time>2023-07-13T01:43:15.000+02:00</time>
      </trkpt>
      <trkpt lat="43.3332" lon="-3.59895">
        <ele>336</ele>
        <time>2023-07-13T01:43:19.000+02:00</time>
      </trkpt>
      <trkpt lat="43.33313" lon="-3.59906">
        <ele>334.5</ele>
        <time>2023-07-13T01:43:21.000+02:00</time>
      </trkpt>
      <trkpt lat="43.33303" lon="-3.59916">
        <ele>332</ele>
        <time>2023-07-13T01:43:22.000+02:00</time>
      </trkpt>
      <trkpt lat="43.33285" lon="-3.59926">
        <ele>327.5</ele>
        <time>2023-07-13T01:43:25.000+02:00</time>
      </trkpt>
      <trkpt lat="43.33271" lon="-3.59935">
        <ele>324.3</ele>
        <time>2023-07-13T01:43:28.000+02:00</time>
      </trkpt>
      <trkpt lat="43.33251" lon="-3.59957">
        <ele>320.8</ele>
        <time>2023-07-13T01:43:32.000+02:00</time>
      </trkpt>
      <trkpt lat="43.33217" lon="-3.60008">
        <ele>318.5</ele>
        <time>2023-07-13T01:43:39.000+02:00</time>
      </trkpt>
      <trkpt lat="43.33175" lon="-3.60073">
        <ele>310.8</ele>
        <time>2023-07-13T01:43:49.000+02:00</time>
      </trkpt>
      <trkpt lat="43.33171" lon="-3.60094">
        <ele>312</ele>
        <time>2023-07-13T01:43:51.000+02:00</time>
      </trkpt>
      <trkpt lat="43.33133" lon="-3.60193">
        <ele>312.8</ele>
        <time>2023-07-13T01:44:04.000+02:00</time>
      </trkpt>
      <trkpt lat="43.33128" lon="-3.60211">
        <ele>312.8</ele>
        <time>2023-07-13T01:44:06.000+02:00</time>
      </trkpt>
      <trkpt lat="43.33128" lon="-3.60223">
        <ele>313.8</ele>
        <time>2023-07-13T01:44:07.000+02:00</time>
      </trkpt>
      <trkpt lat="43.33134" lon="-3.60266">
        <ele>319.3</ele>
        <time>2023-07-13T01:44:12.000+02:00</time>
      </trkpt>
      <trkpt lat="43.33134" lon="-3.60283">
        <ele>320.3</ele>
        <time>2023-07-13T01:44:14.000+02:00</time>
      </trkpt>
      <trkpt lat="43.33131" lon="-3.60313">
        <ele>321</ele>
        <time>2023-07-13T01:44:18.000+02:00</time>
      </trkpt>
      <trkpt lat="43.33131" lon="-3.60335">
        <ele>322.5</ele>
        <time>2023-07-13T01:44:20.000+02:00</time>
      </trkpt>
      <trkpt lat="43.33136" lon="-3.60366">
        <ele>326.3</ele>
        <time>2023-07-13T01:44:24.000+02:00</time>
      </trkpt>
      <trkpt lat="43.33138" lon="-3.60384">
        <ele>328</ele>
        <time>2023-07-13T01:44:26.000+02:00</time>
      </trkpt>
      <trkpt lat="43.33141" lon="-3.60401">
        <ele>330</ele>
        <time>2023-07-13T01:44:27.000+02:00</time>
      </trkpt>
      <trkpt lat="43.33148" lon="-3.60418">
        <ele>332.8</ele>
        <time>2023-07-13T01:44:30.000+02:00</time>
      </trkpt>
      <trkpt lat="43.33153" lon="-3.60432">
        <ele>335.8</ele>
        <time>2023-07-13T01:44:31.000+02:00</time>
      </trkpt>
      <trkpt lat="43.33153" lon="-3.6044">
        <ele>336.8</ele>
        <time>2023-07-13T01:44:32.000+02:00</time>
      </trkpt>
      <trkpt lat="43.33149" lon="-3.60461">
        <ele>339</ele>
        <time>2023-07-13T01:44:35.000+02:00</time>
      </trkpt>
      <trkpt lat="43.33146" lon="-3.60476">
        <ele>340.5</ele>
        <time>2023-07-13T01:44:36.000+02:00</time>
      </trkpt>
      <trkpt lat="43.3314" lon="-3.60487">
        <ele>341</ele>
        <time>2023-07-13T01:44:38.000+02:00</time>
      </trkpt>
      <trkpt lat="43.33133" lon="-3.60491">
        <ele>340.5</ele>
        <time>2023-07-13T01:44:39.000+02:00</time>
      </trkpt>
      <trkpt lat="43.33114" lon="-3.60494">
        <ele>338.3</ele>
        <time>2023-07-13T01:44:42.000+02:00</time>
      </trkpt>
      <trkpt lat="43.3309" lon="-3.60507">
        <ele>337.8</ele>
        <time>2023-07-13T01:44:46.000+02:00</time>
      </trkpt>
      <trkpt lat="43.33081" lon="-3.60503">
        <ele>336</ele>
        <time>2023-07-13T01:44:47.000+02:00</time>
      </trkpt>
      <trkpt lat="43.33075" lon="-3.60493">
        <ele>334.3</ele>
        <time>2023-07-13T01:44:49.000+02:00</time>
      </trkpt>
      <trkpt lat="43.33066" lon="-3.60485">
        <ele>333.8</ele>
        <time>2023-07-13T01:44:50.000+02:00</time>
      </trkpt>
      <trkpt lat="43.33049" lon="-3.60486">
        <ele>335.8</ele>
        <time>2023-07-13T01:44:53.000+02:00</time>
      </trkpt>
      <trkpt lat="43.33036" lon="-3.60484">
        <ele>337</ele>
        <time>2023-07-13T01:44:55.000+02:00</time>
      </trkpt>
      <trkpt lat="43.33026" lon="-3.60482">
        <ele>337.8</ele>
        <time>2023-07-13T01:44:57.000+02:00</time>
      </trkpt>
      <trkpt lat="43.33018" lon="-3.6047">
        <ele>337</ele>
        <time>2023-07-13T01:44:58.000+02:00</time>
      </trkpt>
      <trkpt lat="43.33004" lon="-3.60445">
        <ele>335.8</ele>
        <time>2023-07-13T01:45:02.000+02:00</time>
      </trkpt>
      <trkpt lat="43.32995" lon="-3.60433">
        <ele>335.3</ele>
        <time>2023-07-13T01:45:04.000+02:00</time>
      </trkpt>
      <trkpt lat="43.32988" lon="-3.60431">
        <ele>335.3</ele>
        <time>2023-07-13T01:45:05.000+02:00</time>
      </trkpt>
      <trkpt lat="43.32978" lon="-3.60435">
        <ele>336.8</ele>
        <time>2023-07-13T01:45:06.000+02:00</time>
      </trkpt>
      <trkpt lat="43.32959" lon="-3.60449">
        <ele>340</ele>
        <time>2023-07-13T01:45:10.000+02:00</time>
      </trkpt>
      <trkpt lat="43.32918" lon="-3.60498">
        <ele>351.5</ele>
        <time>2023-07-13T01:45:18.000+02:00</time>
      </trkpt>
      <trkpt lat="43.3291" lon="-3.60504">
        <ele>353</ele>
        <time>2023-07-13T01:45:19.000+02:00</time>
      </trkpt>
      <trkpt lat="43.32894" lon="-3.60505">
        <ele>354.3</ele>
        <time>2023-07-13T01:45:22.000+02:00</time>
      </trkpt>
      <trkpt lat="43.32874" lon="-3.60499">
        <ele>354.3</ele>
        <time>2023-07-13T01:45:25.000+02:00</time>
      </trkpt>
      <trkpt lat="43.32867" lon="-3.60498">
        <ele>354.3</ele>
        <time>2023-07-13T01:45:26.000+02:00</time>
      </trkpt>
      <trkpt lat="43.3286" lon="-3.60497">
        <ele>354.5</ele>
        <time>2023-07-13T01:45:27.000+02:00</time>
      </trkpt>
      <trkpt lat="43.32837" lon="-3.60509">
        <ele>358.5</ele>
        <time>2023-07-13T01:45:31.000+02:00</time>
      </trkpt>
      <trkpt lat="43.32816" lon="-3.60521">
        <ele>362.3</ele>
        <time>2023-07-13T01:45:34.000+02:00</time>
      </trkpt>
      <trkpt lat="43.32805" lon="-3.60523">
        <ele>363.5</ele>
        <time>2023-07-13T01:45:36.000+02:00</time>
      </trkpt>
      <trkpt lat="43.32787" lon="-3.60516">
        <ele>363.3</ele>
        <time>2023-07-13T01:45:39.000+02:00</time>
      </trkpt>
      <trkpt lat="43.32774" lon="-3.60514">
        <ele>363.8</ele>
        <time>2023-07-13T01:45:41.000+02:00</time>
      </trkpt>
      <trkpt lat="43.32761" lon="-3.60523">
        <ele>366.8</ele>
        <time>2023-07-13T01:45:43.000+02:00</time>
      </trkpt>
      <trkpt lat="43.32751" lon="-3.60535">
        <ele>370.8</ele>
        <time>2023-07-13T01:45:45.000+02:00</time>
      </trkpt>
      <trkpt lat="43.32749" lon="-3.60547">
        <ele>373.8</ele>
        <time>2023-07-13T01:45:47.000+02:00</time>
      </trkpt>
      <trkpt lat="43.32748" lon="-3.6056">
        <ele>377.3</ele>
        <time>2023-07-13T01:45:48.000+02:00</time>
      </trkpt>
      <trkpt lat="43.32755" lon="-3.60584">
        <ele>382.5</ele>
        <time>2023-07-13T01:45:51.000+02:00</time>
      </trkpt>
      <trkpt lat="43.32766" lon="-3.60612">
        <ele>389</ele>
        <time>2023-07-13T01:45:54.000+02:00</time>
      </trkpt>
      <trkpt lat="43.3277" lon="-3.60619">
        <ele>390.5</ele>
        <time>2023-07-13T01:45:55.000+02:00</time>
      </trkpt>
      <trkpt lat="43.32781" lon="-3.60628">
        <ele>392.3</ele>
        <time>2023-07-13T01:45:57.000+02:00</time>
      </trkpt>
      <trkpt lat="43.32792" lon="-3.60635">
        <ele>393</ele>
        <time>2023-07-13T01:45:59.000+02:00</time>
      </trkpt>
      <trkpt lat="43.32807" lon="-3.60648">
        <ele>396</ele>
        <time>2023-07-13T01:46:02.000+02:00</time>
      </trkpt>
      <trkpt lat="43.32821" lon="-3.60684">
        <ele>405.3</ele>
        <time>2023-07-13T01:46:06.000+02:00</time>
      </trkpt>
      <trkpt lat="43.32842" lon="-3.60734">
        <ele>417</ele>
        <time>2023-07-13T01:46:13.000+02:00</time>
      </trkpt>
      <trkpt lat="43.32843" lon="-3.60744">
        <ele>419.5</ele>
        <time>2023-07-13T01:46:14.000+02:00</time>
      </trkpt>
      <trkpt lat="43.3284" lon="-3.60751">
        <ele>421.8</ele>
        <time>2023-07-13T01:46:15.000+02:00</time>
      </trkpt>
      <trkpt lat="43.32824" lon="-3.60752">
        <ele>422.8</ele>
        <time>2023-07-13T01:46:17.000+02:00</time>
      </trkpt>
      <trkpt lat="43.32802" lon="-3.60759">
        <ele>425.3</ele>
        <time>2023-07-13T01:46:21.000+02:00</time>
      </trkpt>
      <trkpt lat="43.32779" lon="-3.60771">
        <ele>429.3</ele>
        <time>2023-07-13T01:46:24.000+02:00</time>
      </trkpt>
      <trkpt lat="43.32752" lon="-3.60776">
        <ele>431</ele>
        <time>2023-07-13T01:46:29.000+02:00</time>
      </trkpt>
      <trkpt lat="43.32738" lon="-3.6078">
        <ele>433</ele>
        <time>2023-07-13T01:46:31.000+02:00</time>
      </trkpt>
      <trkpt lat="43.32691" lon="-3.60806">
        <ele>443.3</ele>
        <time>2023-07-13T01:46:39.000+02:00</time>
      </trkpt>
      <trkpt lat="43.32674" lon="-3.60809">
        <ele>445</ele>
        <time>2023-07-13T01:46:41.000+02:00</time>
      </trkpt>
      <trkpt lat="43.32659" lon="-3.60803">
        <ele>445.3</ele>
        <time>2023-07-13T01:46:44.000+02:00</time>
      </trkpt>
      <trkpt lat="43.32629" lon="-3.60789">
        <ele>447.5</ele>
        <time>2023-07-13T01:46:49.000+02:00</time>
      </trkpt>
      <trkpt lat="43.32621" lon="-3.60787">
        <ele>448.8</ele>
        <time>2023-07-13T01:46:50.000+02:00</time>
      </trkpt>
      <trkpt lat="43.32611" lon="-3.60788">
        <ele>451</ele>
        <time>2023-07-13T01:46:51.000+02:00</time>
      </trkpt>
      <trkpt lat="43.326" lon="-3.60796">
        <ele>454.5</ele>
        <time>2023-07-13T01:46:53.000+02:00</time>
      </trkpt>
      <trkpt lat="43.32578" lon="-3.60809">
        <ele>459.5</ele>
        <time>2023-07-13T01:46:57.000+02:00</time>
      </trkpt>
      <trkpt lat="43.32566" lon="-3.60818">
        <ele>460.8</ele>
        <time>2023-07-13T01:46:59.000+02:00</time>
      </trkpt>
      <trkpt lat="43.32559" lon="-3.60827">
        <ele>461.8</ele>
        <time>2023-07-13T01:47:00.000+02:00</time>
      </trkpt>
      <trkpt lat="43.32553" lon="-3.6084">
        <ele>462.3</ele>
        <time>2023-07-13T01:47:02.000+02:00</time>
      </trkpt>
      <trkpt lat="43.32553" lon="-3.60859">
        <ele>461.5</ele>
        <time>2023-07-13T01:47:04.000+02:00</time>
      </trkpt>
      <trkpt lat="43.32554" lon="-3.60924">
        <ele>459</ele>
        <time>2023-07-13T01:47:11.000+02:00</time>
      </trkpt>
      <trkpt lat="43.3255" lon="-3.61004">
        <ele>451.5</ele>
        <time>2023-07-13T01:47:20.000+02:00</time>
      </trkpt>
      <trkpt lat="43.3255" lon="-3.61057">
        <ele>446.3</ele>
        <time>2023-07-13T01:47:26.000+02:00</time>
      </trkpt>
      <trkpt lat="43.32552" lon="-3.61074">
        <ele>445</ele>
        <time>2023-07-13T01:47:28.000+02:00</time>
      </trkpt>
      <trkpt lat="43.32559" lon="-3.611">
        <ele>444</ele>
        <time>2023-07-13T01:47:31.000+02:00</time>
      </trkpt>
      <trkpt lat="43.32564" lon="-3.61128">
        <ele>441.3</ele>
        <time>2023-07-13T01:47:34.000+02:00</time>
      </trkpt>
      <trkpt lat="43.32572" lon="-3.61158">
        <ele>439</ele>
        <time>2023-07-13T01:47:38.000+02:00</time>
      </trkpt>
      <trkpt lat="43.32605" lon="-3.6122">
        <ele>438.8</ele>
        <time>2023-07-13T01:47:46.000+02:00</time>
      </trkpt>
      <trkpt lat="43.32639" lon="-3.61269">
        <ele>439.8</ele>
        <time>2023-07-13T01:47:54.000+02:00</time>
      </trkpt>
      <trkpt lat="43.3266" lon="-3.61297">
        <ele>440.3</ele>
        <time>2023-07-13T01:47:59.000+02:00</time>
      </trkpt>
      <trkpt lat="43.32675" lon="-3.61315">
        <ele>441</ele>
        <time>2023-07-13T01:48:01.000+02:00</time>
      </trkpt>
      <trkpt lat="43.32706" lon="-3.61373">
        <ele>436.5</ele>
        <time>2023-07-13T01:48:10.000+02:00</time>
      </trkpt>
      <trkpt lat="43.32731" lon="-3.61404">
        <ele>435.8</ele>
        <time>2023-07-13T01:48:15.000+02:00</time>
      </trkpt>
      <trkpt lat="43.3277" lon="-3.61436">
        <ele>435.8</ele>
        <time>2023-07-13T01:48:22.000+02:00</time>
      </trkpt>
      <trkpt lat="43.32796" lon="-3.61445">
        <ele>438.8</ele>
        <time>2023-07-13T01:48:26.000+02:00</time>
      </trkpt>
      <trkpt lat="43.32806" lon="-3.61451">
        <ele>438.8</ele>
        <time>2023-07-13T01:48:27.000+02:00</time>
      </trkpt>
      <trkpt lat="43.32828" lon="-3.61471">
        <ele>438.3</ele>
        <time>2023-07-13T01:48:31.000+02:00</time>
      </trkpt>
      <trkpt lat="43.3284" lon="-3.6148">
        <ele>439.3</ele>
        <time>2023-07-13T01:48:34.000+02:00</time>
      </trkpt>
      <trkpt lat="43.32852" lon="-3.61487">
        <ele>441.3</ele>
        <time>2023-07-13T01:48:36.000+02:00</time>
      </trkpt>
      <trkpt lat="43.32863" lon="-3.6149">
        <ele>443.8</ele>
        <time>2023-07-13T01:48:37.000+02:00</time>
      </trkpt>
      <trkpt lat="43.32869" lon="-3.61495">
        <ele>444.5</ele>
        <time>2023-07-13T01:48:38.000+02:00</time>
      </trkpt>
      <trkpt lat="43.32872" lon="-3.61501">
        <ele>444.5</ele>
        <time>2023-07-13T01:48:39.000+02:00</time>
      </trkpt>
      <trkpt lat="43.32873" lon="-3.61509">
        <ele>444.3</ele>
        <time>2023-07-13T01:48:40.000+02:00</time>
      </trkpt>
      <trkpt lat="43.32871" lon="-3.61524">
        <ele>442.8</ele>
        <time>2023-07-13T01:48:42.000+02:00</time>
      </trkpt>
      <trkpt lat="43.32869" lon="-3.61534">
        <ele>441.5</ele>
        <time>2023-07-13T01:48:43.000+02:00</time>
      </trkpt>
      <trkpt lat="43.32869" lon="-3.61538">
        <ele>441</ele>
        <time>2023-07-13T01:48:43.000+02:00</time>
      </trkpt>
      <trkpt lat="43.32853" lon="-3.61569">
        <ele>433.3</ele>
        <time>2023-07-13T01:48:47.000+02:00</time>
      </trkpt>
      <trkpt lat="43.32849" lon="-3.61587">
        <ele>430.3</ele>
        <time>2023-07-13T01:48:50.000+02:00</time>
      </trkpt>
      <trkpt lat="43.32837" lon="-3.61613">
        <ele>427.5</ele>
        <time>2023-07-13T01:48:53.000+02:00</time>
      </trkpt>
      <trkpt lat="43.32827" lon="-3.61621">
        <ele>425</ele>
        <time>2023-07-13T01:48:55.000+02:00</time>
      </trkpt>
      <trkpt lat="43.32814" lon="-3.61638">
        <ele>423.3</ele>
        <time>2023-07-13T01:48:58.000+02:00</time>
      </trkpt>
      <trkpt lat="43.32792" lon="-3.61666">
        <ele>421.5</ele>
        <time>2023-07-13T01:49:02.000+02:00</time>
      </trkpt>
      <trkpt lat="43.3278" lon="-3.61687">
        <ele>421.5</ele>
        <time>2023-07-13T01:49:05.000+02:00</time>
      </trkpt>
      <trkpt lat="43.32767" lon="-3.61708">
        <ele>420.8</ele>
        <time>2023-07-13T01:49:08.000+02:00</time>
      </trkpt>
      <trkpt lat="43.32764" lon="-3.61718">
        <ele>421</ele>
        <time>2023-07-13T01:49:09.000+02:00</time>
      </trkpt>
      <trkpt lat="43.32763" lon="-3.61737">
        <ele>422.8</ele>
        <time>2023-07-13T01:49:11.000+02:00</time>
      </trkpt>
      <trkpt lat="43.32763" lon="-3.61758">
        <ele>425.8</ele>
        <time>2023-07-13T01:49:14.000+02:00</time>
      </trkpt>
      <trkpt lat="43.32762" lon="-3.61781">
        <ele>429.8</ele>
        <time>2023-07-13T01:49:16.000+02:00</time>
      </trkpt>
      <trkpt lat="43.32754" lon="-3.61819">
        <ele>435</ele>
        <time>2023-07-13T01:49:21.000+02:00</time>
      </trkpt>
      <trkpt lat="43.32749" lon="-3.61832">
        <ele>436.5</ele>
        <time>2023-07-13T01:49:22.000+02:00</time>
      </trkpt>
      <trkpt lat="43.3274" lon="-3.61848">
        <ele>437.3</ele>
        <time>2023-07-13T01:49:25.000+02:00</time>
      </trkpt>
      <trkpt lat="43.32734" lon="-3.61857">
        <ele>437.5</ele>
        <time>2023-07-13T01:49:26.000+02:00</time>
      </trkpt>
      <trkpt lat="43.32727" lon="-3.6187">
        <ele>438.3</ele>
        <time>2023-07-13T01:49:28.000+02:00</time>
      </trkpt>
      <trkpt lat="43.32721" lon="-3.61879">
        <ele>438.8</ele>
        <time>2023-07-13T01:49:29.000+02:00</time>
      </trkpt>
      <trkpt lat="43.32699" lon="-3.61889">
        <ele>436.5</ele>
        <time>2023-07-13T01:49:33.000+02:00</time>
      </trkpt>
      <trkpt lat="43.32689" lon="-3.61897">
        <ele>436.3</ele>
        <time>2023-07-13T01:49:34.000+02:00</time>
      </trkpt>
      <trkpt lat="43.32682" lon="-3.61906">
        <ele>436.8</ele>
        <time>2023-07-13T01:49:36.000+02:00</time>
      </trkpt>
      <trkpt lat="43.32653" lon="-3.6194">
        <ele>440.3</ele>
        <time>2023-07-13T01:49:42.000+02:00</time>
      </trkpt>
      <trkpt lat="43.32642" lon="-3.61949">
        <ele>441</ele>
        <time>2023-07-13T01:49:44.000+02:00</time>
      </trkpt>
      <trkpt lat="43.32637" lon="-3.61953">
        <ele>441.3</ele>
        <time>2023-07-13T01:49:45.000+02:00</time>
      </trkpt>
      <trkpt lat="43.32618" lon="-3.61953">
        <ele>438.3</ele>
        <time>2023-07-13T01:49:47.000+02:00</time>
      </trkpt>
      <trkpt lat="43.32606" lon="-3.61951">
        <ele>435.8</ele>
        <time>2023-07-13T01:49:49.000+02:00</time>
      </trkpt>
      <trkpt lat="43.32601" lon="-3.61946">
        <ele>433.3</ele>
        <time>2023-07-13T01:49:50.000+02:00</time>
      </trkpt>
      <trkpt lat="43.32596" lon="-3.61943">
        <ele>431.5</ele>
        <time>2023-07-13T01:49:51.000+02:00</time>
      </trkpt>
      <trkpt lat="43.32588" lon="-3.61942">
        <ele>429.8</ele>
        <time>2023-07-13T01:49:52.000+02:00</time>
      </trkpt>
      <trkpt lat="43.3258" lon="-3.61946">
        <ele>429.8</ele>
        <time>2023-07-13T01:49:54.000+02:00</time>
      </trkpt>
      <trkpt lat="43.32568" lon="-3.61958">
        <ele>430.5</ele>
        <time>2023-07-13T01:49:56.000+02:00</time>
      </trkpt>
      <trkpt lat="43.32562" lon="-3.61968">
        <ele>432.3</ele>
        <time>2023-07-13T01:49:57.000+02:00</time>
      </trkpt>
      <trkpt lat="43.32553" lon="-3.61978">
        <ele>432.8</ele>
        <time>2023-07-13T01:49:59.000+02:00</time>
      </trkpt>
      <trkpt lat="43.32537" lon="-3.61992">
        <ele>432.3</ele>
        <time>2023-07-13T01:50:02.000+02:00</time>
      </trkpt>
      <trkpt lat="43.32522" lon="-3.62006">
        <ele>432</ele>
        <time>2023-07-13T01:50:05.000+02:00</time>
      </trkpt>
      <trkpt lat="43.32502" lon="-3.62029">
        <ele>432.3</ele>
        <time>2023-07-13T01:50:09.000+02:00</time>
      </trkpt>
      <trkpt lat="43.3249" lon="-3.62045">
        <ele>434.5</ele>
        <time>2023-07-13T01:50:11.000+02:00</time>
      </trkpt>
      <trkpt lat="43.32466" lon="-3.62063">
        <ele>435</ele>
        <time>2023-07-13T01:50:15.000+02:00</time>
      </trkpt>
      <trkpt lat="43.32427" lon="-3.62081">
        <ele>432.3</ele>
        <time>2023-07-13T01:50:22.000+02:00</time>
      </trkpt>
      <trkpt lat="43.32417" lon="-3.62094">
        <ele>434</ele>
        <time>2023-07-13T01:50:24.000+02:00</time>
      </trkpt>
      <trkpt lat="43.32406" lon="-3.62115">
        <ele>438.5</ele>
        <time>2023-07-13T01:50:27.000+02:00</time>
      </trkpt>
      <trkpt lat="43.32391" lon="-3.62125">
        <ele>439</ele>
        <time>2023-07-13T01:50:29.000+02:00</time>
      </trkpt>
      <trkpt lat="43.32362" lon="-3.62148">
        <ele>440.5</ele>
        <time>2023-07-13T01:50:34.000+02:00</time>
      </trkpt>
      <trkpt lat="43.32347" lon="-3.62162">
        <ele>441.3</ele>
        <time>2023-07-13T01:50:37.000+02:00</time>
      </trkpt>
      <trkpt lat="43.32334" lon="-3.62172">
        <ele>441.5</ele>
        <time>2023-07-13T01:50:39.000+02:00</time>
      </trkpt>
      <trkpt lat="43.32318" lon="-3.62184">
        <ele>444</ele>
        <time>2023-07-13T01:50:42.000+02:00</time>
      </trkpt>
      <trkpt lat="43.32307" lon="-3.6219">
        <ele>444.8</ele>
        <time>2023-07-13T01:50:44.000+02:00</time>
      </trkpt>
      <trkpt lat="43.32297" lon="-3.62197">
        <ele>446</ele>
        <time>2023-07-13T01:50:46.000+02:00</time>
      </trkpt>
      <trkpt lat="43.32284" lon="-3.62218">
        <ele>449</ele>
        <time>2023-07-13T01:50:49.000+02:00</time>
      </trkpt>
      <trkpt lat="43.32275" lon="-3.62236">
        <ele>451</ele>
        <time>2023-07-13T01:50:51.000+02:00</time>
      </trkpt>
      <trkpt lat="43.3227" lon="-3.6225">
        <ele>452.8</ele>
        <time>2023-07-13T01:50:53.000+02:00</time>
      </trkpt>
      <trkpt lat="43.32268" lon="-3.62275">
        <ele>454.8</ele>
        <time>2023-07-13T01:50:56.000+02:00</time>
      </trkpt>
      <trkpt lat="43.32267" lon="-3.6231">
        <ele>457.8</ele>
        <time>2023-07-13T01:51:00.000+02:00</time>
      </trkpt>
      <trkpt lat="43.32265" lon="-3.62354">
        <ele>461.8</ele>
        <time>2023-07-13T01:51:05.000+02:00</time>
      </trkpt>
      <trkpt lat="43.3226" lon="-3.62366">
        <ele>462.8</ele>
        <time>2023-07-13T01:51:06.000+02:00</time>
      </trkpt>
      <trkpt lat="43.32253" lon="-3.62377">
        <ele>463.5</ele>
        <time>2023-07-13T01:51:08.000+02:00</time>
      </trkpt>
      <trkpt lat="43.32242" lon="-3.62386">
        <ele>463.3</ele>
        <time>2023-07-13T01:51:10.000+02:00</time>
      </trkpt>
      <trkpt lat="43.32232" lon="-3.62389">
        <ele>462.5</ele>
        <time>2023-07-13T01:51:11.000+02:00</time>
      </trkpt>
      <trkpt lat="43.32219" lon="-3.62395">
        <ele>461.5</ele>
        <time>2023-07-13T01:51:13.000+02:00</time>
      </trkpt>
      <trkpt lat="43.32206" lon="-3.62397">
        <ele>460.3</ele>
        <time>2023-07-13T01:51:15.000+02:00</time>
      </trkpt>
      <trkpt lat="43.32196" lon="-3.62404">
        <ele>459.5</ele>
        <time>2023-07-13T01:51:17.000+02:00</time>
      </trkpt>
      <trkpt lat="43.32192" lon="-3.62416">
        <ele>460.5</ele>
        <time>2023-07-13T01:51:18.000+02:00</time>
      </trkpt>
      <trkpt lat="43.32182" lon="-3.62457">
        <ele>464.5</ele>
        <time>2023-07-13T01:51:23.000+02:00</time>
      </trkpt>
      <trkpt lat="43.32174" lon="-3.62468">
        <ele>464.8</ele>
        <time>2023-07-13T01:51:25.000+02:00</time>
      </trkpt>
      <trkpt lat="43.32152" lon="-3.62504">
        <ele>463.3</ele>
        <time>2023-07-13T01:51:30.000+02:00</time>
      </trkpt>
      <trkpt lat="43.32136" lon="-3.62537">
        <ele>460</ele>
        <time>2023-07-13T01:51:35.000+02:00</time>
      </trkpt>
      <trkpt lat="43.32129" lon="-3.62562">
        <ele>459.5</ele>
        <time>2023-07-13T01:51:38.000+02:00</time>
      </trkpt>
      <trkpt lat="43.32125" lon="-3.62572">
        <ele>459.3</ele>
        <time>2023-07-13T01:51:39.000+02:00</time>
      </trkpt>
      <trkpt lat="43.32119" lon="-3.62581">
        <ele>458.3</ele>
        <time>2023-07-13T01:51:40.000+02:00</time>
      </trkpt>
      <trkpt lat="43.32116" lon="-3.62593">
        <ele>459</ele>
        <time>2023-07-13T01:51:42.000+02:00</time>
      </trkpt>
      <trkpt lat="43.32115" lon="-3.62606">
        <ele>460.5</ele>
        <time>2023-07-13T01:51:43.000+02:00</time>
      </trkpt>
      <trkpt lat="43.32116" lon="-3.62617">
        <ele>462.3</ele>
        <time>2023-07-13T01:51:44.000+02:00</time>
      </trkpt>
      <trkpt lat="43.32117" lon="-3.62629">
        <ele>464</ele>
        <time>2023-07-13T01:51:46.000+02:00</time>
      </trkpt>
      <trkpt lat="43.32115" lon="-3.62635">
        <ele>464.5</ele>
        <time>2023-07-13T01:51:47.000+02:00</time>
      </trkpt>
      <trkpt lat="43.32105" lon="-3.62647">
        <ele>463.8</ele>
        <time>2023-07-13T01:51:49.000+02:00</time>
      </trkpt>
      <trkpt lat="43.32094" lon="-3.62664">
        <ele>463</ele>
        <time>2023-07-13T01:51:52.000+02:00</time>
      </trkpt>
      <trkpt lat="43.32085" lon="-3.62674">
        <ele>463</ele>
        <time>2023-07-13T01:51:54.000+02:00</time>
      </trkpt>
      <trkpt lat="43.32077" lon="-3.62686">
        <ele>464</ele>
        <time>2023-07-13T01:51:56.000+02:00</time>
      </trkpt>
      <trkpt lat="43.32063" lon="-3.62712">
        <ele>467</ele>
        <time>2023-07-13T01:51:59.000+02:00</time>
      </trkpt>
      <trkpt lat="43.32062" lon="-3.6272">
        <ele>468.8</ele>
        <time>2023-07-13T01:52:00.000+02:00</time>
      </trkpt>
      <trkpt lat="43.32059" lon="-3.62728">
        <ele>470.3</ele>
        <time>2023-07-13T01:52:01.000+02:00</time>
      </trkpt>
      <trkpt lat="43.32055" lon="-3.62734">
        <ele>471</ele>
        <time>2023-07-13T01:52:02.000+02:00</time>
      </trkpt>
      <trkpt lat="43.32048" lon="-3.62739">
        <ele>470.8</ele>
        <time>2023-07-13T01:52:03.000+02:00</time>
      </trkpt>
      <trkpt lat="43.32031" lon="-3.62743">
        <ele>468.8</ele>
        <time>2023-07-13T01:52:06.000+02:00</time>
      </trkpt>
      <trkpt lat="43.32025" lon="-3.6275">
        <ele>469.5</ele>
        <time>2023-07-13T01:52:07.000+02:00</time>
      </trkpt>
      <trkpt lat="43.32018" lon="-3.62758">
        <ele>470.5</ele>
        <time>2023-07-13T01:52:08.000+02:00</time>
      </trkpt>
      <trkpt lat="43.32009" lon="-3.62763">
        <ele>470.8</ele>
        <time>2023-07-13T01:52:10.000+02:00</time>
      </trkpt>
      <trkpt lat="43.32" lon="-3.62762">
        <ele>469.3</ele>
        <time>2023-07-13T01:52:11.000+02:00</time>
      </trkpt>
      <trkpt lat="43.31988" lon="-3.62757">
        <ele>466.8</ele>
        <time>2023-07-13T01:52:13.000+02:00</time>
      </trkpt>
      <trkpt lat="43.31977" lon="-3.62748">
        <ele>463.5</ele>
        <time>2023-07-13T01:52:15.000+02:00</time>
      </trkpt>
      <trkpt lat="43.31967" lon="-3.62742">
        <ele>461.3</ele>
        <time>2023-07-13T01:52:17.000+02:00</time>
      </trkpt>
      <trkpt lat="43.31954" lon="-3.62737">
        <ele>459.5</ele>
        <time>2023-07-13T01:52:19.000+02:00</time>
      </trkpt>
      <trkpt lat="43.3192" lon="-3.62735">
        <ele>457.3</ele>
        <time>2023-07-13T01:52:24.000+02:00</time>
      </trkpt>
      <trkpt lat="43.31901" lon="-3.6273">
        <ele>454.5</ele>
        <time>2023-07-13T01:52:27.000+02:00</time>
      </trkpt>
      <trkpt lat="43.31882" lon="-3.62738">
        <ele>455.3</ele>
        <time>2023-07-13T01:52:30.000+02:00</time>
      </trkpt>
      <trkpt lat="43.31867" lon="-3.62746">
        <ele>456.3</ele>
        <time>2023-07-13T01:52:32.000+02:00</time>
      </trkpt>
      <trkpt lat="43.31847" lon="-3.62749">
        <ele>455.5</ele>
        <time>2023-07-13T01:52:35.000+02:00</time>
      </trkpt>
      <trkpt lat="43.31835" lon="-3.62747">
        <ele>454</ele>
        <time>2023-07-13T01:52:37.000+02:00</time>
      </trkpt>
      <trkpt lat="43.31812" lon="-3.62756">
        <ele>454.5</ele>
        <time>2023-07-13T01:52:41.000+02:00</time>
      </trkpt>
      <trkpt lat="43.31797" lon="-3.62764">
        <ele>455.3</ele>
        <time>2023-07-13T01:52:43.000+02:00</time>
      </trkpt>
      <trkpt lat="43.31776" lon="-3.62782">
        <ele>458.8</ele>
        <time>2023-07-13T01:52:47.000+02:00</time>
      </trkpt>
      <trkpt lat="43.3175" lon="-3.62793">
        <ele>459.3</ele>
        <time>2023-07-13T01:52:51.000+02:00</time>
      </trkpt>
      <trkpt lat="43.3174" lon="-3.62793">
        <ele>460</ele>
        <time>2023-07-13T01:52:53.000+02:00</time>
      </trkpt>
      <trkpt lat="43.31733" lon="-3.62788">
        <ele>458.8</ele>
        <time>2023-07-13T01:52:54.000+02:00</time>
      </trkpt>
      <trkpt lat="43.31714" lon="-3.62768">
        <ele>454.5</ele>
        <time>2023-07-13T01:52:58.000+02:00</time>
      </trkpt>
      <trkpt lat="43.31706" lon="-3.62762">
        <ele>453.3</ele>
        <time>2023-07-13T01:52:59.000+02:00</time>
      </trkpt>
      <trkpt lat="43.31678" lon="-3.62756">
        <ele>453.8</ele>
        <time>2023-07-13T01:53:03.000+02:00</time>
      </trkpt>
      <trkpt lat="43.31665" lon="-3.62754">
        <ele>454</ele>
        <time>2023-07-13T01:53:05.000+02:00</time>
      </trkpt>
      <trkpt lat="43.31637" lon="-3.62742">
        <ele>450.3</ele>
        <time>2023-07-13T01:53:10.000+02:00</time>
      </trkpt>
      <trkpt lat="43.31627" lon="-3.62741">
        <ele>449.8</ele>
        <time>2023-07-13T01:53:11.000+02:00</time>
      </trkpt>
      <trkpt lat="43.31618" lon="-3.62745">
        <ele>450.3</ele>
        <time>2023-07-13T01:53:13.000+02:00</time>
      </trkpt>
      <trkpt lat="43.31606" lon="-3.62752">
        <ele>451</ele>
        <time>2023-07-13T01:53:15.000+02:00</time>
      </trkpt>
      <trkpt lat="43.31594" lon="-3.6276">
        <ele>452.5</ele>
        <time>2023-07-13T01:53:17.000+02:00</time>
      </trkpt>
      <trkpt lat="43.31584" lon="-3.62766">
        <ele>453.3</ele>
        <time>2023-07-13T01:53:19.000+02:00</time>
      </trkpt>
      <trkpt lat="43.31575" lon="-3.62767">
        <ele>452.3</ele>
        <time>2023-07-13T01:53:20.000+02:00</time>
      </trkpt>
      <trkpt lat="43.3156" lon="-3.62767">
        <ele>450</ele>
        <time>2023-07-13T01:53:22.000+02:00</time>
      </trkpt>
      <trkpt lat="43.31554" lon="-3.6277">
        <ele>449.8</ele>
        <time>2023-07-13T01:53:23.000+02:00</time>
      </trkpt>
      <trkpt lat="43.31541" lon="-3.62782">
        <ele>450.3</ele>
        <time>2023-07-13T01:53:26.000+02:00</time>
      </trkpt>
      <trkpt lat="43.31525" lon="-3.62802">
        <ele>451.8</ele>
        <time>2023-07-13T01:53:29.000+02:00</time>
      </trkpt>
      <trkpt lat="43.31515" lon="-3.62816">
        <ele>453.3</ele>
        <time>2023-07-13T01:53:31.000+02:00</time>
      </trkpt>
      <trkpt lat="43.31507" lon="-3.62834">
        <ele>455.3</ele>
        <time>2023-07-13T01:53:33.000+02:00</time>
      </trkpt>
      <trkpt lat="43.31498" lon="-3.62856">
        <ele>457</ele>
        <time>2023-07-13T01:53:36.000+02:00</time>
      </trkpt>
      <trkpt lat="43.31487" lon="-3.6288">
        <ele>458.8</ele>
        <time>2023-07-13T01:53:39.000+02:00</time>
      </trkpt>
      <trkpt lat="43.31477" lon="-3.62896">
        <ele>459.8</ele>
        <time>2023-07-13T01:53:42.000+02:00</time>
      </trkpt>
      <trkpt lat="43.3147" lon="-3.6291">
        <ele>461</ele>
        <time>2023-07-13T01:53:44.000+02:00</time>
      </trkpt>
      <trkpt lat="43.31456" lon="-3.62954">
        <ele>467</ele>
        <time>2023-07-13T01:53:49.000+02:00</time>
      </trkpt>
      <trkpt lat="43.31452" lon="-3.62962">
        <ele>467.8</ele>
        <time>2023-07-13T01:53:50.000+02:00</time>
      </trkpt>
      <trkpt lat="43.31445" lon="-3.62969">
        <ele>467.8</ele>
        <time>2023-07-13T01:53:51.000+02:00</time>
      </trkpt>
      <trkpt lat="43.31433" lon="-3.62978">
        <ele>467.3</ele>
        <time>2023-07-13T01:53:53.000+02:00</time>
      </trkpt>
      <trkpt lat="43.3142" lon="-3.62984">
        <ele>465.8</ele>
        <time>2023-07-13T01:53:56.000+02:00</time>
      </trkpt>
      <trkpt lat="43.31404" lon="-3.62997">
        <ele>463.5</ele>
        <time>2023-07-13T01:53:58.000+02:00</time>
      </trkpt>
      <trkpt lat="43.31399" lon="-3.63005">
        <ele>462.8</ele>
        <time>2023-07-13T01:54:00.000+02:00</time>
      </trkpt>
      <trkpt lat="43.31393" lon="-3.63022">
        <ele>461</ele>
        <time>2023-07-13T01:54:02.000+02:00</time>
      </trkpt>
      <trkpt lat="43.31387" lon="-3.63046">
        <ele>459.5</ele>
        <time>2023-07-13T01:54:04.000+02:00</time>
      </trkpt>
      <trkpt lat="43.31385" lon="-3.63064">
        <ele>458.8</ele>
        <time>2023-07-13T01:54:06.000+02:00</time>
      </trkpt>
      <trkpt lat="43.31385" lon="-3.63075">
        <ele>458.8</ele>
        <time>2023-07-13T01:54:08.000+02:00</time>
      </trkpt>
      <trkpt lat="43.31389" lon="-3.63088">
        <ele>461.3</ele>
        <time>2023-07-13T01:54:09.000+02:00</time>
      </trkpt>
      <trkpt lat="43.31392" lon="-3.63093">
        <ele>462.8</ele>
        <time>2023-07-13T01:54:10.000+02:00</time>
      </trkpt>
      <trkpt lat="43.31397" lon="-3.63109">
        <ele>467</ele>
        <time>2023-07-13T01:54:12.000+02:00</time>
      </trkpt>
      <trkpt lat="43.31398" lon="-3.63117">
        <ele>468.3</ele>
        <time>2023-07-13T01:54:13.000+02:00</time>
      </trkpt>
      <trkpt lat="43.31397" lon="-3.63126">
        <ele>469</ele>
        <time>2023-07-13T01:54:14.000+02:00</time>
      </trkpt>
      <trkpt lat="43.31395" lon="-3.63133">
        <ele>469.3</ele>
        <time>2023-07-13T01:54:15.000+02:00</time>
      </trkpt>
      <trkpt lat="43.31393" lon="-3.63138">
        <ele>469.3</ele>
        <time>2023-07-13T01:54:16.000+02:00</time>
      </trkpt>
      <trkpt lat="43.31391" lon="-3.63142">
        <ele>468.8</ele>
        <time>2023-07-13T01:54:17.000+02:00</time>
      </trkpt>
      <trkpt lat="43.31387" lon="-3.63144">
        <ele>467.8</ele>
        <time>2023-07-13T01:54:18.000+02:00</time>
      </trkpt>
      <trkpt lat="43.31371" lon="-3.63149">
        <ele>463</ele>
        <time>2023-07-13T01:54:20.000+02:00</time>
      </trkpt>
      <trkpt lat="43.31366" lon="-3.63156">
        <ele>462.3</ele>
        <time>2023-07-13T01:54:21.000+02:00</time>
      </trkpt>
      <trkpt lat="43.31361" lon="-3.63167">
        <ele>462.3</ele>
        <time>2023-07-13T01:54:23.000+02:00</time>
      </trkpt>
      <trkpt lat="43.31358" lon="-3.63179">
        <ele>464</ele>
        <time>2023-07-13T01:54:24.000+02:00</time>
      </trkpt>
      <trkpt lat="43.31352" lon="-3.63188">
        <ele>464.3</ele>
        <time>2023-07-13T01:54:25.000+02:00</time>
      </trkpt>
      <trkpt lat="43.31335" lon="-3.63202">
        <ele>461.5</ele>
        <time>2023-07-13T01:54:28.000+02:00</time>
      </trkpt>
      <trkpt lat="43.31327" lon="-3.63211">
        <ele>460.8</ele>
        <time>2023-07-13T01:54:30.000+02:00</time>
      </trkpt>
      <trkpt lat="43.31323" lon="-3.63217">
        <ele>460.3</ele>
        <time>2023-07-13T01:54:31.000+02:00</time>
      </trkpt>
      <trkpt lat="43.31317" lon="-3.63229">
        <ele>460.3</ele>
        <time>2023-07-13T01:54:32.000+02:00</time>
      </trkpt>
      <trkpt lat="43.31313" lon="-3.63239">
        <ele>461</ele>
        <time>2023-07-13T01:54:34.000+02:00</time>
      </trkpt>
      <trkpt lat="43.31309" lon="-3.63259">
        <ele>463.3</ele>
        <time>2023-07-13T01:54:36.000+02:00</time>
      </trkpt>
      <trkpt lat="43.31309" lon="-3.63281">
        <ele>466.8</ele>
        <time>2023-07-13T01:54:38.000+02:00</time>
      </trkpt>
      <trkpt lat="43.31312" lon="-3.63319">
        <ele>474.3</ele>
        <time>2023-07-13T01:54:43.000+02:00</time>
      </trkpt>
      <trkpt lat="43.31315" lon="-3.63334">
        <ele>478</ele>
        <time>2023-07-13T01:54:44.000+02:00</time>
      </trkpt>
      <trkpt lat="43.31317" lon="-3.63338">
        <ele>479</ele>
        <time>2023-07-13T01:54:45.000+02:00</time>
      </trkpt>
      <trkpt lat="43.31319" lon="-3.6334">
        <ele>480.5</ele>
        <time>2023-07-13T01:54:45.000+02:00</time>
      </trkpt>
      <trkpt lat="43.31324" lon="-3.63352">
        <ele>483.8</ele>
        <time>2023-07-13T01:54:47.000+02:00</time>
      </trkpt>
      <trkpt lat="43.31324" lon="-3.63358">
        <ele>484.3</ele>
        <time>2023-07-13T01:54:48.000+02:00</time>
      </trkpt>
      <trkpt lat="43.31321" lon="-3.63371">
        <ele>484.5</ele>
        <time>2023-07-13T01:54:49.000+02:00</time>
      </trkpt>
      <trkpt lat="43.31317" lon="-3.63384">
        <ele>484</ele>
        <time>2023-07-13T01:54:51.000+02:00</time>
      </trkpt>
      <trkpt lat="43.31312" lon="-3.6342">
        <ele>486.5</ele>
        <time>2023-07-13T01:54:55.000+02:00</time>
      </trkpt>
      <trkpt lat="43.3131" lon="-3.63455">
        <ele>489</ele>
        <time>2023-07-13T01:54:59.000+02:00</time>
      </trkpt>
      <trkpt lat="43.31306" lon="-3.635">
        <ele>492.5</ele>
        <time>2023-07-13T01:55:04.000+02:00</time>
      </trkpt>
      <trkpt lat="43.31304" lon="-3.63509">
        <ele>492.3</ele>
        <time>2023-07-13T01:55:05.000+02:00</time>
      </trkpt>
      <trkpt lat="43.313" lon="-3.63521">
        <ele>491.8</ele>
        <time>2023-07-13T01:55:06.000+02:00</time>
      </trkpt>
      <trkpt lat="43.31298" lon="-3.63535">
        <ele>491.8</ele>
        <time>2023-07-13T01:55:08.000+02:00</time>
      </trkpt>
      <trkpt lat="43.31293" lon="-3.63546">
        <ele>491.8</ele>
        <time>2023-07-13T01:55:09.000+02:00</time>
      </trkpt>
      <trkpt lat="43.31288" lon="-3.63554">
        <ele>492</ele>
        <time>2023-07-13T01:55:10.000+02:00</time>
      </trkpt>
      <trkpt lat="43.31282" lon="-3.63561">
        <ele>492.3</ele>
        <time>2023-07-13T01:55:12.000+02:00</time>
      </trkpt>
      <trkpt lat="43.31273" lon="-3.63568">
        <ele>493</ele>
        <time>2023-07-13T01:55:13.000+02:00</time>
      </trkpt>
      <trkpt lat="43.31262" lon="-3.63573">
        <ele>494</ele>
        <time>2023-07-13T01:55:15.000+02:00</time>
      </trkpt>
      <trkpt lat="43.31192" lon="-3.63581">
        <ele>497.8</ele>
        <time>2023-07-13T01:55:26.000+02:00</time>
      </trkpt>
      <trkpt lat="43.31155" lon="-3.63585">
        <ele>498</ele>
        <time>2023-07-13T01:55:31.000+02:00</time>
      </trkpt>
      <trkpt lat="43.31121" lon="-3.63593">
        <ele>495.8</ele>
        <time>2023-07-13T01:55:37.000+02:00</time>
      </trkpt>
      <trkpt lat="43.3111" lon="-3.63604">
        <ele>494.8</ele>
        <time>2023-07-13T01:55:39.000+02:00</time>
      </trkpt>
      <trkpt lat="43.31093" lon="-3.63638">
        <ele>494.3</ele>
        <time>2023-07-13T01:55:43.000+02:00</time>
      </trkpt>
      <trkpt lat="43.31075" lon="-3.63679">
        <ele>495.5</ele>
        <time>2023-07-13T01:55:49.000+02:00</time>
      </trkpt>
      <trkpt lat="43.31073" lon="-3.63691">
        <ele>496.3</ele>
        <time>2023-07-13T01:55:50.000+02:00</time>
      </trkpt>
      <trkpt lat="43.31076" lon="-3.63711">
        <ele>497.3</ele>
        <time>2023-07-13T01:55:52.000+02:00</time>
      </trkpt>
      <trkpt lat="43.3108" lon="-3.63727">
        <ele>498</ele>
        <time>2023-07-13T01:55:54.000+02:00</time>
      </trkpt>
      <trkpt lat="43.31094" lon="-3.63755">
        <ele>495.5</ele>
        <time>2023-07-13T01:55:58.000+02:00</time>
      </trkpt>
      <trkpt lat="43.31097" lon="-3.63765">
        <ele>493.8</ele>
        <time>2023-07-13T01:55:59.000+02:00</time>
      </trkpt>
      <trkpt lat="43.311" lon="-3.63786">
        <ele>492</ele>
        <time>2023-07-13T01:56:01.000+02:00</time>
      </trkpt>
      <trkpt lat="43.31112" lon="-3.63823">
        <ele>485.3</ele>
        <time>2023-07-13T01:56:06.000+02:00</time>
      </trkpt>
      <trkpt lat="43.31112" lon="-3.63842">
        <ele>483.5</ele>
        <time>2023-07-13T01:56:08.000+02:00</time>
      </trkpt>
      <trkpt lat="43.31101" lon="-3.63891">
        <ele>480.5</ele>
        <time>2023-07-13T01:56:14.000+02:00</time>
      </trkpt>
      <trkpt lat="43.31095" lon="-3.63909">
        <ele>480</ele>
        <time>2023-07-13T01:56:16.000+02:00</time>
      </trkpt>
      <trkpt lat="43.31069" lon="-3.63995">
        <ele>477.3</ele>
        <time>2023-07-13T01:56:26.000+02:00</time>
      </trkpt>
      <trkpt lat="43.31058" lon="-3.64029">
        <ele>475.5</ele>
        <time>2023-07-13T01:56:30.000+02:00</time>
      </trkpt>
      <trkpt lat="43.31048" lon="-3.64046">
        <ele>475.3</ele>
        <time>2023-07-13T01:56:33.000+02:00</time>
      </trkpt>
      <trkpt lat="43.31046" lon="-3.64045">
        <ele>476.5</ele>
        <time>2023-07-13T01:56:34.000+02:00</time>
      </trkpt>
      <trkpt lat="43.31043" lon="-3.64044">
        <ele>477.5</ele>
        <time>2023-07-13T01:56:35.000+02:00</time>
      </trkpt>
      <trkpt lat="43.31038" lon="-3.64046">
        <ele>478.5</ele>
        <time>2023-07-13T01:56:35.000+02:00</time>
      </trkpt>
      <trkpt lat="43.31034" lon="-3.6405">
        <ele>478.8</ele>
        <time>2023-07-13T01:56:36.000+02:00</time>
      </trkpt>
      <trkpt lat="43.31002" lon="-3.64095">
        <ele>478</ele>
        <time>2023-07-13T01:56:43.000+02:00</time>
      </trkpt>
      <trkpt lat="43.30975" lon="-3.64121">
        <ele>479.8</ele>
        <time>2023-07-13T01:56:48.000+02:00</time>
      </trkpt>
      <trkpt lat="43.30956" lon="-3.64135">
        <ele>480.8</ele>
        <time>2023-07-13T01:56:52.000+02:00</time>
      </trkpt>
      <trkpt lat="43.30943" lon="-3.64143">
        <ele>481.8</ele>
        <time>2023-07-13T01:56:54.000+02:00</time>
      </trkpt>
      <trkpt lat="43.30924" lon="-3.64151">
        <ele>483.5</ele>
        <time>2023-07-13T01:56:57.000+02:00</time>
      </trkpt>
      <trkpt lat="43.30915" lon="-3.64154">
        <ele>484.8</ele>
        <time>2023-07-13T01:56:58.000+02:00</time>
      </trkpt>
      <trkpt lat="43.30879" lon="-3.6416">
        <ele>490.8</ele>
        <time>2023-07-13T01:57:04.000+02:00</time>
      </trkpt>
      <trkpt lat="43.30869" lon="-3.64164">
        <ele>492</ele>
        <time>2023-07-13T01:57:05.000+02:00</time>
      </trkpt>
      <trkpt lat="43.3086" lon="-3.6417">
        <ele>493</ele>
        <time>2023-07-13T01:57:07.000+02:00</time>
      </trkpt>
      <trkpt lat="43.30849" lon="-3.64184">
        <ele>493.8</ele>
        <time>2023-07-13T01:57:09.000+02:00</time>
      </trkpt>
      <trkpt lat="43.30845" lon="-3.64193">
        <ele>493.8</ele>
        <time>2023-07-13T01:57:10.000+02:00</time>
      </trkpt>
      <trkpt lat="43.30835" lon="-3.64223">
        <ele>492.5</ele>
        <time>2023-07-13T01:57:14.000+02:00</time>
      </trkpt>
      <trkpt lat="43.30831" lon="-3.64232">
        <ele>492.3</ele>
        <time>2023-07-13T01:57:15.000+02:00</time>
      </trkpt>
      <trkpt lat="43.30826" lon="-3.64239">
        <ele>491.5</ele>
        <time>2023-07-13T01:57:16.000+02:00</time>
      </trkpt>
      <trkpt lat="43.3082" lon="-3.64246">
        <ele>491.3</ele>
        <time>2023-07-13T01:57:17.000+02:00</time>
      </trkpt>
      <trkpt lat="43.30812" lon="-3.64251">
        <ele>491.3</ele>
        <time>2023-07-13T01:57:19.000+02:00</time>
      </trkpt>
      <trkpt lat="43.30806" lon="-3.64253">
        <ele>491.5</ele>
        <time>2023-07-13T01:57:20.000+02:00</time>
      </trkpt>
      <trkpt lat="43.30796" lon="-3.64254">
        <ele>492</ele>
        <time>2023-07-13T01:57:21.000+02:00</time>
      </trkpt>
      <trkpt lat="43.3078" lon="-3.64252">
        <ele>493.5</ele>
        <time>2023-07-13T01:57:24.000+02:00</time>
      </trkpt>
      <trkpt lat="43.30761" lon="-3.64251">
        <ele>495</ele>
        <time>2023-07-13T01:57:27.000+02:00</time>
      </trkpt>
      <trkpt lat="43.30752" lon="-3.64253">
        <ele>495.8</ele>
        <time>2023-07-13T01:57:28.000+02:00</time>
      </trkpt>
      <trkpt lat="43.30693" lon="-3.64292">
        <ele>498.3</ele>
        <time>2023-07-13T01:57:38.000+02:00</time>
      </trkpt>
      <trkpt lat="43.30653" lon="-3.64315">
        <ele>504.5</ele>
        <time>2023-07-13T01:57:45.000+02:00</time>
      </trkpt>
      <trkpt lat="43.30613" lon="-3.64328">
        <ele>508.3</ele>
        <time>2023-07-13T01:57:51.000+02:00</time>
      </trkpt>
      <trkpt lat="43.30602" lon="-3.64332">
        <ele>509</ele>
        <time>2023-07-13T01:57:53.000+02:00</time>
      </trkpt>
      <trkpt lat="43.30596" lon="-3.64336">
        <ele>509.3</ele>
        <time>2023-07-13T01:57:54.000+02:00</time>
      </trkpt>
      <trkpt lat="43.30589" lon="-3.64341">
        <ele>509.3</ele>
        <time>2023-07-13T01:57:55.000+02:00</time>
      </trkpt>
      <trkpt lat="43.30582" lon="-3.64348">
        <ele>509.8</ele>
        <time>2023-07-13T01:57:56.000+02:00</time>
      </trkpt>
      <trkpt lat="43.30575" lon="-3.64356">
        <ele>511.5</ele>
        <time>2023-07-13T01:57:58.000+02:00</time>
      </trkpt>
      <trkpt lat="43.30543" lon="-3.64397">
        <ele>519.5</ele>
        <time>2023-07-13T01:58:04.000+02:00</time>
      </trkpt>
      <trkpt lat="43.30533" lon="-3.64413">
        <ele>522</ele>
        <time>2023-07-13T01:58:07.000+02:00</time>
      </trkpt>
      <trkpt lat="43.30516" lon="-3.64444">
        <ele>524.3</ele>
        <time>2023-07-13T01:58:11.000+02:00</time>
      </trkpt>
      <trkpt lat="43.30504" lon="-3.64462">
        <ele>525.8</ele>
        <time>2023-07-13T01:58:14.000+02:00</time>
      </trkpt>
      <trkpt lat="43.30502" lon="-3.64465">
        <ele>526</ele>
        <time>2023-07-13T01:58:15.000+02:00</time>
      </trkpt>
      <trkpt lat="43.30487" lon="-3.64485">
        <ele>528.8</ele>
        <time>2023-07-13T01:58:18.000+02:00</time>
      </trkpt>
      <trkpt lat="43.30476" lon="-3.64505">
        <ele>531</ele>
        <time>2023-07-13T01:58:21.000+02:00</time>
      </trkpt>
      <trkpt lat="43.30473" lon="-3.64513">
        <ele>532.5</ele>
        <time>2023-07-13T01:58:22.000+02:00</time>
      </trkpt>
      <trkpt lat="43.30469" lon="-3.64518">
        <ele>534</ele>
        <time>2023-07-13T01:58:23.000+02:00</time>
      </trkpt>
      <trkpt lat="43.30466" lon="-3.6452">
        <ele>535</ele>
        <time>2023-07-13T01:58:23.000+02:00</time>
      </trkpt>
      <trkpt lat="43.30463" lon="-3.6452">
        <ele>535.8</ele>
        <time>2023-07-13T01:58:24.000+02:00</time>
      </trkpt>
      <trkpt lat="43.3046" lon="-3.64518">
        <ele>536.5</ele>
        <time>2023-07-13T01:58:25.000+02:00</time>
      </trkpt>
      <trkpt lat="43.30459" lon="-3.64515">
        <ele>536.8</ele>
        <time>2023-07-13T01:58:26.000+02:00</time>
      </trkpt>
      <trkpt lat="43.30458" lon="-3.64511">
        <ele>536.8</ele>
        <time>2023-07-13T01:58:26.000+02:00</time>
      </trkpt>
      <trkpt lat="43.30459" lon="-3.64505">
        <ele>536</ele>
        <time>2023-07-13T01:58:27.000+02:00</time>
      </trkpt>
      <trkpt lat="43.30462" lon="-3.64499">
        <ele>535</ele>
        <time>2023-07-13T01:58:28.000+02:00</time>
      </trkpt>
      <trkpt lat="43.30484" lon="-3.64458">
        <ele>532.8</ele>
        <time>2023-07-13T01:58:33.000+02:00</time>
      </trkpt>
      <trkpt lat="43.30493" lon="-3.64436">
        <ele>532</ele>
        <time>2023-07-13T01:58:36.000+02:00</time>
      </trkpt>
      <trkpt lat="43.30501" lon="-3.64415">
        <ele>531.8</ele>
        <time>2023-07-13T01:58:39.000+02:00</time>
      </trkpt>
      <trkpt lat="43.30507" lon="-3.64396">
        <ele>531</ele>
        <time>2023-07-13T01:58:41.000+02:00</time>
      </trkpt>
      <trkpt lat="43.30509" lon="-3.64381">
        <ele>531.3</ele>
        <time>2023-07-13T01:58:43.000+02:00</time>
      </trkpt>
      <trkpt lat="43.3051" lon="-3.64365">
        <ele>531.8</ele>
        <time>2023-07-13T01:58:45.000+02:00</time>
      </trkpt>
      <trkpt lat="43.30509" lon="-3.64347">
        <ele>533.3</ele>
        <time>2023-07-13T01:58:47.000+02:00</time>
      </trkpt>
      <trkpt lat="43.30505" lon="-3.64318">
        <ele>532.8</ele>
        <time>2023-07-13T01:58:50.000+02:00</time>
      </trkpt>
      <trkpt lat="43.305" lon="-3.64293">
        <ele>529.8</ele>
        <time>2023-07-13T01:58:53.000+02:00</time>
      </trkpt>
      <trkpt lat="43.30494" lon="-3.64285">
        <ele>528.5</ele>
        <time>2023-07-13T01:58:54.000+02:00</time>
      </trkpt>
      <trkpt lat="43.30491" lon="-3.64282">
        <ele>528</ele>
        <time>2023-07-13T01:58:55.000+02:00</time>
      </trkpt>
      <trkpt lat="43.30487" lon="-3.64283">
        <ele>528.3</ele>
        <time>2023-07-13T01:58:56.000+02:00</time>
      </trkpt>
      <trkpt lat="43.30483" lon="-3.64285">
        <ele>528.8</ele>
        <time>2023-07-13T01:58:57.000+02:00</time>
      </trkpt>
      <trkpt lat="43.30479" lon="-3.64289">
        <ele>530</ele>
        <time>2023-07-13T01:58:58.000+02:00</time>
      </trkpt>
      <trkpt lat="43.30478" lon="-3.64294">
        <ele>531.3</ele>
        <time>2023-07-13T01:58:58.000+02:00</time>
      </trkpt>
      <trkpt lat="43.30478" lon="-3.643">
        <ele>532.5</ele>
        <time>2023-07-13T01:58:59.000+02:00</time>
      </trkpt>
      <trkpt lat="43.30483" lon="-3.64319">
        <ele>536.5</ele>
        <time>2023-07-13T01:59:01.000+02:00</time>
      </trkpt>
      <trkpt lat="43.30484" lon="-3.6433">
        <ele>538.8</ele>
        <time>2023-07-13T01:59:02.000+02:00</time>
      </trkpt>
      <trkpt lat="43.30483" lon="-3.64345">
        <ele>539.5</ele>
        <time>2023-07-13T01:59:04.000+02:00</time>
      </trkpt>
      <trkpt lat="43.3048" lon="-3.64363">
        <ele>539.5</ele>
        <time>2023-07-13T01:59:06.000+02:00</time>
      </trkpt>
      <trkpt lat="43.30477" lon="-3.64379">
        <ele>540.3</ele>
        <time>2023-07-13T01:59:08.000+02:00</time>
      </trkpt>
      <trkpt lat="43.30473" lon="-3.6439">
        <ele>541.3</ele>
        <time>2023-07-13T01:59:09.000+02:00</time>
      </trkpt>
      <trkpt lat="43.30468" lon="-3.64401">
        <ele>542.5</ele>
        <time>2023-07-13T01:59:11.000+02:00</time>
      </trkpt>
      <trkpt lat="43.3046" lon="-3.64416">
        <ele>545.5</ele>
        <time>2023-07-13T01:59:13.000+02:00</time>
      </trkpt>
      <trkpt lat="43.30381" lon="-3.64523">
        <ele>559.8</ele>
        <time>2023-07-13T01:59:30.000+02:00</time>
      </trkpt>
      <trkpt lat="43.30367" lon="-3.64539">
        <ele>562.8</ele>
        <time>2023-07-13T01:59:33.000+02:00</time>
      </trkpt>
      <trkpt lat="43.3035" lon="-3.64555">
        <ele>566</ele>
        <time>2023-07-13T01:59:36.000+02:00</time>
      </trkpt>
      <trkpt lat="43.30338" lon="-3.64568">
        <ele>567.5</ele>
        <time>2023-07-13T01:59:38.000+02:00</time>
      </trkpt>
      <trkpt lat="43.30327" lon="-3.64584">
        <ele>568.3</ele>
        <time>2023-07-13T01:59:40.000+02:00</time>
      </trkpt>
      <trkpt lat="43.30324" lon="-3.64592">
        <ele>569.5</ele>
        <time>2023-07-13T01:59:41.000+02:00</time>
      </trkpt>
      <trkpt lat="43.30322" lon="-3.646">
        <ele>570.8</ele>
        <time>2023-07-13T01:59:42.000+02:00</time>
      </trkpt>
      <trkpt lat="43.3032" lon="-3.64619">
        <ele>573</ele>
        <time>2023-07-13T01:59:45.000+02:00</time>
      </trkpt>
      <trkpt lat="43.30319" lon="-3.64632">
        <ele>574.3</ele>
        <time>2023-07-13T01:59:46.000+02:00</time>
      </trkpt>
      <trkpt lat="43.30317" lon="-3.64645">
        <ele>576</ele>
        <time>2023-07-13T01:59:47.000+02:00</time>
      </trkpt>
      <trkpt lat="43.30315" lon="-3.64649">
        <ele>577</ele>
        <time>2023-07-13T01:59:48.000+02:00</time>
      </trkpt>
      <trkpt lat="43.30312" lon="-3.64651">
        <ele>578</ele>
        <time>2023-07-13T01:59:49.000+02:00</time>
      </trkpt>
      <trkpt lat="43.30309" lon="-3.64651">
        <ele>578.8</ele>
        <time>2023-07-13T01:59:50.000+02:00</time>
      </trkpt>
      <trkpt lat="43.30306" lon="-3.6465">
        <ele>579.5</ele>
        <time>2023-07-13T01:59:51.000+02:00</time>
      </trkpt>
      <trkpt lat="43.30304" lon="-3.64647">
        <ele>579.5</ele>
        <time>2023-07-13T01:59:51.000+02:00</time>
      </trkpt>
      <trkpt lat="43.30303" lon="-3.64643">
        <ele>579.3</ele>
        <time>2023-07-13T01:59:52.000+02:00</time>
      </trkpt>
      <trkpt lat="43.30303" lon="-3.64635">
        <ele>578.5</ele>
        <time>2023-07-13T01:59:53.000+02:00</time>
      </trkpt>
      <trkpt lat="43.30308" lon="-3.64606">
        <ele>574.3</ele>
        <time>2023-07-13T01:59:57.000+02:00</time>
      </trkpt>
      <trkpt lat="43.30313" lon="-3.64587">
        <ele>571.5</ele>
        <time>2023-07-13T01:59:59.000+02:00</time>
      </trkpt>
      <trkpt lat="43.30317" lon="-3.64572">
        <ele>571</ele>
        <time>2023-07-13T02:00:01.000+02:00</time>
      </trkpt>
      <trkpt lat="43.30329" lon="-3.64544">
        <ele>571.8</ele>
        <time>2023-07-13T02:00:04.000+02:00</time>
      </trkpt>
      <trkpt lat="43.30333" lon="-3.64529">
        <ele>572.8</ele>
        <time>2023-07-13T02:00:06.000+02:00</time>
      </trkpt>
      <trkpt lat="43.30337" lon="-3.64506">
        <ele>574</ele>
        <time>2023-07-13T02:00:09.000+02:00</time>
      </trkpt>
      <trkpt lat="43.3034" lon="-3.64485">
        <ele>573</ele>
        <time>2023-07-13T02:00:11.000+02:00</time>
      </trkpt>
      <trkpt lat="43.30339" lon="-3.64469">
        <ele>572.5</ele>
        <time>2023-07-13T02:00:13.000+02:00</time>
      </trkpt>
      <trkpt lat="43.30336" lon="-3.64457">
        <ele>572.8</ele>
        <time>2023-07-13T02:00:14.000+02:00</time>
      </trkpt>
      <trkpt lat="43.30331" lon="-3.64451">
        <ele>572.8</ele>
        <time>2023-07-13T02:00:15.000+02:00</time>
      </trkpt>
      <trkpt lat="43.30327" lon="-3.64447">
        <ele>572</ele>
        <time>2023-07-13T02:00:16.000+02:00</time>
      </trkpt>
      <trkpt lat="43.30322" lon="-3.64442">
        <ele>571.3</ele>
        <time>2023-07-13T02:00:17.000+02:00</time>
      </trkpt>
      <trkpt lat="43.30316" lon="-3.6444">
        <ele>570.3</ele>
        <time>2023-07-13T02:00:18.000+02:00</time>
      </trkpt>
      <trkpt lat="43.30309" lon="-3.6444">
        <ele>569.5</ele>
        <time>2023-07-13T02:00:19.000+02:00</time>
      </trkpt>
      <trkpt lat="43.30302" lon="-3.64441">
        <ele>569</ele>
        <time>2023-07-13T02:00:20.000+02:00</time>
      </trkpt>
      <trkpt lat="43.30296" lon="-3.64445">
        <ele>568.8</ele>
        <time>2023-07-13T02:00:21.000+02:00</time>
      </trkpt>
      <trkpt lat="43.30291" lon="-3.64451">
        <ele>569</ele>
        <time>2023-07-13T02:00:22.000+02:00</time>
      </trkpt>
      <trkpt lat="43.30287" lon="-3.64457">
        <ele>569.5</ele>
        <time>2023-07-13T02:00:23.000+02:00</time>
      </trkpt>
      <trkpt lat="43.30283" lon="-3.64466">
        <ele>570.8</ele>
        <time>2023-07-13T02:00:24.000+02:00</time>
      </trkpt>
      <trkpt lat="43.30281" lon="-3.64476">
        <ele>572</ele>
        <time>2023-07-13T02:00:25.000+02:00</time>
      </trkpt>
      <trkpt lat="43.30265" lon="-3.64567">
        <ele>580</ele>
        <time>2023-07-13T02:00:36.000+02:00</time>
      </trkpt>
      <trkpt lat="43.30257" lon="-3.64625">
        <ele>588.3</ele>
        <time>2023-07-13T02:00:42.000+02:00</time>
      </trkpt>
      <trkpt lat="43.30252" lon="-3.64667">
        <ele>595.3</ele>
        <time>2023-07-13T02:00:47.000+02:00</time>
      </trkpt>
      <trkpt lat="43.30254" lon="-3.6468">
        <ele>597.8</ele>
        <time>2023-07-13T02:00:48.000+02:00</time>
      </trkpt>
      <trkpt lat="43.30256" lon="-3.64691">
        <ele>599.3</ele>
        <time>2023-07-13T02:00:50.000+02:00</time>
      </trkpt>
      <trkpt lat="43.30261" lon="-3.647">
        <ele>600</ele>
        <time>2023-07-13T02:00:51.000+02:00</time>
      </trkpt>
      <trkpt lat="43.30266" lon="-3.64706">
        <ele>600</ele>
        <time>2023-07-13T02:00:52.000+02:00</time>
      </trkpt>
      <trkpt lat="43.30292" lon="-3.64722">
        <ele>597</ele>
        <time>2023-07-13T02:00:56.000+02:00</time>
      </trkpt>
      <trkpt lat="43.30301" lon="-3.64731">
        <ele>596.8</ele>
        <time>2023-07-13T02:00:58.000+02:00</time>
      </trkpt>
      <trkpt lat="43.30309" lon="-3.6474">
        <ele>597.3</ele>
        <time>2023-07-13T02:00:59.000+02:00</time>
      </trkpt>
      <trkpt lat="43.30311" lon="-3.64744">
        <ele>597.8</ele>
        <time>2023-07-13T02:01:00.000+02:00</time>
      </trkpt>
      <trkpt lat="43.30318" lon="-3.64761">
        <ele>598.5</ele>
        <time>2023-07-13T02:01:02.000+02:00</time>
      </trkpt>
      <trkpt lat="43.30319" lon="-3.64774">
        <ele>599.3</ele>
        <time>2023-07-13T02:01:04.000+02:00</time>
      </trkpt>
      <trkpt lat="43.3032" lon="-3.6479">
        <ele>600.5</ele>
        <time>2023-07-13T02:01:05.000+02:00</time>
      </trkpt>
      <trkpt lat="43.30319" lon="-3.64802">
        <ele>601.8</ele>
        <time>2023-07-13T02:01:07.000+02:00</time>
      </trkpt>
      <trkpt lat="43.30315" lon="-3.64834">
        <ele>605.5</ele>
        <time>2023-07-13T02:01:10.000+02:00</time>
      </trkpt>
      <trkpt lat="43.30306" lon="-3.64886">
        <ele>607</ele>
        <time>2023-07-13T02:01:16.000+02:00</time>
      </trkpt>
      <trkpt lat="43.30296" lon="-3.64917">
        <ele>609.3</ele>
        <time>2023-07-13T02:01:20.000+02:00</time>
      </trkpt>
      <trkpt lat="43.30289" lon="-3.64935">
        <ele>611</ele>
        <time>2023-07-13T02:01:22.000+02:00</time>
      </trkpt>
      <trkpt lat="43.30283" lon="-3.64946">
        <ele>612.5</ele>
        <time>2023-07-13T02:01:24.000+02:00</time>
      </trkpt>
      <trkpt lat="43.30249" lon="-3.64996">
        <ele>620.5</ele>
        <time>2023-07-13T02:01:32.000+02:00</time>
      </trkpt>
      <trkpt lat="43.30245" lon="-3.65006">
        <ele>621.8</ele>
        <time>2023-07-13T02:01:33.000+02:00</time>
      </trkpt>
      <trkpt lat="43.30244" lon="-3.65017">
        <ele>623</ele>
        <time>2023-07-13T02:01:34.000+02:00</time>
      </trkpt>
      <trkpt lat="43.30243" lon="-3.65025">
        <ele>623.5</ele>
        <time>2023-07-13T02:01:35.000+02:00</time>
      </trkpt>
      <trkpt lat="43.30244" lon="-3.65031">
        <ele>623.5</ele>
        <time>2023-07-13T02:01:36.000+02:00</time>
      </trkpt>
      <trkpt lat="43.30248" lon="-3.65042">
        <ele>623.3</ele>
        <time>2023-07-13T02:01:37.000+02:00</time>
      </trkpt>
      <trkpt lat="43.30259" lon="-3.6507">
        <ele>621.5</ele>
        <time>2023-07-13T02:01:40.000+02:00</time>
      </trkpt>
      <trkpt lat="43.30261" lon="-3.65081">
        <ele>621.5</ele>
        <time>2023-07-13T02:01:42.000+02:00</time>
      </trkpt>
      <trkpt lat="43.30261" lon="-3.65094">
        <ele>621.8</ele>
        <time>2023-07-13T02:01:43.000+02:00</time>
      </trkpt>
      <trkpt lat="43.3026" lon="-3.65101">
        <ele>622</ele>
        <time>2023-07-13T02:01:44.000+02:00</time>
      </trkpt>
      <trkpt lat="43.30258" lon="-3.65109">
        <ele>622.5</ele>
        <time>2023-07-13T02:01:45.000+02:00</time>
      </trkpt>
      <trkpt lat="43.30239" lon="-3.65153">
        <ele>628.3</ele>
        <time>2023-07-13T02:01:51.000+02:00</time>
      </trkpt>
      <trkpt lat="43.30235" lon="-3.65172">
        <ele>629.8</ele>
        <time>2023-07-13T02:01:53.000+02:00</time>
      </trkpt>
      <trkpt lat="43.30231" lon="-3.65216">
        <ele>632.5</ele>
        <time>2023-07-13T02:01:58.000+02:00</time>
      </trkpt>
      <trkpt lat="43.30229" lon="-3.65239">
        <ele>633.8</ele>
        <time>2023-07-13T02:02:00.000+02:00</time>
      </trkpt>
      <trkpt lat="43.30231" lon="-3.65263">
        <ele>635.5</ele>
        <time>2023-07-13T02:02:03.000+02:00</time>
      </trkpt>
      <trkpt lat="43.30234" lon="-3.65285">
        <ele>638.5</ele>
        <time>2023-07-13T02:02:05.000+02:00</time>
      </trkpt>
      <trkpt lat="43.30237" lon="-3.65299">
        <ele>640</ele>
        <time>2023-07-13T02:02:07.000+02:00</time>
      </trkpt>
      <trkpt lat="43.30239" lon="-3.6531">
        <ele>641.5</ele>
        <time>2023-07-13T02:02:08.000+02:00</time>
      </trkpt>
      <trkpt lat="43.30238" lon="-3.65317">
        <ele>642.8</ele>
        <time>2023-07-13T02:02:09.000+02:00</time>
      </trkpt>
      <trkpt lat="43.30234" lon="-3.65321">
        <ele>644.3</ele>
        <time>2023-07-13T02:02:10.000+02:00</time>
      </trkpt>
      <trkpt lat="43.3023" lon="-3.65322">
        <ele>645</ele>
        <time>2023-07-13T02:02:11.000+02:00</time>
      </trkpt>
      <trkpt lat="43.30225" lon="-3.6532">
        <ele>645.5</ele>
        <time>2023-07-13T02:02:12.000+02:00</time>
      </trkpt>
      <trkpt lat="43.30223" lon="-3.65315">
        <ele>645.3</ele>
        <time>2023-07-13T02:02:13.000+02:00</time>
      </trkpt>
      <trkpt lat="43.30211" lon="-3.65261">
        <ele>641</ele>
        <time>2023-07-13T02:02:19.000+02:00</time>
      </trkpt>
      <trkpt lat="43.30202" lon="-3.6522">
        <ele>641.5</ele>
        <time>2023-07-13T02:02:24.000+02:00</time>
      </trkpt>
      <trkpt lat="43.30189" lon="-3.65152">
        <ele>643.8</ele>
        <time>2023-07-13T02:02:32.000+02:00</time>
      </trkpt>
      <trkpt lat="43.30179" lon="-3.65101">
        <ele>646.5</ele>
        <time>2023-07-13T02:02:38.000+02:00</time>
      </trkpt>
      <trkpt lat="43.30165" lon="-3.65042">
        <ele>649.3</ele>
        <time>2023-07-13T02:02:45.000+02:00</time>
      </trkpt>
      <trkpt lat="43.30145" lon="-3.64976">
        <ele>651.3</ele>
        <time>2023-07-13T02:02:53.000+02:00</time>
      </trkpt>
      <trkpt lat="43.30142" lon="-3.64969">
        <ele>651.3</ele>
        <time>2023-07-13T02:02:54.000+02:00</time>
      </trkpt>
      <trkpt lat="43.30138" lon="-3.64962">
        <ele>651.5</ele>
        <time>2023-07-13T02:02:55.000+02:00</time>
      </trkpt>
      <trkpt lat="43.30133" lon="-3.64958">
        <ele>652.3</ele>
        <time>2023-07-13T02:02:56.000+02:00</time>
      </trkpt>
      <trkpt lat="43.30131" lon="-3.64957">
        <ele>652.5</ele>
        <time>2023-07-13T02:02:57.000+02:00</time>
      </trkpt>
      <trkpt lat="43.30125" lon="-3.64956">
        <ele>654</ele>
        <time>2023-07-13T02:02:58.000+02:00</time>
      </trkpt>
      <trkpt lat="43.3012" lon="-3.64958">
        <ele>655.3</ele>
        <time>2023-07-13T02:02:58.000+02:00</time>
      </trkpt>
      <trkpt lat="43.30117" lon="-3.64961">
        <ele>656.3</ele>
        <time>2023-07-13T02:02:59.000+02:00</time>
      </trkpt>
      <trkpt lat="43.30113" lon="-3.64968">
        <ele>657.8</ele>
        <time>2023-07-13T02:03:00.000+02:00</time>
      </trkpt>
      <trkpt lat="43.3011" lon="-3.64977">
        <ele>659.3</ele>
        <time>2023-07-13T02:03:01.000+02:00</time>
      </trkpt>
      <trkpt lat="43.30107" lon="-3.65">
        <ele>662.3</ele>
        <time>2023-07-13T02:03:04.000+02:00</time>
      </trkpt>
      <trkpt lat="43.301" lon="-3.65049">
        <ele>665</ele>
        <time>2023-07-13T02:03:09.000+02:00</time>
      </trkpt>
      <trkpt lat="43.30094" lon="-3.65092">
        <ele>666.8</ele>
        <time>2023-07-13T02:03:14.000+02:00</time>
      </trkpt>
      <trkpt lat="43.30087" lon="-3.6512">
        <ele>666</ele>
        <time>2023-07-13T02:03:17.000+02:00</time>
      </trkpt>
      <trkpt lat="43.30079" lon="-3.65142">
        <ele>665</ele>
        <time>2023-07-13T02:03:20.000+02:00</time>
      </trkpt>
      <trkpt lat="43.30075" lon="-3.65148">
        <ele>664.3</ele>
        <time>2023-07-13T02:03:21.000+02:00</time>
      </trkpt>
      <trkpt lat="43.30069" lon="-3.65156">
        <ele>663.5</ele>
        <time>2023-07-13T02:03:22.000+02:00</time>
      </trkpt>
      <trkpt lat="43.30064" lon="-3.6516">
        <ele>663</ele>
        <time>2023-07-13T02:03:23.000+02:00</time>
      </trkpt>
      <trkpt lat="43.30058" lon="-3.65162">
        <ele>662.5</ele>
        <time>2023-07-13T02:03:24.000+02:00</time>
      </trkpt>
      <trkpt lat="43.3005" lon="-3.65162">
        <ele>662.3</ele>
        <time>2023-07-13T02:03:25.000+02:00</time>
      </trkpt>
      <trkpt lat="43.30044" lon="-3.65159">
        <ele>662.5</ele>
        <time>2023-07-13T02:03:26.000+02:00</time>
      </trkpt>
      <trkpt lat="43.30036" lon="-3.65153">
        <ele>663.3</ele>
        <time>2023-07-13T02:03:28.000+02:00</time>
      </trkpt>
      <trkpt lat="43.30032" lon="-3.65149">
        <ele>663.8</ele>
        <time>2023-07-13T02:03:29.000+02:00</time>
      </trkpt>
      <trkpt lat="43.30019" lon="-3.65135">
        <ele>665.8</ele>
        <time>2023-07-13T02:03:32.000+02:00</time>
      </trkpt>
      <trkpt lat="43.30004" lon="-3.65125">
        <ele>667.8</ele>
        <time>2023-07-13T02:03:34.000+02:00</time>
      </trkpt>
      <trkpt lat="43.29991" lon="-3.65116">
        <ele>668.3</ele>
        <time>2023-07-13T02:03:37.000+02:00</time>
      </trkpt>
      <trkpt lat="43.299" lon="-3.65059">
        <ele>667.5</ele>
        <time>2023-07-13T02:03:52.000+02:00</time>
      </trkpt>
      <trkpt lat="43.29886" lon="-3.65048">
        <ele>665.8</ele>
        <time>2023-07-13T02:03:54.000+02:00</time>
      </trkpt>
      <trkpt lat="43.29867" lon="-3.65028">
        <ele>664.8</ele>
        <time>2023-07-13T02:03:58.000+02:00</time>
      </trkpt>
      <trkpt lat="43.29838" lon="-3.6499">
        <ele>664.5</ele>
        <time>2023-07-13T02:04:04.000+02:00</time>
      </trkpt>
      <trkpt lat="43.29827" lon="-3.64973">
        <ele>663.8</ele>
        <time>2023-07-13T02:04:07.000+02:00</time>
      </trkpt>
      <trkpt lat="43.29819" lon="-3.64958">
        <ele>664</ele>
        <time>2023-07-13T02:04:09.000+02:00</time>
      </trkpt>
      <trkpt lat="43.29805" lon="-3.64926">
        <ele>665.8</ele>
        <time>2023-07-13T02:04:13.000+02:00</time>
      </trkpt>
      <trkpt lat="43.29796" lon="-3.64904">
        <ele>667.3</ele>
        <time>2023-07-13T02:04:16.000+02:00</time>
      </trkpt>
      <trkpt lat="43.29793" lon="-3.64899">
        <ele>667.3</ele>
        <time>2023-07-13T02:04:17.000+02:00</time>
      </trkpt>
      <trkpt lat="43.29786" lon="-3.6489">
        <ele>667.3</ele>
        <time>2023-07-13T02:04:18.000+02:00</time>
      </trkpt>
      <trkpt lat="43.29777" lon="-3.64885">
        <ele>666.5</ele>
        <time>2023-07-13T02:04:19.000+02:00</time>
      </trkpt>
      <trkpt lat="43.29768" lon="-3.64884">
        <ele>665</ele>
        <time>2023-07-13T02:04:21.000+02:00</time>
      </trkpt>
      <trkpt lat="43.29756" lon="-3.64887">
        <ele>662.3</ele>
        <time>2023-07-13T02:04:23.000+02:00</time>
      </trkpt>
      <trkpt lat="43.29671" lon="-3.64929">
        <ele>649.5</ele>
        <time>2023-07-13T02:04:37.000+02:00</time>
      </trkpt>
      <trkpt lat="43.2966" lon="-3.64933">
        <ele>647</ele>
        <time>2023-07-13T02:04:38.000+02:00</time>
      </trkpt>
      <trkpt lat="43.29652" lon="-3.64932">
        <ele>646</ele>
        <time>2023-07-13T02:04:39.000+02:00</time>
      </trkpt>
      <trkpt lat="43.29645" lon="-3.6493">
        <ele>645.3</ele>
        <time>2023-07-13T02:04:41.000+02:00</time>
      </trkpt>
      <trkpt lat="43.29636" lon="-3.64922">
        <ele>645.8</ele>
        <time>2023-07-13T02:04:42.000+02:00</time>
      </trkpt>
      <trkpt lat="43.29629" lon="-3.64907">
        <ele>647.8</ele>
        <time>2023-07-13T02:04:44.000+02:00</time>
      </trkpt>
      <trkpt lat="43.29623" lon="-3.64889">
        <ele>650</ele>
        <time>2023-07-13T02:04:46.000+02:00</time>
      </trkpt>
      <trkpt lat="43.29608" lon="-3.64855">
        <ele>653.5</ele>
        <time>2023-07-13T02:04:51.000+02:00</time>
      </trkpt>
      <trkpt lat="43.29599" lon="-3.64844">
        <ele>653.5</ele>
        <time>2023-07-13T02:04:53.000+02:00</time>
      </trkpt>
      <trkpt lat="43.29588" lon="-3.64834">
        <ele>652.8</ele>
        <time>2023-07-13T02:04:55.000+02:00</time>
      </trkpt>
      <trkpt lat="43.29576" lon="-3.64826">
        <ele>653</ele>
        <time>2023-07-13T02:04:57.000+02:00</time>
      </trkpt>
      <trkpt lat="43.29562" lon="-3.6482">
        <ele>653</ele>
        <time>2023-07-13T02:04:59.000+02:00</time>
      </trkpt>
      <trkpt lat="43.29545" lon="-3.64819">
        <ele>651.8</ele>
        <time>2023-07-13T02:05:02.000+02:00</time>
      </trkpt>
      <trkpt lat="43.29536" lon="-3.64823">
        <ele>650.3</ele>
        <time>2023-07-13T02:05:03.000+02:00</time>
      </trkpt>
      <trkpt lat="43.29526" lon="-3.64831">
        <ele>648.3</ele>
        <time>2023-07-13T02:05:05.000+02:00</time>
      </trkpt>
      <trkpt lat="43.29521" lon="-3.64837">
        <ele>646.8</ele>
        <time>2023-07-13T02:05:06.000+02:00</time>
      </trkpt>
      <trkpt lat="43.29507" lon="-3.64859">
        <ele>641.5</ele>
        <time>2023-07-13T02:05:09.000+02:00</time>
      </trkpt>
      <trkpt lat="43.29501" lon="-3.64865">
        <ele>640</ele>
        <time>2023-07-13T02:05:10.000+02:00</time>
      </trkpt>
      <trkpt lat="43.29494" lon="-3.64869">
        <ele>638</ele>
        <time>2023-07-13T02:05:11.000+02:00</time>
      </trkpt>
      <trkpt lat="43.29481" lon="-3.64869">
        <ele>636</ele>
        <time>2023-07-13T02:05:13.000+02:00</time>
      </trkpt>
      <trkpt lat="43.29476" lon="-3.64866">
        <ele>635.5</ele>
        <time>2023-07-13T02:05:14.000+02:00</time>
      </trkpt>
      <trkpt lat="43.29471" lon="-3.64862">
        <ele>635.3</ele>
        <time>2023-07-13T02:05:15.000+02:00</time>
      </trkpt>
      <trkpt lat="43.29467" lon="-3.64856">
        <ele>635.5</ele>
        <time>2023-07-13T02:05:16.000+02:00</time>
      </trkpt>
      <trkpt lat="43.29464" lon="-3.64849">
        <ele>636</ele>
        <time>2023-07-13T02:05:17.000+02:00</time>
      </trkpt>
      <trkpt lat="43.29461" lon="-3.6484">
        <ele>637</ele>
        <time>2023-07-13T02:05:18.000+02:00</time>
      </trkpt>
      <trkpt lat="43.29457" lon="-3.6481">
        <ele>641.3</ele>
        <time>2023-07-13T02:05:21.000+02:00</time>
      </trkpt>
      <trkpt lat="43.29454" lon="-3.64799">
        <ele>642.8</ele>
        <time>2023-07-13T02:05:23.000+02:00</time>
      </trkpt>
      <trkpt lat="43.29449" lon="-3.64789">
        <ele>643.8</ele>
        <time>2023-07-13T02:05:24.000+02:00</time>
      </trkpt>
      <trkpt lat="43.29436" lon="-3.64773">
        <ele>644.3</ele>
        <time>2023-07-13T02:05:27.000+02:00</time>
      </trkpt>
      <trkpt lat="43.29424" lon="-3.64759">
        <ele>644.5</ele>
        <time>2023-07-13T02:05:29.000+02:00</time>
      </trkpt>
      <trkpt lat="43.29419" lon="-3.64751">
        <ele>645</ele>
        <time>2023-07-13T02:05:30.000+02:00</time>
      </trkpt>
      <trkpt lat="43.29415" lon="-3.64741">
        <ele>646.5</ele>
        <time>2023-07-13T02:05:32.000+02:00</time>
      </trkpt>
      <trkpt lat="43.29404" lon="-3.64701">
        <ele>654.3</ele>
        <time>2023-07-13T02:05:36.000+02:00</time>
      </trkpt>
      <trkpt lat="43.29399" lon="-3.64692">
        <ele>655.8</ele>
        <time>2023-07-13T02:05:38.000+02:00</time>
      </trkpt>
      <trkpt lat="43.29393" lon="-3.64684">
        <ele>656.8</ele>
        <time>2023-07-13T02:05:39.000+02:00</time>
      </trkpt>
      <trkpt lat="43.29379" lon="-3.64678">
        <ele>657.3</ele>
        <time>2023-07-13T02:05:41.000+02:00</time>
      </trkpt>
      <trkpt lat="43.29371" lon="-3.64678">
        <ele>656.8</ele>
        <time>2023-07-13T02:05:42.000+02:00</time>
      </trkpt>
      <trkpt lat="43.2936" lon="-3.64682">
        <ele>655.3</ele>
        <time>2023-07-13T02:05:44.000+02:00</time>
      </trkpt>
      <trkpt lat="43.29353" lon="-3.64688">
        <ele>653.8</ele>
        <time>2023-07-13T02:05:45.000+02:00</time>
      </trkpt>
      <trkpt lat="43.29347" lon="-3.64694">
        <ele>652</ele>
        <time>2023-07-13T02:05:46.000+02:00</time>
      </trkpt>
      <trkpt lat="43.29342" lon="-3.64708">
        <ele>649</ele>
        <time>2023-07-13T02:05:48.000+02:00</time>
      </trkpt>
      <trkpt lat="43.29326" lon="-3.64754">
        <ele>639.5</ele>
        <time>2023-07-13T02:05:54.000+02:00</time>
      </trkpt>
      <trkpt lat="43.29318" lon="-3.64784">
        <ele>636.3</ele>
        <time>2023-07-13T02:05:57.000+02:00</time>
      </trkpt>
      <trkpt lat="43.29313" lon="-3.64822">
        <ele>631.8</ele>
        <time>2023-07-13T02:06:02.000+02:00</time>
      </trkpt>
      <trkpt lat="43.29306" lon="-3.64834">
        <ele>629.8</ele>
        <time>2023-07-13T02:06:03.000+02:00</time>
      </trkpt>
      <trkpt lat="43.293" lon="-3.64837">
        <ele>629</ele>
        <time>2023-07-13T02:06:04.000+02:00</time>
      </trkpt>
      <trkpt lat="43.29296" lon="-3.64837">
        <ele>628.8</ele>
        <time>2023-07-13T02:06:05.000+02:00</time>
      </trkpt>
      <trkpt lat="43.2929" lon="-3.64836">
        <ele>628.5</ele>
        <time>2023-07-13T02:06:06.000+02:00</time>
      </trkpt>
      <trkpt lat="43.29282" lon="-3.64829">
        <ele>628.8</ele>
        <time>2023-07-13T02:06:07.000+02:00</time>
      </trkpt>
      <trkpt lat="43.29269" lon="-3.64812">
        <ele>630.5</ele>
        <time>2023-07-13T02:06:10.000+02:00</time>
      </trkpt>
      <trkpt lat="43.29258" lon="-3.64803">
        <ele>631.5</ele>
        <time>2023-07-13T02:06:12.000+02:00</time>
      </trkpt>
      <trkpt lat="43.29246" lon="-3.64794">
        <ele>631.5</ele>
        <time>2023-07-13T02:06:14.000+02:00</time>
      </trkpt>
      <trkpt lat="43.29205" lon="-3.64772">
        <ele>626.3</ele>
        <time>2023-07-13T02:06:21.000+02:00</time>
      </trkpt>
      <trkpt lat="43.29179" lon="-3.64759">
        <ele>623.3</ele>
        <time>2023-07-13T02:06:25.000+02:00</time>
      </trkpt>
      <trkpt lat="43.29151" lon="-3.64748">
        <ele>622</ele>
        <time>2023-07-13T02:06:30.000+02:00</time>
      </trkpt>
      <trkpt lat="43.29128" lon="-3.64743">
        <ele>621</ele>
        <time>2023-07-13T02:06:33.000+02:00</time>
      </trkpt>
      <trkpt lat="43.29113" lon="-3.64742">
        <ele>619.8</ele>
        <time>2023-07-13T02:06:35.000+02:00</time>
      </trkpt>
      <trkpt lat="43.29063" lon="-3.64745">
        <ele>612.3</ele>
        <time>2023-07-13T02:06:43.000+02:00</time>
      </trkpt>
      <trkpt lat="43.29029" lon="-3.64738">
        <ele>608.5</ele>
        <time>2023-07-13T02:06:48.000+02:00</time>
      </trkpt>
      <trkpt lat="43.29009" lon="-3.64732">
        <ele>606.5</ele>
        <time>2023-07-13T02:06:51.000+02:00</time>
      </trkpt>
      <trkpt lat="43.28999" lon="-3.64726">
        <ele>606.3</ele>
        <time>2023-07-13T02:06:53.000+02:00</time>
      </trkpt>
      <trkpt lat="43.28992" lon="-3.64719">
        <ele>606.5</ele>
        <time>2023-07-13T02:06:54.000+02:00</time>
      </trkpt>
      <trkpt lat="43.28986" lon="-3.6471">
        <ele>607</ele>
        <time>2023-07-13T02:06:56.000+02:00</time>
      </trkpt>
      <trkpt lat="43.2897" lon="-3.64666">
        <ele>612.8</ele>
        <time>2023-07-13T02:07:01.000+02:00</time>
      </trkpt>
      <trkpt lat="43.28958" lon="-3.64651">
        <ele>612</ele>
        <time>2023-07-13T02:07:04.000+02:00</time>
      </trkpt>
      <trkpt lat="43.2895" lon="-3.64644">
        <ele>611.5</ele>
        <time>2023-07-13T02:07:05.000+02:00</time>
      </trkpt>
      <trkpt lat="43.28943" lon="-3.64638">
        <ele>610.8</ele>
        <time>2023-07-13T02:07:06.000+02:00</time>
      </trkpt>
      <trkpt lat="43.28927" lon="-3.64627">
        <ele>609.5</ele>
        <time>2023-07-13T02:07:09.000+02:00</time>
      </trkpt>
      <trkpt lat="43.28916" lon="-3.64623">
        <ele>608.3</ele>
        <time>2023-07-13T02:07:11.000+02:00</time>
      </trkpt>
      <trkpt lat="43.28908" lon="-3.64622">
        <ele>609.3</ele>
        <time>2023-07-13T02:07:12.000+02:00</time>
      </trkpt>
      <trkpt lat="43.28898" lon="-3.64623">
        <ele>610</ele>
        <time>2023-07-13T02:07:14.000+02:00</time>
      </trkpt>
      <trkpt lat="43.28891" lon="-3.64624">
        <ele>610.3</ele>
        <time>2023-07-13T02:07:15.000+02:00</time>
      </trkpt>
      <trkpt lat="43.28884" lon="-3.64628">
        <ele>610.3</ele>
        <time>2023-07-13T02:07:16.000+02:00</time>
      </trkpt>
      <trkpt lat="43.28865" lon="-3.64644">
        <ele>609.3</ele>
        <time>2023-07-13T02:07:19.000+02:00</time>
      </trkpt>
      <trkpt lat="43.28843" lon="-3.64679">
        <ele>605</ele>
        <time>2023-07-13T02:07:24.000+02:00</time>
      </trkpt>
      <trkpt lat="43.28838" lon="-3.64688">
        <ele>603.3</ele>
        <time>2023-07-13T02:07:26.000+02:00</time>
      </trkpt>
      <trkpt lat="43.28821" lon="-3.6473">
        <ele>594.5</ele>
        <time>2023-07-13T02:07:31.000+02:00</time>
      </trkpt>
      <trkpt lat="43.28816" lon="-3.64739">
        <ele>592.5</ele>
        <time>2023-07-13T02:07:32.000+02:00</time>
      </trkpt>
      <trkpt lat="43.28811" lon="-3.64746">
        <ele>591.3</ele>
        <time>2023-07-13T02:07:33.000+02:00</time>
      </trkpt>
      <trkpt lat="43.28799" lon="-3.64755">
        <ele>590</ele>
        <time>2023-07-13T02:07:35.000+02:00</time>
      </trkpt>
      <trkpt lat="43.28779" lon="-3.64767">
        <ele>588.5</ele>
        <time>2023-07-13T02:07:39.000+02:00</time>
      </trkpt>
      <trkpt lat="43.28743" lon="-3.64782">
        <ele>585.3</ele>
        <time>2023-07-13T02:07:44.000+02:00</time>
      </trkpt>
      <trkpt lat="43.28724" lon="-3.64789">
        <ele>581.8</ele>
        <time>2023-07-13T02:07:48.000+02:00</time>
      </trkpt>
      <trkpt lat="43.2871" lon="-3.64789">
        <ele>580.5</ele>
        <time>2023-07-13T02:07:50.000+02:00</time>
      </trkpt>
      <trkpt lat="43.28703" lon="-3.64788">
        <ele>580.3</ele>
        <time>2023-07-13T02:07:51.000+02:00</time>
      </trkpt>
      <trkpt lat="43.28695" lon="-3.64785">
        <ele>580.5</ele>
        <time>2023-07-13T02:07:52.000+02:00</time>
      </trkpt>
      <trkpt lat="43.28679" lon="-3.64775">
        <ele>582</ele>
        <time>2023-07-13T02:07:55.000+02:00</time>
      </trkpt>
      <trkpt lat="43.28674" lon="-3.64773">
        <ele>582.3</ele>
        <time>2023-07-13T02:07:56.000+02:00</time>
      </trkpt>
      <trkpt lat="43.28669" lon="-3.64774">
        <ele>581.5</ele>
        <time>2023-07-13T02:07:57.000+02:00</time>
      </trkpt>
      <trkpt lat="43.28666" lon="-3.64778">
        <ele>579.8</ele>
        <time>2023-07-13T02:07:58.000+02:00</time>
      </trkpt>
      <trkpt lat="43.28665" lon="-3.64785">
        <ele>577.3</ele>
        <time>2023-07-13T02:07:59.000+02:00</time>
      </trkpt>
      <trkpt lat="43.28666" lon="-3.64789">
        <ele>576.3</ele>
        <time>2023-07-13T02:07:59.000+02:00</time>
      </trkpt>
      <trkpt lat="43.2867" lon="-3.64794">
        <ele>575.5</ele>
        <time>2023-07-13T02:08:00.000+02:00</time>
      </trkpt>
      <trkpt lat="43.28677" lon="-3.64799">
        <ele>574.8</ele>
        <time>2023-07-13T02:08:01.000+02:00</time>
      </trkpt>
      <trkpt lat="43.28715" lon="-3.64813">
        <ele>574.3</ele>
        <time>2023-07-13T02:08:07.000+02:00</time>
      </trkpt>
      <trkpt lat="43.28799" lon="-3.64824">
        <ele>577.5</ele>
        <time>2023-07-13T02:08:20.000+02:00</time>
      </trkpt>
      <trkpt lat="43.28808" lon="-3.64828">
        <ele>577.3</ele>
        <time>2023-07-13T02:08:21.000+02:00</time>
      </trkpt>
      <trkpt lat="43.28813" lon="-3.64832">
        <ele>576.8</ele>
        <time>2023-07-13T02:08:22.000+02:00</time>
      </trkpt>
      <trkpt lat="43.28818" lon="-3.6484">
        <ele>575.5</ele>
        <time>2023-07-13T02:08:23.000+02:00</time>
      </trkpt>
      <trkpt lat="43.28821" lon="-3.64847">
        <ele>574.3</ele>
        <time>2023-07-13T02:08:24.000+02:00</time>
      </trkpt>
      <trkpt lat="43.28826" lon="-3.64869">
        <ele>570</ele>
        <time>2023-07-13T02:08:27.000+02:00</time>
      </trkpt>
      <trkpt lat="43.2883" lon="-3.64881">
        <ele>567.8</ele>
        <time>2023-07-13T02:08:28.000+02:00</time>
      </trkpt>
      <trkpt lat="43.28835" lon="-3.64892">
        <ele>566.3</ele>
        <time>2023-07-13T02:08:30.000+02:00</time>
      </trkpt>
      <trkpt lat="43.28843" lon="-3.64903">
        <ele>565</ele>
        <time>2023-07-13T02:08:32.000+02:00</time>
      </trkpt>
      <trkpt lat="43.28914" lon="-3.64954">
        <ele>561.8</ele>
        <time>2023-07-13T02:08:44.000+02:00</time>
      </trkpt>
      <trkpt lat="43.28935" lon="-3.64973">
        <ele>559.3</ele>
        <time>2023-07-13T02:08:48.000+02:00</time>
      </trkpt>
      <trkpt lat="43.28967" lon="-3.65011">
        <ele>554.5</ele>
        <time>2023-07-13T02:08:54.000+02:00</time>
      </trkpt>
      <trkpt lat="43.28984" lon="-3.65027">
        <ele>553.3</ele>
        <time>2023-07-13T02:08:57.000+02:00</time>
      </trkpt>
      <trkpt lat="43.29038" lon="-3.65063">
        <ele>551.3</ele>
        <time>2023-07-13T02:09:06.000+02:00</time>
      </trkpt>
      <trkpt lat="43.29066" lon="-3.65082">
        <ele>550.5</ele>
        <time>2023-07-13T02:09:11.000+02:00</time>
      </trkpt>
      <trkpt lat="43.29075" lon="-3.65087">
        <ele>550.5</ele>
        <time>2023-07-13T02:09:13.000+02:00</time>
      </trkpt>
      <trkpt lat="43.29093" lon="-3.65091">
        <ele>552.5</ele>
        <time>2023-07-13T02:09:16.000+02:00</time>
      </trkpt>
      <trkpt lat="43.29096" lon="-3.65094">
        <ele>552.3</ele>
        <time>2023-07-13T02:09:17.000+02:00</time>
      </trkpt>
      <trkpt lat="43.29098" lon="-3.65097">
        <ele>551.8</ele>
        <time>2023-07-13T02:09:17.000+02:00</time>
      </trkpt>
      <trkpt lat="43.29098" lon="-3.65102">
        <ele>550.5</ele>
        <time>2023-07-13T02:09:18.000+02:00</time>
      </trkpt>
      <trkpt lat="43.29117" lon="-3.65094">
        <ele>556.3</ele>
        <time>2023-07-13T02:09:21.000+02:00</time>
      </trkpt>
      <trkpt lat="43.29121" lon="-3.65094">
        <ele>557</ele>
        <time>2023-07-13T02:09:22.000+02:00</time>
      </trkpt>
      <trkpt lat="43.29124" lon="-3.65095">
        <ele>557</ele>
        <time>2023-07-13T02:09:23.000+02:00</time>
      </trkpt>
      <trkpt lat="43.29127" lon="-3.65099">
        <ele>556.8</ele>
        <time>2023-07-13T02:09:24.000+02:00</time>
      </trkpt>
      <trkpt lat="43.29128" lon="-3.65107">
        <ele>555.3</ele>
        <time>2023-07-13T02:09:25.000+02:00</time>
      </trkpt>
      <trkpt lat="43.29134" lon="-3.65155">
        <ele>545.3</ele>
        <time>2023-07-13T02:09:30.000+02:00</time>
      </trkpt>
      <trkpt lat="43.29137" lon="-3.65182">
        <ele>539.3</ele>
        <time>2023-07-13T02:09:33.000+02:00</time>
      </trkpt>
      <trkpt lat="43.29137" lon="-3.65194">
        <ele>536.5</ele>
        <time>2023-07-13T02:09:34.000+02:00</time>
      </trkpt>
      <trkpt lat="43.2914" lon="-3.65205">
        <ele>534.5</ele>
        <time>2023-07-13T02:09:36.000+02:00</time>
      </trkpt>
      <trkpt lat="43.29149" lon="-3.65232">
        <ele>531.5</ele>
        <time>2023-07-13T02:09:39.000+02:00</time>
      </trkpt>
      <trkpt lat="43.29166" lon="-3.65277">
        <ele>528</ele>
        <time>2023-07-13T02:09:45.000+02:00</time>
      </trkpt>
      <trkpt lat="43.29167" lon="-3.65284">
        <ele>527</ele>
        <time>2023-07-13T02:09:46.000+02:00</time>
      </trkpt>
      <trkpt lat="43.29167" lon="-3.65289">
        <ele>525.8</ele>
        <time>2023-07-13T02:09:47.000+02:00</time>
      </trkpt>
      <trkpt lat="43.29159" lon="-3.65318">
        <ele>516</ele>
        <time>2023-07-13T02:09:50.000+02:00</time>
      </trkpt>
      <trkpt lat="43.29157" lon="-3.6533">
        <ele>512.3</ele>
        <time>2023-07-13T02:09:52.000+02:00</time>
      </trkpt>
      <trkpt lat="43.29158" lon="-3.65344">
        <ele>509.5</ele>
        <time>2023-07-13T02:09:53.000+02:00</time>
      </trkpt>
      <trkpt lat="43.2916" lon="-3.65357">
        <ele>507.5</ele>
        <time>2023-07-13T02:09:55.000+02:00</time>
      </trkpt>
      <trkpt lat="43.29166" lon="-3.65367">
        <ele>507.5</ele>
        <time>2023-07-13T02:09:56.000+02:00</time>
      </trkpt>
      <trkpt lat="43.29181" lon="-3.6538">
        <ele>508</ele>
        <time>2023-07-13T02:09:59.000+02:00</time>
      </trkpt>
      <trkpt lat="43.29202" lon="-3.65391">
        <ele>509.5</ele>
        <time>2023-07-13T02:10:02.000+02:00</time>
      </trkpt>
      <trkpt lat="43.29245" lon="-3.65428">
        <ele>507.5</ele>
        <time>2023-07-13T02:10:10.000+02:00</time>
      </trkpt>
      <trkpt lat="43.29253" lon="-3.65436">
        <ele>506.8</ele>
        <time>2023-07-13T02:10:12.000+02:00</time>
      </trkpt>
      <trkpt lat="43.29257" lon="-3.65443">
        <ele>505.5</ele>
        <time>2023-07-13T02:10:13.000+02:00</time>
      </trkpt>
      <trkpt lat="43.29262" lon="-3.65454">
        <ele>503.3</ele>
        <time>2023-07-13T02:10:14.000+02:00</time>
      </trkpt>
      <trkpt lat="43.29268" lon="-3.65463">
        <ele>502</ele>
        <time>2023-07-13T02:10:16.000+02:00</time>
      </trkpt>
      <trkpt lat="43.29283" lon="-3.65476">
        <ele>500.5</ele>
        <time>2023-07-13T02:10:18.000+02:00</time>
      </trkpt>
      <trkpt lat="43.29289" lon="-3.65483">
        <ele>499.3</ele>
        <time>2023-07-13T02:10:19.000+02:00</time>
      </trkpt>
      <trkpt lat="43.29294" lon="-3.65491">
        <ele>498</ele>
        <time>2023-07-13T02:10:20.000+02:00</time>
      </trkpt>
      <trkpt lat="43.29299" lon="-3.65496">
        <ele>497.3</ele>
        <time>2023-07-13T02:10:22.000+02:00</time>
      </trkpt>
      <trkpt lat="43.29308" lon="-3.655">
        <ele>497</ele>
        <time>2023-07-13T02:10:23.000+02:00</time>
      </trkpt>
      <trkpt lat="43.29316" lon="-3.65503">
        <ele>497.3</ele>
        <time>2023-07-13T02:10:24.000+02:00</time>
      </trkpt>
      <trkpt lat="43.29322" lon="-3.65503">
        <ele>498</ele>
        <time>2023-07-13T02:10:25.000+02:00</time>
      </trkpt>
      <trkpt lat="43.2933" lon="-3.65501">
        <ele>499.3</ele>
        <time>2023-07-13T02:10:26.000+02:00</time>
      </trkpt>
      <trkpt lat="43.29341" lon="-3.65497">
        <ele>501</ele>
        <time>2023-07-13T02:10:28.000+02:00</time>
      </trkpt>
      <trkpt lat="43.29354" lon="-3.65494">
        <ele>502.3</ele>
        <time>2023-07-13T02:10:30.000+02:00</time>
      </trkpt>
      <trkpt lat="43.29367" lon="-3.65495">
        <ele>502.3</ele>
        <time>2023-07-13T02:10:32.000+02:00</time>
      </trkpt>
      <trkpt lat="43.29418" lon="-3.65496">
        <ele>503.8</ele>
        <time>2023-07-13T02:10:40.000+02:00</time>
      </trkpt>
      <trkpt lat="43.29451" lon="-3.65494">
        <ele>504.8</ele>
        <time>2023-07-13T02:10:45.000+02:00</time>
      </trkpt>
      <trkpt lat="43.29474" lon="-3.65486">
        <ele>506.8</ele>
        <time>2023-07-13T02:10:49.000+02:00</time>
      </trkpt>
      <trkpt lat="43.2952" lon="-3.65475">
        <ele>512</ele>
        <time>2023-07-13T02:10:56.000+02:00</time>
      </trkpt>
      <trkpt lat="43.29524" lon="-3.65476">
        <ele>512.3</ele>
        <time>2023-07-13T02:10:56.000+02:00</time>
      </trkpt>
      <trkpt lat="43.29526" lon="-3.6548">
        <ele>511.8</ele>
        <time>2023-07-13T02:10:57.000+02:00</time>
      </trkpt>
      <trkpt lat="43.29527" lon="-3.65486">
        <ele>510.5</ele>
        <time>2023-07-13T02:10:58.000+02:00</time>
      </trkpt>
      <trkpt lat="43.29526" lon="-3.65495">
        <ele>508.3</ele>
        <time>2023-07-13T02:10:59.000+02:00</time>
      </trkpt>
      <trkpt lat="43.29522" lon="-3.65504">
        <ele>506</ele>
        <time>2023-07-13T02:11:00.000+02:00</time>
      </trkpt>
      <trkpt lat="43.29539" lon="-3.65532">
        <ele>503</ele>
        <time>2023-07-13T02:11:04.000+02:00</time>
      </trkpt>
      <trkpt lat="43.29548" lon="-3.6554">
        <ele>503</ele>
        <time>2023-07-13T02:11:05.000+02:00</time>
      </trkpt>
      <trkpt lat="43.29556" lon="-3.65544">
        <ele>503.3</ele>
        <time>2023-07-13T02:11:07.000+02:00</time>
      </trkpt>
      <trkpt lat="43.29565" lon="-3.65544">
        <ele>504.3</ele>
        <time>2023-07-13T02:11:08.000+02:00</time>
      </trkpt>
      <trkpt lat="43.29572" lon="-3.65543">
        <ele>505.8</ele>
        <time>2023-07-13T02:11:09.000+02:00</time>
      </trkpt>
      <trkpt lat="43.29608" lon="-3.65516">
        <ele>513.5</ele>
        <time>2023-07-13T02:11:15.000+02:00</time>
      </trkpt>
      <trkpt lat="43.29623" lon="-3.6551">
        <ele>515.3</ele>
        <time>2023-07-13T02:11:18.000+02:00</time>
      </trkpt>
      <trkpt lat="43.29643" lon="-3.65506">
        <ele>517</ele>
        <time>2023-07-13T02:11:21.000+02:00</time>
      </trkpt>
      <trkpt lat="43.29657" lon="-3.65507">
        <ele>517.5</ele>
        <time>2023-07-13T02:11:23.000+02:00</time>
      </trkpt>
      <trkpt lat="43.29679" lon="-3.65505">
        <ele>520.8</ele>
        <time>2023-07-13T02:11:26.000+02:00</time>
      </trkpt>
      <trkpt lat="43.29703" lon="-3.65502">
        <ele>525.8</ele>
        <time>2023-07-13T02:11:30.000+02:00</time>
      </trkpt>
      <trkpt lat="43.29706" lon="-3.65504">
        <ele>526.3</ele>
        <time>2023-07-13T02:11:31.000+02:00</time>
      </trkpt>
      <trkpt lat="43.2971" lon="-3.65507">
        <ele>527.3</ele>
        <time>2023-07-13T02:11:32.000+02:00</time>
      </trkpt>
      <trkpt lat="43.29713" lon="-3.65513">
        <ele>527.8</ele>
        <time>2023-07-13T02:11:33.000+02:00</time>
      </trkpt>
      <trkpt lat="43.29714" lon="-3.65521">
        <ele>528</ele>
        <time>2023-07-13T02:11:34.000+02:00</time>
      </trkpt>
      <trkpt lat="43.29714" lon="-3.6553">
        <ele>527.8</ele>
        <time>2023-07-13T02:11:35.000+02:00</time>
      </trkpt>
      <trkpt lat="43.29701" lon="-3.65577">
        <ele>522.8</ele>
        <time>2023-07-13T02:11:40.000+02:00</time>
      </trkpt>
      <trkpt lat="43.29691" lon="-3.65604">
        <ele>520</ele>
        <time>2023-07-13T02:11:44.000+02:00</time>
      </trkpt>
      <trkpt lat="43.29681" lon="-3.65627">
        <ele>517.5</ele>
        <time>2023-07-13T02:11:47.000+02:00</time>
      </trkpt>
      <trkpt lat="43.29668" lon="-3.65647">
        <ele>513.5</ele>
        <time>2023-07-13T02:11:50.000+02:00</time>
      </trkpt>
      <trkpt lat="43.29666" lon="-3.65654">
        <ele>513.3</ele>
        <time>2023-07-13T02:11:51.000+02:00</time>
      </trkpt>
      <trkpt lat="43.29665" lon="-3.6566">
        <ele>513.3</ele>
        <time>2023-07-13T02:11:52.000+02:00</time>
      </trkpt>
      <trkpt lat="43.29669" lon="-3.65667">
        <ele>514.8</ele>
        <time>2023-07-13T02:11:53.000+02:00</time>
      </trkpt>
      <trkpt lat="43.29688" lon="-3.65678">
        <ele>521.8</ele>
        <time>2023-07-13T02:11:56.000+02:00</time>
      </trkpt>
      <trkpt lat="43.29712" lon="-3.65697">
        <ele>530.3</ele>
        <time>2023-07-13T02:12:01.000+02:00</time>
      </trkpt>
      <trkpt lat="43.2972" lon="-3.65708">
        <ele>533</ele>
        <time>2023-07-13T02:12:02.000+02:00</time>
      </trkpt>
      <trkpt lat="43.29723" lon="-3.65718">
        <ele>533.8</ele>
        <time>2023-07-13T02:12:04.000+02:00</time>
      </trkpt>
      <trkpt lat="43.29722" lon="-3.6573">
        <ele>533.3</ele>
        <time>2023-07-13T02:12:05.000+02:00</time>
      </trkpt>
      <trkpt lat="43.29719" lon="-3.65744">
        <ele>532</ele>
        <time>2023-07-13T02:12:07.000+02:00</time>
      </trkpt>
      <trkpt lat="43.29719" lon="-3.65766">
        <ele>531.5</ele>
        <time>2023-07-13T02:12:09.000+02:00</time>
      </trkpt>
      <trkpt lat="43.2972" lon="-3.65806">
        <ele>531</ele>
        <time>2023-07-13T02:12:13.000+02:00</time>
      </trkpt>
      <trkpt lat="43.29724" lon="-3.65865">
        <ele>529.5</ele>
        <time>2023-07-13T02:12:20.000+02:00</time>
      </trkpt>
      <trkpt lat="43.29728" lon="-3.65889">
        <ele>529.3</ele>
        <time>2023-07-13T02:12:23.000+02:00</time>
      </trkpt>
      <trkpt lat="43.29736" lon="-3.65918">
        <ele>530.5</ele>
        <time>2023-07-13T02:12:26.000+02:00</time>
      </trkpt>
      <trkpt lat="43.29742" lon="-3.65933">
        <ele>530.5</ele>
        <time>2023-07-13T02:12:28.000+02:00</time>
      </trkpt>
      <trkpt lat="43.29753" lon="-3.65954">
        <ele>531.8</ele>
        <time>2023-07-13T02:12:31.000+02:00</time>
      </trkpt>
      <trkpt lat="43.29764" lon="-3.65974">
        <ele>533.5</ele>
        <time>2023-07-13T02:12:34.000+02:00</time>
      </trkpt>
      <trkpt lat="43.29779" lon="-3.65998">
        <ele>536.8</ele>
        <time>2023-07-13T02:12:37.000+02:00</time>
      </trkpt>
      <trkpt lat="43.29793" lon="-3.66029">
        <ele>539.3</ele>
        <time>2023-07-13T02:12:41.000+02:00</time>
      </trkpt>
      <trkpt lat="43.29811" lon="-3.66068">
        <ele>541.8</ele>
        <time>2023-07-13T02:12:47.000+02:00</time>
      </trkpt>
      <trkpt lat="43.29825" lon="-3.66095">
        <ele>542.8</ele>
        <time>2023-07-13T02:12:50.000+02:00</time>
      </trkpt>
      <trkpt lat="43.29833" lon="-3.66105">
        <ele>543.5</ele>
        <time>2023-07-13T02:12:52.000+02:00</time>
      </trkpt>
      <trkpt lat="43.29847" lon="-3.66117">
        <ele>545.3</ele>
        <time>2023-07-13T02:12:54.000+02:00</time>
      </trkpt>
      <trkpt lat="43.29859" lon="-3.6613">
        <ele>546</ele>
        <time>2023-07-13T02:12:57.000+02:00</time>
      </trkpt>
      <trkpt lat="43.29861" lon="-3.66136">
        <ele>545.5</ele>
        <time>2023-07-13T02:12:57.000+02:00</time>
      </trkpt>
      <trkpt lat="43.29862" lon="-3.66142">
        <ele>544.5</ele>
        <time>2023-07-13T02:12:58.000+02:00</time>
      </trkpt>
      <trkpt lat="43.29861" lon="-3.6617">
        <ele>538.8</ele>
        <time>2023-07-13T02:13:01.000+02:00</time>
      </trkpt>
      <trkpt lat="43.29862" lon="-3.6618">
        <ele>538</ele>
        <time>2023-07-13T02:13:02.000+02:00</time>
      </trkpt>
      <trkpt lat="43.29866" lon="-3.66188">
        <ele>538.3</ele>
        <time>2023-07-13T02:13:03.000+02:00</time>
      </trkpt>
      <trkpt lat="43.29876" lon="-3.66204">
        <ele>539.5</ele>
        <time>2023-07-13T02:13:06.000+02:00</time>
      </trkpt>
      <trkpt lat="43.2988" lon="-3.66216">
        <ele>539.3</ele>
        <time>2023-07-13T02:13:07.000+02:00</time>
      </trkpt>
      <trkpt lat="43.29874" lon="-3.66241">
        <ele>534.8</ele>
        <time>2023-07-13T02:13:10.000+02:00</time>
      </trkpt>
      <trkpt lat="43.29873" lon="-3.66252">
        <ele>533.5</ele>
        <time>2023-07-13T02:13:11.000+02:00</time>
      </trkpt>
      <trkpt lat="43.29876" lon="-3.66278">
        <ele>534</ele>
        <time>2023-07-13T02:13:14.000+02:00</time>
      </trkpt>
      <trkpt lat="43.29877" lon="-3.66326">
        <ele>533.8</ele>
        <time>2023-07-13T02:13:20.000+02:00</time>
      </trkpt>
      <trkpt lat="43.29877" lon="-3.66353">
        <ele>534.3</ele>
        <time>2023-07-13T02:13:23.000+02:00</time>
      </trkpt>
      <trkpt lat="43.29877" lon="-3.66377">
        <ele>535.5</ele>
        <time>2023-07-13T02:13:25.000+02:00</time>
      </trkpt>
      <trkpt lat="43.29879" lon="-3.66397">
        <ele>536.8</ele>
        <time>2023-07-13T02:13:28.000+02:00</time>
      </trkpt>
      <trkpt lat="43.29878" lon="-3.66412">
        <ele>537</ele>
        <time>2023-07-13T02:13:29.000+02:00</time>
      </trkpt>
      <trkpt lat="43.29879" lon="-3.66437">
        <ele>538.5</ele>
        <time>2023-07-13T02:13:32.000+02:00</time>
      </trkpt>
      <trkpt lat="43.29882" lon="-3.66451">
        <ele>540.3</ele>
        <time>2023-07-13T02:13:34.000+02:00</time>
      </trkpt>
      <trkpt lat="43.29885" lon="-3.66462">
        <ele>542</ele>
        <time>2023-07-13T02:13:35.000+02:00</time>
      </trkpt>
      <trkpt lat="43.2989" lon="-3.6647">
        <ele>544</ele>
        <time>2023-07-13T02:13:36.000+02:00</time>
      </trkpt>
      <trkpt lat="43.29893" lon="-3.66481">
        <ele>545.5</ele>
        <time>2023-07-13T02:13:37.000+02:00</time>
      </trkpt>
      <trkpt lat="43.29896" lon="-3.66506">
        <ele>547.5</ele>
        <time>2023-07-13T02:13:40.000+02:00</time>
      </trkpt>
      <trkpt lat="43.29896" lon="-3.66533">
        <ele>547.5</ele>
        <time>2023-07-13T02:13:43.000+02:00</time>
      </trkpt>
      <trkpt lat="43.29897" lon="-3.66549">
        <ele>548.3</ele>
        <time>2023-07-13T02:13:45.000+02:00</time>
      </trkpt>
      <trkpt lat="43.299" lon="-3.66561">
        <ele>549.5</ele>
        <time>2023-07-13T02:13:46.000+02:00</time>
      </trkpt>
      <trkpt lat="43.29904" lon="-3.66569">
        <ele>551</ele>
        <time>2023-07-13T02:13:48.000+02:00</time>
      </trkpt>
      <trkpt lat="43.29909" lon="-3.66577">
        <ele>552.8</ele>
        <time>2023-07-13T02:13:49.000+02:00</time>
      </trkpt>
      <trkpt lat="43.29912" lon="-3.66588">
        <ele>554</ele>
        <time>2023-07-13T02:13:50.000+02:00</time>
      </trkpt>
      <trkpt lat="43.29907" lon="-3.66623">
        <ele>551.3</ele>
        <time>2023-07-13T02:13:54.000+02:00</time>
      </trkpt>
      <trkpt lat="43.29907" lon="-3.66637">
        <ele>550.8</ele>
        <time>2023-07-13T02:13:56.000+02:00</time>
      </trkpt>
      <trkpt lat="43.29907" lon="-3.66651">
        <ele>550.5</ele>
        <time>2023-07-13T02:13:57.000+02:00</time>
      </trkpt>
      <trkpt lat="43.29914" lon="-3.66677">
        <ele>553.5</ele>
        <time>2023-07-13T02:14:00.000+02:00</time>
      </trkpt>
      <trkpt lat="43.29925" lon="-3.66707">
        <ele>561.3</ele>
        <time>2023-07-13T02:14:04.000+02:00</time>
      </trkpt>
      <trkpt lat="43.29927" lon="-3.66715">
        <ele>562.8</ele>
        <time>2023-07-13T02:14:05.000+02:00</time>
      </trkpt>
      <trkpt lat="43.29926" lon="-3.66722">
        <ele>563.5</ele>
        <time>2023-07-13T02:14:06.000+02:00</time>
      </trkpt>
      <trkpt lat="43.29923" lon="-3.66728">
        <ele>562.8</ele>
        <time>2023-07-13T02:14:07.000+02:00</time>
      </trkpt>
      <trkpt lat="43.29915" lon="-3.66732">
        <ele>560.5</ele>
        <time>2023-07-13T02:14:09.000+02:00</time>
      </trkpt>
      <trkpt lat="43.29904" lon="-3.66739">
        <ele>560</ele>
        <time>2023-07-13T02:14:11.000+02:00</time>
      </trkpt>
      <trkpt lat="43.29892" lon="-3.66749">
        <ele>560.5</ele>
        <time>2023-07-13T02:14:13.000+02:00</time>
      </trkpt>
      <trkpt lat="43.29882" lon="-3.66753">
        <ele>560</ele>
        <time>2023-07-13T02:14:14.000+02:00</time>
      </trkpt>
      <trkpt lat="43.29859" lon="-3.66755">
        <ele>558.3</ele>
        <time>2023-07-13T02:14:18.000+02:00</time>
      </trkpt>
      <trkpt lat="43.29846" lon="-3.66758">
        <ele>557.8</ele>
        <time>2023-07-13T02:14:20.000+02:00</time>
      </trkpt>
      <trkpt lat="43.2983" lon="-3.66764">
        <ele>557.3</ele>
        <time>2023-07-13T02:14:22.000+02:00</time>
      </trkpt>
      <trkpt lat="43.29809" lon="-3.66777">
        <ele>557.3</ele>
        <time>2023-07-13T02:14:26.000+02:00</time>
      </trkpt>
      <trkpt lat="43.29807" lon="-3.66784">
        <ele>558.3</ele>
        <time>2023-07-13T02:14:27.000+02:00</time>
      </trkpt>
      <trkpt lat="43.29806" lon="-3.66795">
        <ele>559.8</ele>
        <time>2023-07-13T02:14:28.000+02:00</time>
      </trkpt>
      <trkpt lat="43.29804" lon="-3.6682">
        <ele>563.3</ele>
        <time>2023-07-13T02:14:31.000+02:00</time>
      </trkpt>
      <trkpt lat="43.29798" lon="-3.66837">
        <ele>564.5</ele>
        <time>2023-07-13T02:14:33.000+02:00</time>
      </trkpt>
      <trkpt lat="43.29787" lon="-3.66864">
        <ele>564.5</ele>
        <time>2023-07-13T02:14:36.000+02:00</time>
      </trkpt>
      <trkpt lat="43.29767" lon="-3.66895">
        <ele>562.8</ele>
        <time>2023-07-13T02:14:41.000+02:00</time>
      </trkpt>
      <trkpt lat="43.29763" lon="-3.66901">
        <ele>562.5</ele>
        <time>2023-07-13T02:14:42.000+02:00</time>
      </trkpt>
      <trkpt lat="43.29757" lon="-3.66914">
        <ele>562.3</ele>
        <time>2023-07-13T02:14:44.000+02:00</time>
      </trkpt>
      <trkpt lat="43.29749" lon="-3.6693">
        <ele>562.3</ele>
        <time>2023-07-13T02:14:46.000+02:00</time>
      </trkpt>
      <trkpt lat="43.29742" lon="-3.66935">
        <ele>561.5</ele>
        <time>2023-07-13T02:14:47.000+02:00</time>
      </trkpt>
      <trkpt lat="43.29731" lon="-3.66946">
        <ele>560.3</ele>
        <time>2023-07-13T02:14:49.000+02:00</time>
      </trkpt>
      <trkpt lat="43.29727" lon="-3.66953">
        <ele>560.5</ele>
        <time>2023-07-13T02:14:50.000+02:00</time>
      </trkpt>
      <trkpt lat="43.29724" lon="-3.66962">
        <ele>561</ele>
        <time>2023-07-13T02:14:51.000+02:00</time>
      </trkpt>
      <trkpt lat="43.29716" lon="-3.66991">
        <ele>563.8</ele>
        <time>2023-07-13T02:14:55.000+02:00</time>
      </trkpt>
      <trkpt lat="43.2971" lon="-3.67019">
        <ele>567.5</ele>
        <time>2023-07-13T02:14:58.000+02:00</time>
      </trkpt>
      <trkpt lat="43.29704" lon="-3.67036">
        <ele>569.5</ele>
        <time>2023-07-13T02:15:00.000+02:00</time>
      </trkpt>
      <trkpt lat="43.29697" lon="-3.67049">
        <ele>571</ele>
        <time>2023-07-13T02:15:02.000+02:00</time>
      </trkpt>
      <trkpt lat="43.29686" lon="-3.67058">
        <ele>571.5</ele>
        <time>2023-07-13T02:15:04.000+02:00</time>
      </trkpt>
      <trkpt lat="43.2968" lon="-3.6706">
        <ele>571</ele>
        <time>2023-07-13T02:15:05.000+02:00</time>
      </trkpt>
      <trkpt lat="43.29676" lon="-3.67061">
        <ele>570.5</ele>
        <time>2023-07-13T02:15:06.000+02:00</time>
      </trkpt>
      <trkpt lat="43.29659" lon="-3.67061">
        <ele>567.8</ele>
        <time>2023-07-13T02:15:09.000+02:00</time>
      </trkpt>
      <trkpt lat="43.2965" lon="-3.67063">
        <ele>566.8</ele>
        <time>2023-07-13T02:15:10.000+02:00</time>
      </trkpt>
      <trkpt lat="43.29636" lon="-3.67076">
        <ele>567</ele>
        <time>2023-07-13T02:15:13.000+02:00</time>
      </trkpt>
      <trkpt lat="43.29619" lon="-3.67097">
        <ele>569</ele>
        <time>2023-07-13T02:15:16.000+02:00</time>
      </trkpt>
      <trkpt lat="43.29611" lon="-3.67102">
        <ele>569.3</ele>
        <time>2023-07-13T02:15:18.000+02:00</time>
      </trkpt>
      <trkpt lat="43.29603" lon="-3.6711">
        <ele>570</ele>
        <time>2023-07-13T02:15:19.000+02:00</time>
      </trkpt>
      <trkpt lat="43.29587" lon="-3.67127">
        <ele>573</ele>
        <time>2023-07-13T02:15:22.000+02:00</time>
      </trkpt>
      <trkpt lat="43.29582" lon="-3.67134">
        <ele>575</ele>
        <time>2023-07-13T02:15:23.000+02:00</time>
      </trkpt>
      <trkpt lat="43.29575" lon="-3.67141">
        <ele>576.3</ele>
        <time>2023-07-13T02:15:25.000+02:00</time>
      </trkpt>
      <trkpt lat="43.29569" lon="-3.67144">
        <ele>576.8</ele>
        <time>2023-07-13T02:15:26.000+02:00</time>
      </trkpt>
      <trkpt lat="43.29563" lon="-3.67146">
        <ele>576.5</ele>
        <time>2023-07-13T02:15:27.000+02:00</time>
      </trkpt>
      <trkpt lat="43.2955" lon="-3.67149">
        <ele>575.8</ele>
        <time>2023-07-13T02:15:29.000+02:00</time>
      </trkpt>
      <trkpt lat="43.29509" lon="-3.67169">
        <ele>574.8</ele>
        <time>2023-07-13T02:15:35.000+02:00</time>
      </trkpt>
      <trkpt lat="43.29503" lon="-3.67177">
        <ele>575.8</ele>
        <time>2023-07-13T02:15:36.000+02:00</time>
      </trkpt>
      <trkpt lat="43.29486" lon="-3.67198">
        <ele>580.8</ele>
        <time>2023-07-13T02:15:40.000+02:00</time>
      </trkpt>
      <trkpt lat="43.29479" lon="-3.67202">
        <ele>581.8</ele>
        <time>2023-07-13T02:15:41.000+02:00</time>
      </trkpt>
      <trkpt lat="43.29472" lon="-3.67201">
        <ele>582</ele>
        <time>2023-07-13T02:15:42.000+02:00</time>
      </trkpt>
      <trkpt lat="43.29469" lon="-3.67197">
        <ele>581.3</ele>
        <time>2023-07-13T02:15:43.000+02:00</time>
      </trkpt>
      <trkpt lat="43.29468" lon="-3.6717">
        <ele>575.5</ele>
        <time>2023-07-13T02:15:46.000+02:00</time>
      </trkpt>
      <trkpt lat="43.29464" lon="-3.67178">
        <ele>577.5</ele>
        <time>2023-07-13T02:15:47.000+02:00</time>
      </trkpt>
      <trkpt lat="43.29461" lon="-3.67186">
        <ele>579.3</ele>
        <time>2023-07-13T02:15:48.000+02:00</time>
      </trkpt>
      <trkpt lat="43.29461" lon="-3.67198">
        <ele>581.8</ele>
        <time>2023-07-13T02:15:49.000+02:00</time>
      </trkpt>
      <trkpt lat="43.29462" lon="-3.67259">
        <ele>594.3</ele>
        <time>2023-07-13T02:15:56.000+02:00</time>
      </trkpt>
      <trkpt lat="43.29461" lon="-3.67285">
        <ele>598.3</ele>
        <time>2023-07-13T02:15:59.000+02:00</time>
      </trkpt>
      <trkpt lat="43.29459" lon="-3.67305">
        <ele>601.5</ele>
        <time>2023-07-13T02:16:01.000+02:00</time>
      </trkpt>
      <trkpt lat="43.29458" lon="-3.67324">
        <ele>604.5</ele>
        <time>2023-07-13T02:16:03.000+02:00</time>
      </trkpt>
      <trkpt lat="43.29456" lon="-3.67337">
        <ele>606.3</ele>
        <time>2023-07-13T02:16:05.000+02:00</time>
      </trkpt>
      <trkpt lat="43.29452" lon="-3.67353">
        <ele>608.3</ele>
        <time>2023-07-13T02:16:07.000+02:00</time>
      </trkpt>
      <trkpt lat="43.29445" lon="-3.67366">
        <ele>609.5</ele>
        <time>2023-07-13T02:16:08.000+02:00</time>
      </trkpt>
      <trkpt lat="43.29439" lon="-3.67375">
        <ele>610.5</ele>
        <time>2023-07-13T02:16:10.000+02:00</time>
      </trkpt>
      <trkpt lat="43.29432" lon="-3.67382">
        <ele>611</ele>
        <time>2023-07-13T02:16:11.000+02:00</time>
      </trkpt>
      <trkpt lat="43.29415" lon="-3.67401">
        <ele>612.8</ele>
        <time>2023-07-13T02:16:14.000+02:00</time>
      </trkpt>
      <trkpt lat="43.29406" lon="-3.67414">
        <ele>614.3</ele>
        <time>2023-07-13T02:16:16.000+02:00</time>
      </trkpt>
      <trkpt lat="43.29396" lon="-3.6742">
        <ele>614.8</ele>
        <time>2023-07-13T02:16:18.000+02:00</time>
      </trkpt>
      <trkpt lat="43.29376" lon="-3.67427">
        <ele>615.5</ele>
        <time>2023-07-13T02:16:21.000+02:00</time>
      </trkpt>
      <trkpt lat="43.29374" lon="-3.67431">
        <ele>616</ele>
        <time>2023-07-13T02:16:22.000+02:00</time>
      </trkpt>
      <trkpt lat="43.29376" lon="-3.67436">
        <ele>617</ele>
        <time>2023-07-13T02:16:23.000+02:00</time>
      </trkpt>
      <trkpt lat="43.29381" lon="-3.67441">
        <ele>618.3</ele>
        <time>2023-07-13T02:16:24.000+02:00</time>
      </trkpt>
      <trkpt lat="43.29394" lon="-3.67446">
        <ele>619.8</ele>
        <time>2023-07-13T02:16:27.000+02:00</time>
      </trkpt>
      <trkpt lat="43.29402" lon="-3.67452">
        <ele>621</ele>
        <time>2023-07-13T02:16:28.000+02:00</time>
      </trkpt>
      <trkpt lat="43.29413" lon="-3.67461">
        <ele>623.3</ele>
        <time>2023-07-13T02:16:30.000+02:00</time>
      </trkpt>
      <trkpt lat="43.29422" lon="-3.67475">
        <ele>626</ele>
        <time>2023-07-13T02:16:32.000+02:00</time>
      </trkpt>
      <trkpt lat="43.29427" lon="-3.67484">
        <ele>627.5</ele>
        <time>2023-07-13T02:16:33.000+02:00</time>
      </trkpt>
      <trkpt lat="43.29434" lon="-3.67506">
        <ele>631</ele>
        <time>2023-07-13T02:16:36.000+02:00</time>
      </trkpt>
      <trkpt lat="43.29435" lon="-3.67521">
        <ele>633</ele>
        <time>2023-07-13T02:16:38.000+02:00</time>
      </trkpt>
      <trkpt lat="43.29439" lon="-3.67534">
        <ele>634.3</ele>
        <time>2023-07-13T02:16:39.000+02:00</time>
      </trkpt>
      <trkpt lat="43.29446" lon="-3.67543">
        <ele>635</ele>
        <time>2023-07-13T02:16:40.000+02:00</time>
      </trkpt>
      <trkpt lat="43.29456" lon="-3.67553">
        <ele>635.3</ele>
        <time>2023-07-13T02:16:42.000+02:00</time>
      </trkpt>
      <trkpt lat="43.29467" lon="-3.67558">
        <ele>635</ele>
        <time>2023-07-13T02:16:44.000+02:00</time>
      </trkpt>
      <trkpt lat="43.29474" lon="-3.67557">
        <ele>634.3</ele>
        <time>2023-07-13T02:16:45.000+02:00</time>
      </trkpt>
      <trkpt lat="43.29508" lon="-3.6755">
        <ele>632.8</ele>
        <time>2023-07-13T02:16:51.000+02:00</time>
      </trkpt>
      <trkpt lat="43.29519" lon="-3.6755">
        <ele>634.5</ele>
        <time>2023-07-13T02:16:52.000+02:00</time>
      </trkpt>
      <trkpt lat="43.29524" lon="-3.67552">
        <ele>635.3</ele>
        <time>2023-07-13T02:16:53.000+02:00</time>
      </trkpt>
      <trkpt lat="43.29528" lon="-3.67555">
        <ele>636</ele>
        <time>2023-07-13T02:16:54.000+02:00</time>
      </trkpt>
      <trkpt lat="43.29544" lon="-3.67611">
        <ele>635.8</ele>
        <time>2023-07-13T02:17:00.000+02:00</time>
      </trkpt>
      <trkpt lat="43.29542" lon="-3.6762">
        <ele>634.8</ele>
        <time>2023-07-13T02:17:01.000+02:00</time>
      </trkpt>
      <trkpt lat="43.29539" lon="-3.67628">
        <ele>633.8</ele>
        <time>2023-07-13T02:17:02.000+02:00</time>
      </trkpt>
      <trkpt lat="43.29539" lon="-3.67636">
        <ele>633</ele>
        <time>2023-07-13T02:17:03.000+02:00</time>
      </trkpt>
      <trkpt lat="43.29559" lon="-3.67697">
        <ele>622.8</ele>
        <time>2023-07-13T02:17:11.000+02:00</time>
      </trkpt>
      <trkpt lat="43.29579" lon="-3.67748">
        <ele>608.8</ele>
        <time>2023-07-13T02:17:17.000+02:00</time>
      </trkpt>
      <trkpt lat="43.29598" lon="-3.67795">
        <ele>601.3</ele>
        <time>2023-07-13T02:17:23.000+02:00</time>
      </trkpt>
      <trkpt lat="43.29602" lon="-3.67802">
        <ele>600</ele>
        <time>2023-07-13T02:17:24.000+02:00</time>
      </trkpt>
      <trkpt lat="43.29606" lon="-3.67806">
        <ele>598.8</ele>
        <time>2023-07-13T02:17:25.000+02:00</time>
      </trkpt>
      <trkpt lat="43.29611" lon="-3.67807">
        <ele>597.5</ele>
        <time>2023-07-13T02:17:26.000+02:00</time>
      </trkpt>
      <trkpt lat="43.29617" lon="-3.67803">
        <ele>597</ele>
        <time>2023-07-13T02:17:27.000+02:00</time>
      </trkpt>
      <trkpt lat="43.29633" lon="-3.67784">
        <ele>598</ele>
        <time>2023-07-13T02:17:30.000+02:00</time>
      </trkpt>
      <trkpt lat="43.29639" lon="-3.67778">
        <ele>598.3</ele>
        <time>2023-07-13T02:17:31.000+02:00</time>
      </trkpt>
      <trkpt lat="43.29645" lon="-3.67777">
        <ele>598</ele>
        <time>2023-07-13T02:17:32.000+02:00</time>
      </trkpt>
      <trkpt lat="43.29655" lon="-3.67778">
        <ele>596.5</ele>
        <time>2023-07-13T02:17:33.000+02:00</time>
      </trkpt>
      <trkpt lat="43.29715" lon="-3.67811">
        <ele>584</ele>
        <time>2023-07-13T02:17:43.000+02:00</time>
      </trkpt>
      <trkpt lat="43.29734" lon="-3.67819">
        <ele>580</ele>
        <time>2023-07-13T02:17:46.000+02:00</time>
      </trkpt>
      <trkpt lat="43.29752" lon="-3.67829">
        <ele>575</ele>
        <time>2023-07-13T02:17:49.000+02:00</time>
      </trkpt>
      <trkpt lat="43.2978" lon="-3.67854">
        <ele>573.8</ele>
        <time>2023-07-13T02:17:54.000+02:00</time>
      </trkpt>
      <trkpt lat="43.29789" lon="-3.67863">
        <ele>572.5</ele>
        <time>2023-07-13T02:17:56.000+02:00</time>
      </trkpt>
      <trkpt lat="43.29839" lon="-3.67928">
        <ele>553.8</ele>
        <time>2023-07-13T02:18:07.000+02:00</time>
      </trkpt>
      <trkpt lat="43.2985" lon="-3.6794">
        <ele>552.3</ele>
        <time>2023-07-13T02:18:09.000+02:00</time>
      </trkpt>
      <trkpt lat="43.29854" lon="-3.67946">
        <ele>551.3</ele>
        <time>2023-07-13T02:18:10.000+02:00</time>
      </trkpt>
      <trkpt lat="43.29888" lon="-3.68007">
        <ele>538</ele>
        <time>2023-07-13T02:18:18.000+02:00</time>
      </trkpt>
      <trkpt lat="43.29897" lon="-3.68025">
        <ele>533.3</ele>
        <time>2023-07-13T02:18:21.000+02:00</time>
      </trkpt>
      <trkpt lat="43.29906" lon="-3.68036">
        <ele>529.8</ele>
        <time>2023-07-13T02:18:23.000+02:00</time>
      </trkpt>
      <trkpt lat="43.29959" lon="-3.68073">
        <ele>521.3</ele>
        <time>2023-07-13T02:18:32.000+02:00</time>
      </trkpt>
      <trkpt lat="43.29979" lon="-3.68089">
        <ele>517.8</ele>
        <time>2023-07-13T02:18:35.000+02:00</time>
      </trkpt>
      <trkpt lat="43.29996" lon="-3.681">
        <ele>515</ele>
        <time>2023-07-13T02:18:38.000+02:00</time>
      </trkpt>
      <trkpt lat="43.30014" lon="-3.68111">
        <ele>512</ele>
        <time>2023-07-13T02:18:41.000+02:00</time>
      </trkpt>
      <trkpt lat="43.30031" lon="-3.68123">
        <ele>508.5</ele>
        <time>2023-07-13T02:18:44.000+02:00</time>
      </trkpt>
      <trkpt lat="43.30045" lon="-3.68136">
        <ele>504.5</ele>
        <time>2023-07-13T02:18:46.000+02:00</time>
      </trkpt>
      <trkpt lat="43.30065" lon="-3.6816">
        <ele>497.3</ele>
        <time>2023-07-13T02:18:50.000+02:00</time>
      </trkpt>
      <trkpt lat="43.30074" lon="-3.68169">
        <ele>495</ele>
        <time>2023-07-13T02:18:52.000+02:00</time>
      </trkpt>
      <trkpt lat="43.30082" lon="-3.68175">
        <ele>493.8</ele>
        <time>2023-07-13T02:18:54.000+02:00</time>
      </trkpt>
      <trkpt lat="43.30128" lon="-3.68182">
        <ele>490.3</ele>
        <time>2023-07-13T02:19:01.000+02:00</time>
      </trkpt>
      <trkpt lat="43.30144" lon="-3.68182">
        <ele>489.8</ele>
        <time>2023-07-13T02:19:03.000+02:00</time>
      </trkpt>
      <trkpt lat="43.30157" lon="-3.68179">
        <ele>490.3</ele>
        <time>2023-07-13T02:19:05.000+02:00</time>
      </trkpt>
      <trkpt lat="43.30177" lon="-3.68173">
        <ele>490</ele>
        <time>2023-07-13T02:19:08.000+02:00</time>
      </trkpt>
      <trkpt lat="43.3019" lon="-3.68167">
        <ele>489.8</ele>
        <time>2023-07-13T02:19:10.000+02:00</time>
      </trkpt>
      <trkpt lat="43.30197" lon="-3.68164">
        <ele>489.3</ele>
        <time>2023-07-13T02:19:12.000+02:00</time>
      </trkpt>
      <trkpt lat="43.30239" lon="-3.68172">
        <ele>479.5</ele>
        <time>2023-07-13T02:19:18.000+02:00</time>
      </trkpt>
      <trkpt lat="43.30247" lon="-3.68172">
        <ele>478</ele>
        <time>2023-07-13T02:19:19.000+02:00</time>
      </trkpt>
      <trkpt lat="43.30259" lon="-3.68166">
        <ele>478.3</ele>
        <time>2023-07-13T02:19:21.000+02:00</time>
      </trkpt>
      <trkpt lat="43.30277" lon="-3.68156">
        <ele>479.5</ele>
        <time>2023-07-13T02:19:24.000+02:00</time>
      </trkpt>
      <trkpt lat="43.30285" lon="-3.68156">
        <ele>479</ele>
        <time>2023-07-13T02:19:25.000+02:00</time>
      </trkpt>
      <trkpt lat="43.30285" lon="-3.68162">
        <ele>477.3</ele>
        <time>2023-07-13T02:19:26.000+02:00</time>
      </trkpt>
      <trkpt lat="43.3028" lon="-3.68179">
        <ele>473.8</ele>
        <time>2023-07-13T02:19:28.000+02:00</time>
      </trkpt>
      <trkpt lat="43.30279" lon="-3.68197">
        <ele>470</ele>
        <time>2023-07-13T02:19:30.000+02:00</time>
      </trkpt>
      <trkpt lat="43.30274" lon="-3.68214">
        <ele>466.5</ele>
        <time>2023-07-13T02:19:32.000+02:00</time>
      </trkpt>
      <trkpt lat="43.3027" lon="-3.68233">
        <ele>462.3</ele>
        <time>2023-07-13T02:19:34.000+02:00</time>
      </trkpt>
      <trkpt lat="43.3027" lon="-3.68245">
        <ele>459.5</ele>
        <time>2023-07-13T02:19:36.000+02:00</time>
      </trkpt>
      <trkpt lat="43.30272" lon="-3.68254">
        <ele>458</ele>
        <time>2023-07-13T02:19:37.000+02:00</time>
      </trkpt>
      <trkpt lat="43.30277" lon="-3.68261">
        <ele>458</ele>
        <time>2023-07-13T02:19:38.000+02:00</time>
      </trkpt>
      <trkpt lat="43.30293" lon="-3.6827">
        <ele>459.8</ele>
        <time>2023-07-13T02:19:40.000+02:00</time>
      </trkpt>
      <trkpt lat="43.30296" lon="-3.68277">
        <ele>460</ele>
        <time>2023-07-13T02:19:41.000+02:00</time>
      </trkpt>
      <trkpt lat="43.30295" lon="-3.68285">
        <ele>460</ele>
        <time>2023-07-13T02:19:42.000+02:00</time>
      </trkpt>
      <trkpt lat="43.30288" lon="-3.683">
        <ele>458.3</ele>
        <time>2023-07-13T02:19:44.000+02:00</time>
      </trkpt>
      <trkpt lat="43.30281" lon="-3.68317">
        <ele>455.3</ele>
        <time>2023-07-13T02:19:46.000+02:00</time>
      </trkpt>
      <trkpt lat="43.30268" lon="-3.68354">
        <ele>449.5</ele>
        <time>2023-07-13T02:19:51.000+02:00</time>
      </trkpt>
      <trkpt lat="43.3026" lon="-3.68372">
        <ele>446.3</ele>
        <time>2023-07-13T02:19:53.000+02:00</time>
      </trkpt>
      <trkpt lat="43.30259" lon="-3.68382">
        <ele>445.8</ele>
        <time>2023-07-13T02:19:54.000+02:00</time>
      </trkpt>
      <trkpt lat="43.30258" lon="-3.68418">
        <ele>445.3</ele>
        <time>2023-07-13T02:19:58.000+02:00</time>
      </trkpt>
      <trkpt lat="43.30253" lon="-3.68441">
        <ele>442.8</ele>
        <time>2023-07-13T02:20:01.000+02:00</time>
      </trkpt>
      <trkpt lat="43.30247" lon="-3.68457">
        <ele>440.5</ele>
        <time>2023-07-13T02:20:03.000+02:00</time>
      </trkpt>
      <trkpt lat="43.30242" lon="-3.68477">
        <ele>438.5</ele>
        <time>2023-07-13T02:20:05.000+02:00</time>
      </trkpt>
      <trkpt lat="43.30236" lon="-3.68508">
        <ele>436.3</ele>
        <time>2023-07-13T02:20:09.000+02:00</time>
      </trkpt>
      <trkpt lat="43.30235" lon="-3.68516">
        <ele>436.3</ele>
        <time>2023-07-13T02:20:10.000+02:00</time>
      </trkpt>
      <trkpt lat="43.30236" lon="-3.68521">
        <ele>436.8</ele>
        <time>2023-07-13T02:20:10.000+02:00</time>
      </trkpt>
      <trkpt lat="43.30236" lon="-3.68524">
        <ele>437</ele>
        <time>2023-07-13T02:20:11.000+02:00</time>
      </trkpt>
      <trkpt lat="43.30241" lon="-3.6854">
        <ele>439.3</ele>
        <time>2023-07-13T02:20:13.000+02:00</time>
      </trkpt>
      <trkpt lat="43.30242" lon="-3.68547">
        <ele>440</ele>
        <time>2023-07-13T02:20:14.000+02:00</time>
      </trkpt>
      <trkpt lat="43.30241" lon="-3.68556">
        <ele>439.8</ele>
        <time>2023-07-13T02:20:15.000+02:00</time>
      </trkpt>
      <trkpt lat="43.30237" lon="-3.68562">
        <ele>438.5</ele>
        <time>2023-07-13T02:20:16.000+02:00</time>
      </trkpt>
      <trkpt lat="43.30203" lon="-3.68586">
        <ele>427.5</ele>
        <time>2023-07-13T02:20:22.000+02:00</time>
      </trkpt>
      <trkpt lat="43.3019" lon="-3.68597">
        <ele>424.5</ele>
        <time>2023-07-13T02:20:25.000+02:00</time>
      </trkpt>
      <trkpt lat="43.30182" lon="-3.68608">
        <ele>422.5</ele>
        <time>2023-07-13T02:20:26.000+02:00</time>
      </trkpt>
      <trkpt lat="43.30174" lon="-3.6862">
        <ele>421.3</ele>
        <time>2023-07-13T02:20:28.000+02:00</time>
      </trkpt>
      <trkpt lat="43.30168" lon="-3.68639">
        <ele>420.3</ele>
        <time>2023-07-13T02:20:30.000+02:00</time>
      </trkpt>
      <trkpt lat="43.30156" lon="-3.68676">
        <ele>421.3</ele>
        <time>2023-07-13T02:20:35.000+02:00</time>
      </trkpt>
      <trkpt lat="43.30139" lon="-3.68739">
        <ele>422.3</ele>
        <time>2023-07-13T02:20:43.000+02:00</time>
      </trkpt>
      <trkpt lat="43.30128" lon="-3.68776">
        <ele>420.8</ele>
        <time>2023-07-13T02:20:47.000+02:00</time>
      </trkpt>
      <trkpt lat="43.30117" lon="-3.6881">
        <ele>417.3</ele>
        <time>2023-07-13T02:20:51.000+02:00</time>
      </trkpt>
      <trkpt lat="43.30108" lon="-3.68827">
        <ele>412.8</ele>
        <time>2023-07-13T02:20:53.000+02:00</time>
      </trkpt>
      <trkpt lat="43.301" lon="-3.68841">
        <ele>408.3</ele>
        <time>2023-07-13T02:20:55.000+02:00</time>
      </trkpt>
      <trkpt lat="43.30084" lon="-3.68863">
        <ele>400</ele>
        <time>2023-07-13T02:20:59.000+02:00</time>
      </trkpt>
      <trkpt lat="43.30074" lon="-3.68874">
        <ele>399.5</ele>
        <time>2023-07-13T02:21:01.000+02:00</time>
      </trkpt>
      <trkpt lat="43.30059" lon="-3.6889">
        <ele>396.5</ele>
        <time>2023-07-13T02:21:04.000+02:00</time>
      </trkpt>
      <trkpt lat="43.3005" lon="-3.689">
        <ele>394</ele>
        <time>2023-07-13T02:21:05.000+02:00</time>
      </trkpt>
      <trkpt lat="43.30043" lon="-3.68914">
        <ele>391</ele>
        <time>2023-07-13T02:21:07.000+02:00</time>
      </trkpt>
      <trkpt lat="43.30034" lon="-3.68933">
        <ele>390.3</ele>
        <time>2023-07-13T02:21:10.000+02:00</time>
      </trkpt>
      <trkpt lat="43.3002" lon="-3.68955">
        <ele>386</ele>
        <time>2023-07-13T02:21:13.000+02:00</time>
      </trkpt>
      <trkpt lat="43.29997" lon="-3.68998">
        <ele>376.8</ele>
        <time>2023-07-13T02:21:19.000+02:00</time>
      </trkpt>
      <trkpt lat="43.29973" lon="-3.69048">
        <ele>371.3</ele>
        <time>2023-07-13T02:21:26.000+02:00</time>
      </trkpt>
      <trkpt lat="43.29965" lon="-3.69068">
        <ele>367.3</ele>
        <time>2023-07-13T02:21:28.000+02:00</time>
      </trkpt>
      <trkpt lat="43.29946" lon="-3.69132">
        <ele>360.8</ele>
        <time>2023-07-13T02:21:36.000+02:00</time>
      </trkpt>
      <trkpt lat="43.29938" lon="-3.69166">
        <ele>355.5</ele>
        <time>2023-07-13T02:21:40.000+02:00</time>
      </trkpt>
      <trkpt lat="43.29919" lon="-3.69231">
        <ele>337.8</ele>
        <time>2023-07-13T02:21:48.000+02:00</time>
      </trkpt>
      <trkpt lat="43.29909" lon="-3.69261">
        <ele>338</ele>
        <time>2023-07-13T02:21:51.000+02:00</time>
      </trkpt>
      <trkpt lat="43.29897" lon="-3.6929">
        <ele>343.5</ele>
        <time>2023-07-13T02:21:55.000+02:00</time>
      </trkpt>
      <trkpt lat="43.29891" lon="-3.69307">
        <ele>345.8</ele>
        <time>2023-07-13T02:21:57.000+02:00</time>
      </trkpt>
      <trkpt lat="43.29886" lon="-3.69341">
        <ele>349</ele>
        <time>2023-07-13T02:22:01.000+02:00</time>
      </trkpt>
      <trkpt lat="43.29881" lon="-3.69387">
        <ele>345</ele>
        <time>2023-07-13T02:22:06.000+02:00</time>
      </trkpt>
      <trkpt lat="43.29878" lon="-3.69407">
        <ele>342.8</ele>
        <time>2023-07-13T02:22:08.000+02:00</time>
      </trkpt>
      <trkpt lat="43.29874" lon="-3.69425">
        <ele>338</ele>
        <time>2023-07-13T02:22:11.000+02:00</time>
      </trkpt>
      <trkpt lat="43.29862" lon="-3.69531">
        <ele>312.3</ele>
        <time>2023-07-13T02:22:23.000+02:00</time>
      </trkpt>
      <trkpt lat="43.29859" lon="-3.69546">
        <ele>308</ele>
        <time>2023-07-13T02:22:24.000+02:00</time>
      </trkpt>
      <trkpt lat="43.29841" lon="-3.69586">
        <ele>286</ele>
        <time>2023-07-13T02:22:29.000+02:00</time>
      </trkpt>
      <trkpt lat="43.29827" lon="-3.69604">
        <ele>278.8</ele>
        <time>2023-07-13T02:22:32.000+02:00</time>
      </trkpt>
      <trkpt lat="43.29807" lon="-3.69633">
        <ele>275.8</ele>
        <time>2023-07-13T02:22:37.000+02:00</time>
      </trkpt>
      <trkpt lat="43.298" lon="-3.69649">
        <ele>274.5</ele>
        <time>2023-07-13T02:22:39.000+02:00</time>
      </trkpt>
      <trkpt lat="43.29788" lon="-3.69672">
        <ele>272</ele>
        <time>2023-07-13T02:22:42.000+02:00</time>
      </trkpt>
      <trkpt lat="43.29776" lon="-3.69698">
        <ele>270.5</ele>
        <time>2023-07-13T02:22:45.000+02:00</time>
      </trkpt>
      <trkpt lat="43.2976" lon="-3.69728">
        <ele>266.8</ele>
        <time>2023-07-13T02:22:50.000+02:00</time>
      </trkpt>
      <trkpt lat="43.29739" lon="-3.69764">
        <ele>259.5</ele>
        <time>2023-07-13T02:22:55.000+02:00</time>
      </trkpt>
      <trkpt lat="43.29732" lon="-3.6978">
        <ele>256.8</ele>
        <time>2023-07-13T02:22:57.000+02:00</time>
      </trkpt>
      <trkpt lat="43.2973" lon="-3.69781">
        <ele>255.8</ele>
        <time>2023-07-13T02:22:57.000+02:00</time>
      </trkpt>
      <trkpt lat="43.29726" lon="-3.69781">
        <ele>254.3</ele>
        <time>2023-07-13T02:22:58.000+02:00</time>
      </trkpt>
      <trkpt lat="43.29724" lon="-3.69776">
        <ele>253.3</ele>
        <time>2023-07-13T02:22:59.000+02:00</time>
      </trkpt>
      <trkpt lat="43.29723" lon="-3.6977">
        <ele>253.3</ele>
        <time>2023-07-13T02:23:00.000+02:00</time>
      </trkpt>
      <trkpt lat="43.29722" lon="-3.69762">
        <ele>253</ele>
        <time>2023-07-13T02:23:01.000+02:00</time>
      </trkpt>
      <trkpt lat="43.29719" lon="-3.6976">
        <ele>251.5</ele>
        <time>2023-07-13T02:23:02.000+02:00</time>
      </trkpt>
      <trkpt lat="43.29714" lon="-3.69764">
        <ele>249.5</ele>
        <time>2023-07-13T02:23:03.000+02:00</time>
      </trkpt>
      <trkpt lat="43.29693" lon="-3.69824">
        <ele>237.5</ele>
        <time>2023-07-13T02:23:11.000+02:00</time>
      </trkpt>
      <trkpt lat="43.29668" lon="-3.69875">
        <ele>220.3</ele>
        <time>2023-07-13T02:23:18.000+02:00</time>
      </trkpt>
      <trkpt lat="43.29667" lon="-3.6989">
        <ele>218.5</ele>
        <time>2023-07-13T02:23:19.000+02:00</time>
      </trkpt>
      <trkpt lat="43.29669" lon="-3.69913">
        <ele>217.8</ele>
        <time>2023-07-13T02:23:22.000+02:00</time>
      </trkpt>
      <trkpt lat="43.29669" lon="-3.69917">
        <ele>217</ele>
        <time>2023-07-13T02:23:23.000+02:00</time>
      </trkpt>
      <trkpt lat="43.29668" lon="-3.69922">
        <ele>215.3</ele>
        <time>2023-07-13T02:23:24.000+02:00</time>
      </trkpt>
      <trkpt lat="43.29664" lon="-3.69923">
        <ele>214</ele>
        <time>2023-07-13T02:23:24.000+02:00</time>
      </trkpt>
      <trkpt lat="43.29647" lon="-3.6991">
        <ele>211.8</ele>
        <time>2023-07-13T02:23:28.000+02:00</time>
      </trkpt>
      <trkpt lat="43.29642" lon="-3.69911">
        <ele>210.5</ele>
        <time>2023-07-13T02:23:29.000+02:00</time>
      </trkpt>
      <trkpt lat="43.29638" lon="-3.69924">
        <ele>207.3</ele>
        <time>2023-07-13T02:23:31.000+02:00</time>
      </trkpt>
      <trkpt lat="43.29625" lon="-3.69954">
        <ele>199</ele>
        <time>2023-07-13T02:23:35.000+02:00</time>
      </trkpt>
      <trkpt lat="43.29619" lon="-3.69966">
        <ele>195.8</ele>
        <time>2023-07-13T02:23:36.000+02:00</time>
      </trkpt>
      <trkpt lat="43.29576" lon="-3.69995">
        <ele>184.5</ele>
        <time>2023-07-13T02:23:44.000+02:00</time>
      </trkpt>
      <trkpt lat="43.29574" lon="-3.70001">
        <ele>183.3</ele>
        <time>2023-07-13T02:23:45.000+02:00</time>
      </trkpt>
      <trkpt lat="43.29568" lon="-3.70031">
        <ele>177</ele>
        <time>2023-07-13T02:23:49.000+02:00</time>
      </trkpt>
      <trkpt lat="43.29561" lon="-3.70047">
        <ele>173.8</ele>
        <time>2023-07-13T02:23:51.000+02:00</time>
      </trkpt>
      <trkpt lat="43.29563" lon="-3.70051">
        <ele>173</ele>
        <time>2023-07-13T02:23:51.000+02:00</time>
      </trkpt>
      <trkpt lat="43.29561" lon="-3.70059">
        <ele>171.5</ele>
        <time>2023-07-13T02:23:52.000+02:00</time>
      </trkpt>
      <trkpt lat="43.29556" lon="-3.70066">
        <ele>170</ele>
        <time>2023-07-13T02:23:54.000+02:00</time>
      </trkpt>
      <trkpt lat="43.29545" lon="-3.70075">
        <ele>168.3</ele>
        <time>2023-07-13T02:23:55.000+02:00</time>
      </trkpt>
      <trkpt lat="43.29514" lon="-3.70093">
        <ele>166.3</ele>
        <time>2023-07-13T02:24:01.000+02:00</time>
      </trkpt>
      <trkpt lat="43.2951" lon="-3.70096">
        <ele>166.3</ele>
        <time>2023-07-13T02:24:02.000+02:00</time>
      </trkpt>
      <trkpt lat="43.29491" lon="-3.70108">
        <ele>167.3</ele>
        <time>2023-07-13T02:24:05.000+02:00</time>
      </trkpt>
      <trkpt lat="43.29472" lon="-3.7012">
        <ele>169.5</ele>
        <time>2023-07-13T02:24:09.000+02:00</time>
      </trkpt>
      <trkpt lat="43.29449" lon="-3.70132">
        <ele>172.5</ele>
        <time>2023-07-13T02:24:12.000+02:00</time>
      </trkpt>
      <trkpt lat="43.29424" lon="-3.70149">
        <ele>176</ele>
        <time>2023-07-13T02:24:17.000+02:00</time>
      </trkpt>
      <trkpt lat="43.29407" lon="-3.70163">
        <ele>179</ele>
        <time>2023-07-13T02:24:20.000+02:00</time>
      </trkpt>
      <trkpt lat="43.29421" lon="-3.70173">
        <ele>178.3</ele>
        <time>2023-07-13T02:24:22.000+02:00</time>
      </trkpt>
      <trkpt lat="43.2943" lon="-3.70186">
        <ele>178.5</ele>
        <time>2023-07-13T02:24:24.000+02:00</time>
      </trkpt>
      <trkpt lat="43.29442" lon="-3.70217">
        <ele>180.3</ele>
        <time>2023-07-13T02:24:28.000+02:00</time>
      </trkpt>
      <trkpt lat="43.29446" lon="-3.70224">
        <ele>180.5</ele>
        <time>2023-07-13T02:24:29.000+02:00</time>
      </trkpt>
      <trkpt lat="43.29456" lon="-3.70247">
        <ele>181</ele>
        <time>2023-07-13T02:24:32.000+02:00</time>
      </trkpt>
      <trkpt lat="43.29461" lon="-3.70256">
        <ele>181.8</ele>
        <time>2023-07-13T02:24:33.000+02:00</time>
      </trkpt>
      <trkpt lat="43.29468" lon="-3.70266">
        <ele>182.5</ele>
        <time>2023-07-13T02:24:35.000+02:00</time>
      </trkpt>
      <trkpt lat="43.2949" lon="-3.70289">
        <ele>182</ele>
        <time>2023-07-13T02:24:39.000+02:00</time>
      </trkpt>
      <trkpt lat="43.29493" lon="-3.70297">
        <ele>182.8</ele>
        <time>2023-07-13T02:24:40.000+02:00</time>
      </trkpt>
      <trkpt lat="43.29501" lon="-3.7033">
        <ele>186.3</ele>
        <time>2023-07-13T02:24:44.000+02:00</time>
      </trkpt>
      <trkpt lat="43.29509" lon="-3.70341">
        <ele>187.8</ele>
        <time>2023-07-13T02:24:46.000+02:00</time>
      </trkpt>
      <trkpt lat="43.29515" lon="-3.70346">
        <ele>188.3</ele>
        <time>2023-07-13T02:24:47.000+02:00</time>
      </trkpt>
      <trkpt lat="43.29562" lon="-3.70359">
        <ele>186</ele>
        <time>2023-07-13T02:24:54.000+02:00</time>
      </trkpt>
      <trkpt lat="43.29571" lon="-3.70364">
        <ele>185.5</ele>
        <time>2023-07-13T02:24:56.000+02:00</time>
      </trkpt>
      <trkpt lat="43.2959" lon="-3.70377">
        <ele>185.3</ele>
        <time>2023-07-13T02:24:59.000+02:00</time>
      </trkpt>
      <trkpt lat="43.29614" lon="-3.70396">
        <ele>186.5</ele>
        <time>2023-07-13T02:25:03.000+02:00</time>
      </trkpt>
      <trkpt lat="43.29637" lon="-3.70407">
        <ele>187.3</ele>
        <time>2023-07-13T02:25:07.000+02:00</time>
      </trkpt>
      <trkpt lat="43.29662" lon="-3.70425">
        <ele>189.3</ele>
        <time>2023-07-13T02:25:11.000+02:00</time>
      </trkpt>
      <trkpt lat="43.29676" lon="-3.70437">
        <ele>188.8</ele>
        <time>2023-07-13T02:25:13.000+02:00</time>
      </trkpt>
      <trkpt lat="43.29688" lon="-3.70452">
        <ele>188.8</ele>
        <time>2023-07-13T02:25:16.000+02:00</time>
      </trkpt>
      <trkpt lat="43.29695" lon="-3.70464">
        <ele>188.8</ele>
        <time>2023-07-13T02:25:18.000+02:00</time>
      </trkpt>
      <trkpt lat="43.29706" lon="-3.70485">
        <ele>189.8</ele>
        <time>2023-07-13T02:25:21.000+02:00</time>
      </trkpt>
      <trkpt lat="43.29716" lon="-3.70501">
        <ele>190</ele>
        <time>2023-07-13T02:25:23.000+02:00</time>
      </trkpt>
      <trkpt lat="43.29724" lon="-3.7051">
        <ele>190.8</ele>
        <time>2023-07-13T02:25:25.000+02:00</time>
      </trkpt>
      <trkpt lat="43.29717" lon="-3.70527">
        <ele>197</ele>
        <time>2023-07-13T02:25:27.000+02:00</time>
      </trkpt>
      <trkpt lat="43.29714" lon="-3.70536">
        <ele>200</ele>
        <time>2023-07-13T02:25:28.000+02:00</time>
      </trkpt>
      <trkpt lat="43.29711" lon="-3.70544">
        <ele>202.5</ele>
        <time>2023-07-13T02:25:29.000+02:00</time>
      </trkpt>
      <trkpt lat="43.2971" lon="-3.70551">
        <ele>204.8</ele>
        <time>2023-07-13T02:25:30.000+02:00</time>
      </trkpt>
      <trkpt lat="43.2971" lon="-3.70557">
        <ele>206.3</ele>
        <time>2023-07-13T02:25:30.000+02:00</time>
      </trkpt>
      <trkpt lat="43.29712" lon="-3.70563">
        <ele>207.8</ele>
        <time>2023-07-13T02:25:31.000+02:00</time>
      </trkpt>
      <trkpt lat="43.29716" lon="-3.70574">
        <ele>210.3</ele>
        <time>2023-07-13T02:25:32.000+02:00</time>
      </trkpt>
      <trkpt lat="43.29716" lon="-3.70578">
        <ele>211.3</ele>
        <time>2023-07-13T02:25:33.000+02:00</time>
      </trkpt>
      <trkpt lat="43.29715" lon="-3.70581">
        <ele>212.3</ele>
        <time>2023-07-13T02:25:34.000+02:00</time>
      </trkpt>
      <trkpt lat="43.29711" lon="-3.70581">
        <ele>212.8</ele>
        <time>2023-07-13T02:25:35.000+02:00</time>
      </trkpt>
      <trkpt lat="43.29692" lon="-3.70566">
        <ele>210.3</ele>
        <time>2023-07-13T02:25:38.000+02:00</time>
      </trkpt>
      <trkpt lat="43.29689" lon="-3.70564">
        <ele>210.3</ele>
        <time>2023-07-13T02:25:39.000+02:00</time>
      </trkpt>
      <trkpt lat="43.29682" lon="-3.70567">
        <ele>211.5</ele>
        <time>2023-07-13T02:25:40.000+02:00</time>
      </trkpt>
      <trkpt lat="43.29679" lon="-3.7057">
        <ele>212.5</ele>
        <time>2023-07-13T02:25:40.000+02:00</time>
      </trkpt>
      <trkpt lat="43.29679" lon="-3.70574">
        <ele>213.3</ele>
        <time>2023-07-13T02:25:41.000+02:00</time>
      </trkpt>
      <trkpt lat="43.29681" lon="-3.70579">
        <ele>214</ele>
        <time>2023-07-13T02:25:42.000+02:00</time>
      </trkpt>
      <trkpt lat="43.29686" lon="-3.70583">
        <ele>214.5</ele>
        <time>2023-07-13T02:25:43.000+02:00</time>
      </trkpt>
      <trkpt lat="43.29709" lon="-3.70598">
        <ele>219</ele>
        <time>2023-07-13T02:25:47.000+02:00</time>
      </trkpt>
      <trkpt lat="43.29726" lon="-3.70606">
        <ele>222</ele>
        <time>2023-07-13T02:25:50.000+02:00</time>
      </trkpt>
      <trkpt lat="43.29733" lon="-3.70611">
        <ele>224</ele>
        <time>2023-07-13T02:25:51.000+02:00</time>
      </trkpt>
      <trkpt lat="43.29744" lon="-3.70616">
        <ele>226</ele>
        <time>2023-07-13T02:25:53.000+02:00</time>
      </trkpt>
      <trkpt lat="43.29756" lon="-3.70616">
        <ele>226.5</ele>
        <time>2023-07-13T02:25:55.000+02:00</time>
      </trkpt>
      <trkpt lat="43.29762" lon="-3.70614">
        <ele>226</ele>
        <time>2023-07-13T02:25:56.000+02:00</time>
      </trkpt>
      <trkpt lat="43.29766" lon="-3.70614">
        <ele>226.3</ele>
        <time>2023-07-13T02:25:57.000+02:00</time>
      </trkpt>
      <trkpt lat="43.29768" lon="-3.70615">
        <ele>226.8</ele>
        <time>2023-07-13T02:25:58.000+02:00</time>
      </trkpt>
      <trkpt lat="43.2977" lon="-3.70617">
        <ele>227.8</ele>
        <time>2023-07-13T02:25:58.000+02:00</time>
      </trkpt>
      <trkpt lat="43.29771" lon="-3.70618">
        <ele>228.3</ele>
        <time>2023-07-13T02:25:58.000+02:00</time>
      </trkpt>
      <trkpt lat="43.29771" lon="-3.70621">
        <ele>230</ele>
        <time>2023-07-13T02:25:59.000+02:00</time>
      </trkpt>
      <trkpt lat="43.29771" lon="-3.70625">
        <ele>231.8</ele>
        <time>2023-07-13T02:25:59.000+02:00</time>
      </trkpt>
      <trkpt lat="43.29768" lon="-3.70627">
        <ele>232.8</ele>
        <time>2023-07-13T02:26:00.000+02:00</time>
      </trkpt>
      <trkpt lat="43.29762" lon="-3.70628">
        <ele>232.8</ele>
        <time>2023-07-13T02:26:01.000+02:00</time>
      </trkpt>
      <trkpt lat="43.29757" lon="-3.70628">
        <ele>232.3</ele>
        <time>2023-07-13T02:26:02.000+02:00</time>
      </trkpt>
      <trkpt lat="43.29742" lon="-3.70631">
        <ele>233</ele>
        <time>2023-07-13T02:26:04.000+02:00</time>
      </trkpt>
      <trkpt lat="43.29719" lon="-3.70632">
        <ele>232.5</ele>
        <time>2023-07-13T02:26:08.000+02:00</time>
      </trkpt>
      <trkpt lat="43.29696" lon="-3.70636">
        <ele>233.3</ele>
        <time>2023-07-13T02:26:12.000+02:00</time>
      </trkpt>
      <trkpt lat="43.29685" lon="-3.70636">
        <ele>233</ele>
        <time>2023-07-13T02:26:13.000+02:00</time>
      </trkpt>
      <trkpt lat="43.29677" lon="-3.70639">
        <ele>233.8</ele>
        <time>2023-07-13T02:26:15.000+02:00</time>
      </trkpt>
      <trkpt lat="43.2967" lon="-3.70642">
        <ele>234.5</ele>
        <time>2023-07-13T02:26:16.000+02:00</time>
      </trkpt>
      <trkpt lat="43.29657" lon="-3.70652">
        <ele>237.3</ele>
        <time>2023-07-13T02:26:18.000+02:00</time>
      </trkpt>
      <trkpt lat="43.29646" lon="-3.70665">
        <ele>241.3</ele>
        <time>2023-07-13T02:26:20.000+02:00</time>
      </trkpt>
      <trkpt lat="43.29626" lon="-3.70697">
        <ele>248.8</ele>
        <time>2023-07-13T02:26:25.000+02:00</time>
      </trkpt>
      <trkpt lat="43.29612" lon="-3.70716">
        <ele>253.3</ele>
        <time>2023-07-13T02:26:28.000+02:00</time>
      </trkpt>
      <trkpt lat="43.29604" lon="-3.70726">
        <ele>255.8</ele>
        <time>2023-07-13T02:26:29.000+02:00</time>
      </trkpt>
      <trkpt lat="43.29599" lon="-3.70731">
        <ele>256.5</ele>
        <time>2023-07-13T02:26:30.000+02:00</time>
      </trkpt>
      <trkpt lat="43.29571" lon="-3.70746">
        <ele>260.5</ele>
        <time>2023-07-13T02:26:35.000+02:00</time>
      </trkpt>
      <trkpt lat="43.29559" lon="-3.70752">
        <ele>262.5</ele>
        <time>2023-07-13T02:26:37.000+02:00</time>
      </trkpt>
      <trkpt lat="43.29552" lon="-3.70753">
        <ele>263.3</ele>
        <time>2023-07-13T02:26:38.000+02:00</time>
      </trkpt>
      <trkpt lat="43.29524" lon="-3.70772">
        <ele>266.8</ele>
        <time>2023-07-13T02:26:43.000+02:00</time>
      </trkpt>
      <trkpt lat="43.29513" lon="-3.70779">
        <ele>268</ele>
        <time>2023-07-13T02:26:45.000+02:00</time>
      </trkpt>
      <trkpt lat="43.29502" lon="-3.70787">
        <ele>269.3</ele>
        <time>2023-07-13T02:26:47.000+02:00</time>
      </trkpt>
      <trkpt lat="43.29497" lon="-3.70788">
        <ele>269.8</ele>
        <time>2023-07-13T02:26:48.000+02:00</time>
      </trkpt>
      <trkpt lat="43.29485" lon="-3.70789">
        <ele>271</ele>
        <time>2023-07-13T02:26:50.000+02:00</time>
      </trkpt>
      <trkpt lat="43.29478" lon="-3.70791">
        <ele>271.8</ele>
        <time>2023-07-13T02:26:51.000+02:00</time>
      </trkpt>
      <trkpt lat="43.29473" lon="-3.70794">
        <ele>272.3</ele>
        <time>2023-07-13T02:26:52.000+02:00</time>
      </trkpt>
      <trkpt lat="43.29465" lon="-3.70799">
        <ele>273.3</ele>
        <time>2023-07-13T02:26:53.000+02:00</time>
      </trkpt>
      <trkpt lat="43.29454" lon="-3.70802">
        <ele>274.3</ele>
        <time>2023-07-13T02:26:55.000+02:00</time>
      </trkpt>
      <trkpt lat="43.29449" lon="-3.70804">
        <ele>274.8</ele>
        <time>2023-07-13T02:26:56.000+02:00</time>
      </trkpt>
      <trkpt lat="43.29443" lon="-3.70805">
        <ele>275.3</ele>
        <time>2023-07-13T02:26:57.000+02:00</time>
      </trkpt>
      <trkpt lat="43.29433" lon="-3.70803">
        <ele>276</ele>
        <time>2023-07-13T02:26:58.000+02:00</time>
      </trkpt>
      <trkpt lat="43.29428" lon="-3.70804">
        <ele>276.3</ele>
        <time>2023-07-13T02:26:59.000+02:00</time>
      </trkpt>
      <trkpt lat="43.29424" lon="-3.70801">
        <ele>276.5</ele>
        <time>2023-07-13T02:27:00.000+02:00</time>
      </trkpt>
      <trkpt lat="43.2942" lon="-3.70789">
        <ele>276.5</ele>
        <time>2023-07-13T02:27:01.000+02:00</time>
      </trkpt>
      <trkpt lat="43.29419" lon="-3.70785">
        <ele>276.5</ele>
        <time>2023-07-13T02:27:02.000+02:00</time>
      </trkpt>
      <trkpt lat="43.29404" lon="-3.70767">
        <ele>279.3</ele>
        <time>2023-07-13T02:27:05.000+02:00</time>
      </trkpt>
      <trkpt lat="43.294" lon="-3.7076">
        <ele>280</ele>
        <time>2023-07-13T02:27:06.000+02:00</time>
      </trkpt>
      <trkpt lat="43.29394" lon="-3.70742">
        <ele>280</ele>
        <time>2023-07-13T02:27:08.000+02:00</time>
      </trkpt>
      <trkpt lat="43.29388" lon="-3.70726">
        <ele>279</ele>
        <time>2023-07-13T02:27:10.000+02:00</time>
      </trkpt>
      <trkpt lat="43.2938" lon="-3.70697">
        <ele>277</ele>
        <time>2023-07-13T02:27:13.000+02:00</time>
      </trkpt>
      <trkpt lat="43.29375" lon="-3.70688">
        <ele>277</ele>
        <time>2023-07-13T02:27:15.000+02:00</time>
      </trkpt>
      <trkpt lat="43.29367" lon="-3.70679">
        <ele>277.8</ele>
        <time>2023-07-13T02:27:16.000+02:00</time>
      </trkpt>
      <trkpt lat="43.29354" lon="-3.70667">
        <ele>279</ele>
        <time>2023-07-13T02:27:19.000+02:00</time>
      </trkpt>
      <trkpt lat="43.29349" lon="-3.70666">
        <ele>280</ele>
        <time>2023-07-13T02:27:19.000+02:00</time>
      </trkpt>
      <trkpt lat="43.29344" lon="-3.70667">
        <ele>281.5</ele>
        <time>2023-07-13T02:27:20.000+02:00</time>
      </trkpt>
      <trkpt lat="43.2934" lon="-3.7067">
        <ele>282.8</ele>
        <time>2023-07-13T02:27:21.000+02:00</time>
      </trkpt>
      <trkpt lat="43.29334" lon="-3.70675">
        <ele>284.8</ele>
        <time>2023-07-13T02:27:22.000+02:00</time>
      </trkpt>
      <trkpt lat="43.29328" lon="-3.70686">
        <ele>287</ele>
        <time>2023-07-13T02:27:23.000+02:00</time>
      </trkpt>
      <trkpt lat="43.29327" lon="-3.70691">
        <ele>288</ele>
        <time>2023-07-13T02:27:24.000+02:00</time>
      </trkpt>
      <trkpt lat="43.29327" lon="-3.70723">
        <ele>292.3</ele>
        <time>2023-07-13T02:27:28.000+02:00</time>
      </trkpt>
      <trkpt lat="43.29326" lon="-3.70768">
        <ele>297.5</ele>
        <time>2023-07-13T02:27:33.000+02:00</time>
      </trkpt>
      <trkpt lat="43.29317" lon="-3.70772">
        <ele>299.3</ele>
        <time>2023-07-13T02:27:34.000+02:00</time>
      </trkpt>
      <trkpt lat="43.29309" lon="-3.70774">
        <ele>301</ele>
        <time>2023-07-13T02:27:35.000+02:00</time>
      </trkpt>
      <trkpt lat="43.29301" lon="-3.70774">
        <ele>302.8</ele>
        <time>2023-07-13T02:27:37.000+02:00</time>
      </trkpt>
      <trkpt lat="43.29292" lon="-3.70773">
        <ele>304</ele>
        <time>2023-07-13T02:27:38.000+02:00</time>
      </trkpt>
      <trkpt lat="43.29287" lon="-3.70774">
        <ele>305</ele>
        <time>2023-07-13T02:27:39.000+02:00</time>
      </trkpt>
      <trkpt lat="43.29276" lon="-3.70781">
        <ele>308.3</ele>
        <time>2023-07-13T02:27:41.000+02:00</time>
      </trkpt>
      <trkpt lat="43.2925" lon="-3.708">
        <ele>316.3</ele>
        <time>2023-07-13T02:27:45.000+02:00</time>
      </trkpt>
      <trkpt lat="43.29245" lon="-3.70806">
        <ele>319</ele>
        <time>2023-07-13T02:27:46.000+02:00</time>
      </trkpt>
      <trkpt lat="43.29241" lon="-3.70819">
        <ele>322.3</ele>
        <time>2023-07-13T02:27:48.000+02:00</time>
      </trkpt>
      <trkpt lat="43.2924" lon="-3.70826">
        <ele>324</ele>
        <time>2023-07-13T02:27:49.000+02:00</time>
      </trkpt>
      <trkpt lat="43.29237" lon="-3.70831">
        <ele>325.8</ele>
        <time>2023-07-13T02:27:50.000+02:00</time>
      </trkpt>
      <trkpt lat="43.29234" lon="-3.70834">
        <ele>327</ele>
        <time>2023-07-13T02:27:51.000+02:00</time>
      </trkpt>
      <trkpt lat="43.29228" lon="-3.70835">
        <ele>329.3</ele>
        <time>2023-07-13T02:27:52.000+02:00</time>
      </trkpt>
      <trkpt lat="43.29221" lon="-3.70835">
        <ele>331.5</ele>
        <time>2023-07-13T02:27:53.000+02:00</time>
      </trkpt>
      <trkpt lat="43.29216" lon="-3.70832">
        <ele>332.5</ele>
        <time>2023-07-13T02:27:54.000+02:00</time>
      </trkpt>
      <trkpt lat="43.29203" lon="-3.70817">
        <ele>334</ele>
        <time>2023-07-13T02:27:56.000+02:00</time>
      </trkpt>
      <trkpt lat="43.29199" lon="-3.70814">
        <ele>335</ele>
        <time>2023-07-13T02:27:57.000+02:00</time>
      </trkpt>
      <trkpt lat="43.29191" lon="-3.70811">
        <ele>336.8</ele>
        <time>2023-07-13T02:27:58.000+02:00</time>
      </trkpt>
      <trkpt lat="43.29186" lon="-3.70809">
        <ele>338</ele>
        <time>2023-07-13T02:27:59.000+02:00</time>
      </trkpt>
      <trkpt lat="43.29174" lon="-3.7081">
        <ele>341.8</ele>
        <time>2023-07-13T02:28:01.000+02:00</time>
      </trkpt>
      <trkpt lat="43.29159" lon="-3.70806">
        <ele>346.5</ele>
        <time>2023-07-13T02:28:03.000+02:00</time>
      </trkpt>
      <trkpt lat="43.29151" lon="-3.70802">
        <ele>348.8</ele>
        <time>2023-07-13T02:28:04.000+02:00</time>
      </trkpt>
      <trkpt lat="43.29149" lon="-3.70799">
        <ele>349.5</ele>
        <time>2023-07-13T02:28:05.000+02:00</time>
      </trkpt>
      <trkpt lat="43.2914" lon="-3.70779">
        <ele>349.5</ele>
        <time>2023-07-13T02:28:08.000+02:00</time>
      </trkpt>
      <trkpt lat="43.29129" lon="-3.70761">
        <ele>351.3</ele>
        <time>2023-07-13T02:28:10.000+02:00</time>
      </trkpt>
      <trkpt lat="43.29124" lon="-3.70757">
        <ele>353</ele>
        <time>2023-07-13T02:28:11.000+02:00</time>
      </trkpt>
      <trkpt lat="43.29114" lon="-3.7075">
        <ele>356.5</ele>
        <time>2023-07-13T02:28:13.000+02:00</time>
      </trkpt>
      <trkpt lat="43.29101" lon="-3.70736">
        <ele>360.5</ele>
        <time>2023-07-13T02:28:15.000+02:00</time>
      </trkpt>
      <trkpt lat="43.29089" lon="-3.70717">
        <ele>362.8</ele>
        <time>2023-07-13T02:28:18.000+02:00</time>
      </trkpt>
      <trkpt lat="43.29079" lon="-3.70691">
        <ele>362.8</ele>
        <time>2023-07-13T02:28:21.000+02:00</time>
      </trkpt>
      <trkpt lat="43.29073" lon="-3.70678">
        <ele>363.3</ele>
        <time>2023-07-13T02:28:23.000+02:00</time>
      </trkpt>
      <trkpt lat="43.29068" lon="-3.70671">
        <ele>363.8</ele>
        <time>2023-07-13T02:28:24.000+02:00</time>
      </trkpt>
      <trkpt lat="43.29058" lon="-3.70658">
        <ele>365.3</ele>
        <time>2023-07-13T02:28:26.000+02:00</time>
      </trkpt>
      <trkpt lat="43.29026" lon="-3.70632">
        <ele>370</ele>
        <time>2023-07-13T02:28:32.000+02:00</time>
      </trkpt>
      <trkpt lat="43.29018" lon="-3.70621">
        <ele>369</ele>
        <time>2023-07-13T02:28:34.000+02:00</time>
      </trkpt>
      <trkpt lat="43.29015" lon="-3.70618">
        <ele>369</ele>
        <time>2023-07-13T02:28:35.000+02:00</time>
      </trkpt>
      <trkpt lat="43.29005" lon="-3.70616">
        <ele>370.8</ele>
        <time>2023-07-13T02:28:37.000+02:00</time>
      </trkpt>
      <trkpt lat="43.28968" lon="-3.70622">
        <ele>377.3</ele>
        <time>2023-07-13T02:28:42.000+02:00</time>
      </trkpt>
      <trkpt lat="43.28956" lon="-3.70623">
        <ele>378.5</ele>
        <time>2023-07-13T02:28:44.000+02:00</time>
      </trkpt>
      <trkpt lat="43.28933" lon="-3.70614">
        <ele>377.8</ele>
        <time>2023-07-13T02:28:48.000+02:00</time>
      </trkpt>
      <trkpt lat="43.28923" lon="-3.70607">
        <ele>376.5</ele>
        <time>2023-07-13T02:28:50.000+02:00</time>
      </trkpt>
      <trkpt lat="43.28915" lon="-3.706">
        <ele>375</ele>
        <time>2023-07-13T02:28:51.000+02:00</time>
      </trkpt>
      <trkpt lat="43.2891" lon="-3.70596">
        <ele>374.5</ele>
        <time>2023-07-13T02:28:52.000+02:00</time>
      </trkpt>
      <trkpt lat="43.28903" lon="-3.70585">
        <ele>372.8</ele>
        <time>2023-07-13T02:28:54.000+02:00</time>
      </trkpt>
      <trkpt lat="43.28892" lon="-3.70576">
        <ele>374</ele>
        <time>2023-07-13T02:28:56.000+02:00</time>
      </trkpt>
      <trkpt lat="43.28885" lon="-3.70574">
        <ele>375.5</ele>
        <time>2023-07-13T02:28:57.000+02:00</time>
      </trkpt>
      <trkpt lat="43.28869" lon="-3.70574">
        <ele>379.5</ele>
        <time>2023-07-13T02:28:59.000+02:00</time>
      </trkpt>
      <trkpt lat="43.28861" lon="-3.70568">
        <ele>380.5</ele>
        <time>2023-07-13T02:29:00.000+02:00</time>
      </trkpt>
      <trkpt lat="43.28855" lon="-3.70561">
        <ele>381.3</ele>
        <time>2023-07-13T02:29:02.000+02:00</time>
      </trkpt>
      <trkpt lat="43.28837" lon="-3.7054">
        <ele>383.3</ele>
        <time>2023-07-13T02:29:05.000+02:00</time>
      </trkpt>
      <trkpt lat="43.28833" lon="-3.70537">
        <ele>383.8</ele>
        <time>2023-07-13T02:29:06.000+02:00</time>
      </trkpt>
      <trkpt lat="43.28822" lon="-3.70533">
        <ele>386.8</ele>
        <time>2023-07-13T02:29:08.000+02:00</time>
      </trkpt>
      <trkpt lat="43.28817" lon="-3.7053">
        <ele>388.5</ele>
        <time>2023-07-13T02:29:09.000+02:00</time>
      </trkpt>
      <trkpt lat="43.28805" lon="-3.70504">
        <ele>390.5</ele>
        <time>2023-07-13T02:29:12.000+02:00</time>
      </trkpt>
      <trkpt lat="43.28805" lon="-3.70493">
        <ele>390.8</ele>
        <time>2023-07-13T02:29:13.000+02:00</time>
      </trkpt>
      <trkpt lat="43.28805" lon="-3.70486">
        <ele>391</ele>
        <time>2023-07-13T02:29:14.000+02:00</time>
      </trkpt>
      <trkpt lat="43.28808" lon="-3.7046">
        <ele>390.5</ele>
        <time>2023-07-13T02:29:17.000+02:00</time>
      </trkpt>
      <trkpt lat="43.28805" lon="-3.70438">
        <ele>392.5</ele>
        <time>2023-07-13T02:29:19.000+02:00</time>
      </trkpt>
      <trkpt lat="43.28801" lon="-3.70414">
        <ele>394.3</ele>
        <time>2023-07-13T02:29:22.000+02:00</time>
      </trkpt>
      <trkpt lat="43.28796" lon="-3.70405">
        <ele>395.3</ele>
        <time>2023-07-13T02:29:23.000+02:00</time>
      </trkpt>
      <trkpt lat="43.28787" lon="-3.70392">
        <ele>397</ele>
        <time>2023-07-13T02:29:25.000+02:00</time>
      </trkpt>
      <trkpt lat="43.28784" lon="-3.70385">
        <ele>397.3</ele>
        <time>2023-07-13T02:29:26.000+02:00</time>
      </trkpt>
      <trkpt lat="43.2878" lon="-3.70374">
        <ele>397.3</ele>
        <time>2023-07-13T02:29:28.000+02:00</time>
      </trkpt>
      <trkpt lat="43.28778" lon="-3.7037">
        <ele>397.5</ele>
        <time>2023-07-13T02:29:28.000+02:00</time>
      </trkpt>
      <trkpt lat="43.28774" lon="-3.70365">
        <ele>398</ele>
        <time>2023-07-13T02:29:29.000+02:00</time>
      </trkpt>
      <trkpt lat="43.28768" lon="-3.70361">
        <ele>398.8</ele>
        <time>2023-07-13T02:29:30.000+02:00</time>
      </trkpt>
      <trkpt lat="43.28755" lon="-3.70356">
        <ele>401.5</ele>
        <time>2023-07-13T02:29:32.000+02:00</time>
      </trkpt>
      <trkpt lat="43.28751" lon="-3.70353">
        <ele>402</ele>
        <time>2023-07-13T02:29:33.000+02:00</time>
      </trkpt>
      <trkpt lat="43.28742" lon="-3.70346">
        <ele>402</ele>
        <time>2023-07-13T02:29:34.000+02:00</time>
      </trkpt>
      <trkpt lat="43.28736" lon="-3.70343">
        <ele>402.3</ele>
        <time>2023-07-13T02:29:35.000+02:00</time>
      </trkpt>
      <trkpt lat="43.28729" lon="-3.70342">
        <ele>402.8</ele>
        <time>2023-07-13T02:29:36.000+02:00</time>
      </trkpt>
      <trkpt lat="43.28704" lon="-3.70339">
        <ele>405.3</ele>
        <time>2023-07-13T02:29:40.000+02:00</time>
      </trkpt>
      <trkpt lat="43.28678" lon="-3.70333">
        <ele>406.5</ele>
        <time>2023-07-13T02:29:44.000+02:00</time>
      </trkpt>
      <trkpt lat="43.28653" lon="-3.70324">
        <ele>407.3</ele>
        <time>2023-07-13T02:29:48.000+02:00</time>
      </trkpt>
      <trkpt lat="43.28627" lon="-3.70295">
        <ele>403.8</ele>
        <time>2023-07-13T02:29:53.000+02:00</time>
      </trkpt>
      <trkpt lat="43.28622" lon="-3.7029">
        <ele>403.5</ele>
        <time>2023-07-13T02:29:54.000+02:00</time>
      </trkpt>
      <trkpt lat="43.28611" lon="-3.7028">
        <ele>402.8</ele>
        <time>2023-07-13T02:29:56.000+02:00</time>
      </trkpt>
      <trkpt lat="43.28587" lon="-3.70264">
        <ele>403.3</ele>
        <time>2023-07-13T02:30:00.000+02:00</time>
      </trkpt>
      <trkpt lat="43.28581" lon="-3.70263">
        <ele>403.5</ele>
        <time>2023-07-13T02:30:01.000+02:00</time>
      </trkpt>
      <trkpt lat="43.28568" lon="-3.70261">
        <ele>404</ele>
        <time>2023-07-13T02:30:03.000+02:00</time>
      </trkpt>
      <trkpt lat="43.28563" lon="-3.70259">
        <ele>404</ele>
        <time>2023-07-13T02:30:04.000+02:00</time>
      </trkpt>
      <trkpt lat="43.28558" lon="-3.70257">
        <ele>403.8</ele>
        <time>2023-07-13T02:30:05.000+02:00</time>
      </trkpt>
      <trkpt lat="43.28552" lon="-3.70253">
        <ele>403.3</ele>
        <time>2023-07-13T02:30:06.000+02:00</time>
      </trkpt>
      <trkpt lat="43.28545" lon="-3.70246">
        <ele>402.3</ele>
        <time>2023-07-13T02:30:07.000+02:00</time>
      </trkpt>
      <trkpt lat="43.28536" lon="-3.70238">
        <ele>400.8</ele>
        <time>2023-07-13T02:30:09.000+02:00</time>
      </trkpt>
      <trkpt lat="43.2853" lon="-3.70235">
        <ele>400.5</ele>
        <time>2023-07-13T02:30:10.000+02:00</time>
      </trkpt>
      <trkpt lat="43.2852" lon="-3.70235">
        <ele>400.8</ele>
        <time>2023-07-13T02:30:11.000+02:00</time>
      </trkpt>
      <trkpt lat="43.28515" lon="-3.70237">
        <ele>401.5</ele>
        <time>2023-07-13T02:30:12.000+02:00</time>
      </trkpt>
      <trkpt lat="43.28508" lon="-3.70242">
        <ele>403</ele>
        <time>2023-07-13T02:30:13.000+02:00</time>
      </trkpt>
      <trkpt lat="43.28503" lon="-3.70249">
        <ele>405.3</ele>
        <time>2023-07-13T02:30:14.000+02:00</time>
      </trkpt>
      <trkpt lat="43.28492" lon="-3.70269">
        <ele>410</ele>
        <time>2023-07-13T02:30:17.000+02:00</time>
      </trkpt>
      <trkpt lat="43.28476" lon="-3.70286">
        <ele>414.5</ele>
        <time>2023-07-13T02:30:20.000+02:00</time>
      </trkpt>
      <trkpt lat="43.2847" lon="-3.70291">
        <ele>416.3</ele>
        <time>2023-07-13T02:30:21.000+02:00</time>
      </trkpt>
      <trkpt lat="43.28465" lon="-3.70294">
        <ele>417.5</ele>
        <time>2023-07-13T02:30:22.000+02:00</time>
      </trkpt>
      <trkpt lat="43.28456" lon="-3.70296">
        <ele>418.5</ele>
        <time>2023-07-13T02:30:24.000+02:00</time>
      </trkpt>
      <trkpt lat="43.28426" lon="-3.70301">
        <ele>421.5</ele>
        <time>2023-07-13T02:30:28.000+02:00</time>
      </trkpt>
      <trkpt lat="43.28419" lon="-3.703">
        <ele>421.8</ele>
        <time>2023-07-13T02:30:29.000+02:00</time>
      </trkpt>
      <trkpt lat="43.28407" lon="-3.70295">
        <ele>418.8</ele>
        <time>2023-07-13T02:30:31.000+02:00</time>
      </trkpt>
      <trkpt lat="43.28401" lon="-3.70293">
        <ele>417.5</ele>
        <time>2023-07-13T02:30:32.000+02:00</time>
      </trkpt>
      <trkpt lat="43.28394" lon="-3.70292">
        <ele>416.5</ele>
        <time>2023-07-13T02:30:33.000+02:00</time>
      </trkpt>
      <trkpt lat="43.28376" lon="-3.70296">
        <ele>415.8</ele>
        <time>2023-07-13T02:30:36.000+02:00</time>
      </trkpt>
      <trkpt lat="43.28328" lon="-3.70313">
        <ele>414.3</ele>
        <time>2023-07-13T02:30:44.000+02:00</time>
      </trkpt>
      <trkpt lat="43.28323" lon="-3.70315">
        <ele>412</ele>
        <time>2023-07-13T02:30:45.000+02:00</time>
      </trkpt>
      <trkpt lat="43.28319" lon="-3.70319">
        <ele>410.5</ele>
        <time>2023-07-13T02:30:46.000+02:00</time>
      </trkpt>
      <trkpt lat="43.28315" lon="-3.70324">
        <ele>409.5</ele>
        <time>2023-07-13T02:30:47.000+02:00</time>
      </trkpt>
      <trkpt lat="43.28313" lon="-3.70329">
        <ele>410</ele>
        <time>2023-07-13T02:30:48.000+02:00</time>
      </trkpt>
      <trkpt lat="43.28299" lon="-3.7037">
        <ele>412.8</ele>
        <time>2023-07-13T02:30:53.000+02:00</time>
      </trkpt>
      <trkpt lat="43.28293" lon="-3.70389">
        <ele>414.8</ele>
        <time>2023-07-13T02:30:55.000+02:00</time>
      </trkpt>
      <trkpt lat="43.28282" lon="-3.70414">
        <ele>415.8</ele>
        <time>2023-07-13T02:30:58.000+02:00</time>
      </trkpt>
      <trkpt lat="43.28271" lon="-3.70433">
        <ele>411.8</ele>
        <time>2023-07-13T02:31:01.000+02:00</time>
      </trkpt>
      <trkpt lat="43.28261" lon="-3.70456">
        <ele>407.8</ele>
        <time>2023-07-13T02:31:04.000+02:00</time>
      </trkpt>
      <trkpt lat="43.28236" lon="-3.70519">
        <ele>400</ele>
        <time>2023-07-13T02:31:12.000+02:00</time>
      </trkpt>
      <trkpt lat="43.28234" lon="-3.70526">
        <ele>399.8</ele>
        <time>2023-07-13T02:31:13.000+02:00</time>
      </trkpt>
      <trkpt lat="43.28234" lon="-3.7054">
        <ele>402.3</ele>
        <time>2023-07-13T02:31:14.000+02:00</time>
      </trkpt>
      <trkpt lat="43.28227" lon="-3.70586">
        <ele>406</ele>
        <time>2023-07-13T02:31:19.000+02:00</time>
      </trkpt>
      <trkpt lat="43.28218" lon="-3.70626">
        <ele>408.8</ele>
        <time>2023-07-13T02:31:24.000+02:00</time>
      </trkpt>
      <trkpt lat="43.28208" lon="-3.70651">
        <ele>408.3</ele>
        <time>2023-07-13T02:31:27.000+02:00</time>
      </trkpt>
      <trkpt lat="43.28204" lon="-3.70661">
        <ele>407.3</ele>
        <time>2023-07-13T02:31:29.000+02:00</time>
      </trkpt>
      <trkpt lat="43.28198" lon="-3.70669">
        <ele>405.8</ele>
        <time>2023-07-13T02:31:30.000+02:00</time>
      </trkpt>
      <trkpt lat="43.2818" lon="-3.70687">
        <ele>399.3</ele>
        <time>2023-07-13T02:31:33.000+02:00</time>
      </trkpt>
      <trkpt lat="43.28176" lon="-3.70695">
        <ele>398</ele>
        <time>2023-07-13T02:31:34.000+02:00</time>
      </trkpt>
      <trkpt lat="43.28165" lon="-3.70714">
        <ele>397</ele>
        <time>2023-07-13T02:31:37.000+02:00</time>
      </trkpt>
      <trkpt lat="43.28131" lon="-3.70765">
        <ele>398.5</ele>
        <time>2023-07-13T02:31:45.000+02:00</time>
      </trkpt>
      <trkpt lat="43.28112" lon="-3.70792">
        <ele>399.3</ele>
        <time>2023-07-13T02:31:49.000+02:00</time>
      </trkpt>
      <trkpt lat="43.28089" lon="-3.70818">
        <ele>396.5</ele>
        <time>2023-07-13T02:31:53.000+02:00</time>
      </trkpt>
      <trkpt lat="43.28068" lon="-3.70845">
        <ele>397.8</ele>
        <time>2023-07-13T02:31:58.000+02:00</time>
      </trkpt>
      <trkpt lat="43.28023" lon="-3.7089">
        <ele>397</ele>
        <time>2023-07-13T02:32:06.000+02:00</time>
      </trkpt>
      <trkpt lat="43.28014" lon="-3.70895">
        <ele>395.5</ele>
        <time>2023-07-13T02:32:08.000+02:00</time>
      </trkpt>
      <trkpt lat="43.28007" lon="-3.70902">
        <ele>394.8</ele>
        <time>2023-07-13T02:32:09.000+02:00</time>
      </trkpt>
      <trkpt lat="43.27998" lon="-3.70911">
        <ele>394</ele>
        <time>2023-07-13T02:32:11.000+02:00</time>
      </trkpt>
      <trkpt lat="43.27988" lon="-3.70925">
        <ele>395.5</ele>
        <time>2023-07-13T02:32:13.000+02:00</time>
      </trkpt>
      <trkpt lat="43.27964" lon="-3.70955">
        <ele>397.3</ele>
        <time>2023-07-13T02:32:18.000+02:00</time>
      </trkpt>
      <trkpt lat="43.2796" lon="-3.70958">
        <ele>397</ele>
        <time>2023-07-13T02:32:19.000+02:00</time>
      </trkpt>
      <trkpt lat="43.27956" lon="-3.70964">
        <ele>397.3</ele>
        <time>2023-07-13T02:32:20.000+02:00</time>
      </trkpt>
      <trkpt lat="43.27941" lon="-3.70983">
        <ele>397.3</ele>
        <time>2023-07-13T02:32:23.000+02:00</time>
      </trkpt>
      <trkpt lat="43.27936" lon="-3.70987">
        <ele>396.5</ele>
        <time>2023-07-13T02:32:24.000+02:00</time>
      </trkpt>
      <trkpt lat="43.27915" lon="-3.71021">
        <ele>397.3</ele>
        <time>2023-07-13T02:32:29.000+02:00</time>
      </trkpt>
      <trkpt lat="43.27903" lon="-3.71031">
        <ele>396.8</ele>
        <time>2023-07-13T02:32:32.000+02:00</time>
      </trkpt>
      <trkpt lat="43.27892" lon="-3.7103">
        <ele>393.5</ele>
        <time>2023-07-13T02:32:33.000+02:00</time>
      </trkpt>
      <trkpt lat="43.27888" lon="-3.71029">
        <ele>392.5</ele>
        <time>2023-07-13T02:32:34.000+02:00</time>
      </trkpt>
      <trkpt lat="43.2788" lon="-3.71029">
        <ele>390.5</ele>
        <time>2023-07-13T02:32:35.000+02:00</time>
      </trkpt>
      <trkpt lat="43.27871" lon="-3.71031">
        <ele>388.5</ele>
        <time>2023-07-13T02:32:37.000+02:00</time>
      </trkpt>
      <trkpt lat="43.27822" lon="-3.71046">
        <ele>379.3</ele>
        <time>2023-07-13T02:32:44.000+02:00</time>
      </trkpt>
      <trkpt lat="43.27813" lon="-3.71053">
        <ele>378</ele>
        <time>2023-07-13T02:32:46.000+02:00</time>
      </trkpt>
      <trkpt lat="43.27795" lon="-3.71077">
        <ele>378</ele>
        <time>2023-07-13T02:32:50.000+02:00</time>
      </trkpt>
      <trkpt lat="43.27789" lon="-3.71091">
        <ele>379</ele>
        <time>2023-07-13T02:32:51.000+02:00</time>
      </trkpt>
      <trkpt lat="43.27776" lon="-3.71109">
        <ele>379</ele>
        <time>2023-07-13T02:32:54.000+02:00</time>
      </trkpt>
      <trkpt lat="43.2776" lon="-3.71141">
        <ele>381.3</ele>
        <time>2023-07-13T02:32:58.000+02:00</time>
      </trkpt>
      <trkpt lat="43.27753" lon="-3.71156">
        <ele>383</ele>
        <time>2023-07-13T02:33:01.000+02:00</time>
      </trkpt>
      <trkpt lat="43.27739" lon="-3.7118">
        <ele>382.8</ele>
        <time>2023-07-13T02:33:04.000+02:00</time>
      </trkpt>
      <trkpt lat="43.27719" lon="-3.71221">
        <ele>383</ele>
        <time>2023-07-13T02:33:09.000+02:00</time>
      </trkpt>
      <trkpt lat="43.27713" lon="-3.71231">
        <ele>382.8</ele>
        <time>2023-07-13T02:33:11.000+02:00</time>
      </trkpt>
      <trkpt lat="43.27697" lon="-3.71251">
        <ele>380.5</ele>
        <time>2023-07-13T02:33:14.000+02:00</time>
      </trkpt>
      <trkpt lat="43.2767" lon="-3.7128">
        <ele>376.8</ele>
        <time>2023-07-13T02:33:19.000+02:00</time>
      </trkpt>
      <trkpt lat="43.2766" lon="-3.71288">
        <ele>375.5</ele>
        <time>2023-07-13T02:33:21.000+02:00</time>
      </trkpt>
      <trkpt lat="43.27651" lon="-3.71289">
        <ele>373.5</ele>
        <time>2023-07-13T02:33:22.000+02:00</time>
      </trkpt>
      <trkpt lat="43.27623" lon="-3.71282">
        <ele>365</ele>
        <time>2023-07-13T02:33:27.000+02:00</time>
      </trkpt>
      <trkpt lat="43.27608" lon="-3.71284">
        <ele>361.5</ele>
        <time>2023-07-13T02:33:29.000+02:00</time>
      </trkpt>
      <trkpt lat="43.276" lon="-3.71288">
        <ele>360</ele>
        <time>2023-07-13T02:33:30.000+02:00</time>
      </trkpt>
      <trkpt lat="43.27593" lon="-3.7129">
        <ele>358.8</ele>
        <time>2023-07-13T02:33:31.000+02:00</time>
      </trkpt>
      <trkpt lat="43.27586" lon="-3.71291">
        <ele>357</ele>
        <time>2023-07-13T02:33:33.000+02:00</time>
      </trkpt>
      <trkpt lat="43.27572" lon="-3.71289">
        <ele>353.5</ele>
        <time>2023-07-13T02:33:35.000+02:00</time>
      </trkpt>
      <trkpt lat="43.27559" lon="-3.71292">
        <ele>351</ele>
        <time>2023-07-13T02:33:37.000+02:00</time>
      </trkpt>
      <trkpt lat="43.27553" lon="-3.71292">
        <ele>349.8</ele>
        <time>2023-07-13T02:33:38.000+02:00</time>
      </trkpt>
      <trkpt lat="43.27539" lon="-3.71289">
        <ele>346.3</ele>
        <time>2023-07-13T02:33:40.000+02:00</time>
      </trkpt>
      <trkpt lat="43.27525" lon="-3.71289">
        <ele>343.3</ele>
        <time>2023-07-13T02:33:42.000+02:00</time>
      </trkpt>
      <trkpt lat="43.27518" lon="-3.71291">
        <ele>341.8</ele>
        <time>2023-07-13T02:33:43.000+02:00</time>
      </trkpt>
      <trkpt lat="43.27515" lon="-3.71295">
        <ele>341.8</ele>
        <time>2023-07-13T02:33:44.000+02:00</time>
      </trkpt>
      <trkpt lat="43.27501" lon="-3.71311">
        <ele>341</ele>
        <time>2023-07-13T02:33:47.000+02:00</time>
      </trkpt>
      <trkpt lat="43.2749" lon="-3.71327">
        <ele>342.3</ele>
        <time>2023-07-13T02:33:49.000+02:00</time>
      </trkpt>
      <trkpt lat="43.27486" lon="-3.71344">
        <ele>344.8</ele>
        <time>2023-07-13T02:33:51.000+02:00</time>
      </trkpt>
      <trkpt lat="43.27477" lon="-3.71371">
        <ele>348</ele>
        <time>2023-07-13T02:33:54.000+02:00</time>
      </trkpt>
      <trkpt lat="43.2747" lon="-3.71393">
        <ele>350.8</ele>
        <time>2023-07-13T02:33:57.000+02:00</time>
      </trkpt>
      <trkpt lat="43.27474" lon="-3.71476">
        <ele>360.5</ele>
        <time>2023-07-13T02:34:06.000+02:00</time>
      </trkpt>
      <trkpt lat="43.27476" lon="-3.71484">
        <ele>361.3</ele>
        <time>2023-07-13T02:34:07.000+02:00</time>
      </trkpt>
      <trkpt lat="43.27477" lon="-3.7149">
        <ele>362.3</ele>
        <time>2023-07-13T02:34:08.000+02:00</time>
      </trkpt>
      <trkpt lat="43.27479" lon="-3.71496">
        <ele>363</ele>
        <time>2023-07-13T02:34:09.000+02:00</time>
      </trkpt>
      <trkpt lat="43.27482" lon="-3.71518">
        <ele>364.8</ele>
        <time>2023-07-13T02:34:11.000+02:00</time>
      </trkpt>
      <trkpt lat="43.2748" lon="-3.71533">
        <ele>365.3</ele>
        <time>2023-07-13T02:34:13.000+02:00</time>
      </trkpt>
      <trkpt lat="43.2747" lon="-3.71557">
        <ele>365.3</ele>
        <time>2023-07-13T02:34:16.000+02:00</time>
      </trkpt>
      <trkpt lat="43.27456" lon="-3.71596">
        <ele>366.5</ele>
        <time>2023-07-13T02:34:21.000+02:00</time>
      </trkpt>
      <trkpt lat="43.27449" lon="-3.7164">
        <ele>370.8</ele>
        <time>2023-07-13T02:34:26.000+02:00</time>
      </trkpt>
      <trkpt lat="43.27442" lon="-3.71649">
        <ele>371.3</ele>
        <time>2023-07-13T02:34:27.000+02:00</time>
      </trkpt>
      <trkpt lat="43.27422" lon="-3.71656">
        <ele>370</ele>
        <time>2023-07-13T02:34:30.000+02:00</time>
      </trkpt>
      <trkpt lat="43.27409" lon="-3.71665">
        <ele>370.8</ele>
        <time>2023-07-13T02:34:33.000+02:00</time>
      </trkpt>
      <trkpt lat="43.27384" lon="-3.71689">
        <ele>374.8</ele>
        <time>2023-07-13T02:34:37.000+02:00</time>
      </trkpt>
      <trkpt lat="43.27377" lon="-3.71698">
        <ele>376.3</ele>
        <time>2023-07-13T02:34:39.000+02:00</time>
      </trkpt>
      <trkpt lat="43.27373" lon="-3.71707">
        <ele>378</ele>
        <time>2023-07-13T02:34:40.000+02:00</time>
      </trkpt>
      <trkpt lat="43.27364" lon="-3.71731">
        <ele>382</ele>
        <time>2023-07-13T02:34:43.000+02:00</time>
      </trkpt>
      <trkpt lat="43.27358" lon="-3.71766">
        <ele>386.5</ele>
        <time>2023-07-13T02:34:47.000+02:00</time>
      </trkpt>
      <trkpt lat="43.27354" lon="-3.7179">
        <ele>388.3</ele>
        <time>2023-07-13T02:34:50.000+02:00</time>
      </trkpt>
      <trkpt lat="43.2735" lon="-3.71843">
        <ele>393.3</ele>
        <time>2023-07-13T02:34:56.000+02:00</time>
      </trkpt>
      <trkpt lat="43.27346" lon="-3.71865">
        <ele>396</ele>
        <time>2023-07-13T02:34:58.000+02:00</time>
      </trkpt>
      <trkpt lat="43.27346" lon="-3.71874">
        <ele>397.3</ele>
        <time>2023-07-13T02:34:59.000+02:00</time>
      </trkpt>
      <trkpt lat="43.27349" lon="-3.71885">
        <ele>398.5</ele>
        <time>2023-07-13T02:35:00.000+02:00</time>
      </trkpt>
      <trkpt lat="43.27349" lon="-3.71891">
        <ele>399.3</ele>
        <time>2023-07-13T02:35:01.000+02:00</time>
      </trkpt>
      <trkpt lat="43.2735" lon="-3.71912">
        <ele>402</ele>
        <time>2023-07-13T02:35:03.000+02:00</time>
      </trkpt>
      <trkpt lat="43.27349" lon="-3.71933">
        <ele>405</ele>
        <time>2023-07-13T02:35:06.000+02:00</time>
      </trkpt>
      <trkpt lat="43.27348" lon="-3.71942">
        <ele>406.3</ele>
        <time>2023-07-13T02:35:07.000+02:00</time>
      </trkpt>
      <trkpt lat="43.27347" lon="-3.71949">
        <ele>407.3</ele>
        <time>2023-07-13T02:35:08.000+02:00</time>
      </trkpt>
      <trkpt lat="43.27344" lon="-3.7196">
        <ele>408.8</ele>
        <time>2023-07-13T02:35:10.000+02:00</time>
      </trkpt>
      <trkpt lat="43.27336" lon="-3.7197">
        <ele>409.5</ele>
        <time>2023-07-13T02:35:11.000+02:00</time>
      </trkpt>
      <trkpt lat="43.27317" lon="-3.71991">
        <ele>411.5</ele>
        <time>2023-07-13T02:35:15.000+02:00</time>
      </trkpt>
      <trkpt lat="43.2731" lon="-3.72001">
        <ele>412.5</ele>
        <time>2023-07-13T02:35:17.000+02:00</time>
      </trkpt>
      <trkpt lat="43.27301" lon="-3.72005">
        <ele>413</ele>
        <time>2023-07-13T02:35:18.000+02:00</time>
      </trkpt>
      <trkpt lat="43.2729" lon="-3.72002">
        <ele>412</ele>
        <time>2023-07-13T02:35:20.000+02:00</time>
      </trkpt>
      <trkpt lat="43.27279" lon="-3.72">
        <ele>411.5</ele>
        <time>2023-07-13T02:35:21.000+02:00</time>
      </trkpt>
      <trkpt lat="43.2727" lon="-3.72001">
        <ele>411.5</ele>
        <time>2023-07-13T02:35:23.000+02:00</time>
      </trkpt>
      <trkpt lat="43.27255" lon="-3.72009">
        <ele>412</ele>
        <time>2023-07-13T02:35:25.000+02:00</time>
      </trkpt>
      <trkpt lat="43.27247" lon="-3.72016">
        <ele>412.8</ele>
        <time>2023-07-13T02:35:27.000+02:00</time>
      </trkpt>
      <trkpt lat="43.27245" lon="-3.72023">
        <ele>413.5</ele>
        <time>2023-07-13T02:35:28.000+02:00</time>
      </trkpt>
      <trkpt lat="43.27243" lon="-3.7203">
        <ele>414.5</ele>
        <time>2023-07-13T02:35:29.000+02:00</time>
      </trkpt>
      <trkpt lat="43.27242" lon="-3.72045">
        <ele>416.3</ele>
        <time>2023-07-13T02:35:31.000+02:00</time>
      </trkpt>
      <trkpt lat="43.27244" lon="-3.72063">
        <ele>418.5</ele>
        <time>2023-07-13T02:35:33.000+02:00</time>
      </trkpt>
      <trkpt lat="43.27258" lon="-3.72092">
        <ele>423.8</ele>
        <time>2023-07-13T02:35:37.000+02:00</time>
      </trkpt>
      <trkpt lat="43.27267" lon="-3.72102">
        <ele>426.8</ele>
        <time>2023-07-13T02:35:39.000+02:00</time>
      </trkpt>
      <trkpt lat="43.27277" lon="-3.72106">
        <ele>428.8</ele>
        <time>2023-07-13T02:35:40.000+02:00</time>
      </trkpt>
      <trkpt lat="43.27288" lon="-3.72109">
        <ele>430.3</ele>
        <time>2023-07-13T02:35:42.000+02:00</time>
      </trkpt>
      <trkpt lat="43.27301" lon="-3.72108">
        <ele>431.3</ele>
        <time>2023-07-13T02:35:44.000+02:00</time>
      </trkpt>
      <trkpt lat="43.27312" lon="-3.72103">
        <ele>431.5</ele>
        <time>2023-07-13T02:35:46.000+02:00</time>
      </trkpt>
      <trkpt lat="43.2735" lon="-3.72085">
        <ele>432.5</ele>
        <time>2023-07-13T02:35:52.000+02:00</time>
      </trkpt>
      <trkpt lat="43.27358" lon="-3.72086">
        <ele>434.3</ele>
        <time>2023-07-13T02:35:53.000+02:00</time>
      </trkpt>
      <trkpt lat="43.27365" lon="-3.72096">
        <ele>437.8</ele>
        <time>2023-07-13T02:35:55.000+02:00</time>
      </trkpt>
      <trkpt lat="43.27365" lon="-3.72106">
        <ele>440.5</ele>
        <time>2023-07-13T02:35:56.000+02:00</time>
      </trkpt>
      <trkpt lat="43.27359" lon="-3.72119">
        <ele>442.3</ele>
        <time>2023-07-13T02:35:57.000+02:00</time>
      </trkpt>
      <trkpt lat="43.27348" lon="-3.72128">
        <ele>442.3</ele>
        <time>2023-07-13T02:35:59.000+02:00</time>
      </trkpt>
      <trkpt lat="43.27324" lon="-3.72148">
        <ele>442.8</ele>
        <time>2023-07-13T02:36:04.000+02:00</time>
      </trkpt>
      <trkpt lat="43.27296" lon="-3.72171">
        <ele>445.5</ele>
        <time>2023-07-13T02:36:09.000+02:00</time>
      </trkpt>
      <trkpt lat="43.27286" lon="-3.72183">
        <ele>447.3</ele>
        <time>2023-07-13T02:36:11.000+02:00</time>
      </trkpt>
      <trkpt lat="43.27274" lon="-3.7221">
        <ele>452.3</ele>
        <time>2023-07-13T02:36:14.000+02:00</time>
      </trkpt>
      <trkpt lat="43.27264" lon="-3.72235">
        <ele>456.3</ele>
        <time>2023-07-13T02:36:17.000+02:00</time>
      </trkpt>
      <trkpt lat="43.27252" lon="-3.72256">
        <ele>458.8</ele>
        <time>2023-07-13T02:36:20.000+02:00</time>
      </trkpt>
      <trkpt lat="43.2724" lon="-3.72268">
        <ele>461.3</ele>
        <time>2023-07-13T02:36:23.000+02:00</time>
      </trkpt>
      <trkpt lat="43.2723" lon="-3.72276">
        <ele>463.5</ele>
        <time>2023-07-13T02:36:24.000+02:00</time>
      </trkpt>
      <trkpt lat="43.27214" lon="-3.72286">
        <ele>466.3</ele>
        <time>2023-07-13T02:36:27.000+02:00</time>
      </trkpt>
      <trkpt lat="43.27203" lon="-3.72288">
        <ele>467</ele>
        <time>2023-07-13T02:36:29.000+02:00</time>
      </trkpt>
      <trkpt lat="43.27191" lon="-3.72286">
        <ele>467</ele>
        <time>2023-07-13T02:36:31.000+02:00</time>
      </trkpt>
      <trkpt lat="43.27179" lon="-3.7228">
        <ele>466</ele>
        <time>2023-07-13T02:36:33.000+02:00</time>
      </trkpt>
      <trkpt lat="43.27153" lon="-3.72271">
        <ele>466.8</ele>
        <time>2023-07-13T02:36:37.000+02:00</time>
      </trkpt>
      <trkpt lat="43.27139" lon="-3.72268">
        <ele>468.5</ele>
        <time>2023-07-13T02:36:39.000+02:00</time>
      </trkpt>
      <trkpt lat="43.27126" lon="-3.72272">
        <ele>471.8</ele>
        <time>2023-07-13T02:36:41.000+02:00</time>
      </trkpt>
      <trkpt lat="43.27119" lon="-3.72281">
        <ele>475</ele>
        <time>2023-07-13T02:36:42.000+02:00</time>
      </trkpt>
      <trkpt lat="43.27118" lon="-3.72295">
        <ele>478.3</ele>
        <time>2023-07-13T02:36:44.000+02:00</time>
      </trkpt>
      <trkpt lat="43.27122" lon="-3.7231">
        <ele>480.8</ele>
        <time>2023-07-13T02:36:46.000+02:00</time>
      </trkpt>
      <trkpt lat="43.2713" lon="-3.72321">
        <ele>481.8</ele>
        <time>2023-07-13T02:36:48.000+02:00</time>
      </trkpt>
      <trkpt lat="43.27148" lon="-3.72342">
        <ele>484</ele>
        <time>2023-07-13T02:36:51.000+02:00</time>
      </trkpt>
      <trkpt lat="43.27157" lon="-3.72356">
        <ele>487</ele>
        <time>2023-07-13T02:36:53.000+02:00</time>
      </trkpt>
      <trkpt lat="43.27163" lon="-3.72373">
        <ele>491.3</ele>
        <time>2023-07-13T02:36:55.000+02:00</time>
      </trkpt>
      <trkpt lat="43.27164" lon="-3.72385">
        <ele>495</ele>
        <time>2023-07-13T02:36:57.000+02:00</time>
      </trkpt>
      <trkpt lat="43.2716" lon="-3.72393">
        <ele>498.3</ele>
        <time>2023-07-13T02:36:58.000+02:00</time>
      </trkpt>
      <trkpt lat="43.27154" lon="-3.72397">
        <ele>500.5</ele>
        <time>2023-07-13T02:36:59.000+02:00</time>
      </trkpt>
      <trkpt lat="43.27149" lon="-3.72397">
        <ele>501.3</ele>
        <time>2023-07-13T02:37:00.000+02:00</time>
      </trkpt>
      <trkpt lat="43.27144" lon="-3.72394">
        <ele>501</ele>
        <time>2023-07-13T02:37:00.000+02:00</time>
      </trkpt>
      <trkpt lat="43.27131" lon="-3.72381">
        <ele>498.8</ele>
        <time>2023-07-13T02:37:03.000+02:00</time>
      </trkpt>
      <trkpt lat="43.27072" lon="-3.72305">
        <ele>486.3</ele>
        <time>2023-07-13T02:37:15.000+02:00</time>
      </trkpt>
      <trkpt lat="43.27065" lon="-3.72302">
        <ele>485.3</ele>
        <time>2023-07-13T02:37:16.000+02:00</time>
      </trkpt>
      <trkpt lat="43.27057" lon="-3.72304">
        <ele>485.3</ele>
        <time>2023-07-13T02:37:18.000+02:00</time>
      </trkpt>
      <trkpt lat="43.27051" lon="-3.72316">
        <ele>488</ele>
        <time>2023-07-13T02:37:19.000+02:00</time>
      </trkpt>
      <trkpt lat="43.27038" lon="-3.72355">
        <ele>497.3</ele>
        <time>2023-07-13T02:37:24.000+02:00</time>
      </trkpt>
      <trkpt lat="43.27034" lon="-3.72373">
        <ele>501.8</ele>
        <time>2023-07-13T02:37:26.000+02:00</time>
      </trkpt>
      <trkpt lat="43.27032" lon="-3.72397">
        <ele>507.8</ele>
        <time>2023-07-13T02:37:29.000+02:00</time>
      </trkpt>
      <trkpt lat="43.2703" lon="-3.72437">
        <ele>515.8</ele>
        <time>2023-07-13T02:37:33.000+02:00</time>
      </trkpt>
      <trkpt lat="43.27029" lon="-3.72464">
        <ele>520</ele>
        <time>2023-07-13T02:37:36.000+02:00</time>
      </trkpt>
      <trkpt lat="43.27034" lon="-3.72479">
        <ele>522.3</ele>
        <time>2023-07-13T02:37:38.000+02:00</time>
      </trkpt>
      <trkpt lat="43.27042" lon="-3.72497">
        <ele>524.5</ele>
        <time>2023-07-13T02:37:40.000+02:00</time>
      </trkpt>
      <trkpt lat="43.27059" lon="-3.72529">
        <ele>523.8</ele>
        <time>2023-07-13T02:37:45.000+02:00</time>
      </trkpt>
      <trkpt lat="43.27097" lon="-3.72601">
        <ele>524.8</ele>
        <time>2023-07-13T02:37:55.000+02:00</time>
      </trkpt>
      <trkpt lat="43.27099" lon="-3.72606">
        <ele>525.3</ele>
        <time>2023-07-13T02:37:56.000+02:00</time>
      </trkpt>
      <trkpt lat="43.2711" lon="-3.72621">
        <ele>527.5</ele>
        <time>2023-07-13T02:37:59.000+02:00</time>
      </trkpt>
      <trkpt lat="43.27123" lon="-3.72637">
        <ele>530.5</ele>
        <time>2023-07-13T02:38:01.000+02:00</time>
      </trkpt>
      <trkpt lat="43.27136" lon="-3.72654">
        <ele>533.5</ele>
        <time>2023-07-13T02:38:04.000+02:00</time>
      </trkpt>
      <trkpt lat="43.27142" lon="-3.72667">
        <ele>535</ele>
        <time>2023-07-13T02:38:06.000+02:00</time>
      </trkpt>
      <trkpt lat="43.27147" lon="-3.72688">
        <ele>538.3</ele>
        <time>2023-07-13T02:38:08.000+02:00</time>
      </trkpt>
      <trkpt lat="43.27147" lon="-3.72705">
        <ele>540</ele>
        <time>2023-07-13T02:38:10.000+02:00</time>
      </trkpt>
      <trkpt lat="43.27146" lon="-3.7273">
        <ele>542</ele>
        <time>2023-07-13T02:38:13.000+02:00</time>
      </trkpt>
      <trkpt lat="43.27141" lon="-3.72751">
        <ele>542.5</ele>
        <time>2023-07-13T02:38:15.000+02:00</time>
      </trkpt>
      <trkpt lat="43.27136" lon="-3.72768">
        <ele>543.5</ele>
        <time>2023-07-13T02:38:17.000+02:00</time>
      </trkpt>
      <trkpt lat="43.27128" lon="-3.72782">
        <ele>543.5</ele>
        <time>2023-07-13T02:38:19.000+02:00</time>
      </trkpt>
      <trkpt lat="43.27095" lon="-3.72811">
        <ele>541.3</ele>
        <time>2023-07-13T02:38:25.000+02:00</time>
      </trkpt>
      <trkpt lat="43.27079" lon="-3.7283">
        <ele>542</ele>
        <time>2023-07-13T02:38:29.000+02:00</time>
      </trkpt>
      <trkpt lat="43.27064" lon="-3.72849">
        <ele>542.3</ele>
        <time>2023-07-13T02:38:32.000+02:00</time>
      </trkpt>
      <trkpt lat="43.27055" lon="-3.72867">
        <ele>542.8</ele>
        <time>2023-07-13T02:38:34.000+02:00</time>
      </trkpt>
      <trkpt lat="43.2705" lon="-3.72886">
        <ele>544</ele>
        <time>2023-07-13T02:38:36.000+02:00</time>
      </trkpt>
      <trkpt lat="43.27048" lon="-3.72906">
        <ele>546.3</ele>
        <time>2023-07-13T02:38:39.000+02:00</time>
      </trkpt>
      <trkpt lat="43.27048" lon="-3.72924">
        <ele>548.5</ele>
        <time>2023-07-13T02:38:41.000+02:00</time>
      </trkpt>
      <trkpt lat="43.27051" lon="-3.72942">
        <ele>551</ele>
        <time>2023-07-13T02:38:43.000+02:00</time>
      </trkpt>
      <trkpt lat="43.27055" lon="-3.72959">
        <ele>553.8</ele>
        <time>2023-07-13T02:38:45.000+02:00</time>
      </trkpt>
      <trkpt lat="43.27061" lon="-3.72982">
        <ele>557.8</ele>
        <time>2023-07-13T02:38:47.000+02:00</time>
      </trkpt>
      <trkpt lat="43.27063" lon="-3.72997">
        <ele>559.8</ele>
        <time>2023-07-13T02:38:49.000+02:00</time>
      </trkpt>
      <trkpt lat="43.27061" lon="-3.73008">
        <ele>561.3</ele>
        <time>2023-07-13T02:38:50.000+02:00</time>
      </trkpt>
      <trkpt lat="43.27055" lon="-3.73023">
        <ele>563.5</ele>
        <time>2023-07-13T02:38:52.000+02:00</time>
      </trkpt>
      <trkpt lat="43.27047" lon="-3.73038">
        <ele>565.3</ele>
        <time>2023-07-13T02:38:54.000+02:00</time>
      </trkpt>
      <trkpt lat="43.27027" lon="-3.73066">
        <ele>567.8</ele>
        <time>2023-07-13T02:38:59.000+02:00</time>
      </trkpt>
      <trkpt lat="43.26993" lon="-3.73112">
        <ele>574</ele>
        <time>2023-07-13T02:39:06.000+02:00</time>
      </trkpt>
      <trkpt lat="43.26979" lon="-3.73121">
        <ele>576</ele>
        <time>2023-07-13T02:39:08.000+02:00</time>
      </trkpt>
      <trkpt lat="43.26964" lon="-3.73123">
        <ele>576.3</ele>
        <time>2023-07-13T02:39:11.000+02:00</time>
      </trkpt>
      <trkpt lat="43.26945" lon="-3.73128">
        <ele>576.5</ele>
        <time>2023-07-13T02:39:14.000+02:00</time>
      </trkpt>
      <trkpt lat="43.26923" lon="-3.73148">
        <ele>580.3</ele>
        <time>2023-07-13T02:39:18.000+02:00</time>
      </trkpt>
      <trkpt lat="43.26913" lon="-3.73155">
        <ele>581</ele>
        <time>2023-07-13T02:39:19.000+02:00</time>
      </trkpt>
      <trkpt lat="43.269" lon="-3.73156">
        <ele>579.5</ele>
        <time>2023-07-13T02:39:21.000+02:00</time>
      </trkpt>
      <trkpt lat="43.26886" lon="-3.7315">
        <ele>577.5</ele>
        <time>2023-07-13T02:39:24.000+02:00</time>
      </trkpt>
      <trkpt lat="43.26876" lon="-3.73147">
        <ele>576.3</ele>
        <time>2023-07-13T02:39:25.000+02:00</time>
      </trkpt>
      <trkpt lat="43.26871" lon="-3.73149">
        <ele>576</ele>
        <time>2023-07-13T02:39:26.000+02:00</time>
      </trkpt>
      <trkpt lat="43.26869" lon="-3.73154">
        <ele>575.5</ele>
        <time>2023-07-13T02:39:27.000+02:00</time>
      </trkpt>
      <trkpt lat="43.26871" lon="-3.73163">
        <ele>575.8</ele>
        <time>2023-07-13T02:39:28.000+02:00</time>
      </trkpt>
      <trkpt lat="43.26882" lon="-3.73173">
        <ele>577</ele>
        <time>2023-07-13T02:39:30.000+02:00</time>
      </trkpt>
      <trkpt lat="43.26891" lon="-3.73178">
        <ele>578.5</ele>
        <time>2023-07-13T02:39:31.000+02:00</time>
      </trkpt>
      <trkpt lat="43.26898" lon="-3.73187">
        <ele>579.3</ele>
        <time>2023-07-13T02:39:33.000+02:00</time>
      </trkpt>
      <trkpt lat="43.26909" lon="-3.73215">
        <ele>581</ele>
        <time>2023-07-13T02:39:36.000+02:00</time>
      </trkpt>
      <trkpt lat="43.26915" lon="-3.73225">
        <ele>582.5</ele>
        <time>2023-07-13T02:39:38.000+02:00</time>
      </trkpt>
      <trkpt lat="43.26929" lon="-3.73244">
        <ele>587</ele>
        <time>2023-07-13T02:39:41.000+02:00</time>
      </trkpt>
      <trkpt lat="43.26942" lon="-3.73257">
        <ele>590</ele>
        <time>2023-07-13T02:39:43.000+02:00</time>
      </trkpt>
      <trkpt lat="43.2698" lon="-3.73289">
        <ele>596.5</ele>
        <time>2023-07-13T02:39:50.000+02:00</time>
      </trkpt>
      <trkpt lat="43.26991" lon="-3.73304">
        <ele>597.5</ele>
        <time>2023-07-13T02:39:52.000+02:00</time>
      </trkpt>
      <trkpt lat="43.26997" lon="-3.73318">
        <ele>597</ele>
        <time>2023-07-13T02:39:54.000+02:00</time>
      </trkpt>
      <trkpt lat="43.27009" lon="-3.7335">
        <ele>596.8</ele>
        <time>2023-07-13T02:39:58.000+02:00</time>
      </trkpt>
      <trkpt lat="43.27028" lon="-3.73383">
        <ele>601.3</ele>
        <time>2023-07-13T02:40:03.000+02:00</time>
      </trkpt>
      <trkpt lat="43.27038" lon="-3.73404">
        <ele>602.8</ele>
        <time>2023-07-13T02:40:06.000+02:00</time>
      </trkpt>
      <trkpt lat="43.27046" lon="-3.73423">
        <ele>603.3</ele>
        <time>2023-07-13T02:40:08.000+02:00</time>
      </trkpt>
      <trkpt lat="43.2705" lon="-3.7344">
        <ele>602</ele>
        <time>2023-07-13T02:40:10.000+02:00</time>
      </trkpt>
      <trkpt lat="43.27051" lon="-3.73452">
        <ele>600.5</ele>
        <time>2023-07-13T02:40:11.000+02:00</time>
      </trkpt>
      <trkpt lat="43.27058" lon="-3.73484">
        <ele>597.5</ele>
        <time>2023-07-13T02:40:15.000+02:00</time>
      </trkpt>
      <trkpt lat="43.27064" lon="-3.73499">
        <ele>597.8</ele>
        <time>2023-07-13T02:40:17.000+02:00</time>
      </trkpt>
      <trkpt lat="43.2707" lon="-3.73509">
        <ele>600</ele>
        <time>2023-07-13T02:40:18.000+02:00</time>
      </trkpt>
      <trkpt lat="43.27073" lon="-3.73526">
        <ele>601.3</ele>
        <time>2023-07-13T02:40:20.000+02:00</time>
      </trkpt>
      <trkpt lat="43.27076" lon="-3.73547">
        <ele>601.8</ele>
        <time>2023-07-13T02:40:23.000+02:00</time>
      </trkpt>
      <trkpt lat="43.27079" lon="-3.73583">
        <ele>601.8</ele>
        <time>2023-07-13T02:40:27.000+02:00</time>
      </trkpt>
      <trkpt lat="43.27079" lon="-3.73602">
        <ele>604.8</ele>
        <time>2023-07-13T02:40:29.000+02:00</time>
      </trkpt>
      <trkpt lat="43.27076" lon="-3.73619">
        <ele>606.5</ele>
        <time>2023-07-13T02:40:31.000+02:00</time>
      </trkpt>
      <trkpt lat="43.27073" lon="-3.73633">
        <ele>607.3</ele>
        <time>2023-07-13T02:40:32.000+02:00</time>
      </trkpt>
      <trkpt lat="43.27059" lon="-3.73662">
        <ele>606.3</ele>
        <time>2023-07-13T02:40:36.000+02:00</time>
      </trkpt>
      <trkpt lat="43.27054" lon="-3.73676">
        <ele>607</ele>
        <time>2023-07-13T02:40:38.000+02:00</time>
      </trkpt>
      <trkpt lat="43.27047" lon="-3.737">
        <ele>609.8</ele>
        <time>2023-07-13T02:40:41.000+02:00</time>
      </trkpt>
      <trkpt lat="43.27046" lon="-3.7373">
        <ele>616.3</ele>
        <time>2023-07-13T02:40:44.000+02:00</time>
      </trkpt>
      <trkpt lat="43.27036" lon="-3.73768">
        <ele>620.3</ele>
        <time>2023-07-13T02:40:49.000+02:00</time>
      </trkpt>
      <trkpt lat="43.2703" lon="-3.73779">
        <ele>620</ele>
        <time>2023-07-13T02:40:50.000+02:00</time>
      </trkpt>
      <trkpt lat="43.2702" lon="-3.73791">
        <ele>618.3</ele>
        <time>2023-07-13T02:40:52.000+02:00</time>
      </trkpt>
      <trkpt lat="43.27013" lon="-3.73805">
        <ele>618.5</ele>
        <time>2023-07-13T02:40:54.000+02:00</time>
      </trkpt>
      <trkpt lat="43.27008" lon="-3.7382">
        <ele>620</ele>
        <time>2023-07-13T02:40:56.000+02:00</time>
      </trkpt>
      <trkpt lat="43.26998" lon="-3.73866">
        <ele>625</ele>
        <time>2023-07-13T02:41:01.000+02:00</time>
      </trkpt>
      <trkpt lat="43.26997" lon="-3.73886">
        <ele>628</ele>
        <time>2023-07-13T02:41:04.000+02:00</time>
      </trkpt>
      <trkpt lat="43.26994" lon="-3.739">
        <ele>629.5</ele>
        <time>2023-07-13T02:41:05.000+02:00</time>
      </trkpt>
      <trkpt lat="43.26988" lon="-3.73917">
        <ele>630.5</ele>
        <time>2023-07-13T02:41:07.000+02:00</time>
      </trkpt>
      <trkpt lat="43.26975" lon="-3.7395">
        <ele>632.3</ele>
        <time>2023-07-13T02:41:12.000+02:00</time>
      </trkpt>
      <trkpt lat="43.26961" lon="-3.73976">
        <ele>633</ele>
        <time>2023-07-13T02:41:15.000+02:00</time>
      </trkpt>
      <trkpt lat="43.26958" lon="-3.7399">
        <ele>634.8</ele>
        <time>2023-07-13T02:41:17.000+02:00</time>
      </trkpt>
      <trkpt lat="43.26952" lon="-3.74027">
        <ele>639.3</ele>
        <time>2023-07-13T02:41:21.000+02:00</time>
      </trkpt>
      <trkpt lat="43.26944" lon="-3.74052">
        <ele>640.8</ele>
        <time>2023-07-13T02:41:24.000+02:00</time>
      </trkpt>
      <trkpt lat="43.26933" lon="-3.74091">
        <ele>642.5</ele>
        <time>2023-07-13T02:41:29.000+02:00</time>
      </trkpt>
      <trkpt lat="43.26924" lon="-3.74122">
        <ele>638.5</ele>
        <time>2023-07-13T02:41:32.000+02:00</time>
      </trkpt>
      <trkpt lat="43.26926" lon="-3.74133">
        <ele>638.3</ele>
        <time>2023-07-13T02:41:34.000+02:00</time>
      </trkpt>
      <trkpt lat="43.26928" lon="-3.74136">
        <ele>638.3</ele>
        <time>2023-07-13T02:41:35.000+02:00</time>
      </trkpt>
      <trkpt lat="43.2693" lon="-3.74139">
        <ele>638.5</ele>
        <time>2023-07-13T02:41:35.000+02:00</time>
      </trkpt>
      <trkpt lat="43.26939" lon="-3.7415">
        <ele>640</ele>
        <time>2023-07-13T02:41:37.000+02:00</time>
      </trkpt>
      <trkpt lat="43.27015" lon="-3.74212">
        <ele>640.3</ele>
        <time>2023-07-13T02:41:51.000+02:00</time>
      </trkpt>
      <trkpt lat="43.27043" lon="-3.74226">
        <ele>641</ele>
        <time>2023-07-13T02:41:55.000+02:00</time>
      </trkpt>
      <trkpt lat="43.27079" lon="-3.74259">
        <ele>636.5</ele>
        <time>2023-07-13T02:42:02.000+02:00</time>
      </trkpt>
      <trkpt lat="43.27098" lon="-3.74282">
        <ele>634</ele>
        <time>2023-07-13T02:42:06.000+02:00</time>
      </trkpt>
      <trkpt lat="43.27114" lon="-3.74297">
        <ele>633.8</ele>
        <time>2023-07-13T02:42:09.000+02:00</time>
      </trkpt>
      <trkpt lat="43.27129" lon="-3.74309">
        <ele>634</ele>
        <time>2023-07-13T02:42:11.000+02:00</time>
      </trkpt>
      <trkpt lat="43.27145" lon="-3.74325">
        <ele>634.3</ele>
        <time>2023-07-13T02:42:14.000+02:00</time>
      </trkpt>
      <trkpt lat="43.27162" lon="-3.74343">
        <ele>635.3</ele>
        <time>2023-07-13T02:42:18.000+02:00</time>
      </trkpt>
      <trkpt lat="43.27186" lon="-3.7437">
        <ele>633.8</ele>
        <time>2023-07-13T02:42:23.000+02:00</time>
      </trkpt>
      <trkpt lat="43.2721" lon="-3.74402">
        <ele>633.3</ele>
        <time>2023-07-13T02:42:28.000+02:00</time>
      </trkpt>
      <trkpt lat="43.27241" lon="-3.74446">
        <ele>636</ele>
        <time>2023-07-13T02:42:34.000+02:00</time>
      </trkpt>
      <trkpt lat="43.27264" lon="-3.74475">
        <ele>638.8</ele>
        <time>2023-07-13T02:42:39.000+02:00</time>
      </trkpt>
      <trkpt lat="43.2728" lon="-3.74491">
        <ele>639.8</ele>
        <time>2023-07-13T02:42:42.000+02:00</time>
      </trkpt>
      <trkpt lat="43.27294" lon="-3.745">
        <ele>640.5</ele>
        <time>2023-07-13T02:42:45.000+02:00</time>
      </trkpt>
      <trkpt lat="43.2731" lon="-3.74502">
        <ele>641.3</ele>
        <time>2023-07-13T02:42:47.000+02:00</time>
      </trkpt>
      <trkpt lat="43.27322" lon="-3.74498">
        <ele>642.3</ele>
        <time>2023-07-13T02:42:49.000+02:00</time>
      </trkpt>
      <trkpt lat="43.27332" lon="-3.74497">
        <ele>642.8</ele>
        <time>2023-07-13T02:42:50.000+02:00</time>
      </trkpt>
      <trkpt lat="43.27342" lon="-3.745">
        <ele>643.8</ele>
        <time>2023-07-13T02:42:52.000+02:00</time>
      </trkpt>
      <trkpt lat="43.27378" lon="-3.74529">
        <ele>646.8</ele>
        <time>2023-07-13T02:42:58.000+02:00</time>
      </trkpt>
      <trkpt lat="43.27407" lon="-3.74551">
        <ele>651</ele>
        <time>2023-07-13T02:43:04.000+02:00</time>
      </trkpt>
      <trkpt lat="43.27422" lon="-3.74565">
        <ele>653.8</ele>
        <time>2023-07-13T02:43:06.000+02:00</time>
      </trkpt>
      <trkpt lat="43.27436" lon="-3.74582">
        <ele>656.8</ele>
        <time>2023-07-13T02:43:09.000+02:00</time>
      </trkpt>
      <trkpt lat="43.27452" lon="-3.746">
        <ele>659</ele>
        <time>2023-07-13T02:43:12.000+02:00</time>
      </trkpt>
      <trkpt lat="43.27461" lon="-3.7461">
        <ele>661</ele>
        <time>2023-07-13T02:43:14.000+02:00</time>
      </trkpt>
      <trkpt lat="43.27476" lon="-3.74629">
        <ele>664.5</ele>
        <time>2023-07-13T02:43:17.000+02:00</time>
      </trkpt>
      <trkpt lat="43.27483" lon="-3.74642">
        <ele>666.8</ele>
        <time>2023-07-13T02:43:19.000+02:00</time>
      </trkpt>
      <trkpt lat="43.27495" lon="-3.74671">
        <ele>671</ele>
        <time>2023-07-13T02:43:23.000+02:00</time>
      </trkpt>
      <trkpt lat="43.27503" lon="-3.74694">
        <ele>672.5</ele>
        <time>2023-07-13T02:43:25.000+02:00</time>
      </trkpt>
      <trkpt lat="43.27514" lon="-3.74712">
        <ele>674.8</ele>
        <time>2023-07-13T02:43:28.000+02:00</time>
      </trkpt>
      <trkpt lat="43.27523" lon="-3.74723">
        <ele>676.8</ele>
        <time>2023-07-13T02:43:30.000+02:00</time>
      </trkpt>
      <trkpt lat="43.27529" lon="-3.74736">
        <ele>678</ele>
        <time>2023-07-13T02:43:32.000+02:00</time>
      </trkpt>
      <trkpt lat="43.27541" lon="-3.74754">
        <ele>681</ele>
        <time>2023-07-13T02:43:34.000+02:00</time>
      </trkpt>
      <trkpt lat="43.27551" lon="-3.74764">
        <ele>683.8</ele>
        <time>2023-07-13T02:43:36.000+02:00</time>
      </trkpt>
      <trkpt lat="43.27571" lon="-3.74783">
        <ele>690.8</ele>
        <time>2023-07-13T02:43:40.000+02:00</time>
      </trkpt>
      <trkpt lat="43.27604" lon="-3.74809">
        <ele>702</ele>
        <time>2023-07-13T02:43:46.000+02:00</time>
      </trkpt>
      <trkpt lat="43.27612" lon="-3.74822">
        <ele>704.3</ele>
        <time>2023-07-13T02:43:48.000+02:00</time>
      </trkpt>
      <trkpt lat="43.27627" lon="-3.74854">
        <ele>705.8</ele>
        <time>2023-07-13T02:43:52.000+02:00</time>
      </trkpt>
      <trkpt lat="43.27641" lon="-3.74887">
        <ele>706.3</ele>
        <time>2023-07-13T02:43:56.000+02:00</time>
      </trkpt>
      <trkpt lat="43.27665" lon="-3.74924">
        <ele>710</ele>
        <time>2023-07-13T02:44:02.000+02:00</time>
      </trkpt>
      <trkpt lat="43.27675" lon="-3.74936">
        <ele>711.3</ele>
        <time>2023-07-13T02:44:04.000+02:00</time>
      </trkpt>
      <trkpt lat="43.27686" lon="-3.74946">
        <ele>713</ele>
        <time>2023-07-13T02:44:06.000+02:00</time>
      </trkpt>
      <trkpt lat="43.27715" lon="-3.74967">
        <ele>719.5</ele>
        <time>2023-07-13T02:44:11.000+02:00</time>
      </trkpt>
      <trkpt lat="43.27726" lon="-3.74977">
        <ele>720.8</ele>
        <time>2023-07-13T02:44:13.000+02:00</time>
      </trkpt>
      <trkpt lat="43.27736" lon="-3.74989">
        <ele>721.8</ele>
        <time>2023-07-13T02:44:15.000+02:00</time>
      </trkpt>
      <trkpt lat="43.27746" lon="-3.75004">
        <ele>721.3</ele>
        <time>2023-07-13T02:44:17.000+02:00</time>
      </trkpt>
      <trkpt lat="43.27759" lon="-3.75023">
        <ele>720</ele>
        <time>2023-07-13T02:44:20.000+02:00</time>
      </trkpt>
      <trkpt lat="43.27768" lon="-3.75035">
        <ele>719.3</ele>
        <time>2023-07-13T02:44:22.000+02:00</time>
      </trkpt>
      <trkpt lat="43.27779" lon="-3.75053">
        <ele>717.5</ele>
        <time>2023-07-13T02:44:25.000+02:00</time>
      </trkpt>
      <trkpt lat="43.27788" lon="-3.7507">
        <ele>715.5</ele>
        <time>2023-07-13T02:44:27.000+02:00</time>
      </trkpt>
      <trkpt lat="43.27805" lon="-3.75096">
        <ele>716</ele>
        <time>2023-07-13T02:44:31.000+02:00</time>
      </trkpt>
      <trkpt lat="43.27815" lon="-3.7511">
        <ele>718.3</ele>
        <time>2023-07-13T02:44:33.000+02:00</time>
      </trkpt>
      <trkpt lat="43.27837" lon="-3.75131">
        <ele>723</ele>
        <time>2023-07-13T02:44:37.000+02:00</time>
      </trkpt>
      <trkpt lat="43.27846" lon="-3.75141">
        <ele>722.8</ele>
        <time>2023-07-13T02:44:39.000+02:00</time>
      </trkpt>
      <trkpt lat="43.27881" lon="-3.75188">
        <ele>721</ele>
        <time>2023-07-13T02:44:46.000+02:00</time>
      </trkpt>
      <trkpt lat="43.27896" lon="-3.75206">
        <ele>722</ele>
        <time>2023-07-13T02:44:49.000+02:00</time>
      </trkpt>
      <trkpt lat="43.27922" lon="-3.75233">
        <ele>726.3</ele>
        <time>2023-07-13T02:44:54.000+02:00</time>
      </trkpt>
      <trkpt lat="43.27925" lon="-3.75259">
        <ele>727</ele>
        <time>2023-07-13T02:44:57.000+02:00</time>
      </trkpt>
      <trkpt lat="43.27927" lon="-3.75273">
        <ele>727.8</ele>
        <time>2023-07-13T02:44:59.000+02:00</time>
      </trkpt>
      <trkpt lat="43.27929" lon="-3.75286">
        <ele>728.5</ele>
        <time>2023-07-13T02:45:00.000+02:00</time>
      </trkpt>
      <trkpt lat="43.27928" lon="-3.75301">
        <ele>728.8</ele>
        <time>2023-07-13T02:45:02.000+02:00</time>
      </trkpt>
      <trkpt lat="43.27925" lon="-3.75324">
        <ele>729</ele>
        <time>2023-07-13T02:45:04.000+02:00</time>
      </trkpt>
      <trkpt lat="43.27914" lon="-3.75361">
        <ele>727</ele>
        <time>2023-07-13T02:45:09.000+02:00</time>
      </trkpt>
      <trkpt lat="43.27912" lon="-3.75376">
        <ele>726.3</ele>
        <time>2023-07-13T02:45:11.000+02:00</time>
      </trkpt>
      <trkpt lat="43.2791" lon="-3.75401">
        <ele>726</ele>
        <time>2023-07-13T02:45:13.000+02:00</time>
      </trkpt>
      <trkpt lat="43.27908" lon="-3.7541">
        <ele>725.3</ele>
        <time>2023-07-13T02:45:14.000+02:00</time>
      </trkpt>
      <trkpt lat="43.27906" lon="-3.75472">
        <ele>720.3</ele>
        <time>2023-07-13T02:45:21.000+02:00</time>
      </trkpt>
      <trkpt lat="43.27904" lon="-3.75556">
        <ele>712.8</ele>
        <time>2023-07-13T02:45:31.000+02:00</time>
      </trkpt>
      <trkpt lat="43.27905" lon="-3.75575">
        <ele>711</ele>
        <time>2023-07-13T02:45:33.000+02:00</time>
      </trkpt>
      <trkpt lat="43.27907" lon="-3.75626">
        <ele>707.5</ele>
        <time>2023-07-13T02:45:39.000+02:00</time>
      </trkpt>
      <trkpt lat="43.27908" lon="-3.75644">
        <ele>705.8</ele>
        <time>2023-07-13T02:45:41.000+02:00</time>
      </trkpt>
      <trkpt lat="43.27905" lon="-3.75663">
        <ele>703.5</ele>
        <time>2023-07-13T02:45:43.000+02:00</time>
      </trkpt>
      <trkpt lat="43.279" lon="-3.75681">
        <ele>701.8</ele>
        <time>2023-07-13T02:45:45.000+02:00</time>
      </trkpt>
      <trkpt lat="43.27898" lon="-3.75693">
        <ele>701</ele>
        <time>2023-07-13T02:45:46.000+02:00</time>
      </trkpt>
      <trkpt lat="43.27897" lon="-3.75706">
        <ele>700.5</ele>
        <time>2023-07-13T02:45:48.000+02:00</time>
      </trkpt>
      <trkpt lat="43.27899" lon="-3.75735">
        <ele>700</ele>
        <time>2023-07-13T02:45:51.000+02:00</time>
      </trkpt>
      <trkpt lat="43.27902" lon="-3.75771">
        <ele>699</ele>
        <time>2023-07-13T02:45:55.000+02:00</time>
      </trkpt>
      <trkpt lat="43.27905" lon="-3.75825">
        <ele>697</ele>
        <time>2023-07-13T02:46:01.000+02:00</time>
      </trkpt>
      <trkpt lat="43.2791" lon="-3.75871">
        <ele>697</ele>
        <time>2023-07-13T02:46:06.000+02:00</time>
      </trkpt>
      <trkpt lat="43.27918" lon="-3.75906">
        <ele>698</ele>
        <time>2023-07-13T02:46:10.000+02:00</time>
      </trkpt>
      <trkpt lat="43.27929" lon="-3.75924">
        <ele>697.5</ele>
        <time>2023-07-13T02:46:13.000+02:00</time>
      </trkpt>
      <trkpt lat="43.27939" lon="-3.75951">
        <ele>697.5</ele>
        <time>2023-07-13T02:46:16.000+02:00</time>
      </trkpt>
      <trkpt lat="43.27954" lon="-3.75997">
        <ele>699.8</ele>
        <time>2023-07-13T02:46:22.000+02:00</time>
      </trkpt>
      <trkpt lat="43.27962" lon="-3.76029">
        <ele>703</ele>
        <time>2023-07-13T02:46:25.000+02:00</time>
      </trkpt>
      <trkpt lat="43.27966" lon="-3.76063">
        <ele>706</ele>
        <time>2023-07-13T02:46:29.000+02:00</time>
      </trkpt>
      <trkpt lat="43.27968" lon="-3.76114">
        <ele>710.5</ele>
        <time>2023-07-13T02:46:35.000+02:00</time>
      </trkpt>
      <trkpt lat="43.27976" lon="-3.76149">
        <ele>714</ele>
        <time>2023-07-13T02:46:39.000+02:00</time>
      </trkpt>
      <trkpt lat="43.2798" lon="-3.76216">
        <ele>720.8</ele>
        <time>2023-07-13T02:46:47.000+02:00</time>
      </trkpt>
      <trkpt lat="43.27975" lon="-3.76229">
        <ele>722.3</ele>
        <time>2023-07-13T02:46:48.000+02:00</time>
      </trkpt>
      <trkpt lat="43.27972" lon="-3.76235">
        <ele>723.3</ele>
        <time>2023-07-13T02:46:49.000+02:00</time>
      </trkpt>
      <trkpt lat="43.27959" lon="-3.76242">
        <ele>724.8</ele>
        <time>2023-07-13T02:46:51.000+02:00</time>
      </trkpt>
      <trkpt lat="43.27952" lon="-3.76242">
        <ele>725.3</ele>
        <time>2023-07-13T02:46:52.000+02:00</time>
      </trkpt>
      <trkpt lat="43.27903" lon="-3.76213">
        <ele>725.8</ele>
        <time>2023-07-13T02:47:00.000+02:00</time>
      </trkpt>
      <trkpt lat="43.27876" lon="-3.76191">
        <ele>727.5</ele>
        <time>2023-07-13T02:47:05.000+02:00</time>
      </trkpt>
      <trkpt lat="43.27836" lon="-3.76164">
        <ele>729.8</ele>
        <time>2023-07-13T02:47:12.000+02:00</time>
      </trkpt>
      <trkpt lat="43.2781" lon="-3.7615">
        <ele>731.8</ele>
        <time>2023-07-13T02:47:16.000+02:00</time>
      </trkpt>
      <trkpt lat="43.27777" lon="-3.76135">
        <ele>734.5</ele>
        <time>2023-07-13T02:47:22.000+02:00</time>
      </trkpt>
      <trkpt lat="43.27759" lon="-3.76129">
        <ele>736.8</ele>
        <time>2023-07-13T02:47:24.000+02:00</time>
      </trkpt>
      <trkpt lat="43.27729" lon="-3.76126">
        <ele>739.5</ele>
        <time>2023-07-13T02:47:29.000+02:00</time>
      </trkpt>
      <trkpt lat="43.27684" lon="-3.76113">
        <ele>740.8</ele>
        <time>2023-07-13T02:47:36.000+02:00</time>
      </trkpt>
      <trkpt lat="43.27666" lon="-3.76109">
        <ele>741.5</ele>
        <time>2023-07-13T02:47:39.000+02:00</time>
      </trkpt>
      <trkpt lat="43.27647" lon="-3.76109">
        <ele>745.3</ele>
        <time>2023-07-13T02:47:42.000+02:00</time>
      </trkpt>
      <trkpt lat="43.27623" lon="-3.76115">
        <ele>751</ele>
        <time>2023-07-13T02:47:45.000+02:00</time>
      </trkpt>
      <trkpt lat="43.27617" lon="-3.7611">
        <ele>751</ele>
        <time>2023-07-13T02:47:46.000+02:00</time>
      </trkpt>
      <trkpt lat="43.27609" lon="-3.76098">
        <ele>749.8</ele>
        <time>2023-07-13T02:47:48.000+02:00</time>
      </trkpt>
      <trkpt lat="43.276" lon="-3.7608">
        <ele>747.5</ele>
        <time>2023-07-13T02:47:51.000+02:00</time>
      </trkpt>
      <trkpt lat="43.27586" lon="-3.76065">
        <ele>746.8</ele>
        <time>2023-07-13T02:47:53.000+02:00</time>
      </trkpt>
      <trkpt lat="43.27572" lon="-3.76055">
        <ele>745</ele>
        <time>2023-07-13T02:47:56.000+02:00</time>
      </trkpt>
      <trkpt lat="43.27557" lon="-3.76047">
        <ele>744</ele>
        <time>2023-07-13T02:47:58.000+02:00</time>
      </trkpt>
      <trkpt lat="43.27544" lon="-3.76043">
        <ele>744</ele>
        <time>2023-07-13T02:48:00.000+02:00</time>
      </trkpt>
      <trkpt lat="43.27519" lon="-3.76046">
        <ele>746.5</ele>
        <time>2023-07-13T02:48:04.000+02:00</time>
      </trkpt>
      <trkpt lat="43.2746" lon="-3.76065">
        <ele>748.5</ele>
        <time>2023-07-13T02:48:13.000+02:00</time>
      </trkpt>
      <trkpt lat="43.27451" lon="-3.76064">
        <ele>747.5</ele>
        <time>2023-07-13T02:48:15.000+02:00</time>
      </trkpt>
      <trkpt lat="43.27438" lon="-3.76061">
        <ele>745.8</ele>
        <time>2023-07-13T02:48:17.000+02:00</time>
      </trkpt>
      <trkpt lat="43.27424" lon="-3.76062">
        <ele>744.8</ele>
        <time>2023-07-13T02:48:19.000+02:00</time>
      </trkpt>
      <trkpt lat="43.27399" lon="-3.76078">
        <ele>743.3</ele>
        <time>2023-07-13T02:48:23.000+02:00</time>
      </trkpt>
      <trkpt lat="43.27339" lon="-3.76131">
        <ele>738.5</ele>
        <time>2023-07-13T02:48:34.000+02:00</time>
      </trkpt>
      <trkpt lat="43.27299" lon="-3.76164">
        <ele>735.5</ele>
        <time>2023-07-13T02:48:41.000+02:00</time>
      </trkpt>
      <trkpt lat="43.27281" lon="-3.76173">
        <ele>732.3</ele>
        <time>2023-07-13T02:48:44.000+02:00</time>
      </trkpt>
      <trkpt lat="43.27258" lon="-3.76182">
        <ele>728.3</ele>
        <time>2023-07-13T02:48:48.000+02:00</time>
      </trkpt>
      <trkpt lat="43.27242" lon="-3.76182">
        <ele>725.8</ele>
        <time>2023-07-13T02:48:50.000+02:00</time>
      </trkpt>
      <trkpt lat="43.27227" lon="-3.76178">
        <ele>723.8</ele>
        <time>2023-07-13T02:48:52.000+02:00</time>
      </trkpt>
      <trkpt lat="43.27205" lon="-3.76167">
        <ele>720.5</ele>
        <time>2023-07-13T02:48:56.000+02:00</time>
      </trkpt>
      <trkpt lat="43.27164" lon="-3.76134">
        <ele>712.3</ele>
        <time>2023-07-13T02:49:03.000+02:00</time>
      </trkpt>
      <trkpt lat="43.27151" lon="-3.76129">
        <ele>710.3</ele>
        <time>2023-07-13T02:49:05.000+02:00</time>
      </trkpt>
      <trkpt lat="43.27139" lon="-3.76126">
        <ele>708.5</ele>
        <time>2023-07-13T02:49:07.000+02:00</time>
      </trkpt>
      <trkpt lat="43.27117" lon="-3.76128">
        <ele>705.8</ele>
        <time>2023-07-13T02:49:11.000+02:00</time>
      </trkpt>
      <trkpt lat="43.27107" lon="-3.7613">
        <ele>704.8</ele>
        <time>2023-07-13T02:49:12.000+02:00</time>
      </trkpt>
      <trkpt lat="43.27097" lon="-3.76136">
        <ele>703.8</ele>
        <time>2023-07-13T02:49:14.000+02:00</time>
      </trkpt>
      <trkpt lat="43.27085" lon="-3.76144">
        <ele>702.8</ele>
        <time>2023-07-13T02:49:16.000+02:00</time>
      </trkpt>
      <trkpt lat="43.27054" lon="-3.76189">
        <ele>696</ele>
        <time>2023-07-13T02:49:23.000+02:00</time>
      </trkpt>
      <trkpt lat="43.2704" lon="-3.76217">
        <ele>692</ele>
        <time>2023-07-13T02:49:27.000+02:00</time>
      </trkpt>
      <trkpt lat="43.27029" lon="-3.76243">
        <ele>689.3</ele>
        <time>2023-07-13T02:49:30.000+02:00</time>
      </trkpt>
      <trkpt lat="43.27025" lon="-3.76264">
        <ele>687</ele>
        <time>2023-07-13T02:49:32.000+02:00</time>
      </trkpt>
      <trkpt lat="43.27026" lon="-3.76283">
        <ele>685.8</ele>
        <time>2023-07-13T02:49:34.000+02:00</time>
      </trkpt>
      <trkpt lat="43.27029" lon="-3.76321">
        <ele>683</ele>
        <time>2023-07-13T02:49:39.000+02:00</time>
      </trkpt>
      <trkpt lat="43.27025" lon="-3.76329">
        <ele>682</ele>
        <time>2023-07-13T02:49:40.000+02:00</time>
      </trkpt>
      <trkpt lat="43.27026" lon="-3.76343">
        <ele>680.3</ele>
        <time>2023-07-13T02:49:41.000+02:00</time>
      </trkpt>
      <trkpt lat="43.27025" lon="-3.7636">
        <ele>678</ele>
        <time>2023-07-13T02:49:43.000+02:00</time>
      </trkpt>
      <trkpt lat="43.2702" lon="-3.76387">
        <ele>674.8</ele>
        <time>2023-07-13T02:49:46.000+02:00</time>
      </trkpt>
      <trkpt lat="43.27018" lon="-3.76403">
        <ele>673</ele>
        <time>2023-07-13T02:49:48.000+02:00</time>
      </trkpt>
      <trkpt lat="43.27028" lon="-3.76409">
        <ele>670.8</ele>
        <time>2023-07-13T02:49:50.000+02:00</time>
      </trkpt>
      <trkpt lat="43.27032" lon="-3.76409">
        <ele>669.8</ele>
        <time>2023-07-13T02:49:51.000+02:00</time>
      </trkpt>
      <trkpt lat="43.27039" lon="-3.76409">
        <ele>668.8</ele>
        <time>2023-07-13T02:49:52.000+02:00</time>
      </trkpt>
      <trkpt lat="43.27044" lon="-3.76408">
        <ele>668</ele>
        <time>2023-07-13T02:49:53.000+02:00</time>
      </trkpt>
      <trkpt lat="43.27052" lon="-3.76405">
        <ele>667.5</ele>
        <time>2023-07-13T02:49:54.000+02:00</time>
      </trkpt>
      <trkpt lat="43.27071" lon="-3.76394">
        <ele>667.8</ele>
        <time>2023-07-13T02:49:58.000+02:00</time>
      </trkpt>
      <trkpt lat="43.27078" lon="-3.76393">
        <ele>667.3</ele>
        <time>2023-07-13T02:49:59.000+02:00</time>
      </trkpt>
      <trkpt lat="43.27082" lon="-3.76394">
        <ele>666.3</ele>
        <time>2023-07-13T02:50:00.000+02:00</time>
      </trkpt>
      <trkpt lat="43.27092" lon="-3.76403">
        <ele>663.5</ele>
        <time>2023-07-13T02:50:02.000+02:00</time>
      </trkpt>
      <trkpt lat="43.27104" lon="-3.76407">
        <ele>662</ele>
        <time>2023-07-13T02:50:04.000+02:00</time>
      </trkpt>
      <trkpt lat="43.27113" lon="-3.76408">
        <ele>661.8</ele>
        <time>2023-07-13T02:50:05.000+02:00</time>
      </trkpt>
      <trkpt lat="43.27127" lon="-3.76406">
        <ele>662.5</ele>
        <time>2023-07-13T02:50:08.000+02:00</time>
      </trkpt>
      <trkpt lat="43.27134" lon="-3.76406">
        <ele>662.8</ele>
        <time>2023-07-13T02:50:09.000+02:00</time>
      </trkpt>
      <trkpt lat="43.27163" lon="-3.76409">
        <ele>661.8</ele>
        <time>2023-07-13T02:50:13.000+02:00</time>
      </trkpt>
      <trkpt lat="43.27168" lon="-3.76412">
        <ele>660.8</ele>
        <time>2023-07-13T02:50:14.000+02:00</time>
      </trkpt>
      <trkpt lat="43.27181" lon="-3.76421">
        <ele>657.5</ele>
        <time>2023-07-13T02:50:16.000+02:00</time>
      </trkpt>
      <trkpt lat="43.27196" lon="-3.76436">
        <ele>650.3</ele>
        <time>2023-07-13T02:50:19.000+02:00</time>
      </trkpt>
      <trkpt lat="43.27202" lon="-3.7644">
        <ele>648.5</ele>
        <time>2023-07-13T02:50:20.000+02:00</time>
      </trkpt>
      <trkpt lat="43.27205" lon="-3.76441">
        <ele>648</ele>
        <time>2023-07-13T02:50:20.000+02:00</time>
      </trkpt>
      <trkpt lat="43.27215" lon="-3.76443">
        <ele>647.5</ele>
        <time>2023-07-13T02:50:22.000+02:00</time>
      </trkpt>
      <trkpt lat="43.27244" lon="-3.76445">
        <ele>647.3</ele>
        <time>2023-07-13T02:50:26.000+02:00</time>
      </trkpt>
      <trkpt lat="43.27254" lon="-3.7645">
        <ele>646</ele>
        <time>2023-07-13T02:50:28.000+02:00</time>
      </trkpt>
      <trkpt lat="43.27266" lon="-3.76459">
        <ele>644</ele>
        <time>2023-07-13T02:50:30.000+02:00</time>
      </trkpt>
      <trkpt lat="43.27286" lon="-3.76472">
        <ele>642.5</ele>
        <time>2023-07-13T02:50:34.000+02:00</time>
      </trkpt>
      <trkpt lat="43.27309" lon="-3.76493">
        <ele>639.8</ele>
        <time>2023-07-13T02:50:38.000+02:00</time>
      </trkpt>
      <trkpt lat="43.27313" lon="-3.76497">
        <ele>639</ele>
        <time>2023-07-13T02:50:39.000+02:00</time>
      </trkpt>
      <trkpt lat="43.27318" lon="-3.76505">
        <ele>638.3</ele>
        <time>2023-07-13T02:50:40.000+02:00</time>
      </trkpt>
      <trkpt lat="43.27323" lon="-3.76513">
        <ele>637.3</ele>
        <time>2023-07-13T02:50:41.000+02:00</time>
      </trkpt>
      <trkpt lat="43.27327" lon="-3.76526">
        <ele>635.3</ele>
        <time>2023-07-13T02:50:42.000+02:00</time>
      </trkpt>
      <trkpt lat="43.27327" lon="-3.76534">
        <ele>633.3</ele>
        <time>2023-07-13T02:50:43.000+02:00</time>
      </trkpt>
      <trkpt lat="43.27324" lon="-3.76551">
        <ele>628</ele>
        <time>2023-07-13T02:50:45.000+02:00</time>
      </trkpt>
      <trkpt lat="43.27323" lon="-3.76561">
        <ele>625</ele>
        <time>2023-07-13T02:50:46.000+02:00</time>
      </trkpt>
      <trkpt lat="43.27323" lon="-3.76578">
        <ele>620.8</ele>
        <time>2023-07-13T02:50:48.000+02:00</time>
      </trkpt>
      <trkpt lat="43.27325" lon="-3.76593">
        <ele>617.3</ele>
        <time>2023-07-13T02:50:50.000+02:00</time>
      </trkpt>
      <trkpt lat="43.27328" lon="-3.76601">
        <ele>616</ele>
        <time>2023-07-13T02:50:51.000+02:00</time>
      </trkpt>
      <trkpt lat="43.2733" lon="-3.76605">
        <ele>615.8</ele>
        <time>2023-07-13T02:50:52.000+02:00</time>
      </trkpt>
      <trkpt lat="43.27335" lon="-3.76609">
        <ele>616</ele>
        <time>2023-07-13T02:50:53.000+02:00</time>
      </trkpt>
      <trkpt lat="43.27339" lon="-3.76612">
        <ele>615.8</ele>
        <time>2023-07-13T02:50:54.000+02:00</time>
      </trkpt>
      <trkpt lat="43.27343" lon="-3.76613">
        <ele>616.3</ele>
        <time>2023-07-13T02:50:55.000+02:00</time>
      </trkpt>
      <trkpt lat="43.27353" lon="-3.76613">
        <ele>617.5</ele>
        <time>2023-07-13T02:50:56.000+02:00</time>
      </trkpt>
      <trkpt lat="43.27378" lon="-3.76607">
        <ele>622.5</ele>
        <time>2023-07-13T02:51:00.000+02:00</time>
      </trkpt>
      <trkpt lat="43.27384" lon="-3.76608">
        <ele>623.3</ele>
        <time>2023-07-13T02:51:01.000+02:00</time>
      </trkpt>
      <trkpt lat="43.27389" lon="-3.76609">
        <ele>623.5</ele>
        <time>2023-07-13T02:51:02.000+02:00</time>
      </trkpt>
      <trkpt lat="43.27394" lon="-3.76615">
        <ele>623</ele>
        <time>2023-07-13T02:51:03.000+02:00</time>
      </trkpt>
      <trkpt lat="43.27402" lon="-3.76633">
        <ele>619.8</ele>
        <time>2023-07-13T02:51:05.000+02:00</time>
      </trkpt>
      <trkpt lat="43.27406" lon="-3.76638">
        <ele>619</ele>
        <time>2023-07-13T02:51:06.000+02:00</time>
      </trkpt>
      <trkpt lat="43.27417" lon="-3.76649">
        <ele>618.3</ele>
        <time>2023-07-13T02:51:08.000+02:00</time>
      </trkpt>
      <trkpt lat="43.27423" lon="-3.76657">
        <ele>619.3</ele>
        <time>2023-07-13T02:51:09.000+02:00</time>
      </trkpt>
      <trkpt lat="43.27428" lon="-3.76665">
        <ele>619.5</ele>
        <time>2023-07-13T02:51:10.000+02:00</time>
      </trkpt>
      <trkpt lat="43.27433" lon="-3.76677">
        <ele>619.5</ele>
        <time>2023-07-13T02:51:12.000+02:00</time>
      </trkpt>
      <trkpt lat="43.27436" lon="-3.76685">
        <ele>618.8</ele>
        <time>2023-07-13T02:51:13.000+02:00</time>
      </trkpt>
      <trkpt lat="43.27436" lon="-3.76691">
        <ele>617.5</ele>
        <time>2023-07-13T02:51:14.000+02:00</time>
      </trkpt>
      <trkpt lat="43.27429" lon="-3.76714">
        <ele>610.5</ele>
        <time>2023-07-13T02:51:16.000+02:00</time>
      </trkpt>
      <trkpt lat="43.27429" lon="-3.76718">
        <ele>609.3</ele>
        <time>2023-07-13T02:51:17.000+02:00</time>
      </trkpt>
      <trkpt lat="43.27428" lon="-3.76727">
        <ele>607.5</ele>
        <time>2023-07-13T02:51:18.000+02:00</time>
      </trkpt>
      <trkpt lat="43.27429" lon="-3.76736">
        <ele>605.8</ele>
        <time>2023-07-13T02:51:19.000+02:00</time>
      </trkpt>
      <trkpt lat="43.27431" lon="-3.76743">
        <ele>605.3</ele>
        <time>2023-07-13T02:51:20.000+02:00</time>
      </trkpt>
      <trkpt lat="43.27434" lon="-3.76749">
        <ele>605</ele>
        <time>2023-07-13T02:51:20.000+02:00</time>
      </trkpt>
      <trkpt lat="43.27438" lon="-3.76755">
        <ele>604.8</ele>
        <time>2023-07-13T02:51:21.000+02:00</time>
      </trkpt>
      <trkpt lat="43.27439" lon="-3.7676">
        <ele>603.8</ele>
        <time>2023-07-13T02:51:22.000+02:00</time>
      </trkpt>
      <trkpt lat="43.27439" lon="-3.76768">
        <ele>601.3</ele>
        <time>2023-07-13T02:51:23.000+02:00</time>
      </trkpt>
      <trkpt lat="43.27434" lon="-3.76794">
        <ele>591.8</ele>
        <time>2023-07-13T02:51:26.000+02:00</time>
      </trkpt>
      <trkpt lat="43.27433" lon="-3.76803">
        <ele>588.5</ele>
        <time>2023-07-13T02:51:27.000+02:00</time>
      </trkpt>
      <trkpt lat="43.27433" lon="-3.76808">
        <ele>587.3</ele>
        <time>2023-07-13T02:51:28.000+02:00</time>
      </trkpt>
      <trkpt lat="43.27434" lon="-3.76813">
        <ele>586</ele>
        <time>2023-07-13T02:51:29.000+02:00</time>
      </trkpt>
      <trkpt lat="43.27437" lon="-3.76819">
        <ele>585.3</ele>
        <time>2023-07-13T02:51:30.000+02:00</time>
      </trkpt>
      <trkpt lat="43.27441" lon="-3.76825">
        <ele>585.3</ele>
        <time>2023-07-13T02:51:31.000+02:00</time>
      </trkpt>
      <trkpt lat="43.27447" lon="-3.76831">
        <ele>585.5</ele>
        <time>2023-07-13T02:51:32.000+02:00</time>
      </trkpt>
      <trkpt lat="43.27454" lon="-3.76835">
        <ele>586.8</ele>
        <time>2023-07-13T02:51:33.000+02:00</time>
      </trkpt>
      <trkpt lat="43.2746" lon="-3.76838">
        <ele>588.3</ele>
        <time>2023-07-13T02:51:34.000+02:00</time>
      </trkpt>
      <trkpt lat="43.27478" lon="-3.76843">
        <ele>593.5</ele>
        <time>2023-07-13T02:51:37.000+02:00</time>
      </trkpt>
      <trkpt lat="43.27502" lon="-3.76843">
        <ele>602.3</ele>
        <time>2023-07-13T02:51:40.000+02:00</time>
      </trkpt>
      <trkpt lat="43.27507" lon="-3.76844">
        <ele>604</ele>
        <time>2023-07-13T02:51:41.000+02:00</time>
      </trkpt>
      <trkpt lat="43.27513" lon="-3.7685">
        <ele>605</ele>
        <time>2023-07-13T02:51:42.000+02:00</time>
      </trkpt>
      <trkpt lat="43.27517" lon="-3.7686">
        <ele>604.5</ele>
        <time>2023-07-13T02:51:44.000+02:00</time>
      </trkpt>
      <trkpt lat="43.27519" lon="-3.7687">
        <ele>602.8</ele>
        <time>2023-07-13T02:51:45.000+02:00</time>
      </trkpt>
      <trkpt lat="43.27519" lon="-3.76897">
        <ele>596.3</ele>
        <time>2023-07-13T02:51:48.000+02:00</time>
      </trkpt>
      <trkpt lat="43.27513" lon="-3.76923">
        <ele>588.8</ele>
        <time>2023-07-13T02:51:51.000+02:00</time>
      </trkpt>
      <trkpt lat="43.27511" lon="-3.76935">
        <ele>588.3</ele>
        <time>2023-07-13T02:51:52.000+02:00</time>
      </trkpt>
      <trkpt lat="43.27508" lon="-3.76976">
        <ele>588.8</ele>
        <time>2023-07-13T02:51:57.000+02:00</time>
      </trkpt>
      <trkpt lat="43.27505" lon="-3.76985">
        <ele>588.3</ele>
        <time>2023-07-13T02:51:58.000+02:00</time>
      </trkpt>
      <trkpt lat="43.275" lon="-3.76997">
        <ele>587.5</ele>
        <time>2023-07-13T02:51:59.000+02:00</time>
      </trkpt>
      <trkpt lat="43.27487" lon="-3.77018">
        <ele>578</ele>
        <time>2023-07-13T02:52:02.000+02:00</time>
      </trkpt>
      <trkpt lat="43.27486" lon="-3.77023">
        <ele>576.3</ele>
        <time>2023-07-13T02:52:03.000+02:00</time>
      </trkpt>
      <trkpt lat="43.27484" lon="-3.77031">
        <ele>574</ele>
        <time>2023-07-13T02:52:04.000+02:00</time>
      </trkpt>
      <trkpt lat="43.27484" lon="-3.77041">
        <ele>572.8</ele>
        <time>2023-07-13T02:52:05.000+02:00</time>
      </trkpt>
      <trkpt lat="43.27488" lon="-3.77058">
        <ele>573</ele>
        <time>2023-07-13T02:52:07.000+02:00</time>
      </trkpt>
      <trkpt lat="43.27492" lon="-3.77071">
        <ele>573.8</ele>
        <time>2023-07-13T02:52:09.000+02:00</time>
      </trkpt>
      <trkpt lat="43.27497" lon="-3.77082">
        <ele>575.3</ele>
        <time>2023-07-13T02:52:10.000+02:00</time>
      </trkpt>
      <trkpt lat="43.27499" lon="-3.77085">
        <ele>575.8</ele>
        <time>2023-07-13T02:52:11.000+02:00</time>
      </trkpt>
      <trkpt lat="43.27503" lon="-3.77088">
        <ele>575</ele>
        <time>2023-07-13T02:52:12.000+02:00</time>
      </trkpt>
      <trkpt lat="43.2751" lon="-3.77091">
        <ele>573.8</ele>
        <time>2023-07-13T02:52:13.000+02:00</time>
      </trkpt>
      <trkpt lat="43.2752" lon="-3.77092">
        <ele>573</ele>
        <time>2023-07-13T02:52:15.000+02:00</time>
      </trkpt>
      <trkpt lat="43.27529" lon="-3.77091">
        <ele>573.3</ele>
        <time>2023-07-13T02:52:16.000+02:00</time>
      </trkpt>
      <trkpt lat="43.27536" lon="-3.77089">
        <ele>573.5</ele>
        <time>2023-07-13T02:52:17.000+02:00</time>
      </trkpt>
      <trkpt lat="43.27586" lon="-3.77071">
        <ele>580.3</ele>
        <time>2023-07-13T02:52:25.000+02:00</time>
      </trkpt>
      <trkpt lat="43.27616" lon="-3.77063">
        <ele>586.3</ele>
        <time>2023-07-13T02:52:30.000+02:00</time>
      </trkpt>
      <trkpt lat="43.27652" lon="-3.77048">
        <ele>594.5</ele>
        <time>2023-07-13T02:52:36.000+02:00</time>
      </trkpt>
      <trkpt lat="43.27661" lon="-3.77047">
        <ele>595.5</ele>
        <time>2023-07-13T02:52:37.000+02:00</time>
      </trkpt>
      <trkpt lat="43.27668" lon="-3.7705">
        <ele>595.8</ele>
        <time>2023-07-13T02:52:38.000+02:00</time>
      </trkpt>
      <trkpt lat="43.27671" lon="-3.77053">
        <ele>596</ele>
        <time>2023-07-13T02:52:39.000+02:00</time>
      </trkpt>
      <trkpt lat="43.27677" lon="-3.77061">
        <ele>595.8</ele>
        <time>2023-07-13T02:52:40.000+02:00</time>
      </trkpt>
      <trkpt lat="43.27694" lon="-3.77091">
        <ele>595.3</ele>
        <time>2023-07-13T02:52:44.000+02:00</time>
      </trkpt>
      <trkpt lat="43.27696" lon="-3.77097">
        <ele>595</ele>
        <time>2023-07-13T02:52:45.000+02:00</time>
      </trkpt>
      <trkpt lat="43.27697" lon="-3.77102">
        <ele>594.3</ele>
        <time>2023-07-13T02:52:46.000+02:00</time>
      </trkpt>
      <trkpt lat="43.27697" lon="-3.77111">
        <ele>592.8</ele>
        <time>2023-07-13T02:52:47.000+02:00</time>
      </trkpt>
      <trkpt lat="43.27696" lon="-3.77162">
        <ele>582.8</ele>
        <time>2023-07-13T02:52:52.000+02:00</time>
      </trkpt>
      <trkpt lat="43.27696" lon="-3.7717">
        <ele>581.8</ele>
        <time>2023-07-13T02:52:53.000+02:00</time>
      </trkpt>
      <trkpt lat="43.277" lon="-3.77179">
        <ele>581.8</ele>
        <time>2023-07-13T02:52:54.000+02:00</time>
      </trkpt>
      <trkpt lat="43.27704" lon="-3.77184">
        <ele>582.5</ele>
        <time>2023-07-13T02:52:55.000+02:00</time>
      </trkpt>
      <trkpt lat="43.27706" lon="-3.77186">
        <ele>583.5</ele>
        <time>2023-07-13T02:52:55.000+02:00</time>
      </trkpt>
      <trkpt lat="43.27711" lon="-3.77188">
        <ele>585</ele>
        <time>2023-07-13T02:52:56.000+02:00</time>
      </trkpt>
      <trkpt lat="43.27716" lon="-3.77189">
        <ele>587.3</ele>
        <time>2023-07-13T02:52:57.000+02:00</time>
      </trkpt>
      <trkpt lat="43.27722" lon="-3.77188">
        <ele>590.3</ele>
        <time>2023-07-13T02:52:58.000+02:00</time>
      </trkpt>
      <trkpt lat="43.27738" lon="-3.77183">
        <ele>598.5</ele>
        <time>2023-07-13T02:53:01.000+02:00</time>
      </trkpt>
      <trkpt lat="43.27743" lon="-3.77183">
        <ele>600.8</ele>
        <time>2023-07-13T02:53:02.000+02:00</time>
      </trkpt>
      <trkpt lat="43.27746" lon="-3.77184">
        <ele>601.8</ele>
        <time>2023-07-13T02:53:03.000+02:00</time>
      </trkpt>
      <trkpt lat="43.27749" lon="-3.77188">
        <ele>602.5</ele>
        <time>2023-07-13T02:53:03.000+02:00</time>
      </trkpt>
      <trkpt lat="43.27751" lon="-3.77193">
        <ele>602.3</ele>
        <time>2023-07-13T02:53:04.000+02:00</time>
      </trkpt>
      <trkpt lat="43.27753" lon="-3.77215">
        <ele>599</ele>
        <time>2023-07-13T02:53:06.000+02:00</time>
      </trkpt>
      <trkpt lat="43.27754" lon="-3.77224">
        <ele>598</ele>
        <time>2023-07-13T02:53:07.000+02:00</time>
      </trkpt>
      <trkpt lat="43.27758" lon="-3.77232">
        <ele>597.8</ele>
        <time>2023-07-13T02:53:08.000+02:00</time>
      </trkpt>
      <trkpt lat="43.2776" lon="-3.77235">
        <ele>598</ele>
        <time>2023-07-13T02:53:09.000+02:00</time>
      </trkpt>
      <trkpt lat="43.27767" lon="-3.77242">
        <ele>599</ele>
        <time>2023-07-13T02:53:10.000+02:00</time>
      </trkpt>
      <trkpt lat="43.27781" lon="-3.7725">
        <ele>601.8</ele>
        <time>2023-07-13T02:53:13.000+02:00</time>
      </trkpt>
      <trkpt lat="43.27796" lon="-3.77264">
        <ele>605</ele>
        <time>2023-07-13T02:53:15.000+02:00</time>
      </trkpt>
      <trkpt lat="43.27807" lon="-3.77271">
        <ele>607.8</ele>
        <time>2023-07-13T02:53:17.000+02:00</time>
      </trkpt>
      <trkpt lat="43.27828" lon="-3.77282">
        <ele>613.3</ele>
        <time>2023-07-13T02:53:21.000+02:00</time>
      </trkpt>
      <trkpt lat="43.27835" lon="-3.7729">
        <ele>614.8</ele>
        <time>2023-07-13T02:53:22.000+02:00</time>
      </trkpt>
      <trkpt lat="43.2784" lon="-3.77301">
        <ele>615.5</ele>
        <time>2023-07-13T02:53:23.000+02:00</time>
      </trkpt>
      <trkpt lat="43.27842" lon="-3.77311">
        <ele>615.3</ele>
        <time>2023-07-13T02:53:25.000+02:00</time>
      </trkpt>
      <trkpt lat="43.27845" lon="-3.77344">
        <ele>614.5</ele>
        <time>2023-07-13T02:53:28.000+02:00</time>
      </trkpt>
      <trkpt lat="43.27845" lon="-3.77358">
        <ele>615</ele>
        <time>2023-07-13T02:53:30.000+02:00</time>
      </trkpt>
      <trkpt lat="43.27843" lon="-3.77369">
        <ele>614.3</ele>
        <time>2023-07-13T02:53:31.000+02:00</time>
      </trkpt>
      <trkpt lat="43.27841" lon="-3.77375">
        <ele>613.5</ele>
        <time>2023-07-13T02:53:32.000+02:00</time>
      </trkpt>
      <trkpt lat="43.27824" lon="-3.77396">
        <ele>607.3</ele>
        <time>2023-07-13T02:53:35.000+02:00</time>
      </trkpt>
      <trkpt lat="43.27822" lon="-3.774">
        <ele>606.3</ele>
        <time>2023-07-13T02:53:36.000+02:00</time>
      </trkpt>
      <trkpt lat="43.2782" lon="-3.77405">
        <ele>605.8</ele>
        <time>2023-07-13T02:53:37.000+02:00</time>
      </trkpt>
      <trkpt lat="43.27818" lon="-3.7743">
        <ele>604.8</ele>
        <time>2023-07-13T02:53:39.000+02:00</time>
      </trkpt>
      <trkpt lat="43.2781" lon="-3.77459">
        <ele>601</ele>
        <time>2023-07-13T02:53:43.000+02:00</time>
      </trkpt>
      <trkpt lat="43.27809" lon="-3.77464">
        <ele>600.8</ele>
        <time>2023-07-13T02:53:44.000+02:00</time>
      </trkpt>
      <trkpt lat="43.27808" lon="-3.77473">
        <ele>600.3</ele>
        <time>2023-07-13T02:53:45.000+02:00</time>
      </trkpt>
      <trkpt lat="43.27808" lon="-3.77527">
        <ele>603</ele>
        <time>2023-07-13T02:53:51.000+02:00</time>
      </trkpt>
      <trkpt lat="43.27807" lon="-3.77537">
        <ele>603.5</ele>
        <time>2023-07-13T02:53:52.000+02:00</time>
      </trkpt>
      <trkpt lat="43.27804" lon="-3.77551">
        <ele>603.8</ele>
        <time>2023-07-13T02:53:54.000+02:00</time>
      </trkpt>
      <trkpt lat="43.27803" lon="-3.77556">
        <ele>604</ele>
        <time>2023-07-13T02:53:55.000+02:00</time>
      </trkpt>
      <trkpt lat="43.27799" lon="-3.77565">
        <ele>603.5</ele>
        <time>2023-07-13T02:53:56.000+02:00</time>
      </trkpt>
      <trkpt lat="43.27795" lon="-3.7757">
        <ele>603</ele>
        <time>2023-07-13T02:53:57.000+02:00</time>
      </trkpt>
      <trkpt lat="43.27791" lon="-3.77573">
        <ele>602.3</ele>
        <time>2023-07-13T02:53:58.000+02:00</time>
      </trkpt>
      <trkpt lat="43.27784" lon="-3.77574">
        <ele>600.3</ele>
        <time>2023-07-13T02:53:59.000+02:00</time>
      </trkpt>
      <trkpt lat="43.27765" lon="-3.77574">
        <ele>594.8</ele>
        <time>2023-07-13T02:54:02.000+02:00</time>
      </trkpt>
      <trkpt lat="43.27759" lon="-3.77575">
        <ele>593</ele>
        <time>2023-07-13T02:54:03.000+02:00</time>
      </trkpt>
      <trkpt lat="43.27755" lon="-3.77577">
        <ele>592.3</ele>
        <time>2023-07-13T02:54:04.000+02:00</time>
      </trkpt>
      <trkpt lat="43.2775" lon="-3.77581">
        <ele>591.3</ele>
        <time>2023-07-13T02:54:05.000+02:00</time>
      </trkpt>
      <trkpt lat="43.27746" lon="-3.77585">
        <ele>590.5</ele>
        <time>2023-07-13T02:54:06.000+02:00</time>
      </trkpt>
      <trkpt lat="43.27743" lon="-3.7759">
        <ele>590.5</ele>
        <time>2023-07-13T02:54:06.000+02:00</time>
      </trkpt>
      <trkpt lat="43.27733" lon="-3.77634">
        <ele>593.8</ele>
        <time>2023-07-13T02:54:11.000+02:00</time>
      </trkpt>
      <trkpt lat="43.27728" lon="-3.77658">
        <ele>595.5</ele>
        <time>2023-07-13T02:54:14.000+02:00</time>
      </trkpt>
      <trkpt lat="43.27717" lon="-3.77682">
        <ele>593.8</ele>
        <time>2023-07-13T02:54:17.000+02:00</time>
      </trkpt>
      <trkpt lat="43.27712" lon="-3.777">
        <ele>593.5</ele>
        <time>2023-07-13T02:54:19.000+02:00</time>
      </trkpt>
      <trkpt lat="43.27708" lon="-3.77719">
        <ele>594.3</ele>
        <time>2023-07-13T02:54:22.000+02:00</time>
      </trkpt>
      <trkpt lat="43.27706" lon="-3.77736">
        <ele>595.8</ele>
        <time>2023-07-13T02:54:24.000+02:00</time>
      </trkpt>
      <trkpt lat="43.27704" lon="-3.77748">
        <ele>596.3</ele>
        <time>2023-07-13T02:54:25.000+02:00</time>
      </trkpt>
      <trkpt lat="43.27702" lon="-3.77754">
        <ele>595.8</ele>
        <time>2023-07-13T02:54:26.000+02:00</time>
      </trkpt>
      <trkpt lat="43.27695" lon="-3.77769">
        <ele>592.8</ele>
        <time>2023-07-13T02:54:28.000+02:00</time>
      </trkpt>
      <trkpt lat="43.27694" lon="-3.77773">
        <ele>592.5</ele>
        <time>2023-07-13T02:54:29.000+02:00</time>
      </trkpt>
      <trkpt lat="43.27692" lon="-3.77799">
        <ele>591.8</ele>
        <time>2023-07-13T02:54:32.000+02:00</time>
      </trkpt>
      <trkpt lat="43.27688" lon="-3.77816">
        <ele>590.5</ele>
        <time>2023-07-13T02:54:34.000+02:00</time>
      </trkpt>
      <trkpt lat="43.27688" lon="-3.77826">
        <ele>590.3</ele>
        <time>2023-07-13T02:54:35.000+02:00</time>
      </trkpt>
      <trkpt lat="43.27693" lon="-3.77888">
        <ele>590</ele>
        <time>2023-07-13T02:54:42.000+02:00</time>
      </trkpt>
      <trkpt lat="43.27698" lon="-3.77929">
        <ele>589.5</ele>
        <time>2023-07-13T02:54:47.000+02:00</time>
      </trkpt>
      <trkpt lat="43.27699" lon="-3.77941">
        <ele>588.8</ele>
        <time>2023-07-13T02:54:48.000+02:00</time>
      </trkpt>
      <trkpt lat="43.27697" lon="-3.77951">
        <ele>588</ele>
        <time>2023-07-13T02:54:49.000+02:00</time>
      </trkpt>
      <trkpt lat="43.27694" lon="-3.77958">
        <ele>587</ele>
        <time>2023-07-13T02:54:50.000+02:00</time>
      </trkpt>
      <trkpt lat="43.27692" lon="-3.7796">
        <ele>586.3</ele>
        <time>2023-07-13T02:54:50.000+02:00</time>
      </trkpt>
      <trkpt lat="43.27685" lon="-3.77967">
        <ele>584.8</ele>
        <time>2023-07-13T02:54:52.000+02:00</time>
      </trkpt>
      <trkpt lat="43.27678" lon="-3.77972">
        <ele>583.3</ele>
        <time>2023-07-13T02:54:53.000+02:00</time>
      </trkpt>
      <trkpt lat="43.27673" lon="-3.77974">
        <ele>582.5</ele>
        <time>2023-07-13T02:54:54.000+02:00</time>
      </trkpt>
      <trkpt lat="43.27658" lon="-3.77974">
        <ele>578.8</ele>
        <time>2023-07-13T02:54:56.000+02:00</time>
      </trkpt>
      <trkpt lat="43.27654" lon="-3.77975">
        <ele>578</ele>
        <time>2023-07-13T02:54:57.000+02:00</time>
      </trkpt>
      <trkpt lat="43.2765" lon="-3.77978">
        <ele>577</ele>
        <time>2023-07-13T02:54:58.000+02:00</time>
      </trkpt>
      <trkpt lat="43.27644" lon="-3.77986">
        <ele>575.8</ele>
        <time>2023-07-13T02:55:00.000+02:00</time>
      </trkpt>
      <trkpt lat="43.2764" lon="-3.77992">
        <ele>575.3</ele>
        <time>2023-07-13T02:55:01.000+02:00</time>
      </trkpt>
      <trkpt lat="43.27632" lon="-3.78017">
        <ele>573.3</ele>
        <time>2023-07-13T02:55:05.000+02:00</time>
      </trkpt>
      <trkpt lat="43.27628" lon="-3.78024">
        <ele>572.5</ele>
        <time>2023-07-13T02:55:06.000+02:00</time>
      </trkpt>
      <trkpt lat="43.27623" lon="-3.78029">
        <ele>571.5</ele>
        <time>2023-07-13T02:55:07.000+02:00</time>
      </trkpt>
      <trkpt lat="43.27609" lon="-3.78041">
        <ele>569.5</ele>
        <time>2023-07-13T02:55:10.000+02:00</time>
      </trkpt>
      <trkpt lat="43.27605" lon="-3.78046">
        <ele>569</ele>
        <time>2023-07-13T02:55:11.000+02:00</time>
      </trkpt>
      <trkpt lat="43.27603" lon="-3.78049">
        <ele>568.8</ele>
        <time>2023-07-13T02:55:11.000+02:00</time>
      </trkpt>
      <trkpt lat="43.27601" lon="-3.78057">
        <ele>568.8</ele>
        <time>2023-07-13T02:55:12.000+02:00</time>
      </trkpt>
      <trkpt lat="43.27598" lon="-3.78075">
        <ele>569.3</ele>
        <time>2023-07-13T02:55:14.000+02:00</time>
      </trkpt>
      <trkpt lat="43.27598" lon="-3.78085">
        <ele>569.3</ele>
        <time>2023-07-13T02:55:15.000+02:00</time>
      </trkpt>
      <trkpt lat="43.276" lon="-3.78094">
        <ele>567.3</ele>
        <time>2023-07-13T02:55:16.000+02:00</time>
      </trkpt>
      <trkpt lat="43.27603" lon="-3.78101">
        <ele>565.8</ele>
        <time>2023-07-13T02:55:17.000+02:00</time>
      </trkpt>
      <trkpt lat="43.27605" lon="-3.78105">
        <ele>565</ele>
        <time>2023-07-13T02:55:18.000+02:00</time>
      </trkpt>
      <trkpt lat="43.27608" lon="-3.78108">
        <ele>564.3</ele>
        <time>2023-07-13T02:55:19.000+02:00</time>
      </trkpt>
      <trkpt lat="43.27614" lon="-3.78114">
        <ele>563</ele>
        <time>2023-07-13T02:55:21.000+02:00</time>
      </trkpt>
      <trkpt lat="43.27624" lon="-3.78121">
        <ele>561.5</ele>
        <time>2023-07-13T02:55:22.000+02:00</time>
      </trkpt>
      <trkpt lat="43.27635" lon="-3.78125">
        <ele>560.3</ele>
        <time>2023-07-13T02:55:24.000+02:00</time>
      </trkpt>
      <trkpt lat="43.27677" lon="-3.78137">
        <ele>555.8</ele>
        <time>2023-07-13T02:55:30.000+02:00</time>
      </trkpt>
      <trkpt lat="43.2769" lon="-3.78138">
        <ele>554.8</ele>
        <time>2023-07-13T02:55:33.000+02:00</time>
      </trkpt>
      <trkpt lat="43.2774" lon="-3.78137">
        <ele>552.5</ele>
        <time>2023-07-13T02:55:40.000+02:00</time>
      </trkpt>
      <trkpt lat="43.27776" lon="-3.78134">
        <ele>551.3</ele>
        <time>2023-07-13T02:55:46.000+02:00</time>
      </trkpt>
      <trkpt lat="43.27793" lon="-3.78131">
        <ele>551</ele>
        <time>2023-07-13T02:55:48.000+02:00</time>
      </trkpt>
      <trkpt lat="43.27805" lon="-3.78126">
        <ele>551.5</ele>
        <time>2023-07-13T02:55:50.000+02:00</time>
      </trkpt>
      <trkpt lat="43.27815" lon="-3.78121">
        <ele>552.5</ele>
        <time>2023-07-13T02:55:52.000+02:00</time>
      </trkpt>
      <trkpt lat="43.27826" lon="-3.78113">
        <ele>554.3</ele>
        <time>2023-07-13T02:55:54.000+02:00</time>
      </trkpt>
      <trkpt lat="43.27841" lon="-3.781">
        <ele>558.5</ele>
        <time>2023-07-13T02:55:56.000+02:00</time>
      </trkpt>
      <trkpt lat="43.2785" lon="-3.78095">
        <ele>560.8</ele>
        <time>2023-07-13T02:55:58.000+02:00</time>
      </trkpt>
      <trkpt lat="43.27858" lon="-3.78094">
        <ele>561.8</ele>
        <time>2023-07-13T02:55:59.000+02:00</time>
      </trkpt>
      <trkpt lat="43.27866" lon="-3.78096">
        <ele>562</ele>
        <time>2023-07-13T02:56:00.000+02:00</time>
      </trkpt>
      <trkpt lat="43.27869" lon="-3.78099">
        <ele>561.5</ele>
        <time>2023-07-13T02:56:01.000+02:00</time>
      </trkpt>
      <trkpt lat="43.27869" lon="-3.78101">
        <ele>561</ele>
        <time>2023-07-13T02:56:01.000+02:00</time>
      </trkpt>
      <trkpt lat="43.27869" lon="-3.78107">
        <ele>559.3</ele>
        <time>2023-07-13T02:56:02.000+02:00</time>
      </trkpt>
      <trkpt lat="43.27879" lon="-3.78111">
        <ele>559.3</ele>
        <time>2023-07-13T02:56:03.000+02:00</time>
      </trkpt>
      <trkpt lat="43.27881" lon="-3.78114">
        <ele>558.5</ele>
        <time>2023-07-13T02:56:04.000+02:00</time>
      </trkpt>
      <trkpt lat="43.27883" lon="-3.78118">
        <ele>557.8</ele>
        <time>2023-07-13T02:56:05.000+02:00</time>
      </trkpt>
      <trkpt lat="43.27891" lon="-3.78126">
        <ele>556.5</ele>
        <time>2023-07-13T02:56:07.000+02:00</time>
      </trkpt>
      <trkpt lat="43.27894" lon="-3.78131">
        <ele>555.5</ele>
        <time>2023-07-13T02:56:08.000+02:00</time>
      </trkpt>
      <trkpt lat="43.27901" lon="-3.78145">
        <ele>552.8</ele>
        <time>2023-07-13T02:56:10.000+02:00</time>
      </trkpt>
      <trkpt lat="43.27913" lon="-3.78182">
        <ele>546.3</ele>
        <time>2023-07-13T02:56:14.000+02:00</time>
      </trkpt>
      <trkpt lat="43.27918" lon="-3.78194">
        <ele>545</ele>
        <time>2023-07-13T02:56:16.000+02:00</time>
      </trkpt>
      <trkpt lat="43.27928" lon="-3.78216">
        <ele>545</ele>
        <time>2023-07-13T02:56:19.000+02:00</time>
      </trkpt>
      <trkpt lat="43.27931" lon="-3.78224">
        <ele>544.8</ele>
        <time>2023-07-13T02:56:20.000+02:00</time>
      </trkpt>
      <trkpt lat="43.27939" lon="-3.78254">
        <ele>541.8</ele>
        <time>2023-07-13T02:56:24.000+02:00</time>
      </trkpt>
      <trkpt lat="43.27944" lon="-3.78264">
        <ele>542.3</ele>
        <time>2023-07-13T02:56:25.000+02:00</time>
      </trkpt>
      <trkpt lat="43.27953" lon="-3.78276">
        <ele>543.5</ele>
        <time>2023-07-13T02:56:27.000+02:00</time>
      </trkpt>
      <trkpt lat="43.27959" lon="-3.78292">
        <ele>543</ele>
        <time>2023-07-13T02:56:29.000+02:00</time>
      </trkpt>
      <trkpt lat="43.27969" lon="-3.7831">
        <ele>543.5</ele>
        <time>2023-07-13T02:56:32.000+02:00</time>
      </trkpt>
      <trkpt lat="43.27974" lon="-3.78325">
        <ele>542.8</ele>
        <time>2023-07-13T02:56:34.000+02:00</time>
      </trkpt>
      <trkpt lat="43.27976" lon="-3.78333">
        <ele>542</ele>
        <time>2023-07-13T02:56:35.000+02:00</time>
      </trkpt>
      <trkpt lat="43.27977" lon="-3.78341">
        <ele>540.8</ele>
        <time>2023-07-13T02:56:36.000+02:00</time>
      </trkpt>
      <trkpt lat="43.27978" lon="-3.78365">
        <ele>536</ele>
        <time>2023-07-13T02:56:39.000+02:00</time>
      </trkpt>
      <trkpt lat="43.27979" lon="-3.7837">
        <ele>535.3</ele>
        <time>2023-07-13T02:56:40.000+02:00</time>
      </trkpt>
      <trkpt lat="43.27983" lon="-3.78381">
        <ele>534</ele>
        <time>2023-07-13T02:56:41.000+02:00</time>
      </trkpt>
      <trkpt lat="43.27991" lon="-3.78396">
        <ele>533</ele>
        <time>2023-07-13T02:56:43.000+02:00</time>
      </trkpt>
      <trkpt lat="43.27998" lon="-3.78416">
        <ele>530.5</ele>
        <time>2023-07-13T02:56:46.000+02:00</time>
      </trkpt>
      <trkpt lat="43.28" lon="-3.78421">
        <ele>530.3</ele>
        <time>2023-07-13T02:56:46.000+02:00</time>
      </trkpt>
      <trkpt lat="43.28016" lon="-3.78446">
        <ele>529.5</ele>
        <time>2023-07-13T02:56:50.000+02:00</time>
      </trkpt>
      <trkpt lat="43.28027" lon="-3.78468">
        <ele>527.8</ele>
        <time>2023-07-13T02:56:53.000+02:00</time>
      </trkpt>
      <trkpt lat="43.28037" lon="-3.78486">
        <ele>526.3</ele>
        <time>2023-07-13T02:56:55.000+02:00</time>
      </trkpt>
      <trkpt lat="43.28043" lon="-3.78499">
        <ele>524.8</ele>
        <time>2023-07-13T02:56:57.000+02:00</time>
      </trkpt>
      <trkpt lat="43.28051" lon="-3.78513">
        <ele>523</ele>
        <time>2023-07-13T02:56:59.000+02:00</time>
      </trkpt>
      <trkpt lat="43.28059" lon="-3.78522">
        <ele>522.3</ele>
        <time>2023-07-13T02:57:01.000+02:00</time>
      </trkpt>
      <trkpt lat="43.28089" lon="-3.78551">
        <ele>520.8</ele>
        <time>2023-07-13T02:57:06.000+02:00</time>
      </trkpt>
      <trkpt lat="43.28104" lon="-3.78557">
        <ele>519.3</ele>
        <time>2023-07-13T02:57:09.000+02:00</time>
      </trkpt>
      <trkpt lat="43.28109" lon="-3.78559">
        <ele>518.8</ele>
        <time>2023-07-13T02:57:10.000+02:00</time>
      </trkpt>
      <trkpt lat="43.28118" lon="-3.78566">
        <ele>517.3</ele>
        <time>2023-07-13T02:57:11.000+02:00</time>
      </trkpt>
      <trkpt lat="43.28124" lon="-3.78569">
        <ele>516.5</ele>
        <time>2023-07-13T02:57:12.000+02:00</time>
      </trkpt>
      <trkpt lat="43.28128" lon="-3.7857">
        <ele>516.3</ele>
        <time>2023-07-13T02:57:13.000+02:00</time>
      </trkpt>
      <trkpt lat="43.28147" lon="-3.78569">
        <ele>515.8</ele>
        <time>2023-07-13T02:57:16.000+02:00</time>
      </trkpt>
      <trkpt lat="43.28165" lon="-3.78571">
        <ele>514.8</ele>
        <time>2023-07-13T02:57:18.000+02:00</time>
      </trkpt>
      <trkpt lat="43.2817" lon="-3.78573">
        <ele>514</ele>
        <time>2023-07-13T02:57:19.000+02:00</time>
      </trkpt>
      <trkpt lat="43.28176" lon="-3.78577">
        <ele>512.5</ele>
        <time>2023-07-13T02:57:20.000+02:00</time>
      </trkpt>
      <trkpt lat="43.28183" lon="-3.78579">
        <ele>511.3</ele>
        <time>2023-07-13T02:57:21.000+02:00</time>
      </trkpt>
      <trkpt lat="43.28196" lon="-3.78581">
        <ele>509</ele>
        <time>2023-07-13T02:57:23.000+02:00</time>
      </trkpt>
      <trkpt lat="43.28205" lon="-3.78579">
        <ele>508</ele>
        <time>2023-07-13T02:57:25.000+02:00</time>
      </trkpt>
      <trkpt lat="43.28214" lon="-3.78575">
        <ele>507.3</ele>
        <time>2023-07-13T02:57:26.000+02:00</time>
      </trkpt>
      <trkpt lat="43.28225" lon="-3.78569">
        <ele>506.5</ele>
        <time>2023-07-13T02:57:28.000+02:00</time>
      </trkpt>
      <trkpt lat="43.28232" lon="-3.78569">
        <ele>505.5</ele>
        <time>2023-07-13T02:57:29.000+02:00</time>
      </trkpt>
      <trkpt lat="43.28242" lon="-3.7857">
        <ele>504</ele>
        <time>2023-07-13T02:57:31.000+02:00</time>
      </trkpt>
      <trkpt lat="43.28253" lon="-3.78577">
        <ele>501.3</ele>
        <time>2023-07-13T02:57:32.000+02:00</time>
      </trkpt>
      <trkpt lat="43.2826" lon="-3.78587">
        <ele>498.8</ele>
        <time>2023-07-13T02:57:34.000+02:00</time>
      </trkpt>
      <trkpt lat="43.28276" lon="-3.78618">
        <ele>492.5</ele>
        <time>2023-07-13T02:57:38.000+02:00</time>
      </trkpt>
      <trkpt lat="43.2828" lon="-3.78639">
        <ele>489.3</ele>
        <time>2023-07-13T02:57:41.000+02:00</time>
      </trkpt>
      <trkpt lat="43.28283" lon="-3.78696">
        <ele>482.3</ele>
        <time>2023-07-13T02:57:47.000+02:00</time>
      </trkpt>
      <trkpt lat="43.28283" lon="-3.78724">
        <ele>479.3</ele>
        <time>2023-07-13T02:57:50.000+02:00</time>
      </trkpt>
      <trkpt lat="43.28281" lon="-3.78733">
        <ele>478.5</ele>
        <time>2023-07-13T02:57:51.000+02:00</time>
      </trkpt>
      <trkpt lat="43.28275" lon="-3.78749">
        <ele>477.8</ele>
        <time>2023-07-13T02:57:53.000+02:00</time>
      </trkpt>
      <trkpt lat="43.28273" lon="-3.78757">
        <ele>476.8</ele>
        <time>2023-07-13T02:57:54.000+02:00</time>
      </trkpt>
      <trkpt lat="43.28276" lon="-3.78764">
        <ele>475.5</ele>
        <time>2023-07-13T02:57:55.000+02:00</time>
      </trkpt>
      <trkpt lat="43.2828" lon="-3.78767">
        <ele>474.3</ele>
        <time>2023-07-13T02:57:56.000+02:00</time>
      </trkpt>
      <trkpt lat="43.28291" lon="-3.7877">
        <ele>472.5</ele>
        <time>2023-07-13T02:57:57.000+02:00</time>
      </trkpt>
      <trkpt lat="43.28322" lon="-3.78773">
        <ele>468.3</ele>
        <time>2023-07-13T02:58:02.000+02:00</time>
      </trkpt>
      <trkpt lat="43.2835" lon="-3.78774">
        <ele>463.5</ele>
        <time>2023-07-13T02:58:06.000+02:00</time>
      </trkpt>
      <trkpt lat="43.28378" lon="-3.78778">
        <ele>458</ele>
        <time>2023-07-13T02:58:11.000+02:00</time>
      </trkpt>
      <trkpt lat="43.28403" lon="-3.78779">
        <ele>453.3</ele>
        <time>2023-07-13T02:58:15.000+02:00</time>
      </trkpt>
      <trkpt lat="43.28432" lon="-3.78776">
        <ele>448.3</ele>
        <time>2023-07-13T02:58:19.000+02:00</time>
      </trkpt>
      <trkpt lat="43.28462" lon="-3.78772">
        <ele>443.8</ele>
        <time>2023-07-13T02:58:24.000+02:00</time>
      </trkpt>
      <trkpt lat="43.28451" lon="-3.78803">
        <ele>443.3</ele>
        <time>2023-07-13T02:58:27.000+02:00</time>
      </trkpt>
      <trkpt lat="43.28446" lon="-3.78816">
        <ele>443.3</ele>
        <time>2023-07-13T02:58:29.000+02:00</time>
      </trkpt>
      <trkpt lat="43.2843" lon="-3.7885">
        <ele>442.3</ele>
        <time>2023-07-13T02:58:34.000+02:00</time>
      </trkpt>
      <trkpt lat="43.28414" lon="-3.78886">
        <ele>439</ele>
        <time>2023-07-13T02:58:38.000+02:00</time>
      </trkpt>
      <trkpt lat="43.28411" lon="-3.78893">
        <ele>438.3</ele>
        <time>2023-07-13T02:58:39.000+02:00</time>
      </trkpt>
      <trkpt lat="43.28382" lon="-3.78935">
        <ele>433.8</ele>
        <time>2023-07-13T02:58:46.000+02:00</time>
      </trkpt>
      <trkpt lat="43.28378" lon="-3.78945">
        <ele>432.3</ele>
        <time>2023-07-13T02:58:47.000+02:00</time>
      </trkpt>
      <trkpt lat="43.28376" lon="-3.78955">
        <ele>430.5</ele>
        <time>2023-07-13T02:58:48.000+02:00</time>
      </trkpt>
      <trkpt lat="43.28366" lon="-3.79001">
        <ele>422</ele>
        <time>2023-07-13T02:58:53.000+02:00</time>
      </trkpt>
      <trkpt lat="43.28363" lon="-3.79008">
        <ele>420.8</ele>
        <time>2023-07-13T02:58:54.000+02:00</time>
      </trkpt>
      <trkpt lat="43.28361" lon="-3.79014">
        <ele>419.5</ele>
        <time>2023-07-13T02:58:55.000+02:00</time>
      </trkpt>
      <trkpt lat="43.28357" lon="-3.79019">
        <ele>418.5</ele>
        <time>2023-07-13T02:58:56.000+02:00</time>
      </trkpt>
      <trkpt lat="43.28351" lon="-3.79026">
        <ele>417.3</ele>
        <time>2023-07-13T02:58:57.000+02:00</time>
      </trkpt>
      <trkpt lat="43.28341" lon="-3.79035">
        <ele>415.8</ele>
        <time>2023-07-13T02:58:59.000+02:00</time>
      </trkpt>
      <trkpt lat="43.2833" lon="-3.79041">
        <ele>414.5</ele>
        <time>2023-07-13T02:59:00.000+02:00</time>
      </trkpt>
      <trkpt lat="43.28324" lon="-3.79049">
        <ele>412.8</ele>
        <time>2023-07-13T02:59:02.000+02:00</time>
      </trkpt>
      <trkpt lat="43.28339" lon="-3.79067">
        <ele>407.8</ele>
        <time>2023-07-13T02:59:05.000+02:00</time>
      </trkpt>
      <trkpt lat="43.28348" lon="-3.79076">
        <ele>405.8</ele>
        <time>2023-07-13T02:59:07.000+02:00</time>
      </trkpt>
      <trkpt lat="43.28356" lon="-3.79082">
        <ele>404.5</ele>
        <time>2023-07-13T02:59:08.000+02:00</time>
      </trkpt>
      <trkpt lat="43.28368" lon="-3.79088">
        <ele>403.8</ele>
        <time>2023-07-13T02:59:10.000+02:00</time>
      </trkpt>
      <trkpt lat="43.28418" lon="-3.79102">
        <ele>402.3</ele>
        <time>2023-07-13T02:59:18.000+02:00</time>
      </trkpt>
      <trkpt lat="43.28435" lon="-3.79104">
        <ele>400.3</ele>
        <time>2023-07-13T02:59:20.000+02:00</time>
      </trkpt>
      <trkpt lat="43.28451" lon="-3.79102">
        <ele>398.8</ele>
        <time>2023-07-13T02:59:23.000+02:00</time>
      </trkpt>
      <trkpt lat="43.28457" lon="-3.79102">
        <ele>398</ele>
        <time>2023-07-13T02:59:24.000+02:00</time>
      </trkpt>
      <trkpt lat="43.28461" lon="-3.79106">
        <ele>397</ele>
        <time>2023-07-13T02:59:25.000+02:00</time>
      </trkpt>
      <trkpt lat="43.28463" lon="-3.79113">
        <ele>396</ele>
        <time>2023-07-13T02:59:26.000+02:00</time>
      </trkpt>
      <trkpt lat="43.28481" lon="-3.7911">
        <ele>394.5</ele>
        <time>2023-07-13T02:59:29.000+02:00</time>
      </trkpt>
      <trkpt lat="43.28504" lon="-3.79105">
        <ele>392.5</ele>
        <time>2023-07-13T02:59:32.000+02:00</time>
      </trkpt>
      <trkpt lat="43.28518" lon="-3.79103">
        <ele>390.8</ele>
        <time>2023-07-13T02:59:35.000+02:00</time>
      </trkpt>
      <trkpt lat="43.28525" lon="-3.79103">
        <ele>389.5</ele>
        <time>2023-07-13T02:59:36.000+02:00</time>
      </trkpt>
      <trkpt lat="43.28533" lon="-3.79107">
        <ele>387.8</ele>
        <time>2023-07-13T02:59:37.000+02:00</time>
      </trkpt>
      <trkpt lat="43.28607" lon="-3.79168">
        <ele>364</ele>
        <time>2023-07-13T02:59:50.000+02:00</time>
      </trkpt>
      <trkpt lat="43.28647" lon="-3.79205">
        <ele>351.8</ele>
        <time>2023-07-13T02:59:58.000+02:00</time>
      </trkpt>
      <trkpt lat="43.28652" lon="-3.79211">
        <ele>350</ele>
        <time>2023-07-13T02:59:59.000+02:00</time>
      </trkpt>
      <trkpt lat="43.28657" lon="-3.79221">
        <ele>347.8</ele>
        <time>2023-07-13T03:00:00.000+02:00</time>
      </trkpt>
      <trkpt lat="43.28664" lon="-3.7924">
        <ele>343.8</ele>
        <time>2023-07-13T03:00:02.000+02:00</time>
      </trkpt>
      <trkpt lat="43.28667" lon="-3.79244">
        <ele>342.8</ele>
        <time>2023-07-13T03:00:03.000+02:00</time>
      </trkpt>
      <trkpt lat="43.2867" lon="-3.79245">
        <ele>342</ele>
        <time>2023-07-13T03:00:03.000+02:00</time>
      </trkpt>
      <trkpt lat="43.28674" lon="-3.79245">
        <ele>341</ele>
        <time>2023-07-13T03:00:04.000+02:00</time>
      </trkpt>
      <trkpt lat="43.28679" lon="-3.79242">
        <ele>340.5</ele>
        <time>2023-07-13T03:00:05.000+02:00</time>
      </trkpt>
      <trkpt lat="43.28685" lon="-3.79236">
        <ele>340.3</ele>
        <time>2023-07-13T03:00:06.000+02:00</time>
      </trkpt>
      <trkpt lat="43.28696" lon="-3.79217">
        <ele>340.5</ele>
        <time>2023-07-13T03:00:09.000+02:00</time>
      </trkpt>
      <trkpt lat="43.28704" lon="-3.79207">
        <ele>340.5</ele>
        <time>2023-07-13T03:00:10.000+02:00</time>
      </trkpt>
      <trkpt lat="43.28716" lon="-3.79195">
        <ele>339.3</ele>
        <time>2023-07-13T03:00:13.000+02:00</time>
      </trkpt>
      <trkpt lat="43.28721" lon="-3.79195">
        <ele>338.3</ele>
        <time>2023-07-13T03:00:14.000+02:00</time>
      </trkpt>
      <trkpt lat="43.28725" lon="-3.79199">
        <ele>336.8</ele>
        <time>2023-07-13T03:00:16.000+02:00</time>
      </trkpt>
      <trkpt lat="43.28726" lon="-3.79204">
        <ele>335.8</ele>
        <time>2023-07-13T03:00:17.000+02:00</time>
      </trkpt>
      <trkpt lat="43.28726" lon="-3.79207">
        <ele>335.3</ele>
        <time>2023-07-13T03:00:17.000+02:00</time>
      </trkpt>
      <trkpt lat="43.28726" lon="-3.79224">
        <ele>333.3</ele>
        <time>2023-07-13T03:00:21.000+02:00</time>
      </trkpt>
      <trkpt lat="43.28723" lon="-3.79248">
        <ele>330.5</ele>
        <time>2023-07-13T03:00:27.000+02:00</time>
      </trkpt>
      <trkpt lat="43.28721" lon="-3.79272">
        <ele>328.5</ele>
        <time>2023-07-13T03:00:32.000+02:00</time>
      </trkpt>
      <trkpt lat="43.28718" lon="-3.79283">
        <ele>327.8</ele>
        <time>2023-07-13T03:00:35.000+02:00</time>
      </trkpt>
      <trkpt lat="43.28713" lon="-3.79296">
        <ele>327</ele>
        <time>2023-07-13T03:00:38.000+02:00</time>
      </trkpt>
      <trkpt lat="43.28703" lon="-3.79318">
        <ele>325.8</ele>
        <time>2023-07-13T03:00:44.000+02:00</time>
      </trkpt>
      <trkpt lat="43.28693" lon="-3.79344">
        <ele>322.5</ele>
        <time>2023-07-13T03:00:50.000+02:00</time>
      </trkpt>
      <trkpt lat="43.2869" lon="-3.79355">
        <ele>320.8</ele>
        <time>2023-07-13T03:00:53.000+02:00</time>
      </trkpt>
      <trkpt lat="43.28689" lon="-3.79366">
        <ele>318.8</ele>
        <time>2023-07-13T03:00:55.000+02:00</time>
      </trkpt>
      <trkpt lat="43.28688" lon="-3.79375">
        <ele>317</ele>
        <time>2023-07-13T03:00:57.000+02:00</time>
      </trkpt>
      <trkpt lat="43.28689" lon="-3.79407">
        <ele>310.8</ele>
        <time>2023-07-13T03:01:04.000+02:00</time>
      </trkpt>
      <trkpt lat="43.28683" lon="-3.79456">
        <ele>302.3</ele>
        <time>2023-07-13T03:01:15.000+02:00</time>
      </trkpt>
      <trkpt lat="43.28683" lon="-3.79472">
        <ele>299.8</ele>
        <time>2023-07-13T03:01:19.000+02:00</time>
      </trkpt>
      <trkpt lat="43.28686" lon="-3.79483">
        <ele>298</ele>
        <time>2023-07-13T03:01:21.000+02:00</time>
      </trkpt>
      <trkpt lat="43.28688" lon="-3.79488">
        <ele>297.3</ele>
        <time>2023-07-13T03:01:22.000+02:00</time>
      </trkpt>
      <trkpt lat="43.2869" lon="-3.79493">
        <ele>296.5</ele>
        <time>2023-07-13T03:01:24.000+02:00</time>
      </trkpt>
      <trkpt lat="43.28701" lon="-3.7951">
        <ele>294</ele>
        <time>2023-07-13T03:01:29.000+02:00</time>
      </trkpt>
      <trkpt lat="43.28706" lon="-3.79522">
        <ele>292.5</ele>
        <time>2023-07-13T03:01:32.000+02:00</time>
      </trkpt>
      <trkpt lat="43.28715" lon="-3.79563">
        <ele>286.5</ele>
        <time>2023-07-13T03:01:41.000+02:00</time>
      </trkpt>
      <trkpt lat="43.28716" lon="-3.79582">
        <ele>283.8</ele>
        <time>2023-07-13T03:01:46.000+02:00</time>
      </trkpt>
      <trkpt lat="43.28721" lon="-3.79582">
        <ele>283.3</ele>
        <time>2023-07-13T03:01:47.000+02:00</time>
      </trkpt>
      <trkpt lat="43.28725" lon="-3.79584">
        <ele>282.5</ele>
        <time>2023-07-13T03:01:48.000+02:00</time>
      </trkpt>
      <trkpt lat="43.28736" lon="-3.79592">
        <ele>280.8</ele>
        <time>2023-07-13T03:01:52.000+02:00</time>
      </trkpt>
      <trkpt lat="43.28745" lon="-3.79602">
        <ele>278.5</ele>
        <time>2023-07-13T03:01:56.000+02:00</time>
      </trkpt>
      <trkpt lat="43.2875" lon="-3.79608">
        <ele>277.3</ele>
        <time>2023-07-13T03:01:58.000+02:00</time>
      </trkpt>
      <trkpt lat="43.28753" lon="-3.79616">
        <ele>275.8</ele>
        <time>2023-07-13T03:02:00.000+02:00</time>
      </trkpt>
      <trkpt lat="43.28755" lon="-3.79622">
        <ele>274.8</ele>
        <time>2023-07-13T03:02:01.000+02:00</time>
      </trkpt>
      <trkpt lat="43.28758" lon="-3.79653">
        <ele>270.8</ele>
        <time>2023-07-13T03:02:08.000+02:00</time>
      </trkpt>
      <trkpt lat="43.28765" lon="-3.7968">
        <ele>266.5</ele>
        <time>2023-07-13T03:02:14.000+02:00</time>
      </trkpt>
      <trkpt lat="43.28771" lon="-3.79709">
        <ele>263</ele>
        <time>2023-07-13T03:02:21.000+02:00</time>
      </trkpt>
      <trkpt lat="43.28778" lon="-3.79763">
        <ele>257</ele>
        <time>2023-07-13T03:02:33.000+02:00</time>
      </trkpt>
      <trkpt lat="43.28765" lon="-3.79823">
        <ele>252.3</ele>
        <time>2023-07-13T03:02:47.000+02:00</time>
      </trkpt>
      <trkpt lat="43.28761" lon="-3.79835">
        <ele>251.3</ele>
        <time>2023-07-13T03:02:50.000+02:00</time>
      </trkpt>
      <trkpt lat="43.2875" lon="-3.79863">
        <ele>249</ele>
        <time>2023-07-13T03:02:57.000+02:00</time>
      </trkpt>
      <trkpt lat="43.28747" lon="-3.79873">
        <ele>248.3</ele>
        <time>2023-07-13T03:02:59.000+02:00</time>
      </trkpt>
      <trkpt lat="43.28741" lon="-3.79897">
        <ele>246.3</ele>
        <time>2023-07-13T03:03:05.000+02:00</time>
      </trkpt>
      <trkpt lat="43.28738" lon="-3.79906">
        <ele>245.5</ele>
        <time>2023-07-13T03:03:07.000+02:00</time>
      </trkpt>
      <trkpt lat="43.28733" lon="-3.79917">
        <ele>245</ele>
        <time>2023-07-13T03:03:10.000+02:00</time>
      </trkpt>
      <trkpt lat="43.28689" lon="-3.80004">
        <ele>248</ele>
        <time>2023-07-13T03:03:33.000+02:00</time>
      </trkpt>
      <trkpt lat="43.28684" lon="-3.80018">
        <ele>248.3</ele>
        <time>2023-07-13T03:03:37.000+02:00</time>
      </trkpt>
      <trkpt lat="43.28681" lon="-3.80025">
        <ele>248</ele>
        <time>2023-07-13T03:03:39.000+02:00</time>
      </trkpt>
      <trkpt lat="43.2868" lon="-3.80036">
        <ele>247.3</ele>
        <time>2023-07-13T03:03:41.000+02:00</time>
      </trkpt>
      <trkpt lat="43.2868" lon="-3.80047">
        <ele>246.3</ele>
        <time>2023-07-13T03:03:44.000+02:00</time>
      </trkpt>
      <trkpt lat="43.28681" lon="-3.80065">
        <ele>244.5</ele>
        <time>2023-07-13T03:03:48.000+02:00</time>
      </trkpt>
      <trkpt lat="43.28683" lon="-3.80078">
        <ele>242.8</ele>
        <time>2023-07-13T03:03:50.000+02:00</time>
      </trkpt>
      <trkpt lat="43.28691" lon="-3.8011">
        <ele>238.8</ele>
        <time>2023-07-13T03:03:58.000+02:00</time>
      </trkpt>
      <trkpt lat="43.28692" lon="-3.80117">
        <ele>238.3</ele>
        <time>2023-07-13T03:03:59.000+02:00</time>
      </trkpt>
      <trkpt lat="43.28691" lon="-3.80124">
        <ele>238</ele>
        <time>2023-07-13T03:04:01.000+02:00</time>
      </trkpt>
      <trkpt lat="43.28688" lon="-3.8013">
        <ele>238</ele>
        <time>2023-07-13T03:04:03.000+02:00</time>
      </trkpt>
      <trkpt lat="43.28687" lon="-3.80132">
        <ele>238</ele>
        <time>2023-07-13T03:04:03.000+02:00</time>
      </trkpt>
      <trkpt lat="43.28683" lon="-3.80135">
        <ele>238.5</ele>
        <time>2023-07-13T03:04:04.000+02:00</time>
      </trkpt>
      <trkpt lat="43.2866" lon="-3.80141">
        <ele>241.3</ele>
        <time>2023-07-13T03:04:12.000+02:00</time>
      </trkpt>
      <trkpt lat="43.2865" lon="-3.80144">
        <ele>241.3</ele>
        <time>2023-07-13T03:04:15.000+02:00</time>
      </trkpt>
      <trkpt lat="43.28642" lon="-3.80146">
        <ele>241.3</ele>
        <time>2023-07-13T03:04:17.000+02:00</time>
      </trkpt>
      <trkpt lat="43.28636" lon="-3.80145">
        <ele>241.5</ele>
        <time>2023-07-13T03:04:19.000+02:00</time>
      </trkpt>
      <trkpt lat="43.28633" lon="-3.80143">
        <ele>241.5</ele>
        <time>2023-07-13T03:04:20.000+02:00</time>
      </trkpt>
      <trkpt lat="43.28628" lon="-3.80141">
        <ele>241.8</ele>
        <time>2023-07-13T03:04:22.000+02:00</time>
      </trkpt>
      <trkpt lat="43.28619" lon="-3.80134">
        <ele>242</ele>
        <time>2023-07-13T03:04:25.000+02:00</time>
      </trkpt>
      <trkpt lat="43.28605" lon="-3.80119">
        <ele>242.5</ele>
        <time>2023-07-13T03:04:30.000+02:00</time>
      </trkpt>
      <trkpt lat="43.28584" lon="-3.80095">
        <ele>242</ele>
        <time>2023-07-13T03:04:38.000+02:00</time>
      </trkpt>
      <trkpt lat="43.28582" lon="-3.80093">
        <ele>242</ele>
        <time>2023-07-13T03:04:39.000+02:00</time>
      </trkpt>
      <trkpt lat="43.28576" lon="-3.8009">
        <ele>241.8</ele>
        <time>2023-07-13T03:04:41.000+02:00</time>
      </trkpt>
      <trkpt lat="43.28563" lon="-3.80088">
        <ele>241.3</ele>
        <time>2023-07-13T03:04:45.000+02:00</time>
      </trkpt>
      <trkpt lat="43.28554" lon="-3.80089">
        <ele>241</ele>
        <time>2023-07-13T03:04:48.000+02:00</time>
      </trkpt>
      <trkpt lat="43.28529" lon="-3.80093">
        <ele>240.3</ele>
        <time>2023-07-13T03:04:55.000+02:00</time>
      </trkpt>
      <trkpt lat="43.2852" lon="-3.80097">
        <ele>240</ele>
        <time>2023-07-13T03:04:58.000+02:00</time>
      </trkpt>
      <trkpt lat="43.28513" lon="-3.80102">
        <ele>240</ele>
        <time>2023-07-13T03:05:01.000+02:00</time>
      </trkpt>
      <trkpt lat="43.28498" lon="-3.80115">
        <ele>240</ele>
        <time>2023-07-13T03:05:06.000+02:00</time>
      </trkpt>
      <trkpt lat="43.28491" lon="-3.80124">
        <ele>240</ele>
        <time>2023-07-13T03:05:09.000+02:00</time>
      </trkpt>
      <trkpt lat="43.28488" lon="-3.80128">
        <ele>240</ele>
        <time>2023-07-13T03:05:10.000+02:00</time>
      </trkpt>
      <trkpt lat="43.28475" lon="-3.80154">
        <ele>240.5</ele>
        <time>2023-07-13T03:05:17.000+02:00</time>
      </trkpt>
      <trkpt lat="43.2847" lon="-3.80161">
        <ele>240.5</ele>
        <time>2023-07-13T03:05:19.000+02:00</time>
      </trkpt>
      <trkpt lat="43.28466" lon="-3.80163">
        <ele>240.5</ele>
        <time>2023-07-13T03:05:21.000+02:00</time>
      </trkpt>
      <trkpt lat="43.28447" lon="-3.80175">
        <ele>240.8</ele>
        <time>2023-07-13T03:05:27.000+02:00</time>
      </trkpt>
      <trkpt lat="43.28415" lon="-3.80196">
        <ele>241.8</ele>
        <time>2023-07-13T03:05:38.000+02:00</time>
      </trkpt>
      <trkpt lat="43.28404" lon="-3.80203">
        <ele>242</ele>
        <time>2023-07-13T03:05:41.000+02:00</time>
      </trkpt>
      <trkpt lat="43.28391" lon="-3.80208">
        <ele>242</ele>
        <time>2023-07-13T03:05:46.000+02:00</time>
      </trkpt>
      <trkpt lat="43.28349" lon="-3.8022">
        <ele>241</ele>
        <time>2023-07-13T03:05:59.000+02:00</time>
      </trkpt>
      <trkpt lat="43.28334" lon="-3.80223">
        <ele>240.3</ele>
        <time>2023-07-13T03:06:03.000+02:00</time>
      </trkpt>
      <trkpt lat="43.28309" lon="-3.80225">
        <ele>240.5</ele>
        <time>2023-07-13T03:06:11.000+02:00</time>
      </trkpt>
      <trkpt lat="43.28306" lon="-3.80227">
        <ele>240.5</ele>
        <time>2023-07-13T03:06:12.000+02:00</time>
      </trkpt>
      <trkpt lat="43.28302" lon="-3.80232">
        <ele>240.5</ele>
        <time>2023-07-13T03:06:13.000+02:00</time>
      </trkpt>
      <trkpt lat="43.28286" lon="-3.80265">
        <ele>241</ele>
        <time>2023-07-13T03:06:22.000+02:00</time>
      </trkpt>
      <trkpt lat="43.28281" lon="-3.80272">
        <ele>241</ele>
        <time>2023-07-13T03:06:24.000+02:00</time>
      </trkpt>
      <trkpt lat="43.28271" lon="-3.80281">
        <ele>241.3</ele>
        <time>2023-07-13T03:06:28.000+02:00</time>
      </trkpt>
      <trkpt lat="43.28239" lon="-3.80308">
        <ele>241</ele>
        <time>2023-07-13T03:06:40.000+02:00</time>
      </trkpt>
      <trkpt lat="43.28219" lon="-3.80326">
        <ele>240.3</ele>
        <time>2023-07-13T03:06:47.000+02:00</time>
      </trkpt>
      <trkpt lat="43.28217" lon="-3.80327">
        <ele>240.3</ele>
        <time>2023-07-13T03:06:48.000+02:00</time>
      </trkpt>
      <trkpt lat="43.28209" lon="-3.80338">
        <ele>239.8</ele>
        <time>2023-07-13T03:06:51.000+02:00</time>
      </trkpt>
      <trkpt lat="43.28206" lon="-3.80345">
        <ele>239.3</ele>
        <time>2023-07-13T03:06:53.000+02:00</time>
      </trkpt>
      <trkpt lat="43.28204" lon="-3.80352">
        <ele>238.8</ele>
        <time>2023-07-13T03:06:55.000+02:00</time>
      </trkpt>
      <trkpt lat="43.2821" lon="-3.80355">
        <ele>239</ele>
        <time>2023-07-13T03:06:57.000+02:00</time>
      </trkpt>
      <trkpt lat="43.28229" lon="-3.80366">
        <ele>239.5</ele>
        <time>2023-07-13T03:07:04.000+02:00</time>
      </trkpt>
      <trkpt lat="43.28241" lon="-3.80371">
        <ele>240</ele>
        <time>2023-07-13T03:07:08.000+02:00</time>
      </trkpt>
      <trkpt lat="43.28259" lon="-3.80378">
        <ele>241</ele>
        <time>2023-07-13T03:07:14.000+02:00</time>
      </trkpt>
      <trkpt lat="43.2827" lon="-3.80385">
        <ele>241.8</ele>
        <time>2023-07-13T03:07:18.000+02:00</time>
      </trkpt>
      <trkpt lat="43.28272" lon="-3.80387">
        <ele>241.8</ele>
        <time>2023-07-13T03:07:19.000+02:00</time>
      </trkpt>
      <trkpt lat="43.28277" lon="-3.80394">
        <ele>242</ele>
        <time>2023-07-13T03:07:21.000+02:00</time>
      </trkpt>
      <trkpt lat="43.28281" lon="-3.80406">
        <ele>242.5</ele>
        <time>2023-07-13T03:07:24.000+02:00</time>
      </trkpt>
      <trkpt lat="43.28283" lon="-3.80415">
        <ele>242.5</ele>
        <time>2023-07-13T03:07:26.000+02:00</time>
      </trkpt>
      <trkpt lat="43.28283" lon="-3.80427">
        <ele>242</ele>
        <time>2023-07-13T03:07:29.000+02:00</time>
      </trkpt>
      <trkpt lat="43.28279" lon="-3.80455">
        <ele>240.8</ele>
        <time>2023-07-13T03:07:36.000+02:00</time>
      </trkpt>
      <trkpt lat="43.28278" lon="-3.80467">
        <ele>240.3</ele>
        <time>2023-07-13T03:07:39.000+02:00</time>
      </trkpt>
      <trkpt lat="43.28278" lon="-3.80494">
        <ele>239.5</ele>
        <time>2023-07-13T03:07:45.000+02:00</time>
      </trkpt>
      <trkpt lat="43.2828" lon="-3.80504">
        <ele>239.3</ele>
        <time>2023-07-13T03:07:47.000+02:00</time>
      </trkpt>
      <trkpt lat="43.28281" lon="-3.80509">
        <ele>239</ele>
        <time>2023-07-13T03:07:49.000+02:00</time>
      </trkpt>
      <trkpt lat="43.28288" lon="-3.8053">
        <ele>238.3</ele>
        <time>2023-07-13T03:07:54.000+02:00</time>
      </trkpt>
      <trkpt lat="43.28292" lon="-3.80537">
        <ele>238</ele>
        <time>2023-07-13T03:07:56.000+02:00</time>
      </trkpt>
      <trkpt lat="43.28299" lon="-3.8055">
        <ele>237.8</ele>
        <time>2023-07-13T03:08:00.000+02:00</time>
      </trkpt>
      <trkpt lat="43.28306" lon="-3.8056">
        <ele>237.5</ele>
        <time>2023-07-13T03:08:03.000+02:00</time>
      </trkpt>
      <trkpt lat="43.28334" lon="-3.80593">
        <ele>237.3</ele>
        <time>2023-07-13T03:08:15.000+02:00</time>
      </trkpt>
      <trkpt lat="43.2835" lon="-3.80614">
        <ele>238.8</ele>
        <time>2023-07-13T03:08:22.000+02:00</time>
      </trkpt>
      <trkpt lat="43.28371" lon="-3.80645">
        <ele>239.8</ele>
        <time>2023-07-13T03:08:32.000+02:00</time>
      </trkpt>
      <trkpt lat="43.2838" lon="-3.80662">
        <ele>239.5</ele>
        <time>2023-07-13T03:08:37.000+02:00</time>
      </trkpt>
      <trkpt lat="43.28384" lon="-3.80677">
        <ele>239.3</ele>
        <time>2023-07-13T03:08:41.000+02:00</time>
      </trkpt>
      <trkpt lat="43.2839" lon="-3.80718">
        <ele>237.5</ele>
        <time>2023-07-13T03:08:51.000+02:00</time>
      </trkpt>
      <trkpt lat="43.28395" lon="-3.8074">
        <ele>236.5</ele>
        <time>2023-07-13T03:08:56.000+02:00</time>
      </trkpt>
      <trkpt lat="43.28402" lon="-3.80761">
        <ele>235.8</ele>
        <time>2023-07-13T03:09:02.000+02:00</time>
      </trkpt>
      <trkpt lat="43.28411" lon="-3.80787">
        <ele>235.3</ele>
        <time>2023-07-13T03:09:08.000+02:00</time>
      </trkpt>
      <trkpt lat="43.28417" lon="-3.808">
        <ele>234.8</ele>
        <time>2023-07-13T03:09:12.000+02:00</time>
      </trkpt>
      <trkpt lat="43.28426" lon="-3.80817">
        <ele>235</ele>
        <time>2023-07-13T03:09:17.000+02:00</time>
      </trkpt>
      <trkpt lat="43.28436" lon="-3.80831">
        <ele>235</ele>
        <time>2023-07-13T03:09:22.000+02:00</time>
      </trkpt>
      <trkpt lat="43.28442" lon="-3.80839">
        <ele>235.5</ele>
        <time>2023-07-13T03:09:24.000+02:00</time>
      </trkpt>
      <trkpt lat="43.28475" lon="-3.80888">
        <ele>238.8</ele>
        <time>2023-07-13T03:09:40.000+02:00</time>
      </trkpt>
      <trkpt lat="43.28481" lon="-3.80899">
        <ele>239.8</ele>
        <time>2023-07-13T03:09:43.000+02:00</time>
      </trkpt>
      <trkpt lat="43.28484" lon="-3.80907">
        <ele>240.3</ele>
        <time>2023-07-13T03:09:45.000+02:00</time>
      </trkpt>
      <trkpt lat="43.28486" lon="-3.80915">
        <ele>240.5</ele>
        <time>2023-07-13T03:09:47.000+02:00</time>
      </trkpt>
      <trkpt lat="43.28488" lon="-3.80939">
        <ele>240</ele>
        <time>2023-07-13T03:09:53.000+02:00</time>
      </trkpt>
      <trkpt lat="43.28489" lon="-3.80945">
        <ele>240</ele>
        <time>2023-07-13T03:09:55.000+02:00</time>
      </trkpt>
      <trkpt lat="43.28492" lon="-3.80951">
        <ele>240.3</ele>
        <time>2023-07-13T03:09:56.000+02:00</time>
      </trkpt>
      <trkpt lat="43.28569" lon="-3.81061">
        <ele>246.5</ele>
        <time>2023-07-13T03:10:32.000+02:00</time>
      </trkpt>
      <trkpt lat="43.2858" lon="-3.81077">
        <ele>247</ele>
        <time>2023-07-13T03:10:38.000+02:00</time>
      </trkpt>
      <trkpt lat="43.28599" lon="-3.81099">
        <ele>245.8</ele>
        <time>2023-07-13T03:10:45.000+02:00</time>
      </trkpt>
      <trkpt lat="43.28608" lon="-3.81106">
        <ele>245.5</ele>
        <time>2023-07-13T03:10:49.000+02:00</time>
      </trkpt>
      <trkpt lat="43.28623" lon="-3.81115">
        <ele>245.8</ele>
        <time>2023-07-13T03:10:54.000+02:00</time>
      </trkpt>
      <trkpt lat="43.28659" lon="-3.81133">
        <ele>247.3</ele>
        <time>2023-07-13T03:11:07.000+02:00</time>
      </trkpt>
      <trkpt lat="43.28674" lon="-3.81143">
        <ele>247.5</ele>
        <time>2023-07-13T03:11:12.000+02:00</time>
      </trkpt>
      <trkpt lat="43.28687" lon="-3.81154">
        <ele>247.3</ele>
        <time>2023-07-13T03:11:17.000+02:00</time>
      </trkpt>
      <trkpt lat="43.28721" lon="-3.8119">
        <ele>247</ele>
        <time>2023-07-13T03:11:31.000+02:00</time>
      </trkpt>
      <trkpt lat="43.28734" lon="-3.81202">
        <ele>247.3</ele>
        <time>2023-07-13T03:11:36.000+02:00</time>
      </trkpt>
      <trkpt lat="43.28744" lon="-3.81209">
        <ele>247.8</ele>
        <time>2023-07-13T03:11:39.000+02:00</time>
      </trkpt>
      <trkpt lat="43.28757" lon="-3.81216">
        <ele>248.3</ele>
        <time>2023-07-13T03:11:44.000+02:00</time>
      </trkpt>
      <trkpt lat="43.28791" lon="-3.81231">
        <ele>250</ele>
        <time>2023-07-13T03:11:56.000+02:00</time>
      </trkpt>
      <trkpt lat="43.288" lon="-3.81238">
        <ele>250.8</ele>
        <time>2023-07-13T03:11:59.000+02:00</time>
      </trkpt>
      <trkpt lat="43.28806" lon="-3.81245">
        <ele>251.3</ele>
        <time>2023-07-13T03:12:02.000+02:00</time>
      </trkpt>
      <trkpt lat="43.28812" lon="-3.8125">
        <ele>251.8</ele>
        <time>2023-07-13T03:12:04.000+02:00</time>
      </trkpt>
      <trkpt lat="43.28818" lon="-3.8126">
        <ele>252.3</ele>
        <time>2023-07-13T03:12:07.000+02:00</time>
      </trkpt>
      <trkpt lat="43.28833" lon="-3.81297">
        <ele>254</ele>
        <time>2023-07-13T03:12:17.000+02:00</time>
      </trkpt>
      <trkpt lat="43.28845" lon="-3.81317">
        <ele>255</ele>
        <time>2023-07-13T03:12:23.000+02:00</time>
      </trkpt>
      <trkpt lat="43.2885" lon="-3.81326">
        <ele>255.3</ele>
        <time>2023-07-13T03:12:26.000+02:00</time>
      </trkpt>
      <trkpt lat="43.28863" lon="-3.81343">
        <ele>256.8</ele>
        <time>2023-07-13T03:12:31.000+02:00</time>
      </trkpt>
      <trkpt lat="43.28889" lon="-3.81373">
        <ele>258.5</ele>
        <time>2023-07-13T03:12:42.000+02:00</time>
      </trkpt>
      <trkpt lat="43.28897" lon="-3.81384">
        <ele>258.5</ele>
        <time>2023-07-13T03:12:46.000+02:00</time>
      </trkpt>
      <trkpt lat="43.289" lon="-3.8139">
        <ele>258.5</ele>
        <time>2023-07-13T03:12:48.000+02:00</time>
      </trkpt>
      <trkpt lat="43.2891" lon="-3.81415">
        <ele>257.3</ele>
        <time>2023-07-13T03:12:54.000+02:00</time>
      </trkpt>
      <trkpt lat="43.28918" lon="-3.81441">
        <ele>255.8</ele>
        <time>2023-07-13T03:13:01.000+02:00</time>
      </trkpt>
      <trkpt lat="43.28924" lon="-3.81464">
        <ele>253.8</ele>
        <time>2023-07-13T03:13:07.000+02:00</time>
      </trkpt>
      <trkpt lat="43.28931" lon="-3.81501">
        <ele>251.8</ele>
        <time>2023-07-13T03:13:16.000+02:00</time>
      </trkpt>
      <trkpt lat="43.28934" lon="-3.81508">
        <ele>250.5</ele>
        <time>2023-07-13T03:13:18.000+02:00</time>
      </trkpt>
      <trkpt lat="43.28938" lon="-3.81512">
        <ele>249.5</ele>
        <time>2023-07-13T03:13:19.000+02:00</time>
      </trkpt>
      <trkpt lat="43.28943" lon="-3.81512">
        <ele>248.3</ele>
        <time>2023-07-13T03:13:21.000+02:00</time>
      </trkpt>
      <trkpt lat="43.28948" lon="-3.81511">
        <ele>247.3</ele>
        <time>2023-07-13T03:13:23.000+02:00</time>
      </trkpt>
      <trkpt lat="43.28949" lon="-3.81509">
        <ele>247</ele>
        <time>2023-07-13T03:13:23.000+02:00</time>
      </trkpt>
      <trkpt lat="43.28952" lon="-3.81504">
        <ele>246.5</ele>
        <time>2023-07-13T03:13:25.000+02:00</time>
      </trkpt>
      <trkpt lat="43.28954" lon="-3.81497">
        <ele>246.3</ele>
        <time>2023-07-13T03:13:26.000+02:00</time>
      </trkpt>
      <trkpt lat="43.28954" lon="-3.81484">
        <ele>246</ele>
        <time>2023-07-13T03:13:30.000+02:00</time>
      </trkpt>
      <trkpt lat="43.28953" lon="-3.81429">
        <ele>245.8</ele>
        <time>2023-07-13T03:13:42.000+02:00</time>
      </trkpt>
      <trkpt lat="43.28954" lon="-3.81419">
        <ele>245.3</ele>
        <time>2023-07-13T03:13:45.000+02:00</time>
      </trkpt>
      <trkpt lat="43.28958" lon="-3.81406">
        <ele>244.8</ele>
        <time>2023-07-13T03:13:48.000+02:00</time>
      </trkpt>
      <trkpt lat="43.28973" lon="-3.81365">
        <ele>242.8</ele>
        <time>2023-07-13T03:13:59.000+02:00</time>
      </trkpt>
      <trkpt lat="43.28976" lon="-3.81357">
        <ele>242.3</ele>
        <time>2023-07-13T03:14:01.000+02:00</time>
      </trkpt>
      <trkpt lat="43.28979" lon="-3.81352">
        <ele>241.8</ele>
        <time>2023-07-13T03:14:03.000+02:00</time>
      </trkpt>
      <trkpt lat="43.28982" lon="-3.81349">
        <ele>241</ele>
        <time>2023-07-13T03:14:04.000+02:00</time>
      </trkpt>
      <trkpt lat="43.28985" lon="-3.81347">
        <ele>240.3</ele>
        <time>2023-07-13T03:14:05.000+02:00</time>
      </trkpt>
      <trkpt lat="43.28989" lon="-3.81347">
        <ele>239.3</ele>
        <time>2023-07-13T03:14:06.000+02:00</time>
      </trkpt>
      <trkpt lat="43.28992" lon="-3.81348">
        <ele>238.3</ele>
        <time>2023-07-13T03:14:07.000+02:00</time>
      </trkpt>
      <trkpt lat="43.28995" lon="-3.8135">
        <ele>237.3</ele>
        <time>2023-07-13T03:14:08.000+02:00</time>
      </trkpt>
      <trkpt lat="43.28998" lon="-3.81353">
        <ele>236.3</ele>
        <time>2023-07-13T03:14:09.000+02:00</time>
      </trkpt>
      <trkpt lat="43.28999" lon="-3.81356">
        <ele>235.5</ele>
        <time>2023-07-13T03:14:10.000+02:00</time>
      </trkpt>
      <trkpt lat="43.29" lon="-3.8136">
        <ele>235</ele>
        <time>2023-07-13T03:14:11.000+02:00</time>
      </trkpt>
      <trkpt lat="43.29" lon="-3.81364">
        <ele>234.8</ele>
        <time>2023-07-13T03:14:12.000+02:00</time>
      </trkpt>
      <trkpt lat="43.28999" lon="-3.8137">
        <ele>234.8</ele>
        <time>2023-07-13T03:14:14.000+02:00</time>
      </trkpt>
      <trkpt lat="43.28997" lon="-3.81376">
        <ele>234.8</ele>
        <time>2023-07-13T03:14:15.000+02:00</time>
      </trkpt>
      <trkpt lat="43.28987" lon="-3.81401">
        <ele>236</ele>
        <time>2023-07-13T03:14:22.000+02:00</time>
      </trkpt>
      <trkpt lat="43.28985" lon="-3.81414">
        <ele>235.5</ele>
        <time>2023-07-13T03:14:25.000+02:00</time>
      </trkpt>
      <trkpt lat="43.28986" lon="-3.81419">
        <ele>235.5</ele>
        <time>2023-07-13T03:14:26.000+02:00</time>
      </trkpt>
      <trkpt lat="43.28989" lon="-3.81431">
        <ele>235.3</ele>
        <time>2023-07-13T03:14:29.000+02:00</time>
      </trkpt>
      <trkpt lat="43.29001" lon="-3.81461">
        <ele>233.5</ele>
        <time>2023-07-13T03:14:37.000+02:00</time>
      </trkpt>
      <trkpt lat="43.29003" lon="-3.81469">
        <ele>233</ele>
        <time>2023-07-13T03:14:39.000+02:00</time>
      </trkpt>
      <trkpt lat="43.29005" lon="-3.81477">
        <ele>233.3</ele>
        <time>2023-07-13T03:14:41.000+02:00</time>
      </trkpt>
      <trkpt lat="43.29006" lon="-3.81484">
        <ele>233.3</ele>
        <time>2023-07-13T03:14:43.000+02:00</time>
      </trkpt>
      <trkpt lat="43.29007" lon="-3.81516">
        <ele>233.8</ele>
        <time>2023-07-13T03:14:51.000+02:00</time>
      </trkpt>
      <trkpt lat="43.29009" lon="-3.8153">
        <ele>233.3</ele>
        <time>2023-07-13T03:14:54.000+02:00</time>
      </trkpt>
      <trkpt lat="43.2901" lon="-3.81536">
        <ele>232.8</ele>
        <time>2023-07-13T03:14:55.000+02:00</time>
      </trkpt>
      <trkpt lat="43.29013" lon="-3.81542">
        <ele>232</ele>
        <time>2023-07-13T03:14:57.000+02:00</time>
      </trkpt>
      <trkpt lat="43.29052" lon="-3.81612">
        <ele>223.5</ele>
        <time>2023-07-13T03:15:18.000+02:00</time>
      </trkpt>
      <trkpt lat="43.29056" lon="-3.81622">
        <ele>222.3</ele>
        <time>2023-07-13T03:15:21.000+02:00</time>
      </trkpt>
      <trkpt lat="43.29064" lon="-3.8164">
        <ele>220.5</ele>
        <time>2023-07-13T03:15:25.000+02:00</time>
      </trkpt>
      <trkpt lat="43.29075" lon="-3.81678">
        <ele>218.3</ele>
        <time>2023-07-13T03:15:35.000+02:00</time>
      </trkpt>
      <trkpt lat="43.29078" lon="-3.81686">
        <ele>218</ele>
        <time>2023-07-13T03:15:37.000+02:00</time>
      </trkpt>
      <trkpt lat="43.29082" lon="-3.81691">
        <ele>217.8</ele>
        <time>2023-07-13T03:15:39.000+02:00</time>
      </trkpt>
      <trkpt lat="43.29084" lon="-3.81692">
        <ele>217.3</ele>
        <time>2023-07-13T03:15:40.000+02:00</time>
      </trkpt>
      <trkpt lat="43.2909" lon="-3.81694">
        <ele>216.3</ele>
        <time>2023-07-13T03:15:42.000+02:00</time>
      </trkpt>
      <trkpt lat="43.29093" lon="-3.81693">
        <ele>215.8</ele>
        <time>2023-07-13T03:15:43.000+02:00</time>
      </trkpt>
      <trkpt lat="43.29096" lon="-3.81692">
        <ele>215</ele>
        <time>2023-07-13T03:15:44.000+02:00</time>
      </trkpt>
      <trkpt lat="43.29098" lon="-3.81689">
        <ele>214.5</ele>
        <time>2023-07-13T03:15:45.000+02:00</time>
      </trkpt>
      <trkpt lat="43.29101" lon="-3.81685">
        <ele>214</ele>
        <time>2023-07-13T03:15:46.000+02:00</time>
      </trkpt>
      <trkpt lat="43.29107" lon="-3.8167">
        <ele>212.8</ele>
        <time>2023-07-13T03:15:50.000+02:00</time>
      </trkpt>
      <trkpt lat="43.29113" lon="-3.81651">
        <ele>212</ele>
        <time>2023-07-13T03:15:55.000+02:00</time>
      </trkpt>
      <trkpt lat="43.29115" lon="-3.81644">
        <ele>212</ele>
        <time>2023-07-13T03:15:57.000+02:00</time>
      </trkpt>
      <trkpt lat="43.29117" lon="-3.81633">
        <ele>212</ele>
        <time>2023-07-13T03:15:59.000+02:00</time>
      </trkpt>
      <trkpt lat="43.29114" lon="-3.81592">
        <ele>213.8</ele>
        <time>2023-07-13T03:16:09.000+02:00</time>
      </trkpt>
      <trkpt lat="43.29114" lon="-3.81575">
        <ele>213.5</ele>
        <time>2023-07-13T03:16:13.000+02:00</time>
      </trkpt>
      <trkpt lat="43.29117" lon="-3.81563">
        <ele>212.5</ele>
        <time>2023-07-13T03:16:16.000+02:00</time>
      </trkpt>
      <trkpt lat="43.2912" lon="-3.81558">
        <ele>212</ele>
        <time>2023-07-13T03:16:17.000+02:00</time>
      </trkpt>
      <trkpt lat="43.29123" lon="-3.81554">
        <ele>211.3</ele>
        <time>2023-07-13T03:16:19.000+02:00</time>
      </trkpt>
      <trkpt lat="43.29125" lon="-3.81552">
        <ele>210.8</ele>
        <time>2023-07-13T03:16:20.000+02:00</time>
      </trkpt>
      <trkpt lat="43.29129" lon="-3.81551">
        <ele>210.3</ele>
        <time>2023-07-13T03:16:21.000+02:00</time>
      </trkpt>
      <trkpt lat="43.29136" lon="-3.8155">
        <ele>209.3</ele>
        <time>2023-07-13T03:16:23.000+02:00</time>
      </trkpt>
      <trkpt lat="43.2914" lon="-3.81552">
        <ele>208.8</ele>
        <time>2023-07-13T03:16:24.000+02:00</time>
      </trkpt>
      <trkpt lat="43.29142" lon="-3.81554">
        <ele>208.5</ele>
        <time>2023-07-13T03:16:25.000+02:00</time>
      </trkpt>
      <trkpt lat="43.29146" lon="-3.8156">
        <ele>208</ele>
        <time>2023-07-13T03:16:27.000+02:00</time>
      </trkpt>
      <trkpt lat="43.29154" lon="-3.81581">
        <ele>207.8</ele>
        <time>2023-07-13T03:16:33.000+02:00</time>
      </trkpt>
      <trkpt lat="43.29175" lon="-3.81644">
        <ele>202</ele>
        <time>2023-07-13T03:16:49.000+02:00</time>
      </trkpt>
      <trkpt lat="43.29178" lon="-3.81656">
        <ele>201.3</ele>
        <time>2023-07-13T03:16:52.000+02:00</time>
      </trkpt>
      <trkpt lat="43.29179" lon="-3.81665">
        <ele>200.8</ele>
        <time>2023-07-13T03:16:54.000+02:00</time>
      </trkpt>
      <trkpt lat="43.29181" lon="-3.81685">
        <ele>200</ele>
        <time>2023-07-13T03:16:59.000+02:00</time>
      </trkpt>
      <trkpt lat="43.29182" lon="-3.81703">
        <ele>199.8</ele>
        <time>2023-07-13T03:17:03.000+02:00</time>
      </trkpt>
      <trkpt lat="43.29181" lon="-3.81733">
        <ele>199.3</ele>
        <time>2023-07-13T03:17:10.000+02:00</time>
      </trkpt>
      <trkpt lat="43.29181" lon="-3.81744">
        <ele>199</ele>
        <time>2023-07-13T03:17:13.000+02:00</time>
      </trkpt>
      <trkpt lat="43.29183" lon="-3.81749">
        <ele>198.8</ele>
        <time>2023-07-13T03:17:14.000+02:00</time>
      </trkpt>
      <trkpt lat="43.29185" lon="-3.81754">
        <ele>198.8</ele>
        <time>2023-07-13T03:17:15.000+02:00</time>
      </trkpt>
      <trkpt lat="43.2919" lon="-3.81762">
        <ele>198.3</ele>
        <time>2023-07-13T03:17:18.000+02:00</time>
      </trkpt>
      <trkpt lat="43.29217" lon="-3.81785">
        <ele>195.3</ele>
        <time>2023-07-13T03:17:28.000+02:00</time>
      </trkpt>
      <trkpt lat="43.29221" lon="-3.8179">
        <ele>195</ele>
        <time>2023-07-13T03:17:30.000+02:00</time>
      </trkpt>
      <trkpt lat="43.29229" lon="-3.81805">
        <ele>194</ele>
        <time>2023-07-13T03:17:34.000+02:00</time>
      </trkpt>
      <trkpt lat="43.29238" lon="-3.81819">
        <ele>192.8</ele>
        <time>2023-07-13T03:17:39.000+02:00</time>
      </trkpt>
      <trkpt lat="43.29244" lon="-3.81827">
        <ele>192</ele>
        <time>2023-07-13T03:17:42.000+02:00</time>
      </trkpt>
      <trkpt lat="43.2925" lon="-3.81833">
        <ele>190.8</ele>
        <time>2023-07-13T03:17:44.000+02:00</time>
      </trkpt>
      <trkpt lat="43.29259" lon="-3.8184">
        <ele>189.3</ele>
        <time>2023-07-13T03:17:47.000+02:00</time>
      </trkpt>
      <trkpt lat="43.29268" lon="-3.81849">
        <ele>187.5</ele>
        <time>2023-07-13T03:17:51.000+02:00</time>
      </trkpt>
      <trkpt lat="43.29279" lon="-3.81863">
        <ele>185.8</ele>
        <time>2023-07-13T03:17:56.000+02:00</time>
      </trkpt>
      <trkpt lat="43.29285" lon="-3.81875">
        <ele>185</ele>
        <time>2023-07-13T03:17:59.000+02:00</time>
      </trkpt>
      <trkpt lat="43.2929" lon="-3.81885">
        <ele>184.5</ele>
        <time>2023-07-13T03:18:02.000+02:00</time>
      </trkpt>
      <trkpt lat="43.29299" lon="-3.81914">
        <ele>184</ele>
        <time>2023-07-13T03:18:10.000+02:00</time>
      </trkpt>
      <trkpt lat="43.29331" lon="-3.81982">
        <ele>177.5</ele>
        <time>2023-07-13T03:18:29.000+02:00</time>
      </trkpt>
      <trkpt lat="43.29334" lon="-3.81991">
        <ele>177</ele>
        <time>2023-07-13T03:18:31.000+02:00</time>
      </trkpt>
      <trkpt lat="43.29335" lon="-3.82">
        <ele>176.5</ele>
        <time>2023-07-13T03:18:33.000+02:00</time>
      </trkpt>
      <trkpt lat="43.29336" lon="-3.82012">
        <ele>175.5</ele>
        <time>2023-07-13T03:18:36.000+02:00</time>
      </trkpt>
      <trkpt lat="43.29335" lon="-3.82029">
        <ele>174.5</ele>
        <time>2023-07-13T03:18:40.000+02:00</time>
      </trkpt>
      <trkpt lat="43.29334" lon="-3.82042">
        <ele>173.8</ele>
        <time>2023-07-13T03:18:43.000+02:00</time>
      </trkpt>
      <trkpt lat="43.29332" lon="-3.82051">
        <ele>173.5</ele>
        <time>2023-07-13T03:18:45.000+02:00</time>
      </trkpt>
      <trkpt lat="43.29331" lon="-3.82055">
        <ele>173.3</ele>
        <time>2023-07-13T03:18:46.000+02:00</time>
      </trkpt>
      <trkpt lat="43.29325" lon="-3.82066">
        <ele>173.5</ele>
        <time>2023-07-13T03:18:49.000+02:00</time>
      </trkpt>
      <trkpt lat="43.29321" lon="-3.82071">
        <ele>173.5</ele>
        <time>2023-07-13T03:18:51.000+02:00</time>
      </trkpt>
      <trkpt lat="43.29312" lon="-3.82081">
        <ele>174</ele>
        <time>2023-07-13T03:18:55.000+02:00</time>
      </trkpt>
      <trkpt lat="43.29308" lon="-3.82088">
        <ele>174</ele>
        <time>2023-07-13T03:18:57.000+02:00</time>
      </trkpt>
      <trkpt lat="43.29307" lon="-3.82092">
        <ele>173.8</ele>
        <time>2023-07-13T03:18:58.000+02:00</time>
      </trkpt>
      <trkpt lat="43.29307" lon="-3.82097">
        <ele>173.5</ele>
        <time>2023-07-13T03:18:59.000+02:00</time>
      </trkpt>
      <trkpt lat="43.29308" lon="-3.821">
        <ele>173</ele>
        <time>2023-07-13T03:19:00.000+02:00</time>
      </trkpt>
      <trkpt lat="43.2931" lon="-3.82105">
        <ele>172.3</ele>
        <time>2023-07-13T03:19:01.000+02:00</time>
      </trkpt>
      <trkpt lat="43.29312" lon="-3.82108">
        <ele>171.8</ele>
        <time>2023-07-13T03:19:02.000+02:00</time>
      </trkpt>
      <trkpt lat="43.29319" lon="-3.82111">
        <ele>170.8</ele>
        <time>2023-07-13T03:19:05.000+02:00</time>
      </trkpt>
      <trkpt lat="43.29321" lon="-3.8211">
        <ele>170.3</ele>
        <time>2023-07-13T03:19:05.000+02:00</time>
      </trkpt>
      <trkpt lat="43.29324" lon="-3.82109">
        <ele>170</ele>
        <time>2023-07-13T03:19:06.000+02:00</time>
      </trkpt>
      <trkpt lat="43.29327" lon="-3.82107">
        <ele>170</ele>
        <time>2023-07-13T03:19:07.000+02:00</time>
      </trkpt>
      <trkpt lat="43.29339" lon="-3.82088">
        <ele>169.8</ele>
        <time>2023-07-13T03:19:13.000+02:00</time>
      </trkpt>
      <trkpt lat="43.2935" lon="-3.82066">
        <ele>169.3</ele>
        <time>2023-07-13T03:19:20.000+02:00</time>
      </trkpt>
      <trkpt lat="43.29362" lon="-3.82039">
        <ele>168.8</ele>
        <time>2023-07-13T03:19:27.000+02:00</time>
      </trkpt>
      <trkpt lat="43.29367" lon="-3.82025">
        <ele>168.8</ele>
        <time>2023-07-13T03:19:31.000+02:00</time>
      </trkpt>
      <trkpt lat="43.29387" lon="-3.8195">
        <ele>166.3</ele>
        <time>2023-07-13T03:19:50.000+02:00</time>
      </trkpt>
      <trkpt lat="43.29391" lon="-3.81942">
        <ele>165.3</ele>
        <time>2023-07-13T03:19:52.000+02:00</time>
      </trkpt>
      <trkpt lat="43.29393" lon="-3.8194">
        <ele>165</ele>
        <time>2023-07-13T03:19:53.000+02:00</time>
      </trkpt>
      <trkpt lat="43.29397" lon="-3.81939">
        <ele>164.3</ele>
        <time>2023-07-13T03:19:54.000+02:00</time>
      </trkpt>
      <trkpt lat="43.294" lon="-3.8194">
        <ele>163.3</ele>
        <time>2023-07-13T03:19:55.000+02:00</time>
      </trkpt>
      <trkpt lat="43.29405" lon="-3.81944">
        <ele>162.5</ele>
        <time>2023-07-13T03:19:57.000+02:00</time>
      </trkpt>
      <trkpt lat="43.29408" lon="-3.81952">
        <ele>161.8</ele>
        <time>2023-07-13T03:19:59.000+02:00</time>
      </trkpt>
      <trkpt lat="43.2941" lon="-3.81962">
        <ele>161.5</ele>
        <time>2023-07-13T03:20:02.000+02:00</time>
      </trkpt>
      <trkpt lat="43.2941" lon="-3.81981">
        <ele>161.3</ele>
        <time>2023-07-13T03:20:06.000+02:00</time>
      </trkpt>
      <trkpt lat="43.2941" lon="-3.81998">
        <ele>161.3</ele>
        <time>2023-07-13T03:20:10.000+02:00</time>
      </trkpt>
      <trkpt lat="43.29411" lon="-3.82007">
        <ele>160.8</ele>
        <time>2023-07-13T03:20:12.000+02:00</time>
      </trkpt>
      <trkpt lat="43.29412" lon="-3.82013">
        <ele>160.3</ele>
        <time>2023-07-13T03:20:14.000+02:00</time>
      </trkpt>
      <trkpt lat="43.29416" lon="-3.82025">
        <ele>159</ele>
        <time>2023-07-13T03:20:17.000+02:00</time>
      </trkpt>
      <trkpt lat="43.29425" lon="-3.82066">
        <ele>157</ele>
        <time>2023-07-13T03:20:27.000+02:00</time>
      </trkpt>
      <trkpt lat="43.29432" lon="-3.82087">
        <ele>156</ele>
        <time>2023-07-13T03:20:32.000+02:00</time>
      </trkpt>
      <trkpt lat="43.29437" lon="-3.82099">
        <ele>155.3</ele>
        <time>2023-07-13T03:20:36.000+02:00</time>
      </trkpt>
      <trkpt lat="43.2945" lon="-3.82121">
        <ele>154.3</ele>
        <time>2023-07-13T03:20:42.000+02:00</time>
      </trkpt>
      <trkpt lat="43.29461" lon="-3.8214">
        <ele>153.3</ele>
        <time>2023-07-13T03:20:48.000+02:00</time>
      </trkpt>
      <trkpt lat="43.29479" lon="-3.82166">
        <ele>152</ele>
        <time>2023-07-13T03:20:56.000+02:00</time>
      </trkpt>
      <trkpt lat="43.29515" lon="-3.8222">
        <ele>148.5</ele>
        <time>2023-07-13T03:21:14.000+02:00</time>
      </trkpt>
      <trkpt lat="43.29516" lon="-3.82222">
        <ele>148.5</ele>
        <time>2023-07-13T03:21:14.000+02:00</time>
      </trkpt>
      <trkpt lat="43.29522" lon="-3.82235">
        <ele>147.8</ele>
        <time>2023-07-13T03:21:18.000+02:00</time>
      </trkpt>
      <trkpt lat="43.29537" lon="-3.82272">
        <ele>146.5</ele>
        <time>2023-07-13T03:21:28.000+02:00</time>
      </trkpt>
      <trkpt lat="43.29543" lon="-3.82285">
        <ele>146</ele>
        <time>2023-07-13T03:21:31.000+02:00</time>
      </trkpt>
      <trkpt lat="43.29548" lon="-3.82291">
        <ele>145.8</ele>
        <time>2023-07-13T03:21:34.000+02:00</time>
      </trkpt>
      <trkpt lat="43.29557" lon="-3.82304">
        <ele>145.5</ele>
        <time>2023-07-13T03:21:38.000+02:00</time>
      </trkpt>
      <trkpt lat="43.29563" lon="-3.82312">
        <ele>145.3</ele>
        <time>2023-07-13T03:21:41.000+02:00</time>
      </trkpt>
      <trkpt lat="43.29591" lon="-3.82347">
        <ele>144.5</ele>
        <time>2023-07-13T03:21:53.000+02:00</time>
      </trkpt>
      <trkpt lat="43.29603" lon="-3.8236">
        <ele>144.3</ele>
        <time>2023-07-13T03:21:58.000+02:00</time>
      </trkpt>
      <trkpt lat="43.2961" lon="-3.82367">
        <ele>144</ele>
        <time>2023-07-13T03:22:01.000+02:00</time>
      </trkpt>
      <trkpt lat="43.29626" lon="-3.82382">
        <ele>143.3</ele>
        <time>2023-07-13T03:22:07.000+02:00</time>
      </trkpt>
      <trkpt lat="43.2963" lon="-3.82387">
        <ele>143</ele>
        <time>2023-07-13T03:22:08.000+02:00</time>
      </trkpt>
      <trkpt lat="43.29634" lon="-3.82392">
        <ele>142.8</ele>
        <time>2023-07-13T03:22:10.000+02:00</time>
      </trkpt>
      <trkpt lat="43.29642" lon="-3.82404">
        <ele>142.3</ele>
        <time>2023-07-13T03:22:14.000+02:00</time>
      </trkpt>
      <trkpt lat="43.29658" lon="-3.82433">
        <ele>140.5</ele>
        <time>2023-07-13T03:22:23.000+02:00</time>
      </trkpt>
      <trkpt lat="43.29668" lon="-3.82451">
        <ele>139.8</ele>
        <time>2023-07-13T03:22:28.000+02:00</time>
      </trkpt>
      <trkpt lat="43.29678" lon="-3.8247">
        <ele>139</ele>
        <time>2023-07-13T03:22:34.000+02:00</time>
      </trkpt>
      <trkpt lat="43.29694" lon="-3.82498">
        <ele>137.8</ele>
        <time>2023-07-13T03:22:42.000+02:00</time>
      </trkpt>
      <trkpt lat="43.29716" lon="-3.82537">
        <ele>136.5</ele>
        <time>2023-07-13T03:22:54.000+02:00</time>
      </trkpt>
      <trkpt lat="43.29752" lon="-3.82601">
        <ele>134.8</ele>
        <time>2023-07-13T03:23:13.000+02:00</time>
      </trkpt>
      <trkpt lat="43.29777" lon="-3.82647">
        <ele>134.3</ele>
        <time>2023-07-13T03:23:26.000+02:00</time>
      </trkpt>
      <trkpt lat="43.29828" lon="-3.82736">
        <ele>131.8</ele>
        <time>2023-07-13T03:23:53.000+02:00</time>
      </trkpt>
      <trkpt lat="43.29844" lon="-3.82761">
        <ele>130.8</ele>
        <time>2023-07-13T03:24:01.000+02:00</time>
      </trkpt>
      <trkpt lat="43.29943" lon="-3.82911">
        <ele>127.3</ele>
        <time>2023-07-13T03:24:48.000+02:00</time>
      </trkpt>
      <trkpt lat="43.29968" lon="-3.82946">
        <ele>126.8</ele>
        <time>2023-07-13T03:25:00.000+02:00</time>
      </trkpt>
      <trkpt lat="43.29982" lon="-3.82961">
        <ele>126.3</ele>
        <time>2023-07-13T03:25:06.000+02:00</time>
      </trkpt>
      <trkpt lat="43.30033" lon="-3.83008">
        <ele>124</ele>
        <time>2023-07-13T03:25:26.000+02:00</time>
      </trkpt>
      <trkpt lat="43.30057" lon="-3.83034">
        <ele>123</ele>
        <time>2023-07-13T03:25:35.000+02:00</time>
      </trkpt>
      <trkpt lat="43.30064" lon="-3.83042">
        <ele>122.8</ele>
        <time>2023-07-13T03:25:38.000+02:00</time>
      </trkpt>
      <trkpt lat="43.30114" lon="-3.83105">
        <ele>122</ele>
        <time>2023-07-13T03:26:00.000+02:00</time>
      </trkpt>
      <trkpt lat="43.3013" lon="-3.83127">
        <ele>121.5</ele>
        <time>2023-07-13T03:26:08.000+02:00</time>
      </trkpt>
      <trkpt lat="43.30137" lon="-3.8314">
        <ele>121.3</ele>
        <time>2023-07-13T03:26:12.000+02:00</time>
      </trkpt>
      <trkpt lat="43.30144" lon="-3.83161">
        <ele>120.5</ele>
        <time>2023-07-13T03:26:17.000+02:00</time>
      </trkpt>
      <trkpt lat="43.30147" lon="-3.83174">
        <ele>120.3</ele>
        <time>2023-07-13T03:26:20.000+02:00</time>
      </trkpt>
      <trkpt lat="43.30149" lon="-3.83193">
        <ele>119.8</ele>
        <time>2023-07-13T03:26:25.000+02:00</time>
      </trkpt>
      <trkpt lat="43.30149" lon="-3.83208">
        <ele>119.3</ele>
        <time>2023-07-13T03:26:28.000+02:00</time>
      </trkpt>
      <trkpt lat="43.30149" lon="-3.83224">
        <ele>119</ele>
        <time>2023-07-13T03:26:32.000+02:00</time>
      </trkpt>
      <trkpt lat="43.30148" lon="-3.83243">
        <ele>118.5</ele>
        <time>2023-07-13T03:26:36.000+02:00</time>
      </trkpt>
      <trkpt lat="43.30151" lon="-3.83262">
        <ele>118</ele>
        <time>2023-07-13T03:26:41.000+02:00</time>
      </trkpt>
      <trkpt lat="43.30157" lon="-3.83285">
        <ele>117.8</ele>
        <time>2023-07-13T03:26:47.000+02:00</time>
      </trkpt>
      <trkpt lat="43.30164" lon="-3.83304">
        <ele>117.3</ele>
        <time>2023-07-13T03:26:52.000+02:00</time>
      </trkpt>
      <trkpt lat="43.30171" lon="-3.83317">
        <ele>117</ele>
        <time>2023-07-13T03:26:56.000+02:00</time>
      </trkpt>
      <trkpt lat="43.30183" lon="-3.83335">
        <ele>117</ele>
        <time>2023-07-13T03:27:01.000+02:00</time>
      </trkpt>
      <trkpt lat="43.30261" lon="-3.8344">
        <ele>114.3</ele>
        <time>2023-07-13T03:27:37.000+02:00</time>
      </trkpt>
      <trkpt lat="43.30272" lon="-3.83456">
        <ele>113.8</ele>
        <time>2023-07-13T03:27:42.000+02:00</time>
      </trkpt>
      <trkpt lat="43.3028" lon="-3.8347">
        <ele>113.5</ele>
        <time>2023-07-13T03:27:46.000+02:00</time>
      </trkpt>
      <trkpt lat="43.30283" lon="-3.83476">
        <ele>113.3</ele>
        <time>2023-07-13T03:27:48.000+02:00</time>
      </trkpt>
      <trkpt lat="43.30288" lon="-3.83493">
        <ele>113</ele>
        <time>2023-07-13T03:27:52.000+02:00</time>
      </trkpt>
      <trkpt lat="43.30312" lon="-3.83583">
        <ele>111.3</ele>
        <time>2023-07-13T03:28:15.000+02:00</time>
      </trkpt>
      <trkpt lat="43.30337" lon="-3.8368">
        <ele>111.5</ele>
        <time>2023-07-13T03:28:39.000+02:00</time>
      </trkpt>
      <trkpt lat="43.30358" lon="-3.83765">
        <ele>109.3</ele>
        <time>2023-07-13T03:29:00.000+02:00</time>
      </trkpt>
      <trkpt lat="43.30362" lon="-3.83778">
        <ele>109</ele>
        <time>2023-07-13T03:29:03.000+02:00</time>
      </trkpt>
      <trkpt lat="43.304" lon="-3.83927">
        <ele>106.8</ele>
        <time>2023-07-13T03:29:41.000+02:00</time>
      </trkpt>
      <trkpt lat="43.30404" lon="-3.83945">
        <ele>106.5</ele>
        <time>2023-07-13T03:29:45.000+02:00</time>
      </trkpt>
      <trkpt lat="43.30418" lon="-3.84001">
        <ele>105</ele>
        <time>2023-07-13T03:29:59.000+02:00</time>
      </trkpt>
      <trkpt lat="43.30422" lon="-3.84015">
        <ele>104.8</ele>
        <time>2023-07-13T03:30:03.000+02:00</time>
      </trkpt>
      <trkpt lat="43.30464" lon="-3.84179">
        <ele>103.3</ele>
        <time>2023-07-13T03:30:44.000+02:00</time>
      </trkpt>
      <trkpt lat="43.30469" lon="-3.84198">
        <ele>103.3</ele>
        <time>2023-07-13T03:30:48.000+02:00</time>
      </trkpt>
      <trkpt lat="43.30509" lon="-3.84357">
        <ele>104</ele>
        <time>2023-07-13T03:31:28.000+02:00</time>
      </trkpt>
      <trkpt lat="43.30521" lon="-3.84403">
        <ele>105.5</ele>
        <time>2023-07-13T03:31:39.000+02:00</time>
      </trkpt>
      <trkpt lat="43.30536" lon="-3.8446">
        <ele>105.3</ele>
        <time>2023-07-13T03:31:54.000+02:00</time>
      </trkpt>
      <trkpt lat="43.30548" lon="-3.84493">
        <ele>104.5</ele>
        <time>2023-07-13T03:32:02.000+02:00</time>
      </trkpt>
      <trkpt lat="43.30714" lon="-3.84895">
        <ele>101.5</ele>
        <time>2023-07-13T03:33:51.000+02:00</time>
      </trkpt>
      <trkpt lat="43.3072" lon="-3.84909">
        <ele>101</ele>
        <time>2023-07-13T03:33:55.000+02:00</time>
      </trkpt>
      <trkpt lat="43.30815" lon="-3.85139">
        <ele>95.3</ele>
        <time>2023-07-13T03:34:57.000+02:00</time>
      </trkpt>
      <trkpt lat="43.30828" lon="-3.85172">
        <ele>95</ele>
        <time>2023-07-13T03:35:06.000+02:00</time>
      </trkpt>
      <trkpt lat="43.30836" lon="-3.8519">
        <ele>94.8</ele>
        <time>2023-07-13T03:35:11.000+02:00</time>
      </trkpt>
      <trkpt lat="43.30847" lon="-3.85219">
        <ele>94.8</ele>
        <time>2023-07-13T03:35:19.000+02:00</time>
      </trkpt>
      <trkpt lat="43.30857" lon="-3.85241">
        <ele>94.8</ele>
        <time>2023-07-13T03:35:25.000+02:00</time>
      </trkpt>
      <trkpt lat="43.30869" lon="-3.8527">
        <ele>94.8</ele>
        <time>2023-07-13T03:35:33.000+02:00</time>
      </trkpt>
      <trkpt lat="43.30877" lon="-3.8529">
        <ele>95</ele>
        <time>2023-07-13T03:35:38.000+02:00</time>
      </trkpt>
      <trkpt lat="43.30883" lon="-3.85304">
        <ele>95.3</ele>
        <time>2023-07-13T03:35:42.000+02:00</time>
      </trkpt>
      <trkpt lat="43.30891" lon="-3.85324">
        <ele>95.3</ele>
        <time>2023-07-13T03:35:47.000+02:00</time>
      </trkpt>
      <trkpt lat="43.30896" lon="-3.85338">
        <ele>95.3</ele>
        <time>2023-07-13T03:35:51.000+02:00</time>
      </trkpt>
      <trkpt lat="43.30901" lon="-3.85359">
        <ele>95.3</ele>
        <time>2023-07-13T03:35:56.000+02:00</time>
      </trkpt>
      <trkpt lat="43.30902" lon="-3.85365">
        <ele>95</ele>
        <time>2023-07-13T03:35:58.000+02:00</time>
      </trkpt>
      <trkpt lat="43.30896" lon="-3.85366">
        <ele>95.5</ele>
        <time>2023-07-13T03:36:00.000+02:00</time>
      </trkpt>
      <trkpt lat="43.30902" lon="-3.85365">
        <ele>95</ele>
        <time>2023-07-13T03:36:01.000+02:00</time>
      </trkpt>
      <trkpt lat="43.30901" lon="-3.85371">
        <ele>95</ele>
        <time>2023-07-13T03:36:02.000+02:00</time>
      </trkpt>
      <trkpt lat="43.30899" lon="-3.85385">
        <ele>95</ele>
        <time>2023-07-13T03:36:03.000+02:00</time>
      </trkpt>
      <trkpt lat="43.30898" lon="-3.85393">
        <ele>95</ele>
        <time>2023-07-13T03:36:04.000+02:00</time>
      </trkpt>
      <trkpt lat="43.30894" lon="-3.85403">
        <ele>95</ele>
        <time>2023-07-13T03:36:06.000+02:00</time>
      </trkpt>
      <trkpt lat="43.30891" lon="-3.85411">
        <ele>95</ele>
        <time>2023-07-13T03:36:07.000+02:00</time>
      </trkpt>
      <trkpt lat="43.30883" lon="-3.85432">
        <ele>94.8</ele>
        <time>2023-07-13T03:36:09.000+02:00</time>
      </trkpt>
      <trkpt lat="43.30877" lon="-3.85452">
        <ele>94.5</ele>
        <time>2023-07-13T03:36:12.000+02:00</time>
      </trkpt>
      <trkpt lat="43.30873" lon="-3.85468">
        <ele>94.3</ele>
        <time>2023-07-13T03:36:14.000+02:00</time>
      </trkpt>
      <trkpt lat="43.30868" lon="-3.85487">
        <ele>94</ele>
        <time>2023-07-13T03:36:16.000+02:00</time>
      </trkpt>
      <trkpt lat="43.30863" lon="-3.85511">
        <ele>93.5</ele>
        <time>2023-07-13T03:36:19.000+02:00</time>
      </trkpt>
      <trkpt lat="43.30858" lon="-3.85525">
        <ele>93.3</ele>
        <time>2023-07-13T03:36:20.000+02:00</time>
      </trkpt>
      <trkpt lat="43.30834" lon="-3.8558">
        <ele>92.8</ele>
        <time>2023-07-13T03:36:27.000+02:00</time>
      </trkpt>
      <trkpt lat="43.3082" lon="-3.85615">
        <ele>93.3</ele>
        <time>2023-07-13T03:36:32.000+02:00</time>
      </trkpt>
      <trkpt lat="43.30804" lon="-3.85645">
        <ele>93.5</ele>
        <time>2023-07-13T03:36:36.000+02:00</time>
      </trkpt>
      <trkpt lat="43.30789" lon="-3.85672">
        <ele>93.3</ele>
        <time>2023-07-13T03:36:40.000+02:00</time>
      </trkpt>
      <trkpt lat="43.30787" lon="-3.85676">
        <ele>93</ele>
        <time>2023-07-13T03:36:41.000+02:00</time>
      </trkpt>
      <trkpt lat="43.30781" lon="-3.85686">
        <ele>92.8</ele>
        <time>2023-07-13T03:36:43.000+02:00</time>
      </trkpt>
      <trkpt lat="43.30773" lon="-3.85704">
        <ele>92.5</ele>
        <time>2023-07-13T03:36:45.000+02:00</time>
      </trkpt>
      <trkpt lat="43.30765" lon="-3.85721">
        <ele>92.3</ele>
        <time>2023-07-13T03:36:47.000+02:00</time>
      </trkpt>
      <trkpt lat="43.30762" lon="-3.85731">
        <ele>92</ele>
        <time>2023-07-13T03:36:49.000+02:00</time>
      </trkpt>
      <trkpt lat="43.30761" lon="-3.85742">
        <ele>91.8</ele>
        <time>2023-07-13T03:36:50.000+02:00</time>
      </trkpt>
      <trkpt lat="43.30761" lon="-3.85747">
        <ele>91.8</ele>
        <time>2023-07-13T03:36:51.000+02:00</time>
      </trkpt>
      <trkpt lat="43.30757" lon="-3.8575">
        <ele>91.8</ele>
        <time>2023-07-13T03:36:52.000+02:00</time>
      </trkpt>
      <trkpt lat="43.30752" lon="-3.85755">
        <ele>91.8</ele>
        <time>2023-07-13T03:36:53.000+02:00</time>
      </trkpt>
      <trkpt lat="43.30748" lon="-3.85751">
        <ele>92</ele>
        <time>2023-07-13T03:36:54.000+02:00</time>
      </trkpt>
      <trkpt lat="43.3075" lon="-3.85746">
        <ele>92</ele>
        <time>2023-07-13T03:36:54.000+02:00</time>
      </trkpt>
      <trkpt lat="43.30751" lon="-3.85743">
        <ele>92</ele>
        <time>2023-07-13T03:36:55.000+02:00</time>
      </trkpt>
      <trkpt lat="43.3075" lon="-3.85746">
        <ele>92</ele>
        <time>2023-07-13T03:36:56.000+02:00</time>
      </trkpt>
      <trkpt lat="43.30748" lon="-3.85751">
        <ele>92</ele>
        <time>2023-07-13T03:36:57.000+02:00</time>
      </trkpt>
      <trkpt lat="43.30752" lon="-3.85755">
        <ele>91.8</ele>
        <time>2023-07-13T03:36:57.000+02:00</time>
      </trkpt>
      <trkpt lat="43.30748" lon="-3.8576">
        <ele>92</ele>
        <time>2023-07-13T03:36:58.000+02:00</time>
      </trkpt>
      <trkpt lat="43.30738" lon="-3.85772">
        <ele>92.3</ele>
        <time>2023-07-13T03:37:00.000+02:00</time>
      </trkpt>
      <trkpt lat="43.30735" lon="-3.85774">
        <ele>92.3</ele>
        <time>2023-07-13T03:37:01.000+02:00</time>
      </trkpt>
      <trkpt lat="43.30733" lon="-3.85774">
        <ele>92.5</ele>
        <time>2023-07-13T03:37:02.000+02:00</time>
      </trkpt>
      <trkpt lat="43.30724" lon="-3.85768">
        <ele>92.8</ele>
        <time>2023-07-13T03:37:04.000+02:00</time>
      </trkpt>
      <trkpt lat="43.30707" lon="-3.85758">
        <ele>93.3</ele>
        <time>2023-07-13T03:37:06.000+02:00</time>
      </trkpt>
      <trkpt lat="43.30691" lon="-3.85752">
        <ele>94</ele>
        <time>2023-07-13T03:37:09.000+02:00</time>
      </trkpt>
      <trkpt lat="43.30676" lon="-3.85748">
        <ele>94.5</ele>
        <time>2023-07-13T03:37:11.000+02:00</time>
      </trkpt>
      <trkpt lat="43.30656" lon="-3.85745">
        <ele>95</ele>
        <time>2023-07-13T03:37:15.000+02:00</time>
      </trkpt>
      <trkpt lat="43.30651" lon="-3.85745">
        <ele>95</ele>
        <time>2023-07-13T03:37:15.000+02:00</time>
      </trkpt>
      <trkpt lat="43.30587" lon="-3.8572">
        <ele>96.8</ele>
        <time>2023-07-13T03:37:25.000+02:00</time>
      </trkpt>
      <trkpt lat="43.30569" lon="-3.85714">
        <ele>96.8</ele>
        <time>2023-07-13T03:37:28.000+02:00</time>
      </trkpt>
      <trkpt lat="43.30562" lon="-3.85714">
        <ele>96.8</ele>
        <time>2023-07-13T03:37:29.000+02:00</time>
      </trkpt>
      <trkpt lat="43.30555" lon="-3.85714">
        <ele>96.5</ele>
        <time>2023-07-13T03:37:30.000+02:00</time>
      </trkpt>
      <trkpt lat="43.30546" lon="-3.85718">
        <ele>96.5</ele>
        <time>2023-07-13T03:37:32.000+02:00</time>
      </trkpt>
      <trkpt lat="43.3053" lon="-3.85728">
        <ele>96.5</ele>
        <time>2023-07-13T03:37:35.000+02:00</time>
      </trkpt>
      <trkpt lat="43.30526" lon="-3.85731">
        <ele>96.5</ele>
        <time>2023-07-13T03:37:36.000+02:00</time>
      </trkpt>
      <trkpt lat="43.30521" lon="-3.85734">
        <ele>96.5</ele>
        <time>2023-07-13T03:37:37.000+02:00</time>
      </trkpt>
      <trkpt lat="43.30481" lon="-3.8572">
        <ele>96.5</ele>
        <time>2023-07-13T03:37:43.000+02:00</time>
      </trkpt>
      <trkpt lat="43.30466" lon="-3.85716">
        <ele>96.8</ele>
        <time>2023-07-13T03:37:46.000+02:00</time>
      </trkpt>
      <trkpt lat="43.30459" lon="-3.85712">
        <ele>96.8</ele>
        <time>2023-07-13T03:37:47.000+02:00</time>
      </trkpt>
      <trkpt lat="43.30454" lon="-3.85709">
        <ele>96.8</ele>
        <time>2023-07-13T03:37:48.000+02:00</time>
      </trkpt>
      <trkpt lat="43.30446" lon="-3.85702">
        <ele>96.8</ele>
        <time>2023-07-13T03:37:49.000+02:00</time>
      </trkpt>
      <trkpt lat="43.3043" lon="-3.85693">
        <ele>96.5</ele>
        <time>2023-07-13T03:37:52.000+02:00</time>
      </trkpt>
      <trkpt lat="43.30417" lon="-3.85688">
        <ele>96.8</ele>
        <time>2023-07-13T03:37:54.000+02:00</time>
      </trkpt>
      <trkpt lat="43.30407" lon="-3.85687">
        <ele>97.5</ele>
        <time>2023-07-13T03:37:55.000+02:00</time>
      </trkpt>
      <trkpt lat="43.30385" lon="-3.85671">
        <ele>98</ele>
        <time>2023-07-13T03:37:59.000+02:00</time>
      </trkpt>
      <trkpt lat="43.30374" lon="-3.85664">
        <ele>98.5</ele>
        <time>2023-07-13T03:38:01.000+02:00</time>
      </trkpt>
      <trkpt lat="43.30362" lon="-3.85658">
        <ele>99</ele>
        <time>2023-07-13T03:38:03.000+02:00</time>
      </trkpt>
      <trkpt lat="43.30318" lon="-3.8564">
        <ele>101.8</ele>
        <time>2023-07-13T03:38:10.000+02:00</time>
      </trkpt>
      <trkpt lat="43.30302" lon="-3.85632">
        <ele>103</ele>
        <time>2023-07-13T03:38:13.000+02:00</time>
      </trkpt>
      <trkpt lat="43.30299" lon="-3.85631">
        <ele>103.3</ele>
        <time>2023-07-13T03:38:13.000+02:00</time>
      </trkpt>
      <trkpt lat="43.3029" lon="-3.8563">
        <ele>103.8</ele>
        <time>2023-07-13T03:38:14.000+02:00</time>
      </trkpt>
      <trkpt lat="43.30281" lon="-3.85633">
        <ele>104.5</ele>
        <time>2023-07-13T03:38:16.000+02:00</time>
      </trkpt>
      <trkpt lat="43.3027" lon="-3.85631">
        <ele>105.3</ele>
        <time>2023-07-13T03:38:18.000+02:00</time>
      </trkpt>
      <trkpt lat="43.30246" lon="-3.8563">
        <ele>107.5</ele>
        <time>2023-07-13T03:38:21.000+02:00</time>
      </trkpt>
      <trkpt lat="43.30232" lon="-3.85627">
        <ele>109.3</ele>
        <time>2023-07-13T03:38:23.000+02:00</time>
      </trkpt>
      <trkpt lat="43.30225" lon="-3.85625">
        <ele>110</ele>
        <time>2023-07-13T03:38:24.000+02:00</time>
      </trkpt>
      <trkpt lat="43.30206" lon="-3.85614">
        <ele>111</ele>
        <time>2023-07-13T03:38:28.000+02:00</time>
      </trkpt>
      <trkpt lat="43.30184" lon="-3.85603">
        <ele>111.3</ele>
        <time>2023-07-13T03:38:31.000+02:00</time>
      </trkpt>
      <trkpt lat="43.30168" lon="-3.85596">
        <ele>110.8</ele>
        <time>2023-07-13T03:38:34.000+02:00</time>
      </trkpt>
      <trkpt lat="43.301" lon="-3.85574">
        <ele>113.3</ele>
        <time>2023-07-13T03:38:44.000+02:00</time>
      </trkpt>
      <trkpt lat="43.30094" lon="-3.85573">
        <ele>113.3</ele>
        <time>2023-07-13T03:38:45.000+02:00</time>
      </trkpt>
      <trkpt lat="43.3007" lon="-3.85571">
        <ele>113.8</ele>
        <time>2023-07-13T03:38:49.000+02:00</time>
      </trkpt>
      <trkpt lat="43.29983" lon="-3.85574">
        <ele>112.5</ele>
        <time>2023-07-13T03:39:02.000+02:00</time>
      </trkpt>
      <trkpt lat="43.2996" lon="-3.85576">
        <ele>113.5</ele>
        <time>2023-07-13T03:39:06.000+02:00</time>
      </trkpt>
      <trkpt lat="43.29927" lon="-3.85579">
        <ele>115</ele>
        <time>2023-07-13T03:39:11.000+02:00</time>
      </trkpt>
      <trkpt lat="43.29873" lon="-3.85586">
        <ele>118.5</ele>
        <time>2023-07-13T03:39:19.000+02:00</time>
      </trkpt>
      <trkpt lat="43.29857" lon="-3.85583">
        <ele>117.3</ele>
        <time>2023-07-13T03:39:22.000+02:00</time>
      </trkpt>
      <trkpt lat="43.29835" lon="-3.85574">
        <ele>116</ele>
        <time>2023-07-13T03:39:25.000+02:00</time>
      </trkpt>
      <trkpt lat="43.29795" lon="-3.85554">
        <ele>117.3</ele>
        <time>2023-07-13T03:39:32.000+02:00</time>
      </trkpt>
      <trkpt lat="43.29771" lon="-3.85543">
        <ele>117</ele>
        <time>2023-07-13T03:39:36.000+02:00</time>
      </trkpt>
      <trkpt lat="43.29746" lon="-3.85535">
        <ele>116.8</ele>
        <time>2023-07-13T03:39:39.000+02:00</time>
      </trkpt>
      <trkpt lat="43.2973" lon="-3.85531">
        <ele>116.8</ele>
        <time>2023-07-13T03:39:42.000+02:00</time>
      </trkpt>
      <trkpt lat="43.29717" lon="-3.85529">
        <ele>117.3</ele>
        <time>2023-07-13T03:39:44.000+02:00</time>
      </trkpt>
      <trkpt lat="43.29711" lon="-3.8553">
        <ele>118</ele>
        <time>2023-07-13T03:39:45.000+02:00</time>
      </trkpt>
      <trkpt lat="43.29694" lon="-3.85536">
        <ele>122</ele>
        <time>2023-07-13T03:39:48.000+02:00</time>
      </trkpt>
      <trkpt lat="43.29686" lon="-3.85537">
        <ele>123.3</ele>
        <time>2023-07-13T03:39:49.000+02:00</time>
      </trkpt>
      <trkpt lat="43.29672" lon="-3.85537">
        <ele>124.5</ele>
        <time>2023-07-13T03:39:51.000+02:00</time>
      </trkpt>
      <trkpt lat="43.29668" lon="-3.85535">
        <ele>124.3</ele>
        <time>2023-07-13T03:39:52.000+02:00</time>
      </trkpt>
      <trkpt lat="43.29665" lon="-3.85533">
        <ele>123.3</ele>
        <time>2023-07-13T03:39:53.000+02:00</time>
      </trkpt>
      <trkpt lat="43.29663" lon="-3.85527">
        <ele>120.8</ele>
        <time>2023-07-13T03:39:54.000+02:00</time>
      </trkpt>
      <trkpt lat="43.29662" lon="-3.85518">
        <ele>117.3</ele>
        <time>2023-07-13T03:39:55.000+02:00</time>
      </trkpt>
      <trkpt lat="43.29662" lon="-3.85511">
        <ele>114.3</ele>
        <time>2023-07-13T03:39:56.000+02:00</time>
      </trkpt>
      <trkpt lat="43.29664" lon="-3.8549">
        <ele>109</ele>
        <time>2023-07-13T03:39:58.000+02:00</time>
      </trkpt>
      <trkpt lat="43.29675" lon="-3.85322">
        <ele>101.5</ele>
        <time>2023-07-13T03:40:17.000+02:00</time>
      </trkpt>
      <trkpt lat="43.29675" lon="-3.85303">
        <ele>101.3</ele>
        <time>2023-07-13T03:40:19.000+02:00</time>
      </trkpt>
      <trkpt lat="43.29675" lon="-3.85286">
        <ele>101.3</ele>
        <time>2023-07-13T03:40:21.000+02:00</time>
      </trkpt>
      <trkpt lat="43.29675" lon="-3.85281">
        <ele>101.3</ele>
        <time>2023-07-13T03:40:22.000+02:00</time>
      </trkpt>
      <trkpt lat="43.29672" lon="-3.85273">
        <ele>100.8</ele>
        <time>2023-07-13T03:40:23.000+02:00</time>
      </trkpt>
      <trkpt lat="43.29669" lon="-3.85262">
        <ele>100.3</ele>
        <time>2023-07-13T03:40:25.000+02:00</time>
      </trkpt>
      <trkpt lat="43.29664" lon="-3.85251">
        <ele>100.3</ele>
        <time>2023-07-13T03:40:26.000+02:00</time>
      </trkpt>
      <trkpt lat="43.29654" lon="-3.85232">
        <ele>102.3</ele>
        <time>2023-07-13T03:40:29.000+02:00</time>
      </trkpt>
      <trkpt lat="43.29643" lon="-3.85216">
        <ele>103.8</ele>
        <time>2023-07-13T03:40:31.000+02:00</time>
      </trkpt>
      <trkpt lat="43.29569" lon="-3.85105">
        <ele>105.8</ele>
        <time>2023-07-13T03:40:48.000+02:00</time>
      </trkpt>
      <trkpt lat="43.29518" lon="-3.8503">
        <ele>104.3</ele>
        <time>2023-07-13T03:40:59.000+02:00</time>
      </trkpt>
      <trkpt lat="43.2948" lon="-3.84974">
        <ele>106.5</ele>
        <time>2023-07-13T03:41:08.000+02:00</time>
      </trkpt>
      <trkpt lat="43.29471" lon="-3.84963">
        <ele>107.8</ele>
        <time>2023-07-13T03:41:10.000+02:00</time>
      </trkpt>
      <trkpt lat="43.29464" lon="-3.84952">
        <ele>109</ele>
        <time>2023-07-13T03:41:11.000+02:00</time>
      </trkpt>
      <trkpt lat="43.29458" lon="-3.84941">
        <ele>109.8</ele>
        <time>2023-07-13T03:41:13.000+02:00</time>
      </trkpt>
      <trkpt lat="43.29456" lon="-3.84935">
        <ele>110</ele>
        <time>2023-07-13T03:41:13.000+02:00</time>
      </trkpt>
      <trkpt lat="43.29443" lon="-3.84939">
        <ele>112</ele>
        <time>2023-07-13T03:41:16.000+02:00</time>
      </trkpt>
      <trkpt lat="43.29432" lon="-3.84944">
        <ele>113.5</ele>
        <time>2023-07-13T03:41:17.000+02:00</time>
      </trkpt>
      <trkpt lat="43.2942" lon="-3.84952">
        <ele>115</ele>
        <time>2023-07-13T03:41:19.000+02:00</time>
      </trkpt>
      <trkpt lat="43.29409" lon="-3.84964">
        <ele>118.3</ele>
        <time>2023-07-13T03:41:21.000+02:00</time>
      </trkpt>
      <trkpt lat="43.29401" lon="-3.84978">
        <ele>121.3</ele>
        <time>2023-07-13T03:41:23.000+02:00</time>
      </trkpt>
      <trkpt lat="43.29396" lon="-3.84987">
        <ele>123</ele>
        <time>2023-07-13T03:41:25.000+02:00</time>
      </trkpt>
      <trkpt lat="43.29393" lon="-3.84998">
        <ele>123.8</ele>
        <time>2023-07-13T03:41:26.000+02:00</time>
      </trkpt>
      <trkpt lat="43.2939" lon="-3.8503">
        <ele>122.8</ele>
        <time>2023-07-13T03:41:30.000+02:00</time>
      </trkpt>
      <trkpt lat="43.29388" lon="-3.85041">
        <ele>122.5</ele>
        <time>2023-07-13T03:41:31.000+02:00</time>
      </trkpt>
      <trkpt lat="43.29385" lon="-3.85049">
        <ele>122.5</ele>
        <time>2023-07-13T03:41:32.000+02:00</time>
      </trkpt>
      <trkpt lat="43.29382" lon="-3.85055">
        <ele>123</ele>
        <time>2023-07-13T03:41:33.000+02:00</time>
      </trkpt>
      <trkpt lat="43.29377" lon="-3.8506">
        <ele>123.8</ele>
        <time>2023-07-13T03:41:34.000+02:00</time>
      </trkpt>
      <trkpt lat="43.29372" lon="-3.85063">
        <ele>124.8</ele>
        <time>2023-07-13T03:41:35.000+02:00</time>
      </trkpt>
      <trkpt lat="43.29355" lon="-3.85067">
        <ele>128.5</ele>
        <time>2023-07-13T03:41:38.000+02:00</time>
      </trkpt>
      <trkpt lat="43.29348" lon="-3.8507">
        <ele>129.8</ele>
        <time>2023-07-13T03:41:39.000+02:00</time>
      </trkpt>
      <trkpt lat="43.2934" lon="-3.85077">
        <ele>130.5</ele>
        <time>2023-07-13T03:41:41.000+02:00</time>
      </trkpt>
      <trkpt lat="43.29329" lon="-3.85089">
        <ele>131.8</ele>
        <time>2023-07-13T03:41:43.000+02:00</time>
      </trkpt>
      <trkpt lat="43.29325" lon="-3.85089">
        <ele>133.3</ele>
        <time>2023-07-13T03:41:44.000+02:00</time>
      </trkpt>
      <trkpt lat="43.29321" lon="-3.85088">
        <ele>134.5</ele>
        <time>2023-07-13T03:41:45.000+02:00</time>
      </trkpt>
      <trkpt lat="43.29319" lon="-3.85085">
        <ele>135.5</ele>
        <time>2023-07-13T03:41:45.000+02:00</time>
      </trkpt>
      <trkpt lat="43.29318" lon="-3.85079">
        <ele>136.8</ele>
        <time>2023-07-13T03:41:46.000+02:00</time>
      </trkpt>
      <trkpt lat="43.29318" lon="-3.85052">
        <ele>141</ele>
        <time>2023-07-13T03:41:49.000+02:00</time>
      </trkpt>
      <trkpt lat="43.29321" lon="-3.85026">
        <ele>144.3</ele>
        <time>2023-07-13T03:41:52.000+02:00</time>
      </trkpt>
      <trkpt lat="43.29328" lon="-3.84976">
        <ele>147.5</ele>
        <time>2023-07-13T03:41:58.000+02:00</time>
      </trkpt>
      <trkpt lat="43.29327" lon="-3.84969">
        <ele>147.8</ele>
        <time>2023-07-13T03:41:59.000+02:00</time>
      </trkpt>
      <trkpt lat="43.29325" lon="-3.84964">
        <ele>148.3</ele>
        <time>2023-07-13T03:42:00.000+02:00</time>
      </trkpt>
      <trkpt lat="43.29321" lon="-3.84962">
        <ele>149</ele>
        <time>2023-07-13T03:42:01.000+02:00</time>
      </trkpt>
      <trkpt lat="43.29317" lon="-3.84961">
        <ele>149.5</ele>
        <time>2023-07-13T03:42:02.000+02:00</time>
      </trkpt>
      <trkpt lat="43.29303" lon="-3.84966">
        <ele>152</ele>
        <time>2023-07-13T03:42:05.000+02:00</time>
      </trkpt>
      <trkpt lat="43.29296" lon="-3.84967">
        <ele>153.3</ele>
        <time>2023-07-13T03:42:06.000+02:00</time>
      </trkpt>
      <trkpt lat="43.2929" lon="-3.84968">
        <ele>154.3</ele>
        <time>2023-07-13T03:42:07.000+02:00</time>
      </trkpt>
      <trkpt lat="43.29283" lon="-3.84967">
        <ele>155.5</ele>
        <time>2023-07-13T03:42:08.000+02:00</time>
      </trkpt>
      <trkpt lat="43.29275" lon="-3.84964">
        <ele>156.8</ele>
        <time>2023-07-13T03:42:09.000+02:00</time>
      </trkpt>
      <trkpt lat="43.29259" lon="-3.84956">
        <ele>159.3</ele>
        <time>2023-07-13T03:42:12.000+02:00</time>
      </trkpt>
      <trkpt lat="43.29229" lon="-3.84941">
        <ele>162.8</ele>
        <time>2023-07-13T03:42:16.000+02:00</time>
      </trkpt>
      <trkpt lat="43.29195" lon="-3.84926">
        <ele>167</ele>
        <time>2023-07-13T03:42:22.000+02:00</time>
      </trkpt>
      <trkpt lat="43.29181" lon="-3.84918">
        <ele>168.8</ele>
        <time>2023-07-13T03:42:24.000+02:00</time>
      </trkpt>
      <trkpt lat="43.29164" lon="-3.84907">
        <ele>169.8</ele>
        <time>2023-07-13T03:42:27.000+02:00</time>
      </trkpt>
      <trkpt lat="43.2915" lon="-3.849">
        <ele>169.5</ele>
        <time>2023-07-13T03:42:29.000+02:00</time>
      </trkpt>
      <trkpt lat="43.29136" lon="-3.84895">
        <ele>169.8</ele>
        <time>2023-07-13T03:42:32.000+02:00</time>
      </trkpt>
      <trkpt lat="43.29127" lon="-3.84895">
        <ele>170.3</ele>
        <time>2023-07-13T03:42:33.000+02:00</time>
      </trkpt>
      <trkpt lat="43.29115" lon="-3.84898">
        <ele>171.3</ele>
        <time>2023-07-13T03:42:35.000+02:00</time>
      </trkpt>
      <trkpt lat="43.29099" lon="-3.84903">
        <ele>173</ele>
        <time>2023-07-13T03:42:37.000+02:00</time>
      </trkpt>
      <trkpt lat="43.29082" lon="-3.84911">
        <ele>175</ele>
        <time>2023-07-13T03:42:40.000+02:00</time>
      </trkpt>
      <trkpt lat="43.29058" lon="-3.84924">
        <ele>177.8</ele>
        <time>2023-07-13T03:42:44.000+02:00</time>
      </trkpt>
      <trkpt lat="43.29044" lon="-3.84929">
        <ele>179</ele>
        <time>2023-07-13T03:42:46.000+02:00</time>
      </trkpt>
      <trkpt lat="43.29004" lon="-3.84938">
        <ele>182</ele>
        <time>2023-07-13T03:42:52.000+02:00</time>
      </trkpt>
      <trkpt lat="43.2898" lon="-3.84944">
        <ele>184.3</ele>
        <time>2023-07-13T03:42:56.000+02:00</time>
      </trkpt>
      <trkpt lat="43.28972" lon="-3.8495">
        <ele>185.3</ele>
        <time>2023-07-13T03:42:57.000+02:00</time>
      </trkpt>
      <trkpt lat="43.28965" lon="-3.84957">
        <ele>186.3</ele>
        <time>2023-07-13T03:42:59.000+02:00</time>
      </trkpt>
      <trkpt lat="43.28946" lon="-3.84984">
        <ele>190</ele>
        <time>2023-07-13T03:43:03.000+02:00</time>
      </trkpt>
      <trkpt lat="43.28937" lon="-3.84991">
        <ele>191</ele>
        <time>2023-07-13T03:43:05.000+02:00</time>
      </trkpt>
      <trkpt lat="43.28916" lon="-3.85004">
        <ele>193.3</ele>
        <time>2023-07-13T03:43:08.000+02:00</time>
      </trkpt>
      <trkpt lat="43.28863" lon="-3.85031">
        <ele>198.5</ele>
        <time>2023-07-13T03:43:17.000+02:00</time>
      </trkpt>
      <trkpt lat="43.28841" lon="-3.85043">
        <ele>201.5</ele>
        <time>2023-07-13T03:43:20.000+02:00</time>
      </trkpt>
      <trkpt lat="43.28827" lon="-3.85052">
        <ele>204</ele>
        <time>2023-07-13T03:43:23.000+02:00</time>
      </trkpt>
      <trkpt lat="43.28823" lon="-3.85055">
        <ele>205.3</ele>
        <time>2023-07-13T03:43:23.000+02:00</time>
      </trkpt>
      <trkpt lat="43.28821" lon="-3.85061">
        <ele>206.3</ele>
        <time>2023-07-13T03:43:24.000+02:00</time>
      </trkpt>
      <trkpt lat="43.2882" lon="-3.85065">
        <ele>207</ele>
        <time>2023-07-13T03:43:25.000+02:00</time>
      </trkpt>
      <trkpt lat="43.28821" lon="-3.85073">
        <ele>208</ele>
        <time>2023-07-13T03:43:26.000+02:00</time>
      </trkpt>
      <trkpt lat="43.28825" lon="-3.85089">
        <ele>209</ele>
        <time>2023-07-13T03:43:27.000+02:00</time>
      </trkpt>
      <trkpt lat="43.28829" lon="-3.85114">
        <ele>210.3</ele>
        <time>2023-07-13T03:43:30.000+02:00</time>
      </trkpt>
      <trkpt lat="43.28829" lon="-3.85119">
        <ele>210.8</ele>
        <time>2023-07-13T03:43:31.000+02:00</time>
      </trkpt>
      <trkpt lat="43.28828" lon="-3.85123">
        <ele>211.3</ele>
        <time>2023-07-13T03:43:32.000+02:00</time>
      </trkpt>
      <trkpt lat="43.28826" lon="-3.85126">
        <ele>212</ele>
        <time>2023-07-13T03:43:33.000+02:00</time>
      </trkpt>
      <trkpt lat="43.28814" lon="-3.85129">
        <ele>214.8</ele>
        <time>2023-07-13T03:43:35.000+02:00</time>
      </trkpt>
      <trkpt lat="43.28804" lon="-3.8513">
        <ele>216.8</ele>
        <time>2023-07-13T03:43:36.000+02:00</time>
      </trkpt>
      <trkpt lat="43.28796" lon="-3.8513">
        <ele>218.5</ele>
        <time>2023-07-13T03:43:37.000+02:00</time>
      </trkpt>
      <trkpt lat="43.28771" lon="-3.85126">
        <ele>223.3</ele>
        <time>2023-07-13T03:43:41.000+02:00</time>
      </trkpt>
      <trkpt lat="43.28768" lon="-3.85126">
        <ele>224</ele>
        <time>2023-07-13T03:43:42.000+02:00</time>
      </trkpt>
      <trkpt lat="43.28765" lon="-3.85127">
        <ele>224.5</ele>
        <time>2023-07-13T03:43:42.000+02:00</time>
      </trkpt>
      <trkpt lat="43.2876" lon="-3.85124">
        <ele>225.3</ele>
        <time>2023-07-13T03:43:43.000+02:00</time>
      </trkpt>
      <trkpt lat="43.28743" lon="-3.85122">
        <ele>228.5</ele>
        <time>2023-07-13T03:43:46.000+02:00</time>
      </trkpt>
      <trkpt lat="43.28736" lon="-3.85123">
        <ele>230.3</ele>
        <time>2023-07-13T03:43:47.000+02:00</time>
      </trkpt>
      <trkpt lat="43.2873" lon="-3.85125">
        <ele>232</ele>
        <time>2023-07-13T03:43:48.000+02:00</time>
      </trkpt>
      <trkpt lat="43.28705" lon="-3.85136">
        <ele>239</ele>
        <time>2023-07-13T03:43:52.000+02:00</time>
      </trkpt>
      <trkpt lat="43.28653" lon="-3.85147">
        <ele>252.8</ele>
        <time>2023-07-13T03:44:00.000+02:00</time>
      </trkpt>
      <trkpt lat="43.28641" lon="-3.85149">
        <ele>254.8</ele>
        <time>2023-07-13T03:44:01.000+02:00</time>
      </trkpt>
      <trkpt lat="43.28621" lon="-3.85148">
        <ele>257.5</ele>
        <time>2023-07-13T03:44:05.000+02:00</time>
      </trkpt>
      <trkpt lat="43.28613" lon="-3.85146">
        <ele>258.5</ele>
        <time>2023-07-13T03:44:06.000+02:00</time>
      </trkpt>
      <trkpt lat="43.28609" lon="-3.85144">
        <ele>258.8</ele>
        <time>2023-07-13T03:44:07.000+02:00</time>
      </trkpt>
      <trkpt lat="43.28607" lon="-3.8514">
        <ele>258.5</ele>
        <time>2023-07-13T03:44:08.000+02:00</time>
      </trkpt>
      <trkpt lat="43.28607" lon="-3.85136">
        <ele>258</ele>
        <time>2023-07-13T03:44:08.000+02:00</time>
      </trkpt>
      <trkpt lat="43.28609" lon="-3.85119">
        <ele>255.5</ele>
        <time>2023-07-13T03:44:10.000+02:00</time>
      </trkpt>
      <trkpt lat="43.28609" lon="-3.85104">
        <ele>253.3</ele>
        <time>2023-07-13T03:44:12.000+02:00</time>
      </trkpt>
      <trkpt lat="43.28608" lon="-3.85093">
        <ele>252.3</ele>
        <time>2023-07-13T03:44:13.000+02:00</time>
      </trkpt>
      <trkpt lat="43.28604" lon="-3.85084">
        <ele>252</ele>
        <time>2023-07-13T03:44:14.000+02:00</time>
      </trkpt>
      <trkpt lat="43.28601" lon="-3.85079">
        <ele>252.3</ele>
        <time>2023-07-13T03:44:15.000+02:00</time>
      </trkpt>
      <trkpt lat="43.28593" lon="-3.85073">
        <ele>253.3</ele>
        <time>2023-07-13T03:44:16.000+02:00</time>
      </trkpt>
      <trkpt lat="43.28538" lon="-3.85043">
        <ele>266.5</ele>
        <time>2023-07-13T03:44:26.000+02:00</time>
      </trkpt>
      <trkpt lat="43.28532" lon="-3.85039">
        <ele>268.3</ele>
        <time>2023-07-13T03:44:27.000+02:00</time>
      </trkpt>
      <trkpt lat="43.28518" lon="-3.85023">
        <ele>271.8</ele>
        <time>2023-07-13T03:44:29.000+02:00</time>
      </trkpt>
      <trkpt lat="43.28512" lon="-3.85014">
        <ele>273.3</ele>
        <time>2023-07-13T03:44:31.000+02:00</time>
      </trkpt>
      <trkpt lat="43.28502" lon="-3.84996">
        <ele>276</ele>
        <time>2023-07-13T03:44:33.000+02:00</time>
      </trkpt>
      <trkpt lat="43.285" lon="-3.84988">
        <ele>276.8</ele>
        <time>2023-07-13T03:44:34.000+02:00</time>
      </trkpt>
      <trkpt lat="43.28498" lon="-3.84977">
        <ele>277.8</ele>
        <time>2023-07-13T03:44:35.000+02:00</time>
      </trkpt>
      <trkpt lat="43.28496" lon="-3.84956">
        <ele>279.3</ele>
        <time>2023-07-13T03:44:38.000+02:00</time>
      </trkpt>
      <trkpt lat="43.28488" lon="-3.84862">
        <ele>287</ele>
        <time>2023-07-13T03:44:48.000+02:00</time>
      </trkpt>
      <trkpt lat="43.28485" lon="-3.84815">
        <ele>291.3</ele>
        <time>2023-07-13T03:44:54.000+02:00</time>
      </trkpt>
      <trkpt lat="43.28485" lon="-3.84791">
        <ele>292</ele>
        <time>2023-07-13T03:44:56.000+02:00</time>
      </trkpt>
      <trkpt lat="43.28486" lon="-3.84766">
        <ele>292.8</ele>
        <time>2023-07-13T03:44:59.000+02:00</time>
      </trkpt>
      <trkpt lat="43.28485" lon="-3.84761">
        <ele>293.3</ele>
        <time>2023-07-13T03:45:00.000+02:00</time>
      </trkpt>
      <trkpt lat="43.28483" lon="-3.84759">
        <ele>294.5</ele>
        <time>2023-07-13T03:45:01.000+02:00</time>
      </trkpt>
      <trkpt lat="43.28481" lon="-3.84759">
        <ele>295.5</ele>
        <time>2023-07-13T03:45:01.000+02:00</time>
      </trkpt>
      <trkpt lat="43.28479" lon="-3.84761">
        <ele>296.5</ele>
        <time>2023-07-13T03:45:02.000+02:00</time>
      </trkpt>
      <trkpt lat="43.28477" lon="-3.84766">
        <ele>297</ele>
        <time>2023-07-13T03:45:03.000+02:00</time>
      </trkpt>
      <trkpt lat="43.28473" lon="-3.84794">
        <ele>298</ele>
        <time>2023-07-13T03:45:06.000+02:00</time>
      </trkpt>
      <trkpt lat="43.28469" lon="-3.84819">
        <ele>299.3</ele>
        <time>2023-07-13T03:45:09.000+02:00</time>
      </trkpt>
      <trkpt lat="43.28462" lon="-3.84878">
        <ele>300</ele>
        <time>2023-07-13T03:45:16.000+02:00</time>
      </trkpt>
      <trkpt lat="43.28459" lon="-3.84885">
        <ele>301</ele>
        <time>2023-07-13T03:45:17.000+02:00</time>
      </trkpt>
      <trkpt lat="43.28455" lon="-3.8489">
        <ele>302.5</ele>
        <time>2023-07-13T03:45:18.000+02:00</time>
      </trkpt>
      <trkpt lat="43.28453" lon="-3.84895">
        <ele>303.8</ele>
        <time>2023-07-13T03:45:18.000+02:00</time>
      </trkpt>
      <trkpt lat="43.28451" lon="-3.84902">
        <ele>304.5</ele>
        <time>2023-07-13T03:45:19.000+02:00</time>
      </trkpt>
      <trkpt lat="43.28448" lon="-3.8492">
        <ele>304.8</ele>
        <time>2023-07-13T03:45:21.000+02:00</time>
      </trkpt>
      <trkpt lat="43.28446" lon="-3.84928">
        <ele>306</ele>
        <time>2023-07-13T03:45:22.000+02:00</time>
      </trkpt>
      <trkpt lat="43.28438" lon="-3.84952">
        <ele>310.8</ele>
        <time>2023-07-13T03:45:25.000+02:00</time>
      </trkpt>
      <trkpt lat="43.28435" lon="-3.84966">
        <ele>312.5</ele>
        <time>2023-07-13T03:45:27.000+02:00</time>
      </trkpt>
      <trkpt lat="43.28434" lon="-3.84988">
        <ele>313.3</ele>
        <time>2023-07-13T03:45:29.000+02:00</time>
      </trkpt>
      <trkpt lat="43.28433" lon="-3.84996">
        <ele>314</ele>
        <time>2023-07-13T03:45:30.000+02:00</time>
      </trkpt>
      <trkpt lat="43.28425" lon="-3.85027">
        <ele>317</ele>
        <time>2023-07-13T03:45:34.000+02:00</time>
      </trkpt>
      <trkpt lat="43.28422" lon="-3.85041">
        <ele>317.5</ele>
        <time>2023-07-13T03:45:35.000+02:00</time>
      </trkpt>
      <trkpt lat="43.2842" lon="-3.85047">
        <ele>318.3</ele>
        <time>2023-07-13T03:45:36.000+02:00</time>
      </trkpt>
      <trkpt lat="43.28404" lon="-3.85081">
        <ele>325.8</ele>
        <time>2023-07-13T03:45:40.000+02:00</time>
      </trkpt>
      <trkpt lat="43.28395" lon="-3.85099">
        <ele>329.8</ele>
        <time>2023-07-13T03:45:43.000+02:00</time>
      </trkpt>
      <trkpt lat="43.28387" lon="-3.8512">
        <ele>333.5</ele>
        <time>2023-07-13T03:45:46.000+02:00</time>
      </trkpt>
      <trkpt lat="43.28376" lon="-3.85141">
        <ele>338</ele>
        <time>2023-07-13T03:45:48.000+02:00</time>
      </trkpt>
      <trkpt lat="43.28373" lon="-3.85149">
        <ele>339.5</ele>
        <time>2023-07-13T03:45:49.000+02:00</time>
      </trkpt>
      <trkpt lat="43.28364" lon="-3.85177">
        <ele>342.5</ele>
        <time>2023-07-13T03:45:53.000+02:00</time>
      </trkpt>
      <trkpt lat="43.28343" lon="-3.85224">
        <ele>349</ele>
        <time>2023-07-13T03:45:59.000+02:00</time>
      </trkpt>
      <trkpt lat="43.2834" lon="-3.85226">
        <ele>349.8</ele>
        <time>2023-07-13T03:46:00.000+02:00</time>
      </trkpt>
      <trkpt lat="43.28338" lon="-3.85226">
        <ele>350.5</ele>
        <time>2023-07-13T03:46:01.000+02:00</time>
      </trkpt>
      <trkpt lat="43.28337" lon="-3.85225">
        <ele>351.3</ele>
        <time>2023-07-13T03:46:01.000+02:00</time>
      </trkpt>
      <trkpt lat="43.28335" lon="-3.85223">
        <ele>352</ele>
        <time>2023-07-13T03:46:01.000+02:00</time>
      </trkpt>
      <trkpt lat="43.28334" lon="-3.8522">
        <ele>352.8</ele>
        <time>2023-07-13T03:46:02.000+02:00</time>
      </trkpt>
      <trkpt lat="43.28335" lon="-3.85216">
        <ele>353</ele>
        <time>2023-07-13T03:46:03.000+02:00</time>
      </trkpt>
      <trkpt lat="43.28337" lon="-3.85205">
        <ele>353.3</ele>
        <time>2023-07-13T03:46:04.000+02:00</time>
      </trkpt>
      <trkpt lat="43.28342" lon="-3.85182">
        <ele>352.8</ele>
        <time>2023-07-13T03:46:07.000+02:00</time>
      </trkpt>
      <trkpt lat="43.28343" lon="-3.85173">
        <ele>353.3</ele>
        <time>2023-07-13T03:46:08.000+02:00</time>
      </trkpt>
      <trkpt lat="43.28342" lon="-3.85161">
        <ele>355</ele>
        <time>2023-07-13T03:46:09.000+02:00</time>
      </trkpt>
      <trkpt lat="43.28338" lon="-3.85139">
        <ele>359.3</ele>
        <time>2023-07-13T03:46:12.000+02:00</time>
      </trkpt>
      <trkpt lat="43.28338" lon="-3.85128">
        <ele>360.5</ele>
        <time>2023-07-13T03:46:13.000+02:00</time>
      </trkpt>
      <trkpt lat="43.28338" lon="-3.85118">
        <ele>361.5</ele>
        <time>2023-07-13T03:46:14.000+02:00</time>
      </trkpt>
      <trkpt lat="43.2834" lon="-3.85093">
        <ele>362.8</ele>
        <time>2023-07-13T03:46:17.000+02:00</time>
      </trkpt>
      <trkpt lat="43.28341" lon="-3.85081">
        <ele>363.5</ele>
        <time>2023-07-13T03:46:18.000+02:00</time>
      </trkpt>
      <trkpt lat="43.28339" lon="-3.85074">
        <ele>365</ele>
        <time>2023-07-13T03:46:19.000+02:00</time>
      </trkpt>
      <trkpt lat="43.28337" lon="-3.8507">
        <ele>367.3</ele>
        <time>2023-07-13T03:46:20.000+02:00</time>
      </trkpt>
      <trkpt lat="43.28331" lon="-3.85096">
        <ele>368.3</ele>
        <time>2023-07-13T03:46:23.000+02:00</time>
      </trkpt>
      <trkpt lat="43.28319" lon="-3.85125">
        <ele>372.3</ele>
        <time>2023-07-13T03:46:26.000+02:00</time>
      </trkpt>
      <trkpt lat="43.28316" lon="-3.85144">
        <ele>372.5</ele>
        <time>2023-07-13T03:46:29.000+02:00</time>
      </trkpt>
      <trkpt lat="43.28313" lon="-3.85172">
        <ele>371.5</ele>
        <time>2023-07-13T03:46:32.000+02:00</time>
      </trkpt>
      <trkpt lat="43.28311" lon="-3.85183">
        <ele>371.3</ele>
        <time>2023-07-13T03:46:33.000+02:00</time>
      </trkpt>
      <trkpt lat="43.28308" lon="-3.85194">
        <ele>371.8</ele>
        <time>2023-07-13T03:46:34.000+02:00</time>
      </trkpt>
      <trkpt lat="43.28304" lon="-3.85205">
        <ele>372.5</ele>
        <time>2023-07-13T03:46:36.000+02:00</time>
      </trkpt>
      <trkpt lat="43.28296" lon="-3.85224">
        <ele>374.5</ele>
        <time>2023-07-13T03:46:38.000+02:00</time>
      </trkpt>
      <trkpt lat="43.28289" lon="-3.85246">
        <ele>375.8</ele>
        <time>2023-07-13T03:46:41.000+02:00</time>
      </trkpt>
      <trkpt lat="43.28287" lon="-3.85255">
        <ele>375.8</ele>
        <time>2023-07-13T03:46:42.000+02:00</time>
      </trkpt>
      <trkpt lat="43.28285" lon="-3.85276">
        <ele>375.5</ele>
        <time>2023-07-13T03:46:44.000+02:00</time>
      </trkpt>
      <trkpt lat="43.28283" lon="-3.85286">
        <ele>376</ele>
        <time>2023-07-13T03:46:45.000+02:00</time>
      </trkpt>
      <trkpt lat="43.28274" lon="-3.8531">
        <ele>378.5</ele>
        <time>2023-07-13T03:46:48.000+02:00</time>
      </trkpt>
      <trkpt lat="43.28259" lon="-3.85375">
        <ele>380.3</ele>
        <time>2023-07-13T03:46:56.000+02:00</time>
      </trkpt>
      <trkpt lat="43.28246" lon="-3.85419">
        <ele>382.3</ele>
        <time>2023-07-13T03:47:01.000+02:00</time>
      </trkpt>
      <trkpt lat="43.28239" lon="-3.85438">
        <ele>386</ele>
        <time>2023-07-13T03:47:04.000+02:00</time>
      </trkpt>
      <trkpt lat="43.28233" lon="-3.85452">
        <ele>389.5</ele>
        <time>2023-07-13T03:47:05.000+02:00</time>
      </trkpt>
      <trkpt lat="43.28227" lon="-3.85471">
        <ele>392.5</ele>
        <time>2023-07-13T03:47:08.000+02:00</time>
      </trkpt>
      <trkpt lat="43.28225" lon="-3.85483">
        <ele>393.3</ele>
        <time>2023-07-13T03:47:09.000+02:00</time>
      </trkpt>
      <trkpt lat="43.28225" lon="-3.85495">
        <ele>393.5</ele>
        <time>2023-07-13T03:47:10.000+02:00</time>
      </trkpt>
      <trkpt lat="43.28225" lon="-3.85505">
        <ele>393.5</ele>
        <time>2023-07-13T03:47:12.000+02:00</time>
      </trkpt>
      <trkpt lat="43.28226" lon="-3.85518">
        <ele>393.3</ele>
        <time>2023-07-13T03:47:13.000+02:00</time>
      </trkpt>
      <trkpt lat="43.28231" lon="-3.85537">
        <ele>391.5</ele>
        <time>2023-07-13T03:47:15.000+02:00</time>
      </trkpt>
      <trkpt lat="43.28233" lon="-3.85543">
        <ele>390.5</ele>
        <time>2023-07-13T03:47:16.000+02:00</time>
      </trkpt>
      <trkpt lat="43.28238" lon="-3.85551">
        <ele>388.3</ele>
        <time>2023-07-13T03:47:17.000+02:00</time>
      </trkpt>
      <trkpt lat="43.2824" lon="-3.85556">
        <ele>387.5</ele>
        <time>2023-07-13T03:47:18.000+02:00</time>
      </trkpt>
      <trkpt lat="43.28241" lon="-3.85561">
        <ele>387.3</ele>
        <time>2023-07-13T03:47:18.000+02:00</time>
      </trkpt>
      <trkpt lat="43.28241" lon="-3.85567">
        <ele>387.5</ele>
        <time>2023-07-13T03:47:19.000+02:00</time>
      </trkpt>
      <trkpt lat="43.2824" lon="-3.85581">
        <ele>388.8</ele>
        <time>2023-07-13T03:47:21.000+02:00</time>
      </trkpt>
      <trkpt lat="43.28238" lon="-3.85593">
        <ele>390.5</ele>
        <time>2023-07-13T03:47:22.000+02:00</time>
      </trkpt>
      <trkpt lat="43.28235" lon="-3.85603">
        <ele>392.3</ele>
        <time>2023-07-13T03:47:23.000+02:00</time>
      </trkpt>
      <trkpt lat="43.28231" lon="-3.85612">
        <ele>394.8</ele>
        <time>2023-07-13T03:47:24.000+02:00</time>
      </trkpt>
      <trkpt lat="43.28229" lon="-3.85616">
        <ele>395.3</ele>
        <time>2023-07-13T03:47:25.000+02:00</time>
      </trkpt>
      <trkpt lat="43.2823" lon="-3.85621">
        <ele>395.5</ele>
        <time>2023-07-13T03:47:26.000+02:00</time>
      </trkpt>
      <trkpt lat="43.28233" lon="-3.85645">
        <ele>394.3</ele>
        <time>2023-07-13T03:47:29.000+02:00</time>
      </trkpt>
      <trkpt lat="43.28234" lon="-3.8566">
        <ele>394.5</ele>
        <time>2023-07-13T03:47:31.000+02:00</time>
      </trkpt>
      <trkpt lat="43.28234" lon="-3.85669">
        <ele>395</ele>
        <time>2023-07-13T03:47:32.000+02:00</time>
      </trkpt>
      <trkpt lat="43.28225" lon="-3.85705">
        <ele>401.5</ele>
        <time>2023-07-13T03:47:36.000+02:00</time>
      </trkpt>
      <trkpt lat="43.28223" lon="-3.85721">
        <ele>403</ele>
        <time>2023-07-13T03:47:38.000+02:00</time>
      </trkpt>
      <trkpt lat="43.28223" lon="-3.8574">
        <ele>404</ele>
        <time>2023-07-13T03:47:40.000+02:00</time>
      </trkpt>
      <trkpt lat="43.28224" lon="-3.85763">
        <ele>405.8</ele>
        <time>2023-07-13T03:47:43.000+02:00</time>
      </trkpt>
      <trkpt lat="43.28226" lon="-3.85772">
        <ele>405.8</ele>
        <time>2023-07-13T03:47:44.000+02:00</time>
      </trkpt>
      <trkpt lat="43.28234" lon="-3.85787">
        <ele>403.5</ele>
        <time>2023-07-13T03:47:46.000+02:00</time>
      </trkpt>
      <trkpt lat="43.28237" lon="-3.85791">
        <ele>402.8</ele>
        <time>2023-07-13T03:47:47.000+02:00</time>
      </trkpt>
      <trkpt lat="43.28244" lon="-3.85795">
        <ele>400.5</ele>
        <time>2023-07-13T03:47:48.000+02:00</time>
      </trkpt>
      <trkpt lat="43.28261" lon="-3.85805">
        <ele>395.5</ele>
        <time>2023-07-13T03:47:51.000+02:00</time>
      </trkpt>
      <trkpt lat="43.28267" lon="-3.8581">
        <ele>394</ele>
        <time>2023-07-13T03:47:52.000+02:00</time>
      </trkpt>
      <trkpt lat="43.2827" lon="-3.85816">
        <ele>393.5</ele>
        <time>2023-07-13T03:47:53.000+02:00</time>
      </trkpt>
      <trkpt lat="43.28273" lon="-3.85823">
        <ele>393.3</ele>
        <time>2023-07-13T03:47:54.000+02:00</time>
      </trkpt>
      <trkpt lat="43.28275" lon="-3.85834">
        <ele>393.5</ele>
        <time>2023-07-13T03:47:55.000+02:00</time>
      </trkpt>
      <trkpt lat="43.28275" lon="-3.85845">
        <ele>393.8</ele>
        <time>2023-07-13T03:47:57.000+02:00</time>
      </trkpt>
      <trkpt lat="43.28275" lon="-3.85856">
        <ele>394</ele>
        <time>2023-07-13T03:47:58.000+02:00</time>
      </trkpt>
      <trkpt lat="43.28274" lon="-3.85865">
        <ele>394.8</ele>
        <time>2023-07-13T03:47:59.000+02:00</time>
      </trkpt>
      <trkpt lat="43.28272" lon="-3.8587">
        <ele>395.8</ele>
        <time>2023-07-13T03:47:59.000+02:00</time>
      </trkpt>
      <trkpt lat="43.28265" lon="-3.85881">
        <ele>398.3</ele>
        <time>2023-07-13T03:48:01.000+02:00</time>
      </trkpt>
      <trkpt lat="43.28263" lon="-3.85886">
        <ele>399.3</ele>
        <time>2023-07-13T03:48:02.000+02:00</time>
      </trkpt>
      <trkpt lat="43.28262" lon="-3.85894">
        <ele>400.3</ele>
        <time>2023-07-13T03:48:03.000+02:00</time>
      </trkpt>
      <trkpt lat="43.28258" lon="-3.85927">
        <ele>402.8</ele>
        <time>2023-07-13T03:48:06.000+02:00</time>
      </trkpt>
      <trkpt lat="43.28253" lon="-3.8595">
        <ele>404.8</ele>
        <time>2023-07-13T03:48:09.000+02:00</time>
      </trkpt>
      <trkpt lat="43.28252" lon="-3.85955">
        <ele>405.5</ele>
        <time>2023-07-13T03:48:10.000+02:00</time>
      </trkpt>
      <trkpt lat="43.28248" lon="-3.85962">
        <ele>407.3</ele>
        <time>2023-07-13T03:48:11.000+02:00</time>
      </trkpt>
      <trkpt lat="43.2824" lon="-3.85973">
        <ele>411.8</ele>
        <time>2023-07-13T03:48:13.000+02:00</time>
      </trkpt>
      <trkpt lat="43.28237" lon="-3.85978">
        <ele>414</ele>
        <time>2023-07-13T03:48:14.000+02:00</time>
      </trkpt>
      <trkpt lat="43.28235" lon="-3.85986">
        <ele>415</ele>
        <time>2023-07-13T03:48:15.000+02:00</time>
      </trkpt>
      <trkpt lat="43.28235" lon="-3.85992">
        <ele>415</ele>
        <time>2023-07-13T03:48:16.000+02:00</time>
      </trkpt>
      <trkpt lat="43.28239" lon="-3.86012">
        <ele>413.8</ele>
        <time>2023-07-13T03:48:18.000+02:00</time>
      </trkpt>
      <trkpt lat="43.28247" lon="-3.86036">
        <ele>411</ele>
        <time>2023-07-13T03:48:21.000+02:00</time>
      </trkpt>
      <trkpt lat="43.2825" lon="-3.86044">
        <ele>409.8</ele>
        <time>2023-07-13T03:48:22.000+02:00</time>
      </trkpt>
      <trkpt lat="43.28252" lon="-3.86051">
        <ele>409.5</ele>
        <time>2023-07-13T03:48:23.000+02:00</time>
      </trkpt>
      <trkpt lat="43.28259" lon="-3.86104">
        <ele>408.8</ele>
        <time>2023-07-13T03:48:29.000+02:00</time>
      </trkpt>
      <trkpt lat="43.28258" lon="-3.8611">
        <ele>408.8</ele>
        <time>2023-07-13T03:48:30.000+02:00</time>
      </trkpt>
      <trkpt lat="43.28257" lon="-3.86115">
        <ele>409.3</ele>
        <time>2023-07-13T03:48:31.000+02:00</time>
      </trkpt>
      <trkpt lat="43.28251" lon="-3.86126">
        <ele>412.5</ele>
        <time>2023-07-13T03:48:32.000+02:00</time>
      </trkpt>
      <trkpt lat="43.28248" lon="-3.86135">
        <ele>413.8</ele>
        <time>2023-07-13T03:48:33.000+02:00</time>
      </trkpt>
      <trkpt lat="43.28247" lon="-3.86142">
        <ele>414.3</ele>
        <time>2023-07-13T03:48:34.000+02:00</time>
      </trkpt>
      <trkpt lat="43.28248" lon="-3.86151">
        <ele>414</ele>
        <time>2023-07-13T03:48:35.000+02:00</time>
      </trkpt>
      <trkpt lat="43.2825" lon="-3.86161">
        <ele>412.8</ele>
        <time>2023-07-13T03:48:36.000+02:00</time>
      </trkpt>
      <trkpt lat="43.28253" lon="-3.8618">
        <ele>411.5</ele>
        <time>2023-07-13T03:48:39.000+02:00</time>
      </trkpt>
      <trkpt lat="43.28253" lon="-3.86186">
        <ele>411.3</ele>
        <time>2023-07-13T03:48:40.000+02:00</time>
      </trkpt>
      <trkpt lat="43.28251" lon="-3.8621">
        <ele>411.8</ele>
        <time>2023-07-13T03:48:43.000+02:00</time>
      </trkpt>
      <trkpt lat="43.2825" lon="-3.86241">
        <ele>412</ele>
        <time>2023-07-13T03:48:46.000+02:00</time>
      </trkpt>
      <trkpt lat="43.28249" lon="-3.86248">
        <ele>412.8</ele>
        <time>2023-07-13T03:48:47.000+02:00</time>
      </trkpt>
      <trkpt lat="43.28246" lon="-3.86256">
        <ele>414.3</ele>
        <time>2023-07-13T03:48:48.000+02:00</time>
      </trkpt>
      <trkpt lat="43.28243" lon="-3.86262">
        <ele>416.3</ele>
        <time>2023-07-13T03:48:49.000+02:00</time>
      </trkpt>
      <trkpt lat="43.28234" lon="-3.86275">
        <ele>421.8</ele>
        <time>2023-07-13T03:48:51.000+02:00</time>
      </trkpt>
      <trkpt lat="43.2823" lon="-3.86284">
        <ele>424</ele>
        <time>2023-07-13T03:48:52.000+02:00</time>
      </trkpt>
      <trkpt lat="43.28227" lon="-3.86292">
        <ele>425.3</ele>
        <time>2023-07-13T03:48:53.000+02:00</time>
      </trkpt>
      <trkpt lat="43.28226" lon="-3.86301">
        <ele>426</ele>
        <time>2023-07-13T03:48:54.000+02:00</time>
      </trkpt>
      <trkpt lat="43.28227" lon="-3.86312">
        <ele>426</ele>
        <time>2023-07-13T03:48:55.000+02:00</time>
      </trkpt>
      <trkpt lat="43.28229" lon="-3.86331">
        <ele>425.3</ele>
        <time>2023-07-13T03:48:57.000+02:00</time>
      </trkpt>
      <trkpt lat="43.28229" lon="-3.86339">
        <ele>425.5</ele>
        <time>2023-07-13T03:48:58.000+02:00</time>
      </trkpt>
      <trkpt lat="43.28225" lon="-3.86361">
        <ele>429</ele>
        <time>2023-07-13T03:49:01.000+02:00</time>
      </trkpt>
      <trkpt lat="43.28226" lon="-3.86366">
        <ele>429.3</ele>
        <time>2023-07-13T03:49:01.000+02:00</time>
      </trkpt>
      <trkpt lat="43.28227" lon="-3.8637">
        <ele>428.8</ele>
        <time>2023-07-13T03:49:02.000+02:00</time>
      </trkpt>
      <trkpt lat="43.28242" lon="-3.86397">
        <ele>422.8</ele>
        <time>2023-07-13T03:49:06.000+02:00</time>
      </trkpt>
      <trkpt lat="43.28244" lon="-3.86402">
        <ele>422</ele>
        <time>2023-07-13T03:49:07.000+02:00</time>
      </trkpt>
      <trkpt lat="43.28245" lon="-3.86407">
        <ele>422</ele>
        <time>2023-07-13T03:49:08.000+02:00</time>
      </trkpt>
      <trkpt lat="43.28252" lon="-3.86495">
        <ele>426.5</ele>
        <time>2023-07-13T03:49:18.000+02:00</time>
      </trkpt>
      <trkpt lat="43.28253" lon="-3.86511">
        <ele>427</ele>
        <time>2023-07-13T03:49:20.000+02:00</time>
      </trkpt>
      <trkpt lat="43.28252" lon="-3.86537">
        <ele>429</ele>
        <time>2023-07-13T03:49:22.000+02:00</time>
      </trkpt>
      <trkpt lat="43.28244" lon="-3.86609">
        <ele>436.3</ele>
        <time>2023-07-13T03:49:31.000+02:00</time>
      </trkpt>
      <trkpt lat="43.28243" lon="-3.86624">
        <ele>436.3</ele>
        <time>2023-07-13T03:49:32.000+02:00</time>
      </trkpt>
      <trkpt lat="43.28244" lon="-3.86652">
        <ele>435.5</ele>
        <time>2023-07-13T03:49:35.000+02:00</time>
      </trkpt>
      <trkpt lat="43.28243" lon="-3.86677">
        <ele>435.3</ele>
        <time>2023-07-13T03:49:38.000+02:00</time>
      </trkpt>
      <trkpt lat="43.28241" lon="-3.8669">
        <ele>435</ele>
        <time>2023-07-13T03:49:40.000+02:00</time>
      </trkpt>
      <trkpt lat="43.2823" lon="-3.86737">
        <ele>436.5</ele>
        <time>2023-07-13T03:49:45.000+02:00</time>
      </trkpt>
      <trkpt lat="43.28225" lon="-3.86749">
        <ele>437.5</ele>
        <time>2023-07-13T03:49:47.000+02:00</time>
      </trkpt>
      <trkpt lat="43.28214" lon="-3.86772">
        <ele>438.8</ele>
        <time>2023-07-13T03:49:50.000+02:00</time>
      </trkpt>
      <trkpt lat="43.28206" lon="-3.86785">
        <ele>440</ele>
        <time>2023-07-13T03:49:52.000+02:00</time>
      </trkpt>
      <trkpt lat="43.28198" lon="-3.86797">
        <ele>441.5</ele>
        <time>2023-07-13T03:49:53.000+02:00</time>
      </trkpt>
      <trkpt lat="43.28178" lon="-3.86834">
        <ele>442.8</ele>
        <time>2023-07-13T03:49:59.000+02:00</time>
      </trkpt>
      <trkpt lat="43.28168" lon="-3.86851">
        <ele>442</ele>
        <time>2023-07-13T03:50:01.000+02:00</time>
      </trkpt>
      <trkpt lat="43.28159" lon="-3.86863">
        <ele>442.3</ele>
        <time>2023-07-13T03:50:03.000+02:00</time>
      </trkpt>
      <trkpt lat="43.28153" lon="-3.8687">
        <ele>442.8</ele>
        <time>2023-07-13T03:50:04.000+02:00</time>
      </trkpt>
      <trkpt lat="43.28108" lon="-3.86916">
        <ele>450.3</ele>
        <time>2023-07-13T03:50:13.000+02:00</time>
      </trkpt>
      <trkpt lat="43.28092" lon="-3.86931">
        <ele>456.5</ele>
        <time>2023-07-13T03:50:16.000+02:00</time>
      </trkpt>
      <trkpt lat="43.28087" lon="-3.86935">
        <ele>458.8</ele>
        <time>2023-07-13T03:50:17.000+02:00</time>
      </trkpt>
      <trkpt lat="43.2807" lon="-3.86943">
        <ele>466.5</ele>
        <time>2023-07-13T03:50:19.000+02:00</time>
      </trkpt>
      <trkpt lat="43.28065" lon="-3.86946">
        <ele>468.5</ele>
        <time>2023-07-13T03:50:20.000+02:00</time>
      </trkpt>
      <trkpt lat="43.28063" lon="-3.86948">
        <ele>469.3</ele>
        <time>2023-07-13T03:50:20.000+02:00</time>
      </trkpt>
      <trkpt lat="43.28061" lon="-3.86952">
        <ele>469.8</ele>
        <time>2023-07-13T03:50:21.000+02:00</time>
      </trkpt>
      <trkpt lat="43.28061" lon="-3.86957">
        <ele>469.3</ele>
        <time>2023-07-13T03:50:22.000+02:00</time>
      </trkpt>
      <trkpt lat="43.28062" lon="-3.86965">
        <ele>468</ele>
        <time>2023-07-13T03:50:23.000+02:00</time>
      </trkpt>
      <trkpt lat="43.28069" lon="-3.86996">
        <ele>461</ele>
        <time>2023-07-13T03:50:27.000+02:00</time>
      </trkpt>
      <trkpt lat="43.28075" lon="-3.87008">
        <ele>458.3</ele>
        <time>2023-07-13T03:50:29.000+02:00</time>
      </trkpt>
      <trkpt lat="43.28081" lon="-3.87018">
        <ele>456.3</ele>
        <time>2023-07-13T03:50:30.000+02:00</time>
      </trkpt>
      <trkpt lat="43.28098" lon="-3.87037">
        <ele>448.8</ele>
        <time>2023-07-13T03:50:33.000+02:00</time>
      </trkpt>
      <trkpt lat="43.28102" lon="-3.87043">
        <ele>447</ele>
        <time>2023-07-13T03:50:34.000+02:00</time>
      </trkpt>
      <trkpt lat="43.28111" lon="-3.8706">
        <ele>443.5</ele>
        <time>2023-07-13T03:50:37.000+02:00</time>
      </trkpt>
      <trkpt lat="43.28114" lon="-3.87065">
        <ele>442.3</ele>
        <time>2023-07-13T03:50:38.000+02:00</time>
      </trkpt>
      <trkpt lat="43.28125" lon="-3.87076">
        <ele>438.5</ele>
        <time>2023-07-13T03:50:40.000+02:00</time>
      </trkpt>
      <trkpt lat="43.28129" lon="-3.87082">
        <ele>437</ele>
        <time>2023-07-13T03:50:41.000+02:00</time>
      </trkpt>
      <trkpt lat="43.28133" lon="-3.8709">
        <ele>435.5</ele>
        <time>2023-07-13T03:50:42.000+02:00</time>
      </trkpt>
      <trkpt lat="43.28134" lon="-3.87098">
        <ele>434.8</ele>
        <time>2023-07-13T03:50:43.000+02:00</time>
      </trkpt>
      <trkpt lat="43.28134" lon="-3.87105">
        <ele>434.5</ele>
        <time>2023-07-13T03:50:44.000+02:00</time>
      </trkpt>
      <trkpt lat="43.28134" lon="-3.87112">
        <ele>434.5</ele>
        <time>2023-07-13T03:50:45.000+02:00</time>
      </trkpt>
      <trkpt lat="43.28132" lon="-3.87119">
        <ele>434.8</ele>
        <time>2023-07-13T03:50:46.000+02:00</time>
      </trkpt>
      <trkpt lat="43.28128" lon="-3.87131">
        <ele>435.8</ele>
        <time>2023-07-13T03:50:47.000+02:00</time>
      </trkpt>
      <trkpt lat="43.28124" lon="-3.8714">
        <ele>436.8</ele>
        <time>2023-07-13T03:50:48.000+02:00</time>
      </trkpt>
      <trkpt lat="43.28117" lon="-3.87149">
        <ele>438.5</ele>
        <time>2023-07-13T03:50:50.000+02:00</time>
      </trkpt>
      <trkpt lat="43.28108" lon="-3.8716">
        <ele>440.3</ele>
        <time>2023-07-13T03:50:52.000+02:00</time>
      </trkpt>
      <trkpt lat="43.28099" lon="-3.87168">
        <ele>441.8</ele>
        <time>2023-07-13T03:50:53.000+02:00</time>
      </trkpt>
      <trkpt lat="43.28092" lon="-3.87172">
        <ele>442.5</ele>
        <time>2023-07-13T03:50:55.000+02:00</time>
      </trkpt>
      <trkpt lat="43.28087" lon="-3.87174">
        <ele>443.3</ele>
        <time>2023-07-13T03:50:56.000+02:00</time>
      </trkpt>
      <trkpt lat="43.28082" lon="-3.87174">
        <ele>444</ele>
        <time>2023-07-13T03:50:57.000+02:00</time>
      </trkpt>
      <trkpt lat="43.28077" lon="-3.87173">
        <ele>444.3</ele>
        <time>2023-07-13T03:50:58.000+02:00</time>
      </trkpt>
      <trkpt lat="43.28073" lon="-3.8717">
        <ele>445</ele>
        <time>2023-07-13T03:50:59.000+02:00</time>
      </trkpt>
      <trkpt lat="43.28057" lon="-3.87158">
        <ele>447.5</ele>
        <time>2023-07-13T03:51:01.000+02:00</time>
      </trkpt>
      <trkpt lat="43.28045" lon="-3.87151">
        <ele>449</ele>
        <time>2023-07-13T03:51:03.000+02:00</time>
      </trkpt>
      <trkpt lat="43.28032" lon="-3.87146">
        <ele>450.8</ele>
        <time>2023-07-13T03:51:05.000+02:00</time>
      </trkpt>
      <trkpt lat="43.2802" lon="-3.87145">
        <ele>451.3</ele>
        <time>2023-07-13T03:51:07.000+02:00</time>
      </trkpt>
      <trkpt lat="43.28005" lon="-3.87146">
        <ele>451.8</ele>
        <time>2023-07-13T03:51:10.000+02:00</time>
      </trkpt>
      <trkpt lat="43.27996" lon="-3.87148">
        <ele>451.8</ele>
        <time>2023-07-13T03:51:11.000+02:00</time>
      </trkpt>
      <trkpt lat="43.27985" lon="-3.87152">
        <ele>451.8</ele>
        <time>2023-07-13T03:51:13.000+02:00</time>
      </trkpt>
      <trkpt lat="43.27965" lon="-3.87163">
        <ele>451.3</ele>
        <time>2023-07-13T03:51:16.000+02:00</time>
      </trkpt>
      <trkpt lat="43.27939" lon="-3.87174">
        <ele>451.5</ele>
        <time>2023-07-13T03:51:20.000+02:00</time>
      </trkpt>
      <trkpt lat="43.27909" lon="-3.87182">
        <ele>452.8</ele>
        <time>2023-07-13T03:51:25.000+02:00</time>
      </trkpt>
      <trkpt lat="43.27888" lon="-3.87196">
        <ele>450.8</ele>
        <time>2023-07-13T03:51:28.000+02:00</time>
      </trkpt>
      <trkpt lat="43.27878" lon="-3.872">
        <ele>450.3</ele>
        <time>2023-07-13T03:51:30.000+02:00</time>
      </trkpt>
      <trkpt lat="43.27858" lon="-3.87206">
        <ele>450.3</ele>
        <time>2023-07-13T03:51:33.000+02:00</time>
      </trkpt>
      <trkpt lat="43.27828" lon="-3.87213">
        <ele>450.5</ele>
        <time>2023-07-13T03:51:38.000+02:00</time>
      </trkpt>
      <trkpt lat="43.27805" lon="-3.87225">
        <ele>448.8</ele>
        <time>2023-07-13T03:51:41.000+02:00</time>
      </trkpt>
      <trkpt lat="43.27798" lon="-3.87228">
        <ele>448.5</ele>
        <time>2023-07-13T03:51:43.000+02:00</time>
      </trkpt>
      <trkpt lat="43.2779" lon="-3.87229">
        <ele>448.5</ele>
        <time>2023-07-13T03:51:44.000+02:00</time>
      </trkpt>
      <trkpt lat="43.27775" lon="-3.87233">
        <ele>448.3</ele>
        <time>2023-07-13T03:51:46.000+02:00</time>
      </trkpt>
      <trkpt lat="43.27769" lon="-3.87231">
        <ele>448.5</ele>
        <time>2023-07-13T03:51:47.000+02:00</time>
      </trkpt>
      <trkpt lat="43.27769" lon="-3.87237">
        <ele>447.8</ele>
        <time>2023-07-13T03:51:48.000+02:00</time>
      </trkpt>
      <trkpt lat="43.27765" lon="-3.87251">
        <ele>446.3</ele>
        <time>2023-07-13T03:51:49.000+02:00</time>
      </trkpt>
      <trkpt lat="43.27757" lon="-3.87274">
        <ele>448</ele>
        <time>2023-07-13T03:51:52.000+02:00</time>
      </trkpt>
      <trkpt lat="43.27755" lon="-3.87284">
        <ele>448.5</ele>
        <time>2023-07-13T03:51:53.000+02:00</time>
      </trkpt>
      <trkpt lat="43.27755" lon="-3.87293">
        <ele>449</ele>
        <time>2023-07-13T03:51:54.000+02:00</time>
      </trkpt>
      <trkpt lat="43.27756" lon="-3.873">
        <ele>449.3</ele>
        <time>2023-07-13T03:51:55.000+02:00</time>
      </trkpt>
      <trkpt lat="43.27759" lon="-3.8731">
        <ele>449.5</ele>
        <time>2023-07-13T03:51:56.000+02:00</time>
      </trkpt>
      <trkpt lat="43.27768" lon="-3.87333">
        <ele>449.5</ele>
        <time>2023-07-13T03:51:59.000+02:00</time>
      </trkpt>
      <trkpt lat="43.2777" lon="-3.87336">
        <ele>449.5</ele>
        <time>2023-07-13T03:52:00.000+02:00</time>
      </trkpt>
      <trkpt lat="43.27799" lon="-3.87388">
        <ele>453.3</ele>
        <time>2023-07-13T03:52:07.000+02:00</time>
      </trkpt>
      <trkpt lat="43.27804" lon="-3.87398">
        <ele>453.8</ele>
        <time>2023-07-13T03:52:08.000+02:00</time>
      </trkpt>
      <trkpt lat="43.27804" lon="-3.87403">
        <ele>454.5</ele>
        <time>2023-07-13T03:52:09.000+02:00</time>
      </trkpt>
      <trkpt lat="43.27803" lon="-3.87411">
        <ele>456</ele>
        <time>2023-07-13T03:52:10.000+02:00</time>
      </trkpt>
      <trkpt lat="43.27799" lon="-3.87414">
        <ele>457.3</ele>
        <time>2023-07-13T03:52:11.000+02:00</time>
      </trkpt>
      <trkpt lat="43.27794" lon="-3.87412">
        <ele>458</ele>
        <time>2023-07-13T03:52:11.000+02:00</time>
      </trkpt>
      <trkpt lat="43.27788" lon="-3.87405">
        <ele>458.3</ele>
        <time>2023-07-13T03:52:12.000+02:00</time>
      </trkpt>
      <trkpt lat="43.27776" lon="-3.87397">
        <ele>459.5</ele>
        <time>2023-07-13T03:52:14.000+02:00</time>
      </trkpt>
      <trkpt lat="43.27752" lon="-3.87391">
        <ele>463.3</ele>
        <time>2023-07-13T03:52:18.000+02:00</time>
      </trkpt>
      <trkpt lat="43.27741" lon="-3.87391">
        <ele>463.3</ele>
        <time>2023-07-13T03:52:20.000+02:00</time>
      </trkpt>
      <trkpt lat="43.27729" lon="-3.87396">
        <ele>463.8</ele>
        <time>2023-07-13T03:52:22.000+02:00</time>
      </trkpt>
      <trkpt lat="43.27718" lon="-3.87403">
        <ele>464.8</ele>
        <time>2023-07-13T03:52:24.000+02:00</time>
      </trkpt>
      <trkpt lat="43.27702" lon="-3.87418">
        <ele>468</ele>
        <time>2023-07-13T03:52:27.000+02:00</time>
      </trkpt>
      <trkpt lat="43.27697" lon="-3.87426">
        <ele>469.5</ele>
        <time>2023-07-13T03:52:28.000+02:00</time>
      </trkpt>
      <trkpt lat="43.27692" lon="-3.87435">
        <ele>471.5</ele>
        <time>2023-07-13T03:52:29.000+02:00</time>
      </trkpt>
      <trkpt lat="43.27686" lon="-3.87439">
        <ele>472.5</ele>
        <time>2023-07-13T03:52:30.000+02:00</time>
      </trkpt>
      <trkpt lat="43.27659" lon="-3.87445">
        <ele>474.5</ele>
        <time>2023-07-13T03:52:34.000+02:00</time>
      </trkpt>
      <trkpt lat="43.27641" lon="-3.87438">
        <ele>473.8</ele>
        <time>2023-07-13T03:52:37.000+02:00</time>
      </trkpt>
      <trkpt lat="43.27627" lon="-3.87436">
        <ele>474</ele>
        <time>2023-07-13T03:52:39.000+02:00</time>
      </trkpt>
      <trkpt lat="43.27602" lon="-3.87435">
        <ele>475.3</ele>
        <time>2023-07-13T03:52:43.000+02:00</time>
      </trkpt>
      <trkpt lat="43.27588" lon="-3.87438">
        <ele>476.8</ele>
        <time>2023-07-13T03:52:45.000+02:00</time>
      </trkpt>
      <trkpt lat="43.27574" lon="-3.87437">
        <ele>477.3</ele>
        <time>2023-07-13T03:52:47.000+02:00</time>
      </trkpt>
      <trkpt lat="43.27549" lon="-3.87432">
        <ele>477.3</ele>
        <time>2023-07-13T03:52:51.000+02:00</time>
      </trkpt>
      <trkpt lat="43.27538" lon="-3.87429">
        <ele>477.3</ele>
        <time>2023-07-13T03:52:53.000+02:00</time>
      </trkpt>
      <trkpt lat="43.27529" lon="-3.87425">
        <ele>477.3</ele>
        <time>2023-07-13T03:52:54.000+02:00</time>
      </trkpt>
      <trkpt lat="43.27514" lon="-3.87412">
        <ele>475.5</ele>
        <time>2023-07-13T03:52:57.000+02:00</time>
      </trkpt>
      <trkpt lat="43.27494" lon="-3.87403">
        <ele>472.8</ele>
        <time>2023-07-13T03:53:00.000+02:00</time>
      </trkpt>
      <trkpt lat="43.27474" lon="-3.87403">
        <ele>470.3</ele>
        <time>2023-07-13T03:53:03.000+02:00</time>
      </trkpt>
      <trkpt lat="43.27449" lon="-3.87407">
        <ele>468.3</ele>
        <time>2023-07-13T03:53:07.000+02:00</time>
      </trkpt>
      <trkpt lat="43.27417" lon="-3.87406">
        <ele>463.5</ele>
        <time>2023-07-13T03:53:12.000+02:00</time>
      </trkpt>
      <trkpt lat="43.27407" lon="-3.87407">
        <ele>459.8</ele>
        <time>2023-07-13T03:53:14.000+02:00</time>
      </trkpt>
      <trkpt lat="43.27394" lon="-3.87419">
        <ele>457.8</ele>
        <time>2023-07-13T03:53:16.000+02:00</time>
      </trkpt>
      <trkpt lat="43.27391" lon="-3.87434">
        <ele>458</ele>
        <time>2023-07-13T03:53:18.000+02:00</time>
      </trkpt>
      <trkpt lat="43.27388" lon="-3.87457">
        <ele>458.8</ele>
        <time>2023-07-13T03:53:20.000+02:00</time>
      </trkpt>
      <trkpt lat="43.27387" lon="-3.87488">
        <ele>460.8</ele>
        <time>2023-07-13T03:53:24.000+02:00</time>
      </trkpt>
      <trkpt lat="43.27388" lon="-3.87524">
        <ele>463.5</ele>
        <time>2023-07-13T03:53:28.000+02:00</time>
      </trkpt>
      <trkpt lat="43.27393" lon="-3.87606">
        <ele>467.3</ele>
        <time>2023-07-13T03:53:37.000+02:00</time>
      </trkpt>
      <trkpt lat="43.27393" lon="-3.87617">
        <ele>466.8</ele>
        <time>2023-07-13T03:53:38.000+02:00</time>
      </trkpt>
      <trkpt lat="43.27391" lon="-3.87627">
        <ele>465.8</ele>
        <time>2023-07-13T03:53:39.000+02:00</time>
      </trkpt>
      <trkpt lat="43.27387" lon="-3.8764">
        <ele>463.8</ele>
        <time>2023-07-13T03:53:41.000+02:00</time>
      </trkpt>
      <trkpt lat="43.27382" lon="-3.87653">
        <ele>462</ele>
        <time>2023-07-13T03:53:43.000+02:00</time>
      </trkpt>
      <trkpt lat="43.27377" lon="-3.87661">
        <ele>460.5</ele>
        <time>2023-07-13T03:53:44.000+02:00</time>
      </trkpt>
      <trkpt lat="43.27371" lon="-3.87668">
        <ele>458.8</ele>
        <time>2023-07-13T03:53:45.000+02:00</time>
      </trkpt>
      <trkpt lat="43.27364" lon="-3.87674">
        <ele>457</ele>
        <time>2023-07-13T03:53:46.000+02:00</time>
      </trkpt>
      <trkpt lat="43.27352" lon="-3.87678">
        <ele>454</ele>
        <time>2023-07-13T03:53:48.000+02:00</time>
      </trkpt>
      <trkpt lat="43.27328" lon="-3.87683">
        <ele>449.3</ele>
        <time>2023-07-13T03:53:52.000+02:00</time>
      </trkpt>
      <trkpt lat="43.2732" lon="-3.87681">
        <ele>449</ele>
        <time>2023-07-13T03:53:53.000+02:00</time>
      </trkpt>
      <trkpt lat="43.27308" lon="-3.87669">
        <ele>447.8</ele>
        <time>2023-07-13T03:53:55.000+02:00</time>
      </trkpt>
      <trkpt lat="43.27293" lon="-3.87651">
        <ele>444.5</ele>
        <time>2023-07-13T03:53:58.000+02:00</time>
      </trkpt>
      <trkpt lat="43.2728" lon="-3.87638">
        <ele>441.5</ele>
        <time>2023-07-13T03:54:01.000+02:00</time>
      </trkpt>
      <trkpt lat="43.27267" lon="-3.87627">
        <ele>438.5</ele>
        <time>2023-07-13T03:54:03.000+02:00</time>
      </trkpt>
      <trkpt lat="43.27256" lon="-3.87622">
        <ele>436.8</ele>
        <time>2023-07-13T03:54:05.000+02:00</time>
      </trkpt>
      <trkpt lat="43.27247" lon="-3.87621">
        <ele>435.3</ele>
        <time>2023-07-13T03:54:06.000+02:00</time>
      </trkpt>
      <trkpt lat="43.27237" lon="-3.87621">
        <ele>433.5</ele>
        <time>2023-07-13T03:54:08.000+02:00</time>
      </trkpt>
      <trkpt lat="43.27226" lon="-3.87626">
        <ele>432.3</ele>
        <time>2023-07-13T03:54:10.000+02:00</time>
      </trkpt>
      <trkpt lat="43.27215" lon="-3.87633">
        <ele>431.5</ele>
        <time>2023-07-13T03:54:11.000+02:00</time>
      </trkpt>
      <trkpt lat="43.27205" lon="-3.87642">
        <ele>431.5</ele>
        <time>2023-07-13T03:54:13.000+02:00</time>
      </trkpt>
      <trkpt lat="43.27198" lon="-3.8765">
        <ele>432</ele>
        <time>2023-07-13T03:54:15.000+02:00</time>
      </trkpt>
      <trkpt lat="43.27192" lon="-3.87655">
        <ele>431.8</ele>
        <time>2023-07-13T03:54:16.000+02:00</time>
      </trkpt>
      <trkpt lat="43.27179" lon="-3.87661">
        <ele>431</ele>
        <time>2023-07-13T03:54:18.000+02:00</time>
      </trkpt>
      <trkpt lat="43.27149" lon="-3.87673">
        <ele>429.5</ele>
        <time>2023-07-13T03:54:23.000+02:00</time>
      </trkpt>
      <trkpt lat="43.27128" lon="-3.87679">
        <ele>428.3</ele>
        <time>2023-07-13T03:54:26.000+02:00</time>
      </trkpt>
      <trkpt lat="43.2712" lon="-3.87679">
        <ele>427.3</ele>
        <time>2023-07-13T03:54:27.000+02:00</time>
      </trkpt>
      <trkpt lat="43.27099" lon="-3.87671">
        <ele>421.5</ele>
        <time>2023-07-13T03:54:31.000+02:00</time>
      </trkpt>
      <trkpt lat="43.27082" lon="-3.87666">
        <ele>417.8</ele>
        <time>2023-07-13T03:54:33.000+02:00</time>
      </trkpt>
      <trkpt lat="43.27058" lon="-3.87663">
        <ele>415</ele>
        <time>2023-07-13T03:54:37.000+02:00</time>
      </trkpt>
      <trkpt lat="43.27038" lon="-3.87658">
        <ele>412.5</ele>
        <time>2023-07-13T03:54:40.000+02:00</time>
      </trkpt>
      <trkpt lat="43.27024" lon="-3.87654">
        <ele>410.3</ele>
        <time>2023-07-13T03:54:42.000+02:00</time>
      </trkpt>
      <trkpt lat="43.26984" lon="-3.87638">
        <ele>400.8</ele>
        <time>2023-07-13T03:54:49.000+02:00</time>
      </trkpt>
      <trkpt lat="43.26972" lon="-3.87636">
        <ele>397.8</ele>
        <time>2023-07-13T03:54:50.000+02:00</time>
      </trkpt>
      <trkpt lat="43.26963" lon="-3.87637">
        <ele>396</ele>
        <time>2023-07-13T03:54:52.000+02:00</time>
      </trkpt>
      <trkpt lat="43.26953" lon="-3.87639">
        <ele>394.5</ele>
        <time>2023-07-13T03:54:53.000+02:00</time>
      </trkpt>
      <trkpt lat="43.26943" lon="-3.87645">
        <ele>393.8</ele>
        <time>2023-07-13T03:54:55.000+02:00</time>
      </trkpt>
      <trkpt lat="43.26931" lon="-3.87656">
        <ele>393.8</ele>
        <time>2023-07-13T03:54:57.000+02:00</time>
      </trkpt>
      <trkpt lat="43.26915" lon="-3.87677">
        <ele>394</ele>
        <time>2023-07-13T03:55:00.000+02:00</time>
      </trkpt>
      <trkpt lat="43.26902" lon="-3.87697">
        <ele>393.5</ele>
        <time>2023-07-13T03:55:03.000+02:00</time>
      </trkpt>
      <trkpt lat="43.26888" lon="-3.87721">
        <ele>393.5</ele>
        <time>2023-07-13T03:55:07.000+02:00</time>
      </trkpt>
      <trkpt lat="43.26877" lon="-3.87737">
        <ele>393</ele>
        <time>2023-07-13T03:55:09.000+02:00</time>
      </trkpt>
      <trkpt lat="43.26867" lon="-3.87748">
        <ele>391.8</ele>
        <time>2023-07-13T03:55:11.000+02:00</time>
      </trkpt>
      <trkpt lat="43.26856" lon="-3.87757">
        <ele>390</ele>
        <time>2023-07-13T03:55:13.000+02:00</time>
      </trkpt>
      <trkpt lat="43.26842" lon="-3.87769">
        <ele>387.8</ele>
        <time>2023-07-13T03:55:16.000+02:00</time>
      </trkpt>
      <trkpt lat="43.26828" lon="-3.87779">
        <ele>385.5</ele>
        <time>2023-07-13T03:55:18.000+02:00</time>
      </trkpt>
      <trkpt lat="43.26816" lon="-3.87784">
        <ele>383.3</ele>
        <time>2023-07-13T03:55:20.000+02:00</time>
      </trkpt>
      <trkpt lat="43.26801" lon="-3.87786">
        <ele>380</ele>
        <time>2023-07-13T03:55:22.000+02:00</time>
      </trkpt>
      <trkpt lat="43.26772" lon="-3.87786">
        <ele>372.5</ele>
        <time>2023-07-13T03:55:27.000+02:00</time>
      </trkpt>
      <trkpt lat="43.26755" lon="-3.87792">
        <ele>368.5</ele>
        <time>2023-07-13T03:55:30.000+02:00</time>
      </trkpt>
      <trkpt lat="43.2674" lon="-3.87804">
        <ele>366.5</ele>
        <time>2023-07-13T03:55:32.000+02:00</time>
      </trkpt>
      <trkpt lat="43.26728" lon="-3.87817">
        <ele>365.5</ele>
        <time>2023-07-13T03:55:34.000+02:00</time>
      </trkpt>
      <trkpt lat="43.26711" lon="-3.87841">
        <ele>364</ele>
        <time>2023-07-13T03:55:38.000+02:00</time>
      </trkpt>
      <trkpt lat="43.26703" lon="-3.87858">
        <ele>363.5</ele>
        <time>2023-07-13T03:55:40.000+02:00</time>
      </trkpt>
      <trkpt lat="43.26694" lon="-3.87871">
        <ele>362.3</ele>
        <time>2023-07-13T03:55:43.000+02:00</time>
      </trkpt>
      <trkpt lat="43.26681" lon="-3.87882">
        <ele>359.8</ele>
        <time>2023-07-13T03:55:45.000+02:00</time>
      </trkpt>
      <trkpt lat="43.26668" lon="-3.87889">
        <ele>357.5</ele>
        <time>2023-07-13T03:55:47.000+02:00</time>
      </trkpt>
      <trkpt lat="43.26659" lon="-3.87891">
        <ele>355</ele>
        <time>2023-07-13T03:55:48.000+02:00</time>
      </trkpt>
      <trkpt lat="43.26633" lon="-3.8789">
        <ele>348</ele>
        <time>2023-07-13T03:55:52.000+02:00</time>
      </trkpt>
      <trkpt lat="43.26622" lon="-3.87892">
        <ele>345</ele>
        <time>2023-07-13T03:55:54.000+02:00</time>
      </trkpt>
      <trkpt lat="43.26612" lon="-3.87895">
        <ele>342.8</ele>
        <time>2023-07-13T03:55:56.000+02:00</time>
      </trkpt>
      <trkpt lat="43.26603" lon="-3.87903">
        <ele>340.8</ele>
        <time>2023-07-13T03:55:57.000+02:00</time>
      </trkpt>
      <trkpt lat="43.26591" lon="-3.87917">
        <ele>339</ele>
        <time>2023-07-13T03:56:00.000+02:00</time>
      </trkpt>
      <trkpt lat="43.26583" lon="-3.87929">
        <ele>335.8</ele>
        <time>2023-07-13T03:56:01.000+02:00</time>
      </trkpt>
      <trkpt lat="43.26574" lon="-3.87953">
        <ele>332.3</ele>
        <time>2023-07-13T03:56:04.000+02:00</time>
      </trkpt>
      <trkpt lat="43.26568" lon="-3.87979">
        <ele>329</ele>
        <time>2023-07-13T03:56:07.000+02:00</time>
      </trkpt>
      <trkpt lat="43.26558" lon="-3.88046">
        <ele>322.5</ele>
        <time>2023-07-13T03:56:15.000+02:00</time>
      </trkpt>
      <trkpt lat="43.26553" lon="-3.88071">
        <ele>319.8</ele>
        <time>2023-07-13T03:56:18.000+02:00</time>
      </trkpt>
      <trkpt lat="43.26545" lon="-3.88103">
        <ele>314.3</ele>
        <time>2023-07-13T03:56:22.000+02:00</time>
      </trkpt>
      <trkpt lat="43.26543" lon="-3.88116">
        <ele>312.3</ele>
        <time>2023-07-13T03:56:23.000+02:00</time>
      </trkpt>
      <trkpt lat="43.26544" lon="-3.88127">
        <ele>311.3</ele>
        <time>2023-07-13T03:56:24.000+02:00</time>
      </trkpt>
      <trkpt lat="43.26545" lon="-3.88133">
        <ele>310.5</ele>
        <time>2023-07-13T03:56:25.000+02:00</time>
      </trkpt>
      <trkpt lat="43.26549" lon="-3.88147">
        <ele>310</ele>
        <time>2023-07-13T03:56:27.000+02:00</time>
      </trkpt>
      <trkpt lat="43.2655" lon="-3.88152">
        <ele>309.3</ele>
        <time>2023-07-13T03:56:28.000+02:00</time>
      </trkpt>
      <trkpt lat="43.26549" lon="-3.88157">
        <ele>308.5</ele>
        <time>2023-07-13T03:56:29.000+02:00</time>
      </trkpt>
      <trkpt lat="43.26546" lon="-3.88161">
        <ele>307.5</ele>
        <time>2023-07-13T03:56:30.000+02:00</time>
      </trkpt>
      <trkpt lat="43.26542" lon="-3.88163">
        <ele>306.5</ele>
        <time>2023-07-13T03:56:31.000+02:00</time>
      </trkpt>
      <trkpt lat="43.2653" lon="-3.88168">
        <ele>303.3</ele>
        <time>2023-07-13T03:56:33.000+02:00</time>
      </trkpt>
      <trkpt lat="43.26524" lon="-3.88167">
        <ele>302</ele>
        <time>2023-07-13T03:56:34.000+02:00</time>
      </trkpt>
      <trkpt lat="43.26473" lon="-3.88152">
        <ele>296</ele>
        <time>2023-07-13T03:56:42.000+02:00</time>
      </trkpt>
      <trkpt lat="43.26455" lon="-3.88154">
        <ele>294.8</ele>
        <time>2023-07-13T03:56:45.000+02:00</time>
      </trkpt>
      <trkpt lat="43.26432" lon="-3.88161">
        <ele>293.3</ele>
        <time>2023-07-13T03:56:48.000+02:00</time>
      </trkpt>
      <trkpt lat="43.26428" lon="-3.88162">
        <ele>293</ele>
        <time>2023-07-13T03:56:49.000+02:00</time>
      </trkpt>
      <trkpt lat="43.26401" lon="-3.88167">
        <ele>292.3</ele>
        <time>2023-07-13T03:56:53.000+02:00</time>
      </trkpt>
      <trkpt lat="43.26346" lon="-3.8818">
        <ele>292.5</ele>
        <time>2023-07-13T03:57:02.000+02:00</time>
      </trkpt>
      <trkpt lat="43.2632" lon="-3.88179">
        <ele>293</ele>
        <time>2023-07-13T03:57:06.000+02:00</time>
      </trkpt>
      <trkpt lat="43.26293" lon="-3.88176">
        <ele>293.5</ele>
        <time>2023-07-13T03:57:10.000+02:00</time>
      </trkpt>
      <trkpt lat="43.26278" lon="-3.88173">
        <ele>293.8</ele>
        <time>2023-07-13T03:57:12.000+02:00</time>
      </trkpt>
      <trkpt lat="43.26264" lon="-3.88159">
        <ele>291.5</ele>
        <time>2023-07-13T03:57:15.000+02:00</time>
      </trkpt>
      <trkpt lat="43.2625" lon="-3.88141">
        <ele>288.8</ele>
        <time>2023-07-13T03:57:18.000+02:00</time>
      </trkpt>
      <trkpt lat="43.26241" lon="-3.88135">
        <ele>288</ele>
        <time>2023-07-13T03:57:19.000+02:00</time>
      </trkpt>
      <trkpt lat="43.26228" lon="-3.88135">
        <ele>288.8</ele>
        <time>2023-07-13T03:57:21.000+02:00</time>
      </trkpt>
      <trkpt lat="43.2621" lon="-3.88136">
        <ele>290.3</ele>
        <time>2023-07-13T03:57:24.000+02:00</time>
      </trkpt>
      <trkpt lat="43.26188" lon="-3.88135">
        <ele>291.3</ele>
        <time>2023-07-13T03:57:27.000+02:00</time>
      </trkpt>
      <trkpt lat="43.26139" lon="-3.88123">
        <ele>289.3</ele>
        <time>2023-07-13T03:57:35.000+02:00</time>
      </trkpt>
      <trkpt lat="43.26125" lon="-3.88123">
        <ele>289.3</ele>
        <time>2023-07-13T03:57:37.000+02:00</time>
      </trkpt>
      <trkpt lat="43.26109" lon="-3.88119">
        <ele>288.3</ele>
        <time>2023-07-13T03:57:40.000+02:00</time>
      </trkpt>
      <trkpt lat="43.26092" lon="-3.8812">
        <ele>288.5</ele>
        <time>2023-07-13T03:57:42.000+02:00</time>
      </trkpt>
      <trkpt lat="43.26066" lon="-3.88123">
        <ele>288.5</ele>
        <time>2023-07-13T03:57:46.000+02:00</time>
      </trkpt>
      <trkpt lat="43.26048" lon="-3.88128">
        <ele>288.5</ele>
        <time>2023-07-13T03:57:49.000+02:00</time>
      </trkpt>
      <trkpt lat="43.26034" lon="-3.88127">
        <ele>288</ele>
        <time>2023-07-13T03:57:51.000+02:00</time>
      </trkpt>
      <trkpt lat="43.26025" lon="-3.88125">
        <ele>287.8</ele>
        <time>2023-07-13T03:57:52.000+02:00</time>
      </trkpt>
      <trkpt lat="43.25992" lon="-3.88105">
        <ele>287.5</ele>
        <time>2023-07-13T03:57:58.000+02:00</time>
      </trkpt>
      <trkpt lat="43.25974" lon="-3.88104">
        <ele>288.5</ele>
        <time>2023-07-13T03:58:01.000+02:00</time>
      </trkpt>
      <trkpt lat="43.25956" lon="-3.88107">
        <ele>289.5</ele>
        <time>2023-07-13T03:58:03.000+02:00</time>
      </trkpt>
      <trkpt lat="43.25944" lon="-3.88114">
        <ele>289.8</ele>
        <time>2023-07-13T03:58:05.000+02:00</time>
      </trkpt>
      <trkpt lat="43.25936" lon="-3.88124">
        <ele>289.8</ele>
        <time>2023-07-13T03:58:07.000+02:00</time>
      </trkpt>
      <trkpt lat="43.25929" lon="-3.88133">
        <ele>289.3</ele>
        <time>2023-07-13T03:58:09.000+02:00</time>
      </trkpt>
      <trkpt lat="43.25911" lon="-3.8815">
        <ele>288</ele>
        <time>2023-07-13T03:58:12.000+02:00</time>
      </trkpt>
      <trkpt lat="43.25905" lon="-3.88157">
        <ele>287</ele>
        <time>2023-07-13T03:58:13.000+02:00</time>
      </trkpt>
      <trkpt lat="43.25896" lon="-3.88168">
        <ele>285.8</ele>
        <time>2023-07-13T03:58:15.000+02:00</time>
      </trkpt>
      <trkpt lat="43.25878" lon="-3.88185">
        <ele>283</ele>
        <time>2023-07-13T03:58:18.000+02:00</time>
      </trkpt>
      <trkpt lat="43.25869" lon="-3.88195">
        <ele>281.8</ele>
        <time>2023-07-13T03:58:20.000+02:00</time>
      </trkpt>
      <trkpt lat="43.25867" lon="-3.88203">
        <ele>280.5</ele>
        <time>2023-07-13T03:58:21.000+02:00</time>
      </trkpt>
      <trkpt lat="43.25885" lon="-3.88228">
        <ele>278.5</ele>
        <time>2023-07-13T03:58:25.000+02:00</time>
      </trkpt>
      <trkpt lat="43.25901" lon="-3.88248">
        <ele>276.8</ele>
        <time>2023-07-13T03:58:28.000+02:00</time>
      </trkpt>
      <trkpt lat="43.25937" lon="-3.88264">
        <ele>277</ele>
        <time>2023-07-13T03:58:34.000+02:00</time>
      </trkpt>
      <trkpt lat="43.25949" lon="-3.88267">
        <ele>277.8</ele>
        <time>2023-07-13T03:58:36.000+02:00</time>
      </trkpt>
      <trkpt lat="43.25959" lon="-3.88265">
        <ele>278.5</ele>
        <time>2023-07-13T03:58:37.000+02:00</time>
      </trkpt>
      <trkpt lat="43.25975" lon="-3.88275">
        <ele>279</ele>
        <time>2023-07-13T03:58:40.000+02:00</time>
      </trkpt>
      <trkpt lat="43.25979" lon="-3.88283">
        <ele>279</ele>
        <time>2023-07-13T03:58:41.000+02:00</time>
      </trkpt>
      <trkpt lat="43.25977" lon="-3.88371">
        <ele>273.3</ele>
        <time>2023-07-13T03:58:51.000+02:00</time>
      </trkpt>
      <trkpt lat="43.2598" lon="-3.88441">
        <ele>269.5</ele>
        <time>2023-07-13T03:58:59.000+02:00</time>
      </trkpt>
      <trkpt lat="43.25964" lon="-3.88448">
        <ele>268.5</ele>
        <time>2023-07-13T03:59:01.000+02:00</time>
      </trkpt>
      <trkpt lat="43.25951" lon="-3.88454">
        <ele>268</ele>
        <time>2023-07-13T03:59:03.000+02:00</time>
      </trkpt>
      <trkpt lat="43.25932" lon="-3.8846">
        <ele>267</ele>
        <time>2023-07-13T03:59:06.000+02:00</time>
      </trkpt>
      <trkpt lat="43.25875" lon="-3.88479">
        <ele>264.3</ele>
        <time>2023-07-13T03:59:15.000+02:00</time>
      </trkpt>
      <trkpt lat="43.25842" lon="-3.88491">
        <ele>262.3</ele>
        <time>2023-07-13T03:59:20.000+02:00</time>
      </trkpt>
      <trkpt lat="43.25811" lon="-3.88504">
        <ele>261.8</ele>
        <time>2023-07-13T03:59:26.000+02:00</time>
      </trkpt>
      <trkpt lat="43.25791" lon="-3.88517">
        <ele>262</ele>
        <time>2023-07-13T03:59:29.000+02:00</time>
      </trkpt>
      <trkpt lat="43.25777" lon="-3.88531">
        <ele>262</ele>
        <time>2023-07-13T03:59:31.000+02:00</time>
      </trkpt>
      <trkpt lat="43.25764" lon="-3.88551">
        <ele>262.3</ele>
        <time>2023-07-13T03:59:34.000+02:00</time>
      </trkpt>
      <trkpt lat="43.25755" lon="-3.88568">
        <ele>262</ele>
        <time>2023-07-13T03:59:37.000+02:00</time>
      </trkpt>
      <trkpt lat="43.25749" lon="-3.88586">
        <ele>262</ele>
        <time>2023-07-13T03:59:39.000+02:00</time>
      </trkpt>
      <trkpt lat="43.25744" lon="-3.88605">
        <ele>262.8</ele>
        <time>2023-07-13T03:59:41.000+02:00</time>
      </trkpt>
      <trkpt lat="43.25741" lon="-3.8862">
        <ele>263.3</ele>
        <time>2023-07-13T03:59:43.000+02:00</time>
      </trkpt>
      <trkpt lat="43.2574" lon="-3.88634">
        <ele>263.8</ele>
        <time>2023-07-13T03:59:45.000+02:00</time>
      </trkpt>
      <trkpt lat="43.25742" lon="-3.88697">
        <ele>263</ele>
        <time>2023-07-13T03:59:52.000+02:00</time>
      </trkpt>
      <trkpt lat="43.25747" lon="-3.88788">
        <ele>258</ele>
        <time>2023-07-13T04:00:02.000+02:00</time>
      </trkpt>
      <trkpt lat="43.25746" lon="-3.88815">
        <ele>256.5</ele>
        <time>2023-07-13T04:00:05.000+02:00</time>
      </trkpt>
      <trkpt lat="43.25743" lon="-3.88838">
        <ele>255</ele>
        <time>2023-07-13T04:00:07.000+02:00</time>
      </trkpt>
      <trkpt lat="43.25738" lon="-3.88855">
        <ele>253.5</ele>
        <time>2023-07-13T04:00:09.000+02:00</time>
      </trkpt>
      <trkpt lat="43.25732" lon="-3.8887">
        <ele>252.3</ele>
        <time>2023-07-13T04:00:11.000+02:00</time>
      </trkpt>
      <trkpt lat="43.25727" lon="-3.88879">
        <ele>251.8</ele>
        <time>2023-07-13T04:00:13.000+02:00</time>
      </trkpt>
      <trkpt lat="43.2572" lon="-3.88891">
        <ele>251</ele>
        <time>2023-07-13T04:00:14.000+02:00</time>
      </trkpt>
      <trkpt lat="43.25709" lon="-3.88908">
        <ele>250</ele>
        <time>2023-07-13T04:00:17.000+02:00</time>
      </trkpt>
      <trkpt lat="43.25682" lon="-3.88942">
        <ele>250.8</ele>
        <time>2023-07-13T04:00:22.000+02:00</time>
      </trkpt>
      <trkpt lat="43.25672" lon="-3.88952">
        <ele>251</ele>
        <time>2023-07-13T04:00:24.000+02:00</time>
      </trkpt>
      <trkpt lat="43.25664" lon="-3.88956">
        <ele>251.3</ele>
        <time>2023-07-13T04:00:26.000+02:00</time>
      </trkpt>
      <trkpt lat="43.25656" lon="-3.8896">
        <ele>252.3</ele>
        <time>2023-07-13T04:00:27.000+02:00</time>
      </trkpt>
      <trkpt lat="43.25627" lon="-3.88967">
        <ele>255.3</ele>
        <time>2023-07-13T04:00:31.000+02:00</time>
      </trkpt>
      <trkpt lat="43.25613" lon="-3.88974">
        <ele>256</ele>
        <time>2023-07-13T04:00:34.000+02:00</time>
      </trkpt>
      <trkpt lat="43.25603" lon="-3.88983">
        <ele>255.8</ele>
        <time>2023-07-13T04:00:35.000+02:00</time>
      </trkpt>
      <trkpt lat="43.25597" lon="-3.8899">
        <ele>255.3</ele>
        <time>2023-07-13T04:00:37.000+02:00</time>
      </trkpt>
      <trkpt lat="43.25591" lon="-3.89002">
        <ele>254.3</ele>
        <time>2023-07-13T04:00:38.000+02:00</time>
      </trkpt>
      <trkpt lat="43.25583" lon="-3.89023">
        <ele>252.8</ele>
        <time>2023-07-13T04:00:41.000+02:00</time>
      </trkpt>
      <trkpt lat="43.25576" lon="-3.89039">
        <ele>253.5</ele>
        <time>2023-07-13T04:00:43.000+02:00</time>
      </trkpt>
      <trkpt lat="43.25568" lon="-3.89052">
        <ele>254.3</ele>
        <time>2023-07-13T04:00:45.000+02:00</time>
      </trkpt>
      <trkpt lat="43.25554" lon="-3.89071">
        <ele>254.8</ele>
        <time>2023-07-13T04:00:48.000+02:00</time>
      </trkpt>
      <trkpt lat="43.25536" lon="-3.8909">
        <ele>255.5</ele>
        <time>2023-07-13T04:00:51.000+02:00</time>
      </trkpt>
      <trkpt lat="43.2553" lon="-3.89102">
        <ele>255.8</ele>
        <time>2023-07-13T04:00:53.000+02:00</time>
      </trkpt>
      <trkpt lat="43.2551" lon="-3.8915">
        <ele>252.3</ele>
        <time>2023-07-13T04:00:59.000+02:00</time>
      </trkpt>
      <trkpt lat="43.25503" lon="-3.8916">
        <ele>251</ele>
        <time>2023-07-13T04:01:01.000+02:00</time>
      </trkpt>
      <trkpt lat="43.25496" lon="-3.89167">
        <ele>250.3</ele>
        <time>2023-07-13T04:01:02.000+02:00</time>
      </trkpt>
      <trkpt lat="43.25487" lon="-3.89173">
        <ele>251.5</ele>
        <time>2023-07-13T04:01:03.000+02:00</time>
      </trkpt>
      <trkpt lat="43.25477" lon="-3.89175">
        <ele>252.3</ele>
        <time>2023-07-13T04:01:05.000+02:00</time>
      </trkpt>
      <trkpt lat="43.25407" lon="-3.89181">
        <ele>257</ele>
        <time>2023-07-13T04:01:16.000+02:00</time>
      </trkpt>
      <trkpt lat="43.25397" lon="-3.8918">
        <ele>257.5</ele>
        <time>2023-07-13T04:01:17.000+02:00</time>
      </trkpt>
      <trkpt lat="43.2539" lon="-3.89177">
        <ele>258</ele>
        <time>2023-07-13T04:01:18.000+02:00</time>
      </trkpt>
      <trkpt lat="43.25367" lon="-3.89153">
        <ele>260.5</ele>
        <time>2023-07-13T04:01:23.000+02:00</time>
      </trkpt>
      <trkpt lat="43.25358" lon="-3.89145">
        <ele>261.5</ele>
        <time>2023-07-13T04:01:25.000+02:00</time>
      </trkpt>
      <trkpt lat="43.2535" lon="-3.89141">
        <ele>261.8</ele>
        <time>2023-07-13T04:01:26.000+02:00</time>
      </trkpt>
      <trkpt lat="43.25345" lon="-3.8914">
        <ele>261.8</ele>
        <time>2023-07-13T04:01:27.000+02:00</time>
      </trkpt>
      <trkpt lat="43.25337" lon="-3.8914">
        <ele>261.8</ele>
        <time>2023-07-13T04:01:28.000+02:00</time>
      </trkpt>
      <trkpt lat="43.25328" lon="-3.8914">
        <ele>262.5</ele>
        <time>2023-07-13T04:01:29.000+02:00</time>
      </trkpt>
      <trkpt lat="43.25328" lon="-3.89155">
        <ele>262.3</ele>
        <time>2023-07-13T04:01:31.000+02:00</time>
      </trkpt>
      <trkpt lat="43.25334" lon="-3.89189">
        <ele>260.3</ele>
        <time>2023-07-13T04:01:35.000+02:00</time>
      </trkpt>
      <trkpt lat="43.25339" lon="-3.89235">
        <ele>259</ele>
        <time>2023-07-13T04:01:40.000+02:00</time>
      </trkpt>
      <trkpt lat="43.25335" lon="-3.89262">
        <ele>259.3</ele>
        <time>2023-07-13T04:01:43.000+02:00</time>
      </trkpt>
      <trkpt lat="43.25336" lon="-3.89276">
        <ele>260</ele>
        <time>2023-07-13T04:01:45.000+02:00</time>
      </trkpt>
      <trkpt lat="43.25338" lon="-3.89294">
        <ele>260.8</ele>
        <time>2023-07-13T04:01:46.000+02:00</time>
      </trkpt>
      <trkpt lat="43.25349" lon="-3.89325">
        <ele>262</ele>
        <time>2023-07-13T04:01:50.000+02:00</time>
      </trkpt>
      <trkpt lat="43.25356" lon="-3.89343">
        <ele>263</ele>
        <time>2023-07-13T04:01:53.000+02:00</time>
      </trkpt>
      <trkpt lat="43.2536" lon="-3.89364">
        <ele>264.5</ele>
        <time>2023-07-13T04:01:55.000+02:00</time>
      </trkpt>
      <trkpt lat="43.25361" lon="-3.89379">
        <ele>265.5</ele>
        <time>2023-07-13T04:01:57.000+02:00</time>
      </trkpt>
      <trkpt lat="43.25357" lon="-3.89411">
        <ele>268</ele>
        <time>2023-07-13T04:02:00.000+02:00</time>
      </trkpt>
      <trkpt lat="43.25355" lon="-3.89425">
        <ele>268.8</ele>
        <time>2023-07-13T04:02:02.000+02:00</time>
      </trkpt>
      <trkpt lat="43.25356" lon="-3.8944">
        <ele>269.5</ele>
        <time>2023-07-13T04:02:04.000+02:00</time>
      </trkpt>
      <trkpt lat="43.25358" lon="-3.89446">
        <ele>270</ele>
        <time>2023-07-13T04:02:04.000+02:00</time>
      </trkpt>
      <trkpt lat="43.25365" lon="-3.89449">
        <ele>270.3</ele>
        <time>2023-07-13T04:02:05.000+02:00</time>
      </trkpt>
      <trkpt lat="43.25371" lon="-3.89445">
        <ele>270</ele>
        <time>2023-07-13T04:02:06.000+02:00</time>
      </trkpt>
      <trkpt lat="43.25381" lon="-3.89429">
        <ele>268.8</ele>
        <time>2023-07-13T04:02:09.000+02:00</time>
      </trkpt>
      <trkpt lat="43.25388" lon="-3.89418">
        <ele>267.8</ele>
        <time>2023-07-13T04:02:10.000+02:00</time>
      </trkpt>
      <trkpt lat="43.25399" lon="-3.89403">
        <ele>266.3</ele>
        <time>2023-07-13T04:02:13.000+02:00</time>
      </trkpt>
      <trkpt lat="43.25406" lon="-3.89395">
        <ele>265.5</ele>
        <time>2023-07-13T04:02:14.000+02:00</time>
      </trkpt>
      <trkpt lat="43.25411" lon="-3.89396">
        <ele>265.5</ele>
        <time>2023-07-13T04:02:15.000+02:00</time>
      </trkpt>
      <trkpt lat="43.25413" lon="-3.89402">
        <ele>266</ele>
        <time>2023-07-13T04:02:16.000+02:00</time>
      </trkpt>
      <trkpt lat="43.25407" lon="-3.89429">
        <ele>268.5</ele>
        <time>2023-07-13T04:02:19.000+02:00</time>
      </trkpt>
      <trkpt lat="43.25398" lon="-3.89474">
        <ele>273.5</ele>
        <time>2023-07-13T04:02:24.000+02:00</time>
      </trkpt>
      <trkpt lat="43.25393" lon="-3.89493">
        <ele>275.3</ele>
        <time>2023-07-13T04:02:26.000+02:00</time>
      </trkpt>
      <trkpt lat="43.25389" lon="-3.89515">
        <ele>277.5</ele>
        <time>2023-07-13T04:02:29.000+02:00</time>
      </trkpt>
      <trkpt lat="43.25382" lon="-3.89531">
        <ele>279</ele>
        <time>2023-07-13T04:02:31.000+02:00</time>
      </trkpt>
      <trkpt lat="43.25361" lon="-3.89562">
        <ele>280</ele>
        <time>2023-07-13T04:02:35.000+02:00</time>
      </trkpt>
      <trkpt lat="43.25359" lon="-3.89575">
        <ele>281</ele>
        <time>2023-07-13T04:02:37.000+02:00</time>
      </trkpt>
      <trkpt lat="43.2535" lon="-3.89592">
        <ele>282.3</ele>
        <time>2023-07-13T04:02:39.000+02:00</time>
      </trkpt>
      <trkpt lat="43.25324" lon="-3.89627">
        <ele>287</ele>
        <time>2023-07-13T04:02:45.000+02:00</time>
      </trkpt>
      <trkpt lat="43.25319" lon="-3.89638">
        <ele>289.5</ele>
        <time>2023-07-13T04:02:46.000+02:00</time>
      </trkpt>
      <trkpt lat="43.25315" lon="-3.89656">
        <ele>293.3</ele>
        <time>2023-07-13T04:02:48.000+02:00</time>
      </trkpt>
      <trkpt lat="43.25319" lon="-3.89666">
        <ele>295</ele>
        <time>2023-07-13T04:02:50.000+02:00</time>
      </trkpt>
      <trkpt lat="43.25325" lon="-3.89673">
        <ele>296</ele>
        <time>2023-07-13T04:02:51.000+02:00</time>
      </trkpt>
      <trkpt lat="43.25335" lon="-3.89673">
        <ele>296.3</ele>
        <time>2023-07-13T04:02:52.000+02:00</time>
      </trkpt>
      <trkpt lat="43.25379" lon="-3.89649">
        <ele>298</ele>
        <time>2023-07-13T04:03:00.000+02:00</time>
      </trkpt>
      <trkpt lat="43.25402" lon="-3.89635">
        <ele>298.5</ele>
        <time>2023-07-13T04:03:03.000+02:00</time>
      </trkpt>
      <trkpt lat="43.2541" lon="-3.89626">
        <ele>298</ele>
        <time>2023-07-13T04:03:05.000+02:00</time>
      </trkpt>
      <trkpt lat="43.25418" lon="-3.89626">
        <ele>299.3</ele>
        <time>2023-07-13T04:03:06.000+02:00</time>
      </trkpt>
      <trkpt lat="43.25423" lon="-3.89631">
        <ele>301</ele>
        <time>2023-07-13T04:03:07.000+02:00</time>
      </trkpt>
      <trkpt lat="43.25425" lon="-3.89644">
        <ele>303.5</ele>
        <time>2023-07-13T04:03:09.000+02:00</time>
      </trkpt>
      <trkpt lat="43.25424" lon="-3.89655">
        <ele>305.5</ele>
        <time>2023-07-13T04:03:10.000+02:00</time>
      </trkpt>
      <trkpt lat="43.25417" lon="-3.8967">
        <ele>307.5</ele>
        <time>2023-07-13T04:03:12.000+02:00</time>
      </trkpt>
      <trkpt lat="43.25406" lon="-3.89695">
        <ele>309.5</ele>
        <time>2023-07-13T04:03:15.000+02:00</time>
      </trkpt>
      <trkpt lat="43.25399" lon="-3.89713">
        <ele>311.5</ele>
        <time>2023-07-13T04:03:17.000+02:00</time>
      </trkpt>
      <trkpt lat="43.2539" lon="-3.89729">
        <ele>313</ele>
        <time>2023-07-13T04:03:20.000+02:00</time>
      </trkpt>
      <trkpt lat="43.25377" lon="-3.89745">
        <ele>314.3</ele>
        <time>2023-07-13T04:03:22.000+02:00</time>
      </trkpt>
      <trkpt lat="43.25364" lon="-3.89757">
        <ele>315</ele>
        <time>2023-07-13T04:03:25.000+02:00</time>
      </trkpt>
      <trkpt lat="43.25354" lon="-3.89773">
        <ele>317</ele>
        <time>2023-07-13T04:03:27.000+02:00</time>
      </trkpt>
      <trkpt lat="43.25343" lon="-3.89794">
        <ele>320.8</ele>
        <time>2023-07-13T04:03:30.000+02:00</time>
      </trkpt>
      <trkpt lat="43.25325" lon="-3.89822">
        <ele>325.8</ele>
        <time>2023-07-13T04:03:34.000+02:00</time>
      </trkpt>
      <trkpt lat="43.25292" lon="-3.89861">
        <ele>330.8</ele>
        <time>2023-07-13T04:03:41.000+02:00</time>
      </trkpt>
      <trkpt lat="43.25283" lon="-3.89875">
        <ele>332.8</ele>
        <time>2023-07-13T04:03:43.000+02:00</time>
      </trkpt>
      <trkpt lat="43.25272" lon="-3.8989">
        <ele>334.8</ele>
        <time>2023-07-13T04:03:45.000+02:00</time>
      </trkpt>
      <trkpt lat="43.2526" lon="-3.89903">
        <ele>336.8</ele>
        <time>2023-07-13T04:03:48.000+02:00</time>
      </trkpt>
      <trkpt lat="43.25252" lon="-3.8991">
        <ele>337.8</ele>
        <time>2023-07-13T04:03:49.000+02:00</time>
      </trkpt>
      <trkpt lat="43.25224" lon="-3.89945">
        <ele>340.3</ele>
        <time>2023-07-13T04:03:55.000+02:00</time>
      </trkpt>
      <trkpt lat="43.25216" lon="-3.89962">
        <ele>341.8</ele>
        <time>2023-07-13T04:03:57.000+02:00</time>
      </trkpt>
      <trkpt lat="43.25198" lon="-3.89995">
        <ele>344.5</ele>
        <time>2023-07-13T04:04:02.000+02:00</time>
      </trkpt>
      <trkpt lat="43.25192" lon="-3.9001">
        <ele>345.3</ele>
        <time>2023-07-13T04:04:04.000+02:00</time>
      </trkpt>
      <trkpt lat="43.2519" lon="-3.90028">
        <ele>346.3</ele>
        <time>2023-07-13T04:04:06.000+02:00</time>
      </trkpt>
      <trkpt lat="43.25193" lon="-3.90066">
        <ele>348.8</ele>
        <time>2023-07-13T04:04:10.000+02:00</time>
      </trkpt>
      <trkpt lat="43.25193" lon="-3.90079">
        <ele>349.5</ele>
        <time>2023-07-13T04:04:11.000+02:00</time>
      </trkpt>
      <trkpt lat="43.25193" lon="-3.90092">
        <ele>350.3</ele>
        <time>2023-07-13T04:04:13.000+02:00</time>
      </trkpt>
      <trkpt lat="43.25192" lon="-3.90104">
        <ele>350.5</ele>
        <time>2023-07-13T04:04:14.000+02:00</time>
      </trkpt>
      <trkpt lat="43.25189" lon="-3.90117">
        <ele>351</ele>
        <time>2023-07-13T04:04:16.000+02:00</time>
      </trkpt>
      <trkpt lat="43.25181" lon="-3.90126">
        <ele>351.8</ele>
        <time>2023-07-13T04:04:17.000+02:00</time>
      </trkpt>
      <trkpt lat="43.25173" lon="-3.90137">
        <ele>353</ele>
        <time>2023-07-13T04:04:19.000+02:00</time>
      </trkpt>
      <trkpt lat="43.25158" lon="-3.90149">
        <ele>355</ele>
        <time>2023-07-13T04:04:21.000+02:00</time>
      </trkpt>
      <trkpt lat="43.25144" lon="-3.90157">
        <ele>356.8</ele>
        <time>2023-07-13T04:04:24.000+02:00</time>
      </trkpt>
      <trkpt lat="43.2513" lon="-3.90163">
        <ele>358.5</ele>
        <time>2023-07-13T04:04:26.000+02:00</time>
      </trkpt>
      <trkpt lat="43.25114" lon="-3.90164">
        <ele>360</ele>
        <time>2023-07-13T04:04:29.000+02:00</time>
      </trkpt>
      <trkpt lat="43.25101" lon="-3.90169">
        <ele>361.8</ele>
        <time>2023-07-13T04:04:31.000+02:00</time>
      </trkpt>
      <trkpt lat="43.25086" lon="-3.90172">
        <ele>364</ele>
        <time>2023-07-13T04:04:33.000+02:00</time>
      </trkpt>
      <trkpt lat="43.25071" lon="-3.90173">
        <ele>365.3</ele>
        <time>2023-07-13T04:04:35.000+02:00</time>
      </trkpt>
      <trkpt lat="43.25039" lon="-3.90182">
        <ele>370</ele>
        <time>2023-07-13T04:04:40.000+02:00</time>
      </trkpt>
      <trkpt lat="43.25026" lon="-3.90184">
        <ele>372</ele>
        <time>2023-07-13T04:04:42.000+02:00</time>
      </trkpt>
      <trkpt lat="43.2501" lon="-3.90185">
        <ele>373.5</ele>
        <time>2023-07-13T04:04:45.000+02:00</time>
      </trkpt>
      <trkpt lat="43.24995" lon="-3.9019">
        <ele>376.5</ele>
        <time>2023-07-13T04:04:47.000+02:00</time>
      </trkpt>
      <trkpt lat="43.24977" lon="-3.90189">
        <ele>378.3</ele>
        <time>2023-07-13T04:04:50.000+02:00</time>
      </trkpt>
      <trkpt lat="43.24959" lon="-3.90191">
        <ele>381</ele>
        <time>2023-07-13T04:04:52.000+02:00</time>
      </trkpt>
      <trkpt lat="43.24946" lon="-3.90189">
        <ele>381.5</ele>
        <time>2023-07-13T04:04:54.000+02:00</time>
      </trkpt>
      <trkpt lat="43.24932" lon="-3.90182">
        <ele>381.5</ele>
        <time>2023-07-13T04:04:57.000+02:00</time>
      </trkpt>
      <trkpt lat="43.2492" lon="-3.90181">
        <ele>382.5</ele>
        <time>2023-07-13T04:04:59.000+02:00</time>
      </trkpt>
      <trkpt lat="43.24897" lon="-3.90181">
        <ele>386.3</ele>
        <time>2023-07-13T04:05:02.000+02:00</time>
      </trkpt>
      <trkpt lat="43.24883" lon="-3.90182">
        <ele>388.8</ele>
        <time>2023-07-13T04:05:04.000+02:00</time>
      </trkpt>
      <trkpt lat="43.24872" lon="-3.90181">
        <ele>390.5</ele>
        <time>2023-07-13T04:05:06.000+02:00</time>
      </trkpt>
      <trkpt lat="43.24861" lon="-3.90176">
        <ele>391.3</ele>
        <time>2023-07-13T04:05:08.000+02:00</time>
      </trkpt>
      <trkpt lat="43.24837" lon="-3.90165">
        <ele>392.8</ele>
        <time>2023-07-13T04:05:12.000+02:00</time>
      </trkpt>
      <trkpt lat="43.24828" lon="-3.90158">
        <ele>392.5</ele>
        <time>2023-07-13T04:05:13.000+02:00</time>
      </trkpt>
      <trkpt lat="43.24803" lon="-3.90142">
        <ele>391.8</ele>
        <time>2023-07-13T04:05:17.000+02:00</time>
      </trkpt>
      <trkpt lat="43.24794" lon="-3.90145">
        <ele>393.5</ele>
        <time>2023-07-13T04:05:19.000+02:00</time>
      </trkpt>
      <trkpt lat="43.2479" lon="-3.90157">
        <ele>396</ele>
        <time>2023-07-13T04:05:20.000+02:00</time>
      </trkpt>
      <trkpt lat="43.24794" lon="-3.90169">
        <ele>398.3</ele>
        <time>2023-07-13T04:05:22.000+02:00</time>
      </trkpt>
      <trkpt lat="43.24802" lon="-3.90182">
        <ele>400.3</ele>
        <time>2023-07-13T04:05:24.000+02:00</time>
      </trkpt>
      <trkpt lat="43.24824" lon="-3.90206">
        <ele>404</ele>
        <time>2023-07-13T04:05:28.000+02:00</time>
      </trkpt>
      <trkpt lat="43.24834" lon="-3.90221">
        <ele>406.8</ele>
        <time>2023-07-13T04:05:30.000+02:00</time>
      </trkpt>
      <trkpt lat="43.24845" lon="-3.90229">
        <ele>407</ele>
        <time>2023-07-13T04:05:32.000+02:00</time>
      </trkpt>
      <trkpt lat="43.24851" lon="-3.90244">
        <ele>409.8</ele>
        <time>2023-07-13T04:05:34.000+02:00</time>
      </trkpt>
      <trkpt lat="43.24857" lon="-3.90262">
        <ele>412.8</ele>
        <time>2023-07-13T04:05:36.000+02:00</time>
      </trkpt>
      <trkpt lat="43.24862" lon="-3.90273">
        <ele>413.8</ele>
        <time>2023-07-13T04:05:37.000+02:00</time>
      </trkpt>
      <trkpt lat="43.24872" lon="-3.90287">
        <ele>414.5</ele>
        <time>2023-07-13T04:05:40.000+02:00</time>
      </trkpt>
      <trkpt lat="43.24898" lon="-3.90308">
        <ele>414</ele>
        <time>2023-07-13T04:05:44.000+02:00</time>
      </trkpt>
      <trkpt lat="43.24923" lon="-3.9033">
        <ele>414.3</ele>
        <time>2023-07-13T04:05:49.000+02:00</time>
      </trkpt>
      <trkpt lat="43.2494" lon="-3.90341">
        <ele>416</ele>
        <time>2023-07-13T04:05:52.000+02:00</time>
      </trkpt>
      <trkpt lat="43.24954" lon="-3.90355">
        <ele>418.3</ele>
        <time>2023-07-13T04:05:54.000+02:00</time>
      </trkpt>
      <trkpt lat="43.24969" lon="-3.90364">
        <ele>419.8</ele>
        <time>2023-07-13T04:05:57.000+02:00</time>
      </trkpt>
      <trkpt lat="43.24981" lon="-3.90377">
        <ele>421.5</ele>
        <time>2023-07-13T04:05:59.000+02:00</time>
      </trkpt>
      <trkpt lat="43.24989" lon="-3.90393">
        <ele>423.8</ele>
        <time>2023-07-13T04:06:01.000+02:00</time>
      </trkpt>
      <trkpt lat="43.24994" lon="-3.90413">
        <ele>426.5</ele>
        <time>2023-07-13T04:06:04.000+02:00</time>
      </trkpt>
      <trkpt lat="43.24994" lon="-3.90435">
        <ele>429</ele>
        <time>2023-07-13T04:06:06.000+02:00</time>
      </trkpt>
      <trkpt lat="43.24988" lon="-3.90443">
        <ele>430.3</ele>
        <time>2023-07-13T04:06:07.000+02:00</time>
      </trkpt>
      <trkpt lat="43.24974" lon="-3.90448">
        <ele>431.5</ele>
        <time>2023-07-13T04:06:10.000+02:00</time>
      </trkpt>
      <trkpt lat="43.24957" lon="-3.9045">
        <ele>432.5</ele>
        <time>2023-07-13T04:06:12.000+02:00</time>
      </trkpt>
      <trkpt lat="43.24944" lon="-3.90455">
        <ele>434</ele>
        <time>2023-07-13T04:06:14.000+02:00</time>
      </trkpt>
      <trkpt lat="43.24925" lon="-3.90458">
        <ele>435.3</ele>
        <time>2023-07-13T04:06:17.000+02:00</time>
      </trkpt>
      <trkpt lat="43.24912" lon="-3.90456">
        <ele>436</ele>
        <time>2023-07-13T04:06:19.000+02:00</time>
      </trkpt>
      <trkpt lat="43.24901" lon="-3.90457">
        <ele>437.5</ele>
        <time>2023-07-13T04:06:21.000+02:00</time>
      </trkpt>
      <trkpt lat="43.24895" lon="-3.90468">
        <ele>440</ele>
        <time>2023-07-13T04:06:22.000+02:00</time>
      </trkpt>
      <trkpt lat="43.24897" lon="-3.90476">
        <ele>441</ele>
        <time>2023-07-13T04:06:23.000+02:00</time>
      </trkpt>
      <trkpt lat="43.24908" lon="-3.90493">
        <ele>442.8</ele>
        <time>2023-07-13T04:06:26.000+02:00</time>
      </trkpt>
      <trkpt lat="43.24927" lon="-3.9051">
        <ele>443.8</ele>
        <time>2023-07-13T04:06:29.000+02:00</time>
      </trkpt>
      <trkpt lat="43.24931" lon="-3.90521">
        <ele>445</ele>
        <time>2023-07-13T04:06:31.000+02:00</time>
      </trkpt>
      <trkpt lat="43.24927" lon="-3.90532">
        <ele>447.5</ele>
        <time>2023-07-13T04:06:32.000+02:00</time>
      </trkpt>
      <trkpt lat="43.24915" lon="-3.90535">
        <ele>450</ele>
        <time>2023-07-13T04:06:34.000+02:00</time>
      </trkpt>
      <trkpt lat="43.24888" lon="-3.90525">
        <ele>451</ele>
        <time>2023-07-13T04:06:38.000+02:00</time>
      </trkpt>
      <trkpt lat="43.24873" lon="-3.90515">
        <ele>450.8</ele>
        <time>2023-07-13T04:06:41.000+02:00</time>
      </trkpt>
      <trkpt lat="43.24857" lon="-3.90512">
        <ele>452</ele>
        <time>2023-07-13T04:06:43.000+02:00</time>
      </trkpt>
      <trkpt lat="43.24844" lon="-3.90508">
        <ele>452.5</ele>
        <time>2023-07-13T04:06:45.000+02:00</time>
      </trkpt>
      <trkpt lat="43.24821" lon="-3.90508">
        <ele>455.5</ele>
        <time>2023-07-13T04:06:49.000+02:00</time>
      </trkpt>
      <trkpt lat="43.24802" lon="-3.90506">
        <ele>458</ele>
        <time>2023-07-13T04:06:52.000+02:00</time>
      </trkpt>
      <trkpt lat="43.24788" lon="-3.90499">
        <ele>458.8</ele>
        <time>2023-07-13T04:06:54.000+02:00</time>
      </trkpt>
      <trkpt lat="43.24777" lon="-3.9049">
        <ele>459.3</ele>
        <time>2023-07-13T04:06:56.000+02:00</time>
      </trkpt>
      <trkpt lat="43.24764" lon="-3.9048">
        <ele>460</ele>
        <time>2023-07-13T04:06:58.000+02:00</time>
      </trkpt>
      <trkpt lat="43.24746" lon="-3.90462">
        <ele>460</ele>
        <time>2023-07-13T04:07:02.000+02:00</time>
      </trkpt>
      <trkpt lat="43.24733" lon="-3.90451">
        <ele>459</ele>
        <time>2023-07-13T04:07:04.000+02:00</time>
      </trkpt>
      <trkpt lat="43.24719" lon="-3.90453">
        <ele>460</ele>
        <time>2023-07-13T04:07:06.000+02:00</time>
      </trkpt>
      <trkpt lat="43.24686" lon="-3.90475">
        <ele>465.3</ele>
        <time>2023-07-13T04:07:12.000+02:00</time>
      </trkpt>
      <trkpt lat="43.24644" lon="-3.90509">
        <ele>474.5</ele>
        <time>2023-07-13T04:07:19.000+02:00</time>
      </trkpt>
      <trkpt lat="43.24626" lon="-3.90518">
        <ele>478</ele>
        <time>2023-07-13T04:07:22.000+02:00</time>
      </trkpt>
      <trkpt lat="43.24612" lon="-3.90527">
        <ele>481.3</ele>
        <time>2023-07-13T04:07:25.000+02:00</time>
      </trkpt>
      <trkpt lat="43.24597" lon="-3.90536">
        <ele>484.8</ele>
        <time>2023-07-13T04:07:27.000+02:00</time>
      </trkpt>
      <trkpt lat="43.24584" lon="-3.90542">
        <ele>487.5</ele>
        <time>2023-07-13T04:07:29.000+02:00</time>
      </trkpt>
      <trkpt lat="43.24528" lon="-3.90536">
        <ele>497.3</ele>
        <time>2023-07-13T04:07:38.000+02:00</time>
      </trkpt>
      <trkpt lat="43.24517" lon="-3.90531">
        <ele>498</ele>
        <time>2023-07-13T04:07:40.000+02:00</time>
      </trkpt>
      <trkpt lat="43.24506" lon="-3.90522">
        <ele>498</ele>
        <time>2023-07-13T04:07:41.000+02:00</time>
      </trkpt>
      <trkpt lat="43.24498" lon="-3.9051">
        <ele>496.8</ele>
        <time>2023-07-13T04:07:43.000+02:00</time>
      </trkpt>
      <trkpt lat="43.2449" lon="-3.90496">
        <ele>496.8</ele>
        <time>2023-07-13T04:07:45.000+02:00</time>
      </trkpt>
      <trkpt lat="43.24476" lon="-3.90483">
        <ele>500.5</ele>
        <time>2023-07-13T04:07:48.000+02:00</time>
      </trkpt>
      <trkpt lat="43.24465" lon="-3.90477">
        <ele>503.5</ele>
        <time>2023-07-13T04:07:50.000+02:00</time>
      </trkpt>
      <trkpt lat="43.24451" lon="-3.90472">
        <ele>507</ele>
        <time>2023-07-13T04:07:52.000+02:00</time>
      </trkpt>
      <trkpt lat="43.24434" lon="-3.90472">
        <ele>511.8</ele>
        <time>2023-07-13T04:07:54.000+02:00</time>
      </trkpt>
      <trkpt lat="43.24421" lon="-3.90467">
        <ele>515</ele>
        <time>2023-07-13T04:07:57.000+02:00</time>
      </trkpt>
      <trkpt lat="43.24419" lon="-3.9046">
        <ele>515</ele>
        <time>2023-07-13T04:07:58.000+02:00</time>
      </trkpt>
      <trkpt lat="43.24425" lon="-3.90449">
        <ele>512.3</ele>
        <time>2023-07-13T04:08:00.000+02:00</time>
      </trkpt>
      <trkpt lat="43.24438" lon="-3.90438">
        <ele>508.5</ele>
        <time>2023-07-13T04:08:02.000+02:00</time>
      </trkpt>
      <trkpt lat="43.24447" lon="-3.90421">
        <ele>505.3</ele>
        <time>2023-07-13T04:08:05.000+02:00</time>
      </trkpt>
      <trkpt lat="43.24461" lon="-3.90402">
        <ele>504</ele>
        <time>2023-07-13T04:08:08.000+02:00</time>
      </trkpt>
      <trkpt lat="43.24476" lon="-3.90362">
        <ele>506.3</ele>
        <time>2023-07-13T04:08:13.000+02:00</time>
      </trkpt>
      <trkpt lat="43.24482" lon="-3.90347">
        <ele>506.5</ele>
        <time>2023-07-13T04:08:15.000+02:00</time>
      </trkpt>
      <trkpt lat="43.24485" lon="-3.90326">
        <ele>508.3</ele>
        <time>2023-07-13T04:08:17.000+02:00</time>
      </trkpt>
      <trkpt lat="43.24487" lon="-3.90294">
        <ele>510</ele>
        <time>2023-07-13T04:08:20.000+02:00</time>
      </trkpt>
      <trkpt lat="43.24488" lon="-3.90269">
        <ele>511.5</ele>
        <time>2023-07-13T04:08:23.000+02:00</time>
      </trkpt>
      <trkpt lat="43.24486" lon="-3.90249">
        <ele>513.5</ele>
        <time>2023-07-13T04:08:25.000+02:00</time>
      </trkpt>
      <trkpt lat="43.2447" lon="-3.90212">
        <ele>515.5</ele>
        <time>2023-07-13T04:08:30.000+02:00</time>
      </trkpt>
      <trkpt lat="43.24459" lon="-3.90197">
        <ele>518.3</ele>
        <time>2023-07-13T04:08:33.000+02:00</time>
      </trkpt>
      <trkpt lat="43.24441" lon="-3.90161">
        <ele>521</ele>
        <time>2023-07-13T04:08:38.000+02:00</time>
      </trkpt>
      <trkpt lat="43.24426" lon="-3.90146">
        <ele>523.5</ele>
        <time>2023-07-13T04:08:40.000+02:00</time>
      </trkpt>
      <trkpt lat="43.24411" lon="-3.90134">
        <ele>525.8</ele>
        <time>2023-07-13T04:08:43.000+02:00</time>
      </trkpt>
      <trkpt lat="43.24395" lon="-3.90125">
        <ele>528</ele>
        <time>2023-07-13T04:08:46.000+02:00</time>
      </trkpt>
      <trkpt lat="43.24379" lon="-3.90116">
        <ele>530</ele>
        <time>2023-07-13T04:08:48.000+02:00</time>
      </trkpt>
      <trkpt lat="43.24363" lon="-3.90109">
        <ele>532.5</ele>
        <time>2023-07-13T04:08:51.000+02:00</time>
      </trkpt>
      <trkpt lat="43.24348" lon="-3.90106">
        <ele>535.5</ele>
        <time>2023-07-13T04:08:53.000+02:00</time>
      </trkpt>
      <trkpt lat="43.24306" lon="-3.90082">
        <ele>540.5</ele>
        <time>2023-07-13T04:09:00.000+02:00</time>
      </trkpt>
      <trkpt lat="43.24294" lon="-3.90071">
        <ele>542</ele>
        <time>2023-07-13T04:09:02.000+02:00</time>
      </trkpt>
      <trkpt lat="43.24283" lon="-3.9005">
        <ele>542.3</ele>
        <time>2023-07-13T04:09:05.000+02:00</time>
      </trkpt>
      <trkpt lat="43.24278" lon="-3.90048">
        <ele>543.5</ele>
        <time>2023-07-13T04:09:06.000+02:00</time>
      </trkpt>
      <trkpt lat="43.24274" lon="-3.90054">
        <ele>545.8</ele>
        <time>2023-07-13T04:09:07.000+02:00</time>
      </trkpt>
      <trkpt lat="43.24275" lon="-3.90065">
        <ele>547</ele>
        <time>2023-07-13T04:09:08.000+02:00</time>
      </trkpt>
      <trkpt lat="43.24278" lon="-3.90082">
        <ele>548.8</ele>
        <time>2023-07-13T04:09:10.000+02:00</time>
      </trkpt>
      <trkpt lat="43.24292" lon="-3.90104">
        <ele>549.5</ele>
        <time>2023-07-13T04:09:13.000+02:00</time>
      </trkpt>
      <trkpt lat="43.243" lon="-3.90114">
        <ele>549.8</ele>
        <time>2023-07-13T04:09:15.000+02:00</time>
      </trkpt>
      <trkpt lat="43.2431" lon="-3.90132">
        <ele>551.8</ele>
        <time>2023-07-13T04:09:18.000+02:00</time>
      </trkpt>
      <trkpt lat="43.24322" lon="-3.90144">
        <ele>552</ele>
        <time>2023-07-13T04:09:20.000+02:00</time>
      </trkpt>
      <trkpt lat="43.2433" lon="-3.90159">
        <ele>554.5</ele>
        <time>2023-07-13T04:09:22.000+02:00</time>
      </trkpt>
      <trkpt lat="43.24335" lon="-3.90182">
        <ele>556.5</ele>
        <time>2023-07-13T04:09:25.000+02:00</time>
      </trkpt>
      <trkpt lat="43.24335" lon="-3.90208">
        <ele>558.5</ele>
        <time>2023-07-13T04:09:28.000+02:00</time>
      </trkpt>
      <trkpt lat="43.24324" lon="-3.90234">
        <ele>562.5</ele>
        <time>2023-07-13T04:09:31.000+02:00</time>
      </trkpt>
      <trkpt lat="43.24311" lon="-3.90256">
        <ele>565.5</ele>
        <time>2023-07-13T04:09:34.000+02:00</time>
      </trkpt>
      <trkpt lat="43.24297" lon="-3.9028">
        <ele>567.5</ele>
        <time>2023-07-13T04:09:38.000+02:00</time>
      </trkpt>
      <trkpt lat="43.24283" lon="-3.90276">
        <ele>570.8</ele>
        <time>2023-07-13T04:09:40.000+02:00</time>
      </trkpt>
      <trkpt lat="43.24276" lon="-3.90265">
        <ele>572.3</ele>
        <time>2023-07-13T04:09:41.000+02:00</time>
      </trkpt>
      <trkpt lat="43.24264" lon="-3.90239">
        <ele>573.5</ele>
        <time>2023-07-13T04:09:45.000+02:00</time>
      </trkpt>
      <trkpt lat="43.2425" lon="-3.90224">
        <ele>575</ele>
        <time>2023-07-13T04:09:47.000+02:00</time>
      </trkpt>
      <trkpt lat="43.24242" lon="-3.90216">
        <ele>576.5</ele>
        <time>2023-07-13T04:09:49.000+02:00</time>
      </trkpt>
      <trkpt lat="43.24231" lon="-3.90198">
        <ele>577.5</ele>
        <time>2023-07-13T04:09:52.000+02:00</time>
      </trkpt>
      <trkpt lat="43.24222" lon="-3.90204">
        <ele>580.3</ele>
        <time>2023-07-13T04:09:53.000+02:00</time>
      </trkpt>
      <trkpt lat="43.24219" lon="-3.90222">
        <ele>582.8</ele>
        <time>2023-07-13T04:09:55.000+02:00</time>
      </trkpt>
      <trkpt lat="43.24221" lon="-3.90242">
        <ele>584.3</ele>
        <time>2023-07-13T04:09:57.000+02:00</time>
      </trkpt>
      <trkpt lat="43.24221" lon="-3.90264">
        <ele>585.8</ele>
        <time>2023-07-13T04:10:00.000+02:00</time>
      </trkpt>
      <trkpt lat="43.24213" lon="-3.90288">
        <ele>589.3</ele>
        <time>2023-07-13T04:10:03.000+02:00</time>
      </trkpt>
      <trkpt lat="43.24186" lon="-3.90355">
        <ele>595.8</ele>
        <time>2023-07-13T04:10:11.000+02:00</time>
      </trkpt>
      <trkpt lat="43.24169" lon="-3.90377">
        <ele>597.5</ele>
        <time>2023-07-13T04:10:15.000+02:00</time>
      </trkpt>
      <trkpt lat="43.24147" lon="-3.90395">
        <ele>599.8</ele>
        <time>2023-07-13T04:10:19.000+02:00</time>
      </trkpt>
      <trkpt lat="43.24132" lon="-3.90403">
        <ele>602</ele>
        <time>2023-07-13T04:10:21.000+02:00</time>
      </trkpt>
      <trkpt lat="43.24117" lon="-3.90413">
        <ele>604</ele>
        <time>2023-07-13T04:10:24.000+02:00</time>
      </trkpt>
      <trkpt lat="43.2411" lon="-3.90433">
        <ele>605</ele>
        <time>2023-07-13T04:10:26.000+02:00</time>
      </trkpt>
      <trkpt lat="43.24112" lon="-3.90449">
        <ele>604.3</ele>
        <time>2023-07-13T04:10:28.000+02:00</time>
      </trkpt>
      <trkpt lat="43.24126" lon="-3.90462">
        <ele>600.8</ele>
        <time>2023-07-13T04:10:31.000+02:00</time>
      </trkpt>
      <trkpt lat="43.24147" lon="-3.90492">
        <ele>595.5</ele>
        <time>2023-07-13T04:10:35.000+02:00</time>
      </trkpt>
      <trkpt lat="43.24158" lon="-3.90523">
        <ele>594.5</ele>
        <time>2023-07-13T04:10:39.000+02:00</time>
      </trkpt>
      <trkpt lat="43.24168" lon="-3.90545">
        <ele>593.8</ele>
        <time>2023-07-13T04:10:42.000+02:00</time>
      </trkpt>
      <trkpt lat="43.24177" lon="-3.90566">
        <ele>593.8</ele>
        <time>2023-07-13T04:10:45.000+02:00</time>
      </trkpt>
      <trkpt lat="43.24184" lon="-3.90591">
        <ele>594</ele>
        <time>2023-07-13T04:10:48.000+02:00</time>
      </trkpt>
      <trkpt lat="43.24191" lon="-3.90611">
        <ele>593.5</ele>
        <time>2023-07-13T04:10:50.000+02:00</time>
      </trkpt>
      <trkpt lat="43.24195" lon="-3.90634">
        <ele>593.8</ele>
        <time>2023-07-13T04:10:53.000+02:00</time>
      </trkpt>
      <trkpt lat="43.24195" lon="-3.90656">
        <ele>594.5</ele>
        <time>2023-07-13T04:10:55.000+02:00</time>
      </trkpt>
      <trkpt lat="43.24194" lon="-3.90677">
        <ele>594.5</ele>
        <time>2023-07-13T04:10:57.000+02:00</time>
      </trkpt>
      <trkpt lat="43.24199" lon="-3.90719">
        <ele>592.8</ele>
        <time>2023-07-13T04:11:02.000+02:00</time>
      </trkpt>
      <trkpt lat="43.24201" lon="-3.90734">
        <ele>591.8</ele>
        <time>2023-07-13T04:11:04.000+02:00</time>
      </trkpt>
      <trkpt lat="43.24201" lon="-3.90749">
        <ele>591.5</ele>
        <time>2023-07-13T04:11:06.000+02:00</time>
      </trkpt>
      <trkpt lat="43.24204" lon="-3.90805">
        <ele>583</ele>
        <time>2023-07-13T04:11:12.000+02:00</time>
      </trkpt>
      <trkpt lat="43.24184" lon="-3.90882">
        <ele>574.3</ele>
        <time>2023-07-13T04:11:21.000+02:00</time>
      </trkpt>
      <trkpt lat="43.2417" lon="-3.90927">
        <ele>569.5</ele>
        <time>2023-07-13T04:11:26.000+02:00</time>
      </trkpt>
      <trkpt lat="43.24156" lon="-3.90958">
        <ele>568.3</ele>
        <time>2023-07-13T04:11:30.000+02:00</time>
      </trkpt>
      <trkpt lat="43.24158" lon="-3.90965">
        <ele>566.5</ele>
        <time>2023-07-13T04:11:31.000+02:00</time>
      </trkpt>
      <trkpt lat="43.24154" lon="-3.90975">
        <ele>566</ele>
        <time>2023-07-13T04:11:32.000+02:00</time>
      </trkpt>
      <trkpt lat="43.24148" lon="-3.90986">
        <ele>566</ele>
        <time>2023-07-13T04:11:34.000+02:00</time>
      </trkpt>
      <trkpt lat="43.24145" lon="-3.91001">
        <ele>565</ele>
        <time>2023-07-13T04:11:36.000+02:00</time>
      </trkpt>
      <trkpt lat="43.2414" lon="-3.91012">
        <ele>564.8</ele>
        <time>2023-07-13T04:11:37.000+02:00</time>
      </trkpt>
      <trkpt lat="43.24134" lon="-3.91025">
        <ele>564.8</ele>
        <time>2023-07-13T04:11:39.000+02:00</time>
      </trkpt>
      <trkpt lat="43.24132" lon="-3.91034">
        <ele>563.8</ele>
        <time>2023-07-13T04:11:40.000+02:00</time>
      </trkpt>
      <trkpt lat="43.24134" lon="-3.91025">
        <ele>564.8</ele>
        <time>2023-07-13T04:11:41.000+02:00</time>
      </trkpt>
      <trkpt lat="43.2414" lon="-3.91012">
        <ele>564.8</ele>
        <time>2023-07-13T04:11:43.000+02:00</time>
      </trkpt>
      <trkpt lat="43.24145" lon="-3.91001">
        <ele>565</ele>
        <time>2023-07-13T04:11:44.000+02:00</time>
      </trkpt>
      <trkpt lat="43.24148" lon="-3.90986">
        <ele>566</ele>
        <time>2023-07-13T04:11:46.000+02:00</time>
      </trkpt>
      <trkpt lat="43.24154" lon="-3.90975">
        <ele>566</ele>
        <time>2023-07-13T04:11:47.000+02:00</time>
      </trkpt>
      <trkpt lat="43.24158" lon="-3.90965">
        <ele>566.5</ele>
        <time>2023-07-13T04:11:49.000+02:00</time>
      </trkpt>
      <trkpt lat="43.24156" lon="-3.90958">
        <ele>568.3</ele>
        <time>2023-07-13T04:11:50.000+02:00</time>
      </trkpt>
      <trkpt lat="43.24143" lon="-3.90964">
        <ele>571.3</ele>
        <time>2023-07-13T04:11:53.000+02:00</time>
      </trkpt>
      <trkpt lat="43.24131" lon="-3.90983">
        <ele>572</ele>
        <time>2023-07-13T04:11:55.000+02:00</time>
      </trkpt>
      <trkpt lat="43.24116" lon="-3.91">
        <ele>574.5</ele>
        <time>2023-07-13T04:11:58.000+02:00</time>
      </trkpt>
      <trkpt lat="43.24094" lon="-3.9101">
        <ele>580</ele>
        <time>2023-07-13T04:12:02.000+02:00</time>
      </trkpt>
      <trkpt lat="43.24084" lon="-3.9102">
        <ele>582</ele>
        <time>2023-07-13T04:12:04.000+02:00</time>
      </trkpt>
      <trkpt lat="43.24078" lon="-3.91034">
        <ele>581</ele>
        <time>2023-07-13T04:12:06.000+02:00</time>
      </trkpt>
      <trkpt lat="43.24069" lon="-3.91082">
        <ele>576.3</ele>
        <time>2023-07-13T04:12:11.000+02:00</time>
      </trkpt>
      <trkpt lat="43.2406" lon="-3.91094">
        <ele>576</ele>
        <time>2023-07-13T04:12:13.000+02:00</time>
      </trkpt>
      <trkpt lat="43.24039" lon="-3.91136">
        <ele>574.3</ele>
        <time>2023-07-13T04:12:19.000+02:00</time>
      </trkpt>
      <trkpt lat="43.24024" lon="-3.91145">
        <ele>576.3</ele>
        <time>2023-07-13T04:12:21.000+02:00</time>
      </trkpt>
      <trkpt lat="43.24008" lon="-3.9115">
        <ele>579.5</ele>
        <time>2023-07-13T04:12:24.000+02:00</time>
      </trkpt>
      <trkpt lat="43.23997" lon="-3.91161">
        <ele>580.8</ele>
        <time>2023-07-13T04:12:26.000+02:00</time>
      </trkpt>
      <trkpt lat="43.23982" lon="-3.91174">
        <ele>579.8</ele>
        <time>2023-07-13T04:12:28.000+02:00</time>
      </trkpt>
      <trkpt lat="43.23971" lon="-3.91197">
        <ele>575.3</ele>
        <time>2023-07-13T04:12:32.000+02:00</time>
      </trkpt>
      <trkpt lat="43.23963" lon="-3.9122">
        <ele>570.3</ele>
        <time>2023-07-13T04:12:34.000+02:00</time>
      </trkpt>
      <trkpt lat="43.23948" lon="-3.91237">
        <ele>567</ele>
        <time>2023-07-13T04:12:37.000+02:00</time>
      </trkpt>
      <trkpt lat="43.23915" lon="-3.91258">
        <ele>563.3</ele>
        <time>2023-07-13T04:12:43.000+02:00</time>
      </trkpt>
      <trkpt lat="43.23903" lon="-3.91264">
        <ele>563.8</ele>
        <time>2023-07-13T04:12:45.000+02:00</time>
      </trkpt>
      <trkpt lat="43.2389" lon="-3.91274">
        <ele>563.5</ele>
        <time>2023-07-13T04:12:47.000+02:00</time>
      </trkpt>
      <trkpt lat="43.23877" lon="-3.91285">
        <ele>562.5</ele>
        <time>2023-07-13T04:12:49.000+02:00</time>
      </trkpt>
      <trkpt lat="43.23863" lon="-3.91302">
        <ele>560.5</ele>
        <time>2023-07-13T04:12:52.000+02:00</time>
      </trkpt>
      <trkpt lat="43.23841" lon="-3.91335">
        <ele>555.8</ele>
        <time>2023-07-13T04:12:57.000+02:00</time>
      </trkpt>
      <trkpt lat="43.23822" lon="-3.91362">
        <ele>556.5</ele>
        <time>2023-07-13T04:13:01.000+02:00</time>
      </trkpt>
      <trkpt lat="43.23812" lon="-3.91394">
        <ele>554.8</ele>
        <time>2023-07-13T04:13:05.000+02:00</time>
      </trkpt>
      <trkpt lat="43.23805" lon="-3.91431">
        <ele>551.5</ele>
        <time>2023-07-13T04:13:10.000+02:00</time>
      </trkpt>
      <trkpt lat="43.23796" lon="-3.91466">
        <ele>550.8</ele>
        <time>2023-07-13T04:13:14.000+02:00</time>
      </trkpt>
      <trkpt lat="43.23788" lon="-3.91484">
        <ele>551</ele>
        <time>2023-07-13T04:13:16.000+02:00</time>
      </trkpt>
      <trkpt lat="43.23776" lon="-3.91498">
        <ele>552.3</ele>
        <time>2023-07-13T04:13:18.000+02:00</time>
      </trkpt>
      <trkpt lat="43.23767" lon="-3.9151">
        <ele>553.8</ele>
        <time>2023-07-13T04:13:20.000+02:00</time>
      </trkpt>
      <trkpt lat="43.23771" lon="-3.91537">
        <ele>552</ele>
        <time>2023-07-13T04:13:23.000+02:00</time>
      </trkpt>
      <trkpt lat="43.23775" lon="-3.9155">
        <ele>550.8</ele>
        <time>2023-07-13T04:13:25.000+02:00</time>
      </trkpt>
      <trkpt lat="43.23775" lon="-3.91575">
        <ele>550</ele>
        <time>2023-07-13T04:13:28.000+02:00</time>
      </trkpt>
      <trkpt lat="43.23768" lon="-3.91624">
        <ele>550.3</ele>
        <time>2023-07-13T04:13:33.000+02:00</time>
      </trkpt>
      <trkpt lat="43.23764" lon="-3.91642">
        <ele>550.8</ele>
        <time>2023-07-13T04:13:35.000+02:00</time>
      </trkpt>
      <trkpt lat="43.23755" lon="-3.9166">
        <ele>552.3</ele>
        <time>2023-07-13T04:13:38.000+02:00</time>
      </trkpt>
      <trkpt lat="43.23745" lon="-3.91675">
        <ele>553.3</ele>
        <time>2023-07-13T04:13:40.000+02:00</time>
      </trkpt>
      <trkpt lat="43.23739" lon="-3.91693">
        <ele>552</ele>
        <time>2023-07-13T04:13:42.000+02:00</time>
      </trkpt>
      <trkpt lat="43.2374" lon="-3.91722">
        <ele>548.3</ele>
        <time>2023-07-13T04:13:46.000+02:00</time>
      </trkpt>
      <trkpt lat="43.23734" lon="-3.9174">
        <ele>546.5</ele>
        <time>2023-07-13T04:13:48.000+02:00</time>
      </trkpt>
      <trkpt lat="43.23719" lon="-3.91746">
        <ele>547.3</ele>
        <time>2023-07-13T04:13:50.000+02:00</time>
      </trkpt>
      <trkpt lat="43.23675" lon="-3.91755">
        <ele>549</ele>
        <time>2023-07-13T04:13:57.000+02:00</time>
      </trkpt>
      <trkpt lat="43.2365" lon="-3.91761">
        <ele>549.5</ele>
        <time>2023-07-13T04:14:01.000+02:00</time>
      </trkpt>
      <trkpt lat="43.23629" lon="-3.91773">
        <ele>548.8</ele>
        <time>2023-07-13T04:14:04.000+02:00</time>
      </trkpt>
      <trkpt lat="43.236" lon="-3.91777">
        <ele>550.8</ele>
        <time>2023-07-13T04:14:09.000+02:00</time>
      </trkpt>
      <trkpt lat="43.23576" lon="-3.91774">
        <ele>552.3</ele>
        <time>2023-07-13T04:14:12.000+02:00</time>
      </trkpt>
      <trkpt lat="43.23557" lon="-3.91774">
        <ele>552.8</ele>
        <time>2023-07-13T04:14:15.000+02:00</time>
      </trkpt>
      <trkpt lat="43.23532" lon="-3.9178">
        <ele>552.5</ele>
        <time>2023-07-13T04:14:19.000+02:00</time>
      </trkpt>
      <trkpt lat="43.23505" lon="-3.91779">
        <ele>553</ele>
        <time>2023-07-13T04:14:23.000+02:00</time>
      </trkpt>
      <trkpt lat="43.23478" lon="-3.91781">
        <ele>551.5</ele>
        <time>2023-07-13T04:14:28.000+02:00</time>
      </trkpt>
      <trkpt lat="43.23454" lon="-3.91776">
        <ele>551.3</ele>
        <time>2023-07-13T04:14:31.000+02:00</time>
      </trkpt>
      <trkpt lat="43.2342" lon="-3.91766">
        <ele>551.8</ele>
        <time>2023-07-13T04:14:37.000+02:00</time>
      </trkpt>
      <trkpt lat="43.23399" lon="-3.91761">
        <ele>551.3</ele>
        <time>2023-07-13T04:14:40.000+02:00</time>
      </trkpt>
      <trkpt lat="43.23347" lon="-3.91738">
        <ele>552.8</ele>
        <time>2023-07-13T04:14:48.000+02:00</time>
      </trkpt>
      <trkpt lat="43.23319" lon="-3.91728">
        <ele>552.8</ele>
        <time>2023-07-13T04:14:53.000+02:00</time>
      </trkpt>
      <trkpt lat="43.23251" lon="-3.91674">
        <ele>555.5</ele>
        <time>2023-07-13T04:15:04.000+02:00</time>
      </trkpt>
      <trkpt lat="43.23226" lon="-3.91659">
        <ele>555.8</ele>
        <time>2023-07-13T04:15:09.000+02:00</time>
      </trkpt>
      <trkpt lat="43.23198" lon="-3.91638">
        <ele>556.3</ele>
        <time>2023-07-13T04:15:13.000+02:00</time>
      </trkpt>
      <trkpt lat="43.23174" lon="-3.91628">
        <ele>554</ele>
        <time>2023-07-13T04:15:17.000+02:00</time>
      </trkpt>
      <trkpt lat="43.23149" lon="-3.91622">
        <ele>552</ele>
        <time>2023-07-13T04:15:21.000+02:00</time>
      </trkpt>
      <trkpt lat="43.23135" lon="-3.91625">
        <ele>550</ele>
        <time>2023-07-13T04:15:23.000+02:00</time>
      </trkpt>
      <trkpt lat="43.23127" lon="-3.9162">
        <ele>550.3</ele>
        <time>2023-07-13T04:15:25.000+02:00</time>
      </trkpt>
      <trkpt lat="43.23118" lon="-3.91606">
        <ele>552</ele>
        <time>2023-07-13T04:15:27.000+02:00</time>
      </trkpt>
      <trkpt lat="43.23109" lon="-3.9159">
        <ele>554</ele>
        <time>2023-07-13T04:15:29.000+02:00</time>
      </trkpt>
      <trkpt lat="43.23094" lon="-3.91559">
        <ele>556.3</ele>
        <time>2023-07-13T04:15:33.000+02:00</time>
      </trkpt>
      <trkpt lat="43.23092" lon="-3.91534">
        <ele>558</ele>
        <time>2023-07-13T04:15:36.000+02:00</time>
      </trkpt>
      <trkpt lat="43.23093" lon="-3.91513">
        <ele>560.3</ele>
        <time>2023-07-13T04:15:38.000+02:00</time>
      </trkpt>
      <trkpt lat="43.23101" lon="-3.91495">
        <ele>563.3</ele>
        <time>2023-07-13T04:15:41.000+02:00</time>
      </trkpt>
      <trkpt lat="43.23109" lon="-3.91484">
        <ele>566</ele>
        <time>2023-07-13T04:15:42.000+02:00</time>
      </trkpt>
      <trkpt lat="43.23119" lon="-3.91472">
        <ele>569.3</ele>
        <time>2023-07-13T04:15:44.000+02:00</time>
      </trkpt>
      <trkpt lat="43.2313" lon="-3.91449">
        <ele>573.5</ele>
        <time>2023-07-13T04:15:47.000+02:00</time>
      </trkpt>
      <trkpt lat="43.23137" lon="-3.91412">
        <ele>578</ele>
        <time>2023-07-13T04:15:52.000+02:00</time>
      </trkpt>
      <trkpt lat="43.23142" lon="-3.91374">
        <ele>582.8</ele>
        <time>2023-07-13T04:15:56.000+02:00</time>
      </trkpt>
      <trkpt lat="43.23149" lon="-3.91349">
        <ele>586.8</ele>
        <time>2023-07-13T04:15:59.000+02:00</time>
      </trkpt>
      <trkpt lat="43.23158" lon="-3.91318">
        <ele>592.3</ele>
        <time>2023-07-13T04:16:03.000+02:00</time>
      </trkpt>
      <trkpt lat="43.23165" lon="-3.91292">
        <ele>596.8</ele>
        <time>2023-07-13T04:16:06.000+02:00</time>
      </trkpt>
      <trkpt lat="43.23175" lon="-3.91271">
        <ele>601.3</ele>
        <time>2023-07-13T04:16:09.000+02:00</time>
      </trkpt>
      <trkpt lat="43.23176" lon="-3.91257">
        <ele>602.8</ele>
        <time>2023-07-13T04:16:10.000+02:00</time>
      </trkpt>
      <trkpt lat="43.23169" lon="-3.91242">
        <ele>602.5</ele>
        <time>2023-07-13T04:16:12.000+02:00</time>
      </trkpt>
      <trkpt lat="43.23167" lon="-3.91233">
        <ele>602</ele>
        <time>2023-07-13T04:16:13.000+02:00</time>
      </trkpt>
      <trkpt lat="43.2317" lon="-3.91211">
        <ele>603</ele>
        <time>2023-07-13T04:16:16.000+02:00</time>
      </trkpt>
      <trkpt lat="43.2317" lon="-3.91199">
        <ele>603.3</ele>
        <time>2023-07-13T04:16:17.000+02:00</time>
      </trkpt>
      <trkpt lat="43.23149" lon="-3.9116">
        <ele>597.8</ele>
        <time>2023-07-13T04:16:22.000+02:00</time>
      </trkpt>
      <trkpt lat="43.23145" lon="-3.91138">
        <ele>598</ele>
        <time>2023-07-13T04:16:25.000+02:00</time>
      </trkpt>
      <trkpt lat="43.23141" lon="-3.91109">
        <ele>599</ele>
        <time>2023-07-13T04:16:28.000+02:00</time>
      </trkpt>
      <trkpt lat="43.23135" lon="-3.91076">
        <ele>599.5</ele>
        <time>2023-07-13T04:16:32.000+02:00</time>
      </trkpt>
      <trkpt lat="43.23127" lon="-3.91047">
        <ele>601.3</ele>
        <time>2023-07-13T04:16:36.000+02:00</time>
      </trkpt>
      <trkpt lat="43.23123" lon="-3.91016">
        <ele>604.8</ele>
        <time>2023-07-13T04:16:39.000+02:00</time>
      </trkpt>
      <trkpt lat="43.23114" lon="-3.90978">
        <ele>607.3</ele>
        <time>2023-07-13T04:16:44.000+02:00</time>
      </trkpt>
      <trkpt lat="43.23106" lon="-3.90957">
        <ele>607.5</ele>
        <time>2023-07-13T04:16:46.000+02:00</time>
      </trkpt>
      <trkpt lat="43.23101" lon="-3.9091">
        <ele>613.3</ele>
        <time>2023-07-13T04:16:51.000+02:00</time>
      </trkpt>
      <trkpt lat="43.23095" lon="-3.90875">
        <ele>615.8</ele>
        <time>2023-07-13T04:16:55.000+02:00</time>
      </trkpt>
      <trkpt lat="43.23094" lon="-3.90849">
        <ele>618.8</ele>
        <time>2023-07-13T04:16:58.000+02:00</time>
      </trkpt>
      <trkpt lat="43.23105" lon="-3.90818">
        <ele>624.5</ele>
        <time>2023-07-13T04:17:02.000+02:00</time>
      </trkpt>
      <trkpt lat="43.23115" lon="-3.90796">
        <ele>629</ele>
        <time>2023-07-13T04:17:05.000+02:00</time>
      </trkpt>
      <trkpt lat="43.2311" lon="-3.9078">
        <ele>629.5</ele>
        <time>2023-07-13T04:17:07.000+02:00</time>
      </trkpt>
      <trkpt lat="43.23099" lon="-3.90762">
        <ele>628.5</ele>
        <time>2023-07-13T04:17:10.000+02:00</time>
      </trkpt>
      <trkpt lat="43.23085" lon="-3.9073">
        <ele>628.3</ele>
        <time>2023-07-13T04:17:14.000+02:00</time>
      </trkpt>
      <trkpt lat="43.23073" lon="-3.90698">
        <ele>629</ele>
        <time>2023-07-13T04:17:18.000+02:00</time>
      </trkpt>
      <trkpt lat="43.2307" lon="-3.90671">
        <ele>631.3</ele>
        <time>2023-07-13T04:17:21.000+02:00</time>
      </trkpt>
      <trkpt lat="43.23078" lon="-3.90622">
        <ele>642.8</ele>
        <time>2023-07-13T04:17:26.000+02:00</time>
      </trkpt>
      <trkpt lat="43.23069" lon="-3.90604">
        <ele>644.3</ele>
        <time>2023-07-13T04:17:29.000+02:00</time>
      </trkpt>
      <trkpt lat="43.23054" lon="-3.90591">
        <ele>641.8</ele>
        <time>2023-07-13T04:17:32.000+02:00</time>
      </trkpt>
      <trkpt lat="43.2304" lon="-3.90571">
        <ele>641.8</ele>
        <time>2023-07-13T04:17:35.000+02:00</time>
      </trkpt>
      <trkpt lat="43.23026" lon="-3.90555">
        <ele>640.8</ele>
        <time>2023-07-13T04:17:37.000+02:00</time>
      </trkpt>
      <trkpt lat="43.23017" lon="-3.90539">
        <ele>641.8</ele>
        <time>2023-07-13T04:17:40.000+02:00</time>
      </trkpt>
      <trkpt lat="43.23019" lon="-3.90515">
        <ele>648</ele>
        <time>2023-07-13T04:17:42.000+02:00</time>
      </trkpt>
      <trkpt lat="43.23017" lon="-3.90499">
        <ele>651</ele>
        <time>2023-07-13T04:17:44.000+02:00</time>
      </trkpt>
      <trkpt lat="43.22998" lon="-3.90478">
        <ele>650.8</ele>
        <time>2023-07-13T04:17:48.000+02:00</time>
      </trkpt>
      <trkpt lat="43.22985" lon="-3.90469">
        <ele>650</ele>
        <time>2023-07-13T04:17:50.000+02:00</time>
      </trkpt>
      <trkpt lat="43.22955" lon="-3.90441">
        <ele>650</ele>
        <time>2023-07-13T04:17:56.000+02:00</time>
      </trkpt>
      <trkpt lat="43.22939" lon="-3.90428">
        <ele>649.5</ele>
        <time>2023-07-13T04:17:58.000+02:00</time>
      </trkpt>
      <trkpt lat="43.22929" lon="-3.90411">
        <ele>650.3</ele>
        <time>2023-07-13T04:18:01.000+02:00</time>
      </trkpt>
      <trkpt lat="43.22931" lon="-3.90394">
        <ele>652</ele>
        <time>2023-07-13T04:18:03.000+02:00</time>
      </trkpt>
      <trkpt lat="43.22939" lon="-3.90364">
        <ele>655.8</ele>
        <time>2023-07-13T04:18:06.000+02:00</time>
      </trkpt>
      <trkpt lat="43.22944" lon="-3.90329">
        <ele>659.5</ele>
        <time>2023-07-13T04:18:10.000+02:00</time>
      </trkpt>
      <trkpt lat="43.2295" lon="-3.90298">
        <ele>662.3</ele>
        <time>2023-07-13T04:18:14.000+02:00</time>
      </trkpt>
      <trkpt lat="43.22957" lon="-3.90268">
        <ele>664.5</ele>
        <time>2023-07-13T04:18:17.000+02:00</time>
      </trkpt>
      <trkpt lat="43.22965" lon="-3.90235">
        <ele>666.8</ele>
        <time>2023-07-13T04:18:21.000+02:00</time>
      </trkpt>
      <trkpt lat="43.22971" lon="-3.90207">
        <ele>668.3</ele>
        <time>2023-07-13T04:18:24.000+02:00</time>
      </trkpt>
      <trkpt lat="43.22976" lon="-3.90178">
        <ele>669</ele>
        <time>2023-07-13T04:18:28.000+02:00</time>
      </trkpt>
      <trkpt lat="43.22971" lon="-3.90155">
        <ele>671</ele>
        <time>2023-07-13T04:18:30.000+02:00</time>
      </trkpt>
      <trkpt lat="43.22962" lon="-3.90147">
        <ele>672.3</ele>
        <time>2023-07-13T04:18:32.000+02:00</time>
      </trkpt>
      <trkpt lat="43.22955" lon="-3.90147">
        <ele>671.8</ele>
        <time>2023-07-13T04:18:33.000+02:00</time>
      </trkpt>
      <trkpt lat="43.22769" lon="-3.90166">
        <ele>673.2</ele>
        <time>2023-07-13T04:19:02.000+02:00</time>
      </trkpt>
      <trkpt lat="43.22693" lon="-3.90214">
        <ele>676.9</ele>
        <time>2023-07-13T04:19:14.000+02:00</time>
      </trkpt>
      <trkpt lat="43.22619" lon="-3.90159">
        <ele>687.2</ele>
        <time>2023-07-13T04:19:27.000+02:00</time>
      </trkpt>
      <trkpt lat="43.22569" lon="-3.90173">
        <ele>686.3</ele>
        <time>2023-07-13T04:19:35.000+02:00</time>
      </trkpt>
      <trkpt lat="43.22214" lon="-3.9012">
        <ele>694.3</ele>
        <time>2023-07-13T04:20:30.000+02:00</time>
      </trkpt>
      <trkpt lat="43.2208" lon="-3.90232">
        <ele>687.2</ele>
        <time>2023-07-13T04:20:54.000+02:00</time>
      </trkpt>
      <trkpt lat="43.22039" lon="-3.90221">
        <ele>687.7</ele>
        <time>2023-07-13T04:21:00.000+02:00</time>
      </trkpt>
      <trkpt lat="43.21966" lon="-3.90028">
        <ele>690.2</ele>
        <time>2023-07-13T04:21:24.000+02:00</time>
      </trkpt>
      <trkpt lat="43.21964" lon="-3.89965">
        <ele>697.2</ele>
        <time>2023-07-13T04:21:31.000+02:00</time>
      </trkpt>
      <trkpt lat="43.21851" lon="-3.8982">
        <ele>694.4</ele>
        <time>2023-07-13T04:21:55.000+02:00</time>
      </trkpt>
      <trkpt lat="43.21838" lon="-3.89718">
        <ele>709.9</ele>
        <time>2023-07-13T04:22:07.000+02:00</time>
      </trkpt>
      <trkpt lat="43.21654" lon="-3.89535">
        <ele>722.9</ele>
        <time>2023-07-13T04:22:41.000+02:00</time>
      </trkpt>
      <trkpt lat="43.21562" lon="-3.89393">
        <ele>724.7</ele>
        <time>2023-07-13T04:23:02.000+02:00</time>
      </trkpt>
      <trkpt lat="43.21518" lon="-3.8927">
        <ele>749.6</ele>
        <time>2023-07-13T04:23:18.000+02:00</time>
      </trkpt>
      <trkpt lat="43.21332" lon="-3.89123">
        <ele>750</ele>
        <time>2023-07-13T04:23:51.000+02:00</time>
      </trkpt>
      <trkpt lat="43.21132" lon="-3.8913">
        <ele>762.6</ele>
        <time>2023-07-13T04:24:21.000+02:00</time>
      </trkpt>
      <trkpt lat="43.21011" lon="-3.88995">
        <ele>773</ele>
        <time>2023-07-13T04:24:45.000+02:00</time>
      </trkpt>
      <trkpt lat="43.20936" lon="-3.89009">
        <ele>781</ele>
        <time>2023-07-13T04:24:56.000+02:00</time>
      </trkpt>
      <trkpt lat="43.20863" lon="-3.89065">
        <ele>792.5</ele>
        <time>2023-07-13T04:25:09.000+02:00</time>
      </trkpt>
      <trkpt lat="43.20739" lon="-3.89238">
        <ele>788.2</ele>
        <time>2023-07-13T04:25:36.000+02:00</time>
      </trkpt>
      <trkpt lat="43.20626" lon="-3.89301">
        <ele>780.9</ele>
        <time>2023-07-13T04:25:55.000+02:00</time>
      </trkpt>
      <trkpt lat="43.20584" lon="-3.89256">
        <ele>776</ele>
        <time>2023-07-13T04:26:03.000+02:00</time>
      </trkpt>
      <trkpt lat="43.20574" lon="-3.892">
        <ele>772.9</ele>
        <time>2023-07-13T04:26:09.000+02:00</time>
      </trkpt>
      <trkpt lat="43.20615" lon="-3.88846">
        <ele>758.4</ele>
        <time>2023-07-13T04:26:49.000+02:00</time>
      </trkpt>
      <trkpt lat="43.20576" lon="-3.88565">
        <ele>732</ele>
        <time>2023-07-13T04:27:21.000+02:00</time>
      </trkpt>
      <trkpt lat="43.20535" lon="-3.88428">
        <ele>717</ele>
        <time>2023-07-13T04:27:37.000+02:00</time>
      </trkpt>
      <trkpt lat="43.20364" lon="-3.88198">
        <ele>717.1</ele>
        <time>2023-07-13T04:28:14.000+02:00</time>
      </trkpt>
      <trkpt lat="43.20228" lon="-3.87925">
        <ele>732.1</ele>
        <time>2023-07-13T04:28:51.000+02:00</time>
      </trkpt>
      <trkpt lat="43.20091" lon="-3.87761">
        <ele>725.9</ele>
        <time>2023-07-13T04:29:19.000+02:00</time>
      </trkpt>
      <trkpt lat="43.1987" lon="-3.87873">
        <ele>707</ele>
        <time>2023-07-13T04:29:55.000+02:00</time>
      </trkpt>
      <trkpt lat="43.19582" lon="-3.8807">
        <ele>653.6</ele>
        <time>2023-07-13T04:30:44.000+02:00</time>
      </trkpt>
      <trkpt lat="43.19466" lon="-3.88303">
        <ele>620.7</ele>
        <time>2023-07-13T04:31:15.000+02:00</time>
      </trkpt>
      <trkpt lat="43.19289" lon="-3.88548">
        <ele>590.5</ele>
        <time>2023-07-13T04:31:54.000+02:00</time>
      </trkpt>
      <trkpt lat="43.19282" lon="-3.88567">
        <ele>589.3</ele>
        <time>2023-07-13T04:31:56.000+02:00</time>
      </trkpt>
      <trkpt lat="43.19359" lon="-3.8856">
        <ele>580</ele>
        <time>2023-07-13T04:32:08.000+02:00</time>
      </trkpt>
      <trkpt lat="43.19481" lon="-3.88524">
        <ele>585.9</ele>
        <time>2023-07-13T04:32:27.000+02:00</time>
      </trkpt>
      <trkpt lat="43.1963" lon="-3.88434">
        <ele>578.8</ele>
        <time>2023-07-13T04:32:52.000+02:00</time>
      </trkpt>
      <trkpt lat="43.19653" lon="-3.88376">
        <ele>575.8</ele>
        <time>2023-07-13T04:32:59.000+02:00</time>
      </trkpt>
      <trkpt lat="43.19779" lon="-3.88389">
        <ele>559.1</ele>
        <time>2023-07-13T04:33:19.000+02:00</time>
      </trkpt>
      <trkpt lat="43.19876" lon="-3.88312">
        <ele>567.8</ele>
        <time>2023-07-13T04:33:36.000+02:00</time>
      </trkpt>
      <trkpt lat="43.19805" lon="-3.88474">
        <ele>537.2</ele>
        <time>2023-07-13T04:33:57.000+02:00</time>
      </trkpt>
      <trkpt lat="43.19903" lon="-3.88411">
        <ele>533.2</ele>
        <time>2023-07-13T04:34:13.000+02:00</time>
      </trkpt>
      <trkpt lat="43.19841" lon="-3.88535">
        <ele>517</ele>
        <time>2023-07-13T04:34:30.000+02:00</time>
      </trkpt>
      <trkpt lat="43.19815" lon="-3.8856">
        <ele>506.9</ele>
        <time>2023-07-13T04:34:35.000+02:00</time>
      </trkpt>
      <trkpt lat="43.19755" lon="-3.88555">
        <ele>507.1</ele>
        <time>2023-07-13T04:34:44.000+02:00</time>
      </trkpt>
      <trkpt lat="43.19698" lon="-3.88739">
        <ele>486.2</ele>
        <time>2023-07-13T04:35:06.000+02:00</time>
      </trkpt>
      <trkpt lat="43.19515" lon="-3.88957">
        <ele>463.8</ele>
        <time>2023-07-13T04:35:43.000+02:00</time>
      </trkpt>
      <trkpt lat="43.19255" lon="-3.89206">
        <ele>451.9</ele>
        <time>2023-07-13T04:36:32.000+02:00</time>
      </trkpt>
      <trkpt lat="43.19302" lon="-3.89063">
        <ele>462.8</ele>
        <time>2023-07-13T04:36:49.000+02:00</time>
      </trkpt>
      <trkpt lat="43.19204" lon="-3.89127">
        <ele>478.9</ele>
        <time>2023-07-13T04:37:06.000+02:00</time>
      </trkpt>
      <trkpt lat="43.1916" lon="-3.89195">
        <ele>483</ele>
        <time>2023-07-13T04:37:16.000+02:00</time>
      </trkpt>
      <trkpt lat="43.1901" lon="-3.89259">
        <ele>483.7</ele>
        <time>2023-07-13T04:37:40.000+02:00</time>
      </trkpt>
      <trkpt lat="43.18967" lon="-3.89142">
        <ele>487.5</ele>
        <time>2023-07-13T04:37:55.000+02:00</time>
      </trkpt>
      <trkpt lat="43.18666" lon="-3.88942">
        <ele>471.1</ele>
        <time>2023-07-13T04:38:46.000+02:00</time>
      </trkpt>
      <trkpt lat="43.18507" lon="-3.88958">
        <ele>445.8</ele>
        <time>2023-07-13T04:39:10.000+02:00</time>
      </trkpt>
      <trkpt lat="43.18411" lon="-3.89013">
        <ele>431.1</ele>
        <time>2023-07-13T04:39:26.000+02:00</time>
      </trkpt>
      <trkpt lat="43.18263" lon="-3.88955">
        <ele>427.2</ele>
        <time>2023-07-13T04:39:50.000+02:00</time>
      </trkpt>
      <trkpt lat="43.1791" lon="-3.89035">
        <ele>439.9</ele>
        <time>2023-07-13T04:40:44.000+02:00</time>
      </trkpt>
      <trkpt lat="43.1768" lon="-3.8864">
        <ele>405.5</ele>
        <time>2023-07-13T04:41:41.000+02:00</time>
      </trkpt>
      <trkpt lat="43.17627" lon="-3.88484">
        <ele>396</ele>
        <time>2023-07-13T04:42:00.000+02:00</time>
      </trkpt>
      <trkpt lat="43.17526" lon="-3.88424">
        <ele>379.8</ele>
        <time>2023-07-13T04:42:17.000+02:00</time>
      </trkpt>
      <trkpt lat="43.17444" lon="-3.88426">
        <ele>367.5</ele>
        <time>2023-07-13T04:42:29.000+02:00</time>
      </trkpt>
      <trkpt lat="43.17416" lon="-3.8839">
        <ele>364.8</ele>
        <time>2023-07-13T04:42:35.000+02:00</time>
      </trkpt>
      <trkpt lat="43.17418" lon="-3.88323">
        <ele>356.6</ele>
        <time>2023-07-13T04:42:42.000+02:00</time>
      </trkpt>
      <trkpt lat="43.17465" lon="-3.88259">
        <ele>363.8</ele>
        <time>2023-07-13T04:42:53.000+02:00</time>
      </trkpt>
      <trkpt lat="43.17438" lon="-3.88203">
        <ele>354.6</ele>
        <time>2023-07-13T04:43:00.000+02:00</time>
      </trkpt>
      <trkpt lat="43.1744" lon="-3.88137">
        <ele>371.6</ele>
        <time>2023-07-13T04:43:07.000+02:00</time>
      </trkpt>
      <trkpt lat="43.17379" lon="-3.88084">
        <ele>353.6</ele>
        <time>2023-07-13T04:43:18.000+02:00</time>
      </trkpt>
      <trkpt lat="43.17392" lon="-3.8796">
        <ele>366.8</ele>
        <time>2023-07-13T04:43:33.000+02:00</time>
      </trkpt>
      <trkpt lat="43.17453" lon="-3.87587">
        <ele>341.7</ele>
        <time>2023-07-13T04:44:15.000+02:00</time>
      </trkpt>
      <trkpt lat="43.17487" lon="-3.87472">
        <ele>310.5</ele>
        <time>2023-07-13T04:44:29.000+02:00</time>
      </trkpt>
      <trkpt lat="43.1755" lon="-3.87434">
        <ele>311.9</ele>
        <time>2023-07-13T04:44:39.000+02:00</time>
      </trkpt>
      <trkpt lat="43.17554" lon="-3.87364">
        <ele>303.8</ele>
        <time>2023-07-13T04:44:47.000+02:00</time>
      </trkpt>
      <trkpt lat="43.17505" lon="-3.87316">
        <ele>292.2</ele>
        <time>2023-07-13T04:44:56.000+02:00</time>
      </trkpt>
      <trkpt lat="43.17434" lon="-3.87424">
        <ele>291</ele>
        <time>2023-07-13T04:45:13.000+02:00</time>
      </trkpt>
      <trkpt lat="43.17269" lon="-3.87461">
        <ele>260.1</ele>
        <time>2023-07-13T04:45:38.000+02:00</time>
      </trkpt>
      <trkpt lat="43.17384" lon="-3.87414">
        <ele>271.1</ele>
        <time>2023-07-13T04:45:57.000+02:00</time>
      </trkpt>
      <trkpt lat="43.17429" lon="-3.8722">
        <ele>250.6</ele>
        <time>2023-07-13T04:46:19.000+02:00</time>
      </trkpt>
      <trkpt lat="43.17504" lon="-3.87075">
        <ele>255.6</ele>
        <time>2023-07-13T04:46:39.000+02:00</time>
      </trkpt>
      <trkpt lat="43.17561" lon="-3.86882">
        <ele>252.3</ele>
        <time>2023-07-13T04:47:02.000+02:00</time>
      </trkpt>
      <trkpt lat="43.17554" lon="-3.86807">
        <ele>248.2</ele>
        <time>2023-07-13T04:47:11.000+02:00</time>
      </trkpt>
      <trkpt lat="43.17542" lon="-3.86789">
        <ele>247.8</ele>
        <time>2023-07-13T04:47:13.000+02:00</time>
      </trkpt>
      <trkpt lat="43.17323" lon="-3.86841">
        <ele>230.7</ele>
        <time>2023-07-13T04:47:47.000+02:00</time>
      </trkpt>
      <trkpt lat="43.17172" lon="-3.86731">
        <ele>233.2</ele>
        <time>2023-07-13T04:48:14.000+02:00</time>
      </trkpt>
      <trkpt lat="43.17078" lon="-3.86755">
        <ele>255.9</ele>
        <time>2023-07-13T04:48:28.000+02:00</time>
      </trkpt>
      <trkpt lat="43.17147" lon="-3.86864">
        <ele>266.6</ele>
        <time>2023-07-13T04:48:44.000+02:00</time>
      </trkpt>
      <trkpt lat="43.17244" lon="-3.86915">
        <ele>252.1</ele>
        <time>2023-07-13T04:49:00.000+02:00</time>
      </trkpt>
      <trkpt lat="43.17266" lon="-3.86977">
        <ele>239.6</ele>
        <time>2023-07-13T04:49:08.000+02:00</time>
      </trkpt>
      <trkpt lat="43.16874" lon="-3.87764">
        <ele>235.3</ele>
        <time>2023-07-13T04:50:54.000+02:00</time>
      </trkpt>
      <trkpt lat="43.16915" lon="-3.88347">
        <ele>230.4</ele>
        <time>2023-07-13T04:51:59.000+02:00</time>
      </trkpt>
      <trkpt lat="43.1682" lon="-3.88843">
        <ele>225.4</ele>
        <time>2023-07-13T04:52:56.000+02:00</time>
      </trkpt>
      <trkpt lat="43.16829" lon="-3.89499">
        <ele>207.5</ele>
        <time>2023-07-13T04:54:09.000+02:00</time>
      </trkpt>
      <trkpt lat="43.16969" lon="-3.89667">
        <ele>208.8</ele>
        <time>2023-07-13T04:54:38.000+02:00</time>
      </trkpt>
      <trkpt lat="43.17005" lon="-3.89786">
        <ele>207.1</ele>
        <time>2023-07-13T04:54:52.000+02:00</time>
      </trkpt>
      <trkpt lat="43.16979" lon="-3.89807">
        <ele>213.4</ele>
        <time>2023-07-13T04:54:57.000+02:00</time>
      </trkpt>
      <trkpt lat="43.16943" lon="-3.89781">
        <ele>215.8</ele>
        <time>2023-07-13T04:55:03.000+02:00</time>
      </trkpt>
      <trkpt lat="43.1685" lon="-3.89591">
        <ele>223.5</ele>
        <time>2023-07-13T04:55:29.000+02:00</time>
      </trkpt>
      <trkpt lat="43.16783" lon="-3.89564">
        <ele>227.2</ele>
        <time>2023-07-13T04:55:39.000+02:00</time>
      </trkpt>
      <trkpt lat="43.16629" lon="-3.89658">
        <ele>227.9</ele>
        <time>2023-07-13T04:56:05.000+02:00</time>
      </trkpt>
      <trkpt lat="43.16454" lon="-3.89855">
        <ele>232.2</ele>
        <time>2023-07-13T04:56:40.000+02:00</time>
      </trkpt>
      <trkpt lat="43.1633" lon="-3.89875">
        <ele>233.4</ele>
        <time>2023-07-13T04:56:59.000+02:00</time>
      </trkpt>
      <trkpt lat="43.16222" lon="-3.89826">
        <ele>236.7</ele>
        <time>2023-07-13T04:57:16.000+02:00</time>
      </trkpt>
      <trkpt lat="43.16093" lon="-3.8971">
        <ele>239.9</ele>
        <time>2023-07-13T04:57:40.000+02:00</time>
      </trkpt>
      <trkpt lat="43.15816" lon="-3.89582">
        <ele>271.7</ele>
        <time>2023-07-13T04:58:24.000+02:00</time>
      </trkpt>
      <trkpt lat="43.15573" lon="-3.89756">
        <ele>274.7</ele>
        <time>2023-07-13T04:59:06.000+02:00</time>
      </trkpt>
      <trkpt lat="43.1535" lon="-3.89689">
        <ele>259.9</ele>
        <time>2023-07-13T04:59:41.000+02:00</time>
      </trkpt>
      <trkpt lat="43.15248" lon="-3.89757">
        <ele>268.4</ele>
        <time>2023-07-13T04:59:59.000+02:00</time>
      </trkpt>
      <trkpt lat="43.15106" lon="-3.89766">
        <ele>259</ele>
        <time>2023-07-13T05:00:20.000+02:00</time>
      </trkpt>
      <trkpt lat="43.14764" lon="-3.89916">
        <ele>279.7</ele>
        <time>2023-07-13T05:01:15.000+02:00</time>
      </trkpt>
      <trkpt lat="43.14683" lon="-3.90044">
        <ele>289.4</ele>
        <time>2023-07-13T05:01:34.000+02:00</time>
      </trkpt>
      <trkpt lat="43.14693" lon="-3.90307">
        <ele>316</ele>
        <time>2023-07-13T05:02:03.000+02:00</time>
      </trkpt>
      <trkpt lat="43.14634" lon="-3.90457">
        <ele>318.5</ele>
        <time>2023-07-13T05:02:22.000+02:00</time>
      </trkpt>
      <trkpt lat="43.14638" lon="-3.906">
        <ele>334.3</ele>
        <time>2023-07-13T05:02:38.000+02:00</time>
      </trkpt>
      <trkpt lat="43.14574" lon="-3.90765">
        <ele>344.2</ele>
        <time>2023-07-13T05:02:59.000+02:00</time>
      </trkpt>
      <trkpt lat="43.14574" lon="-3.90833">
        <ele>359.8</ele>
        <time>2023-07-13T05:03:07.000+02:00</time>
      </trkpt>
      <trkpt lat="43.14533" lon="-3.90843">
        <ele>347.4</ele>
        <time>2023-07-13T05:03:13.000+02:00</time>
      </trkpt>
      <trkpt lat="43.14439" lon="-3.91071">
        <ele>362.8</ele>
        <time>2023-07-13T05:03:42.000+02:00</time>
      </trkpt>
      <trkpt lat="43.1439" lon="-3.91135">
        <ele>355.4</ele>
        <time>2023-07-13T05:03:53.000+02:00</time>
      </trkpt>
      <trkpt lat="43.1439" lon="-3.91345">
        <ele>381.5</ele>
        <time>2023-07-13T05:04:16.000+02:00</time>
      </trkpt>
      <trkpt lat="43.14371" lon="-3.91419">
        <ele>391.9</ele>
        <time>2023-07-13T05:04:25.000+02:00</time>
      </trkpt>
      <trkpt lat="43.14287" lon="-3.91576">
        <ele>408.9</ele>
        <time>2023-07-13T05:04:47.000+02:00</time>
      </trkpt>
      <trkpt lat="43.14231" lon="-3.9163">
        <ele>404.6</ele>
        <time>2023-07-13T05:04:57.000+02:00</time>
      </trkpt>
      <trkpt lat="43.14245" lon="-3.91686">
        <ele>421.7</ele>
        <time>2023-07-13T05:05:04.000+02:00</time>
      </trkpt>
      <trkpt lat="43.14377" lon="-3.91554">
        <ele>440</ele>
        <time>2023-07-13T05:05:29.000+02:00</time>
      </trkpt>
      <trkpt lat="43.14302" lon="-3.91761">
        <ele>452.8</ele>
        <time>2023-07-13T05:05:54.000+02:00</time>
      </trkpt>
      <trkpt lat="43.14416" lon="-3.92056">
        <ele>498.6</ele>
        <time>2023-07-13T05:06:31.000+02:00</time>
      </trkpt>
      <trkpt lat="43.14371" lon="-3.92058">
        <ele>498.2</ele>
        <time>2023-07-13T05:06:38.000+02:00</time>
      </trkpt>
      <trkpt lat="43.14348" lon="-3.92111">
        <ele>506.4</ele>
        <time>2023-07-13T05:06:45.000+02:00</time>
      </trkpt>
      <trkpt lat="43.14286" lon="-3.92137">
        <ele>500.8</ele>
        <time>2023-07-13T05:06:55.000+02:00</time>
      </trkpt>
      <trkpt lat="43.14219" lon="-3.92254">
        <ele>519</ele>
        <time>2023-07-13T05:07:12.000+02:00</time>
      </trkpt>
      <trkpt lat="43.14298" lon="-3.92426">
        <ele>534.9</ele>
        <time>2023-07-13T05:07:34.000+02:00</time>
      </trkpt>
      <trkpt lat="43.14264" lon="-3.92508">
        <ele>536.8</ele>
        <time>2023-07-13T05:07:45.000+02:00</time>
      </trkpt>
      <trkpt lat="43.14368" lon="-3.92635">
        <ele>563.5</ele>
        <time>2023-07-13T05:08:06.000+02:00</time>
      </trkpt>
      <trkpt lat="43.14381" lon="-3.92686">
        <ele>565</ele>
        <time>2023-07-13T05:08:12.000+02:00</time>
      </trkpt>
      <trkpt lat="43.1433" lon="-3.92811">
        <ele>566.6</ele>
        <time>2023-07-13T05:08:28.000+02:00</time>
      </trkpt>
      <trkpt lat="43.14341" lon="-3.92873">
        <ele>572.9</ele>
        <time>2023-07-13T05:08:35.000+02:00</time>
      </trkpt>
      <trkpt lat="43.14246" lon="-3.92819">
        <ele>563.9</ele>
        <time>2023-07-13T05:08:51.000+02:00</time>
      </trkpt>
      <trkpt lat="43.14098" lon="-3.92876">
        <ele>559.7</ele>
        <time>2023-07-13T05:09:15.000+02:00</time>
      </trkpt>
      <trkpt lat="43.14075" lon="-3.92939">
        <ele>567</ele>
        <time>2023-07-13T05:09:22.000+02:00</time>
      </trkpt>
      <trkpt lat="43.14079" lon="-3.9305">
        <ele>588.6</ele>
        <time>2023-07-13T05:09:35.000+02:00</time>
      </trkpt>
      <trkpt lat="43.13954" lon="-3.93195">
        <ele>611.1</ele>
        <time>2023-07-13T05:10:00.000+02:00</time>
      </trkpt>
      <trkpt lat="43.13881" lon="-3.9335">
        <ele>627.9</ele>
        <time>2023-07-13T05:10:20.000+02:00</time>
      </trkpt>
      <trkpt lat="43.13847" lon="-3.93513">
        <ele>647.8</ele>
        <time>2023-07-13T05:10:39.000+02:00</time>
      </trkpt>
      <trkpt lat="43.13878" lon="-3.93475">
        <ele>649</ele>
        <time>2023-07-13T05:10:46.000+02:00</time>
      </trkpt>
      <trkpt lat="43.1398" lon="-3.93446">
        <ele>660</ele>
        <time>2023-07-13T05:11:02.000+02:00</time>
      </trkpt>
      <trkpt lat="43.139" lon="-3.93591">
        <ele>677.3</ele>
        <time>2023-07-13T05:11:22.000+02:00</time>
      </trkpt>
      <trkpt lat="43.13875" lon="-3.93797">
        <ele>703.6</ele>
        <time>2023-07-13T05:11:45.000+02:00</time>
      </trkpt>
      <trkpt lat="43.13812" lon="-3.93743">
        <ele>702.7</ele>
        <time>2023-07-13T05:11:56.000+02:00</time>
      </trkpt>
      <trkpt lat="43.13703" lon="-3.93765">
        <ele>708.4</ele>
        <time>2023-07-13T05:12:13.000+02:00</time>
      </trkpt>
      <trkpt lat="43.1376" lon="-3.93786">
        <ele>715.7</ele>
        <time>2023-07-13T05:12:22.000+02:00</time>
      </trkpt>
      <trkpt lat="43.13568" lon="-3.94015">
        <ele>747.6</ele>
        <time>2023-07-13T05:13:01.000+02:00</time>
      </trkpt>
      <trkpt lat="43.13433" lon="-3.94295">
        <ele>785.4</ele>
        <time>2023-07-13T05:13:39.000+02:00</time>
      </trkpt>
      <trkpt lat="43.13344" lon="-3.94406">
        <ele>801.3</ele>
        <time>2023-07-13T05:13:57.000+02:00</time>
      </trkpt>
      <trkpt lat="43.13269" lon="-3.94602">
        <ele>820.2</ele>
        <time>2023-07-13T05:14:22.000+02:00</time>
      </trkpt>
      <trkpt lat="43.13092" lon="-3.9485">
        <ele>853.4</ele>
        <time>2023-07-13T05:15:00.000+02:00</time>
      </trkpt>
      <trkpt lat="43.1315" lon="-3.94878">
        <ele>856.8</ele>
        <time>2023-07-13T05:15:10.000+02:00</time>
      </trkpt>
      <trkpt lat="43.1322" lon="-3.95134">
        <ele>844.7</ele>
        <time>2023-07-13T05:15:40.000+02:00</time>
      </trkpt>
      <trkpt lat="43.13435" lon="-3.95451">
        <ele>814.5</ele>
        <time>2023-07-13T05:16:29.000+02:00</time>
      </trkpt>
      <trkpt lat="43.13708" lon="-3.95553">
        <ele>801.7</ele>
        <time>2023-07-13T05:17:12.000+02:00</time>
      </trkpt>
      <trkpt lat="43.13758" lon="-3.95605">
        <ele>796.3</ele>
        <time>2023-07-13T05:17:21.000+02:00</time>
      </trkpt>
      <trkpt lat="43.138" lon="-3.95743">
        <ele>774.6</ele>
        <time>2023-07-13T05:17:38.000+02:00</time>
      </trkpt>
      <trkpt lat="43.13917" lon="-3.95961">
        <ele>748.9</ele>
        <time>2023-07-13T05:18:08.000+02:00</time>
      </trkpt>
      <trkpt lat="43.13996" lon="-3.96218">
        <ele>725.2</ele>
        <time>2023-07-13T05:18:39.000+02:00</time>
      </trkpt>
      <trkpt lat="43.14144" lon="-3.96417">
        <ele>701.2</ele>
        <time>2023-07-13T05:19:11.000+02:00</time>
      </trkpt>
      <trkpt lat="43.14235" lon="-3.96488">
        <ele>705.6</ele>
        <time>2023-07-13T05:19:27.000+02:00</time>
      </trkpt>
      <trkpt lat="43.14211" lon="-3.96734">
        <ele>657.9</ele>
        <time>2023-07-13T05:19:55.000+02:00</time>
      </trkpt>
      <trkpt lat="43.14227" lon="-3.96934">
        <ele>636.3</ele>
        <time>2023-07-13T05:20:17.000+02:00</time>
      </trkpt>
      <trkpt lat="43.14285" lon="-3.97046">
        <ele>626.6</ele>
        <time>2023-07-13T05:20:32.000+02:00</time>
      </trkpt>
      <trkpt lat="43.14278" lon="-3.97099">
        <ele>618.9</ele>
        <time>2023-07-13T05:20:38.000+02:00</time>
      </trkpt>
      <trkpt lat="43.14352" lon="-3.97276">
        <ele>595.1</ele>
        <time>2023-07-13T05:21:01.000+02:00</time>
      </trkpt>
      <trkpt lat="43.1441" lon="-3.97367">
        <ele>583.1</ele>
        <time>2023-07-13T05:21:15.000+02:00</time>
      </trkpt>
      <trkpt lat="43.14484" lon="-3.97407">
        <ele>589.6</ele>
        <time>2023-07-13T05:21:27.000+02:00</time>
      </trkpt>
      <trkpt lat="43.14505" lon="-3.97523">
        <ele>579.6</ele>
        <time>2023-07-13T05:21:40.000+02:00</time>
      </trkpt>
      <trkpt lat="43.14461" lon="-3.97564">
        <ele>564.5</ele>
        <time>2023-07-13T05:21:48.000+02:00</time>
      </trkpt>
      <trkpt lat="43.14453" lon="-3.9763">
        <ele>562.8</ele>
        <time>2023-07-13T05:21:56.000+02:00</time>
      </trkpt>
      <trkpt lat="43.14406" lon="-3.97687">
        <ele>547.3</ele>
        <time>2023-07-13T05:22:05.000+02:00</time>
      </trkpt>
      <trkpt lat="43.1438" lon="-3.97896">
        <ele>538.5</ele>
        <time>2023-07-13T05:22:29.000+02:00</time>
      </trkpt>
      <trkpt lat="43.14281" lon="-3.9798">
        <ele>516.5</ele>
        <time>2023-07-13T05:22:47.000+02:00</time>
      </trkpt>
      <trkpt lat="43.14279" lon="-3.98076">
        <ele>507.5</ele>
        <time>2023-07-13T05:22:57.000+02:00</time>
      </trkpt>
      <trkpt lat="43.14303" lon="-3.98144">
        <ele>503.6</ele>
        <time>2023-07-13T05:23:06.000+02:00</time>
      </trkpt>
      <trkpt lat="43.14267" lon="-3.98087">
        <ele>499.6</ele>
        <time>2023-07-13T05:23:14.000+02:00</time>
      </trkpt>
      <trkpt lat="43.14245" lon="-3.97903">
        <ele>503.4</ele>
        <time>2023-07-13T05:23:35.000+02:00</time>
      </trkpt>
      <trkpt lat="43.14142" lon="-3.97936">
        <ele>477.9</ele>
        <time>2023-07-13T05:23:51.000+02:00</time>
      </trkpt>
      <trkpt lat="43.14216" lon="-3.98081">
        <ele>478.5</ele>
        <time>2023-07-13T05:24:11.000+02:00</time>
      </trkpt>
      <trkpt lat="43.14198" lon="-3.98173">
        <ele>462.5</ele>
        <time>2023-07-13T05:24:22.000+02:00</time>
      </trkpt>
      <trkpt lat="43.14237" lon="-3.98302">
        <ele>455.2</ele>
        <time>2023-07-13T05:24:37.000+02:00</time>
      </trkpt>
      <trkpt lat="43.14215" lon="-3.98467">
        <ele>442.3</ele>
        <time>2023-07-13T05:24:56.000+02:00</time>
      </trkpt>
      <trkpt lat="43.14258" lon="-3.98579">
        <ele>438.9</ele>
        <time>2023-07-13T05:25:10.000+02:00</time>
      </trkpt>
      <trkpt lat="43.142" lon="-3.98607">
        <ele>420.8</ele>
        <time>2023-07-13T05:25:19.000+02:00</time>
      </trkpt>
      <trkpt lat="43.14218" lon="-3.98689">
        <ele>430.3</ele>
        <time>2023-07-13T05:25:29.000+02:00</time>
      </trkpt>
      <trkpt lat="43.14159" lon="-3.98844">
        <ele>406.2</ele>
        <time>2023-07-13T05:25:48.000+02:00</time>
      </trkpt>
      <trkpt lat="43.14174" lon="-3.98917">
        <ele>417.4</ele>
        <time>2023-07-13T05:25:57.000+02:00</time>
      </trkpt>
      <trkpt lat="43.14127" lon="-3.99188">
        <ele>389.4</ele>
        <time>2023-07-13T05:26:28.000+02:00</time>
      </trkpt>
      <trkpt lat="43.14205" lon="-3.99329">
        <ele>393.1</ele>
        <time>2023-07-13T05:26:47.000+02:00</time>
      </trkpt>
      <trkpt lat="43.14286" lon="-3.99393">
        <ele>393</ele>
        <time>2023-07-13T05:27:02.000+02:00</time>
      </trkpt>
      <trkpt lat="43.14377" lon="-3.99835">
        <ele>354.1</ele>
        <time>2023-07-13T05:27:53.000+02:00</time>
      </trkpt>
      <trkpt lat="43.14503" lon="-3.9997">
        <ele>346.5</ele>
        <time>2023-07-13T05:28:17.000+02:00</time>
      </trkpt>
      <trkpt lat="43.14651" lon="-4.00054">
        <ele>340.2</ele>
        <time>2023-07-13T05:28:42.000+02:00</time>
      </trkpt>
      <trkpt lat="43.14722" lon="-4.00198">
        <ele>336.4</ele>
        <time>2023-07-13T05:29:01.000+02:00</time>
      </trkpt>
      <trkpt lat="43.14742" lon="-4.00317">
        <ele>328.5</ele>
        <time>2023-07-13T05:29:15.000+02:00</time>
      </trkpt>
      <trkpt lat="43.14786" lon="-4.00392">
        <ele>324.1</ele>
        <time>2023-07-13T05:29:25.000+02:00</time>
      </trkpt>
      <trkpt lat="43.14803" lon="-4.00677">
        <ele>283</ele>
        <time>2023-07-13T05:29:57.000+02:00</time>
      </trkpt>
      <trkpt lat="43.14845" lon="-4.00768">
        <ele>272.9</ele>
        <time>2023-07-13T05:30:09.000+02:00</time>
      </trkpt>
      <trkpt lat="43.14839" lon="-4.00931">
        <ele>277.6</ele>
        <time>2023-07-13T05:30:27.000+02:00</time>
      </trkpt>
      <trkpt lat="43.14866" lon="-4.00945">
        <ele>288.6</ele>
        <time>2023-07-13T05:30:32.000+02:00</time>
      </trkpt>
      <trkpt lat="43.14929" lon="-4.00876">
        <ele>296.9</ele>
        <time>2023-07-13T05:30:44.000+02:00</time>
      </trkpt>
      <trkpt lat="43.14944" lon="-4.00981">
        <ele>310.7</ele>
        <time>2023-07-13T05:30:56.000+02:00</time>
      </trkpt>
      <trkpt lat="43.15031" lon="-4.01067">
        <ele>333.5</ele>
        <time>2023-07-13T05:31:13.000+02:00</time>
      </trkpt>
      <trkpt lat="43.15053" lon="-4.01004">
        <ele>346.6</ele>
        <time>2023-07-13T05:31:20.000+02:00</time>
      </trkpt>
      <trkpt lat="43.1513" lon="-4.01092">
        <ele>362</ele>
        <time>2023-07-13T05:31:36.000+02:00</time>
      </trkpt>
      <trkpt lat="43.15116" lon="-4.01009">
        <ele>361.2</ele>
        <time>2023-07-13T05:31:45.000+02:00</time>
      </trkpt>
      <trkpt lat="43.15142" lon="-4.0099">
        <ele>363.5</ele>
        <time>2023-07-13T05:31:50.000+02:00</time>
      </trkpt>
      <trkpt lat="43.1517" lon="-4.01075">
        <ele>374.8</ele>
        <time>2023-07-13T05:32:00.000+02:00</time>
      </trkpt>
      <trkpt lat="43.15281" lon="-4.01202">
        <ele>400.5</ele>
        <time>2023-07-13T05:32:22.000+02:00</time>
      </trkpt>
      <trkpt lat="43.15286" lon="-4.01103">
        <ele>408.2</ele>
        <time>2023-07-13T05:32:33.000+02:00</time>
      </trkpt>
      <trkpt lat="43.15428" lon="-4.0108">
        <ele>424.6</ele>
        <time>2023-07-13T05:32:55.000+02:00</time>
      </trkpt>
      <trkpt lat="43.15603" lon="-4.01262">
        <ele>462.1</ele>
        <time>2023-07-13T05:33:29.000+02:00</time>
      </trkpt>
      <trkpt lat="43.15636" lon="-4.01342">
        <ele>466.9</ele>
        <time>2023-07-13T05:33:39.000+02:00</time>
      </trkpt>
      <trkpt lat="43.15761" lon="-4.01451">
        <ele>486.8</ele>
        <time>2023-07-13T05:34:02.000+02:00</time>
      </trkpt>
      <trkpt lat="43.15765" lon="-4.01364">
        <ele>503.9</ele>
        <time>2023-07-13T05:34:11.000+02:00</time>
      </trkpt>
      <trkpt lat="43.15717" lon="-4.01278">
        <ele>502.2</ele>
        <time>2023-07-13T05:34:23.000+02:00</time>
      </trkpt>
      <trkpt lat="43.15721" lon="-4.01185">
        <ele>506.8</ele>
        <time>2023-07-13T05:34:34.000+02:00</time>
      </trkpt>
      <trkpt lat="43.15763" lon="-4.01108">
        <ele>509.8</ele>
        <time>2023-07-13T05:34:44.000+02:00</time>
      </trkpt>
      <trkpt lat="43.15826" lon="-4.01106">
        <ele>525.5</ele>
        <time>2023-07-13T05:34:54.000+02:00</time>
      </trkpt>
      <trkpt lat="43.15907" lon="-4.01039">
        <ele>529.6</ele>
        <time>2023-07-13T05:35:09.000+02:00</time>
      </trkpt>
      <trkpt lat="43.15938" lon="-4.00907">
        <ele>536.1</ele>
        <time>2023-07-13T05:35:24.000+02:00</time>
      </trkpt>
      <trkpt lat="43.15981" lon="-4.00859">
        <ele>539.3</ele>
        <time>2023-07-13T05:35:32.000+02:00</time>
      </trkpt>
      <trkpt lat="43.16235" lon="-4.00802">
        <ele>565.8</ele>
        <time>2023-07-13T05:36:12.000+02:00</time>
      </trkpt>
      <trkpt lat="43.16306" lon="-4.00756">
        <ele>576.2</ele>
        <time>2023-07-13T05:36:24.000+02:00</time>
      </trkpt>
      <trkpt lat="43.16331" lon="-4.00769">
        <ele>584.2</ele>
        <time>2023-07-13T05:36:28.000+02:00</time>
      </trkpt>
      <trkpt lat="43.16309" lon="-4.00833">
        <ele>589.1</ele>
        <time>2023-07-13T05:36:36.000+02:00</time>
      </trkpt>
      <trkpt lat="43.16371" lon="-4.00962">
        <ele>586.4</ele>
        <time>2023-07-13T05:36:53.000+02:00</time>
      </trkpt>
      <trkpt lat="43.1646" lon="-4.00982">
        <ele>567.9</ele>
        <time>2023-07-13T05:37:07.000+02:00</time>
      </trkpt>
      <trkpt lat="43.16529" lon="-4.00936">
        <ele>554.2</ele>
        <time>2023-07-13T05:37:18.000+02:00</time>
      </trkpt>
      <trkpt lat="43.16616" lon="-4.00806">
        <ele>552</ele>
        <time>2023-07-13T05:37:38.000+02:00</time>
      </trkpt>
      <trkpt lat="43.16599" lon="-4.00621">
        <ele>565</ele>
        <time>2023-07-13T05:37:59.000+02:00</time>
      </trkpt>
      <trkpt lat="43.16671" lon="-4.00655">
        <ele>551</ele>
        <time>2023-07-13T05:38:10.000+02:00</time>
      </trkpt>
      <trkpt lat="43.16715" lon="-4.00645">
        <ele>550.5</ele>
        <time>2023-07-13T05:38:17.000+02:00</time>
      </trkpt>
      <trkpt lat="43.16748" lon="-4.00691">
        <ele>538.8</ele>
        <time>2023-07-13T05:38:24.000+02:00</time>
      </trkpt>
      <trkpt lat="43.16951" lon="-4.00756">
        <ele>534.3</ele>
        <time>2023-07-13T05:38:56.000+02:00</time>
      </trkpt>
      <trkpt lat="43.17104" lon="-4.00872">
        <ele>518.3</ele>
        <time>2023-07-13T05:39:23.000+02:00</time>
      </trkpt>
      <trkpt lat="43.17225" lon="-4.01078">
        <ele>492.3</ele>
        <time>2023-07-13T05:39:52.000+02:00</time>
      </trkpt>
      <trkpt lat="43.17167" lon="-4.01102">
        <ele>487.8</ele>
        <time>2023-07-13T05:40:02.000+02:00</time>
      </trkpt>
      <trkpt lat="43.16997" lon="-4.01304">
        <ele>500.5</ele>
        <time>2023-07-13T05:40:36.000+02:00</time>
      </trkpt>
      <trkpt lat="43.1688" lon="-4.01626">
        <ele>504.4</ele>
        <time>2023-07-13T05:41:16.000+02:00</time>
      </trkpt>
      <trkpt lat="43.16933" lon="-4.01806">
        <ele>510.1</ele>
        <time>2023-07-13T05:41:38.000+02:00</time>
      </trkpt>
      <trkpt lat="43.16904" lon="-4.01878">
        <ele>503.4</ele>
        <time>2023-07-13T05:41:47.000+02:00</time>
      </trkpt>
      <trkpt lat="43.16946" lon="-4.01983">
        <ele>506.9</ele>
        <time>2023-07-13T05:42:00.000+02:00</time>
      </trkpt>
      <trkpt lat="43.16861" lon="-4.02121">
        <ele>506.2</ele>
        <time>2023-07-13T05:42:20.000+02:00</time>
      </trkpt>
      <trkpt lat="43.1687" lon="-4.02308">
        <ele>507.4</ele>
        <time>2023-07-13T05:42:41.000+02:00</time>
      </trkpt>
      <trkpt lat="43.17094" lon="-4.02352">
        <ele>505.8</ele>
        <time>2023-07-13T05:43:16.000+02:00</time>
      </trkpt>
      <trkpt lat="43.17219" lon="-4.02288">
        <ele>500.9</ele>
        <time>2023-07-13T05:43:36.000+02:00</time>
      </trkpt>
      <trkpt lat="43.17377" lon="-4.02256">
        <ele>494.7</ele>
        <time>2023-07-13T05:44:01.000+02:00</time>
      </trkpt>
      <trkpt lat="43.17453" lon="-4.02287">
        <ele>487.3</ele>
        <time>2023-07-13T05:44:13.000+02:00</time>
      </trkpt>
      <trkpt lat="43.17498" lon="-4.0236">
        <ele>476.8</ele>
        <time>2023-07-13T05:44:24.000+02:00</time>
      </trkpt>
      <trkpt lat="43.17583" lon="-4.02385">
        <ele>474.5</ele>
        <time>2023-07-13T05:44:37.000+02:00</time>
      </trkpt>
      <trkpt lat="43.17777" lon="-4.02317">
        <ele>458.3</ele>
        <time>2023-07-13T05:45:07.000+02:00</time>
      </trkpt>
      <trkpt lat="43.17889" lon="-4.02459">
        <ele>443.5</ele>
        <time>2023-07-13T05:45:31.000+02:00</time>
      </trkpt>
      <trkpt lat="43.17911" lon="-4.02646">
        <ele>425.7</ele>
        <time>2023-07-13T05:45:52.000+02:00</time>
      </trkpt>
      <trkpt lat="43.1803" lon="-4.02828">
        <ele>415.3</ele>
        <time>2023-07-13T05:46:19.000+02:00</time>
      </trkpt>
      <trkpt lat="43.18056" lon="-4.02913">
        <ele>411.8</ele>
        <time>2023-07-13T05:46:29.000+02:00</time>
      </trkpt>
      <trkpt lat="43.18029" lon="-4.03082">
        <ele>404.9</ele>
        <time>2023-07-13T05:46:49.000+02:00</time>
      </trkpt>
      <trkpt lat="43.17875" lon="-4.03222">
        <ele>389.6</ele>
        <time>2023-07-13T05:47:17.000+02:00</time>
      </trkpt>
      <trkpt lat="43.17819" lon="-4.03153">
        <ele>377.9</ele>
        <time>2023-07-13T05:47:28.000+02:00</time>
      </trkpt>
      <trkpt lat="43.17814" lon="-4.02999">
        <ele>380.5</ele>
        <time>2023-07-13T05:47:45.000+02:00</time>
      </trkpt>
      <trkpt lat="43.17771" lon="-4.0286">
        <ele>386.8</ele>
        <time>2023-07-13T05:48:02.000+02:00</time>
      </trkpt>
      <trkpt lat="43.17625" lon="-4.03087">
        <ele>357.8</ele>
        <time>2023-07-13T05:48:36.000+02:00</time>
      </trkpt>
      <trkpt lat="43.17562" lon="-4.03071">
        <ele>352.7</ele>
        <time>2023-07-13T05:48:46.000+02:00</time>
      </trkpt>
      <trkpt lat="43.17491" lon="-4.02984">
        <ele>354.2</ele>
        <time>2023-07-13T05:49:00.000+02:00</time>
      </trkpt>
      <trkpt lat="43.17463" lon="-4.03001">
        <ele>358.7</ele>
        <time>2023-07-13T05:49:05.000+02:00</time>
      </trkpt>
      <trkpt lat="43.17458" lon="-4.03228">
        <ele>344.2</ele>
        <time>2023-07-13T05:49:30.000+02:00</time>
      </trkpt>
      <trkpt lat="43.17413" lon="-4.03363">
        <ele>335.9</ele>
        <time>2023-07-13T05:49:47.000+02:00</time>
      </trkpt>
      <trkpt lat="43.17487" lon="-4.03304">
        <ele>322.5</ele>
        <time>2023-07-13T05:50:00.000+02:00</time>
      </trkpt>
      <trkpt lat="43.17498" lon="-4.03188">
        <ele>330.6</ele>
        <time>2023-07-13T05:50:13.000+02:00</time>
      </trkpt>
      <trkpt lat="43.17511" lon="-4.03265">
        <ele>315.2</ele>
        <time>2023-07-13T05:50:21.000+02:00</time>
      </trkpt>
      <trkpt lat="43.17547" lon="-4.03249">
        <ele>306.2</ele>
        <time>2023-07-13T05:50:27.000+02:00</time>
      </trkpt>
      <trkpt lat="43.17502" lon="-4.03519">
        <ele>288.4</ele>
        <time>2023-07-13T05:50:58.000+02:00</time>
      </trkpt>
      <trkpt lat="43.17538" lon="-4.03602">
        <ele>274</ele>
        <time>2023-07-13T05:51:09.000+02:00</time>
      </trkpt>
      <trkpt lat="43.17538" lon="-4.03518">
        <ele>271.5</ele>
        <time>2023-07-13T05:51:18.000+02:00</time>
      </trkpt>
      <trkpt lat="43.17594" lon="-4.03474">
        <ele>268.9</ele>
        <time>2023-07-13T05:51:28.000+02:00</time>
      </trkpt>
      <trkpt lat="43.17645" lon="-4.03658">
        <ele>250.4</ele>
        <time>2023-07-13T05:51:50.000+02:00</time>
      </trkpt>
      <trkpt lat="43.17649" lon="-4.0392">
        <ele>233.4</ele>
        <time>2023-07-13T05:52:19.000+02:00</time>
      </trkpt>
      <trkpt lat="43.17711" lon="-4.04234">
        <ele>208.4</ele>
        <time>2023-07-13T05:52:55.000+02:00</time>
      </trkpt>
      <trkpt lat="43.17739" lon="-4.04236">
        <ele>215.5</ele>
        <time>2023-07-13T05:53:00.000+02:00</time>
      </trkpt>
      <trkpt lat="43.17757" lon="-4.04152">
        <ele>226.4</ele>
        <time>2023-07-13T05:53:09.000+02:00</time>
      </trkpt>
      <trkpt lat="43.1781" lon="-4.04086">
        <ele>231.8</ele>
        <time>2023-07-13T05:53:20.000+02:00</time>
      </trkpt>
      <trkpt lat="43.17857" lon="-4.04193">
        <ele>235.6</ele>
        <time>2023-07-13T05:53:34.000+02:00</time>
      </trkpt>
      <trkpt lat="43.17936" lon="-4.04235">
        <ele>243.8</ele>
        <time>2023-07-13T05:53:47.000+02:00</time>
      </trkpt>
      <trkpt lat="43.18022" lon="-4.0422">
        <ele>245.8</ele>
        <time>2023-07-13T05:54:00.000+02:00</time>
      </trkpt>
      <trkpt lat="43.18233" lon="-4.04283">
        <ele>241.7</ele>
        <time>2023-07-13T05:54:33.000+02:00</time>
      </trkpt>
      <trkpt lat="43.18445" lon="-4.04233">
        <ele>238</ele>
        <time>2023-07-13T05:55:06.000+02:00</time>
      </trkpt>
      <trkpt lat="43.18473" lon="-4.04294">
        <ele>235.9</ele>
        <time>2023-07-13T05:55:14.000+02:00</time>
      </trkpt>
      <trkpt lat="43.18459" lon="-4.04404">
        <ele>231.5</ele>
        <time>2023-07-13T05:55:27.000+02:00</time>
      </trkpt>
      <trkpt lat="43.18607" lon="-4.04571">
        <ele>207.1</ele>
        <time>2023-07-13T05:55:56.000+02:00</time>
      </trkpt>
      <trkpt lat="43.18636" lon="-4.04626">
        <ele>201.8</ele>
        <time>2023-07-13T05:56:04.000+02:00</time>
      </trkpt>
      <trkpt lat="43.18636" lon="-4.04677">
        <ele>196.1</ele>
        <time>2023-07-13T05:56:09.000+02:00</time>
      </trkpt>
      <trkpt lat="43.1879" lon="-4.04792">
        <ele>180.5</ele>
        <time>2023-07-13T05:56:36.000+02:00</time>
      </trkpt>
      <trkpt lat="43.1882" lon="-4.04789">
        <ele>179</ele>
        <time>2023-07-13T05:56:41.000+02:00</time>
      </trkpt>
      <trkpt lat="43.18807" lon="-4.049">
        <ele>170.1</ele>
        <time>2023-07-13T05:56:53.000+02:00</time>
      </trkpt>
      <trkpt lat="43.18725" lon="-4.05072">
        <ele>172.7</ele>
        <time>2023-07-13T05:57:16.000+02:00</time>
      </trkpt>
      <trkpt lat="43.18703" lon="-4.05091">
        <ele>172.9</ele>
        <time>2023-07-13T05:57:20.000+02:00</time>
      </trkpt>
      <trkpt lat="43.18653" lon="-4.05035">
        <ele>174.7</ele>
        <time>2023-07-13T05:57:30.000+02:00</time>
      </trkpt>
      <trkpt lat="43.18698" lon="-4.05129">
        <ele>173.6</ele>
        <time>2023-07-13T05:57:43.000+02:00</time>
      </trkpt>
      <trkpt lat="43.19261" lon="-4.05417">
        <ele>168.1</ele>
        <time>2023-07-13T05:59:14.000+02:00</time>
      </trkpt>
      <trkpt lat="43.19541" lon="-4.05481">
        <ele>165.2</ele>
        <time>2023-07-13T05:59:58.000+02:00</time>
      </trkpt>
      <trkpt lat="43.19533" lon="-4.05662">
        <ele>167.5</ele>
        <time>2023-07-13T06:00:18.000+02:00</time>
      </trkpt>
      <trkpt lat="43.19574" lon="-4.05849">
        <ele>172.3</ele>
        <time>2023-07-13T06:00:40.000+02:00</time>
      </trkpt>
      <trkpt lat="43.19503" lon="-4.06269">
        <ele>171.2</ele>
        <time>2023-07-13T06:01:28.000+02:00</time>
      </trkpt>
      <trkpt lat="43.19411" lon="-4.0655">
        <ele>178.3</ele>
        <time>2023-07-13T06:02:02.000+02:00</time>
      </trkpt>
      <trkpt lat="43.1956" lon="-4.06659">
        <ele>184</ele>
        <time>2023-07-13T06:02:28.000+02:00</time>
      </trkpt>
      <trkpt lat="43.19664" lon="-4.06583">
        <ele>191.6</ele>
        <time>2023-07-13T06:02:46.000+02:00</time>
      </trkpt>
      <trkpt lat="43.19725" lon="-4.06594">
        <ele>200.3</ele>
        <time>2023-07-13T06:02:56.000+02:00</time>
      </trkpt>
      <trkpt lat="43.19732" lon="-4.06463">
        <ele>207.4</ele>
        <time>2023-07-13T06:03:10.000+02:00</time>
      </trkpt>
      <trkpt lat="43.19798" lon="-4.06325">
        <ele>229.1</ele>
        <time>2023-07-13T06:03:29.000+02:00</time>
      </trkpt>
      <trkpt lat="43.19823" lon="-4.06498">
        <ele>231.6</ele>
        <time>2023-07-13T06:03:48.000+02:00</time>
      </trkpt>
      <trkpt lat="43.19959" lon="-4.06691">
        <ele>248.3</ele>
        <time>2023-07-13T06:04:18.000+02:00</time>
      </trkpt>
      <trkpt lat="43.2009" lon="-4.06796">
        <ele>272.8</ele>
        <time>2023-07-13T06:04:41.000+02:00</time>
      </trkpt>
      <trkpt lat="43.2013" lon="-4.06894">
        <ele>271.2</ele>
        <time>2023-07-13T06:04:54.000+02:00</time>
      </trkpt>
      <trkpt lat="43.20256" lon="-4.07048">
        <ele>299.6</ele>
        <time>2023-07-13T06:05:20.000+02:00</time>
      </trkpt>
      <trkpt lat="43.20518" lon="-4.07289">
        <ele>338.1</ele>
        <time>2023-07-13T06:06:08.000+02:00</time>
      </trkpt>
      <trkpt lat="43.20579" lon="-4.07495">
        <ele>323.6</ele>
        <time>2023-07-13T06:06:33.000+02:00</time>
      </trkpt>
      <trkpt lat="43.20635" lon="-4.07564">
        <ele>332.2</ele>
        <time>2023-07-13T06:06:44.000+02:00</time>
      </trkpt>
      <trkpt lat="43.20688" lon="-4.07728">
        <ele>337.8</ele>
        <time>2023-07-13T06:07:04.000+02:00</time>
      </trkpt>
      <trkpt lat="43.20763" lon="-4.07823">
        <ele>349.5</ele>
        <time>2023-07-13T06:07:20.000+02:00</time>
      </trkpt>
      <trkpt lat="43.21036" lon="-4.07932">
        <ele>350.8</ele>
        <time>2023-07-13T06:08:03.000+02:00</time>
      </trkpt>
      <trkpt lat="43.21195" lon="-4.07896">
        <ele>330.8</ele>
        <time>2023-07-13T06:08:28.000+02:00</time>
      </trkpt>
      <trkpt lat="43.21303" lon="-4.07919">
        <ele>307.5</ele>
        <time>2023-07-13T06:08:45.000+02:00</time>
      </trkpt>
      <trkpt lat="43.21376" lon="-4.0797">
        <ele>289</ele>
        <time>2023-07-13T06:08:57.000+02:00</time>
      </trkpt>
      <trkpt lat="43.21544" lon="-4.07967">
        <ele>257.7</ele>
        <time>2023-07-13T06:09:23.000+02:00</time>
      </trkpt>
      <trkpt lat="43.217" lon="-4.08116">
        <ele>243.9</ele>
        <time>2023-07-13T06:09:52.000+02:00</time>
      </trkpt>
      <trkpt lat="43.21777" lon="-4.08042">
        <ele>236.3</ele>
        <time>2023-07-13T06:10:06.000+02:00</time>
      </trkpt>
      <trkpt lat="43.21913" lon="-4.08169">
        <ele>229.1</ele>
        <time>2023-07-13T06:10:31.000+02:00</time>
      </trkpt>
      <trkpt lat="43.21989" lon="-4.08287">
        <ele>209.5</ele>
        <time>2023-07-13T06:10:49.000+02:00</time>
      </trkpt>
      <trkpt lat="43.22021" lon="-4.08427">
        <ele>193.3</ele>
        <time>2023-07-13T06:11:05.000+02:00</time>
      </trkpt>
      <trkpt lat="43.21957" lon="-4.08628">
        <ele>179.8</ele>
        <time>2023-07-13T06:11:30.000+02:00</time>
      </trkpt>
      <trkpt lat="43.2191" lon="-4.08704">
        <ele>172.2</ele>
        <time>2023-07-13T06:11:41.000+02:00</time>
      </trkpt>
      <trkpt lat="43.21963" lon="-4.08942">
        <ele>160</ele>
        <time>2023-07-13T06:12:08.000+02:00</time>
      </trkpt>
      <trkpt lat="43.22084" lon="-4.09041">
        <ele>157.9</ele>
        <time>2023-07-13T06:12:30.000+02:00</time>
      </trkpt>
      <trkpt lat="43.22059" lon="-4.09343">
        <ele>161.4</ele>
        <time>2023-07-13T06:13:04.000+02:00</time>
      </trkpt>
      <trkpt lat="43.22107" lon="-4.0974">
        <ele>182.2</ele>
        <time>2023-07-13T06:13:48.000+02:00</time>
      </trkpt>
      <trkpt lat="43.22071" lon="-4.1003">
        <ele>190.2</ele>
        <time>2023-07-13T06:14:21.000+02:00</time>
      </trkpt>
      <trkpt lat="43.22078" lon="-4.10108">
        <ele>195.3</ele>
        <time>2023-07-13T06:14:30.000+02:00</time>
      </trkpt>
      <trkpt lat="43.22115" lon="-4.10151">
        <ele>202.2</ele>
        <time>2023-07-13T06:14:37.000+02:00</time>
      </trkpt>
      <trkpt lat="43.22171" lon="-4.10188">
        <ele>212.8</ele>
        <time>2023-07-13T06:14:47.000+02:00</time>
      </trkpt>
      <trkpt lat="43.22247" lon="-4.10118">
        <ele>219.4</ele>
        <time>2023-07-13T06:15:01.000+02:00</time>
      </trkpt>
      <trkpt lat="43.22247" lon="-4.10042">
        <ele>224.2</ele>
        <time>2023-07-13T06:15:09.000+02:00</time>
      </trkpt>
      <trkpt lat="43.22293" lon="-4.09876">
        <ele>236.9</ele>
        <time>2023-07-13T06:15:29.000+02:00</time>
      </trkpt>
      <trkpt lat="43.22397" lon="-4.09803">
        <ele>260.7</ele>
        <time>2023-07-13T06:15:47.000+02:00</time>
      </trkpt>
      <trkpt lat="43.22474" lon="-4.09806">
        <ele>266.2</ele>
        <time>2023-07-13T06:15:59.000+02:00</time>
      </trkpt>
      <trkpt lat="43.22553" lon="-4.09757">
        <ele>266.8</ele>
        <time>2023-07-13T06:16:12.000+02:00</time>
      </trkpt>
      <trkpt lat="43.2262" lon="-4.09769">
        <ele>262.5</ele>
        <time>2023-07-13T06:16:22.000+02:00</time>
      </trkpt>
      <trkpt lat="43.22683" lon="-4.09862">
        <ele>261.1</ele>
        <time>2023-07-13T06:16:36.000+02:00</time>
      </trkpt>
      <trkpt lat="43.22757" lon="-4.09873">
        <ele>267.7</ele>
        <time>2023-07-13T06:16:48.000+02:00</time>
      </trkpt>
      <trkpt lat="43.22693" lon="-4.09988">
        <ele>279</ele>
        <time>2023-07-13T06:17:04.000+02:00</time>
      </trkpt>
      <trkpt lat="43.22705" lon="-4.1001">
        <ele>284.5</ele>
        <time>2023-07-13T06:17:07.000+02:00</time>
      </trkpt>
      <trkpt lat="43.2289" lon="-4.09926">
        <ele>304.7</ele>
        <time>2023-07-13T06:17:37.000+02:00</time>
      </trkpt>
      <trkpt lat="43.22986" lon="-4.09918">
        <ele>317.5</ele>
        <time>2023-07-13T06:17:51.000+02:00</time>
      </trkpt>
      <trkpt lat="43.23063" lon="-4.09825">
        <ele>322.7</ele>
        <time>2023-07-13T06:18:07.000+02:00</time>
      </trkpt>
      <trkpt lat="43.23252" lon="-4.09818">
        <ele>350.3</ele>
        <time>2023-07-13T06:18:36.000+02:00</time>
      </trkpt>
      <trkpt lat="43.23475" lon="-4.09715">
        <ele>356</ele>
        <time>2023-07-13T06:19:12.000+02:00</time>
      </trkpt>
      <trkpt lat="43.23576" lon="-4.09759">
        <ele>360.4</ele>
        <time>2023-07-13T06:19:28.000+02:00</time>
      </trkpt>
      <trkpt lat="43.23619" lon="-4.09698">
        <ele>356.3</ele>
        <time>2023-07-13T06:19:38.000+02:00</time>
      </trkpt>
      <trkpt lat="43.23707" lon="-4.09663">
        <ele>370.9</ele>
        <time>2023-07-13T06:19:52.000+02:00</time>
      </trkpt>
      <trkpt lat="43.2381" lon="-4.09562">
        <ele>382.6</ele>
        <time>2023-07-13T06:20:11.000+02:00</time>
      </trkpt>
      <trkpt lat="43.23873" lon="-4.0956">
        <ele>382.2</ele>
        <time>2023-07-13T06:20:20.000+02:00</time>
      </trkpt>
      <trkpt lat="43.24" lon="-4.09651">
        <ele>391.7</ele>
        <time>2023-07-13T06:20:42.000+02:00</time>
      </trkpt>
      <trkpt lat="43.24156" lon="-4.09527">
        <ele>381.3</ele>
        <time>2023-07-13T06:21:10.000+02:00</time>
      </trkpt>
      <trkpt lat="43.24322" lon="-4.09441">
        <ele>373.3</ele>
        <time>2023-07-13T06:21:37.000+02:00</time>
      </trkpt>
      <trkpt lat="43.24414" lon="-4.09442">
        <ele>374.2</ele>
        <time>2023-07-13T06:21:51.000+02:00</time>
      </trkpt>
      <trkpt lat="43.24507" lon="-4.0936">
        <ele>363.6</ele>
        <time>2023-07-13T06:22:08.000+02:00</time>
      </trkpt>
      <trkpt lat="43.24741" lon="-4.09339">
        <ele>362.6</ele>
        <time>2023-07-13T06:22:44.000+02:00</time>
      </trkpt>
      <trkpt lat="43.24799" lon="-4.09263">
        <ele>355.3</ele>
        <time>2023-07-13T06:22:56.000+02:00</time>
      </trkpt>
      <trkpt lat="43.24945" lon="-4.09219">
        <ele>342.2</ele>
        <time>2023-07-13T06:23:19.000+02:00</time>
      </trkpt>
      <trkpt lat="43.25107" lon="-4.09073">
        <ele>328</ele>
        <time>2023-07-13T06:23:49.000+02:00</time>
      </trkpt>
      <trkpt lat="43.2518" lon="-4.09076">
        <ele>338.8</ele>
        <time>2023-07-13T06:24:00.000+02:00</time>
      </trkpt>
      <trkpt lat="43.25246" lon="-4.09031">
        <ele>340.4</ele>
        <time>2023-07-13T06:24:11.000+02:00</time>
      </trkpt>
      <trkpt lat="43.25258" lon="-4.09067">
        <ele>349.4</ele>
        <time>2023-07-13T06:24:15.000+02:00</time>
      </trkpt>
      <trkpt lat="43.25221" lon="-4.09172">
        <ele>357.7</ele>
        <time>2023-07-13T06:24:29.000+02:00</time>
      </trkpt>
      <trkpt lat="43.25083" lon="-4.0944">
        <ele>393.7</ele>
        <time>2023-07-13T06:25:05.000+02:00</time>
      </trkpt>
      <trkpt lat="43.25105" lon="-4.09456">
        <ele>400.4</ele>
        <time>2023-07-13T06:25:09.000+02:00</time>
      </trkpt>
      <trkpt lat="43.25199" lon="-4.09418">
        <ele>403.8</ele>
        <time>2023-07-13T06:25:24.000+02:00</time>
      </trkpt>
      <trkpt lat="43.2522" lon="-4.09456">
        <ele>416.2</ele>
        <time>2023-07-13T06:25:29.000+02:00</time>
      </trkpt>
      <trkpt lat="43.25124" lon="-4.09529">
        <ele>424.1</ele>
        <time>2023-07-13T06:25:46.000+02:00</time>
      </trkpt>
      <trkpt lat="43.25086" lon="-4.09632">
        <ele>442.4</ele>
        <time>2023-07-13T06:25:59.000+02:00</time>
      </trkpt>
      <trkpt lat="43.24843" lon="-4.09761">
        <ele>468.7</ele>
        <time>2023-07-13T06:26:38.000+02:00</time>
      </trkpt>
      <trkpt lat="43.24664" lon="-4.09983">
        <ele>494.2</ele>
        <time>2023-07-13T06:27:15.000+02:00</time>
      </trkpt>
      <trkpt lat="43.24686" lon="-4.09992">
        <ele>496.3</ele>
        <time>2023-07-13T06:27:19.000+02:00</time>
      </trkpt>
      <trkpt lat="43.24854" lon="-4.09887">
        <ele>504.3</ele>
        <time>2023-07-13T06:27:47.000+02:00</time>
      </trkpt>
      <trkpt lat="43.24836" lon="-4.10003">
        <ele>503.8</ele>
        <time>2023-07-13T06:28:00.000+02:00</time>
      </trkpt>
      <trkpt lat="43.24865" lon="-4.10126">
        <ele>495</ele>
        <time>2023-07-13T06:28:15.000+02:00</time>
      </trkpt>
      <trkpt lat="43.24865" lon="-4.1034">
        <ele>487.3</ele>
        <time>2023-07-13T06:28:38.000+02:00</time>
      </trkpt>
      <trkpt lat="43.24892" lon="-4.10491">
        <ele>470.3</ele>
        <time>2023-07-13T06:28:56.000+02:00</time>
      </trkpt>
      <trkpt lat="43.24788" lon="-4.10767">
        <ele>464.8</ele>
        <time>2023-07-13T06:29:30.000+02:00</time>
      </trkpt>
      <trkpt lat="43.24789" lon="-4.10875">
        <ele>465.9</ele>
        <time>2023-07-13T06:29:42.000+02:00</time>
      </trkpt>
      <trkpt lat="43.24833" lon="-4.10975">
        <ele>465.3</ele>
        <time>2023-07-13T06:29:55.000+02:00</time>
      </trkpt>
      <trkpt lat="43.24921" lon="-4.10982">
        <ele>448.7</ele>
        <time>2023-07-13T06:30:09.000+02:00</time>
      </trkpt>
      <trkpt lat="43.25003" lon="-4.10951">
        <ele>438.3</ele>
        <time>2023-07-13T06:30:22.000+02:00</time>
      </trkpt>
      <trkpt lat="43.2512" lon="-4.10995">
        <ele>420</ele>
        <time>2023-07-13T06:30:40.000+02:00</time>
      </trkpt>
      <trkpt lat="43.25242" lon="-4.10975">
        <ele>404</ele>
        <time>2023-07-13T06:30:59.000+02:00</time>
      </trkpt>
      <trkpt lat="43.25309" lon="-4.1102">
        <ele>398.5</ele>
        <time>2023-07-13T06:31:10.000+02:00</time>
      </trkpt>
      <trkpt lat="43.25393" lon="-4.10971">
        <ele>379.8</ele>
        <time>2023-07-13T06:31:24.000+02:00</time>
      </trkpt>
      <trkpt lat="43.25444" lon="-4.10883">
        <ele>365.1</ele>
        <time>2023-07-13T06:31:37.000+02:00</time>
      </trkpt>
      <trkpt lat="43.25521" lon="-4.10913">
        <ele>354.6</ele>
        <time>2023-07-13T06:31:49.000+02:00</time>
      </trkpt>
      <trkpt lat="43.25618" lon="-4.10899">
        <ele>340.2</ele>
        <time>2023-07-13T06:32:04.000+02:00</time>
      </trkpt>
      <trkpt lat="43.25819" lon="-4.10751">
        <ele>293.3</ele>
        <time>2023-07-13T06:32:39.000+02:00</time>
      </trkpt>
      <trkpt lat="43.26073" lon="-4.10638">
        <ele>266.1</ele>
        <time>2023-07-13T06:33:20.000+02:00</time>
      </trkpt>
      <trkpt lat="43.26196" lon="-4.10502">
        <ele>248.6</ele>
        <time>2023-07-13T06:33:44.000+02:00</time>
      </trkpt>
      <trkpt lat="43.263" lon="-4.10469">
        <ele>252.7</ele>
        <time>2023-07-13T06:34:00.000+02:00</time>
      </trkpt>
      <trkpt lat="43.26266" lon="-4.10632">
        <ele>245.2</ele>
        <time>2023-07-13T06:34:19.000+02:00</time>
      </trkpt>
      <trkpt lat="43.26216" lon="-4.10719">
        <ele>248</ele>
        <time>2023-07-13T06:34:31.000+02:00</time>
      </trkpt>
      <trkpt lat="43.26219" lon="-4.10892">
        <ele>233.5</ele>
        <time>2023-07-13T06:34:50.000+02:00</time>
      </trkpt>
      <trkpt lat="43.26194" lon="-4.10936">
        <ele>235.1</ele>
        <time>2023-07-13T06:34:57.000+02:00</time>
      </trkpt>
      <trkpt lat="43.26256" lon="-4.11021">
        <ele>217.7</ele>
        <time>2023-07-13T06:35:10.000+02:00</time>
      </trkpt>
      <trkpt lat="43.26284" lon="-4.10942">
        <ele>217.5</ele>
        <time>2023-07-13T06:35:20.000+02:00</time>
      </trkpt>
      <trkpt lat="43.26351" lon="-4.10946">
        <ele>205.5</ele>
        <time>2023-07-13T06:35:30.000+02:00</time>
      </trkpt>
      <trkpt lat="43.26431" lon="-4.10848">
        <ele>196.8</ele>
        <time>2023-07-13T06:35:46.000+02:00</time>
      </trkpt>
      <trkpt lat="43.26812" lon="-4.10749">
        <ele>152</ele>
        <time>2023-07-13T06:36:46.000+02:00</time>
      </trkpt>
      <trkpt lat="43.26969" lon="-4.10746">
        <ele>133.5</ele>
        <time>2023-07-13T06:37:10.000+02:00</time>
      </trkpt>
      <trkpt lat="43.27085" lon="-4.10611">
        <ele>129.5</ele>
        <time>2023-07-13T06:37:33.000+02:00</time>
      </trkpt>
      <trkpt lat="43.27195" lon="-4.10539">
        <ele>116.7</ele>
        <time>2023-07-13T06:37:51.000+02:00</time>
      </trkpt>
      <trkpt lat="43.2727" lon="-4.10557">
        <ele>118.6</ele>
        <time>2023-07-13T06:38:03.000+02:00</time>
      </trkpt>
      <trkpt lat="43.27246" lon="-4.10665">
        <ele>122.2</ele>
        <time>2023-07-13T06:38:16.000+02:00</time>
      </trkpt>
      <trkpt lat="43.27267" lon="-4.10741">
        <ele>122.1</ele>
        <time>2023-07-13T06:38:25.000+02:00</time>
      </trkpt>
      <trkpt lat="43.27252" lon="-4.10832">
        <ele>129.9</ele>
        <time>2023-07-13T06:38:35.000+02:00</time>
      </trkpt>
      <trkpt lat="43.27302" lon="-4.10982">
        <ele>123.8</ele>
        <time>2023-07-13T06:38:53.000+02:00</time>
      </trkpt>
      <trkpt lat="43.27352" lon="-4.11065">
        <ele>126.1</ele>
        <time>2023-07-13T06:39:05.000+02:00</time>
      </trkpt>
      <trkpt lat="43.27418" lon="-4.11068">
        <ele>130.7</ele>
        <time>2023-07-13T06:39:15.000+02:00</time>
      </trkpt>
      <trkpt lat="43.27434" lon="-4.11149">
        <ele>137.8</ele>
        <time>2023-07-13T06:39:25.000+02:00</time>
      </trkpt>
      <trkpt lat="43.27519" lon="-4.11266">
        <ele>160.2</ele>
        <time>2023-07-13T06:39:43.000+02:00</time>
      </trkpt>
      <trkpt lat="43.27516" lon="-4.11677">
        <ele>180</ele>
        <time>2023-07-13T06:40:29.000+02:00</time>
      </trkpt>
      <trkpt lat="43.27468" lon="-4.11896">
        <ele>172.2</ele>
        <time>2023-07-13T06:40:54.000+02:00</time>
      </trkpt>
      <trkpt lat="43.2749" lon="-4.12033">
        <ele>183.1</ele>
        <time>2023-07-13T06:41:10.000+02:00</time>
      </trkpt>
      <trkpt lat="43.27489" lon="-4.12248">
        <ele>198.9</ele>
        <time>2023-07-13T06:41:34.000+02:00</time>
      </trkpt>
      <trkpt lat="43.27396" lon="-4.12419">
        <ele>196</ele>
        <time>2023-07-13T06:41:58.000+02:00</time>
      </trkpt>
      <trkpt lat="43.27452" lon="-4.12619">
        <ele>209</ele>
        <time>2023-07-13T06:42:21.000+02:00</time>
      </trkpt>
      <trkpt lat="43.27417" lon="-4.12718">
        <ele>208.7</ele>
        <time>2023-07-13T06:42:34.000+02:00</time>
      </trkpt>
      <trkpt lat="43.27447" lon="-4.12812">
        <ele>226.4</ele>
        <time>2023-07-13T06:42:45.000+02:00</time>
      </trkpt>
      <trkpt lat="43.27396" lon="-4.12882">
        <ele>223.6</ele>
        <time>2023-07-13T06:42:56.000+02:00</time>
      </trkpt>
      <trkpt lat="43.2741" lon="-4.13058">
        <ele>243.4</ele>
        <time>2023-07-13T06:43:16.000+02:00</time>
      </trkpt>
      <trkpt lat="43.27442" lon="-4.13099">
        <ele>257.7</ele>
        <time>2023-07-13T06:43:23.000+02:00</time>
      </trkpt>
      <trkpt lat="43.27493" lon="-4.12943">
        <ele>264.8</ele>
        <time>2023-07-13T06:43:42.000+02:00</time>
      </trkpt>
      <trkpt lat="43.27596" lon="-4.12927">
        <ele>282.8</ele>
        <time>2023-07-13T06:43:57.000+02:00</time>
      </trkpt>
      <trkpt lat="43.276" lon="-4.12743">
        <ele>279.2</ele>
        <time>2023-07-13T06:44:18.000+02:00</time>
      </trkpt>
      <trkpt lat="43.2766" lon="-4.12724">
        <ele>291.4</ele>
        <time>2023-07-13T06:44:27.000+02:00</time>
      </trkpt>
      <trkpt lat="43.27726" lon="-4.12643">
        <ele>302.1</ele>
        <time>2023-07-13T06:44:41.000+02:00</time>
      </trkpt>
      <trkpt lat="43.277" lon="-4.12781">
        <ele>311.1</ele>
        <time>2023-07-13T06:44:57.000+02:00</time>
      </trkpt>
      <trkpt lat="43.27798" lon="-4.12941">
        <ele>334</ele>
        <time>2023-07-13T06:45:20.000+02:00</time>
      </trkpt>
      <trkpt lat="43.27824" lon="-4.1305">
        <ele>344.6</ele>
        <time>2023-07-13T06:45:33.000+02:00</time>
      </trkpt>
      <trkpt lat="43.27796" lon="-4.13085">
        <ele>342.1</ele>
        <time>2023-07-13T06:45:38.000+02:00</time>
      </trkpt>
      <trkpt lat="43.27813" lon="-4.13185">
        <ele>352.6</ele>
        <time>2023-07-13T06:45:50.000+02:00</time>
      </trkpt>
      <trkpt lat="43.27991" lon="-4.13399">
        <ele>380.5</ele>
        <time>2023-07-13T06:46:26.000+02:00</time>
      </trkpt>
      <trkpt lat="43.27955" lon="-4.13547">
        <ele>381</ele>
        <time>2023-07-13T06:46:43.000+02:00</time>
      </trkpt>
      <trkpt lat="43.27992" lon="-4.13697">
        <ele>388</ele>
        <time>2023-07-13T06:47:01.000+02:00</time>
      </trkpt>
      <trkpt lat="43.27968" lon="-4.13767">
        <ele>392.1</ele>
        <time>2023-07-13T06:47:10.000+02:00</time>
      </trkpt>
      <trkpt lat="43.27935" lon="-4.13794">
        <ele>389.7</ele>
        <time>2023-07-13T06:47:15.000+02:00</time>
      </trkpt>
      <trkpt lat="43.2792" lon="-4.13867">
        <ele>394.5</ele>
        <time>2023-07-13T06:47:24.000+02:00</time>
      </trkpt>
      <trkpt lat="43.27952" lon="-4.14005">
        <ele>409.2</ele>
        <time>2023-07-13T06:47:40.000+02:00</time>
      </trkpt>
      <trkpt lat="43.27935" lon="-4.14041">
        <ele>412.6</ele>
        <time>2023-07-13T06:47:45.000+02:00</time>
      </trkpt>
      <trkpt lat="43.27876" lon="-4.14066">
        <ele>411.3</ele>
        <time>2023-07-13T06:47:54.000+02:00</time>
      </trkpt>
      <trkpt lat="43.27816" lon="-4.14247">
        <ele>427.4</ele>
        <time>2023-07-13T06:48:16.000+02:00</time>
      </trkpt>
      <trkpt lat="43.27811" lon="-4.1443">
        <ele>439.2</ele>
        <time>2023-07-13T06:48:37.000+02:00</time>
      </trkpt>
      <trkpt lat="43.27845" lon="-4.14558">
        <ele>437.3</ele>
        <time>2023-07-13T06:48:52.000+02:00</time>
      </trkpt>
      <trkpt lat="43.2781" lon="-4.14587">
        <ele>430</ele>
        <time>2023-07-13T06:48:58.000+02:00</time>
      </trkpt>
      <trkpt lat="43.27792" lon="-4.14724">
        <ele>437.7</ele>
        <time>2023-07-13T06:49:14.000+02:00</time>
      </trkpt>
      <trkpt lat="43.27688" lon="-4.14865">
        <ele>438</ele>
        <time>2023-07-13T06:49:36.000+02:00</time>
      </trkpt>
      <trkpt lat="43.27683" lon="-4.14924">
        <ele>438.3</ele>
        <time>2023-07-13T06:49:43.000+02:00</time>
      </trkpt>
      <trkpt lat="43.27716" lon="-4.15126">
        <ele>422.1</ele>
        <time>2023-07-13T06:50:06.000+02:00</time>
      </trkpt>
      <trkpt lat="43.27737" lon="-4.15156">
        <ele>419.9</ele>
        <time>2023-07-13T06:50:10.000+02:00</time>
      </trkpt>
      <trkpt lat="43.27793" lon="-4.15149">
        <ele>423.2</ele>
        <time>2023-07-13T06:50:19.000+02:00</time>
      </trkpt>
      <trkpt lat="43.27756" lon="-4.15368">
        <ele>424.5</ele>
        <time>2023-07-13T06:50:44.000+02:00</time>
      </trkpt>
      <trkpt lat="43.2781" lon="-4.15518">
        <ele>423.5</ele>
        <time>2023-07-13T06:51:02.000+02:00</time>
      </trkpt>
      <trkpt lat="43.27864" lon="-4.1558">
        <ele>426.7</ele>
        <time>2023-07-13T06:51:13.000+02:00</time>
      </trkpt>
      <trkpt lat="43.27885" lon="-4.15705">
        <ele>424.6</ele>
        <time>2023-07-13T06:51:28.000+02:00</time>
      </trkpt>
      <trkpt lat="43.28039" lon="-4.15864">
        <ele>415.3</ele>
        <time>2023-07-13T06:51:57.000+02:00</time>
      </trkpt>
      <trkpt lat="43.28052" lon="-4.16005">
        <ele>398.9</ele>
        <time>2023-07-13T06:52:13.000+02:00</time>
      </trkpt>
      <trkpt lat="43.28075" lon="-4.16077">
        <ele>396.9</ele>
        <time>2023-07-13T06:52:22.000+02:00</time>
      </trkpt>
      <trkpt lat="43.28114" lon="-4.16099">
        <ele>401.8</ele>
        <time>2023-07-13T06:52:28.000+02:00</time>
      </trkpt>
      <trkpt lat="43.28098" lon="-4.16169">
        <ele>393.4</ele>
        <time>2023-07-13T06:52:36.000+02:00</time>
      </trkpt>
      <trkpt lat="43.28167" lon="-4.16313">
        <ele>387.2</ele>
        <time>2023-07-13T06:52:55.000+02:00</time>
      </trkpt>
      <trkpt lat="43.28195" lon="-4.16452">
        <ele>374.2</ele>
        <time>2023-07-13T06:53:11.000+02:00</time>
      </trkpt>
      <trkpt lat="43.28214" lon="-4.1647">
        <ele>371</ele>
        <time>2023-07-13T06:53:15.000+02:00</time>
      </trkpt>
      <trkpt lat="43.28242" lon="-4.16439">
        <ele>373.4</ele>
        <time>2023-07-13T06:53:20.000+02:00</time>
      </trkpt>
      <trkpt lat="43.28323" lon="-4.1649">
        <ele>354.6</ele>
        <time>2023-07-13T06:53:34.000+02:00</time>
      </trkpt>
      <trkpt lat="43.28311" lon="-4.16653">
        <ele>334.8</ele>
        <time>2023-07-13T06:53:52.000+02:00</time>
      </trkpt>
      <trkpt lat="43.28446" lon="-4.16704">
        <ele>332.3</ele>
        <time>2023-07-13T06:54:13.000+02:00</time>
      </trkpt>
      <trkpt lat="43.28539" lon="-4.1689">
        <ele>318.4</ele>
        <time>2023-07-13T06:54:39.000+02:00</time>
      </trkpt>
      <trkpt lat="43.2874" lon="-4.16928">
        <ele>317.7</ele>
        <time>2023-07-13T06:55:10.000+02:00</time>
      </trkpt>
      <trkpt lat="43.28792" lon="-4.17049">
        <ele>292.2</ele>
        <time>2023-07-13T06:55:25.000+02:00</time>
      </trkpt>
      <trkpt lat="43.28871" lon="-4.17114">
        <ele>282.9</ele>
        <time>2023-07-13T06:55:39.000+02:00</time>
      </trkpt>
      <trkpt lat="43.28956" lon="-4.17084">
        <ele>279.6</ele>
        <time>2023-07-13T06:55:53.000+02:00</time>
      </trkpt>
      <trkpt lat="43.29019" lon="-4.17096">
        <ele>272.4</ele>
        <time>2023-07-13T06:56:02.000+02:00</time>
      </trkpt>
      <trkpt lat="43.2908" lon="-4.17174">
        <ele>249.5</ele>
        <time>2023-07-13T06:56:15.000+02:00</time>
      </trkpt>
      <trkpt lat="43.29125" lon="-4.17133">
        <ele>253.6</ele>
        <time>2023-07-13T06:56:23.000+02:00</time>
      </trkpt>
      <trkpt lat="43.29109" lon="-4.17247">
        <ele>235.3</ele>
        <time>2023-07-13T06:56:36.000+02:00</time>
      </trkpt>
      <trkpt lat="43.29162" lon="-4.17255">
        <ele>236.1</ele>
        <time>2023-07-13T06:56:44.000+02:00</time>
      </trkpt>
      <trkpt lat="43.29214" lon="-4.17199">
        <ele>229.2</ele>
        <time>2023-07-13T06:56:55.000+02:00</time>
      </trkpt>
      <trkpt lat="43.29439" lon="-4.17227">
        <ele>191.9</ele>
        <time>2023-07-13T06:57:29.000+02:00</time>
      </trkpt>
      <trkpt lat="43.29583" lon="-4.17192">
        <ele>174.7</ele>
        <time>2023-07-13T06:57:51.000+02:00</time>
      </trkpt>
      <trkpt lat="43.29636" lon="-4.17215">
        <ele>179</ele>
        <time>2023-07-13T06:58:00.000+02:00</time>
      </trkpt>
      <trkpt lat="43.29706" lon="-4.1728">
        <ele>183.2</ele>
        <time>2023-07-13T06:58:13.000+02:00</time>
      </trkpt>
      <trkpt lat="43.29696" lon="-4.17393">
        <ele>176.8</ele>
        <time>2023-07-13T06:58:26.000+02:00</time>
      </trkpt>
      <trkpt lat="43.29833" lon="-4.17728">
        <ele>153</ele>
        <time>2023-07-13T06:59:08.000+02:00</time>
      </trkpt>
      <trkpt lat="43.29889" lon="-4.17814">
        <ele>149.3</ele>
        <time>2023-07-13T06:59:21.000+02:00</time>
      </trkpt>
      <trkpt lat="43.29931" lon="-4.1776">
        <ele>149</ele>
        <time>2023-07-13T06:59:30.000+02:00</time>
      </trkpt>
      <trkpt lat="43.30055" lon="-4.17812">
        <ele>144.1</ele>
        <time>2023-07-13T06:59:50.000+02:00</time>
      </trkpt>
      <trkpt lat="43.30183" lon="-4.18016">
        <ele>138.5</ele>
        <time>2023-07-13T07:00:20.000+02:00</time>
      </trkpt>
      <trkpt lat="43.3024" lon="-4.18054">
        <ele>136.2</ele>
        <time>2023-07-13T07:00:29.000+02:00</time>
      </trkpt>
      <trkpt lat="43.30341" lon="-4.18432">
        <ele>139.6</ele>
        <time>2023-07-13T07:01:14.000+02:00</time>
      </trkpt>
      <trkpt lat="43.30574" lon="-4.18736">
        <ele>142.9</ele>
        <time>2023-07-13T07:02:03.000+02:00</time>
      </trkpt>
      <trkpt lat="43.30933" lon="-4.19011">
        <ele>127.1</ele>
        <time>2023-07-13T07:03:06.000+02:00</time>
      </trkpt>
      <trkpt lat="43.31342" lon="-4.19136">
        <ele>109.6</ele>
        <time>2023-07-13T07:04:10.000+02:00</time>
      </trkpt>
      <trkpt lat="43.31388" lon="-4.19315">
        <ele>110.9</ele>
        <time>2023-07-13T07:04:31.000+02:00</time>
      </trkpt>
      <trkpt lat="43.31477" lon="-4.19328">
        <ele>107.6</ele>
        <time>2023-07-13T07:04:45.000+02:00</time>
      </trkpt>
      <trkpt lat="43.31413" lon="-4.19473">
        <ele>109.7</ele>
        <time>2023-07-13T07:05:04.000+02:00</time>
      </trkpt>
      <trkpt lat="43.31241" lon="-4.19617">
        <ele>110</ele>
        <time>2023-07-13T07:05:34.000+02:00</time>
      </trkpt>
      <trkpt lat="43.31178" lon="-4.19636">
        <ele>111.2</ele>
        <time>2023-07-13T07:05:44.000+02:00</time>
      </trkpt>
      <trkpt lat="43.31068" lon="-4.19587">
        <ele>114.4</ele>
        <time>2023-07-13T07:06:02.000+02:00</time>
      </trkpt>
      <trkpt lat="43.30934" lon="-4.19673">
        <ele>115.1</ele>
        <time>2023-07-13T07:06:25.000+02:00</time>
      </trkpt>
      <trkpt lat="43.3068" lon="-4.20056">
        <ele>117.7</ele>
        <time>2023-07-13T07:07:22.000+02:00</time>
      </trkpt>
      <trkpt lat="43.30626" lon="-4.20199">
        <ele>116.6</ele>
        <time>2023-07-13T07:07:40.000+02:00</time>
      </trkpt>
      <trkpt lat="43.30561" lon="-4.2029">
        <ele>120.4</ele>
        <time>2023-07-13T07:07:54.000+02:00</time>
      </trkpt>
      <trkpt lat="43.30054" lon="-4.20804">
        <ele>134.3</ele>
        <time>2023-07-13T07:09:31.000+02:00</time>
      </trkpt>
      <trkpt lat="43.29876" lon="-4.20904">
        <ele>135.5</ele>
        <time>2023-07-13T07:10:00.000+02:00</time>
      </trkpt>
      <trkpt lat="43.29801" lon="-4.20905">
        <ele>136.5</ele>
        <time>2023-07-13T07:10:12.000+02:00</time>
      </trkpt>
      <trkpt lat="43.29662" lon="-4.21136">
        <ele>140.4</ele>
        <time>2023-07-13T07:10:45.000+02:00</time>
      </trkpt>
      <trkpt lat="43.29549" lon="-4.21273">
        <ele>138.3</ele>
        <time>2023-07-13T07:11:08.000+02:00</time>
      </trkpt>
      <trkpt lat="43.29468" lon="-4.21592">
        <ele>129.1</ele>
        <time>2023-07-13T07:11:45.000+02:00</time>
      </trkpt>
      <trkpt lat="43.29332" lon="-4.21752">
        <ele>133.2</ele>
        <time>2023-07-13T07:12:13.000+02:00</time>
      </trkpt>
      <trkpt lat="43.29175" lon="-4.2205">
        <ele>135.3</ele>
        <time>2023-07-13T07:12:54.000+02:00</time>
      </trkpt>
      <trkpt lat="43.29144" lon="-4.22154">
        <ele>137.9</ele>
        <time>2023-07-13T07:13:06.000+02:00</time>
      </trkpt>
      <trkpt lat="43.28997" lon="-4.22405">
        <ele>140.3</ele>
        <time>2023-07-13T07:13:42.000+02:00</time>
      </trkpt>
      <trkpt lat="43.28921" lon="-4.22637">
        <ele>141</ele>
        <time>2023-07-13T07:14:10.000+02:00</time>
      </trkpt>
      <trkpt lat="43.28825" lon="-4.22725">
        <ele>141.4</ele>
        <time>2023-07-13T07:14:28.000+02:00</time>
      </trkpt>
      <trkpt lat="43.28684" lon="-4.23208">
        <ele>146.7</ele>
        <time>2023-07-13T07:15:26.000+02:00</time>
      </trkpt>
      <trkpt lat="43.28504" lon="-4.23452">
        <ele>150.2</ele>
        <time>2023-07-13T07:16:04.000+02:00</time>
      </trkpt>
      <trkpt lat="43.28075" lon="-4.23697">
        <ele>173.9</ele>
        <time>2023-07-13T07:17:15.000+02:00</time>
      </trkpt>
      <trkpt lat="43.27942" lon="-4.2382">
        <ele>170.7</ele>
        <time>2023-07-13T07:17:40.000+02:00</time>
      </trkpt>
      <trkpt lat="43.27784" lon="-4.23856">
        <ele>172.9</ele>
        <time>2023-07-13T07:18:04.000+02:00</time>
      </trkpt>
      <trkpt lat="43.27711" lon="-4.2393">
        <ele>172.6</ele>
        <time>2023-07-13T07:18:18.000+02:00</time>
      </trkpt>
      <trkpt lat="43.27676" lon="-4.24086">
        <ele>171.3</ele>
        <time>2023-07-13T07:18:36.000+02:00</time>
      </trkpt>
      <trkpt lat="43.27691" lon="-4.24455">
        <ele>172.7</ele>
        <time>2023-07-13T07:19:17.000+02:00</time>
      </trkpt>
      <trkpt lat="43.27655" lon="-4.24539">
        <ele>172</ele>
        <time>2023-07-13T07:19:28.000+02:00</time>
      </trkpt>
      <trkpt lat="43.27577" lon="-4.24575">
        <ele>181.1</ele>
        <time>2023-07-13T07:19:41.000+02:00</time>
      </trkpt>
      <trkpt lat="43.27249" lon="-4.24554">
        <ele>175.5</ele>
        <time>2023-07-13T07:20:31.000+02:00</time>
      </trkpt>
      <trkpt lat="43.27146" lon="-4.24605">
        <ele>163.7</ele>
        <time>2023-07-13T07:20:48.000+02:00</time>
      </trkpt>
      <trkpt lat="43.27055" lon="-4.24714">
        <ele>167.4</ele>
        <time>2023-07-13T07:21:06.000+02:00</time>
      </trkpt>
      <trkpt lat="43.25868" lon="-4.26795">
        <ele>189</ele>
        <time>2023-07-13T07:26:00.000+02:00</time>
      </trkpt>
      <trkpt lat="43.25975" lon="-4.27038">
        <ele>188.7</ele>
        <time>2023-07-13T07:26:32.000+02:00</time>
      </trkpt>
      <trkpt lat="43.25987" lon="-4.27188">
        <ele>191.8</ele>
        <time>2023-07-13T07:26:49.000+02:00</time>
      </trkpt>
      <trkpt lat="43.26042" lon="-4.27339">
        <ele>192.8</ele>
        <time>2023-07-13T07:27:08.000+02:00</time>
      </trkpt>
      <trkpt lat="43.26021" lon="-4.27479">
        <ele>195.2</ele>
        <time>2023-07-13T07:27:23.000+02:00</time>
      </trkpt>
      <trkpt lat="43.26035" lon="-4.27647">
        <ele>198.8</ele>
        <time>2023-07-13T07:27:42.000+02:00</time>
      </trkpt>
      <trkpt lat="43.26091" lon="-4.27762">
        <ele>205</ele>
        <time>2023-07-13T07:27:58.000+02:00</time>
      </trkpt>
      <trkpt lat="43.26283" lon="-4.27918">
        <ele>218</ele>
        <time>2023-07-13T07:28:32.000+02:00</time>
      </trkpt>
      <trkpt lat="43.26298" lon="-4.28002">
        <ele>216.2</ele>
        <time>2023-07-13T07:28:41.000+02:00</time>
      </trkpt>
      <trkpt lat="43.26363" lon="-4.28137">
        <ele>223.7</ele>
        <time>2023-07-13T07:28:59.000+02:00</time>
      </trkpt>
      <trkpt lat="43.26354" lon="-4.2824">
        <ele>222.4</ele>
        <time>2023-07-13T07:29:11.000+02:00</time>
      </trkpt>
      <trkpt lat="43.26278" lon="-4.28421">
        <ele>225.7</ele>
        <time>2023-07-13T07:29:34.000+02:00</time>
      </trkpt>
      <trkpt lat="43.2622" lon="-4.28829">
        <ele>237.6</ele>
        <time>2023-07-13T07:30:20.000+02:00</time>
      </trkpt>
      <trkpt lat="43.26306" lon="-4.29124">
        <ele>244</ele>
        <time>2023-07-13T07:30:56.000+02:00</time>
      </trkpt>
      <trkpt lat="43.263" lon="-4.29241">
        <ele>257.5</ele>
        <time>2023-07-13T07:31:09.000+02:00</time>
      </trkpt>
      <trkpt lat="43.26243" lon="-4.29378">
        <ele>270</ele>
        <time>2023-07-13T07:31:26.000+02:00</time>
      </trkpt>
      <trkpt lat="43.26187" lon="-4.29402">
        <ele>283.9</ele>
        <time>2023-07-13T07:31:35.000+02:00</time>
      </trkpt>
      <trkpt lat="43.26126" lon="-4.29329">
        <ele>294</ele>
        <time>2023-07-13T07:31:48.000+02:00</time>
      </trkpt>
      <trkpt lat="43.26055" lon="-4.29311">
        <ele>302.6</ele>
        <time>2023-07-13T07:31:59.000+02:00</time>
      </trkpt>
      <trkpt lat="43.26054" lon="-4.29342">
        <ele>306.5</ele>
        <time>2023-07-13T07:32:02.000+02:00</time>
      </trkpt>
      <trkpt lat="43.26097" lon="-4.29371">
        <ele>305.1</ele>
        <time>2023-07-13T07:32:10.000+02:00</time>
      </trkpt>
      <trkpt lat="43.26057" lon="-4.2946">
        <ele>317.5</ele>
        <time>2023-07-13T07:32:21.000+02:00</time>
      </trkpt>
      <trkpt lat="43.25968" lon="-4.2948">
        <ele>329.9</ele>
        <time>2023-07-13T07:32:35.000+02:00</time>
      </trkpt>
      <trkpt lat="43.25948" lon="-4.29387">
        <ele>337.5</ele>
        <time>2023-07-13T07:32:46.000+02:00</time>
      </trkpt>
      <trkpt lat="43.25822" lon="-4.29214">
        <ele>355.5</ele>
        <time>2023-07-13T07:33:13.000+02:00</time>
      </trkpt>
      <trkpt lat="43.25606" lon="-4.2901">
        <ele>391.6</ele>
        <time>2023-07-13T07:33:53.000+02:00</time>
      </trkpt>
      <trkpt lat="43.25595" lon="-4.28932">
        <ele>395.4</ele>
        <time>2023-07-13T07:34:02.000+02:00</time>
      </trkpt>
      <trkpt lat="43.25623" lon="-4.28892">
        <ele>396.9</ele>
        <time>2023-07-13T07:34:08.000+02:00</time>
      </trkpt>
      <trkpt lat="43.25663" lon="-4.28705">
        <ele>409</ele>
        <time>2023-07-13T07:34:30.000+02:00</time>
      </trkpt>
      <trkpt lat="43.25403" lon="-4.28991">
        <ele>440.6</ele>
        <time>2023-07-13T07:35:21.000+02:00</time>
      </trkpt>
      <trkpt lat="43.2538" lon="-4.29054">
        <ele>443.3</ele>
        <time>2023-07-13T07:35:29.000+02:00</time>
      </trkpt>
      <trkpt lat="43.25371" lon="-4.29141">
        <ele>448.3</ele>
        <time>2023-07-13T07:35:38.000+02:00</time>
      </trkpt>
      <trkpt lat="43.25412" lon="-4.29339">
        <ele>452.8</ele>
        <time>2023-07-13T07:36:01.000+02:00</time>
      </trkpt>
      <trkpt lat="43.25393" lon="-4.29382">
        <ele>463.3</ele>
        <time>2023-07-13T07:36:07.000+02:00</time>
      </trkpt>
      <trkpt lat="43.25398" lon="-4.29465">
        <ele>464.8</ele>
        <time>2023-07-13T07:36:16.000+02:00</time>
      </trkpt>
      <trkpt lat="43.25441" lon="-4.29599">
        <ele>466.7</ele>
        <time>2023-07-13T07:36:32.000+02:00</time>
      </trkpt>
      <trkpt lat="43.25381" lon="-4.29649">
        <ele>476.2</ele>
        <time>2023-07-13T07:36:43.000+02:00</time>
      </trkpt>
      <trkpt lat="43.25355" lon="-4.29781">
        <ele>480.8</ele>
        <time>2023-07-13T07:36:58.000+02:00</time>
      </trkpt>
      <trkpt lat="43.25317" lon="-4.29531">
        <ele>491.1</ele>
        <time>2023-07-13T07:37:27.000+02:00</time>
      </trkpt>
      <trkpt lat="43.25241" lon="-4.29491">
        <ele>502.7</ele>
        <time>2023-07-13T07:37:39.000+02:00</time>
      </trkpt>
      <trkpt lat="43.2515" lon="-4.29344">
        <ele>516.1</ele>
        <time>2023-07-13T07:38:01.000+02:00</time>
      </trkpt>
      <trkpt lat="43.25035" lon="-4.29402">
        <ele>526.6</ele>
        <time>2023-07-13T07:38:19.000+02:00</time>
      </trkpt>
      <trkpt lat="43.25043" lon="-4.2948">
        <ele>544</ele>
        <time>2023-07-13T07:38:28.000+02:00</time>
      </trkpt>
      <trkpt lat="43.25008" lon="-4.29468">
        <ele>545.3</ele>
        <time>2023-07-13T07:38:34.000+02:00</time>
      </trkpt>
      <trkpt lat="43.24991" lon="-4.2949">
        <ele>549.5</ele>
        <time>2023-07-13T07:38:37.000+02:00</time>
      </trkpt>
      <trkpt lat="43.24734" lon="-4.30007">
        <ele>616</ele>
        <time>2023-07-13T07:39:47.000+02:00</time>
      </trkpt>
      <trkpt lat="43.24707" lon="-4.30123">
        <ele>618.1</ele>
        <time>2023-07-13T07:40:01.000+02:00</time>
      </trkpt>
      <trkpt lat="43.24708" lon="-4.30413">
        <ele>595</ele>
        <time>2023-07-13T07:40:33.000+02:00</time>
      </trkpt>
      <trkpt lat="43.24677" lon="-4.3055">
        <ele>606.2</ele>
        <time>2023-07-13T07:40:49.000+02:00</time>
      </trkpt>
      <trkpt lat="43.24702" lon="-4.30971">
        <ele>608.5</ele>
        <time>2023-07-13T07:41:36.000+02:00</time>
      </trkpt>
      <trkpt lat="43.24744" lon="-4.31239">
        <ele>615.1</ele>
        <time>2023-07-13T07:42:06.000+02:00</time>
      </trkpt>
      <trkpt lat="43.2474" lon="-4.31424">
        <ele>620.5</ele>
        <time>2023-07-13T07:42:27.000+02:00</time>
      </trkpt>
      <trkpt lat="43.24721" lon="-4.31537">
        <ele>633</ele>
        <time>2023-07-13T07:42:40.000+02:00</time>
      </trkpt>
      <trkpt lat="43.24596" lon="-4.31766">
        <ele>640.3</ele>
        <time>2023-07-13T07:43:12.000+02:00</time>
      </trkpt>
      <trkpt lat="43.24567" lon="-4.31888">
        <ele>649.4</ele>
        <time>2023-07-13T07:43:26.000+02:00</time>
      </trkpt>
      <trkpt lat="43.24449" lon="-4.31899">
        <ele>638</ele>
        <time>2023-07-13T07:43:44.000+02:00</time>
      </trkpt>
      <trkpt lat="43.24376" lon="-4.32052">
        <ele>632.2</ele>
        <time>2023-07-13T07:44:05.000+02:00</time>
      </trkpt>
      <trkpt lat="43.24306" lon="-4.32344">
        <ele>617.8</ele>
        <time>2023-07-13T07:44:39.000+02:00</time>
      </trkpt>
      <trkpt lat="43.24101" lon="-4.32427">
        <ele>607.3</ele>
        <time>2023-07-13T07:45:11.000+02:00</time>
      </trkpt>
      <trkpt lat="43.23962" lon="-4.32588">
        <ele>599.7</ele>
        <time>2023-07-13T07:45:39.000+02:00</time>
      </trkpt>
      <trkpt lat="43.23893" lon="-4.32609">
        <ele>597.9</ele>
        <time>2023-07-13T07:45:50.000+02:00</time>
      </trkpt>
      <trkpt lat="43.23611" lon="-4.33087">
        <ele>602.6</ele>
        <time>2023-07-13T07:46:58.000+02:00</time>
      </trkpt>
      <trkpt lat="43.23624" lon="-4.33288">
        <ele>628.2</ele>
        <time>2023-07-13T07:47:21.000+02:00</time>
      </trkpt>
      <trkpt lat="43.23559" lon="-4.33248">
        <ele>641.1</ele>
        <time>2023-07-13T07:47:32.000+02:00</time>
      </trkpt>
      <trkpt lat="43.23543" lon="-4.33349">
        <ele>651.4</ele>
        <time>2023-07-13T07:47:43.000+02:00</time>
      </trkpt>
      <trkpt lat="43.23444" lon="-4.33481">
        <ele>674.4</ele>
        <time>2023-07-13T07:48:04.000+02:00</time>
      </trkpt>
      <trkpt lat="43.23139" lon="-4.33662">
        <ele>724.1</ele>
        <time>2023-07-13T07:48:55.000+02:00</time>
      </trkpt>
      <trkpt lat="43.22914" lon="-4.33742">
        <ele>750.8</ele>
        <time>2023-07-13T07:49:30.000+02:00</time>
      </trkpt>
      <trkpt lat="43.2287" lon="-4.33641">
        <ele>756.3</ele>
        <time>2023-07-13T07:49:44.000+02:00</time>
      </trkpt>
      <trkpt lat="43.22752" lon="-4.33598">
        <ele>765.7</ele>
        <time>2023-07-13T07:50:02.000+02:00</time>
      </trkpt>
      <trkpt lat="43.2271" lon="-4.33664">
        <ele>772.6</ele>
        <time>2023-07-13T07:50:12.000+02:00</time>
      </trkpt>
      <trkpt lat="43.22594" lon="-4.33739">
        <ele>772</ele>
        <time>2023-07-13T07:50:32.000+02:00</time>
      </trkpt>
      <trkpt lat="43.22491" lon="-4.33944">
        <ele>779.3</ele>
        <time>2023-07-13T07:50:59.000+02:00</time>
      </trkpt>
      <trkpt lat="43.22565" lon="-4.34059">
        <ele>777.7</ele>
        <time>2023-07-13T07:51:16.000+02:00</time>
      </trkpt>
      <trkpt lat="43.22582" lon="-4.34145">
        <ele>767.6</ele>
        <time>2023-07-13T07:51:26.000+02:00</time>
      </trkpt>
      <trkpt lat="43.2256" lon="-4.34364">
        <ele>759.1</ele>
        <time>2023-07-13T07:51:51.000+02:00</time>
      </trkpt>
      <trkpt lat="43.22531" lon="-4.34414">
        <ele>765.8</ele>
        <time>2023-07-13T07:51:58.000+02:00</time>
      </trkpt>
      <trkpt lat="43.22546" lon="-4.34493">
        <ele>758.8</ele>
        <time>2023-07-13T07:52:07.000+02:00</time>
      </trkpt>
      <trkpt lat="43.22709" lon="-4.34727">
        <ele>728.9</ele>
        <time>2023-07-13T07:52:43.000+02:00</time>
      </trkpt>
      <trkpt lat="43.22726" lon="-4.34859">
        <ele>724.3</ele>
        <time>2023-07-13T07:52:58.000+02:00</time>
      </trkpt>
      <trkpt lat="43.22791" lon="-4.34914">
        <ele>720.9</ele>
        <time>2023-07-13T07:53:10.000+02:00</time>
      </trkpt>
      <trkpt lat="43.22956" lon="-4.34899">
        <ele>703.9</ele>
        <time>2023-07-13T07:53:35.000+02:00</time>
      </trkpt>
      <trkpt lat="43.22997" lon="-4.34992">
        <ele>710.3</ele>
        <time>2023-07-13T07:53:47.000+02:00</time>
      </trkpt>
      <trkpt lat="43.22941" lon="-4.3524">
        <ele>697.6</ele>
        <time>2023-07-13T07:54:16.000+02:00</time>
      </trkpt>
      <trkpt lat="43.22882" lon="-4.35314">
        <ele>703.4</ele>
        <time>2023-07-13T07:54:28.000+02:00</time>
      </trkpt>
      <trkpt lat="43.22868" lon="-4.35425">
        <ele>705.5</ele>
        <time>2023-07-13T07:54:41.000+02:00</time>
      </trkpt>
      <trkpt lat="43.22911" lon="-4.35626">
        <ele>722.5</ele>
        <time>2023-07-13T07:55:04.000+02:00</time>
      </trkpt>
      <trkpt lat="43.22981" lon="-4.35778">
        <ele>736.1</ele>
        <time>2023-07-13T07:55:24.000+02:00</time>
      </trkpt>
      <trkpt lat="43.23093" lon="-4.35892">
        <ele>741</ele>
        <time>2023-07-13T07:55:45.000+02:00</time>
      </trkpt>
      <trkpt lat="43.2313" lon="-4.35888">
        <ele>736.5</ele>
        <time>2023-07-13T07:55:51.000+02:00</time>
      </trkpt>
      <trkpt lat="43.23194" lon="-4.35953">
        <ele>742.4</ele>
        <time>2023-07-13T07:56:03.000+02:00</time>
      </trkpt>
      <trkpt lat="43.23305" lon="-4.35971">
        <ele>737.9</ele>
        <time>2023-07-13T07:56:20.000+02:00</time>
      </trkpt>
      <trkpt lat="43.23346" lon="-4.36061">
        <ele>733.9</ele>
        <time>2023-07-13T07:56:32.000+02:00</time>
      </trkpt>
      <trkpt lat="43.23292" lon="-4.36231">
        <ele>745</ele>
        <time>2023-07-13T07:56:53.000+02:00</time>
      </trkpt>
      <trkpt lat="43.2327" lon="-4.36374">
        <ele>745</ele>
        <time>2023-07-13T07:57:09.000+02:00</time>
      </trkpt>
      <trkpt lat="43.23278" lon="-4.36469">
        <ele>744</ele>
        <time>2023-07-13T07:57:20.000+02:00</time>
      </trkpt>
      <trkpt lat="43.23297" lon="-4.36644">
        <ele>734.4</ele>
        <time>2023-07-13T07:57:40.000+02:00</time>
      </trkpt>
      <trkpt lat="43.23477" lon="-4.37158">
        <ele>723.9</ele>
        <time>2023-07-13T07:58:43.000+02:00</time>
      </trkpt>
      <trkpt lat="43.23559" lon="-4.37276">
        <ele>732.7</ele>
        <time>2023-07-13T07:59:01.000+02:00</time>
      </trkpt>
      <trkpt lat="43.23573" lon="-4.37356">
        <ele>744.6</ele>
        <time>2023-07-13T07:59:10.000+02:00</time>
      </trkpt>
      <trkpt lat="43.23497" lon="-4.37636">
        <ele>766.2</ele>
        <time>2023-07-13T07:59:44.000+02:00</time>
      </trkpt>
      <trkpt lat="43.23505" lon="-4.37735">
        <ele>764.8</ele>
        <time>2023-07-13T07:59:55.000+02:00</time>
      </trkpt>
      <trkpt lat="43.24077" lon="-4.38633">
        <ele>653.5</ele>
        <time>2023-07-13T08:02:07.000+02:00</time>
      </trkpt>
      <trkpt lat="43.24163" lon="-4.38839">
        <ele>637.2</ele>
        <time>2023-07-13T08:02:34.000+02:00</time>
      </trkpt>
      <trkpt lat="43.24188" lon="-4.3909">
        <ele>614.5</ele>
        <time>2023-07-13T08:03:02.000+02:00</time>
      </trkpt>
      <trkpt lat="43.2425" lon="-4.39018">
        <ele>601.3</ele>
        <time>2023-07-13T08:03:15.000+02:00</time>
      </trkpt>
      <trkpt lat="43.2427" lon="-4.39245">
        <ele>573.5</ele>
        <time>2023-07-13T08:03:40.000+02:00</time>
      </trkpt>
      <trkpt lat="43.24239" lon="-4.39443">
        <ele>551.6</ele>
        <time>2023-07-13T08:04:03.000+02:00</time>
      </trkpt>
      <trkpt lat="43.24244" lon="-4.39574">
        <ele>540.5</ele>
        <time>2023-07-13T08:04:17.000+02:00</time>
      </trkpt>
      <trkpt lat="43.2434" lon="-4.39867">
        <ele>512</ele>
        <time>2023-07-13T08:04:53.000+02:00</time>
      </trkpt>
      <trkpt lat="43.24389" lon="-4.39909">
        <ele>501.8</ele>
        <time>2023-07-13T08:05:02.000+02:00</time>
      </trkpt>
      <trkpt lat="43.24392" lon="-4.39625">
        <ele>479.6</ele>
        <time>2023-07-13T08:05:34.000+02:00</time>
      </trkpt>
      <trkpt lat="43.24505" lon="-4.39315">
        <ele>450.6</ele>
        <time>2023-07-13T08:06:12.000+02:00</time>
      </trkpt>
      <trkpt lat="43.24496" lon="-4.395">
        <ele>435.4</ele>
        <time>2023-07-13T08:06:33.000+02:00</time>
      </trkpt>
      <trkpt lat="43.24514" lon="-4.39691">
        <ele>421</ele>
        <time>2023-07-13T08:06:54.000+02:00</time>
      </trkpt>
      <trkpt lat="43.2456" lon="-4.39781">
        <ele>411.7</ele>
        <time>2023-07-13T08:07:06.000+02:00</time>
      </trkpt>
      <trkpt lat="43.24647" lon="-4.39876">
        <ele>398</ele>
        <time>2023-07-13T08:07:23.000+02:00</time>
      </trkpt>
      <trkpt lat="43.24687" lon="-4.40072">
        <ele>381</ele>
        <time>2023-07-13T08:07:46.000+02:00</time>
      </trkpt>
      <trkpt lat="43.24662" lon="-4.40219">
        <ele>367.4</ele>
        <time>2023-07-13T08:08:03.000+02:00</time>
      </trkpt>
      <trkpt lat="43.24596" lon="-4.40344">
        <ele>353.7</ele>
        <time>2023-07-13T08:08:20.000+02:00</time>
      </trkpt>
      <trkpt lat="43.24521" lon="-4.40415">
        <ele>342.4</ele>
        <time>2023-07-13T08:08:34.000+02:00</time>
      </trkpt>
      <trkpt lat="43.24448" lon="-4.40429">
        <ele>332.6</ele>
        <time>2023-07-13T08:08:45.000+02:00</time>
      </trkpt>
      <trkpt lat="43.24544" lon="-4.40489">
        <ele>319.1</ele>
        <time>2023-07-13T08:09:01.000+02:00</time>
      </trkpt>
      <trkpt lat="43.24638" lon="-4.40483">
        <ele>308.2</ele>
        <time>2023-07-13T08:09:16.000+02:00</time>
      </trkpt>
      <trkpt lat="43.24845" lon="-4.40327">
        <ele>280.5</ele>
        <time>2023-07-13T08:09:52.000+02:00</time>
      </trkpt>
      <trkpt lat="43.24955" lon="-4.40315">
        <ele>267.2</ele>
        <time>2023-07-13T08:10:09.000+02:00</time>
      </trkpt>
      <trkpt lat="43.24992" lon="-4.40248">
        <ele>261.4</ele>
        <time>2023-07-13T08:10:18.000+02:00</time>
      </trkpt>
      <trkpt lat="43.24998" lon="-4.40402">
        <ele>246</ele>
        <time>2023-07-13T08:10:35.000+02:00</time>
      </trkpt>
      <trkpt lat="43.24971" lon="-4.40479">
        <ele>237.6</ele>
        <time>2023-07-13T08:10:45.000+02:00</time>
      </trkpt>
      <trkpt lat="43.251" lon="-4.40514">
        <ele>228.1</ele>
        <time>2023-07-13T08:11:05.000+02:00</time>
      </trkpt>
      <trkpt lat="43.25107" lon="-4.40554">
        <ele>226.6</ele>
        <time>2023-07-13T08:11:09.000+02:00</time>
      </trkpt>
      <trkpt lat="43.25072" lon="-4.40653">
        <ele>212.7</ele>
        <time>2023-07-13T08:11:22.000+02:00</time>
      </trkpt>
      <trkpt lat="43.25263" lon="-4.40599">
        <ele>174.2</ele>
        <time>2023-07-13T08:11:51.000+02:00</time>
      </trkpt>
      <trkpt lat="43.25301" lon="-4.4067">
        <ele>167.4</ele>
        <time>2023-07-13T08:12:01.000+02:00</time>
      </trkpt>
      <trkpt lat="43.25389" lon="-4.40748">
        <ele>161</ele>
        <time>2023-07-13T08:12:17.000+02:00</time>
      </trkpt>
      <trkpt lat="43.25422" lon="-4.40739">
        <ele>158</ele>
        <time>2023-07-13T08:12:22.000+02:00</time>
      </trkpt>
      <trkpt lat="43.25468" lon="-4.4088">
        <ele>156.6</ele>
        <time>2023-07-13T08:12:40.000+02:00</time>
      </trkpt>
      <trkpt lat="43.2554" lon="-4.40941">
        <ele>158.5</ele>
        <time>2023-07-13T08:12:52.000+02:00</time>
      </trkpt>
      <trkpt lat="43.25545" lon="-4.41033">
        <ele>166.5</ele>
        <time>2023-07-13T08:13:03.000+02:00</time>
      </trkpt>
      <trkpt lat="43.25519" lon="-4.41114">
        <ele>170.2</ele>
        <time>2023-07-13T08:13:13.000+02:00</time>
      </trkpt>
      <trkpt lat="43.25494" lon="-4.41147">
        <ele>171.8</ele>
        <time>2023-07-13T08:13:18.000+02:00</time>
      </trkpt>
      <trkpt lat="43.25436" lon="-4.41157">
        <ele>177.5</ele>
        <time>2023-07-13T08:13:27.000+02:00</time>
      </trkpt>
      <trkpt lat="43.25374" lon="-4.41114">
        <ele>180.2</ele>
        <time>2023-07-13T08:13:37.000+02:00</time>
      </trkpt>
      <trkpt lat="43.2531" lon="-4.41328">
        <ele>194</ele>
        <time>2023-07-13T08:14:03.000+02:00</time>
      </trkpt>
      <trkpt lat="43.25202" lon="-4.41563">
        <ele>211</ele>
        <time>2023-07-13T08:14:34.000+02:00</time>
      </trkpt>
      <trkpt lat="43.25314" lon="-4.41474">
        <ele>221.8</ele>
        <time>2023-07-13T08:14:54.000+02:00</time>
      </trkpt>
      <trkpt lat="43.25368" lon="-4.41485">
        <ele>226.7</ele>
        <time>2023-07-13T08:15:02.000+02:00</time>
      </trkpt>
      <trkpt lat="43.25409" lon="-4.41543">
        <ele>232</ele>
        <time>2023-07-13T08:15:11.000+02:00</time>
      </trkpt>
      <trkpt lat="43.25185" lon="-4.41728">
        <ele>251.4</ele>
        <time>2023-07-13T08:15:51.000+02:00</time>
      </trkpt>
      <trkpt lat="43.25132" lon="-4.41886">
        <ele>261.3</ele>
        <time>2023-07-13T08:16:10.000+02:00</time>
      </trkpt>
      <trkpt lat="43.25096" lon="-4.41924">
        <ele>263.6</ele>
        <time>2023-07-13T08:16:17.000+02:00</time>
      </trkpt>
      <trkpt lat="43.25084" lon="-4.4205">
        <ele>272.7</ele>
        <time>2023-07-13T08:16:31.000+02:00</time>
      </trkpt>
      <trkpt lat="43.25112" lon="-4.42156">
        <ele>279.3</ele>
        <time>2023-07-13T08:16:44.000+02:00</time>
      </trkpt>
      <trkpt lat="43.25173" lon="-4.42206">
        <ele>284.6</ele>
        <time>2023-07-13T08:16:55.000+02:00</time>
      </trkpt>
      <trkpt lat="43.25229" lon="-4.4235">
        <ele>294.1</ele>
        <time>2023-07-13T08:17:13.000+02:00</time>
      </trkpt>
      <trkpt lat="43.25323" lon="-4.42462">
        <ele>303.5</ele>
        <time>2023-07-13T08:17:32.000+02:00</time>
      </trkpt>
      <trkpt lat="43.25289" lon="-4.42519">
        <ele>307.9</ele>
        <time>2023-07-13T08:17:40.000+02:00</time>
      </trkpt>
      <trkpt lat="43.25272" lon="-4.42729">
        <ele>323.9</ele>
        <time>2023-07-13T08:18:04.000+02:00</time>
      </trkpt>
      <trkpt lat="43.25339" lon="-4.4287">
        <ele>335.3</ele>
        <time>2023-07-13T08:18:23.000+02:00</time>
      </trkpt>
      <trkpt lat="43.25389" lon="-4.4289">
        <ele>337.1</ele>
        <time>2023-07-13T08:18:30.000+02:00</time>
      </trkpt>
      <trkpt lat="43.2541" lon="-4.42929">
        <ele>339.5</ele>
        <time>2023-07-13T08:18:36.000+02:00</time>
      </trkpt>
      <trkpt lat="43.25331" lon="-4.429">
        <ele>346.2</ele>
        <time>2023-07-13T08:18:48.000+02:00</time>
      </trkpt>
      <trkpt lat="43.25086" lon="-4.42674">
        <ele>362.4</ele>
        <time>2023-07-13T08:19:33.000+02:00</time>
      </trkpt>
      <trkpt lat="43.25038" lon="-4.42671">
        <ele>364.1</ele>
        <time>2023-07-13T08:19:41.000+02:00</time>
      </trkpt>
      <trkpt lat="43.25101" lon="-4.42738">
        <ele>372.2</ele>
        <time>2023-07-13T08:19:53.000+02:00</time>
      </trkpt>
      <trkpt lat="43.25201" lon="-4.42922">
        <ele>385.9</ele>
        <time>2023-07-13T08:20:19.000+02:00</time>
      </trkpt>
      <trkpt lat="43.25335" lon="-4.43229">
        <ele>407.3</ele>
        <time>2023-07-13T08:20:58.000+02:00</time>
      </trkpt>
      <trkpt lat="43.25372" lon="-4.43517">
        <ele>425.4</ele>
        <time>2023-07-13T08:21:31.000+02:00</time>
      </trkpt>
      <trkpt lat="43.25355" lon="-4.43768">
        <ele>444.6</ele>
        <time>2023-07-13T08:21:59.000+02:00</time>
      </trkpt>
      <trkpt lat="43.25399" lon="-4.43892">
        <ele>453.8</ele>
        <time>2023-07-13T08:22:14.000+02:00</time>
      </trkpt>
      <trkpt lat="43.25402" lon="-4.44002">
        <ele>462.9</ele>
        <time>2023-07-13T08:22:26.000+02:00</time>
      </trkpt>
      <trkpt lat="43.25447" lon="-4.44104">
        <ele>466</ele>
        <time>2023-07-13T08:22:40.000+02:00</time>
      </trkpt>
      <trkpt lat="43.25447" lon="-4.44283">
        <ele>485.4</ele>
        <time>2023-07-13T08:23:00.000+02:00</time>
      </trkpt>
      <trkpt lat="43.25483" lon="-4.44439">
        <ele>508.5</ele>
        <time>2023-07-13T08:23:18.000+02:00</time>
      </trkpt>
      <trkpt lat="43.2546" lon="-4.44644">
        <ele>537.2</ele>
        <time>2023-07-13T08:23:41.000+02:00</time>
      </trkpt>
      <trkpt lat="43.25504" lon="-4.44969">
        <ele>579.6</ele>
        <time>2023-07-13T08:24:18.000+02:00</time>
      </trkpt>
      <trkpt lat="43.2536" lon="-4.44858">
        <ele>604.1</ele>
        <time>2023-07-13T08:24:43.000+02:00</time>
      </trkpt>
      <trkpt lat="43.25165" lon="-4.44569">
        <ele>645.1</ele>
        <time>2023-07-13T08:25:27.000+02:00</time>
      </trkpt>
      <trkpt lat="43.25006" lon="-4.44905">
        <ele>629.5</ele>
        <time>2023-07-13T08:26:12.000+02:00</time>
      </trkpt>
      <trkpt lat="43.24822" lon="-4.44936">
        <ele>623.6</ele>
        <time>2023-07-13T08:26:40.000+02:00</time>
      </trkpt>
      <trkpt lat="43.24762" lon="-4.44896">
        <ele>631.2</ele>
        <time>2023-07-13T08:26:50.000+02:00</time>
      </trkpt>
      <trkpt lat="43.24598" lon="-4.44693">
        <ele>660.7</ele>
        <time>2023-07-13T08:27:24.000+02:00</time>
      </trkpt>
      <trkpt lat="43.24455" lon="-4.44449">
        <ele>685</ele>
        <time>2023-07-13T08:27:59.000+02:00</time>
      </trkpt>
      <trkpt lat="43.24376" lon="-4.44359">
        <ele>696.1</ele>
        <time>2023-07-13T08:28:14.000+02:00</time>
      </trkpt>
      <trkpt lat="43.2417" lon="-4.44488">
        <ele>687.8</ele>
        <time>2023-07-13T08:28:49.000+02:00</time>
      </trkpt>
      <trkpt lat="43.24059" lon="-4.44497">
        <ele>682.1</ele>
        <time>2023-07-13T08:29:06.000+02:00</time>
      </trkpt>
      <trkpt lat="43.23839" lon="-4.44452">
        <ele>706</ele>
        <time>2023-07-13T08:29:40.000+02:00</time>
      </trkpt>
      <trkpt lat="43.23904" lon="-4.44584">
        <ele>725.4</ele>
        <time>2023-07-13T08:29:58.000+02:00</time>
      </trkpt>
      <trkpt lat="43.23666" lon="-4.44514">
        <ele>756.1</ele>
        <time>2023-07-13T08:30:35.000+02:00</time>
      </trkpt>
      <trkpt lat="43.23421" lon="-4.44572">
        <ele>774</ele>
        <time>2023-07-13T08:31:13.000+02:00</time>
      </trkpt>
      <trkpt lat="43.23242" lon="-4.44545">
        <ele>779.7</ele>
        <time>2023-07-13T08:31:40.000+02:00</time>
      </trkpt>
      <trkpt lat="43.23194" lon="-4.44498">
        <ele>779.9</ele>
        <time>2023-07-13T08:31:49.000+02:00</time>
      </trkpt>
      <trkpt lat="43.23133" lon="-4.44336">
        <ele>787.9</ele>
        <time>2023-07-13T08:32:10.000+02:00</time>
      </trkpt>
      <trkpt lat="43.23054" lon="-4.43965">
        <ele>812.9</ele>
        <time>2023-07-13T08:32:53.000+02:00</time>
      </trkpt>
      <trkpt lat="43.23005" lon="-4.43925">
        <ele>816.3</ele>
        <time>2023-07-13T08:33:01.000+02:00</time>
      </trkpt>
      <trkpt lat="43.2293" lon="-4.43962">
        <ele>817.6</ele>
        <time>2023-07-13T08:33:13.000+02:00</time>
      </trkpt>
      <trkpt lat="43.2284" lon="-4.44064">
        <ele>825.5</ele>
        <time>2023-07-13T08:33:31.000+02:00</time>
      </trkpt>
      <trkpt lat="43.22689" lon="-4.44391">
        <ele>850.4</ele>
        <time>2023-07-13T08:34:14.000+02:00</time>
      </trkpt>
      <trkpt lat="43.22623" lon="-4.4447">
        <ele>859</ele>
        <time>2023-07-13T08:34:28.000+02:00</time>
      </trkpt>
      <trkpt lat="43.22532" lon="-4.44517">
        <ele>867</ele>
        <time>2023-07-13T08:34:43.000+02:00</time>
      </trkpt>
      <trkpt lat="43.22367" lon="-4.44526">
        <ele>881.3</ele>
        <time>2023-07-13T08:35:08.000+02:00</time>
      </trkpt>
      <trkpt lat="43.22229" lon="-4.44645">
        <ele>896.2</ele>
        <time>2023-07-13T08:35:33.000+02:00</time>
      </trkpt>
      <trkpt lat="43.22328" lon="-4.44613">
        <ele>900.7</ele>
        <time>2023-07-13T08:35:49.000+02:00</time>
      </trkpt>
      <trkpt lat="43.22431" lon="-4.44619">
        <ele>897.5</ele>
        <time>2023-07-13T08:36:04.000+02:00</time>
      </trkpt>
      <trkpt lat="43.22546" lon="-4.44781">
        <ele>879.6</ele>
        <time>2023-07-13T08:36:29.000+02:00</time>
      </trkpt>
      <trkpt lat="43.22746" lon="-4.44975">
        <ele>845.7</ele>
        <time>2023-07-13T08:37:07.000+02:00</time>
      </trkpt>
      <trkpt lat="43.22915" lon="-4.45426">
        <ele>794.7</ele>
        <time>2023-07-13T08:38:03.000+02:00</time>
      </trkpt>
      <trkpt lat="43.22702" lon="-4.45247">
        <ele>765</ele>
        <time>2023-07-13T08:38:41.000+02:00</time>
      </trkpt>
      <trkpt lat="43.22871" lon="-4.45629">
        <ele>733.8</ele>
        <time>2023-07-13T08:39:31.000+02:00</time>
      </trkpt>
      <trkpt lat="43.22941" lon="-4.46039">
        <ele>708.4</ele>
        <time>2023-07-13T08:40:18.000+02:00</time>
      </trkpt>
      <trkpt lat="43.22977" lon="-4.46088">
        <ele>701.7</ele>
        <time>2023-07-13T08:40:26.000+02:00</time>
      </trkpt>
      <trkpt lat="43.23188" lon="-4.46222">
        <ele>662.8</ele>
        <time>2023-07-13T08:41:01.000+02:00</time>
      </trkpt>
      <trkpt lat="43.23219" lon="-4.46206">
        <ele>658.5</ele>
        <time>2023-07-13T08:41:06.000+02:00</time>
      </trkpt>
      <trkpt lat="43.23238" lon="-4.46146">
        <ele>651.2</ele>
        <time>2023-07-13T08:41:14.000+02:00</time>
      </trkpt>
      <trkpt lat="43.23267" lon="-4.46201">
        <ele>642.2</ele>
        <time>2023-07-13T08:41:21.000+02:00</time>
      </trkpt>
      <trkpt lat="43.23264" lon="-4.46288">
        <ele>631.5</ele>
        <time>2023-07-13T08:41:31.000+02:00</time>
      </trkpt>
      <trkpt lat="43.23238" lon="-4.46333">
        <ele>624.5</ele>
        <time>2023-07-13T08:41:37.000+02:00</time>
      </trkpt>
      <trkpt lat="43.231" lon="-4.4633">
        <ele>602</ele>
        <time>2023-07-13T08:41:58.000+02:00</time>
      </trkpt>
      <trkpt lat="43.23336" lon="-4.4652">
        <ele>563.7</ele>
        <time>2023-07-13T08:42:40.000+02:00</time>
      </trkpt>
      <trkpt lat="43.23171" lon="-4.46516">
        <ele>542.7</ele>
        <time>2023-07-13T08:43:05.000+02:00</time>
      </trkpt>
      <trkpt lat="43.23112" lon="-4.466">
        <ele>534</ele>
        <time>2023-07-13T08:43:18.000+02:00</time>
      </trkpt>
      <trkpt lat="43.22917" lon="-4.46694">
        <ele>515</ele>
        <time>2023-07-13T08:43:50.000+02:00</time>
      </trkpt>
      <trkpt lat="43.22918" lon="-4.46718">
        <ele>511.6</ele>
        <time>2023-07-13T08:43:53.000+02:00</time>
      </trkpt>
      <trkpt lat="43.23003" lon="-4.46755">
        <ele>494.5</ele>
        <time>2023-07-13T08:44:06.000+02:00</time>
      </trkpt>
      <trkpt lat="43.22996" lon="-4.46817">
        <ele>483.9</ele>
        <time>2023-07-13T08:44:13.000+02:00</time>
      </trkpt>
      <trkpt lat="43.2308" lon="-4.46768">
        <ele>470.7</ele>
        <time>2023-07-13T08:44:27.000+02:00</time>
      </trkpt>
      <trkpt lat="43.23372" lon="-4.46854">
        <ele>423.6</ele>
        <time>2023-07-13T08:45:13.000+02:00</time>
      </trkpt>
      <trkpt lat="43.23481" lon="-4.46949">
        <ele>409.3</ele>
        <time>2023-07-13T08:45:32.000+02:00</time>
      </trkpt>
      <trkpt lat="43.23545" lon="-4.47057">
        <ele>394.9</ele>
        <time>2023-07-13T08:45:48.000+02:00</time>
      </trkpt>
      <trkpt lat="43.23652" lon="-4.47006">
        <ele>378.4</ele>
        <time>2023-07-13T08:46:05.000+02:00</time>
      </trkpt>
      <trkpt lat="43.237" lon="-4.46889">
        <ele>366.1</ele>
        <time>2023-07-13T08:46:20.000+02:00</time>
      </trkpt>
      <trkpt lat="43.23715" lon="-4.47145">
        <ele>332.3</ele>
        <time>2023-07-13T08:46:49.000+02:00</time>
      </trkpt>
      <trkpt lat="43.23737" lon="-4.47195">
        <ele>325.1</ele>
        <time>2023-07-13T08:46:55.000+02:00</time>
      </trkpt>
      <trkpt lat="43.23856" lon="-4.47219">
        <ele>331.3</ele>
        <time>2023-07-13T08:47:13.000+02:00</time>
      </trkpt>
      <trkpt lat="43.23887" lon="-4.47261">
        <ele>341</ele>
        <time>2023-07-13T08:47:20.000+02:00</time>
      </trkpt>
      <trkpt lat="43.23762" lon="-4.47252">
        <ele>347.2</ele>
        <time>2023-07-13T08:47:39.000+02:00</time>
      </trkpt>
      <trkpt lat="43.23488" lon="-4.47329">
        <ele>358.9</ele>
        <time>2023-07-13T08:48:22.000+02:00</time>
      </trkpt>
      <trkpt lat="43.23382" lon="-4.47218">
        <ele>373.6</ele>
        <time>2023-07-13T08:48:42.000+02:00</time>
      </trkpt>
      <trkpt lat="43.23297" lon="-4.47257">
        <ele>390.2</ele>
        <time>2023-07-13T08:48:56.000+02:00</time>
      </trkpt>
      <trkpt lat="43.23389" lon="-4.47355">
        <ele>391.5</ele>
        <time>2023-07-13T08:49:14.000+02:00</time>
      </trkpt>
      <trkpt lat="43.23435" lon="-4.47457">
        <ele>393.1</ele>
        <time>2023-07-13T08:49:27.000+02:00</time>
      </trkpt>
      <trkpt lat="43.23434" lon="-4.47504">
        <ele>400.5</ele>
        <time>2023-07-13T08:49:32.000+02:00</time>
      </trkpt>
      <trkpt lat="43.2346" lon="-4.47512">
        <ele>401.5</ele>
        <time>2023-07-13T08:49:37.000+02:00</time>
      </trkpt>
      <trkpt lat="43.23489" lon="-4.47608">
        <ele>411.8</ele>
        <time>2023-07-13T08:49:48.000+02:00</time>
      </trkpt>
      <trkpt lat="43.23474" lon="-4.47665">
        <ele>418.8</ele>
        <time>2023-07-13T08:49:55.000+02:00</time>
      </trkpt>
      <trkpt lat="43.23504" lon="-4.47751">
        <ele>426.9</ele>
        <time>2023-07-13T08:50:06.000+02:00</time>
      </trkpt>
      <trkpt lat="43.23489" lon="-4.47777">
        <ele>429.6</ele>
        <time>2023-07-13T08:50:09.000+02:00</time>
      </trkpt>
      <trkpt lat="43.2343" lon="-4.47721">
        <ele>436.8</ele>
        <time>2023-07-13T08:50:20.000+02:00</time>
      </trkpt>
      <trkpt lat="43.23365" lon="-4.47709">
        <ele>444.6</ele>
        <time>2023-07-13T08:50:30.000+02:00</time>
      </trkpt>
      <trkpt lat="43.23346" lon="-4.4778">
        <ele>457.5</ele>
        <time>2023-07-13T08:50:39.000+02:00</time>
      </trkpt>
      <trkpt lat="43.23369" lon="-4.47902">
        <ele>468.9</ele>
        <time>2023-07-13T08:50:53.000+02:00</time>
      </trkpt>
      <trkpt lat="43.23322" lon="-4.48036">
        <ele>481.6</ele>
        <time>2023-07-13T08:51:09.000+02:00</time>
      </trkpt>
      <trkpt lat="43.23345" lon="-4.48077">
        <ele>484.6</ele>
        <time>2023-07-13T08:51:15.000+02:00</time>
      </trkpt>
      <trkpt lat="43.23277" lon="-4.48214">
        <ele>496.4</ele>
        <time>2023-07-13T08:51:33.000+02:00</time>
      </trkpt>
      <trkpt lat="43.23051" lon="-4.48065">
        <ele>525.2</ele>
        <time>2023-07-13T08:52:12.000+02:00</time>
      </trkpt>
      <trkpt lat="43.22919" lon="-4.47943">
        <ele>542.5</ele>
        <time>2023-07-13T08:52:36.000+02:00</time>
      </trkpt>
      <trkpt lat="43.22887" lon="-4.47985">
        <ele>549.7</ele>
        <time>2023-07-13T08:52:43.000+02:00</time>
      </trkpt>
      <trkpt lat="43.22781" lon="-4.47975">
        <ele>556.2</ele>
        <time>2023-07-13T08:52:59.000+02:00</time>
      </trkpt>
      <trkpt lat="43.22662" lon="-4.47834">
        <ele>560.9</ele>
        <time>2023-07-13T08:53:23.000+02:00</time>
      </trkpt>
      <trkpt lat="43.2263" lon="-4.4768">
        <ele>571</ele>
        <time>2023-07-13T08:53:41.000+02:00</time>
      </trkpt>
      <trkpt lat="43.22593" lon="-4.47632">
        <ele>576.4</ele>
        <time>2023-07-13T08:53:49.000+02:00</time>
      </trkpt>
      <trkpt lat="43.22524" lon="-4.47664">
        <ele>578</ele>
        <time>2023-07-13T08:54:00.000+02:00</time>
      </trkpt>
      <trkpt lat="43.22295" lon="-4.47613">
        <ele>590.7</ele>
        <time>2023-07-13T08:54:35.000+02:00</time>
      </trkpt>
      <trkpt lat="43.21995" lon="-4.47741">
        <ele>620.1</ele>
        <time>2023-07-13T08:55:23.000+02:00</time>
      </trkpt>
      <trkpt lat="43.21909" lon="-4.47727">
        <ele>626.9</ele>
        <time>2023-07-13T08:55:37.000+02:00</time>
      </trkpt>
      <trkpt lat="43.21748" lon="-4.478">
        <ele>652.5</ele>
        <time>2023-07-13T08:56:02.000+02:00</time>
      </trkpt>
      <trkpt lat="43.2174" lon="-4.47824">
        <ele>656</ele>
        <time>2023-07-13T08:56:05.000+02:00</time>
      </trkpt>
      <trkpt lat="43.21777" lon="-4.47858">
        <ele>661.6</ele>
        <time>2023-07-13T08:56:12.000+02:00</time>
      </trkpt>
      <trkpt lat="43.21734" lon="-4.47891">
        <ele>666.5</ele>
        <time>2023-07-13T08:56:20.000+02:00</time>
      </trkpt>
      <trkpt lat="43.21731" lon="-4.47929">
        <ele>670.8</ele>
        <time>2023-07-13T08:56:24.000+02:00</time>
      </trkpt>
      <trkpt lat="43.21816" lon="-4.47981">
        <ele>682.7</ele>
        <time>2023-07-13T08:56:38.000+02:00</time>
      </trkpt>
      <trkpt lat="43.21741" lon="-4.48106">
        <ele>703.2</ele>
        <time>2023-07-13T08:56:56.000+02:00</time>
      </trkpt>
      <trkpt lat="43.21832" lon="-4.48143">
        <ele>715</ele>
        <time>2023-07-13T08:57:11.000+02:00</time>
      </trkpt>
      <trkpt lat="43.21997" lon="-4.48287">
        <ele>733</ele>
        <time>2023-07-13T08:57:41.000+02:00</time>
      </trkpt>
      <trkpt lat="43.22166" lon="-4.48556">
        <ele>766.2</ele>
        <time>2023-07-13T08:58:20.000+02:00</time>
      </trkpt>
      <trkpt lat="43.22038" lon="-4.48655">
        <ele>782.4</ele>
        <time>2023-07-13T08:58:42.000+02:00</time>
      </trkpt>
      <trkpt lat="43.22022" lon="-4.48799">
        <ele>791.8</ele>
        <time>2023-07-13T08:58:59.000+02:00</time>
      </trkpt>
      <trkpt lat="43.21953" lon="-4.49036">
        <ele>812.3</ele>
        <time>2023-07-13T08:59:27.000+02:00</time>
      </trkpt>
      <trkpt lat="43.21943" lon="-4.49188">
        <ele>821.6</ele>
        <time>2023-07-13T08:59:44.000+02:00</time>
      </trkpt>
      <trkpt lat="43.21878" lon="-4.49158">
        <ele>819.1</ele>
        <time>2023-07-13T08:59:55.000+02:00</time>
      </trkpt>
      <trkpt lat="43.21827" lon="-4.49059">
        <ele>815.1</ele>
        <time>2023-07-13T09:00:08.000+02:00</time>
      </trkpt>
      <trkpt lat="43.21679" lon="-4.48912">
        <ele>813.8</ele>
        <time>2023-07-13T09:00:36.000+02:00</time>
      </trkpt>
      <trkpt lat="43.21618" lon="-4.48921">
        <ele>819.6</ele>
        <time>2023-07-13T09:00:45.000+02:00</time>
      </trkpt>
      <trkpt lat="43.21512" lon="-4.48852">
        <ele>825.8</ele>
        <time>2023-07-13T09:01:03.000+02:00</time>
      </trkpt>
      <trkpt lat="43.21429" lon="-4.49082">
        <ele>843.7</ele>
        <time>2023-07-13T09:01:32.000+02:00</time>
      </trkpt>
      <trkpt lat="43.21365" lon="-4.4947">
        <ele>881.1</ele>
        <time>2023-07-13T09:02:16.000+02:00</time>
      </trkpt>
      <trkpt lat="43.21328" lon="-4.49548">
        <ele>879.4</ele>
        <time>2023-07-13T09:02:27.000+02:00</time>
      </trkpt>
      <trkpt lat="43.21276" lon="-4.49808">
        <ele>922.2</ele>
        <time>2023-07-13T09:02:57.000+02:00</time>
      </trkpt>
      <trkpt lat="43.21179" lon="-4.5">
        <ele>933.9</ele>
        <time>2023-07-13T09:03:23.000+02:00</time>
      </trkpt>
      <trkpt lat="43.21169" lon="-4.50108">
        <ele>941.4</ele>
        <time>2023-07-13T09:03:35.000+02:00</time>
      </trkpt>
      <trkpt lat="43.21233" lon="-4.49992">
        <ele>950.6</ele>
        <time>2023-07-13T09:03:51.000+02:00</time>
      </trkpt>
      <trkpt lat="43.21238" lon="-4.50119">
        <ele>964</ele>
        <time>2023-07-13T09:04:05.000+02:00</time>
      </trkpt>
      <trkpt lat="43.21321" lon="-4.50271">
        <ele>971.8</ele>
        <time>2023-07-13T09:04:26.000+02:00</time>
      </trkpt>
      <trkpt lat="43.21474" lon="-4.50378">
        <ele>958.4</ele>
        <time>2023-07-13T09:04:53.000+02:00</time>
      </trkpt>
      <trkpt lat="43.21549" lon="-4.50488">
        <ele>953.3</ele>
        <time>2023-07-13T09:05:09.000+02:00</time>
      </trkpt>
      <trkpt lat="43.21545" lon="-4.50621">
        <ele>963.2</ele>
        <time>2023-07-13T09:05:24.000+02:00</time>
      </trkpt>
      <trkpt lat="43.21431" lon="-4.50696">
        <ele>970</ele>
        <time>2023-07-13T09:05:44.000+02:00</time>
      </trkpt>
      <trkpt lat="43.21462" lon="-4.5077">
        <ele>970</ele>
        <time>2023-07-13T09:05:53.000+02:00</time>
      </trkpt>
      <trkpt lat="43.2149" lon="-4.51064">
        <ele>979.8</ele>
        <time>2023-07-13T09:06:26.000+02:00</time>
      </trkpt>
      <trkpt lat="43.21484" lon="-4.51294">
        <ele>1003</ele>
        <time>2023-07-13T09:06:52.000+02:00</time>
      </trkpt>
      <trkpt lat="43.21437" lon="-4.51301">
        <ele>1012.6</ele>
        <time>2023-07-13T09:06:59.000+02:00</time>
      </trkpt>
      <trkpt lat="43.21381" lon="-4.51373">
        <ele>1007.7</ele>
        <time>2023-07-13T09:07:11.000+02:00</time>
      </trkpt>
      <trkpt lat="43.21354" lon="-4.51485">
        <ele>1007.8</ele>
        <time>2023-07-13T09:07:24.000+02:00</time>
      </trkpt>
      <trkpt lat="43.21367" lon="-4.51593">
        <ele>1017.3</ele>
        <time>2023-07-13T09:07:36.000+02:00</time>
      </trkpt>
      <trkpt lat="43.21313" lon="-4.51629">
        <ele>1022.1</ele>
        <time>2023-07-13T09:07:45.000+02:00</time>
      </trkpt>
      <trkpt lat="43.21261" lon="-4.51591">
        <ele>1021.4</ele>
        <time>2023-07-13T09:07:54.000+02:00</time>
      </trkpt>
      <trkpt lat="43.2124" lon="-4.5154">
        <ele>1018.7</ele>
        <time>2023-07-13T09:08:01.000+02:00</time>
      </trkpt>
      <trkpt lat="43.21175" lon="-4.51496">
        <ele>1025.9</ele>
        <time>2023-07-13T09:08:12.000+02:00</time>
      </trkpt>
      <trkpt lat="43.21038" lon="-4.51231">
        <ele>1010.8</ele>
        <time>2023-07-13T09:08:48.000+02:00</time>
      </trkpt>
      <trkpt lat="43.20727" lon="-4.50953">
        <ele>1017.2</ele>
        <time>2023-07-13T09:09:45.000+02:00</time>
      </trkpt>
      <trkpt lat="43.20699" lon="-4.50961">
        <ele>1011.8</ele>
        <time>2023-07-13T09:09:49.000+02:00</time>
      </trkpt>
      <trkpt lat="43.20651" lon="-4.51061">
        <ele>1006.3</ele>
        <time>2023-07-13T09:10:02.000+02:00</time>
      </trkpt>
      <trkpt lat="43.20586" lon="-4.51365">
        <ele>1007.8</ele>
        <time>2023-07-13T09:10:38.000+02:00</time>
      </trkpt>
      <trkpt lat="43.20659" lon="-4.51352">
        <ele>1022.9</ele>
        <time>2023-07-13T09:10:49.000+02:00</time>
      </trkpt>
      <trkpt lat="43.20676" lon="-4.51394">
        <ele>1030.4</ele>
        <time>2023-07-13T09:10:54.000+02:00</time>
      </trkpt>
      <trkpt lat="43.20681" lon="-4.51682">
        <ele>1064.9</ele>
        <time>2023-07-13T09:11:26.000+02:00</time>
      </trkpt>
      <trkpt lat="43.20748" lon="-4.51982">
        <ele>1096.5</ele>
        <time>2023-07-13T09:12:01.000+02:00</time>
      </trkpt>
      <trkpt lat="43.20744" lon="-4.52203">
        <ele>1110.6</ele>
        <time>2023-07-13T09:12:26.000+02:00</time>
      </trkpt>
      <trkpt lat="43.20674" lon="-4.52318">
        <ele>1124.2</ele>
        <time>2023-07-13T09:12:43.000+02:00</time>
      </trkpt>
      <trkpt lat="43.20661" lon="-4.52593">
        <ele>1148.2</ele>
        <time>2023-07-13T09:13:13.000+02:00</time>
      </trkpt>
      <trkpt lat="43.20528" lon="-4.52351">
        <ele>1173.4</ele>
        <time>2023-07-13T09:13:47.000+02:00</time>
      </trkpt>
      <trkpt lat="43.20335" lon="-4.52179">
        <ele>1204</ele>
        <time>2023-07-13T09:14:22.000+02:00</time>
      </trkpt>
      <trkpt lat="43.2015" lon="-4.52217">
        <ele>1234.6</ele>
        <time>2023-07-13T09:14:51.000+02:00</time>
      </trkpt>
      <trkpt lat="43.20086" lon="-4.52187">
        <ele>1243.1</ele>
        <time>2023-07-13T09:15:01.000+02:00</time>
      </trkpt>
      <trkpt lat="43.20005" lon="-4.51938">
        <ele>1267.9</ele>
        <time>2023-07-13T09:15:32.000+02:00</time>
      </trkpt>
      <trkpt lat="43.19957" lon="-4.51892">
        <ele>1276.4</ele>
        <time>2023-07-13T09:15:41.000+02:00</time>
      </trkpt>
      <trkpt lat="43.19757" lon="-4.51909">
        <ele>1311.1</ele>
        <time>2023-07-13T09:16:11.000+02:00</time>
      </trkpt>
      <trkpt lat="43.19874" lon="-4.52017">
        <ele>1324.8</ele>
        <time>2023-07-13T09:16:33.000+02:00</time>
      </trkpt>
      <trkpt lat="43.19979" lon="-4.52305">
        <ele>1320.6</ele>
        <time>2023-07-13T09:17:09.000+02:00</time>
      </trkpt>
      <trkpt lat="43.20175" lon="-4.52438">
        <ele>1319.3</ele>
        <time>2023-07-13T09:17:42.000+02:00</time>
      </trkpt>
      <trkpt lat="43.19975" lon="-4.52646">
        <ele>1330.6</ele>
        <time>2023-07-13T09:18:21.000+02:00</time>
      </trkpt>
      <trkpt lat="43.19836" lon="-4.52875">
        <ele>1338.5</ele>
        <time>2023-07-13T09:18:54.000+02:00</time>
      </trkpt>
      <trkpt lat="43.198" lon="-4.53035">
        <ele>1345.3</ele>
        <time>2023-07-13T09:19:12.000+02:00</time>
      </trkpt>
      <trkpt lat="43.19798" lon="-4.53225">
        <ele>1346</ele>
        <time>2023-07-13T09:19:34.000+02:00</time>
      </trkpt>
      <trkpt lat="43.19831" lon="-4.53305">
        <ele>1341.7</ele>
        <time>2023-07-13T09:19:44.000+02:00</time>
      </trkpt>
      <trkpt lat="43.19818" lon="-4.53329">
        <ele>1339.4</ele>
        <time>2023-07-13T09:19:47.000+02:00</time>
      </trkpt>
      <trkpt lat="43.19479" lon="-4.5338">
        <ele>1283.8</ele>
        <time>2023-07-13T09:20:39.000+02:00</time>
      </trkpt>
      <trkpt lat="43.19465" lon="-4.53404">
        <ele>1279.1</ele>
        <time>2023-07-13T09:20:43.000+02:00</time>
      </trkpt>
      <trkpt lat="43.19484" lon="-4.53503">
        <ele>1266.3</ele>
        <time>2023-07-13T09:20:54.000+02:00</time>
      </trkpt>
      <trkpt lat="43.19381" lon="-4.53639">
        <ele>1251.1</ele>
        <time>2023-07-13T09:21:16.000+02:00</time>
      </trkpt>
      <trkpt lat="43.19299" lon="-4.53681">
        <ele>1256.5</ele>
        <time>2023-07-13T09:21:29.000+02:00</time>
      </trkpt>
      <trkpt lat="43.1918" lon="-4.53893">
        <ele>1269.1</ele>
        <time>2023-07-13T09:21:59.000+02:00</time>
      </trkpt>
      <trkpt lat="43.19138" lon="-4.53904">
        <ele>1271.3</ele>
        <time>2023-07-13T09:22:05.000+02:00</time>
      </trkpt>
      <trkpt lat="43.19084" lon="-4.53872">
        <ele>1261.8</ele>
        <time>2023-07-13T09:22:14.000+02:00</time>
      </trkpt>
      <trkpt lat="43.19045" lon="-4.53931">
        <ele>1250.4</ele>
        <time>2023-07-13T09:22:23.000+02:00</time>
      </trkpt>
      <trkpt lat="43.18808" lon="-4.53822">
        <ele>1198.7</ele>
        <time>2023-07-13T09:23:02.000+02:00</time>
      </trkpt>
      <trkpt lat="43.18826" lon="-4.53879">
        <ele>1184.8</ele>
        <time>2023-07-13T09:23:08.000+02:00</time>
      </trkpt>
      <trkpt lat="43.18736" lon="-4.53875">
        <ele>1159.6</ele>
        <time>2023-07-13T09:23:22.000+02:00</time>
      </trkpt>
      <trkpt lat="43.18752" lon="-4.53953">
        <ele>1142.6</ele>
        <time>2023-07-13T09:23:31.000+02:00</time>
      </trkpt>
      <trkpt lat="43.18797" lon="-4.54005">
        <ele>1134.8</ele>
        <time>2023-07-13T09:23:40.000+02:00</time>
      </trkpt>
      <trkpt lat="43.18725" lon="-4.54227">
        <ele>1102.8</ele>
        <time>2023-07-13T09:24:07.000+02:00</time>
      </trkpt>
      <trkpt lat="43.18729" lon="-4.54351">
        <ele>1089.3</ele>
        <time>2023-07-13T09:24:21.000+02:00</time>
      </trkpt>
      <trkpt lat="43.18666" lon="-4.54434">
        <ele>1075.2</ele>
        <time>2023-07-13T09:24:35.000+02:00</time>
      </trkpt>
      <trkpt lat="43.18662" lon="-4.54329">
        <ele>1056.6</ele>
        <time>2023-07-13T09:24:46.000+02:00</time>
      </trkpt>
      <trkpt lat="43.18571" lon="-4.54425">
        <ele>1032.6</ele>
        <time>2023-07-13T09:25:04.000+02:00</time>
      </trkpt>
      <trkpt lat="43.18537" lon="-4.54397">
        <ele>1022.2</ele>
        <time>2023-07-13T09:25:10.000+02:00</time>
      </trkpt>
      <trkpt lat="43.18525" lon="-4.54547">
        <ele>1003</ele>
        <time>2023-07-13T09:25:27.000+02:00</time>
      </trkpt>
      <trkpt lat="43.18553" lon="-4.5464">
        <ele>995.2</ele>
        <time>2023-07-13T09:25:38.000+02:00</time>
      </trkpt>
      <trkpt lat="43.18546" lon="-4.54818">
        <ele>973</ele>
        <time>2023-07-13T09:25:58.000+02:00</time>
      </trkpt>
      <trkpt lat="43.18486" lon="-4.54889">
        <ele>956.4</ele>
        <time>2023-07-13T09:26:10.000+02:00</time>
      </trkpt>
      <trkpt lat="43.18419" lon="-4.54937">
        <ele>946.6</ele>
        <time>2023-07-13T09:26:21.000+02:00</time>
      </trkpt>
      <trkpt lat="43.18372" lon="-4.54937">
        <ele>939.4</ele>
        <time>2023-07-13T09:26:28.000+02:00</time>
      </trkpt>
      <trkpt lat="43.1832" lon="-4.54777">
        <ele>917.4</ele>
        <time>2023-07-13T09:26:48.000+02:00</time>
      </trkpt>
      <trkpt lat="43.18235" lon="-4.5473">
        <ele>906.5</ele>
        <time>2023-07-13T09:27:02.000+02:00</time>
      </trkpt>
      <trkpt lat="43.18175" lon="-4.54639">
        <ele>893.7</ele>
        <time>2023-07-13T09:27:16.000+02:00</time>
      </trkpt>
      <trkpt lat="43.18116" lon="-4.54766">
        <ele>874.7</ele>
        <time>2023-07-13T09:27:32.000+02:00</time>
      </trkpt>
      <trkpt lat="43.18075" lon="-4.54783">
        <ele>865.2</ele>
        <time>2023-07-13T09:27:39.000+02:00</time>
      </trkpt>
      <trkpt lat="43.18032" lon="-4.54579">
        <ele>847.5</ele>
        <time>2023-07-13T09:28:03.000+02:00</time>
      </trkpt>
      <trkpt lat="43.17975" lon="-4.54719">
        <ele>830</ele>
        <time>2023-07-13T09:28:20.000+02:00</time>
      </trkpt>
      <trkpt lat="43.17933" lon="-4.54585">
        <ele>809</ele>
        <time>2023-07-13T09:28:37.000+02:00</time>
      </trkpt>
      <trkpt lat="43.17841" lon="-4.54973">
        <ele>750.4</ele>
        <time>2023-07-13T09:29:22.000+02:00</time>
      </trkpt>
      <trkpt lat="43.17801" lon="-4.54873">
        <ele>731.4</ele>
        <time>2023-07-13T09:29:35.000+02:00</time>
      </trkpt>
      <trkpt lat="43.17765" lon="-4.54835">
        <ele>726.1</ele>
        <time>2023-07-13T09:29:42.000+02:00</time>
      </trkpt>
      <trkpt lat="43.17742" lon="-4.54856">
        <ele>724.7</ele>
        <time>2023-07-13T09:29:46.000+02:00</time>
      </trkpt>
      <trkpt lat="43.17711" lon="-4.55238">
        <ele>688.8</ele>
        <time>2023-07-13T09:30:29.000+02:00</time>
      </trkpt>
      <trkpt lat="43.17751" lon="-4.55748">
        <ele>651.7</ele>
        <time>2023-07-13T09:31:26.000+02:00</time>
      </trkpt>
      <trkpt lat="43.17835" lon="-4.56073">
        <ele>608</ele>
        <time>2023-07-13T09:32:04.000+02:00</time>
      </trkpt>
      <trkpt lat="43.17963" lon="-4.56297">
        <ele>579.6</ele>
        <time>2023-07-13T09:32:36.000+02:00</time>
      </trkpt>
      <trkpt lat="43.18027" lon="-4.56645">
        <ele>545.5</ele>
        <time>2023-07-13T09:33:16.000+02:00</time>
      </trkpt>
      <trkpt lat="43.17961" lon="-4.56827">
        <ele>530.9</ele>
        <time>2023-07-13T09:33:39.000+02:00</time>
      </trkpt>
      <trkpt lat="43.1797" lon="-4.57121">
        <ele>508.3</ele>
        <time>2023-07-13T09:34:12.000+02:00</time>
      </trkpt>
      <trkpt lat="43.18043" lon="-4.57367">
        <ele>485.2</ele>
        <time>2023-07-13T09:34:41.000+02:00</time>
      </trkpt>
      <trkpt lat="43.1807" lon="-4.57604">
        <ele>475</ele>
        <time>2023-07-13T09:35:08.000+02:00</time>
      </trkpt>
      <trkpt lat="43.18172" lon="-4.57936">
        <ele>450</ele>
        <time>2023-07-13T09:35:48.000+02:00</time>
      </trkpt>
      <trkpt lat="43.18145" lon="-4.58491">
        <ele>427.7</ele>
        <time>2023-07-13T09:36:50.000+02:00</time>
      </trkpt>
      <trkpt lat="43.18194" lon="-4.58623">
        <ele>419.6</ele>
        <time>2023-07-13T09:37:06.000+02:00</time>
      </trkpt>
      <trkpt lat="43.18233" lon="-4.58854">
        <ele>411</ele>
        <time>2023-07-13T09:37:33.000+02:00</time>
      </trkpt>
      <trkpt lat="43.1835" lon="-4.5902">
        <ele>396.3</ele>
        <time>2023-07-13T09:37:59.000+02:00</time>
      </trkpt>
      <trkpt lat="43.18397" lon="-4.59351">
        <ele>382</ele>
        <time>2023-07-13T09:38:36.000+02:00</time>
      </trkpt>
      <trkpt lat="43.18452" lon="-4.59428">
        <ele>375.9</ele>
        <time>2023-07-13T09:38:48.000+02:00</time>
      </trkpt>
      <trkpt lat="43.18469" lon="-4.59507">
        <ele>371.6</ele>
        <time>2023-07-13T09:38:57.000+02:00</time>
      </trkpt>
      <trkpt lat="43.18543" lon="-4.59646">
        <ele>365</ele>
        <time>2023-07-13T09:39:16.000+02:00</time>
      </trkpt>
      <trkpt lat="43.18678" lon="-4.59776">
        <ele>361.9</ele>
        <time>2023-07-13T09:39:42.000+02:00</time>
      </trkpt>
      <trkpt lat="43.18701" lon="-4.59829">
        <ele>366.3</ele>
        <time>2023-07-13T09:39:48.000+02:00</time>
      </trkpt>
      <trkpt lat="43.18831" lon="-4.59865">
        <ele>354.9</ele>
        <time>2023-07-13T09:40:09.000+02:00</time>
      </trkpt>
      <trkpt lat="43.18843" lon="-4.59892">
        <ele>356.5</ele>
        <time>2023-07-13T09:40:12.000+02:00</time>
      </trkpt>
      <trkpt lat="43.18694" lon="-4.60026">
        <ele>336.5</ele>
        <time>2023-07-13T09:40:40.000+02:00</time>
      </trkpt>
      <trkpt lat="43.18311" lon="-4.59923">
        <ele>298.8</ele>
        <time>2023-07-13T09:41:39.000+02:00</time>
      </trkpt>
      <trkpt lat="43.18029" lon="-4.5997">
        <ele>274.6</ele>
        <time>2023-07-13T09:42:23.000+02:00</time>
      </trkpt>
      <trkpt lat="43.18032" lon="-4.60006">
        <ele>1334</ele>
        <time>2023-07-13T10:56:18.000+02:00</time>
      </trkpt>
    </trkseg>
  </trk>
</gpx>